
Distance (Route):
Temperature : 23.5°C
Humidity : 43.5%
Pressure : 995.7hPa| Receiver | Frames | First received | Last received |
|---|---|---|---|
| BIOWL1-15 | 699 | 2026-08-30 17:01:29 | 2026-08-30 19:16:48 |
| DM0DOS-11 | 525 | 2026-08-30 17:03:11 | 2026-08-30 19:17:10 |
| DL1XH-west | 512 | 2026-08-30 17:34:55 | 2026-08-30 19:06:55 |
| HSKMA3-T | 411 | 2026-08-30 17:30:05 | 2026-08-30 19:10:48 |
| DL1XH1-15 | 334 | 2026-08-30 17:39:09 | 2026-08-30 19:06:47 |
| AA1-15 | 265 | 2026-08-30 17:59:21 | 2026-08-30 19:02:52 |
| DO3MHA-11 | 200 | 2026-08-30 17:17:10 | 2026-08-30 19:12:02 |
| DL1XH-15 | 197 | 2026-08-30 17:54:37 | 2026-08-30 19:02:18 |
| DJ2DS-15 | 158 | 2026-08-30 17:22:34 | 2026-08-30 19:10:14 |
| DF8AY | 152 | 2026-08-30 18:02:10 | 2026-08-30 19:01:11 |
| DB0UT-7 | 101 | 2026-08-30 16:48:33 | 2026-08-30 19:20:49 |
| DL1ZP-14 | 83 | 2026-08-30 16:53:17 | 2026-08-30 19:21:21 |
| DB0NH | 79 | 2026-08-30 17:14:12 | 2026-08-30 19:18:04 |
| DO3DL | 79 | 2026-08-30 17:17:49 | 2026-08-30 19:12:55 |
| DF7PN | 78 | 2026-08-30 16:52:59 | 2026-08-30 19:21:01 |
| DB0UT-9 | 77 | 2026-08-30 16:48:28 | 2026-08-30 19:20:32 |
| DK5PH-5 | 77 | 2026-08-30 16:56:10 | 2026-08-30 19:18:46 |
| DB0ND-19 | 75 | 2026-08-30 16:49:49 | 2026-08-30 19:20:20 |
| DL9PN | 61 | 2026-08-30 16:49:45 | 2026-08-30 19:06:26 |
| CB1BUN | 60 | 2026-08-30 16:50:18 | 2026-08-30 19:09:15 |
| NBG1-10 | 60 | 2026-08-30 17:11:36 | 2026-08-30 19:18:38 |
| DD1CC8 | 54 | 2026-08-30 17:23:06 | 2026-08-30 19:10:45 |
| DL8DAS-15 | 51 | 2026-08-30 17:11:22 | 2026-08-30 19:00:10 |
| DL4BBY-15 | 51 | 2026-08-30 17:32:39 | 2026-08-30 19:07:09 |
| DF1GD-15 | 50 | 2026-08-30 16:58:15 | 2026-08-30 19:13:17 |
| HEMX73-11 | 49 | 2026-08-30 16:51:19 | 2026-08-30 19:07:11 |
| DL8DAS-14 | 49 | 2026-08-30 17:11:12 | 2026-08-30 19:11:40 |
| DM7RM-13 | 45 | 2026-08-30 17:22:52 | 2026-08-30 19:15:35 |
| BIOWL7-15 | 44 | 2026-08-30 17:03:14 | 2026-08-30 19:15:37 |
| DL0LBS | 44 | 2026-08-30 17:07:28 | 2026-08-30 19:16:33 |
| DL3AQ-11 | 42 | 2026-08-30 18:09:06 | 2026-08-30 18:51:57 |
| BIOWL9-15 | 40 | 2026-08-30 17:03:16 | 2026-08-30 19:16:44 |
| DF3TZ-5 | 40 | 2026-08-30 17:17:37 | 2026-08-30 19:08:51 |
| DO1YAY-16 | 39 | 2026-08-30 17:09:46 | 2026-08-30 19:07:48 |
| DJ2KF-10 | 39 | 2026-08-30 17:23:36 | 2026-08-30 19:05:40 |
| DC4HF-4 | 36 | 2026-08-30 17:39:43 | 2026-08-30 19:06:51 |
| SONDE2-11 | 25 | 2026-08-30 17:56:21 | 2026-08-30 19:04:08 |
| SONCRA | 24 | 2026-08-30 17:51:43 | 2026-08-30 19:05:44 |
| EDDB2-11 | 22 | 2026-08-30 18:14:37 | 2026-08-30 19:01:10 |
| DO2KSM | 21 | 2026-08-30 17:23:14 | 2026-08-30 19:13:55 |
| EDDB2-12 | 19 | 2026-08-30 18:11:38 | 2026-08-30 19:03:53 |
| GOEST3-10 | 19 | 2026-08-30 18:33:45 | 2026-08-30 18:53:08 |
| DL1KLB | 18 | 2026-08-30 17:01:25 | 2026-08-30 19:14:59 |
| DO9LL-15 | 18 | 2026-08-30 17:29:09 | 2026-08-30 19:11:41 |
| DL8OAI-8 | 18 | 2026-08-30 17:36:03 | 2026-08-30 19:06:58 |
| KANTATE | 18 | 2026-08-30 17:38:41 | 2026-08-30 19:11:55 |
| DD1CC2-15 | 17 | 2026-08-30 17:24:31 | 2026-08-30 18:56:08 |
| SFWM-10 | 17 | 2026-08-30 17:36:04 | 2026-08-30 19:06:59 |
| DM3KS-11 | 15 | 2026-08-30 16:54:45 | 2026-08-30 17:08:44 |
| DH7VM-15 | 14 | 2026-08-30 16:58:17 | 2026-08-30 19:05:48 |
| DJTTGO | 14 | 2026-08-30 17:43:04 | 2026-08-30 18:42:53 |
| DO8TBO-1 | 14 | 2026-08-30 18:00:59 | 2026-08-30 19:03:43 |
| DN1GJH-1 | 12 | 2026-08-30 17:51:04 | 2026-08-30 18:46:48 |
| BUE01 | 10 | 2026-08-30 18:33:06 | 2026-08-30 19:01:34 |
| D01LWL | 9 | 2026-08-30 18:05:55 | 2026-08-30 18:56:06 |
| HTAHTA | 8 | 2026-08-30 18:20:46 | 2026-08-30 18:59:04 |
| DL1CLM-18 | 8 | 2026-08-30 18:36:33 | 2026-08-30 18:58:38 |
| BEGRI65-1 | 5 | 2026-08-30 17:41:02 | 2026-08-30 17:51:40 |
| DL3OBA | 5 | 2026-08-30 18:02:02 | 2026-08-30 18:21:03 |
| IW2NTF | 5 | 2026-08-30 18:46:47 | 2026-08-30 18:57:55 |
| DL1NUX | 5 | 2026-08-30 19:03:14 | 2026-08-30 19:07:47 |
| DG1MJG | 4 | 2026-08-30 18:13:31 | 2026-08-30 18:59:58 |
| DL6DJ-15 | 3 | 2026-08-30 18:39:44 | 2026-08-30 18:56:49 |
| DJ3KS | 2 | 2026-08-30 17:17:48 | 2026-08-30 17:18:12 |
| PG1ADW-2 | 2 | 2026-08-30 18:47:48 | 2026-08-30 18:48:08 |
| OE5DRO-10 | 2 | 2026-08-30 18:53:25 | 2026-08-30 18:53:44 |
| SO1NDE-10 | 2 | 2026-08-30 19:06:04 | 2026-08-30 19:07:00 |
| HEMX73-6 | 1 | 2026-08-30 19:06:27 | 2026-08-30 19:06:27 |
| Receiver | Date | Latitude | Longitude | Direction | Speed | Altitude | Climb | Temperature | Humidity | Pressure | Voltage | Killtimer | Uptime | BKT | XDATA |
|---|---|---|---|---|---|---|---|---|---|---|---|---|---|---|---|
| DL1ZP-14 | 2026-08-30 19:21:21 | 50.11462 | 8.71729 | 104° | 7km/h | 187m | -12.6m/s | 23.5°C | 43.5% | 995.7hPa | 2.7V | 00:00:00 | 00:00:00 | 00:00:00 | |
| DF7PN | 2026-08-30 19:21:01 | 50.11464 | 8.71698 | 107° | 13km/h | 278m | -12.9m/s | 22.8°C | 44.5% | 985.1hPa | 2.6V | 00:00:00 | 00:00:00 | 00:00:00 | |
| DL1ZP-14 | 2026-08-30 19:20:50 | 50.11469 | 8.71622 | 101° | 22km/h | 414m | -12.4m/s | 21.7°C | 45.7% | 969.9hPa | 2.6V | 00:00:00 | 00:00:00 | 00:00:00 | |
| DB0UT-7 | 2026-08-30 19:20:49 | 50.11470 | 8.71613 | 104° | 22km/h | 426m | -13.3m/s | 21.6°C | 45.4% | 968.5hPa | 2.6V | 02:29:00 | 00:00:00 | 00:00:00 | |
| DB0UT-7 | 2026-08-30 19:20:44 | 50.11471 | 8.71569 | 86° | 24km/h | 488m | -12.1m/s | 21.0°C | 46.8% | 961.7hPa | 2.7V | 00:00:00 | 02:38:57 | 00:00:00 | |
| DB0UT-7 | 2026-08-30 19:20:39 | 50.11471 | 8.71520 | 84° | 26km/h | 550m | -11.9m/s | 20.5°C | 47.5% | 954.7hPa | 2.7V | 00:00:00 | 00:00:00 | 00:00:00 | |
| DB0UT-7 | 2026-08-30 19:20:34 | 50.11468 | 8.71469 | 84° | 26km/h | 613m | -12.6m/s | 20.0°C | 48.1% | 947.9hPa | 2.7V | 02:30:00 | 02:38:47 | 00:00:00 | |
| DB0UT-9 | 2026-08-30 19:20:32 | 50.11467 | 8.71458 | 93° | 26km/h | 625m | -12.7m/s | 20.0°C | 48.6% | 946.5hPa | 2.7V | 02:30:00 | 00:00:00 | 00:00:00 | |
| DF7PN | 2026-08-30 19:20:30 | 50.11465 | 8.71430 | 79° | 26km/h | 662m | -12.2m/s | 19.6°C | 49.4% | 942.7hPa | 2.7V | 00:00:00 | 00:00:00 | 00:00:00 | |
| DB0UT-7 | 2026-08-30 19:20:29 | 50.11464 | 8.71419 | 88° | 26km/h | 674m | -12.6m/s | 19.5°C | 49.2% | 941.2hPa | 2.7V | 00:00:00 | 00:00:00 | 00:00:00 | |
| DB0UT-7 | 2026-08-30 19:20:24 | 50.11459 | 8.71371 | 83° | 26km/h | 735m | -12.6m/s | 18.9°C | 50.3% | 934.6hPa | 2.7V | 00:00:00 | 02:38:37 | 00:00:00 | |
| DB0ND-19 | 2026-08-30 19:20:20 | 50.11453 | 8.71321 | 86° | 26km/h | 797m | -12.6m/s | 18.4°C | 51.7% | 927.9hPa | 2.7V | 00:00:00 | 00:00:00 | 00:00:00 | |
| DL1ZP-14 | 2026-08-30 19:20:19 | 50.11453 | 8.71321 | 86° | 26km/h | 797m | -12.6m/s | 18.4°C | 51.7% | 927.9hPa | 2.7V | 00:00:00 | 00:00:00 | 00:00:00 | |
| DB0UT-7 | 2026-08-30 19:20:14 | 50.11446 | 8.71273 | 84° | 26km/h | 859m | -12.6m/s | 17.8°C | 53.4% | 921.3hPa | 2.6V | 00:00:00 | 02:38:27 | 00:00:00 | |
| DB0UT-9 | 2026-08-30 19:20:12 | 50.11445 | 8.71263 | 81° | 24km/h | 871m | -12.9m/s | 17.7°C | 54.0% | 920.1hPa | 2.6V | 02:30:00 | 00:00:00 | 00:00:00 | |
| DB0UT-7 | 2026-08-30 19:20:09 | 50.11438 | 8.71224 | 83° | 27km/h | 918m | -12.2m/s | 17.3°C | 53.6% | 914.7hPa | 2.6V | 00:00:00 | 00:00:00 | 00:00:00 | |
| DB0UT-7 | 2026-08-30 19:20:04 | 50.11432 | 8.71170 | 83° | 29km/h | 979m | -12.6m/s | 16.7°C | 54.8% | 908.3hPa | 2.6V | 02:30:00 | 02:38:17 | 00:00:00 | |
| DF7PN | 2026-08-30 19:19:59 | 50.11424 | 8.71113 | 75° | 31km/h | 1041m | -12.6m/s | 16.2°C | 56.8% | 901.8hPa | 2.6V | 00:00:00 | 00:00:00 | 00:00:00 | |
| DB0ND-19 | 2026-08-30 19:19:49 | 50.11401 | 8.70983 | 73° | 33km/h | 1175m | -11.9m/s | 15.0°C | 59.5% | 887.5hPa | 2.6V | 00:00:00 | 00:00:00 | 00:00:00 | |
| DL1ZP-14 | 2026-08-30 19:19:48 | 50.11401 | 8.70983 | 73° | 33km/h | 1175m | -11.9m/s | 0°C | -1.0% | 887.5hPa | 2.6V | 00:00:00 | 00:00:00 | 00:00:00 | |
| DB0UT-7 | 2026-08-30 19:19:39 | 50.11377 | 8.70868 | 73° | 38km/h | 1281m | -13.0m/s | 14.1°C | 62.3% | 876.5hPa | 2.6V | 02:31:00 | 00:00:00 | 00:00:00 | |
| DB0UT-9 | 2026-08-30 19:19:30 | 50.11346 | 8.70756 | 66° | 42km/h | 1376m | -11.8m/s | 13.4°C | 65.2% | 866.7hPa | 2.6V | 00:00:00 | 00:00:00 | 00:00:00 | |
| DB0UT-7 | 2026-08-30 19:19:29 | 50.11337 | 8.70725 | 72° | 51km/h | 1400m | -11.8m/s | 13.2°C | 65.2% | 864.3hPa | 2.6V | 00:00:00 | 02:37:42 | 00:00:00 | |
| DF7PN | 2026-08-30 19:19:28 | 50.11333 | 8.70709 | 73° | 42km/h | 1411m | -11.8m/s | 13.2°C | 63.8% | 863.0hPa | 2.6V | 00:00:00 | 00:00:00 | 00:00:00 | |
| DB0ND-19 | 2026-08-30 19:19:18 | 50.11287 | 8.70531 | 62° | 46km/h | 1541m | -11.7m/s | 12.2°C | 65.2% | 849.9hPa | 2.6V | 00:00:00 | 00:00:00 | 00:00:00 | |
| DL1ZP-14 | 2026-08-30 19:19:17 | 50.11287 | 8.70531 | 62° | 46km/h | 1541m | -11.7m/s | 12.2°C | 65.2% | 849.9hPa | 2.6V | 00:00:00 | 00:00:00 | 00:00:00 | |
| DB0UT-9 | 2026-08-30 19:19:09 | 50.11251 | 8.70412 | 64° | 47km/h | 1622m | -12.1m/s | 11.7°C | 63.8% | 841.6hPa | 2.6V | 00:00:00 | 00:00:00 | 00:00:00 | |
| DF7PN | 2026-08-30 19:18:57 | 50.11180 | 8.70179 | 64° | 47km/h | 1779m | -12.9m/s | 10.3°C | 68.5% | 826.0hPa | 2.6V | 00:00:00 | 00:00:00 | 00:00:00 | |
| DB0ND-19 | 2026-08-30 19:18:47 | 50.11123 | 8.69976 | 65° | 53km/h | 1913m | -11.7m/s | 9.2°C | 71.3% | 813.0hPa | 2.6V | 00:00:00 | 00:00:00 | 00:00:00 | |
| DL1ZP-14 | 2026-08-30 19:18:46 | 50.11118 | 8.69957 | 69° | 53km/h | 1924m | -12.3m/s | 0°C | -1.0% | -1.0hPa | 2.6V | 00:00:00 | 00:00:00 | 00:00:00 | |
| DK5PH-5 | 2026-08-30 19:18:46 | 50.11123 | 8.69976 | 66° | 53km/h | 1913m | -11.6m/s | 9.2°C | 71.7% | 812.9hPa | 2.5V | 00:00:00 | 02:36:59 | 00:00:00 | |
| NBG1-10 | 2026-08-30 19:18:38 | 50.11084 | 8.69819 | 72° | 57km/h | 2009m | -12.3m/s | 8.3°C | 76.1% | 803.5hPa | 2.5V | 00:00:00 | 02:36:51 | 00:00:00 | |
| DK5PH-5 | 2026-08-30 19:18:36 | 50.11075 | 8.69778 | 72° | 57km/h | 2033m | -12.8m/s | 8.0°C | 77.5% | 801.0hPa | 2.5V | 02:32:00 | 02:36:49 | 00:00:00 | |
| DB0UT-7 | 2026-08-30 19:18:33 | 50.11060 | 8.69718 | 68° | 57km/h | 2071m | -11.9m/s | 7.7°C | 78.7% | 797.5hPa | 2.6V | 00:00:00 | 00:00:00 | 00:00:00 | |
| DF7PN | 2026-08-30 19:18:26 | 50.11024 | 8.69572 | 68° | 57km/h | 2156m | -12.1m/s | 7.1°C | 76.9% | 789.1hPa | 2.6V | 00:00:00 | 00:00:00 | 00:00:00 | |
| DB0UT-9 | 2026-08-30 19:18:25 | 50.11024 | 8.69572 | 69° | 58km/h | 2156m | -12.1m/s | 7.1°C | 76.9% | 789.1hPa | 2.6V | 02:32:00 | 00:00:00 | 00:00:00 | |
| NBG1-10 | 2026-08-30 19:18:16 | 50.10972 | 8.69364 | 69° | 57km/h | 2280m | -13.3m/s | 6.4°C | 78.4% | 777.2hPa | 2.6V | 00:00:00 | 02:36:29 | 00:00:00 | |
| DL1ZP-14 | 2026-08-30 19:18:15 | 50.10961 | 8.69324 | 65° | 57km/h | 2305m | -12.4m/s | 6.5°C | 72.2% | 775.0hPa | 2.6V | 00:00:00 | 00:00:00 | 00:00:00 | |
| DK5PH-5 | 2026-08-30 19:18:14 | 50.10961 | 8.69324 | 66° | 58km/h | 2305m | -12.4m/s | 6.5°C | 72.7% | 775.0hPa | 2.6V | 00:00:00 | 02:36:27 | 00:00:00 | |
| DB0UT-7 | 2026-08-30 19:18:13 | 50.10955 | 8.69303 | 70° | 58km/h | 2317m | -12.4m/s | 6.4°C | 73.7% | 773.7hPa | 2.6V | 02:32:00 | 02:36:26 | 00:00:00 | |
| DB0UT-9 | 2026-08-30 19:18:05 | 50.10919 | 8.69156 | 71° | 60km/h | 2405m | -12.4m/s | 0°C | 0% | 765.3hPa | 2.5V | 00:00:00 | 00:00:00 | 00:00:00 | |
| DB0NH | 2026-08-30 19:18:04 | 50.10910 | 8.69112 | 74° | 58km/h | 2430m | -13.2m/s | 5.6°C | 75.4% | 763.1hPa | 2.5V | 00:00:00 | 02:36:17 | 00:00:00 | |
| DF7PN | 2026-08-30 19:17:55 | 50.10865 | 8.68917 | 69° | 57km/h | 2545m | -13.6m/s | 4.9°C | 76.9% | 752.5hPa | 2.5V | 00:00:00 | 00:00:00 | 00:00:00 | |
| DK5PH-5 | 2026-08-30 19:17:54 | 50.10859 | 8.68896 | 69° | 53km/h | 2559m | -12.9m/s | 4.7°C | 79.5% | 751.3hPa | 2.5V | 00:00:00 | 02:36:07 | 00:00:00 | |
| DB0UT-7 | 2026-08-30 19:17:53 | 50.10853 | 8.68874 | 69° | 53km/h | 2571m | -12.4m/s | 4.6°C | 81.8% | 750.2hPa | 2.5V | 00:00:00 | 00:00:00 | 00:00:00 | |
| DL1ZP-14 | 2026-08-30 19:17:44 | 50.10803 | 8.68664 | 71° | 51km/h | 2704m | -14.0m/s | 4.4°C | 54.2% | 738.1hPa | 2.5V | 00:00:00 | 00:00:00 | 00:00:00 | |
| DK5PH-5 | 2026-08-30 19:17:34 | 50.10754 | 8.68513 | 64° | 49km/h | 2825m | -14.3m/s | 5.3°C | 16.8% | 727.2hPa | 2.6V | 02:33:00 | 02:35:47 | 00:00:00 | |
| DB0UT-7 | 2026-08-30 19:17:33 | 50.10748 | 8.68497 | 59° | 49km/h | 2839m | -14.1m/s | 5.4°C | 14.8% | 726.1hPa | 2.6V | 00:00:00 | 02:35:46 | 00:00:00 | |
| NBG1-10 | 2026-08-30 19:17:26 | 50.10695 | 8.68386 | 57° | 51km/h | 2930m | -13.9m/s | 5.8°C | 9.4% | 717.7hPa | 2.6V | 00:00:00 | 02:35:39 | 00:00:00 | |
| DF7PN | 2026-08-30 19:17:24 | 50.10681 | 8.68355 | 55° | 47km/h | 2957m | -14.5m/s | 6.1°C | 10.8% | 715.5hPa | 2.6V | 00:00:00 | 00:00:00 | 00:00:00 | |
| DB0NH | 2026-08-30 19:17:18 | 50.10638 | 8.68257 | 60° | 51km/h | 3037m | -13.3m/s | 5.7°C | 14.0% | 708.3hPa | 2.6V | 00:00:00 | 02:35:31 | 00:00:00 | |
| DB0UT-7 | 2026-08-30 19:17:13 | 50.10608 | 8.68171 | 64° | 51km/h | 3103m | -14.4m/s | 5.3°C | 14.8% | 702.6hPa | 2.6V | 02:33:00 | 00:00:00 | 00:00:00 | |
| DM0DOS-11 | 2026-08-30 19:17:10 | 50.10592 | 8.68120 | 61° | 49km/h | 3145m | -14.1m/s | 5°C | 19.6% | 699.1hPa | 2.6V | 02:33:34 | 02:35:23 | 00:00:00 | |
| DM0DOS-11 | 2026-08-30 19:17:10 | 50.10558 | 8.68028 | 60° | 57km/h | 3211m | -13.2m/s | 4.4°C | 23.6% | 693.3hPa | 2.6V | 02:33:39 | 02:35:18 | 00:00:00 | |
| DM0DOS-11 | 2026-08-30 19:17:05 | 50.10525 | 8.67927 | 67° | 57km/h | 3277m | -13.8m/s | 3.8°C | 30.5% | 687.6hPa | 2.6V | 02:33:44 | 02:35:13 | 00:00:00 | |
| NBG1-10 | 2026-08-30 19:17:04 | 50.10551 | 8.68009 | 62° | 47km/h | 3224m | -13.2m/s | 4.2°C | 23.8% | 692.2hPa | 2.6V | 00:00:00 | 02:35:17 | 00:00:00 | |
| DM0DOS-11 | 2026-08-30 19:17:00 | 50.10498 | 8.67825 | 68° | 51km/h | 3346m | -14.7m/s | 3.6°C | 26.2% | 681.8hPa | 2.6V | 02:33:49 | 02:35:08 | 00:00:00 | |
| DM0DOS-11 | 2026-08-30 19:16:55 | 50.10474 | 8.67737 | 64° | 46km/h | 3418m | -14.7m/s | 3.7°C | 12.1% | 676.1hPa | 2.6V | 02:33:54 | 02:35:03 | 00:00:00 | |
| BIOWL1-15 | 2026-08-30 19:16:48 | 50.10464 | 8.67705 | 60° | 46km/h | 3447m | -14.2m/s | 3.6°C | 10.4% | 673.7hPa | 2.6V | 02:34:15 | 02:35:01 | 00:00:00 | |
| DB0NH | 2026-08-30 19:16:48 | 50.10464 | 8.67705 | 61° | 42km/h | 3447m | -14.1m/s | 3.5°C | 9.8% | 673.7hPa | 2.6V | 00:00:00 | 02:35:01 | 00:00:00 | |
| DM0DOS-11 | 2026-08-30 19:16:45 | 50.10447 | 8.67659 | 59° | 46km/h | 3489m | -13.2m/s | 3.3°C | 9.7% | 670.4hPa | 2.6V | 02:33:59 | 02:34:58 | 00:00:00 | |
| DM0DOS-11 | 2026-08-30 19:16:45 | 50.10416 | 8.67584 | 57° | 46km/h | 3557m | -13.8m/s | 2.7°C | 13.1% | 664.7hPa | 2.6V | 02:34:04 | 02:34:53 | 00:00:00 | |
| BIOWL9-15 | 2026-08-30 19:16:44 | 50.10435 | 8.67629 | 57° | 44km/h | 3517m | -13.6m/s | 3.1°C | 11.3% | 668.1hPa | 2.5V | 00:00:00 | 00:00:00 | 00:00:00 | |
| DB0UT-7 | 2026-08-30 19:16:43 | 50.10435 | 8.67629 | 58° | 42km/h | 3517m | -13.5m/s | 3.0°C | 11.4% | 668.1hPa | 2.5V | 00:00:00 | 02:34:56 | 00:00:00 | |
| DB0ND-19 | 2026-08-30 19:16:42 | 50.10429 | 8.67614 | 58° | 46km/h | 3530m | -13.2m/s | 2.9°C | 11.7% | 667.0hPa | 2.5V | 00:00:00 | 00:00:00 | 00:00:00 | |
| DL1ZP-14 | 2026-08-30 19:16:41 | 50.10423 | 8.67599 | 56° | 46km/h | 3544m | -13.2m/s | 2.8°C | 11.5% | 665.9hPa | 2.5V | 00:00:00 | 00:00:00 | 00:00:00 | |
| DM0DOS-11 | 2026-08-30 19:16:40 | 50.10385 | 8.67511 | 59° | 42km/h | 3625m | -14.1m/s | 2.1°C | 15.1% | 659.1hPa | 2.6V | 02:34:09 | 02:34:48 | 00:00:00 | |
| BIOWL1-15 | 2026-08-30 19:16:38 | 50.10403 | 8.67555 | 58° | 44km/h | 3584m | -13.5m/s | 2.5°C | 17.1% | 662.4hPa | 2.6V | 02:34:15 | 02:34:51 | 00:00:00 | |
| DM0DOS-11 | 2026-08-30 19:16:35 | 50.10357 | 8.67442 | 56° | 38km/h | 3695m | -14.8m/s | 1.6°C | 15.4% | 653.2hPa | 2.6V | 02:34:14 | 02:34:43 | 00:00:00 | |
| DL0LBS | 2026-08-30 19:16:33 | 50.10379 | 8.67497 | 62° | 42km/h | 3639m | -14.5m/s | 2.0°C | 14.7% | 657.9hPa | 2.6V | 02:34:00 | 00:00:00 | 00:00:00 | |
| DB0UT-9 | 2026-08-30 19:16:31 | 50.10368 | 8.67468 | 60° | 40km/h | 3667m | -14.7m/s | 0°C | 0% | 655.6hPa | 2.6V | 02:34:00 | 00:00:00 | 00:00:00 | |
| DM0DOS-11 | 2026-08-30 19:16:30 | 50.10327 | 8.67380 | 48° | 38km/h | 3767m | -14.6m/s | 1°C | 15.6% | 647.6hPa | 2.6V | 02:34:19 | 02:34:38 | 00:00:00 | |
| BIOWL1-15 | 2026-08-30 19:16:29 | 50.10339 | 8.67404 | 52° | 38km/h | 3738m | -14.8m/s | 1.3°C | 18.4% | 649.9hPa | 2.5V | 02:35:06 | 02:34:40 | 00:00:00 | |
| DM0DOS-11 | 2026-08-30 19:16:20 | 50.10291 | 8.67320 | 46° | 44km/h | 3837m | -13.3m/s | 0.5°C | 15.5% | 642.1hPa | 2.5V | 02:34:24 | 02:34:33 | 00:00:00 | |
| DM0DOS-11 | 2026-08-30 19:16:20 | 50.10251 | 8.67254 | 51° | 46km/h | 3903m | -14.1m/s | -0.1°C | 15.1% | 636.5hPa | 2.6V | 02:34:29 | 02:34:28 | 00:00:00 | |
| BIOWL1-15 | 2026-08-30 19:16:17 | 50.10267 | 8.67281 | 49° | 46km/h | 3877m | -13.3m/s | 0.1°C | 18.3% | 638.7hPa | 2.6V | 02:35:06 | 02:34:30 | 00:00:00 | |
| DM0DOS-11 | 2026-08-30 19:16:14 | 50.10211 | 8.67167 | 54° | 42km/h | 3988m | -14.9m/s | -0.6°C | 13.7% | 629.9hPa | 2.6V | 02:34:35 | 02:34:22 | 00:00:00 | |
| DK5PH-5 | 2026-08-30 19:16:14 | 50.10243 | 8.67240 | 53° | 47km/h | 3917m | -14.1m/s | -0.1°C | 14.8% | 635.4hPa | 2.5V | 02:34:00 | 02:34:27 | 00:00:00 | |
| DB0UT-7 | 2026-08-30 19:16:13 | 50.10236 | 8.67225 | 54° | 47km/h | 3931m | -14.0m/s | -0.2°C | 14.4% | 634.3hPa | 2.6V | 00:00:00 | 00:00:00 | 00:00:00 | |
| DL0LBS | 2026-08-30 19:16:12 | 50.10236 | 8.67225 | 55° | 46km/h | 3931m | -14.0m/s | -0.2°C | 14.1% | 634.3hPa | 2.6V | 02:35:00 | 00:00:00 | 00:00:00 | |
| DB0ND-19 | 2026-08-30 19:16:11 | 50.10223 | 8.67196 | 60° | 40km/h | 3958m | -15.5m/s | -0.5°C | 14.1% | 632.1hPa | 2.6V | 00:00:00 | 00:00:00 | 00:00:00 | |
| DB0UT-9 | 2026-08-30 19:16:10 | 50.10223 | 8.67196 | 61° | 42km/h | 3958m | -15.5m/s | 0°C | 0% | 0hPa | 2.6V | 00:00:00 | 00:00:00 | 00:00:00 | |
| DM0DOS-11 | 2026-08-30 19:16:09 | 50.10175 | 8.67100 | 46° | 44km/h | 4060m | -14.9m/s | -1°C | 13.4% | 624.4hPa | 2.6V | 02:34:40 | 02:34:17 | 00:00:00 | |
| BIOWL1-15 | 2026-08-30 19:16:06 | 50.10190 | 8.67126 | 48° | 44km/h | 4031m | -14.9m/s | -0.8°C | 15.7% | 626.6hPa | 2.5V | 02:35:06 | 02:34:19 | 00:00:00 | |
| DM0DOS-11 | 2026-08-30 19:16:04 | 50.10130 | 8.67033 | 43° | 51km/h | 4131m | -13.7m/s | -1.6°C | 13.3% | 618.9hPa | 2.5V | 02:34:45 | 02:34:12 | 00:00:00 | |
| BIOWL1-15 | 2026-08-30 19:15:55 | 50.10093 | 8.66975 | 49° | 51km/h | 4184m | -14.2m/s | -2°C | 14.9% | 614.5hPa | 2.6V | 02:35:06 | 02:34:08 | 00:00:00 | |
| DM0DOS-11 | 2026-08-30 19:15:54 | 50.10084 | 8.66960 | 50° | 51km/h | 4198m | -14.5m/s | -2°C | 12.4% | 613.4hPa | 2.6V | 02:34:50 | 02:34:07 | 00:00:00 | |
| BIOWL1-15 | 2026-08-30 19:15:45 | 50.10013 | 8.66818 | 56° | 49km/h | 4325m | -15.2m/s | -2.7°C | 14.7% | 603.5hPa | 2.5V | 02:35:06 | 02:33:58 | 00:00:00 | |
| DM0DOS-11 | 2026-08-30 19:15:44 | 50.10006 | 8.66802 | 55° | 49km/h | 4340m | -15.4m/s | -2.8°C | 12.3% | 602.5hPa | 2.5V | 02:35:00 | 02:33:57 | 00:00:00 | |
| DM0DOS-11 | 2026-08-30 19:15:44 | 50.09970 | 8.66717 | 54° | 53km/h | 4415m | -14.7m/s | -3.1°C | 11.1% | 597.1hPa | 2.5V | 02:35:05 | 02:33:52 | 00:00:00 | |
| DK5PH-5 | 2026-08-30 19:15:44 | 50.10006 | 8.66801 | 56° | 53km/h | 4340m | -15.3m/s | -2.7°C | 12.3% | 602.4hPa | 2.6V | 00:00:00 | 02:33:57 | 00:00:00 | |
| DB0UT-7 | 2026-08-30 19:15:43 | 50.09999 | 8.66785 | 56° | 53km/h | 4355m | -15.1m/s | -2.8°C | 12.1% | 601.4hPa | 2.6V | 02:35:00 | 02:33:56 | 00:00:00 | |
| BIOWL9-15 | 2026-08-30 19:15:42 | 50.09985 | 8.66752 | 56° | 51km/h | 4384m | -15.4m/s | -3.1°C | 11.5% | 599.3hPa | 2.5V | 00:00:00 | 00:00:00 | 00:00:00 | |
| DB0ND-19 | 2026-08-30 19:15:40 | 50.09978 | 8.66735 | 55° | 51km/h | 4399m | -15.2m/s | -3.1°C | 11.1% | 598.1hPa | 2.5V | 00:00:00 | 00:00:00 | 00:00:00 | |
| DM0DOS-11 | 2026-08-30 19:15:39 | 50.09931 | 8.66630 | 54° | 55km/h | 4486m | -14.4m/s | -3.5°C | 9.7% | 591.6hPa | 2.5V | 02:35:10 | 02:33:47 | 00:00:00 | |
| BIOWL7-15 | 2026-08-30 19:15:37 | 50.09962 | 8.66700 | 55° | 55km/h | 4429m | -14.4m/s | -3.2°C | 10.5% | 596.0hPa | 2.5V | 02:35:00 | 00:00:00 | 00:00:00 | |
| DM7RM-13 | 2026-08-30 19:15:35 | 50.09947 | 8.66665 | 55° | 55km/h | 4458m | -14.0m/s | -3.3°C | 9.7% | 593.9hPa | 2.5V | 02:35:00 | 00:00:00 | 00:00:00 | |
| DM0DOS-11 | 2026-08-30 19:15:34 | 50.09893 | 8.66541 | 56° | 55km/h | 4555m | -13.7m/s | -3.9°C | 10.2% | 586.4hPa | 2.5V | 02:35:15 | 02:33:42 | 00:00:00 | |
| BIOWL1-15 | 2026-08-30 19:15:34 | 50.09931 | 8.66630 | 55° | 55km/h | 4486m | -14.4m/s | -3.5°C | 10.8% | 591.7hPa | 2.5V | 02:35:57 | 02:33:47 | 00:00:00 | |
| DL0LBS | 2026-08-30 19:15:31 | 50.09916 | 8.66595 | 59° | 55km/h | 4515m | -14.1m/s | -3.7°C | 9.7% | 589.5hPa | 2.5V | 02:35:00 | 00:00:00 | 00:00:00 | |
| DM0DOS-11 | 2026-08-30 19:15:29 | 50.09852 | 8.66449 | 58° | 57km/h | 4624m | -14.1m/s | -4.5°C | 11% | 581hPa | 2.5V | 02:35:20 | 02:33:37 | 00:00:00 | |
| NBG1-10 | 2026-08-30 19:15:25 | 50.09860 | 8.66468 | 58° | 53km/h | 4611m | -14.4m/s | -4.4°C | 10.7% | 582.0hPa | 2.6V | 00:00:00 | 02:33:38 | 00:00:00 | |
| DM0DOS-11 | 2026-08-30 19:15:24 | 50.09814 | 8.66356 | 60° | 53km/h | 4694m | -14.5m/s | -5.1°C | 12.4% | 575.9hPa | 2.6V | 02:35:25 | 02:33:32 | 00:00:00 | |
| BIOWL1-15 | 2026-08-30 19:15:23 | 50.09844 | 8.66430 | 59° | 55km/h | 4638m | -14.4m/s | -4.6°C | 13.3% | 579.9hPa | 2.5V | 02:35:57 | 02:33:36 | 00:00:00 | |
| BIOWL1-15 | 2026-08-30 19:15:15 | 50.09773 | 8.66246 | 62° | 51km/h | 4780m | -15.2m/s | -5.7°C | 14.8% | 569.5hPa | 2.5V | 02:35:57 | 02:33:26 | 00:00:00 | |
| DK5PH-5 | 2026-08-30 19:15:14 | 50.09779 | 8.66264 | 61° | 55km/h | 4766m | -15.0m/s | -5.6°C | 12.1% | 570.4hPa | 2.6V | 00:00:00 | 02:33:27 | 00:00:00 | |
| DM0DOS-11 | 2026-08-30 19:15:13 | 50.09738 | 8.66155 | 60° | 51km/h | 4853m | -15.6m/s | -6.4°C | 13.3% | 564.3hPa | 2.6V | 02:35:36 | 02:33:21 | 00:00:00 | |
| DB0UT-7 | 2026-08-30 19:15:11 | 50.09759 | 8.66209 | 61° | 57km/h | 4809m | -15.2m/s | -5.9°C | 13.2% | 567.4hPa | 2.6V | 00:00:00 | 00:00:00 | 00:00:00 | |
| DL0LBS | 2026-08-30 19:15:10 | 50.09759 | 8.66209 | 62° | 51km/h | 4809m | -15.2m/s | -6.0°C | 12.7% | 567.4hPa | 2.6V | 02:35:00 | 00:00:00 | 00:00:00 | |
| DB0ND-19 | 2026-08-30 19:15:09 | 50.09745 | 8.66173 | 59° | 49km/h | 4838m | -15.4m/s | -6.2°C | 12.9% | 565.3hPa | 2.6V | 00:00:00 | 00:00:00 | 00:00:00 | |
| DM0DOS-11 | 2026-08-30 19:15:08 | 50.09703 | 8.66065 | 60° | 53km/h | 4924m | -14.8m/s | -6.8°C | 13.5% | 559.2hPa | 2.6V | 02:35:41 | 02:33:16 | 00:00:00 | |
| BIOWL1-15 | 2026-08-30 19:15:05 | 50.09696 | 8.66046 | 61° | 53km/h | 4938m | -15.2m/s | -6.8°C | 15.6% | 558hPa | 2.5V | 02:35:57 | 02:33:15 | 00:00:00 | |
| DM0DOS-11 | 2026-08-30 19:15:03 | 50.09668 | 8.65971 | 60° | 55km/h | 4995m | -14.9m/s | -7.2°C | 13.1% | 554.1hPa | 2.6V | 02:35:46 | 02:33:11 | 00:00:00 | |
| DL1KLB | 2026-08-30 19:14:59 | 50.09682 | 8.66009 | 63° | 53km/h | 4967m | -15.2m/s | -7.0°C | 12.5% | 556.1hPa | 2.5V | 00:00:00 | 00:00:00 | 00:00:00 | |
| BIOWL7-15 | 2026-08-30 19:14:55 | 50.09652 | 8.65932 | 63° | 57km/h | 5022m | -14.6m/s | -7.4°C | 12.3% | 552.1hPa | 2.5V | 02:35:00 | 00:00:00 | 00:00:00 | |
| DM0DOS-11 | 2026-08-30 19:14:54 | 50.09601 | 8.65785 | 64° | 60km/h | 5121m | -14.7m/s | -8°C | 12.9% | 545.1hPa | 2.5V | 02:35:55 | 02:33:02 | 00:00:00 | |
| BIOWL1-15 | 2026-08-30 19:14:52 | 50.09623 | 8.65850 | 66° | 60km/h | 5078m | -14.8m/s | -7.7°C | 16.1% | 548.2hPa | 2.6V | 02:35:57 | 02:33:05 | 00:00:00 | |
| NBG1-10 | 2026-08-30 19:14:52 | 50.09623 | 8.65850 | 66° | 62km/h | 5078m | -14.8m/s | -7.7°C | 13.7% | 548.1hPa | 2.6V | 02:35:00 | 02:33:05 | 00:00:00 | |
| DM7RM-13 | 2026-08-30 19:14:50 | 50.09616 | 8.65828 | 67° | 60km/h | 5093m | -15.2m/s | -7.8°C | 13.1% | 547.2hPa | 2.6V | 02:35:00 | 00:00:00 | 00:00:00 | |
| DL0LBS | 2026-08-30 19:14:49 | 50.09608 | 8.65806 | 65° | 60km/h | 5107m | -15.0m/s | -7.9°C | 12.8% | 546.1hPa | 2.6V | 02:35:00 | 00:00:00 | 00:00:00 | |
| DB0NH | 2026-08-30 19:14:48 | 50.09593 | 8.65764 | 65° | 62km/h | 5135m | -14.8m/s | -7.9°C | 13.3% | 544.0hPa | 2.6V | 02:35:00 | 02:33:01 | 00:00:00 | |
| DM0DOS-11 | 2026-08-30 19:14:44 | 50.09528 | 8.65563 | 65° | 64km/h | 5265m | -15.8m/s | -8.7°C | 13.1% | 535.1hPa | 2.5V | 02:36:05 | 02:32:52 | 00:00:00 | |
| BIOWL1-15 | 2026-08-30 19:14:41 | 50.09543 | 8.65609 | 64° | 64km/h | 5236m | -15.2m/s | -8.6°C | 16.6% | 537.2hPa | 2.5V | 02:36:48 | 02:32:54 | 00:00:00 | |
| DB0UT-7 | 2026-08-30 19:14:41 | 50.09542 | 8.65609 | 65° | 62km/h | 5236m | -15.2m/s | -8.5°C | 14.1% | 537.1hPa | 2.6V | 00:00:00 | 02:32:54 | 00:00:00 | |
| BIOWL9-15 | 2026-08-30 19:14:40 | 50.09528 | 8.65563 | 65° | 62km/h | 5265m | -15.8m/s | -8.7°C | 12.5% | 535.1hPa | 2.6V | 00:00:00 | 00:00:00 | 00:00:00 | |
| DB0ND-19 | 2026-08-30 19:14:38 | 50.09520 | 8.65541 | 63° | 62km/h | 5280m | -15.7m/s | -8.8°C | 12.1% | 534.1hPa | 2.6V | 00:00:00 | 00:00:00 | 00:00:00 | |
| DL1ZP-14 | 2026-08-30 19:14:37 | 50.09513 | 8.65518 | 64° | 62km/h | 5295m | -15.3m/s | 0°C | -1.0% | 533.0hPa | 2.6V | 00:00:00 | 00:00:00 | 00:00:00 | |
| BIOWL7-15 | 2026-08-30 19:14:35 | 50.09505 | 8.65497 | 64° | 62km/h | 5310m | -15.2m/s | -8.9°C | 11.9% | 532.1hPa | 2.5V | 02:36:00 | 00:00:00 | 00:00:00 | |
| DM0DOS-11 | 2026-08-30 19:14:34 | 50.09457 | 8.65342 | 65° | 62km/h | 5412m | -14.5m/s | -9.6°C | 12.6% | 525.4hPa | 2.5V | 02:36:15 | 02:32:42 | 00:00:00 | |
| BIOWL1-15 | 2026-08-30 19:14:30 | 50.09463 | 8.65364 | 66° | 62km/h | 5397m | -14.6m/s | -9.5°C | 14.9% | 526.2hPa | 2.6V | 02:36:48 | 02:32:43 | 00:00:00 | |
| DB0UT-9 | 2026-08-30 19:14:29 | 50.09463 | 8.65364 | 67° | 62km/h | 5398m | -14.6m/s | -9.5°C | 12.1% | 526.2hPa | 2.6V | 02:36:00 | 00:00:00 | 00:00:00 | |
| DM0DOS-11 | 2026-08-30 19:14:24 | 50.09383 | 8.65123 | 58° | 62km/h | 5550m | -13.7m/s | -10.5°C | 12.8% | 515.9hPa | 2.6V | 02:36:25 | 02:32:32 | 00:00:00 | |
| BIOWL1-15 | 2026-08-30 19:14:22 | 50.09391 | 8.65144 | 60° | 62km/h | 5537m | -13.5m/s | -10.4°C | 12.7% | 516.8hPa | 2.6V | 02:36:48 | 02:32:33 | 00:00:00 | |
| NBG1-10 | 2026-08-30 19:14:19 | 50.09382 | 8.65123 | 59° | 64km/h | 5550m | -13.7m/s | -10.4°C | 12.8% | 515.8hPa | 2.5V | 00:00:00 | 02:32:32 | 00:00:00 | |
| DB0NH | 2026-08-30 19:14:18 | 50.09374 | 8.65102 | 60° | 64km/h | 5563m | -14.6m/s | -10.6°C | 12.9% | 514.9hPa | 2.5V | 00:00:00 | 02:32:31 | 00:00:00 | |
| DF7PN | 2026-08-30 19:14:17 | 50.09366 | 8.65082 | 57° | 60km/h | 5577m | -14.5m/s | -10.7°C | 12.1% | 514.0hPa | 2.5V | 00:00:00 | 00:00:00 | 00:00:00 | |
| DM0DOS-11 | 2026-08-30 19:14:14 | 50.09301 | 8.64916 | 58° | 62km/h | 5691m | -14.4m/s | -11.5°C | 13.9% | 506.4hPa | 2.5V | 02:36:35 | 02:32:22 | 00:00:00 | |
| BIOWL1-15 | 2026-08-30 19:14:09 | 50.09301 | 8.64916 | 59° | 62km/h | 5691m | -14.4m/s | -11.5°C | 16.6% | 506.4hPa | 2.5V | 02:36:48 | 02:32:22 | 00:00:00 | |
| BIOWL1-15 | 2026-08-30 19:14:05 | 50.09216 | 8.64694 | 57° | 69km/h | 5830m | -13.3m/s | -12.6°C | 16.3% | 497.4hPa | 2.5V | 02:36:48 | 02:32:12 | 00:00:00 | |
| DM0DOS-11 | 2026-08-30 19:14:04 | 50.09216 | 8.64694 | 57° | 69km/h | 5830m | -13.3m/s | -12.6°C | 13.7% | 497.4hPa | 2.5V | 02:36:45 | 02:32:12 | 00:00:00 | |
| DO2KSM | 2026-08-30 19:13:55 | 50.09187 | 8.64627 | 57° | 68km/h | 5870m | -14.0m/s | -12.9°C | 10.3% | 494.7hPa | 2.6V | 02:36:00 | 00:00:00 | 00:00:00 | |
| DM0DOS-11 | 2026-08-30 19:13:54 | 50.09123 | 8.64475 | 58° | 64km/h | 5970m | -14.9m/s | -13.7°C | 14.2% | 488.3hPa | 2.6V | 02:36:55 | 02:32:02 | 00:00:00 | |
| BIOWL1-15 | 2026-08-30 19:13:48 | 50.09114 | 8.64454 | 59° | 64km/h | 5985m | -14.8m/s | -13.8°C | 17.2% | 487.5hPa | 2.5V | 02:37:39 | 02:32:01 | 00:00:00 | |
| DB0NH | 2026-08-30 19:13:48 | 50.09114 | 8.64453 | 60° | 68km/h | 5985m | -14.8m/s | -13.7°C | 14.5% | 487.4hPa | 2.6V | 00:00:00 | 02:32:01 | 00:00:00 | |
| DB0UT-9 | 2026-08-30 19:13:47 | 50.09114 | 8.64453 | 60° | 64km/h | 5985m | -14.8m/s | -13.8°C | 13.7% | 487.5hPa | 2.6V | 02:37:00 | 00:00:00 | 00:00:00 | |
| NBG1-10 | 2026-08-30 19:13:46 | 50.09096 | 8.64409 | 60° | 69km/h | 6014m | -14.4m/s | -13.9°C | 14.7% | 485.6hPa | 2.6V | 00:00:00 | 02:31:59 | 00:00:00 | |
| DM0DOS-11 | 2026-08-30 19:13:44 | 50.09029 | 8.64251 | 54° | 68km/h | 6109m | -14.2m/s | -14.7°C | 15.6% | 479.4hPa | 2.6V | 02:37:05 | 02:31:52 | 00:00:00 | |
| BIOWL1-15 | 2026-08-30 19:13:40 | 50.09019 | 8.64229 | 56° | 66km/h | 6123m | -14.9m/s | -14.8°C | 18.7% | 478.5hPa | 2.5V | 02:37:39 | 02:31:51 | 00:00:00 | |
| DM7RM-13 | 2026-08-30 19:13:39 | 50.09039 | 8.64273 | 55° | 69km/h | 6096m | -13.8m/s | -14.6°C | 14.5% | 480.3hPa | 2.6V | 02:37:00 | 00:00:00 | 00:00:00 | |
| BIOWL9-15 | 2026-08-30 19:13:37 | 50.09010 | 8.64207 | 56° | 64km/h | 6137m | -14.8m/s | -14.9°C | 14.9% | 477.7hPa | 2.6V | 00:00:00 | 00:00:00 | 00:00:00 | |
| DB0ND-19 | 2026-08-30 19:13:36 | 50.09000 | 8.64185 | 57° | 64km/h | 6151m | -14.9m/s | -15.0°C | 14.7% | 476.8hPa | 2.6V | 00:00:00 | 00:00:00 | 00:00:00 | |
| DL1ZP-14 | 2026-08-30 19:13:35 | 50.08991 | 8.64164 | 58° | 64km/h | 6166m | -15.0m/s | -15.2°C | 14.7% | 475.8hPa | 2.6V | 00:00:00 | 00:00:00 | 00:00:00 | |
| DM0DOS-11 | 2026-08-30 19:13:34 | 50.08937 | 8.64029 | 55° | 71km/h | 6252m | -13.7m/s | -15.6°C | 13.5% | 470.7hPa | 2.6V | 02:37:15 | 02:31:42 | 00:00:00 | |
| BIOWL1-15 | 2026-08-30 19:13:28 | 50.08927 | 8.64006 | 54° | 71km/h | 6266m | -13.9m/s | -15.7°C | 16% | 469.8hPa | 2.6V | 02:37:39 | 02:31:41 | 00:00:00 | |
| DB0UT-9 | 2026-08-30 19:13:27 | 50.08927 | 8.64006 | 55° | 71km/h | 6266m | -13.9m/s | -15.7°C | 12.7% | 469.8hPa | 2.5V | 02:37:00 | 00:00:00 | 00:00:00 | |
| DM0DOS-11 | 2026-08-30 19:13:24 | 50.08833 | 8.63807 | 56° | 68km/h | 6397m | -14.9m/s | -16.7°C | 13.9% | 461.8hPa | 2.5V | 02:37:25 | 02:31:32 | 00:00:00 | |
| BIOWL1-15 | 2026-08-30 19:13:18 | 50.08823 | 8.63785 | 56° | 69km/h | 6411m | -15m/s | -16.8°C | 16% | 461hPa | 2.5V | 02:37:39 | 02:31:31 | 00:00:00 | |
| DB0NH | 2026-08-30 19:13:18 | 50.08823 | 8.63785 | 56° | 75km/h | 6411m | -15.0m/s | -16.7°C | 13.7% | 460.9hPa | 2.5V | 02:37:00 | 02:31:31 | 00:00:00 | |
| DF1GD-15 | 2026-08-30 19:13:17 | 50.08823 | 8.63785 | 57° | 69km/h | 6411m | -15.0m/s | -16.8°C | 12.8% | 461.0hPa | 2.6V | 02:37:00 | 00:00:00 | 00:00:00 | |
| DF7PN | 2026-08-30 19:13:15 | 50.08793 | 8.63716 | 55° | 71km/h | 6455m | -14.8m/s | -17.1°C | 12.0% | 458.3hPa | 2.6V | 00:00:00 | 00:00:00 | 00:00:00 | |
| DM0DOS-11 | 2026-08-30 19:13:14 | 50.08725 | 8.63575 | 52° | 75km/h | 6539m | -15.1m/s | -17.6°C | 7.5% | 453hPa | 2.6V | 02:37:35 | 02:31:22 | 00:00:00 | |
| BIOWL1-15 | 2026-08-30 19:13:08 | 50.08713 | 8.63552 | 52° | 75km/h | 6554m | -14.7m/s | -17.6°C | 7.8% | 452.1hPa | 2.5V | 02:37:39 | 02:31:21 | 00:00:00 | |
| DL0LBS | 2026-08-30 19:13:07 | 50.08713 | 8.63552 | 53° | 75km/h | 6554m | -14.7m/s | -17.6°C | 6.7% | 452.1hPa | 2.6V | 02:37:00 | 00:00:00 | 00:00:00 | |
| DB0UT-9 | 2026-08-30 19:13:06 | 50.08701 | 8.63529 | 54° | 73km/h | 6568m | -15.1m/s | -17.7°C | 6.6% | 451.3hPa | 2.6V | 02:37:00 | 00:00:00 | 00:00:00 | |
| DB0ND-19 | 2026-08-30 19:13:05 | 50.08679 | 8.63483 | 53° | 71km/h | 6597m | -15.5m/s | -17.9°C | 7.0% | 449.4hPa | 2.6V | 00:00:00 | 00:00:00 | 00:00:00 | |
| DM0DOS-11 | 2026-08-30 19:13:04 | 50.08614 | 8.63339 | 55° | 77km/h | 6688m | -15.1m/s | -18.6°C | 9.2% | 444.2hPa | 2.6V | 02:37:45 | 02:31:12 | 00:00:00 | |
| BIOWL1-15 | 2026-08-30 19:12:58 | 50.08603 | 8.63314 | 55° | 78km/h | 6702m | -14.5m/s | -18.7°C | 10.1% | 443.3hPa | 2.6V | 02:38:30 | 02:31:11 | 00:00:00 | |
| DF1GD-15 | 2026-08-30 19:12:56 | 50.08591 | 8.63289 | 56° | 78km/h | 6717m | -14.4m/s | -18.8°C | 8.4% | 442.5hPa | 2.5V | 02:38:00 | 00:00:00 | 00:00:00 | |
| DO3DL | 2026-08-30 19:12:55 | 50.08580 | 8.63264 | 56° | 78km/h | 6731m | -14.2m/s | -18.9°C | 8.7% | 441.6hPa | 2.5V | 02:38:00 | 00:00:00 | 00:00:00 | |
| DM0DOS-11 | 2026-08-30 19:12:54 | 50.08502 | 8.63092 | 56° | 73km/h | 6834m | -16.1m/s | -19.8°C | 12.3% | 435.5hPa | 2.5V | 02:37:55 | 02:31:02 | 00:00:00 | |
| BIOWL1-15 | 2026-08-30 19:12:48 | 50.08492 | 8.63068 | 58° | 71km/h | 6849m | -16.1m/s | -19.9°C | 14.9% | 434.6hPa | 2.6V | 02:38:30 | 02:31:01 | 00:00:00 | |
| DL1KLB | 2026-08-30 19:12:47 | 50.08492 | 8.63068 | 59° | 71km/h | 6849m | -16.1m/s | -19.9°C | 11.7% | 434.6hPa | 2.5V | 02:38:00 | 00:00:00 | 00:00:00 | |
| DB0UT-9 | 2026-08-30 19:12:46 | 50.08482 | 8.63044 | 59° | 73km/h | 6865m | -16.0m/s | -20.1°C | 11.8% | 433.6hPa | 2.5V | 02:38:00 | 00:00:00 | 00:00:00 | |
| DM0DOS-11 | 2026-08-30 19:12:44 | 50.08400 | 8.62842 | 55° | 77km/h | 6984m | -14.8m/s | -21.1°C | 21.8% | 426.6hPa | 2.5V | 02:38:05 | 02:30:52 | 00:00:00 | |
| BIOWL1-15 | 2026-08-30 19:12:39 | 50.08377 | 8.62791 | 57° | 75km/h | 7013m | -16m/s | -21.3°C | 49% | 424.9hPa | 2.5V | 02:38:30 | 02:30:50 | 00:00:00 | |
| DO3DL | 2026-08-30 19:12:37 | 50.08388 | 8.62816 | 57° | 77km/h | 6999m | -15.2m/s | -21.2°C | 30.6% | 425.7hPa | 2.6V | 02:38:00 | 00:00:00 | 00:00:00 | |
| BIOWL9-15 | 2026-08-30 19:12:35 | 50.08357 | 8.62742 | 59° | 73km/h | 7045m | -16.4m/s | -21.6°C | 67.7% | 423.2hPa | 2.6V | 00:00:00 | 00:00:00 | 00:00:00 | |
| DM0DOS-11 | 2026-08-30 19:12:34 | 50.08298 | 8.62587 | 58° | 78km/h | 7139m | -15.6m/s | -22.2°C | 27.5% | 417.9hPa | 2.6V | 02:38:15 | 02:30:42 | 00:00:00 | |
| BIOWL1-15 | 2026-08-30 19:12:26 | 50.08265 | 8.62507 | 56° | 80km/h | 7184m | -15m/s | -22.6°C | 50.6% | 415.3hPa | 2.5V | 02:38:30 | 02:30:39 | 00:00:00 | |
| DB0UT-9 | 2026-08-30 19:12:25 | 50.08265 | 8.62507 | 57° | 80km/h | 7184m | -15.0m/s | -22.6°C | 42.9% | 415.3hPa | 2.5V | 02:38:00 | 00:00:00 | 00:00:00 | |
| DM0DOS-11 | 2026-08-30 19:12:24 | 50.08189 | 8.62325 | 59° | 78km/h | 7293m | -16.1m/s | -23.7°C | 84.1% | 409.1hPa | 2.5V | 02:38:25 | 02:30:32 | 00:00:00 | |
| BIOWL1-15 | 2026-08-30 19:12:18 | 50.08157 | 8.62244 | 58° | 82km/h | 7339m | -15.5m/s | -24°C | 93.2% | 406.6hPa | 2.6V | 02:38:30 | 02:30:29 | 00:00:00 | |
| BIOWL1-15 | 2026-08-30 19:12:05 | 50.08030 | 8.61948 | 57° | 86km/h | 7512m | -15.8m/s | -25.5°C | 71.8% | 397.1hPa | 2.5V | 02:39:21 | 02:30:18 | 00:00:00 | |
| BIOWL9-15 | 2026-08-30 19:12:04 | 50.08017 | 8.61920 | 56° | 86km/h | 7527m | -15.8m/s | -25.7°C | 61.2% | 396.2hPa | 2.6V | 00:00:00 | 00:00:00 | 00:00:00 | |
| DB0ND-19 | 2026-08-30 19:12:03 | 50.08005 | 8.61892 | 56° | 86km/h | 7543m | -15.7m/s | -25.8°C | 61.9% | 395.4hPa | 2.6V | 00:00:00 | 00:00:00 | 00:00:00 | |
| DO3MHA-11 | 2026-08-30 19:12:02 | 50.07993 | 8.61863 | 57° | 82km/h | 7558m | -15.5m/s | -25.9°C | 66.9% | 394.5hPa | 2.6V | 02:38:00 | 02:30:15 | 00:00:00 | |
| DM7RM-13 | 2026-08-30 19:11:59 | 50.07969 | 8.61807 | 57° | 84km/h | 7589m | -16.9m/s | -26.3°C | 64.3% | 392.8hPa | 2.5V | 02:39:00 | 00:00:00 | 00:00:00 | |
| DO3DL | 2026-08-30 19:11:58 | 50.07956 | 8.61780 | 58° | 82km/h | 7605m | -17.3m/s | -26.4°C | 65.0% | 391.9hPa | 2.5V | 02:39:00 | 00:00:00 | 00:00:00 | |
| DM0DOS-11 | 2026-08-30 19:11:57 | 50.07878 | 8.61590 | 58° | 84km/h | 7721m | -16.2m/s | -27.3°C | 74.3% | 385.9hPa | 2.5V | 02:38:52 | 02:30:05 | 00:00:00 | |
| BIOWL1-15 | 2026-08-30 19:11:56 | 50.07900 | 8.61645 | 58° | 80km/h | 7688m | -16.8m/s | -27°C | 76.5% | 387.5hPa | 2.5V | 02:39:21 | 02:30:07 | 00:00:00 | |
| KANTATE | 2026-08-30 19:11:55 | 50.07922 | 8.61699 | 58° | 82km/h | 7655m | -16.9m/s | -26.7°C | 68.2% | 389.3hPa | 2.5V | 00:00:00 | 00:00:00 | 00:00:00 | |
| DF1GD-15 | 2026-08-30 19:11:53 | 50.07900 | 8.61645 | 59° | 80km/h | 7688m | -16.8m/s | -27.0°C | 69.2% | 387.5hPa | 2.5V | 02:39:00 | 00:00:00 | 00:00:00 | |
| DO3MHA-11 | 2026-08-30 19:11:52 | 50.07878 | 8.61590 | 59° | 84km/h | 7721m | -16.2m/s | -27.2°C | 74.3% | 385.9hPa | 2.5V | 00:00:00 | 02:30:05 | 00:00:00 | |
| DO3DL | 2026-08-30 19:11:51 | 50.07878 | 8.61590 | 59° | 84km/h | 7721m | -16.3m/s | -27.3°C | 69.4% | 385.9hPa | 2.5V | 02:39:00 | 00:00:00 | 00:00:00 | |
| BIOWL7-15 | 2026-08-30 19:11:49 | 50.07855 | 8.61534 | 59° | 86km/h | 7753m | -16.1m/s | -27.6°C | 69.4% | 384.2hPa | 2.5V | 02:39:00 | 00:00:00 | 00:00:00 | |
| DB0NH | 2026-08-30 19:11:48 | 50.07830 | 8.61478 | 55° | 95km/h | 7783m | -15.2m/s | -27.8°C | 74.9% | 382.5hPa | 2.5V | 02:38:00 | 02:30:01 | 00:00:00 | |
| DM0DOS-11 | 2026-08-30 19:11:47 | 50.07758 | 8.61312 | 58° | 86km/h | 7877m | -16.7m/s | -28.4°C | 78.7% | 377.5hPa | 2.5V | 02:39:02 | 02:29:55 | 00:00:00 | |
| BIOWL1-15 | 2026-08-30 19:11:43 | 50.07769 | 8.61340 | 58° | 86km/h | 7860m | -16.9m/s | -28.3°C | 78.3% | 378.3hPa | 2.6V | 02:39:21 | 02:29:56 | 00:00:00 | |
| DO3MHA-11 | 2026-08-30 19:11:42 | 50.07758 | 8.61312 | 59° | 91km/h | 7877m | -16.6m/s | -28.4°C | 78.7% | 377.5hPa | 2.6V | 00:00:00 | 02:29:55 | 00:00:00 | |
| DO9LL-15 | 2026-08-30 19:11:41 | 50.07746 | 8.61282 | 59° | 99km/h | 7893m | -16.3m/s | -28.5°C | 79.1% | 376.7hPa | 2.6V | 00:00:00 | 02:29:54 | 00:00:00 | |
| DL8DAS-14 | 2026-08-30 19:11:40 | 50.07734 | 8.61252 | 57° | 89km/h | 7909m | -15.9m/s | -28.7°C | 74.0% | 375.8hPa | 2.6V | 00:00:00 | 00:00:00 | 00:00:00 | |
| DM7RM-13 | 2026-08-30 19:11:38 | 50.07722 | 8.61222 | 58° | 93km/h | 7925m | -15.5m/s | -28.8°C | 74.3% | 375.0hPa | 2.6V | 02:39:00 | 00:00:00 | 00:00:00 | |
| DM0DOS-11 | 2026-08-30 19:11:37 | 50.07631 | 8.61009 | 58° | 93km/h | 8033m | -16.5m/s | -29.7°C | 79.6% | 369.2hPa | 2.6V | 02:39:12 | 02:29:45 | 00:00:00 | |
| BIOWL1-15 | 2026-08-30 19:11:33 | 50.07644 | 8.61040 | 58° | 91km/h | 8017m | -16.5m/s | -29.6°C | 78.8% | 370.1hPa | 2.6V | 02:39:21 | 02:29:46 | 00:00:00 | |
| DO3MHA-11 | 2026-08-30 19:11:32 | 50.07631 | 8.61009 | 59° | 100km/h | 8033m | -16.5m/s | -29.6°C | 79.6% | 369.2hPa | 2.6V | 02:39:00 | 02:29:45 | 00:00:00 | |
| DL1ZP-14 | 2026-08-30 19:11:31 | 50.07619 | 8.60977 | 59° | 95km/h | 8049m | -16.9m/s | -29.8°C | 73.8% | 368.4hPa | 2.6V | 00:00:00 | 00:00:00 | 00:00:00 | |
| DO3DL | 2026-08-30 19:11:30 | 50.07619 | 8.60977 | 61° | 95km/h | 8049m | -16.9m/s | -29.8°C | 73.8% | 368.4hPa | 2.6V | 02:39:00 | 00:00:00 | 00:00:00 | |
| BIOWL7-15 | 2026-08-30 19:11:28 | 50.07594 | 8.60911 | 60° | 100km/h | 8082m | -16.3m/s | -29.8°C | 74.8% | 366.8hPa | 2.6V | 02:39:00 | 00:00:00 | 00:00:00 | |
| DM0DOS-11 | 2026-08-30 19:11:27 | 50.07498 | 8.60669 | 60° | 102km/h | 8194m | -17.7m/s | -28.9°C | 78.4% | 360.9hPa | 2.6V | 02:39:22 | 02:29:35 | 00:00:00 | |
| BIOWL1-15 | 2026-08-30 19:11:22 | 50.07498 | 8.60669 | 60° | 102km/h | 8194m | -17.7m/s | -28.9°C | 82.4% | 360.9hPa | 2.6V | 02:40:12 | 02:29:35 | 00:00:00 | |
| DO3MHA-11 | 2026-08-30 19:11:22 | 50.07498 | 8.60669 | 61° | 106km/h | 8194m | -17.7m/s | -28.8°C | 78.4% | 360.9hPa | 2.6V | 00:00:00 | 02:29:35 | 00:00:00 | |
| DB0UT-9 | 2026-08-30 19:11:21 | 50.07498 | 8.60669 | 61° | 102km/h | 8194m | -17.7m/s | -28.9°C | 73.0% | 360.9hPa | 2.6V | 02:40:00 | 00:00:00 | 00:00:00 | |
| DB0NH | 2026-08-30 19:11:18 | 50.07448 | 8.60525 | 63° | 108km/h | 8262m | -16.7m/s | -29.3°C | 73.0% | 357.6hPa | 2.6V | 00:00:00 | 02:29:31 | 00:00:00 | |
| DM0DOS-11 | 2026-08-30 19:11:17 | 50.07368 | 8.60299 | 61° | 108km/h | 8361m | -17.8m/s | -30.2°C | 73.4% | 352.6hPa | 2.6V | 02:39:32 | 02:29:25 | 00:00:00 | |
| BIOWL1-15 | 2026-08-30 19:11:12 | 50.07368 | 8.60299 | 62° | 108km/h | 8361m | -17.8m/s | -30.2°C | 78.1% | 352.6hPa | 2.6V | 02:40:12 | 02:29:25 | 00:00:00 | |
| DO3MHA-11 | 2026-08-30 19:11:12 | 50.07368 | 8.60299 | 62° | 110km/h | 8361m | -17.7m/s | -30.1°C | 73.4% | 352.5hPa | 2.6V | 00:00:00 | 02:29:25 | 00:00:00 | |
| DO9LL-15 | 2026-08-30 19:11:11 | 50.07355 | 8.60262 | 63° | 106km/h | 8378m | -17.9m/s | -30.3°C | 73.3% | 351.7hPa | 2.6V | 00:00:00 | 02:29:24 | 00:00:00 | |
| KANTATE | 2026-08-30 19:11:10 | 50.07355 | 8.60262 | 63° | 108km/h | 8378m | -18.0m/s | -30.3°C | 67.9% | 351.7hPa | 2.6V | 00:00:00 | 00:00:00 | 00:00:00 | |
| DL8DAS-14 | 2026-08-30 19:11:09 | 50.07330 | 8.60187 | 63° | 106km/h | 8413m | -17.7m/s | -30.6°C | 67.5% | 350.1hPa | 2.6V | 00:00:00 | 00:00:00 | 00:00:00 | |
| BIOWL7-15 | 2026-08-30 19:11:08 | 50.07330 | 8.60187 | 64° | 108km/h | 8413m | -17.7m/s | -30.6°C | 67.5% | 350.1hPa | 2.6V | 02:40:00 | 00:00:00 | 00:00:00 | |
| DM0DOS-11 | 2026-08-30 19:11:07 | 50.07240 | 8.59919 | 62° | 113km/h | 8532m | -17.1m/s | -31.6°C | 70.9% | 344.2hPa | 2.6V | 02:39:42 | 02:29:15 | 00:00:00 | |
| BIOWL1-15 | 2026-08-30 19:11:01 | 50.07227 | 8.59881 | 61° | 111km/h | 8549m | -16.6m/s | -31.8°C | 75.8% | 343.4hPa | 2.6V | 02:40:12 | 02:29:14 | 00:00:00 | |
| DL1ZP-14 | 2026-08-30 19:11:00 | 50.07200 | 8.59804 | 61° | 108km/h | 8581m | -17.2m/s | -32.1°C | 66.5% | 341.8hPa | 2.5V | 00:00:00 | 00:00:00 | 00:00:00 | |
| DM0DOS-11 | 2026-08-30 19:10:57 | 50.07115 | 8.59543 | 65° | 106km/h | 8703m | -18.4m/s | -33.1°C | 72.1% | 336hPa | 2.6V | 02:39:52 | 02:29:05 | 00:00:00 | |
| BIOWL1-15 | 2026-08-30 19:10:50 | 50.07092 | 8.59468 | 66° | 104km/h | 8739m | -18m/s | -33.4°C | 77.2% | 334.3hPa | 2.5V | 02:40:12 | 02:29:03 | 00:00:00 | |
| HSKMA3-T | 2026-08-30 19:10:48 | 50.07070 | 8.59394 | 65° | 104km/h | 8774m | -17.9m/s | -33.7°C | 78.1% | 332.7hPa | 2.5V | 02:45:18 | 02:29:01 | 00:00:00 | |
| DB0NH | 2026-08-30 19:10:48 | 50.07070 | 8.59394 | 66° | 104km/h | 8774m | -17.9m/s | -33.6°C | 73.5% | 332.6hPa | 2.6V | 00:00:00 | 02:29:01 | 00:00:00 | |
| DM0DOS-11 | 2026-08-30 19:10:47 | 50.07000 | 8.59172 | 62° | 104km/h | 8876m | -17.6m/s | -34.6°C | 77.3% | 327.8hPa | 2.6V | 02:40:02 | 02:28:55 | 00:00:00 | |
| DD1CC8 | 2026-08-30 19:10:45 | 50.07036 | 8.59282 | 64° | 104km/h | 8825m | -17.5m/s | -34.1°C | 69.2% | 330.2hPa | 2.5V | 00:00:00 | 00:00:00 | 00:00:00 | |
| BIOWL1-15 | 2026-08-30 19:10:41 | 50.06976 | 8.59099 | 62° | 102km/h | 8911m | -18.1m/s | -34.9°C | 83.1% | 326.1hPa | 2.5V | 02:40:12 | 02:28:53 | 00:00:00 | |
| DF7PN | 2026-08-30 19:10:40 | 50.06976 | 8.59099 | 62° | 102km/h | 8911m | -18.1m/s | -34.9°C | 72.7% | 326.1hPa | 2.6V | 00:00:00 | 00:00:00 | 00:00:00 | |
| DL8DAS-14 | 2026-08-30 19:10:38 | 50.06951 | 8.59029 | 63° | 99km/h | 8945m | -18.5m/s | -35.1°C | 72.7% | 324.5hPa | 2.6V | 00:00:00 | 00:00:00 | 00:00:00 | |
| DM0DOS-11 | 2026-08-30 19:10:37 | 50.06884 | 8.58819 | 65° | 99km/h | 9053m | -18.4m/s | -36°C | 77.8% | 319.6hPa | 2.6V | 02:40:12 | 02:28:45 | 00:00:00 | |
| BIOWL1-15 | 2026-08-30 19:10:29 | 50.06852 | 8.58713 | 67° | 100km/h | 9106m | -18.5m/s | -36.4°C | 81.5% | 317.2hPa | 2.5V | 02:41:03 | 02:28:42 | 00:00:00 | |
| BIOWL1-15 | 2026-08-30 19:10:18 | 50.06742 | 8.58290 | 68° | 110km/h | 9302m | -17.9m/s | -37.5°C | 79.9% | 308.5hPa | 2.5V | 02:41:03 | 02:28:31 | 00:00:00 | |
| DB0NH | 2026-08-30 19:10:18 | 50.06742 | 8.58290 | 69° | 113km/h | 9302m | -17.8m/s | -37.5°C | 74.8% | 308.4hPa | 2.5V | 02:40:00 | 02:28:31 | 00:00:00 | |
| DM7RM-13 | 2026-08-30 19:10:15 | 50.06721 | 8.58210 | 69° | 111km/h | 9337m | -17.7m/s | -37.9°C | 68.8% | 306.9hPa | 2.5V | 02:41:00 | 00:00:00 | 00:00:00 | |
| DJ2DS-15 | 2026-08-30 19:10:14 | 50.06700 | 8.58129 | 68° | 113km/h | 9372m | -17.8m/s | -38.1°C | 75.7% | 305.3hPa | 2.5V | 00:00:00 | 02:28:27 | 00:00:00 | |
| DM0DOS-11 | 2026-08-30 19:10:13 | 50.06635 | 8.57883 | 66° | 115km/h | 9476m | -17.6m/s | -39.1°C | 76.3% | 300.7hPa | 2.5V | 02:40:36 | 02:28:21 | 00:00:00 | |
| BIOWL1-15 | 2026-08-30 19:10:09 | 50.06624 | 8.57842 | 67° | 115km/h | 9493m | -17.7m/s | -39.3°C | 80.6% | 299.9hPa | 2.5V | 02:41:03 | 02:28:20 | 00:00:00 | |
| BIOWL1-15 | 2026-08-30 19:09:59 | 50.06508 | 8.57425 | 67° | 111km/h | 9668m | -18.8m/s | -40.7°C | 81.2% | 292.3hPa | 2.5V | 02:41:03 | 02:28:10 | 00:00:00 | |
| DL1ZP-14 | 2026-08-30 19:09:58 | 50.06508 | 8.57425 | 67° | 111km/h | 9668m | -18.8m/s | -40.7°C | 69.3% | 292.3hPa | 2.5V | 00:00:00 | 00:00:00 | 00:00:00 | |
| NBG1-10 | 2026-08-30 19:09:55 | 50.06486 | 8.57343 | 69° | 113km/h | 9705m | -18.7m/s | -41.0°C | 77.2% | 290.6hPa | 2.5V | 02:40:00 | 02:28:08 | 00:00:00 | |
| DM0DOS-11 | 2026-08-30 19:09:54 | 50.06423 | 8.57104 | 67° | 110km/h | 9812m | -18.2m/s | -41.9°C | 76.7% | 286.1hPa | 2.6V | 02:40:55 | 02:28:02 | 00:00:00 | |
| BIOWL1-15 | 2026-08-30 19:09:46 | 50.06392 | 8.56983 | 68° | 111km/h | 9866m | -18.6m/s | -42.4°C | 81.5% | 283.9hPa | 2.5V | 02:41:03 | 02:27:59 | 00:00:00 | |
| DM0DOS-11 | 2026-08-30 19:09:44 | 50.06313 | 8.56694 | 66° | 115km/h | 9990m | -18.1m/s | -43.4°C | 74.5% | 278.6hPa | 2.5V | 02:41:05 | 02:27:52 | 00:00:00 | |
| BIOWL1-15 | 2026-08-30 19:09:36 | 50.06277 | 8.56571 | 66° | 115km/h | 10043m | -18.8m/s | -43.9°C | 78.3% | 276.5hPa | 2.6V | 02:41:54 | 02:27:49 | 00:00:00 | |
| BIOWL1-15 | 2026-08-30 19:09:25 | 50.06145 | 8.56119 | 64° | 119km/h | 10244m | -18.4m/s | -45.4°C | 73.9% | 268.5hPa | 2.6V | 02:41:54 | 02:27:38 | 00:00:00 | |
| DM0DOS-11 | 2026-08-30 19:09:24 | 50.06067 | 8.55869 | 63° | 119km/h | 10352m | -18.9m/s | -46.4°C | 67.6% | 264.2hPa | 2.6V | 02:41:25 | 02:27:32 | 00:00:00 | |
| BIOWL1-15 | 2026-08-30 19:09:16 | 50.06001 | 8.55665 | 63° | 117km/h | 10444m | -18.5m/s | -47.3°C | 71.9% | 260.6hPa | 2.5V | 02:41:54 | 02:27:27 | 00:00:00 | |
| CB1BUN | 2026-08-30 19:09:15 | 50.06027 | 8.55746 | 64° | 117km/h | 10407m | -18.5m/s | -47.0°C | 58.7% | 261.9hPa | 2.6V | 02:41:00 | 00:00:00 | 00:00:00 | |
| DK5PH-5 | 2026-08-30 19:09:14 | 50.06001 | 8.55665 | 63° | 115km/h | 10444m | -18.4m/s | -47.2°C | 66.9% | 260.5hPa | 2.6V | 00:00:00 | 02:27:27 | 00:00:00 | |
| DO3DL | 2026-08-30 19:09:13 | 50.06001 | 8.55665 | 64° | 117km/h | 10444m | -18.5m/s | -47.3°C | 58.5% | 260.6hPa | 2.6V | 02:41:00 | 00:00:00 | 00:00:00 | |
| DM0DOS-11 | 2026-08-30 19:09:12 | 50.05915 | 8.55382 | 67° | 113km/h | 10570m | -19.3m/s | -48.3°C | 63.5% | 255.5hPa | 2.6V | 02:41:37 | 02:27:20 | 00:00:00 | |
| BIOWL1-15 | 2026-08-30 19:09:03 | 50.05871 | 8.55219 | 66° | 115km/h | 10647m | -18.9m/s | -49.1°C | 67.7% | 252.6hPa | 2.5V | 02:41:54 | 02:27:16 | 00:00:00 | |
| BIOWL1-15 | 2026-08-30 19:08:53 | 50.05753 | 8.54806 | 64° | 115km/h | 10830m | -18.6m/s | -50.7°C | 60.7% | 245.5hPa | 2.5V | 02:41:54 | 02:27:06 | 00:00:00 | |
| DF3TZ-5 | 2026-08-30 19:08:51 | 50.05728 | 8.54723 | 65° | 115km/h | 10867m | -19.2m/s | -51.0°C | 49.3% | 244.1hPa | 2.5V | 00:00:00 | 00:00:00 | 00:00:00 | |
| BIOWL1-15 | 2026-08-30 19:08:45 | 50.05634 | 8.54384 | 69° | 120km/h | 11019m | -19.5m/s | -52°C | 53.3% | 238.6hPa | 2.5V | 02:42:45 | 02:26:56 | 00:00:00 | |
| HSKMA3-T | 2026-08-30 19:08:34 | 50.05540 | 8.53965 | 73° | 131km/h | 11189m | -18.3m/s | -52.8°C | 37.1% | 232.4hPa | 2.6V | 02:45:18 | 02:26:47 | 00:00:00 | |
| BIOWL1-15 | 2026-08-30 19:08:32 | 50.05520 | 8.53864 | 73° | 135km/h | 11225m | -18.4m/s | -52.6°C | 35.1% | 231.1hPa | 2.6V | 02:42:45 | 02:26:45 | 00:00:00 | |
| BIOWL1-15 | 2026-08-30 19:08:25 | 50.05427 | 8.53275 | 81° | 148km/h | 11432m | -20m/s | -53.3°C | 35.4% | 223.8hPa | 2.6V | 02:42:45 | 02:26:34 | 00:00:00 | |
| BIOWL1-15 | 2026-08-30 19:08:12 | 50.05369 | 8.52602 | 83° | 164km/h | 11650m | -19.4m/s | -54.3°C | 31.5% | 216.4hPa | 2.5V | 02:42:45 | 02:26:23 | 00:00:00 | |
| BIOWL1-15 | 2026-08-30 19:07:59 | 50.05314 | 8.51895 | 83° | 161km/h | 11867m | -20.5m/s | -55.4°C | 24.5% | 209.2hPa | 2.5V | 02:42:45 | 02:26:12 | 00:00:00 | |
| BIOWL1-15 | 2026-08-30 19:07:48 | 50.05257 | 8.51218 | 83° | 153km/h | 12088m | -20.7m/s | -56.6°C | 17.6% | 201.9hPa | 2.5V | 02:43:36 | 02:26:01 | 00:00:00 | |
| DO1YAY-16 | 2026-08-30 19:07:48 | 50.05252 | 8.51158 | 83° | 151km/h | 12108m | -20.8m/s | -56.7°C | 12.7% | 201.3hPa | 2.6V | 00:00:00 | 00:00:00 | 00:00:00 | |
| DL1NUX | 2026-08-30 19:07:47 | 50.05225 | 8.50864 | 81° | 148km/h | 12211m | -21.1m/s | -56.9°C | 0% | 198hPa | 2.6V | 02:43:02 | 02:25:55 | 00:00:00 | |
| BIOWL1-15 | 2026-08-30 19:07:38 | 50.05199 | 8.50642 | 80° | 141km/h | 12293m | -21.5m/s | -56.4°C | 9.7% | 195.5hPa | 2.5V | 02:43:36 | 02:25:51 | 00:00:00 | |
| BIOWL1-15 | 2026-08-30 19:07:30 | 50.05112 | 8.50125 | 71° | 137km/h | 12505m | -21.9m/s | -56.5°C | 6.7% | 189.3hPa | 2.5V | 02:43:36 | 02:25:41 | 00:00:00 | |
| BIOWL1-15 | 2026-08-30 19:07:17 | 50.04988 | 8.49587 | 71° | 135km/h | 12740m | -21.8m/s | -56.6°C | 5.3% | 182.3hPa | 2.6V | 02:43:36 | 02:25:30 | 00:00:00 | |
| DL0LBS | 2026-08-30 19:07:16 | 50.04988 | 8.49586 | 72° | 135km/h | 12740m | -21.8m/s | -56.6°C | 4.6% | 182.3hPa | 2.6V | 02:43:00 | 00:00:00 | 00:00:00 | |
| DB0UT-9 | 2026-08-30 19:07:15 | 50.04977 | 8.49537 | 71° | 135km/h | 12762m | -22.3m/s | -56.7°C | 4.6% | 181.7hPa | 2.6V | 02:43:00 | 00:00:00 | 00:00:00 | |
| DJ2DS-15 | 2026-08-30 19:07:14 | 50.04954 | 8.49437 | 70° | 126km/h | 12806m | -21.7m/s | -56.8°C | 8.3% | 180.5hPa | 2.6V | 00:00:00 | 02:25:27 | 00:00:00 | |
| DO3MHA-11 | 2026-08-30 19:07:12 | 50.04930 | 8.49339 | 69° | 130km/h | 12849m | -21.9m/s | -56.8°C | 8.1% | 179.3hPa | 2.6V | 00:00:00 | 02:25:25 | 00:00:00 | |
| HEMX73-11 | 2026-08-30 19:07:11 | 50.04930 | 8.49339 | 70° | 131km/h | 12849m | -22.0m/s | -56.8°C | 4.3% | 179.4hPa | 2.6V | 02:43:00 | 00:00:00 | 00:00:00 | |
| NBG1-10 | 2026-08-30 19:07:10 | 50.04906 | 8.49243 | 69° | 117km/h | 12893m | -21.8m/s | -56.6°C | 7.9% | 178.0hPa | 2.6V | 00:00:00 | 02:25:23 | 00:00:00 | |
| DL4BBY-15 | 2026-08-30 19:07:09 | 50.04893 | 8.49196 | 69° | 117km/h | 12914m | -22.0m/s | -58.1°C | 0% | 0hPa | 2.6V | 00:00:00 | 00:00:00 | 00:00:00 | |
| DD1CC8 | 2026-08-30 19:07:08 | 50.04881 | 8.49148 | 68° | 130km/h | 12936m | -22.1m/s | -56.4°C | 4.0% | 176.8hPa | 2.6V | 00:00:00 | 00:00:00 | 00:00:00 | |
| DM0DOS-11 | 2026-08-30 19:07:07 | 50.04811 | 8.48863 | 70° | 128km/h | 13064m | -22.8m/s | -55.4°C | 6.8% | 173.2hPa | 2.6V | 02:43:42 | 02:25:15 | 00:00:00 | |
| BIOWL1-15 | 2026-08-30 19:07:07 | 50.04869 | 8.49100 | 69° | 130km/h | 12958m | -21.8m/s | -56.2°C | 4.4% | 176.2hPa | 2.6V | 02:44:27 | 02:25:20 | 00:00:00 | |
| DB0NH | 2026-08-30 19:07:06 | 50.04857 | 8.49053 | 70° | 113km/h | 12979m | -21.7m/s | -55.8°C | 7.1% | 175.6hPa | 2.6V | 02:43:00 | 02:25:19 | 00:00:00 | |
| DL1NUX | 2026-08-30 19:07:05 | 50.04789 | 8.48770 | 71° | 124km/h | 13109m | -22.8m/s | -55.1°C | 0% | 172hPa | 2.5V | 02:43:44 | 02:25:13 | 00:00:00 | |
| BIOWL1-15 | 2026-08-30 19:07:01 | 50.04761 | 8.48633 | 73° | 119km/h | 13175m | -22.3m/s | -55°C | 3.8% | 170.2hPa | 2.6V | 02:44:27 | 02:25:10 | 00:00:00 | |
| SO1NDE-10 | 2026-08-30 19:07:00 | 50.04789 | 8.48770 | 72° | 95km/h | 13109m | -22.8m/s | 0°C | 0% | 0hPa | 2.6V | 00:00:00 | 02:25:13 | 00:00:00 | |
| SFWM-10 | 2026-08-30 19:06:59 | 50.04789 | 8.48770 | 73° | 124km/h | 13109m | -22.8m/s | -55.1°C | 3.4% | 172.0hPa | 2.6V | 00:00:00 | 00:00:00 | 00:00:00 | |
| DL8OAI-8 | 2026-08-30 19:06:58 | 50.04779 | 8.48723 | 73° | 124km/h | 13132m | -22.7m/s | -55.1°C | 3.4% | 171.5hPa | 2.6V | 02:44:00 | 00:00:00 | 00:00:00 | |
| DM0DOS-11 | 2026-08-30 19:06:57 | 50.04720 | 8.48419 | 74° | 111km/h | 13287m | -22.8m/s | -55°C | 6.3% | 167.4hPa | 2.6V | 02:43:52 | 02:25:05 | 00:00:00 | |
| DL1XH-west | 2026-08-30 19:06:55 | 50.04743 | 8.48545 | 75° | 115km/h | 13220m | -22.7m/s | -55°C | 3.7% | 169.1hPa | 2.5V | 02:44:27 | 02:25:08 | 00:00:00 | |
| BIOWL9-15 | 2026-08-30 19:06:54 | 50.04735 | 8.48502 | 74° | 111km/h | 13242m | -23.4m/s | -54.9°C | 3.2% | 168.5hPa | 2.6V | 00:00:00 | 00:00:00 | 00:00:00 | |
| DB0ND-19 | 2026-08-30 19:06:53 | 50.04727 | 8.48460 | 74° | 111km/h | 13265m | -23.2m/s | -54.9°C | 3.2% | 168.0hPa | 2.6V | 00:00:00 | 00:00:00 | 00:00:00 | |
| DL1NUX | 2026-08-30 19:06:52 | 50.04677 | 8.48214 | 71° | 110km/h | 13399m | -22.7m/s | -55.6°C | 0% | 164.5hPa | 2.6V | 02:43:57 | 02:25:00 | 00:00:00 | |
| DC4HF-4 | 2026-08-30 19:06:51 | 50.04712 | 8.48377 | 73° | 110km/h | 13310m | -23.3m/s | -54.9°C | 3.1% | 166.8hPa | 2.6V | 00:00:00 | 00:00:00 | 00:00:00 | |
| DB0UT-7 | 2026-08-30 19:06:50 | 50.04704 | 8.48336 | 73° | 100km/h | 13333m | -22.2m/s | -55.0°C | 6.2% | 166.2hPa | 2.6V | 00:00:00 | 00:00:00 | 00:00:00 | |
| DO3DL | 2026-08-30 19:06:48 | 50.04695 | 8.48295 | 72° | 111km/h | 13355m | -22.3m/s | -55.2°C | 3.0% | 165.7hPa | 2.6V | 02:44:00 | 00:00:00 | 00:00:00 | |
| DL1XH1-15 | 2026-08-30 19:06:47 | 50.04634 | 8.48015 | 70° | 104km/h | 13511m | -22.3m/s | -55.3°C | 6% | 161.6hPa | 2.6V | 02:44:02 | 02:24:55 | 00:00:00 | |
| DM0DOS-11 | 2026-08-30 19:06:46 | 50.04626 | 8.47977 | 71° | 104km/h | 13533m | -22.6m/s | -55.4°C | 6% | 161hPa | 2.6V | 02:44:03 | 02:24:54 | 00:00:00 | |
| BIOWL1-15 | 2026-08-30 19:06:46 | 50.04668 | 8.48174 | 72° | 108km/h | 13422m | -22.9m/s | -55.7°C | 3.2% | 163.9hPa | 2.6V | 02:44:27 | 02:24:59 | 00:00:00 | |
| DL1XH-west | 2026-08-30 19:06:44 | 50.04651 | 8.48094 | 72° | 106km/h | 13466m | -22.9m/s | -55.6°C | 3.1% | 162.8hPa | 2.5V | 02:44:27 | 02:24:57 | 00:00:00 | |
| DF1GD-15 | 2026-08-30 19:06:44 | 50.04651 | 8.48094 | 73° | 106km/h | 13467m | -22.9m/s | -55.6°C | 3.0% | 162.8hPa | 2.6V | 02:44:00 | 00:00:00 | 00:00:00 | |
| BIOWL7-15 | 2026-08-30 19:06:43 | 50.04651 | 8.48094 | 73° | 106km/h | 13467m | -22.9m/s | -55.6°C | 3.0% | 162.8hPa | 2.6V | 02:44:00 | 00:00:00 | 00:00:00 | |
| DO3MHA-11 | 2026-08-30 19:06:42 | 50.04634 | 8.48015 | 71° | 100km/h | 13512m | -22.2m/s | -55.3°C | 6.0% | 161.6hPa | 2.6V | 00:00:00 | 02:24:55 | 00:00:00 | |
| DO3DL | 2026-08-30 19:06:41 | 50.04634 | 8.48015 | 72° | 104km/h | 13512m | -22.3m/s | -55.3°C | 2.8% | 161.6hPa | 2.6V | 02:44:00 | 00:00:00 | 00:00:00 | |
| DL4BBY-15 | 2026-08-30 19:06:39 | 50.04608 | 8.47900 | 72° | 95km/h | 13578m | -22.6m/s | -56.9°C | 0% | 0hPa | 2.6V | 00:00:00 | 00:00:00 | 00:00:00 | |
| DL1KLB | 2026-08-30 19:06:38 | 50.04608 | 8.47900 | 72° | 102km/h | 13578m | -22.7m/s | -55.3°C | 2.6% | 159.9hPa | 2.6V | 02:44:00 | 00:00:00 | 00:00:00 | |
| DL1XH1-15 | 2026-08-30 19:06:37 | 50.04552 | 8.47641 | 74° | 99km/h | 13739m | -24.2m/s | -55.2°C | 5.5% | 155.9hPa | 2.6V | 02:44:12 | 02:24:45 | 00:00:00 | |
| NBG1-10 | 2026-08-30 19:06:37 | 50.04590 | 8.47825 | 73° | 93km/h | 13622m | -23.6m/s | -55.5°C | 5.8% | 158.7hPa | 2.6V | 02:44:00 | 02:24:50 | 00:00:00 | |
| DB0NH | 2026-08-30 19:06:36 | 50.04582 | 8.47788 | 73° | 93km/h | 13646m | -23.9m/s | -55.6°C | 5.8% | 158.2hPa | 2.5V | 00:00:00 | 02:24:49 | 00:00:00 | |
| DM0DOS-11 | 2026-08-30 19:06:35 | 50.04538 | 8.47567 | 74° | 97km/h | 13786m | -24.1m/s | -55.1°C | 5.4% | 154.8hPa | 2.5V | 02:44:14 | 02:24:43 | 00:00:00 | |
| BIOWL1-15 | 2026-08-30 19:06:35 | 50.04574 | 8.47751 | 73° | 99km/h | 13669m | -24.3m/s | -55.7°C | 2.4% | 157.6hPa | 2.5V | 02:44:27 | 02:24:48 | 00:00:00 | |
| DL1XH-west | 2026-08-30 19:06:33 | 50.04559 | 8.47678 | 74° | 99km/h | 13716m | -24.2m/s | -55.4°C | 2.3% | 156.5hPa | 2.5V | 02:44:27 | 02:24:46 | 00:00:00 | |
| DO3MHA-11 | 2026-08-30 19:06:32 | 50.04552 | 8.47640 | 75° | 95km/h | 13739m | -24.2m/s | -55.2°C | 5.5% | 155.8hPa | 2.6V | 02:44:00 | 02:24:45 | 00:00:00 | |
| DL8OAI-8 | 2026-08-30 19:06:31 | 50.04552 | 8.47640 | 75° | 99km/h | 13739m | -24.2m/s | -55.2°C | 2.4% | 155.9hPa | 2.6V | 02:44:00 | 00:00:00 | 00:00:00 | |
| DL8DAS-14 | 2026-08-30 19:06:30 | 50.04538 | 8.47567 | 74° | 97km/h | 13786m | -24.1m/s | -55.1°C | 2.3% | 154.8hPa | 2.6V | 00:00:00 | 00:00:00 | 00:00:00 | |
| SFWM-10 | 2026-08-30 19:06:29 | 50.04538 | 8.47567 | 76° | 97km/h | 13786m | -24.1m/s | -55.1°C | 2.3% | 154.8hPa | 2.6V | 00:00:00 | 00:00:00 | 00:00:00 | |
| DL1XH1-15 | 2026-08-30 19:06:27 | 50.04480 | 8.47284 | 71° | 97km/h | 13975m | -23.6m/s | -55°C | 5.2% | 150.3hPa | 2.6V | 02:44:22 | 02:24:35 | 00:00:00 | |
| HEMX73-6 | 2026-08-30 19:06:27 | 50.04517 | 8.47460 | 74° | 29km/h | 13857m | -23.6m/s | -55.2°C | 5.3% | 153.1hPa | 2.5V | 00:00:00 | 02:24:40 | 00:00:00 | |
| DL9PN | 2026-08-30 19:06:26 | 50.04510 | 8.47425 | 72° | 93km/h | 13880m | -24.2m/s | -55.3°C | 2.3% | 152.5hPa | 2.5V | 00:00:00 | 00:00:00 | 00:00:00 | |
| DM0DOS-11 | 2026-08-30 19:06:24 | 50.04456 | 8.47175 | 71° | 97km/h | 14045m | -23.8m/s | -55.2°C | 5.3% | 148.7hPa | 2.5V | 02:44:25 | 02:24:32 | 00:00:00 | |
| BIOWL1-15 | 2026-08-30 19:06:24 | 50.04495 | 8.47355 | 72° | 95km/h | 13928m | -23.9m/s | -55.3°C | 2% | 151.4hPa | 2.5V | 02:44:27 | 02:24:37 | 00:00:00 | |
| DL1XH-west | 2026-08-30 19:06:23 | 50.04488 | 8.47319 | 72° | 95km/h | 13952m | -23.5m/s | -55°C | 1.9% | 150.8hPa | 2.5V | 02:44:27 | 02:24:36 | 00:00:00 | |
| BIOWL1-15 | 2026-08-30 19:06:14 | 50.04417 | 8.47001 | 69° | 89km/h | 14161m | -23.8m/s | -55°C | 1.7% | 146hPa | 2.5V | 02:45:18 | 02:24:27 | 00:00:00 | |
| DL1XH-west | 2026-08-30 19:06:12 | 50.04400 | 8.46938 | 69° | 84km/h | 14207m | -24.2m/s | -55.2°C | 1.7% | 144.9hPa | 2.6V | 02:45:18 | 02:24:25 | 00:00:00 | |
| DL4BBY-15 | 2026-08-30 19:06:09 | 50.04374 | 8.46847 | 66° | 80km/h | 14278m | -24.7m/s | -56.9°C | 0% | 0hPa | 2.5V | 00:00:00 | 00:00:00 | 00:00:00 | |
| HEMX73-11 | 2026-08-30 19:06:08 | 50.04375 | 8.46847 | 67° | 82km/h | 14278m | -24.8m/s | -55.3°C | 2.0% | 143.3hPa | 2.5V | 02:45:00 | 00:00:00 | 00:00:00 | |
| DL1XH1-15 | 2026-08-30 19:06:07 | 50.04307 | 8.46639 | 64° | 86km/h | 14449m | -24.7m/s | -54.9°C | 4.9% | 139.5hPa | 2.5V | 02:44:42 | 02:24:15 | 00:00:00 | |
| DB0NH | 2026-08-30 19:06:06 | 50.04347 | 8.46759 | 64° | 78km/h | 14351m | -25.0m/s | -55.3°C | 5.2% | 141.7hPa | 2.5V | 00:00:00 | 02:24:19 | 00:00:00 | |
| SO1NDE-10 | 2026-08-30 19:06:04 | 50.04327 | 8.46700 | 63° | 47km/h | 14400m | -25.0m/s | 0°C | 0% | 0hPa | 2.5V | 02:44:00 | 02:24:17 | 00:00:00 | |
| DM0DOS-11 | 2026-08-30 19:06:03 | 50.04271 | 8.46512 | 67° | 84km/h | 14545m | -25m/s | -54.8°C | 4.9% | 137.5hPa | 2.5V | 02:44:46 | 02:24:11 | 00:00:00 | |
| BIOWL1-15 | 2026-08-30 19:06:03 | 50.04317 | 8.46669 | 65° | 86km/h | 14424m | -25.1m/s | -54.7°C | 1.3% | 140hPa | 2.5V | 02:45:18 | 02:24:16 | 00:00:00 | |
| DL1NUX | 2026-08-30 19:06:02 | 50.04263 | 8.46481 | 68° | 84km/h | 14570m | -25.3m/s | 0°C | 0% | 0hPa | 2.5V | 02:44:47 | 02:24:10 | 00:00:00 | |
| DL1XH-west | 2026-08-30 19:06:02 | 50.04307 | 8.46639 | 65° | 86km/h | 14449m | -24.7m/s | -54.9°C | 1.4% | 139.5hPa | 2.5V | 02:45:18 | 02:24:15 | 00:00:00 | |
| DF7PN | 2026-08-30 19:06:00 | 50.04288 | 8.46576 | 66° | 88km/h | 14497m | -24.6m/s | -54.9°C | 1.8% | 138.5hPa | 2.5V | 00:00:00 | 00:00:00 | 00:00:00 | |
| DL8DAS-14 | 2026-08-30 19:05:59 | 50.04279 | 8.46544 | 67° | 88km/h | 14521m | -25.0m/s | -54.8°C | 1.8% | 137.9hPa | 2.5V | 00:00:00 | 00:00:00 | 00:00:00 | |
| DL1XH1-15 | 2026-08-30 19:05:57 | 50.04228 | 8.46333 | 71° | 77km/h | 14695m | -25.3m/s | -54.5°C | 4.7% | 134.3hPa | 2.5V | 02:44:52 | 02:24:05 | 00:00:00 | |
| DL9PN | 2026-08-30 19:05:55 | 50.04248 | 8.46420 | 71° | 78km/h | 14620m | -25.7m/s | -54.4°C | 1.7% | 136.0hPa | 2.6V | 00:00:00 | 00:00:00 | 00:00:00 | |
| DJ2DS-15 | 2026-08-30 19:05:54 | 50.04241 | 8.46391 | 72° | 71km/h | 14645m | -25.7m/s | -54.4°C | 4.7% | 135.3hPa | 2.6V | 02:44:00 | 02:24:07 | 00:00:00 | |
| DM0DOS-11 | 2026-08-30 19:05:53 | 50.04202 | 8.46220 | 70° | 75km/h | 14794m | -25.7m/s | -54.6°C | 4.7% | 132.3hPa | 2.6V | 02:44:56 | 02:24:01 | 00:00:00 | |
| DL1XH-west | 2026-08-30 19:05:52 | 50.04228 | 8.46333 | 71° | 77km/h | 14696m | -25.3m/s | -54.6°C | 1.2% | 134.3hPa | 2.5V | 02:45:18 | 02:24:05 | 00:00:00 | |
| DB0ND-19 | 2026-08-30 19:05:51 | 50.04215 | 8.46276 | 70° | 75km/h | 14745m | -25.5m/s | -54.6°C | 1.7% | 133.2hPa | 2.6V | 00:00:00 | 00:00:00 | 00:00:00 | |
| DL1ZP-14 | 2026-08-30 19:05:49 | 50.04208 | 8.46248 | 70° | 75km/h | 14770m | -25.0m/s | -54.5°C | 1.7% | 132.8hPa | 2.6V | 00:00:00 | 00:00:00 | 00:00:00 | |
| DH7VM-15 | 2026-08-30 19:05:48 | 50.04208 | 8.46248 | 72° | 75km/h | 14770m | -25.0m/s | -54.5°C | 1.7% | 132.8hPa | 2.6V | 00:00:00 | 00:00:00 | 00:00:00 | |
| DL1XH1-15 | 2026-08-30 19:05:47 | 50.04163 | 8.46059 | 69° | 71km/h | 14946m | -25.3m/s | -54.3°C | 4.7% | 129.2hPa | 2.6V | 02:45:02 | 02:23:55 | 00:00:00 | |
| SFWM-10 | 2026-08-30 19:05:46 | 50.04195 | 8.46193 | 71° | 75km/h | 14819m | -26.2m/s | -54.5°C | 1.7% | 131.7hPa | 2.6V | 00:00:00 | 00:00:00 | 00:00:00 | |
| DF3TZ-5 | 2026-08-30 19:05:45 | 50.04176 | 8.46112 | 69° | 73km/h | 14896m | -25.6m/s | -54.5°C | 1.7% | 130.2hPa | 2.6V | 00:00:00 | 00:00:00 | 00:00:00 | |
| SONCRA | 2026-08-30 19:05:44 | 50.04169 | 8.46085 | 69° | 71km/h | 14921m | -25.4m/s | -54.4°C | 1.7% | 129.7hPa | 2.6V | 00:00:00 | 00:00:00 | 00:00:00 | |
| DM0DOS-11 | 2026-08-30 19:05:43 | 50.04137 | 8.45958 | 67° | 66km/h | 15047m | -25.4m/s | -54.5°C | 4.8% | 127.2hPa | 2.6V | 02:45:06 | 02:23:51 | 00:00:00 | |
| DL1XH-west | 2026-08-30 19:05:41 | 50.04156 | 8.46033 | 68° | 69km/h | 14971m | -25.6m/s | -54.3°C | 1.1% | 128.7hPa | 2.5V | 02:45:18 | 02:23:54 | 00:00:00 | |
| DJ2KF-10 | 2026-08-30 19:05:40 | 50.04150 | 8.46008 | 69° | 68km/h | 14996m | -25.6m/s | -54.2°C | 4.7% | 128.1hPa | 2.5V | 02:45:00 | 02:23:53 | 00:00:00 | |
| DL4BBY-15 | 2026-08-30 19:05:39 | 50.04143 | 8.45983 | 70° | 66km/h | 15021m | -25.5m/s | -56.0°C | 0% | 0hPa | 2.6V | 00:00:00 | 00:00:00 | 00:00:00 | |
| DL1XH1-15 | 2026-08-30 19:05:37 | 50.04092 | 8.45829 | 59° | 60km/h | 15198m | -25.8m/s | -54.6°C | 4.9% | 124.2hPa | 2.6V | 02:45:12 | 02:23:45 | 00:00:00 | |
| DB0NH | 2026-08-30 19:05:36 | 50.04123 | 8.45912 | 65° | 66km/h | 15097m | -25.9m/s | -54.7°C | 4.9% | 126.1hPa | 2.5V | 02:45:00 | 02:23:49 | 00:00:00 | |
| DD1CC8 | 2026-08-30 19:05:35 | 50.04108 | 8.45869 | 60° | 58km/h | 15147m | -25.9m/s | -54.6°C | 1.8% | 125.2hPa | 2.5V | 00:00:00 | 00:00:00 | 00:00:00 | |
| DJ2DS-15 | 2026-08-30 19:05:34 | 50.04108 | 8.45869 | 61° | 66km/h | 15148m | -25.8m/s | -54.5°C | 4.9% | 125.1hPa | 2.5V | 00:00:00 | 02:23:47 | 00:00:00 | |
| DM0DOS-11 | 2026-08-30 19:05:33 | 50.04060 | 8.45749 | 58° | 62km/h | 15302m | -26.5m/s | -54.4°C | 4.9% | 122.2hPa | 2.5V | 02:45:16 | 02:23:41 | 00:00:00 | |
| DL1XH-west | 2026-08-30 19:05:31 | 50.04085 | 8.45809 | 59° | 58km/h | 15223m | -26.3m/s | -54.7°C | 1.2% | 123.7hPa | 2.6V | 02:45:18 | 02:23:44 | 00:00:00 | |
| BIOWL1-15 | 2026-08-30 19:05:30 | 50.04076 | 8.45790 | 58° | 60km/h | 15250m | -26.5m/s | -54.6°C | 1.3% | 123.2hPa | 2.6V | 02:45:18 | 02:23:43 | 00:00:00 | |
| DF7PN | 2026-08-30 19:05:29 | 50.04068 | 8.45769 | 58° | 60km/h | 15276m | -26.4m/s | -54.5°C | 1.8% | 122.7hPa | 2.5V | 00:00:00 | 00:00:00 | 00:00:00 | |
| DL8DAS-14 | 2026-08-30 19:05:28 | 50.04059 | 8.45749 | 58° | 62km/h | 15302m | -26.5m/s | -54.4°C | 1.7% | 122.2hPa | 2.5V | 00:00:00 | 00:00:00 | 00:00:00 | |
| DL1XH1-15 | 2026-08-30 19:05:27 | 50.04000 | 8.45624 | 49° | 71km/h | 15458m | -26.5m/s | -53.4°C | 4.3% | 119.3hPa | 2.5V | 02:45:22 | 02:23:35 | 00:00:00 | |
| HSKMA3-T | 2026-08-30 19:05:26 | 50.04041 | 8.45708 | 56° | 64km/h | 15354m | -26.4m/s | -54°C | 1% | 121.2hPa | 2.6V | 02:45:18 | 02:23:39 | 00:00:00 | |
| DL9PN | 2026-08-30 19:05:24 | 50.04022 | 8.45667 | 53° | 68km/h | 15407m | -26.3m/s | -53.8°C | 1.5% | 120.3hPa | 2.6V | 00:00:00 | 00:00:00 | 00:00:00 | |
| DM0DOS-11 | 2026-08-30 19:05:23 | 50.03955 | 8.45532 | 54° | 73km/h | 15563m | -26.4m/s | -52.5°C | 4% | 117.3hPa | 2.6V | 02:45:26 | 02:23:31 | 00:00:00 | |
| DL1XH-west | 2026-08-30 19:05:21 | 50.03988 | 8.45602 | 51° | 73km/h | 15485m | -26.8m/s | -53.3°C | 0.7% | 118.8hPa | 2.5V | 02:46:09 | 02:23:34 | 00:00:00 | |
| BIOWL1-15 | 2026-08-30 19:05:20 | 50.03977 | 8.45579 | 54° | 73km/h | 15511m | -26.8m/s | -53.2°C | 0.7% | 118.3hPa | 2.6V | 02:46:09 | 02:23:33 | 00:00:00 | |
| DB0ND-19 | 2026-08-30 19:05:20 | 50.03966 | 8.45556 | 54° | 73km/h | 15537m | -26.5m/s | -52.8°C | 1.4% | 117.8hPa | 2.6V | 00:00:00 | 00:00:00 | 00:00:00 | |
| DJ2DS-15 | 2026-08-30 19:05:19 | 50.03966 | 8.45556 | 54° | 73km/h | 15537m | -26.5m/s | -52.8°C | 1.4% | 117.8hPa | 2.6V | 00:00:00 | 00:00:00 | 00:00:00 | |
| DL1ZP-14 | 2026-08-30 19:05:18 | 50.03955 | 8.45532 | 54° | 71km/h | 15563m | -26.4m/s | -52.5°C | 1.3% | 117.4hPa | 2.6V | 00:00:00 | 00:00:00 | 00:00:00 | |
| DL1XH1-15 | 2026-08-30 19:05:17 | 50.03899 | 8.45388 | 65° | 68km/h | 15720m | -27.1m/s | -52.1°C | 3.8% | 114.6hPa | 2.5V | 02:45:32 | 02:23:25 | 00:00:00 | |
| HSKMA3-T | 2026-08-30 19:05:15 | 50.03924 | 8.45461 | 60° | 69km/h | 15641m | -26.6m/s | -52.3°C | 0.6% | 116hPa | 2.5V | 02:47:00 | 02:23:28 | 00:00:00 | |
| DK5PH-5 | 2026-08-30 19:05:14 | 50.03915 | 8.45436 | 62° | 49km/h | 15668m | -26.5m/s | -52.2°C | 3.9% | 115.4hPa | 2.6V | 00:00:00 | 02:23:27 | 00:00:00 | |
| DM0DOS-11 | 2026-08-30 19:05:13 | 50.03872 | 8.45295 | 69° | 58km/h | 15827m | -27m/s | -52.2°C | 3.7% | 112.7hPa | 2.6V | 02:45:36 | 02:23:21 | 00:00:00 | |
| DL1XH-west | 2026-08-30 19:05:10 | 50.03884 | 8.45340 | 67° | 64km/h | 15773m | -27.5m/s | -52.2°C | 0.4% | 113.6hPa | 2.5V | 02:46:09 | 02:23:23 | 00:00:00 | |
| DL4BBY-15 | 2026-08-30 19:05:09 | 50.03878 | 8.45317 | 68° | 46km/h | 15800m | -27.1m/s | -53.8°C | 0% | 0hPa | 2.6V | 00:00:00 | 00:00:00 | 00:00:00 | |
| DJ2KF-10 | 2026-08-30 19:05:08 | 50.03872 | 8.45295 | 70° | 51km/h | 15827m | -26.9m/s | -52.2°C | 3.7% | 112.6hPa | 2.6V | 00:00:00 | 02:23:21 | 00:00:00 | |
| DL1XH1-15 | 2026-08-30 19:05:07 | 50.03844 | 8.45182 | 67° | 42km/h | 15986m | -26.9m/s | -52.8°C | 3.9% | 110hPa | 2.6V | 02:45:42 | 02:23:15 | 00:00:00 | |
| DB0NH | 2026-08-30 19:05:06 | 50.03862 | 8.45254 | 70° | 46km/h | 15880m | -27.2m/s | -52.4°C | 3.8% | 111.6hPa | 2.5V | 00:00:00 | 02:23:19 | 00:00:00 | |
| DD1CC8 | 2026-08-30 19:05:04 | 50.03848 | 8.45198 | 68° | 44km/h | 15960m | -26.7m/s | -52.8°C | 1.2% | 110.4hPa | 2.5V | 00:00:00 | 00:00:00 | 00:00:00 | |
| DM0DOS-11 | 2026-08-30 19:05:03 | 50.03829 | 8.45128 | 66° | 35km/h | 16094m | -27.7m/s | -52.8°C | 3.9% | 108.1hPa | 2.5V | 02:45:46 | 02:23:11 | 00:00:00 | |
| HSKMA3-T | 2026-08-30 19:05:02 | 50.03844 | 8.45182 | 68° | 42km/h | 15986m | -27m/s | -52.8°C | 0.5% | 110hPa | 2.6V | 02:47:00 | 02:23:15 | 00:00:00 | |
| DL1XH-west | 2026-08-30 19:05:00 | 50.03836 | 8.45153 | 68° | 37km/h | 16039m | -27.3m/s | -52.8°C | 0.5% | 109hPa | 2.5V | 02:46:09 | 02:23:13 | 00:00:00 | |
| BIOWL1-15 | 2026-08-30 19:04:59 | 50.03833 | 8.45140 | 69° | 35km/h | 16067m | -27.4m/s | -52.7°C | 0.5% | 108.6hPa | 2.5V | 02:46:09 | 02:23:12 | 00:00:00 | |
| DF7PN | 2026-08-30 19:04:58 | 50.03829 | 8.45128 | 66° | 35km/h | 16094m | -27.7m/s | -52.8°C | 1.2% | 108.1hPa | 2.6V | 00:00:00 | 00:00:00 | 00:00:00 | |
| DL8DAS-14 | 2026-08-30 19:04:57 | 50.03825 | 8.45115 | 65° | 35km/h | 16121m | -27.8m/s | -52.9°C | 1.2% | 107.6hPa | 2.6V | 00:00:00 | 00:00:00 | 00:00:00 | |
| DJ2DS-15 | 2026-08-30 19:04:54 | 50.03811 | 8.45079 | 58° | 51km/h | 16203m | -28.2m/s | -53.2°C | 4.0% | 106.2hPa | 2.6V | 02:45:00 | 02:23:07 | 00:00:00 | |
| DM0DOS-11 | 2026-08-30 19:04:53 | 50.03765 | 8.45004 | 40° | 49km/h | 16367m | -28m/s | -53.6°C | 4.2% | 103.6hPa | 2.5V | 02:45:56 | 02:23:01 | 00:00:00 | |
| HSKMA3-T | 2026-08-30 19:04:51 | 50.03792 | 8.45042 | 47° | 46km/h | 16286m | -27.6m/s | -53.6°C | 0.6% | 105hPa | 2.5V | 02:47:00 | 02:23:04 | 00:00:00 | |
| DL1XH-west | 2026-08-30 19:04:49 | 50.03775 | 8.45017 | 41° | 47km/h | 16340m | -27.7m/s | -53.7°C | 0.6% | 104.1hPa | 2.6V | 02:46:09 | 02:23:02 | 00:00:00 | |
| BIOWL1-15 | 2026-08-30 19:04:48 | 50.03765 | 8.45004 | 40° | 49km/h | 16367m | -28m/s | -53.6°C | 0.6% | 103.6hPa | 2.5V | 02:46:09 | 02:23:01 | 00:00:00 | |
| DL1XH1-15 | 2026-08-30 19:04:47 | 50.03709 | 8.44923 | 53° | 53km/h | 16533m | -28.3m/s | -54.3°C | 4.5% | 101hPa | 2.6V | 02:46:02 | 02:22:55 | 00:00:00 | |
| HEMX73-11 | 2026-08-30 19:04:46 | 50.03755 | 8.44992 | 41° | 49km/h | 16396m | -28.2m/s | -53.7°C | 1.3% | 103.2hPa | 2.5V | 02:46:00 | 00:00:00 | 00:00:00 | |
| DK5PH-5 | 2026-08-30 19:04:44 | 50.03726 | 8.44953 | 45° | 46km/h | 16479m | -27.6m/s | -53.9°C | 4.3% | 101.8hPa | 2.5V | 00:00:00 | 02:22:57 | 00:00:00 | |
| DM0DOS-11 | 2026-08-30 19:04:43 | 50.03678 | 8.44847 | 63° | 60km/h | 16645m | -28.1m/s | -54.2°C | 4.4% | 99.2hPa | 2.5V | 02:46:06 | 02:22:51 | 00:00:00 | |
| DL1XH-west | 2026-08-30 19:04:38 | 50.03678 | 8.44847 | 64° | 60km/h | 16645m | -28.1m/s | -54.2°C | 0.7% | 99.2hPa | 2.5V | 02:46:09 | 02:22:51 | 00:00:00 | |
| HSKMA3-T | 2026-08-30 19:04:37 | 50.03672 | 8.44825 | 64° | 62km/h | 16672m | -28.2m/s | -54.2°C | 0.7% | 98.8hPa | 2.6V | 02:47:00 | 02:22:50 | 00:00:00 | |
| DB0NH | 2026-08-30 19:04:36 | 50.03665 | 8.44804 | 66° | 31km/h | 16700m | -27.8m/s | -54.3°C | 4.5% | 98.4hPa | 2.6V | 00:00:00 | 02:22:49 | 00:00:00 | |
| DJ2DS-15 | 2026-08-30 19:04:34 | 50.03653 | 8.44759 | 72° | 42km/h | 16755m | -27.6m/s | -54.2°C | 4.5% | 97.5hPa | 2.6V | 00:00:00 | 02:22:47 | 00:00:00 | |
| DM0DOS-11 | 2026-08-30 19:04:33 | 50.03635 | 8.44633 | 81° | 51km/h | 16924m | -28.6m/s | -52.8°C | 4% | 95hPa | 2.6V | 02:46:16 | 02:22:41 | 00:00:00 | |
| DL1XH-west | 2026-08-30 19:04:28 | 50.03635 | 8.44633 | 81° | 51km/h | 16924m | -28.6m/s | -52.8°C | 0.5% | 95.1hPa | 2.6V | 02:47:00 | 02:22:41 | 00:00:00 | |
| HSKMA3-T | 2026-08-30 19:04:26 | 50.03631 | 8.44596 | 82° | 46km/h | 16980m | -28.8m/s | -52.4°C | 0.4% | 94.3hPa | 2.5V | 02:47:00 | 02:22:39 | 00:00:00 | |
| NBG1-10 | 2026-08-30 19:04:25 | 50.03629 | 8.44579 | 83° | 29km/h | 17009m | -28.9m/s | -52.2°C | 3.8% | 93.8hPa | 2.5V | 00:00:00 | 02:22:38 | 00:00:00 | |
| DM0DOS-11 | 2026-08-30 19:04:23 | 50.03625 | 8.44485 | 88° | 27km/h | 17208m | -28.7m/s | -52.9°C | 3.9% | 91hPa | 2.5V | 02:46:26 | 02:22:31 | 00:00:00 | |
| DL1XH-west | 2026-08-30 19:04:17 | 50.03624 | 8.44475 | 79° | 26km/h | 17236m | -28.8m/s | -52.6°C | 0.4% | 90.6hPa | 2.5V | 02:47:00 | 02:22:30 | 00:00:00 | |
| DL1XH1-15 | 2026-08-30 19:04:17 | 50.03612 | 8.44438 | 50° | 18km/h | 17381m | -29.9m/s | -52.2°C | 3.7% | 88.5hPa | 2.5V | 02:46:32 | 02:22:25 | 00:00:00 | |
| HSKMA3-T | 2026-08-30 19:04:16 | 50.03623 | 8.44466 | 71° | 24km/h | 17265m | -28.7m/s | -52.5°C | 0.3% | 90.2hPa | 2.6V | 02:47:00 | 02:22:29 | 00:00:00 | |
| DJ2DS-15 | 2026-08-30 19:04:14 | 50.03618 | 8.44450 | 56° | 26km/h | 17323m | -29.4m/s | -52.4°C | 3.7% | 89.3hPa | 2.6V | 00:00:00 | 02:22:27 | 00:00:00 | |
| DM0DOS-11 | 2026-08-30 19:04:13 | 50.03598 | 8.44413 | 56° | 22km/h | 17500m | -29.7m/s | -52.8°C | 3.8% | 87hPa | 2.6V | 02:46:36 | 02:22:21 | 00:00:00 | |
| DO3MHA-11 | 2026-08-30 19:04:12 | 50.03612 | 8.44438 | 51° | 24km/h | 17382m | -29.8m/s | -52.2°C | 3.7% | 88.5hPa | 2.6V | 00:00:00 | 02:22:25 | 00:00:00 | |
| DB0UT-9 | 2026-08-30 19:04:11 | 50.03612 | 8.44438 | 52° | 18km/h | 17382m | -29.9m/s | -52.2°C | 1.1% | 88.5hPa | 2.6V | 02:47:00 | 00:00:00 | 00:00:00 | |
| DO1YAY-16 | 2026-08-30 19:04:10 | 50.03605 | 8.44426 | 52° | 20km/h | 17440m | -30.2m/s | -52.4°C | 1.1% | 87.8hPa | 2.6V | 00:00:00 | 00:00:00 | 00:00:00 | |
| DL4BBY-15 | 2026-08-30 19:04:09 | 50.03601 | 8.44419 | 58° | 29km/h | 17471m | -29.9m/s | -54.2°C | 0% | 0hPa | 2.6V | 00:00:00 | 00:00:00 | 00:00:00 | |
| SONDE2-11 | 2026-08-30 19:04:08 | 50.03598 | 8.44412 | 56° | 22km/h | 17500m | -29.7m/s | -52.8°C | 1.1% | 87.0hPa | 2.6V | 00:00:00 | 00:00:00 | 00:00:00 | |
| DL1XH1-15 | 2026-08-30 19:04:07 | 50.03576 | 8.44356 | 64° | 27km/h | 17678m | -30.3m/s | -53.7°C | 4.1% | 84.7hPa | 2.6V | 02:46:42 | 02:22:15 | 00:00:00 | |
| DL1XH-west | 2026-08-30 19:04:07 | 50.03595 | 8.44405 | 60° | 24km/h | 17529m | -29.9m/s | -53°C | 0.5% | 86.6hPa | 2.6V | 02:47:00 | 02:22:20 | 00:00:00 | |
| HSKMA3-T | 2026-08-30 19:04:05 | 50.03587 | 8.44386 | 60° | 29km/h | 17588m | -30m/s | -53.4°C | 0.5% | 85.8hPa | 2.5V | 02:47:00 | 02:22:18 | 00:00:00 | |
| DO3MHA-11 | 2026-08-30 19:04:02 | 50.03576 | 8.44356 | 65° | 31km/h | 17678m | -30.2m/s | -53.6°C | 4.1% | 84.6hPa | 2.6V | 02:46:00 | 02:22:15 | 00:00:00 | |
| DJ2KF-10 | 2026-08-30 19:04:01 | 50.03573 | 8.44346 | 68° | 22km/h | 17708m | -30.7m/s | -53.9°C | 4.2% | 84.2hPa | 2.6V | 02:46:00 | 02:22:14 | 00:00:00 | |
| DO3DL | 2026-08-30 19:04:00 | 50.03573 | 8.44346 | 68° | 29km/h | 17708m | -30.7m/s | -53.9°C | 1.2% | 84.2hPa | 2.5V | 02:47:00 | 00:00:00 | 00:00:00 | |
| BIOWL7-15 | 2026-08-30 19:03:59 | 50.03571 | 8.44336 | 70° | 31km/h | 17738m | -31.3m/s | -54.2°C | 1.2% | 83.8hPa | 2.5V | 02:47:00 | 00:00:00 | 00:00:00 | |
| DF1GD-15 | 2026-08-30 19:03:58 | 50.03568 | 8.44324 | 72° | 31km/h | 17769m | -31.4m/s | -54.4°C | 1.3% | 83.5hPa | 2.5V | 02:47:00 | 00:00:00 | 00:00:00 | |
| DL1XH1-15 | 2026-08-30 19:03:57 | 50.03539 | 8.44252 | 43° | 31km/h | 17985m | -31.2m/s | -53.7°C | 4.2% | 80.7hPa | 2.5V | 02:46:52 | 02:22:05 | 00:00:00 | |
| DL1XH-west | 2026-08-30 19:03:56 | 50.03559 | 8.44291 | 60° | 33km/h | 17862m | -31m/s | -54.6°C | 0.8% | 82.3hPa | 2.5V | 02:47:00 | 02:22:09 | 00:00:00 | |
| HSKMA3-T | 2026-08-30 19:03:54 | 50.03550 | 8.44270 | 54° | 31km/h | 17924m | -31.1m/s | -54°C | 0.6% | 81.4hPa | 2.6V | 02:47:00 | 02:22:07 | 00:00:00 | |
| DJ2DS-15 | 2026-08-30 19:03:54 | 50.03550 | 8.44270 | 54° | 26km/h | 17924m | -31.1m/s | -53.9°C | 4.3% | 81.4hPa | 2.6V | 02:46:00 | 02:22:07 | 00:00:00 | |
| DM0DOS-11 | 2026-08-30 19:03:53 | 50.03516 | 8.44218 | 45° | 31km/h | 18110m | -31.8m/s | -54.1°C | 4.2% | 79.1hPa | 2.6V | 02:46:56 | 02:22:01 | 00:00:00 | |
| EDDB2-12 | 2026-08-30 19:03:53 | 50.03539 | 8.44252 | 43° | 31km/h | 17985m | -31.2m/s | -53.7°C | 1.2% | 80.7hPa | 2.5V | 00:00:00 | 00:00:00 | 00:00:00 | |
| DL9PN | 2026-08-30 19:03:51 | 50.03522 | 8.44226 | 45° | 31km/h | 18078m | -32.0m/s | -53.8°C | -1.0% | 79.5hPa | 2.5V | 00:00:00 | 00:00:00 | 00:00:00 | |
| BIOWL9-15 | 2026-08-30 19:03:48 | 50.03510 | 8.44209 | 48° | 31km/h | 18141m | -31.9m/s | 0°C | -1.0% | 78.7hPa | 2.5V | 00:00:00 | 00:00:00 | 00:00:00 | |
| DL1XH1-15 | 2026-08-30 19:03:47 | 50.03487 | 8.44156 | 58° | 29km/h | 18302m | -30.8m/s | -52.8°C | 3.7% | 76.8hPa | 2.5V | 02:47:02 | 02:21:55 | 00:00:00 | |
| DL1XH-west | 2026-08-30 19:03:46 | 50.03505 | 8.44199 | 51° | 35km/h | 18173m | -32.7m/s | -54.1°C | 0.6% | 78.4hPa | 2.6V | 02:47:00 | 02:21:59 | 00:00:00 | |
| BIOWL1-15 | 2026-08-30 19:03:45 | 50.03499 | 8.44188 | 54° | 35km/h | 18206m | -32.8m/s | -53.6°C | 0.5% | 78hPa | 2.5V | 02:47:00 | 02:21:58 | 00:00:00 | |
| HSKMA3-T | 2026-08-30 19:03:43 | 50.03491 | 8.44166 | 60° | 31km/h | 18271m | -31.7m/s | -52.9°C | 0.3% | 77.2hPa | 2.5V | 02:47:51 | 02:21:56 | 00:00:00 | |
| DO8TBO-1 | 2026-08-30 19:03:43 | 50.03491 | 8.44166 | 61° | 20km/h | 18271m | -31.7m/s | -52.8°C | 3.8% | 77.2hPa | 2.6V | 00:00:00 | 02:21:56 | 00:00:00 | |
| DO3MHA-11 | 2026-08-30 19:03:42 | 50.03487 | 8.44156 | 59° | 16km/h | 18302m | -30.8m/s | -52.7°C | 3.7% | 76.7hPa | 2.6V | 00:00:00 | 02:21:55 | 00:00:00 | |
| DO3DL | 2026-08-30 19:03:40 | 50.03484 | 8.44147 | 57° | 27km/h | 18333m | -30.7m/s | -52.7°C | 1.0% | 76.4hPa | 2.6V | 02:47:00 | 00:00:00 | 00:00:00 | |
| DL4BBY-15 | 2026-08-30 19:03:39 | 50.03477 | 8.44131 | 61° | 18km/h | 18394m | -31.6m/s | -54.4°C | 0% | 0hPa | 2.6V | 00:00:00 | 00:00:00 | 00:00:00 | |
| BIOWL7-15 | 2026-08-30 19:03:38 | 50.03477 | 8.44131 | 61° | 20km/h | 18394m | -31.6m/s | -52.8°C | 1.0% | 75.8hPa | 2.6V | 02:47:00 | 00:00:00 | 00:00:00 | |
| DL1XH1-15 | 2026-08-30 19:03:37 | 50.03466 | 8.44109 | 4° | 11km/h | 18613m | -31.3m/s | -52.6°C | 3.8% | 73.2hPa | 2.6V | 02:47:12 | 02:21:45 | 00:00:00 | |
| DL1XH-west | 2026-08-30 19:03:35 | 50.03472 | 8.44113 | 48° | 7km/h | 18520m | -30.8m/s | -52.5°C | 0.3% | 74.2hPa | 2.5V | 02:47:51 | 02:21:48 | 00:00:00 | |
| BIOWL1-15 | 2026-08-30 19:03:34 | 50.03471 | 8.44111 | 45° | 7km/h | 18550m | -31.5m/s | -52.5°C | 0.3% | 73.9hPa | 2.6V | 02:47:51 | 02:21:47 | 00:00:00 | |
| HSKMA3-T | 2026-08-30 19:03:32 | 50.03466 | 8.44109 | 5° | 11km/h | 18613m | -31.3m/s | -52.6°C | 0.3% | 73.2hPa | 2.6V | 02:47:51 | 02:21:45 | 00:00:00 | |
| DO3MHA-11 | 2026-08-30 19:03:32 | 50.03466 | 8.44109 | 5° | 15km/h | 18613m | -31.3m/s | -52.6°C | 3.8% | 73.2hPa | 2.6V | 02:47:00 | 02:21:45 | 00:00:00 | |
| DJ2DS-15 | 2026-08-30 19:03:31 | 50.03463 | 8.44109 | 0° | 11km/h | 18644m | -32.0m/s | -52.8°C | 1.1% | 72.8hPa | 2.6V | 00:00:00 | 00:00:00 | 00:00:00 | |
| DD1CC8 | 2026-08-30 19:03:30 | 50.03460 | 8.44109 | 356° | 11km/h | 18676m | -32.7m/s | -53.1°C | 1.1% | 72.5hPa | 2.6V | 00:00:00 | 00:00:00 | 00:00:00 | |
| DJ2KF-10 | 2026-08-30 19:03:28 | 50.03455 | 8.44108 | 11° | 18km/h | 18741m | -32.6m/s | -53.6°C | 4.0% | 71.7hPa | 2.6V | 00:00:00 | 02:21:41 | 00:00:00 | |
| DL1XH1-15 | 2026-08-30 19:03:27 | 50.03427 | 8.44094 | 18° | 24km/h | 18937m | -33.1m/s | -55.3°C | 4.7% | 69.6hPa | 2.6V | 02:47:22 | 02:21:35 | 00:00:00 | |
| DL1XH-west | 2026-08-30 19:03:25 | 50.03443 | 8.44103 | 20° | 20km/h | 18839m | -32.4m/s | -54.5°C | 0.6% | 70.7hPa | 2.5V | 02:47:51 | 02:21:38 | 00:00:00 | |
| HEMX73-11 | 2026-08-30 19:03:24 | 50.03443 | 8.44103 | 20° | 20km/h | 18840m | -32.4m/s | -54.5°C | 1.2% | 70.7hPa | 2.6V | 02:47:00 | 00:00:00 | 00:00:00 | |
| DM0DOS-11 | 2026-08-30 19:03:23 | 50.03403 | 8.44077 | 31° | 26km/h | 19068m | -33.6m/s | -56°C | 5.1% | 68.2hPa | 2.6V | 02:47:26 | 02:21:31 | 00:00:00 | |
| BIOWL1-15 | 2026-08-30 19:03:23 | 50.03433 | 8.44097 | 21° | 22km/h | 18904m | -33.3m/s | -55°C | 0.8% | 70hPa | 2.6V | 02:47:51 | 02:21:36 | 00:00:00 | |
| HSKMA3-T | 2026-08-30 19:03:21 | 50.03421 | 8.44090 | 19° | 26km/h | 18970m | -32.8m/s | -55.5°C | 0.9% | 69.2hPa | 2.5V | 02:47:51 | 02:21:34 | 00:00:00 | |
| DL9PN | 2026-08-30 19:03:20 | 50.03409 | 8.44082 | 28° | 26km/h | 19035m | -33.7m/s | -55.9°C | -1.0% | -1.0hPa | 2.5V | 00:00:00 | 00:00:00 | 00:00:00 | |
| NBG1-10 | 2026-08-30 19:03:19 | 50.03409 | 8.44082 | 29° | 16km/h | 19035m | -33.6m/s | -55.8°C | 5.0% | 68.5hPa | 2.5V | 02:47:00 | 02:21:32 | 00:00:00 | |
| BIOWL7-15 | 2026-08-30 19:03:18 | 50.03409 | 8.44082 | 29° | 26km/h | 19035m | -33.7m/s | -55.9°C | 1.4% | 68.6hPa | 2.5V | 02:47:00 | 00:00:00 | 00:00:00 | |
| DL1XH1-15 | 2026-08-30 19:03:17 | 50.03370 | 8.44038 | 37° | 22km/h | 19271m | -34.4m/s | -54.7°C | 4.7% | 66.1hPa | 2.5V | 02:47:32 | 02:21:25 | 00:00:00 | |
| BIOWL1-15 | 2026-08-30 19:03:15 | 50.03375 | 8.44045 | 39° | 26km/h | 19237m | -34.6m/s | -55°C | 0.9% | 66.4hPa | 2.5V | 02:47:51 | 02:21:26 | 00:00:00 | |
| DL1XH-west | 2026-08-30 19:03:15 | 50.03387 | 8.44058 | 37° | 29km/h | 19169m | -33.9m/s | -55.9°C | 1.1% | 67.1hPa | 2.5V | 02:47:51 | 02:21:28 | 00:00:00 | |
| DL1NUX | 2026-08-30 19:03:14 | 50.03359 | 8.44024 | 48° | 16km/h | 19374m | -34.6m/s | 0°C | 0% | 0hPa | 2.6V | 00:00:00 | 02:21:22 | 00:00:00 | |
| HSKMA3-T | 2026-08-30 19:03:10 | 50.03362 | 8.44029 | 44° | 16km/h | 19340m | -34.6m/s | -53.6°C | 0.6% | 65.4hPa | 2.6V | 02:47:51 | 02:21:23 | 00:00:00 | |
| DL4BBY-15 | 2026-08-30 19:03:09 | 50.03359 | 8.44024 | 49° | 15km/h | 19374m | -34.6m/s | -54.8°C | 0% | 0hPa | 2.6V | 00:00:00 | 00:00:00 | 00:00:00 | |
| DO1YAY-16 | 2026-08-30 19:03:08 | 50.03356 | 8.44019 | 55° | 15km/h | 19409m | -34.8m/s | -53.0°C | 1.1% | 64.6hPa | 2.6V | 00:00:00 | 00:00:00 | 00:00:00 | |
| DL1XH1-15 | 2026-08-30 19:03:07 | 50.03349 | 8.43992 | 59° | 7km/h | 19615m | -34.5m/s | -52.8°C | 3.9% | 62.7hPa | 2.6V | 02:47:42 | 02:21:15 | 00:00:00 | |
| DL1XH-west | 2026-08-30 19:03:04 | 50.03351 | 8.43999 | 68° | 13km/h | 19546m | -34.8m/s | -53.2°C | 0.5% | 63.3hPa | 2.6V | 02:47:51 | 02:21:17 | 00:00:00 | |
| BIOWL1-15 | 2026-08-30 19:03:02 | 50.03349 | 8.43992 | 59° | 7km/h | 19615m | -34.5m/s | -52.8°C | 0.4% | 62.7hPa | 2.6V | 02:47:51 | 02:21:15 | 00:00:00 | |
| HSKMA3-T | 2026-08-30 19:02:59 | 50.03345 | 8.43989 | 334° | 4km/h | 19718m | -34.9m/s | -52.3°C | 0.3% | 61.7hPa | 2.5V | 02:47:51 | 02:21:12 | 00:00:00 | |
| DJ2DS-15 | 2026-08-30 19:02:55 | 50.03338 | 8.43995 | 343° | 13km/h | 19857m | -36.0m/s | -52.3°C | 1.0% | 60.4hPa | 2.5V | 00:00:00 | 00:00:00 | 00:00:00 | |
| DJ2DS-15 | 2026-08-30 19:02:54 | 50.03334 | 8.43997 | 346° | 18km/h | 19893m | -35.8m/s | -52.2°C | 3.7% | 60.0hPa | 2.5V | 02:47:00 | 02:21:07 | 00:00:00 | |
| DM0DOS-11 | 2026-08-30 19:02:53 | 50.03302 | 8.44010 | 350° | 22km/h | 20107m | -36.4m/s | -53.7°C | 4.1% | 58hPa | 2.5V | 02:47:56 | 02:21:01 | 00:00:00 | |
| BIOWL1-15 | 2026-08-30 19:02:53 | 50.03320 | 8.44003 | 343° | 24km/h | 19999m | -36.1m/s | -52.8°C | 0.4% | 59hPa | 2.6V | 02:48:42 | 02:21:04 | 00:00:00 | |
| DL1XH-west | 2026-08-30 19:02:53 | 50.03330 | 8.43998 | 346° | 18km/h | 19928m | -36m/s | -52.2°C | 0.3% | 59.7hPa | 2.5V | 02:47:51 | 02:21:06 | 00:00:00 | |
| AA1-15 | 2026-08-30 19:02:52 | 50.03325 | 8.44000 | 345° | 20km/h | 19964m | -36m/s | -52.4°C | 0.3% | 59.3hPa | 2.5V | 02:48:42 | 02:21:05 | 00:00:00 | |
| HSKMA3-T | 2026-08-30 19:02:48 | 50.03302 | 8.44010 | 351° | 22km/h | 20107m | -36.4m/s | -53.7°C | 0.6% | 58hPa | 2.5V | 02:48:42 | 02:21:01 | 00:00:00 | |
| DB0UT-7 | 2026-08-30 19:02:47 | 50.03297 | 8.44011 | 359° | 16km/h | 20143m | -36.7m/s | -53.9°C | 4.2% | 57.7hPa | 2.5V | 02:47:00 | 00:00:00 | 00:00:00 | |
| NBG1-10 | 2026-08-30 19:02:46 | 50.03291 | 8.44011 | 2° | 16km/h | 20180m | -36.7m/s | -54.1°C | 4.3% | 57.4hPa | 2.6V | 00:00:00 | 02:20:59 | 00:00:00 | |
| DB0ND-19 | 2026-08-30 19:02:45 | 50.03281 | 8.44010 | 8° | 22km/h | 20252m | -36.9m/s | -54.0°C | 1.1% | 56.7hPa | 2.6V | 00:00:00 | 00:00:00 | 00:00:00 | |
| DK5PH-5 | 2026-08-30 19:02:44 | 50.03281 | 8.44010 | 9° | 16km/h | 20252m | -36.9m/s | -53.9°C | 4.2% | 56.6hPa | 2.6V | 02:48:00 | 02:20:57 | 00:00:00 | |
| DM0DOS-11 | 2026-08-30 19:02:43 | 50.03254 | 8.44004 | 355° | 11km/h | 20470m | -37.4m/s | -53.4°C | 4.1% | 54.9hPa | 2.6V | 02:48:06 | 02:20:51 | 00:00:00 | |
| DL1XH-west | 2026-08-30 19:02:43 | 50.03275 | 8.44008 | 14° | 20km/h | 20288m | -37.1m/s | -54°C | 0.7% | 56.5hPa | 2.5V | 02:48:42 | 02:20:56 | 00:00:00 | |
| AA1-15 | 2026-08-30 19:02:41 | 50.03266 | 8.44006 | 13° | 16km/h | 20361m | -37.1m/s | -53.8°C | 0.6% | 55.8hPa | 2.5V | 02:48:42 | 02:20:54 | 00:00:00 | |
| HSKMA3-T | 2026-08-30 19:02:37 | 50.03251 | 8.44004 | 357° | 9km/h | 20507m | -37.8m/s | -53.4°C | 0.6% | 54.5hPa | 2.6V | 02:48:42 | 02:20:50 | 00:00:00 | |
| DB0NH | 2026-08-30 19:02:36 | 50.03248 | 8.44004 | 3° | 16km/h | 20545m | -38.1m/s | -53.4°C | 4.2% | 54.1hPa | 2.5V | 02:48:00 | 02:20:49 | 00:00:00 | |
| SONDE2-11 | 2026-08-30 19:02:35 | 50.03245 | 8.44004 | 7° | 11km/h | 20582m | -38.0m/s | -53.4°C | 1.1% | 53.9hPa | 2.6V | 00:00:00 | 00:00:00 | 00:00:00 | |
| DJ2DS-15 | 2026-08-30 19:02:34 | 50.03241 | 8.44004 | 6° | 16km/h | 20620m | -37.6m/s | -53.3°C | 4.0% | 53.6hPa | 2.6V | 00:00:00 | 02:20:47 | 00:00:00 | |
| DM0DOS-11 | 2026-08-30 19:02:33 | 50.03217 | 8.44003 | 2° | 11km/h | 20844m | -38.4m/s | -54.1°C | 4.4% | 51.8hPa | 2.6V | 02:48:16 | 02:20:41 | 00:00:00 | |
| DL1XH-west | 2026-08-30 19:02:32 | 50.03233 | 8.44002 | 6° | 16km/h | 20695m | -37.8m/s | -53.9°C | 0.7% | 53hPa | 2.6V | 02:48:42 | 02:20:45 | 00:00:00 | |
| BIOWL1-15 | 2026-08-30 19:02:30 | 50.03224 | 8.44002 | 354° | 16km/h | 20769m | -37.7m/s | -54.2°C | 0.7% | 52.4hPa | 2.5V | 02:48:42 | 02:20:43 | 00:00:00 | |
| HSKMA3-T | 2026-08-30 19:02:27 | 50.03214 | 8.44002 | 15° | 11km/h | 20882m | -38.4m/s | -53.9°C | 0.7% | 51.5hPa | 2.6V | 02:48:42 | 02:20:40 | 00:00:00 | |
| CB1BUN | 2026-08-30 19:02:26 | 50.03214 | 8.44002 | 16° | 11km/h | 20883m | -38.4m/s | -53.9°C | 1.2% | 51.5hPa | 2.5V | 02:48:00 | 00:00:00 | 00:00:00 | |
| DM7RM-13 | 2026-08-30 19:02:25 | 50.03212 | 8.44001 | 30° | 11km/h | 20921m | -38.4m/s | -53.7°C | 1.2% | 51.2hPa | 2.5V | 02:48:00 | 00:00:00 | 00:00:00 | |
| DM0DOS-11 | 2026-08-30 19:02:23 | 50.03180 | 8.43978 | 35° | 22km/h | 21227m | -38.9m/s | -53.3°C | 4.1% | 48.8hPa | 2.5V | 02:48:26 | 02:20:31 | 00:00:00 | |
| DL1XH-west | 2026-08-30 19:02:22 | 50.03199 | 8.43990 | 22° | 18km/h | 21074m | -38.5m/s | -53.4°C | 0.6% | 50hPa | 2.5V | 02:48:42 | 02:20:35 | 00:00:00 | |
| BIOWL1-15 | 2026-08-30 19:02:21 | 50.03184 | 8.43982 | 27° | 20km/h | 21189m | -38.8m/s | -53.2°C | 0.6% | 49hPa | 2.6V | 02:48:42 | 02:20:32 | 00:00:00 | |
| EDDB2-12 | 2026-08-30 19:02:20 | 50.03184 | 8.43982 | 27° | 18km/h | 21189m | -38.8m/s | -53.2°C | 1.1% | 49.0hPa | 2.5V | 00:00:00 | 00:00:00 | 00:00:00 | |
| DJ2DS-15 | 2026-08-30 19:02:19 | 50.03184 | 8.43982 | 27° | 18km/h | 21189m | -38.8m/s | -53.2°C | 1.1% | 49.0hPa | 2.5V | 00:00:00 | 00:00:00 | 00:00:00 | |
| DL1XH-15 | 2026-08-30 19:02:18 | 50.03159 | 8.43944 | 56° | 24km/h | 21421m | -39.7m/s | -53°C | 4.1% | 47.4hPa | 2.5V | 02:48:31 | 02:20:26 | 00:00:00 | |
| AA1-15 | 2026-08-30 19:02:18 | 50.03180 | 8.43978 | 35° | 22km/h | 21227m | -38.9m/s | -53.3°C | 0.6% | 48.8hPa | 2.5V | 02:48:42 | 02:20:31 | 00:00:00 | |
| HSKMA3-T | 2026-08-30 19:02:17 | 50.03175 | 8.43972 | 44° | 22km/h | 21266m | -39.3m/s | -53.3°C | 0.6% | 48.5hPa | 2.5V | 02:48:42 | 02:20:30 | 00:00:00 | |
| DB0UT-7 | 2026-08-30 19:02:17 | 50.03175 | 8.43972 | 45° | 15km/h | 21266m | -39.3m/s | -53.2°C | 4.1% | 48.5hPa | 2.6V | 00:00:00 | 02:20:30 | 00:00:00 | |
| BIOWL7-15 | 2026-08-30 19:02:16 | 50.03175 | 8.43972 | 45° | 22km/h | 21266m | -39.3m/s | -53.3°C | 1.1% | 48.5hPa | 2.6V | 02:48:00 | 00:00:00 | 00:00:00 | |
| DF1GD-15 | 2026-08-30 19:02:15 | 50.03171 | 8.43966 | 48° | 24km/h | 21305m | -39.2m/s | -53.2°C | 1.1% | 48.2hPa | 2.6V | 02:48:00 | 00:00:00 | 00:00:00 | |
| DJ2DS-15 | 2026-08-30 19:02:14 | 50.03163 | 8.43951 | 55° | 11km/h | 21383m | -39.5m/s | -53.1°C | 4.1% | 47.6hPa | 2.6V | 00:00:00 | 02:20:27 | 00:00:00 | |
| DM0DOS-11 | 2026-08-30 19:02:13 | 50.03153 | 8.43910 | 94° | 16km/h | 21620m | -41.2m/s | -52.8°C | 4% | 45.9hPa | 2.6V | 02:48:36 | 02:20:21 | 00:00:00 | |
| BIOWL1-15 | 2026-08-30 19:02:12 | 50.03153 | 8.43910 | 94° | 16km/h | 21620m | -41.2m/s | -52.8°C | 0.5% | 45.9hPa | 2.6V | 02:48:42 | 02:20:21 | 00:00:00 | |
| DL1XH-west | 2026-08-30 19:02:12 | 50.03154 | 8.43929 | 74° | 18km/h | 21500m | -39.9m/s | -53.1°C | 0.6% | 46.8hPa | 2.5V | 02:48:42 | 02:20:24 | 00:00:00 | |
| HSKMA3-T | 2026-08-30 19:02:07 | 50.03153 | 8.43904 | 91° | 15km/h | 21661m | -41.1m/s | -52.8°C | 0.5% | 45.6hPa | 2.5V | 02:48:42 | 02:20:20 | 00:00:00 | |
| DB0NH | 2026-08-30 19:02:06 | 50.03153 | 8.43899 | 84° | 9km/h | 21702m | -40.1m/s | -52.7°C | 4.0% | 45.3hPa | 2.5V | 00:00:00 | 02:20:19 | 00:00:00 | |
| SONDE2-11 | 2026-08-30 19:02:04 | 50.03153 | 8.43889 | 85° | 9km/h | 21782m | -41.0m/s | -52.7°C | 1.1% | 44.7hPa | 2.5V | 00:00:00 | 00:00:00 | 00:00:00 | |
| DM0DOS-11 | 2026-08-30 19:02:03 | 50.03152 | 8.43879 | 79° | 4km/h | 22028m | -41.7m/s | -52.3°C | 3.8% | 43.1hPa | 2.5V | 02:48:46 | 02:20:11 | 00:00:00 | |
| DL1XH-west | 2026-08-30 19:02:00 | 50.03152 | 8.43881 | 99° | 4km/h | 21945m | -41.9m/s | -52.4°C | 0.4% | 43.6hPa | 2.5V | 02:49:33 | 02:20:13 | 00:00:00 | |
| BIOWL1-15 | 2026-08-30 19:01:59 | 50.03152 | 8.43878 | 63° | 4km/h | 22069m | -41.4m/s | -52.5°C | 0.4% | 42.8hPa | 2.6V | 02:49:33 | 02:20:10 | 00:00:00 | |
| DL1XH1-15 | 2026-08-30 19:01:57 | 50.03144 | 8.43875 | 5° | 7km/h | 22275m | -41.8m/s | -52.9°C | 4% | 41.4hPa | 2.6V | 02:48:52 | 02:20:05 | 00:00:00 | |
| HSKMA3-T | 2026-08-30 19:01:56 | 50.03151 | 8.43877 | 32° | 5km/h | 22110m | -41m/s | -52.7°C | 0.4% | 42.5hPa | 2.6V | 02:49:33 | 02:20:09 | 00:00:00 | |
| DJ2KF-10 | 2026-08-30 19:01:56 | 50.03151 | 8.43877 | 33° | 9km/h | 22111m | -41.0m/s | -52.7°C | 3.9% | 42.5hPa | 2.5V | 00:00:00 | 02:20:09 | 00:00:00 | |
| DJ2DS-15 | 2026-08-30 19:01:54 | 50.03148 | 8.43876 | 16° | 9km/h | 22193m | -41.4m/s | -52.8°C | 3.9% | 42.0hPa | 2.5V | 02:48:00 | 02:20:07 | 00:00:00 | |
| DM0DOS-11 | 2026-08-30 19:01:53 | 50.03137 | 8.43867 | 64° | 13km/h | 22443m | -42.7m/s | -52.7°C | 3.9% | 40.4hPa | 2.5V | 02:48:56 | 02:20:01 | 00:00:00 | |
| DL1XH-west | 2026-08-30 19:01:49 | 50.03139 | 8.43870 | 59° | 9km/h | 22401m | -42.3m/s | -53°C | 0.5% | 40.7hPa | 2.5V | 02:49:33 | 02:20:02 | 00:00:00 | |
| BIOWL1-15 | 2026-08-30 19:01:47 | 50.03135 | 8.43862 | 62° | 15km/h | 22485m | -42.8m/s | -52.6°C | 0.4% | 40.1hPa | 2.5V | 02:49:33 | 02:20:00 | 00:00:00 | |
| HSKMA3-T | 2026-08-30 19:01:45 | 50.03132 | 8.43852 | 71° | 15km/h | 22570m | -42.9m/s | -52.8°C | 0.5% | 39.6hPa | 2.6V | 02:49:33 | 02:19:58 | 00:00:00 | |
| DL1XH-west | 2026-08-30 19:01:38 | 50.03136 | 8.43828 | 131° | 5km/h | 22873m | -43.5m/s | -53.2°C | 0.6% | 37.9hPa | 2.5V | 02:49:33 | 02:19:51 | 00:00:00 | |
| BIOWL1-15 | 2026-08-30 19:01:36 | 50.03137 | 8.43826 | 183° | 4km/h | 22959m | -44.5m/s | -53.6°C | 0.7% | 37.3hPa | 2.5V | 02:49:33 | 02:19:49 | 00:00:00 | |
| HSKMA3-T | 2026-08-30 19:01:35 | 50.03137 | 8.43827 | 206° | 5km/h | 23004m | -44.6m/s | -53.8°C | 0.7% | 37.1hPa | 2.6V | 02:49:33 | 02:19:48 | 00:00:00 | |
| AA1-15 | 2026-08-30 19:01:34 | 50.03138 | 8.43828 | 208° | 5km/h | 23048m | -44.7m/s | -53.8°C | 0.7% | 36.8hPa | 2.6V | 02:49:33 | 02:19:47 | 00:00:00 | |
| BUE01 | 2026-08-30 19:01:34 | 50.03140 | 8.43829 | 206° | 5km/h | 23092m | -44.7m/s | -53.7°C | 1.1% | 36.6hPa | 2.6V | 00:00:00 | 00:00:00 | 00:00:00 | |
| DM0DOS-11 | 2026-08-30 19:01:33 | 50.03144 | 8.43828 | 148° | 2km/h | 23316m | -45.1m/s | -53.6°C | 4.4% | 35.3hPa | 2.6V | 02:49:16 | 02:19:41 | 00:00:00 | |
| DL1XH-west | 2026-08-30 19:01:27 | 50.03144 | 8.43828 | 212° | 2km/h | 23360m | -45.1m/s | -53.7°C | 0.8% | 35hPa | 2.5V | 02:49:33 | 02:19:40 | 00:00:00 | |
| BIOWL1-15 | 2026-08-30 19:01:26 | 50.03145 | 8.43829 | 226° | 5km/h | 23405m | -45.4m/s | -53.7°C | 0.8% | 34.9hPa | 2.5V | 02:49:33 | 02:19:39 | 00:00:00 | |
| HSKMA3-T | 2026-08-30 19:01:25 | 50.03145 | 8.43831 | 229° | 5km/h | 23451m | -45.7m/s | -53.7°C | 0.9% | 34.6hPa | 2.5V | 02:49:33 | 02:19:38 | 00:00:00 | |
| AA1-15 | 2026-08-30 19:01:23 | 50.03146 | 8.43834 | 264° | 4km/h | 23543m | -46.1m/s | -53.2°C | 0.7% | 34hPa | 2.6V | 02:49:33 | 02:19:36 | 00:00:00 | |
| DM0DOS-11 | 2026-08-30 19:01:23 | 50.03137 | 8.43844 | 323° | 11km/h | 23771m | -46.2m/s | -53.5°C | 4.5% | 32.9hPa | 2.5V | 02:49:26 | 02:19:31 | 00:00:00 | |
| DL1XH-west | 2026-08-30 19:01:17 | 50.03135 | 8.43847 | 335° | 9km/h | 23817m | -46.5m/s | -53.3°C | 0.8% | 32.6hPa | 2.6V | 02:49:33 | 02:19:30 | 00:00:00 | |
| HSKMA3-T | 2026-08-30 19:01:15 | 50.03130 | 8.43849 | 356° | 11km/h | 23910m | -47m/s | -53°C | 0.7% | 32.2hPa | 2.6V | 02:49:33 | 02:19:28 | 00:00:00 | |
| DB0UT-7 | 2026-08-30 19:01:15 | 50.03130 | 8.43849 | 357° | 9km/h | 23911m | -47.0m/s | -52.9°C | 4.4% | 32.1hPa | 2.6V | 02:49:00 | 02:19:28 | 00:00:00 | |
| DK5PH-5 | 2026-08-30 19:01:14 | 50.03127 | 8.43849 | 355° | 9km/h | 23957m | -47.3m/s | -52.6°C | 4.3% | 31.9hPa | 2.5V | 02:49:00 | 02:19:27 | 00:00:00 | |
| DM0DOS-11 | 2026-08-30 19:01:13 | 50.03109 | 8.43851 | 359° | 15km/h | 24241m | -47.9m/s | -50.7°C | 3.6% | 30.6hPa | 2.6V | 02:49:36 | 02:19:21 | 00:00:00 | |
| DL1XH-15 | 2026-08-30 19:01:12 | 50.03106 | 8.43851 | 355° | 15km/h | 24289m | -48.5m/s | -50.8°C | 3.6% | 30.4hPa | 2.5V | 02:49:37 | 02:19:20 | 00:00:00 | |
| AA1-15 | 2026-08-30 19:01:12 | 50.03121 | 8.43850 | 348° | 11km/h | 24051m | -47.7m/s | -51.7°C | 0.5% | 31.5hPa | 2.5V | 02:49:33 | 02:19:25 | 00:00:00 | |
| DF8AY | 2026-08-30 19:01:11 | 50.03119 | 8.43851 | 351° | 11km/h | 24098m | -47.8m/s | 0°C | 0% | 0hPa | 2.5V | 02:49:33 | 02:19:24 | 00:00:00 | |
| EDDB2-11 | 2026-08-30 19:01:10 | 50.03113 | 8.43851 | 4° | 13km/h | 24194m | -47.6m/s | -50.8°C | 0.9% | 30.8hPa | 2.5V | 00:00:00 | 00:00:00 | 00:00:00 | |
| DL4BBY-15 | 2026-08-30 19:01:09 | 50.03113 | 8.43851 | 5° | 9km/h | 24195m | -47.6m/s | -52.4°C | 0% | 0hPa | 2.5V | 00:00:00 | 00:00:00 | 00:00:00 | |
| DL1XH1-15 | 2026-08-30 19:01:07 | 50.03096 | 8.43844 | 75° | 7km/h | 24532m | -50m/s | -51°C | 3.7% | 29.2hPa | 2.5V | 02:49:42 | 02:19:15 | 00:00:00 | |
| DL1XH-west | 2026-08-30 19:01:07 | 50.03105 | 8.43851 | 356° | 15km/h | 24289m | -48.5m/s | -50.8°C | 0.3% | 30.4hPa | 2.5V | 02:50:24 | 02:19:20 | 00:00:00 | |
| BIOWL1-15 | 2026-08-30 19:01:04 | 50.03098 | 8.43850 | 51° | 7km/h | 24434m | -49.3m/s | -50.8°C | 0.4% | 29.8hPa | 2.6V | 02:50:24 | 02:19:17 | 00:00:00 | |
| AA1-15 | 2026-08-30 19:01:02 | 50.03096 | 8.43844 | 75° | 7km/h | 24532m | -50m/s | -51°C | 0.4% | 29.2hPa | 2.5V | 02:50:24 | 02:19:15 | 00:00:00 | |
| DF8AY | 2026-08-30 19:01:00 | 50.03095 | 8.43840 | 113° | 4km/h | 24632m | -49.4m/s | 0°C | 0% | 0hPa | 2.6V | 18:12:15 | 02:19:13 | 00:00:00 | |
| DO8TBO-1 | 2026-08-30 19:01:00 | 50.03095 | 8.43840 | 113° | 9km/h | 24632m | -49.4m/s | -50.8°C | 3.7% | 28.8hPa | 2.5V | 00:00:00 | 02:19:13 | 00:00:00 | |
| HEMX73-11 | 2026-08-30 19:00:59 | 50.03095 | 8.43840 | 114° | 4km/h | 24632m | -49.4m/s | -50.9°C | 0.9% | 28.8hPa | 2.5V | 02:50:00 | 00:00:00 | 00:00:00 | |
| DL1XH-15 | 2026-08-30 19:00:57 | 50.03110 | 8.43847 | 249° | 11km/h | 25028m | -50.2m/s | -51°C | 3.7% | 27.1hPa | 2.5V | 02:49:52 | 02:19:05 | 00:00:00 | |
| DL1XH-west | 2026-08-30 19:00:57 | 50.03100 | 8.43838 | 186° | 11km/h | 24778m | -50m/s | -50.9°C | 0.4% | 28.2hPa | 2.5V | 02:50:24 | 02:19:10 | 00:00:00 | |
| BIOWL1-15 | 2026-08-30 19:00:54 | 50.03107 | 8.43841 | 204° | 11km/h | 24928m | -50.5m/s | -50.9°C | 0.4% | 27.5hPa | 2.6V | 02:50:24 | 02:19:07 | 00:00:00 | |
| AA1-15 | 2026-08-30 19:00:51 | 50.03111 | 8.43852 | 247° | 13km/h | 25078m | -51.4m/s | -50.9°C | 0.4% | 26.9hPa | 2.5V | 02:50:24 | 02:19:04 | 00:00:00 | |
| DF8AY | 2026-08-30 19:00:50 | 50.03111 | 8.43856 | 275° | 11km/h | 25129m | -50.3m/s | 0°C | 0% | 0hPa | 2.5V | 18:12:15 | 02:19:03 | 00:00:00 | |
| DL8DAS-14 | 2026-08-30 19:00:49 | 50.03110 | 8.43863 | 311° | 5km/h | 25229m | -51.1m/s | -50.8°C | 0.9% | 26.3hPa | 2.6V | 00:00:00 | 00:00:00 | 00:00:00 | |
| DL1XH1-15 | 2026-08-30 19:00:47 | 50.03096 | 8.43873 | 342° | 5km/h | 25532m | -51.3m/s | -50.4°C | 3.6% | 25.1hPa | 2.6V | 02:50:02 | 02:18:55 | 00:00:00 | |
| EDDB2-12 | 2026-08-30 19:00:46 | 50.03105 | 8.43867 | 341° | 9km/h | 25330m | -51.0m/s | -50.8°C | 0.9% | 25.8hPa | 2.5V | 00:00:00 | 00:00:00 | 00:00:00 | |
| DL1XH-west | 2026-08-30 19:00:46 | 50.03105 | 8.43867 | 341° | 11km/h | 25329m | -51m/s | -50.8°C | 0.3% | 25.8hPa | 2.6V | 02:50:24 | 02:18:59 | 00:00:00 | |
| HSKMA3-T | 2026-08-30 19:00:44 | 50.03100 | 8.43870 | 336° | 9km/h | 25431m | -51.8m/s | -50.6°C | 0.4% | 25.4hPa | 2.5V | 02:50:24 | 02:18:57 | 00:00:00 | |
| DK5PH-5 | 2026-08-30 19:00:44 | 50.03099 | 8.43870 | 336° | 5km/h | 25431m | -51.7m/s | -50.6°C | 3.7% | 25.4hPa | 2.5V | 00:00:00 | 02:18:57 | 00:00:00 | |
| DM0DOS-11 | 2026-08-30 19:00:43 | 50.03090 | 8.43874 | 8° | 2km/h | 25737m | -52.4m/s | -50.6°C | 3.7% | 24.3hPa | 2.5V | 02:50:06 | 02:18:51 | 00:00:00 | |
| BIOWL1-15 | 2026-08-30 19:00:43 | 50.03097 | 8.43872 | 336° | 7km/h | 25482m | -51.6m/s | -50.5°C | 0.3% | 25.3hPa | 2.5V | 02:50:24 | 02:18:56 | 00:00:00 | |
| DF8AY | 2026-08-30 19:00:40 | 50.03093 | 8.43873 | 6° | 5km/h | 25634m | -52.4m/s | 0°C | 0% | 0hPa | 2.6V | 18:12:15 | 02:18:53 | 00:00:00 | |
| DL4BBY-15 | 2026-08-30 19:00:39 | 50.03091 | 8.43873 | 7° | 7km/h | 25686m | -52.2m/s | -52.1°C | 0% | 0hPa | 2.5V | 00:00:00 | 00:00:00 | 00:00:00 | |
| DO3DL | 2026-08-30 19:00:38 | 50.03091 | 8.43873 | 7° | 4km/h | 25686m | -52.3m/s | -50.5°C | 0.9% | 24.5hPa | 2.5V | 02:50:00 | 00:00:00 | 00:00:00 | |
| DL1XH1-15 | 2026-08-30 19:00:37 | 50.03086 | 8.43876 | 292° | 2km/h | 26029m | -45.4m/s | -50.6°C | 3.8% | 23.1hPa | 2.5V | 02:50:12 | 02:18:45 | 00:00:00 | |
| DL1XH-west | 2026-08-30 19:00:36 | 50.03089 | 8.43875 | 319° | 2km/h | 25839m | -50.3m/s | -50.7°C | 0.4% | 23.9hPa | 2.5V | 02:50:24 | 02:18:49 | 00:00:00 | |
| DB0NH | 2026-08-30 19:00:36 | 50.03089 | 8.43875 | 319° | 7km/h | 25840m | -50.3m/s | -50.7°C | 3.8% | 23.8hPa | 2.6V | 00:00:00 | 02:18:49 | 00:00:00 | |
| CB1BUN | 2026-08-30 19:00:35 | 50.03089 | 8.43875 | 320° | 2km/h | 25840m | -50.3m/s | -50.7°C | 0.9% | 23.9hPa | 2.6V | 02:50:00 | 00:00:00 | 00:00:00 | |
| DJ2DS-15 | 2026-08-30 19:00:34 | 50.03087 | 8.43875 | 355° | 7km/h | 25937m | -47.5m/s | -50.6°C | 3.8% | 23.5hPa | 2.6V | 00:00:00 | 02:18:47 | 00:00:00 | |
| DM0DOS-11 | 2026-08-30 19:00:33 | 50.03088 | 8.43881 | 256° | 4km/h | 26209m | -46.3m/s | -50.5°C | 3.8% | 22.5hPa | 2.6V | 02:50:16 | 02:18:41 | 00:00:00 | |
| HSKMA3-T | 2026-08-30 19:00:33 | 50.03086 | 8.43875 | 351° | 2km/h | 25984m | -46.8m/s | -50.6°C | 0.5% | 23.3hPa | 2.6V | 02:50:24 | 02:18:46 | 00:00:00 | |
| BIOWL1-15 | 2026-08-30 19:00:32 | 50.03086 | 8.43876 | 293° | 2km/h | 26029m | -45.4m/s | -50.6°C | 0.5% | 23.1hPa | 2.5V | 02:50:24 | 02:18:45 | 00:00:00 | |
| DF8AY | 2026-08-30 19:00:29 | 50.03087 | 8.43880 | 203° | 4km/h | 26164m | -45m/s | 0°C | 0% | 0hPa | 2.6V | 18:12:15 | 02:18:42 | 00:00:00 | |
| DL1XH-15 | 2026-08-30 19:00:26 | 50.03078 | 8.43876 | 41° | 9km/h | 26542m | -44.8m/s | -49.9°C | 3.7% | 21.3hPa | 2.5V | 02:50:23 | 02:18:34 | 00:00:00 | |
| DL1XH-west | 2026-08-30 19:00:26 | 50.03087 | 8.43882 | 5° | 5km/h | 26304m | -49.5m/s | -50.3°C | 0.4% | 22.2hPa | 2.5V | 02:50:24 | 02:18:39 | 00:00:00 | |
| DJ2KF-10 | 2026-08-30 19:00:26 | 50.03087 | 8.43882 | 5° | 11km/h | 26304m | -49.5m/s | -50.2°C | 3.7% | 22.2hPa | 2.6V | 00:00:00 | 02:18:39 | 00:00:00 | |
| DD1CC8 | 2026-08-30 19:00:24 | 50.03084 | 8.43881 | 26° | 7km/h | 26402m | -49.4m/s | -50.1°C | 0.9% | 21.9hPa | 2.6V | 00:00:00 | 00:00:00 | 00:00:00 | |
| DM0DOS-11 | 2026-08-30 19:00:23 | 50.03075 | 8.43866 | 92° | 13km/h | 26675m | -44.6m/s | -49.6°C | 3.7% | 20.9hPa | 2.6V | 02:50:26 | 02:18:31 | 00:00:00 | |
| BIOWL1-15 | 2026-08-30 19:00:22 | 50.03080 | 8.43879 | 33° | 9km/h | 26496m | -46.3m/s | -49.9°C | 0.4% | 21.5hPa | 2.6V | 02:50:24 | 02:18:35 | 00:00:00 | |
| AA1-15 | 2026-08-30 19:00:18 | 50.03076 | 8.43866 | 93° | 13km/h | 26675m | -44.6m/s | -49.7°C | 0.3% | 20.9hPa | 2.6V | 02:51:15 | 02:18:31 | 00:00:00 | |
| DL8DAS-14 | 2026-08-30 19:00:18 | 50.03076 | 8.43861 | 107° | 11km/h | 26719m | -44.8m/s | -49.6°C | 0.9% | 20.7hPa | 2.6V | 00:00:00 | 00:00:00 | 00:00:00 | |
| DL1XH1-15 | 2026-08-30 19:00:17 | 50.03085 | 8.43849 | 176° | 9km/h | 26949m | -50m/s | -48.9°C | 3.5% | 20.1hPa | 2.6V | 02:50:32 | 02:18:25 | 00:00:00 | |
| DL1XH-west | 2026-08-30 19:00:16 | 50.03078 | 8.43855 | 129° | 13km/h | 26809m | -46.3m/s | -49.6°C | 0.4% | 20.5hPa | 2.5V | 02:51:15 | 02:18:28 | 00:00:00 | |
| DK5PH-5 | 2026-08-30 19:00:15 | 50.03080 | 8.43851 | 150° | 11km/h | 26856m | -46.0m/s | -49.3°C | 3.6% | 20.3hPa | 2.6V | 00:00:00 | 02:18:27 | 00:00:00 | |
| DJ2DS-15 | 2026-08-30 19:00:14 | 50.03080 | 8.43851 | 150° | 11km/h | 26856m | -46.0m/s | -49.3°C | 3.6% | 20.3hPa | 2.6V | 00:00:00 | 02:18:27 | 00:00:00 | |
| DM0DOS-11 | 2026-08-30 19:00:13 | 50.03095 | 8.43857 | 221° | 16km/h | 27167m | -57m/s | -48.4°C | 3.4% | 19.5hPa | 2.6V | 02:50:36 | 02:18:21 | 00:00:00 | |
| BIOWL1-15 | 2026-08-30 19:00:11 | 50.03087 | 8.43850 | 188° | 13km/h | 27000m | -53.3m/s | -48.8°C | 0.2% | 19.9hPa | 2.6V | 02:51:15 | 02:18:24 | 00:00:00 | |
| DL8DAS-15 | 2026-08-30 19:00:10 | 50.03087 | 8.43850 | 189° | 13km/h | 27000m | -53.3m/s | -48.8°C | 0.9% | 19.9hPa | 2.6V | 02:51:00 | 00:00:00 | 00:00:00 | |
| DL4BBY-15 | 2026-08-30 19:00:09 | 50.03093 | 8.43853 | 213° | 13km/h | 27112m | -57.0m/s | -50.2°C | 0% | 0hPa | 2.6V | 00:00:00 | 00:00:00 | 00:00:00 | |
| DL1ZP-14 | 2026-08-30 19:00:08 | 50.03098 | 8.43861 | 217° | 16km/h | 27224m | -57.1m/s | -48.3°C | 0.8% | 19.3hPa | 2.6V | 00:00:00 | 00:00:00 | 00:00:00 | |
| DL1XH1-15 | 2026-08-30 19:00:07 | 50.03110 | 8.43880 | 227° | 7km/h | 27510m | -57.9m/s | -48.9°C | 3.6% | 18.5hPa | 2.6V | 02:50:42 | 02:18:15 | 00:00:00 | |
| AA1-15 | 2026-08-30 19:00:07 | 50.03098 | 8.43861 | 217° | 18km/h | 27224m | -57.1m/s | -48.3°C | 0.1% | 19.3hPa | 2.6V | 02:51:15 | 02:18:20 | 00:00:00 | |
| DL1XH-15 | 2026-08-30 19:00:06 | 50.03111 | 8.43882 | 231° | 9km/h | 27567m | -57.9m/s | -49°C | 3.7% | 18.3hPa | 2.6V | 02:50:43 | 02:18:14 | 00:00:00 | |
| DL1XH-west | 2026-08-30 19:00:04 | 50.03106 | 8.43873 | 231° | 15km/h | 27395m | -58.2m/s | -48.7°C | 0.3% | 18.9hPa | 2.5V | 02:51:15 | 02:18:17 | 00:00:00 | |
| BIOWL1-15 | 2026-08-30 19:00:01 | 50.03111 | 8.43882 | 231° | 9km/h | 27567m | -57.9m/s | -49°C | 0.4% | 18.3hPa | 2.6V | 02:51:15 | 02:18:14 | 00:00:00 | |
| HSKMA3-T | 2026-08-30 19:00:00 | 50.03112 | 8.43885 | 232° | 11km/h | 27625m | -58m/s | -48.8°C | 0.3% | 18.2hPa | 2.5V | 02:51:15 | 02:18:13 | 00:00:00 | |
| DO8TBO-1 | 2026-08-30 19:00:00 | 50.03112 | 8.43885 | 232° | 31km/h | 27625m | -58.0m/s | -48.7°C | 3.6% | 18.1hPa | 2.5V | 00:00:00 | 02:18:13 | 00:00:00 | |
| NBG1-10 | 2026-08-30 18:59:59 | 50.03114 | 8.43888 | 217° | 13km/h | 27683m | -58.4m/s | -48.4°C | 3.5% | 18.0hPa | 2.5V | 02:50:00 | 02:18:12 | 00:00:00 | |
| DG1MJG | 2026-08-30 18:59:58 | 50.03114 | 8.43888 | 217° | 9km/h | 27683m | -58.4m/s | -48.5°C | 0% | 0hPa | 2.6V | 00:00:00 | 00:00:00 | 00:00:00 | |
| DL1XH1-15 | 2026-08-30 18:59:57 | 50.03128 | 8.43898 | 198° | 13km/h | 28080m | -55.9m/s | -47.8°C | 3.3% | 16.9hPa | 2.6V | 02:50:52 | 02:18:05 | 00:00:00 | |
| HEMX73-11 | 2026-08-30 18:59:57 | 50.03115 | 8.43890 | 206° | 9km/h | 27740m | -58.2m/s | -48.2°C | 0.8% | 17.9hPa | 2.6V | 02:51:00 | 00:00:00 | 00:00:00 | |
| DL1XH-15 | 2026-08-30 18:59:56 | 50.03130 | 8.43900 | 205° | 11km/h | 28135m | -54.3m/s | -47.6°C | 3.3% | 16.8hPa | 2.6V | 02:50:53 | 02:18:04 | 00:00:00 | |
| AA1-15 | 2026-08-30 18:59:56 | 50.03118 | 8.43892 | 205° | 9km/h | 27855m | -58.1m/s | -48.1°C | 0.2% | 17.5hPa | 2.6V | 02:51:15 | 02:18:09 | 00:00:00 | |
| DL1XH-west | 2026-08-30 18:59:54 | 50.03122 | 8.43895 | 206° | 11km/h | 27968m | -56.7m/s | -47.9°C | 0.1% | 17.2hPa | 2.5V | 02:51:15 | 02:18:07 | 00:00:00 | |
| HSKMA3-T | 2026-08-30 18:59:50 | 50.03132 | 8.43902 | 200° | 11km/h | 28188m | -53.2m/s | -47.6°C | 0.1% | 16.6hPa | 2.6V | 02:51:15 | 02:18:03 | 00:00:00 | |
| DF7PN | 2026-08-30 18:59:48 | 50.03137 | 8.43903 | 178° | 9km/h | 28292m | -52.0m/s | -47.4°C | 0.8% | 16.4hPa | 2.5V | 00:00:00 | 00:00:00 | 00:00:00 | |
| DL1XH1-15 | 2026-08-30 18:59:47 | 50.03154 | 8.43896 | 158° | 15km/h | 28580m | -45.1m/s | -47.2°C | 3.3% | 15.6hPa | 2.5V | 02:51:02 | 02:17:55 | 00:00:00 | |
| AA1-15 | 2026-08-30 18:59:45 | 50.03145 | 8.43902 | 153° | 13km/h | 28439m | -47.8m/s | -46.9°C | 0% | 15.9hPa | 2.6V | 02:51:15 | 02:17:58 | 00:00:00 | |
| DL1XH-15 | 2026-08-30 18:59:44 | 50.03166 | 8.43891 | 175° | 16km/h | 28710m | -45.9m/s | -47.4°C | 3.4% | 15.3hPa | 2.6V | 02:51:05 | 02:17:52 | 00:00:00 | |
| DL1XH-west | 2026-08-30 18:59:44 | 50.03147 | 8.43900 | 151° | 9km/h | 28487m | -47.5m/s | -47°C | 0.1% | 15.8hPa | 2.6V | 02:51:15 | 02:17:57 | 00:00:00 | |
| DF8AY | 2026-08-30 18:59:43 | 50.03150 | 8.43897 | 162° | 16km/h | 28534m | -47.5m/s | 0°C | 0% | 0hPa | 2.5V | 18:12:15 | 02:17:56 | 00:00:00 | |
| BIOWL1-15 | 2026-08-30 18:59:40 | 50.03161 | 8.43892 | 167° | 18km/h | 28665m | -42.9m/s | -47.5°C | 0.3% | 15.4hPa | 2.5V | 02:51:15 | 02:17:53 | 00:00:00 | |
| HSKMA3-T | 2026-08-30 18:59:39 | 50.03166 | 8.43891 | 176° | 16km/h | 28710m | -45.9m/s | -47.4°C | 0.2% | 15.3hPa | 2.6V | 02:51:15 | 02:17:52 | 00:00:00 | |
| DC4HF-4 | 2026-08-30 18:59:39 | 50.03170 | 8.43891 | 187° | 18km/h | 28756m | -47.1m/s | -47.4°C | 0.8% | 15.2hPa | 2.6V | 00:00:00 | 00:00:00 | 00:00:00 | |
| DB0ND-19 | 2026-08-30 18:59:38 | 50.03170 | 8.43891 | 187° | 18km/h | 28756m | -47.1m/s | -47.4°C | 0.8% | 15.2hPa | 2.6V | 00:00:00 | 00:00:00 | 00:00:00 | |
| DL1XH1-15 | 2026-08-30 18:59:37 | 50.03192 | 8.43914 | 234° | 16km/h | 29061m | -58m/s | -46.3°C | 3.2% | 14.6hPa | 2.6V | 02:51:12 | 02:17:45 | 00:00:00 | |
| AA1-15 | 2026-08-30 18:59:34 | 50.03187 | 8.43903 | 224° | 18km/h | 28951m | -54.3m/s | -47°C | 0.2% | 14.8hPa | 2.5V | 02:51:15 | 02:17:47 | 00:00:00 | |
| DJ2DS-15 | 2026-08-30 18:59:34 | 50.03187 | 8.43903 | 224° | 13km/h | 28951m | -54.3m/s | -46.9°C | 3.4% | 14.8hPa | 2.5V | 00:00:00 | 02:17:47 | 00:00:00 | |
| DM0DOS-11 | 2026-08-30 18:59:33 | 50.03199 | 8.43937 | 246° | 15km/h | 29293m | -57.9m/s | -44.8°C | 2.8% | 14hPa | 2.5V | 02:51:16 | 02:17:41 | 00:00:00 | |
| DL1XH-west | 2026-08-30 18:59:33 | 50.03189 | 8.43909 | 236° | 18km/h | 29004m | -55.6m/s | -46.7°C | 0.1% | 14.7hPa | 2.6V | 02:51:15 | 02:17:46 | 00:00:00 | |
| HSKMA3-T | 2026-08-30 18:59:29 | 50.03198 | 8.43932 | 246° | 15km/h | 29235m | -58.4m/s | -45°C | 0% | 14.2hPa | 2.5V | 02:51:15 | 02:17:42 | 00:00:00 | |
| AA1-15 | 2026-08-30 18:59:23 | 50.03206 | 8.43962 | 232° | 13km/h | 29575m | -58.1m/s | -45.1°C | 0% | 13.5hPa | 2.5V | 02:52:57 | 02:17:36 | 00:00:00 | |
| DM0DOS-11 | 2026-08-30 18:59:23 | 50.03216 | 8.43975 | 238° | 5km/h | 29866m | -60m/s | -45°C | 3% | 12.9hPa | 2.5V | 02:51:26 | 02:17:31 | 00:00:00 | |
| DL1XH-west | 2026-08-30 18:59:22 | 50.03208 | 8.43965 | 203° | 13km/h | 29633m | -58.5m/s | -45.2°C | 0% | 13.4hPa | 2.6V | 02:52:06 | 02:17:35 | 00:00:00 | |
| DO3MHA-11 | 2026-08-30 18:59:22 | 50.03208 | 8.43965 | 204° | 9km/h | 29633m | -58.5m/s | -45.1°C | 3.0% | 13.3hPa | 2.5V | 00:00:00 | 02:17:35 | 00:00:00 | |
| SFWM-10 | 2026-08-30 18:59:21 | 50.03208 | 8.43965 | 204° | 13km/h | 29633m | -58.5m/s | -45.2°C | 0.7% | 13.4hPa | 2.5V | 00:00:00 | 00:00:00 | 00:00:00 | |
| DM7RM-13 | 2026-08-30 18:59:20 | 50.03210 | 8.43968 | 223° | 11km/h | 29691m | -58.3m/s | -45.2°C | 0.7% | 13.3hPa | 2.5V | 02:52:00 | 00:00:00 | 00:00:00 | |
| DJ2DS-15 | 2026-08-30 18:59:19 | 50.03214 | 8.43973 | 211° | 9km/h | 29807m | -59.5m/s | -45.1°C | 0.7% | 13.0hPa | 2.5V | 00:00:00 | 00:00:00 | 00:00:00 | |
| DL1XH-15 | 2026-08-30 18:59:18 | 50.03214 | 8.43988 | 320° | 9km/h | 30162m | -59.9m/s | -44.8°C | 3% | 12.3hPa | 2.5V | 02:51:31 | 02:17:26 | 00:00:00 | |
| BIOWL1-15 | 2026-08-30 18:59:18 | 50.03216 | 8.43975 | 238° | 5km/h | 29866m | -60.1m/s | -45°C | 0% | 12.9hPa | 2.5V | 02:52:06 | 02:17:31 | 00:00:00 | |
| DF7PN | 2026-08-30 18:59:17 | 50.03218 | 8.43981 | 245° | 7km/h | 29985m | -60.8m/s | -44.7°C | 0.7% | 12.7hPa | 2.6V | 00:00:00 | 00:00:00 | 00:00:00 | |
| DL8DAS-15 | 2026-08-30 18:59:15 | 50.03218 | 8.43981 | 247° | 7km/h | 29985m | -60.8m/s | -44.7°C | 0.7% | 12.7hPa | 2.6V | 00:00:00 | 00:00:00 | 00:00:00 | |
| DK5PH-5 | 2026-08-30 18:59:14 | 50.03216 | 8.43985 | 313° | 5km/h | 30104m | -58.8m/s | -44.7°C | 3.0% | 12.4hPa | 2.6V | 00:00:00 | 02:17:27 | 00:00:00 | |
| DM0DOS-11 | 2026-08-30 18:59:13 | 50.03209 | 8.43984 | 71° | 9km/h | 30458m | -59.6m/s | -44.8°C | 3.1% | 11.7hPa | 2.6V | 02:51:36 | 02:17:21 | 00:00:00 | |
| AA1-15 | 2026-08-30 18:59:12 | 50.03213 | 8.43989 | 336° | 2km/h | 30222m | -60m/s | -44.9°C | 0% | 12.2hPa | 2.5V | 02:52:57 | 02:17:25 | 00:00:00 | |
| DL1XH-west | 2026-08-30 18:59:11 | 50.03212 | 8.43989 | 24° | 7km/h | 30281m | -59.3m/s | -44.9°C | 0% | 12.1hPa | 2.5V | 02:52:06 | 02:17:24 | 00:00:00 | |
| DL4BBY-15 | 2026-08-30 18:59:09 | 50.03209 | 8.43986 | 70° | 5km/h | 30400m | -59.8m/s | -46.5°C | 0% | 0hPa | 2.6V | 00:00:00 | 00:00:00 | 00:00:00 | |
| DL1XH-15 | 2026-08-30 18:59:08 | 50.03207 | 8.43972 | 78° | 2km/h | 30756m | -59.8m/s | -43.9°C | 3% | 11.2hPa | 2.6V | 02:51:41 | 02:17:16 | 00:00:00 | |
| HSKMA3-T | 2026-08-30 18:59:08 | 50.03208 | 8.43984 | 72° | 9km/h | 30458m | -59.6m/s | -44.8°C | 0% | 11.7hPa | 2.6V | 02:52:06 | 02:17:21 | 00:00:00 | |
| BIOWL1-15 | 2026-08-30 18:59:07 | 50.03208 | 8.43981 | 84° | 5km/h | 30517m | -61m/s | -44.6°C | 0% | 11.7hPa | 2.6V | 02:52:06 | 02:17:20 | 00:00:00 | |
| DB0NH | 2026-08-30 18:59:06 | 50.03208 | 8.43979 | 106° | 5km/h | 30578m | -59.8m/s | -44.4°C | 3.1% | 11.5hPa | 2.5V | 00:00:00 | 02:17:19 | 00:00:00 | |
| DO3DL | 2026-08-30 18:59:05 | 50.03208 | 8.43979 | 106° | 5km/h | 30578m | -59.8m/s | -44.4°C | 0.7% | 11.6hPa | 2.5V | 02:52:00 | 00:00:00 | 00:00:00 | |
| HTAHTA | 2026-08-30 18:59:04 | 50.03207 | 8.43974 | 75° | 5km/h | 30697m | -60.9m/s | -44.1°C | 0.7% | 11.3hPa | 2.5V | 00:00:00 | 00:00:00 | 00:00:00 | |
| DM0DOS-11 | 2026-08-30 18:59:03 | 50.03203 | 8.43968 | 43° | 4km/h | 31062m | -63.7m/s | -43.3°C | 3% | 10.8hPa | 2.5V | 02:51:46 | 02:17:11 | 00:00:00 | |
| DL1XH-west | 2026-08-30 18:59:01 | 50.03206 | 8.43970 | 356° | 2km/h | 30878m | -62.2m/s | -43.6°C | 0% | 11.1hPa | 2.6V | 02:52:06 | 02:17:14 | 00:00:00 | |
| DO1YAY-16 | 2026-08-30 18:59:00 | 50.03204 | 8.43969 | 20° | 4km/h | 31001m | -61.6m/s | -43.3°C | 0.6% | 10.8hPa | 2.5V | 00:00:00 | 00:00:00 | 00:00:00 | |
| DO3DL | 2026-08-30 18:58:59 | 50.03205 | 8.43969 | 49° | 4km/h | 30940m | -62.1m/s | -43.5°C | 0.7% | 10.9hPa | 2.5V | 02:52:00 | 00:00:00 | 00:00:00 | |
| DL1XH-15 | 2026-08-30 18:58:58 | 50.03197 | 8.43964 | 18° | 5km/h | 31382m | -63.1m/s | -41.8°C | 2.8% | 10.2hPa | 2.5V | 02:51:51 | 02:17:06 | 00:00:00 | |
| BIOWL1-15 | 2026-08-30 18:58:58 | 50.03201 | 8.43967 | 58° | 2km/h | 31190m | -65m/s | -42.7°C | 0% | 10.6hPa | 2.6V | 02:52:06 | 02:17:09 | 00:00:00 | |
| HSKMA3-T | 2026-08-30 18:58:57 | 50.03202 | 8.43967 | 6° | 5km/h | 31126m | -64.8m/s | -43.1°C | 0% | 10.7hPa | 2.6V | 02:52:06 | 02:17:10 | 00:00:00 | |
| DJ2KF-10 | 2026-08-30 18:58:56 | 50.03201 | 8.43967 | 58° | 5km/h | 31191m | -65.0m/s | -42.6°C | 2.9% | 10.5hPa | 2.5V | 00:00:00 | 02:17:09 | 00:00:00 | |
| DB0UT-9 | 2026-08-30 18:58:55 | 50.03201 | 8.43967 | 59° | 2km/h | 31191m | -65.0m/s | -42.7°C | 0.7% | 10.6hPa | 2.5V | 02:52:00 | 00:00:00 | 00:00:00 | |
| DJ2DS-15 | 2026-08-30 18:58:54 | 50.03198 | 8.43964 | 33° | 4km/h | 31319m | -64.3m/s | -42.1°C | 2.8% | 10.3hPa | 2.5V | 02:51:00 | 02:17:07 | 00:00:00 | |
| DM0DOS-11 | 2026-08-30 18:58:53 | 50.03193 | 8.43968 | 282° | 4km/h | 31690m | -63m/s | -40.8°C | 2.6% | 9.7hPa | 2.5V | 02:51:56 | 02:17:01 | 00:00:00 | |
| DL1XH-west | 2026-08-30 18:58:51 | 50.03195 | 8.43964 | 351° | 5km/h | 31504m | -61.7m/s | -41.3°C | 0% | 10hPa | 2.6V | 02:52:06 | 02:17:04 | 00:00:00 | |
| DF1GD-15 | 2026-08-30 18:58:51 | 50.03194 | 8.43964 | 352° | 5km/h | 31505m | -61.7m/s | -41.3°C | 0.6% | 10.0hPa | 2.5V | 02:52:00 | 00:00:00 | 00:00:00 | |
| BIOWL7-15 | 2026-08-30 18:58:50 | 50.03194 | 8.43964 | 352° | 5km/h | 31505m | -61.7m/s | -41.3°C | 0.6% | 10.0hPa | 2.5V | 02:52:00 | 00:00:00 | 00:00:00 | |
| DL8DAS-15 | 2026-08-30 18:58:48 | 50.03193 | 8.43966 | 304° | 7km/h | 31628m | -63.8m/s | -40.8°C | 0.6% | 9.8hPa | 2.5V | 00:00:00 | 00:00:00 | 00:00:00 | |
| DL1XH1-15 | 2026-08-30 18:58:47 | 50.03188 | 8.43979 | 346° | 4km/h | 32085m | -65m/s | -39.4°C | 2.5% | 9.2hPa | 2.5V | 02:52:02 | 02:16:55 | 00:00:00 | |
| HSKMA3-T | 2026-08-30 18:58:47 | 50.03192 | 8.43970 | 299° | 7km/h | 31754m | -65.1m/s | -40.7°C | 0% | 9.7hPa | 2.5V | 02:52:06 | 02:17:00 | 00:00:00 | |
| BIOWL1-15 | 2026-08-30 18:58:46 | 50.03191 | 8.43972 | 291° | 4km/h | 31819m | -66.3m/s | -40.6°C | 0% | 9.6hPa | 2.6V | 02:52:06 | 02:16:59 | 00:00:00 | |
| DL8DAS-14 | 2026-08-30 18:58:45 | 50.03188 | 8.43975 | 280° | 4km/h | 31952m | -68.3m/s | -39.9°C | 0.5% | 9.4hPa | 2.6V | 00:00:00 | 00:00:00 | 00:00:00 | |
| DB0UT-7 | 2026-08-30 18:58:44 | 50.03188 | 8.43975 | 281° | 7km/h | 31952m | -68.3m/s | -39.8°C | 2.5% | 9.4hPa | 2.6V | 00:00:00 | 00:00:00 | 00:00:00 | |
| DM0DOS-11 | 2026-08-30 18:58:43 | 50.03186 | 8.43980 | 227° | 4km/h | 32351m | -65.8m/s | -38.1°C | 2.2% | 8.8hPa | 2.6V | 02:52:06 | 02:16:51 | 00:00:00 | |
| DL1XH-west | 2026-08-30 18:58:41 | 50.03187 | 8.43978 | 82° | 2km/h | 32150m | -67.5m/s | -39°C | 0% | 9.1hPa | 2.5V | 02:52:06 | 02:16:54 | 00:00:00 | |
| DM7RM-13 | 2026-08-30 18:58:40 | 50.03187 | 8.43978 | 0° | 0km/h | 32151m | -67.5m/s | -39.0°C | 0.5% | 9.1hPa | 2.6V | 02:52:00 | 00:00:00 | 00:00:00 | |
| DL4BBY-15 | 2026-08-30 18:58:39 | 50.03186 | 8.43979 | 234° | 9km/h | 32285m | -67.7m/s | -40.0°C | 0% | 0hPa | 2.6V | 00:00:00 | 00:00:00 | 00:00:00 | |
| DL1CLM-18 | 2026-08-30 18:58:38 | 50.03186 | 8.43979 | 234° | 2km/h | 32285m | -67.8m/s | -38.3°C | 0.5% | 8.9hPa | 2.6V | 00:00:00 | 00:00:00 | 00:00:00 | |
| DL1XH1-15 | 2026-08-30 18:58:37 | 50.03181 | 8.43986 | 352° | 9km/h | 32737m | -67.1m/s | -37.3°C | 2.2% | 8.3hPa | 2.6V | 02:52:12 | 02:16:45 | 00:00:00 | |
| HSKMA3-T | 2026-08-30 18:58:37 | 50.03187 | 8.43981 | 237° | 2km/h | 32416m | -64.6m/s | -38°C | 0% | 8.8hPa | 2.6V | 02:52:57 | 02:16:50 | 00:00:00 | |
| BIOWL1-15 | 2026-08-30 18:58:36 | 50.03187 | 8.43981 | 309° | 2km/h | 32480m | -64.3m/s | -37.8°C | 0% | 8.7hPa | 2.5V | 02:52:57 | 02:16:49 | 00:00:00 | |
| EDDB2-11 | 2026-08-30 18:58:35 | 50.03185 | 8.43983 | 317° | 4km/h | 32607m | -65.2m/s | -37.8°C | 0.5% | 8.4hPa | 2.5V | 00:00:00 | 00:00:00 | 00:00:00 | |
| DJ2DS-15 | 2026-08-30 18:58:34 | 50.03185 | 8.43983 | 318° | 9km/h | 32607m | -65.1m/s | -37.8°C | 2.3% | 8.4hPa | 2.5V | 00:00:00 | 02:16:47 | 00:00:00 | |
| DM0DOS-11 | 2026-08-30 18:58:33 | 50.03172 | 8.43985 | 26° | 9km/h | 33004m | -69.3m/s | -36.5°C | 2.1% | 8hPa | 2.5V | 02:52:16 | 02:16:41 | 00:00:00 | |
| DL1XH-west | 2026-08-30 18:58:30 | 50.03176 | 8.43987 | 21° | 9km/h | 32870m | -66.7m/s | -37°C | 0% | 8.2hPa | 2.5V | 02:52:57 | 02:16:43 | 00:00:00 | |
| DO1YAY-16 | 2026-08-30 18:58:29 | 50.03172 | 8.43985 | 26° | 7km/h | 33004m | -69.3m/s | -36.5°C | 0.4% | 8.0hPa | 2.6V | 00:00:00 | 00:00:00 | 00:00:00 | |
| DL1XH1-15 | 2026-08-30 18:58:27 | 50.03165 | 8.43965 | 91° | 7km/h | 33412m | -66.6m/s | -35.7°C | 2% | 7.5hPa | 2.6V | 02:52:22 | 02:16:35 | 00:00:00 | |
| HSKMA3-T | 2026-08-30 18:58:26 | 50.03168 | 8.43980 | 42° | 9km/h | 33142m | -68.2m/s | -36.1°C | 0% | 7.8hPa | 2.6V | 02:52:57 | 02:16:39 | 00:00:00 | |
| BIOWL1-15 | 2026-08-30 18:58:25 | 50.03167 | 8.43977 | 72° | 11km/h | 33210m | -69.5m/s | -36°C | 0% | 7.8hPa | 2.5V | 02:52:57 | 02:16:38 | 00:00:00 | |
| DM0DOS-11 | 2026-08-30 18:58:23 | 50.03168 | 8.43955 | 132° | 11km/h | 33682m | -67.5m/s | -35°C | 2% | 7.2hPa | 2.5V | 02:52:26 | 02:16:31 | 00:00:00 | |
| DL1XH-west | 2026-08-30 18:58:20 | 50.03165 | 8.43960 | 115° | 7km/h | 33547m | -67.4m/s | -35.5°C | 0% | 7.3hPa | 2.6V | 02:52:57 | 02:16:33 | 00:00:00 | |
| NBG1-10 | 2026-08-30 18:58:20 | 50.03165 | 8.43960 | 115° | 18km/h | 33548m | -67.3m/s | -35.4°C | 2.0% | 7.3hPa | 2.6V | 02:52:00 | 02:16:33 | 00:00:00 | |
| KANTATE | 2026-08-30 18:58:19 | 50.03165 | 8.43960 | 116° | 7km/h | 33548m | -67.4m/s | -35.5°C | 0.4% | 7.3hPa | 2.5V | 02:52:00 | 00:00:00 | 00:00:00 | |
| DL1XH1-15 | 2026-08-30 18:58:17 | 50.03167 | 8.43931 | 66° | 11km/h | 34096m | -73.2m/s | -33.8°C | 1.8% | 6.8hPa | 2.5V | 02:52:32 | 02:16:25 | 00:00:00 | |
| BIOWL1-15 | 2026-08-30 18:58:17 | 50.03171 | 8.43944 | 82° | 13km/h | 33884m | -69.1m/s | -34.1°C | 0% | 7hPa | 2.6V | 02:52:57 | 02:16:28 | 00:00:00 | |
| HSKMA3-T | 2026-08-30 18:58:16 | 50.03171 | 8.43949 | 105° | 11km/h | 33816m | -68.2m/s | -34.3°C | 0% | 7hPa | 2.6V | 02:52:57 | 02:16:29 | 00:00:00 | |
| DF7PN | 2026-08-30 18:58:15 | 50.03170 | 8.43940 | 80° | 11km/h | 33954m | -71.5m/s | -34.1°C | 0.4% | 6.9hPa | 2.6V | 00:00:00 | 00:00:00 | 00:00:00 | |
| DL8DAS-14 | 2026-08-30 18:58:14 | 50.03168 | 8.43935 | 58° | 15km/h | 34025m | -70.8m/s | -33.9°C | 0.3% | 6.9hPa | 2.6V | 00:00:00 | 00:00:00 | 00:00:00 | |
| DM0DOS-11 | 2026-08-30 18:58:13 | 50.03169 | 8.43917 | 145° | 11km/h | 34394m | -72.8m/s | -33.4°C | 1.8% | 6.5hPa | 2.6V | 02:52:36 | 02:16:21 | 00:00:00 | |
| DL1XH-west | 2026-08-30 18:58:10 | 50.03166 | 8.43924 | 108° | 11km/h | 34245m | -76.1m/s | -33.7°C | 0% | 6.7hPa | 2.5V | 02:52:57 | 02:16:23 | 00:00:00 | |
| DL4BBY-15 | 2026-08-30 18:58:09 | 50.03167 | 8.43920 | 126° | 27km/h | 34321m | -74.3m/s | -35.2°C | 0% | 0hPa | 2.6V | 00:00:00 | 00:00:00 | 00:00:00 | |
| DL1XH1-15 | 2026-08-30 18:58:07 | 50.03170 | 8.43911 | 8° | 9km/h | 34823m | -72.8m/s | -34°C | 2% | 6.1hPa | 2.6V | 02:52:42 | 02:16:15 | 00:00:00 | |
| BIOWL1-15 | 2026-08-30 18:58:05 | 50.03174 | 8.43912 | 94° | 2km/h | 34609m | -71.3m/s | -33.9°C | 0% | 6.3hPa | 2.5V | 02:52:57 | 02:16:18 | 00:00:00 | |
| DL8DAS-15 | 2026-08-30 18:58:04 | 50.03174 | 8.43912 | 95° | 2km/h | 34609m | -71.3m/s | -33.9°C | 0.4% | 6.3hPa | 2.5V | 00:00:00 | 00:00:00 | 00:00:00 | |
| DM0DOS-11 | 2026-08-30 18:58:03 | 50.03157 | 8.43898 | 64° | 22km/h | 35113m | -73.5m/s | -33.2°C | 1.9% | 5.8hPa | 2.5V | 02:52:46 | 02:16:11 | 00:00:00 | |
| DL1XH-west | 2026-08-30 18:57:59 | 50.03160 | 8.43904 | 49° | 18km/h | 35040m | -72.9m/s | -33.7°C | 0% | 5.9hPa | 2.5V | 02:52:57 | 02:16:12 | 00:00:00 | |
| SONCRA | 2026-08-30 18:57:58 | 50.03158 | 8.43898 | 64° | 20km/h | 35113m | -73.5m/s | -33.2°C | 0.4% | 5.8hPa | 2.6V | 00:00:00 | 00:00:00 | 00:00:00 | |
| DL1XH1-15 | 2026-08-30 18:57:57 | 50.03148 | 8.43827 | 82° | 38km/h | 35560m | -72.8m/s | -29.2°C | 1.4% | 5.5hPa | 2.6V | 02:52:52 | 02:16:05 | 00:00:00 | |
| DJ2KF-10 | 2026-08-30 18:57:56 | 50.03153 | 8.43880 | 80° | 42km/h | 35262m | -74.3m/s | -31.8°C | 1.8% | 5.7hPa | 2.6V | 02:52:00 | 02:16:09 | 00:00:00 | |
| IW2NTF | 2026-08-30 18:57:55 | 50.03146 | 8.43799 | 87° | 38km/h | 35701m | -67.4m/s | -29°C | 0% | 5.3hPa | 2.6V | 02:52:54 | 02:16:03 | 00:00:00 | |
| BIOWL1-15 | 2026-08-30 18:57:55 | 50.03152 | 8.43869 | 80° | 33km/h | 35336m | -74.5m/s | -31°C | 0% | 5.6hPa | 2.5V | 02:52:57 | 02:16:08 | 00:00:00 | |
| HSKMA3-T | 2026-08-30 18:57:54 | 50.03151 | 8.43856 | 80° | 35km/h | 35411m | -75.3m/s | -30.1°C | 0% | 5.6hPa | 2.5V | 02:52:57 | 02:16:07 | 00:00:00 | |
| AA1-15 | 2026-08-30 18:57:52 | 50.03148 | 8.43827 | 82° | 38km/h | 35560m | -72.8m/s | -29.2°C | 0% | 5.5hPa | 2.6V | 02:52:57 | 02:16:05 | 00:00:00 | |
| DL1XH-west | 2026-08-30 18:57:49 | 50.03146 | 8.43784 | 95° | 37km/h | 35767m | -65.5m/s | -28.8°C | 0% | 5.3hPa | 2.5V | 02:52:57 | 02:16:02 | 00:00:00 | |
| DD1CC8 | 2026-08-30 18:57:49 | 50.03147 | 8.43769 | 103° | 38km/h | 35830m | -60.6m/s | -28.9°C | 0.2% | 5.2hPa | 2.5V | 00:00:00 | 00:00:00 | 00:00:00 | |
| BIOWL1-15 | 2026-08-30 18:57:44 | 50.03163 | 8.43703 | 116° | 49km/h | 36036m | -42.4m/s | -29°C | 0% | 5hPa | 2.5V | 02:53:48 | 02:15:57 | 00:00:00 | |
| AA1-15 | 2026-08-30 18:57:41 | 50.03178 | 8.43651 | 104° | 44km/h | 36143m | -34.3m/s | -28.9°C | 0% | 4.9hPa | 2.6V | 02:53:48 | 02:15:54 | 00:00:00 | |
| DL1XH-west | 2026-08-30 18:57:38 | 50.03168 | 8.43610 | 39° | 44km/h | 36243m | -29.8m/s | -28.8°C | 0% | 4.8hPa | 2.5V | 02:53:48 | 02:15:51 | 00:00:00 | |
| DL1XH1-15 | 2026-08-30 18:57:37 | 50.03101 | 8.43558 | 83° | 33km/h | 36458m | -45.1m/s | -28.1°C | 1.3% | 4.6hPa | 2.5V | 02:53:12 | 02:15:45 | 00:00:00 | |
| BIOWL1-15 | 2026-08-30 18:57:35 | 50.03106 | 8.43569 | 31° | 44km/h | 36414m | -41.4m/s | -28.4°C | 0% | 4.7hPa | 2.5V | 02:53:48 | 02:15:46 | 00:00:00 | |
| HSKMA3-T | 2026-08-30 18:57:34 | 50.03117 | 8.43577 | 21° | 53km/h | 36373m | -41.2m/s | -28.6°C | 0% | 4.7hPa | 2.5V | 02:53:48 | 02:15:47 | 00:00:00 | |
| AA1-15 | 2026-08-30 18:57:30 | 50.03101 | 8.43532 | 97° | 35km/h | 36535m | -31.1m/s | -28.2°C | 0% | 4.6hPa | 2.6V | 02:53:48 | 02:15:43 | 00:00:00 | |
| DL1XH-west | 2026-08-30 18:57:27 | 50.03105 | 8.43490 | 102° | 37km/h | 36589m | -5m/s | -28.2°C | 0% | 4.5hPa | 2.6V | 02:53:48 | 02:15:40 | 00:00:00 | |
| DL1XH1-15 | 2026-08-30 18:57:27 | 50.03116 | 8.43418 | 101° | 40km/h | 36577m | 2.9m/s | -28.2°C | 1.3% | 4.5hPa | 2.7V | 02:53:22 | 02:15:35 | 00:00:00 | |
| HSKMA3-T | 2026-08-30 18:57:24 | 50.03111 | 8.43448 | 103° | 38km/h | 36582m | 2.8m/s | -28.2°C | 0% | 4.5hPa | 2.5V | 02:53:48 | 02:15:37 | 00:00:00 | |
| DM0DOS-11 | 2026-08-30 18:57:23 | 50.03122 | 8.43355 | 94° | 40km/h | 36566m | 2.8m/s | -28.3°C | 1.3% | 4.5hPa | 2.5V | 02:53:26 | 02:15:31 | 00:00:00 | |
| BIOWL1-15 | 2026-08-30 18:57:23 | 50.03114 | 8.43433 | 103° | 38km/h | 36579m | 2.8m/s | -28.2°C | 0% | 4.5hPa | 2.6V | 02:53:48 | 02:15:36 | 00:00:00 | |
| AA1-15 | 2026-08-30 18:57:19 | 50.03121 | 8.43371 | 96° | 40km/h | 36568m | 2.8m/s | -28.3°C | 0% | 4.5hPa | 2.5V | 02:53:48 | 02:15:32 | 00:00:00 | |
| IW2NTF | 2026-08-30 18:57:18 | 50.03123 | 8.43279 | 90° | 37km/h | 36552m | 2.8m/s | -28.4°C | 0% | 4.6hPa | 2.5V | 02:53:31 | 02:15:26 | 00:00:00 | |
| DL1XH-west | 2026-08-30 18:57:16 | 50.03123 | 8.43324 | 91° | 40km/h | 36560m | 2.6m/s | -28.4°C | 0% | 4.5hPa | 2.6V | 02:53:48 | 02:15:29 | 00:00:00 | |
| DO3DL | 2026-08-30 18:57:15 | 50.03122 | 8.43323 | 92° | 40km/h | 36560m | 2.6m/s | -28.4°C | 0.2% | 4.6hPa | 2.6V | 02:53:00 | 00:00:00 | 00:00:00 | |
| DJ2DS-15 | 2026-08-30 18:57:14 | 50.03123 | 8.43293 | 91° | 38km/h | 36555m | 2.7m/s | -28.4°C | 1.3% | 4.5hPa | 2.6V | 00:00:00 | 02:15:27 | 00:00:00 | |
| DM0DOS-11 | 2026-08-30 18:57:13 | 50.03126 | 8.43209 | 96° | 37km/h | 36538m | 2.7m/s | -28.5°C | 1.3% | 4.6hPa | 2.6V | 02:53:36 | 02:15:21 | 00:00:00 | |
| HSKMA3-T | 2026-08-30 18:57:13 | 50.03123 | 8.43279 | 91° | 37km/h | 36552m | 2.8m/s | -28.4°C | 0% | 4.6hPa | 2.5V | 02:53:48 | 02:15:26 | 00:00:00 | |
| BIOWL1-15 | 2026-08-30 18:57:12 | 50.03123 | 8.43265 | 93° | 37km/h | 36549m | 2.8m/s | -28.4°C | 0% | 4.6hPa | 2.5V | 02:53:48 | 02:15:25 | 00:00:00 | |
| AA1-15 | 2026-08-30 18:57:08 | 50.03126 | 8.43209 | 96° | 37km/h | 36538m | 2.7m/s | -28.5°C | 0% | 4.6hPa | 2.6V | 02:53:48 | 02:15:21 | 00:00:00 | |
| DL1XH1-15 | 2026-08-30 18:57:07 | 50.03126 | 8.43124 | 81° | 38km/h | 36521m | 3m/s | -28.5°C | 1.3% | 4.6hPa | 2.6V | 02:53:42 | 02:15:15 | 00:00:00 | |
| DL1XH-west | 2026-08-30 18:57:06 | 50.03128 | 8.43181 | 93° | 37km/h | 36532m | 2.7m/s | -28.5°C | 0% | 4.6hPa | 2.5V | 02:53:48 | 02:15:19 | 00:00:00 | |
| SFWM-10 | 2026-08-30 18:57:05 | 50.03128 | 8.43181 | 94° | 37km/h | 36533m | 2.7m/s | -28.5°C | 0.2% | 4.6hPa | 2.5V | 00:00:00 | 00:00:00 | 00:00:00 | |
| BIOWL9-15 | 2026-08-30 18:57:04 | 50.03128 | 8.43153 | 87° | 37km/h | 36527m | 2.9m/s | -28.5°C | 0.2% | 4.6hPa | 2.5V | 00:00:00 | 00:00:00 | 00:00:00 | |
| DM0DOS-11 | 2026-08-30 18:57:03 | 50.03119 | 8.43064 | 81° | 40km/h | 36509m | 2.8m/s | -28.6°C | 1.3% | 4.6hPa | 2.5V | 02:53:46 | 02:15:11 | 00:00:00 | |
| HSKMA3-T | 2026-08-30 18:57:02 | 50.03126 | 8.43124 | 82° | 38km/h | 36521m | 3m/s | -28.5°C | 0% | 4.6hPa | 2.6V | 02:53:48 | 02:15:15 | 00:00:00 | |
| BIOWL1-15 | 2026-08-30 18:57:01 | 50.03124 | 8.43109 | 80° | 38km/h | 36518m | 3m/s | -28.5°C | 0% | 4.6hPa | 2.6V | 02:53:48 | 02:15:14 | 00:00:00 | |
| AA1-15 | 2026-08-30 18:56:57 | 50.03118 | 8.43049 | 83° | 40km/h | 36506m | 2.7m/s | -28.7°C | 0% | 4.6hPa | 2.6V | 02:53:48 | 02:15:10 | 00:00:00 | |
| DL1XH1-15 | 2026-08-30 18:56:57 | 50.03115 | 8.42971 | 88° | 38km/h | 36492m | 3m/s | -28.9°C | 1.3% | 4.6hPa | 2.5V | 02:53:52 | 02:15:05 | 00:00:00 | |
| DL1XH-west | 2026-08-30 18:56:56 | 50.03116 | 8.43033 | 85° | 40km/h | 36503m | 2.7m/s | -28.7°C | 0% | 4.6hPa | 2.7V | 02:53:48 | 02:15:09 | 00:00:00 | |
| SONCRA | 2026-08-30 18:56:56 | 50.03116 | 8.43017 | 86° | 40km/h | 36501m | 2.7m/s | -28.7°C | 0.3% | 4.6hPa | 2.6V | 00:00:00 | 00:00:00 | 00:00:00 | |
| DJ2DS-15 | 2026-08-30 18:56:55 | 50.03115 | 8.43002 | 88° | 38km/h | 36498m | 2.7m/s | -28.8°C | 0.3% | 4.6hPa | 2.6V | 00:00:00 | 00:00:00 | 00:00:00 | |
| DJ2DS-15 | 2026-08-30 18:56:54 | 50.03115 | 8.43001 | 89° | 35km/h | 36498m | 2.7m/s | -28.7°C | 1.3% | 4.6hPa | 2.6V | 02:53:00 | 02:15:07 | 00:00:00 | |
| DM0DOS-11 | 2026-08-30 18:56:53 | 50.03110 | 8.42914 | 75° | 35km/h | 36480m | 3m/s | -29.2°C | 1.4% | 4.6hPa | 2.6V | 02:53:56 | 02:15:01 | 00:00:00 | |
| HSKMA3-T | 2026-08-30 18:56:51 | 50.03114 | 8.42956 | 87° | 38km/h | 36489m | 2.9m/s | -29°C | 0% | 4.6hPa | 2.6V | 02:54:39 | 02:15:04 | 00:00:00 | |
| DO3MHA-11 | 2026-08-30 18:56:51 | 50.03114 | 8.42956 | 87° | 35km/h | 36490m | 2.9m/s | -28.9°C | 1.4% | 4.6hPa | 2.6V | 00:00:00 | 02:15:04 | 00:00:00 | |
| DL1XH-15 | 2026-08-30 18:56:50 | 50.03101 | 8.42875 | 68° | 33km/h | 36471m | 3m/s | -29.3°C | 1.3% | 4.6hPa | 2.6V | 02:53:59 | 02:14:58 | 00:00:00 | |
| BIOWL1-15 | 2026-08-30 18:56:50 | 50.03113 | 8.42941 | 84° | 37km/h | 36486m | 3m/s | -29°C | 0% | 4.6hPa | 2.7V | 02:54:39 | 02:15:03 | 00:00:00 | |
| DL6DJ-15 | 2026-08-30 18:56:49 | 50.03110 | 8.42914 | 75° | 35km/h | 36480m | 3.1m/s | 0°C | -1.0% | 4.6hPa | 2.5V | 00:00:00 | 00:00:00 | 00:00:00 | |
| DB0UT-9 | 2026-08-30 18:56:48 | 50.03112 | 8.42927 | 81° | 37km/h | 36484m | 3.1m/s | -29.1°C | 0.3% | 4.6hPa | 2.5V | 02:54:00 | 00:00:00 | 00:00:00 | |
| DL1XH1-15 | 2026-08-30 18:56:47 | 50.03093 | 8.42839 | 75° | 33km/h | 36462m | 2.8m/s | -29.3°C | 1.4% | 4.6hPa | 2.5V | 02:54:02 | 02:14:55 | 00:00:00 | |
| AA1-15 | 2026-08-30 18:56:46 | 50.03105 | 8.42888 | 69° | 35km/h | 36474m | 3m/s | -29.3°C | 0% | 4.6hPa | 2.5V | 02:54:39 | 02:14:59 | 00:00:00 | |
| DL1XH-west | 2026-08-30 18:56:45 | 50.03102 | 8.42875 | 68° | 33km/h | 36471m | 3m/s | -29.3°C | 0% | 4.6hPa | 2.6V | 02:54:39 | 02:14:58 | 00:00:00 | |
| HSKMA3-T | 2026-08-30 18:56:41 | 50.03091 | 8.42826 | 80° | 33km/h | 36459m | 3m/s | -29.3°C | 0% | 4.6hPa | 2.5V | 02:54:39 | 02:14:54 | 00:00:00 | |
| BIOWL1-15 | 2026-08-30 18:56:40 | 50.03090 | 8.42814 | 83° | 33km/h | 36456m | 3m/s | -29.4°C | 0% | 4.6hPa | 2.6V | 02:54:39 | 02:14:53 | 00:00:00 | |
| DL4BBY-15 | 2026-08-30 18:56:39 | 50.03089 | 8.42801 | 88° | 37km/h | 36454m | 2.9m/s | -31.1°C | 0% | 0hPa | 2.6V | 00:00:00 | 00:00:00 | 00:00:00 | |
| DL1XH1-15 | 2026-08-30 18:56:37 | 50.03078 | 8.42723 | 52° | 29km/h | 36432m | 3.4m/s | -29.5°C | 1.4% | 4.7hPa | 2.6V | 02:54:12 | 02:14:45 | 00:00:00 | |
| IW2NTF | 2026-08-30 18:56:35 | 50.03067 | 8.42704 | 46° | 33km/h | 36425m | 2.9m/s | -29.6°C | 0% | 4.7hPa | 2.5V | 02:54:14 | 02:14:43 | 00:00:00 | |
| AA1-15 | 2026-08-30 18:56:35 | 50.03087 | 8.42753 | 77° | 29km/h | 36441m | 2.8m/s | -29.4°C | 0% | 4.7hPa | 2.5V | 02:54:39 | 02:14:48 | 00:00:00 | |
| DL1XH-west | 2026-08-30 18:56:34 | 50.03085 | 8.42742 | 68° | 27km/h | 36438m | 3.1m/s | -29.5°C | 0% | 4.6hPa | 2.5V | 02:54:39 | 02:14:47 | 00:00:00 | |
| BIOWL1-15 | 2026-08-30 18:56:31 | 50.03061 | 8.42695 | 48° | 35km/h | 36423m | 2.8m/s | -29.6°C | 0% | 4.7hPa | 2.5V | 02:54:39 | 02:14:42 | 00:00:00 | |
| HSKMA3-T | 2026-08-30 18:56:31 | 50.03073 | 8.42714 | 48° | 31km/h | 36428m | 3.1m/s | -29.6°C | 0% | 4.7hPa | 2.6V | 02:54:39 | 02:14:44 | 00:00:00 | |
| DO9LL-15 | 2026-08-30 18:56:31 | 50.03073 | 8.42714 | 48° | 38km/h | 36429m | 3.1m/s | -29.5°C | 1.4% | 4.6hPa | 2.6V | 02:54:00 | 02:14:44 | 00:00:00 | |
| DL1XH-15 | 2026-08-30 18:56:30 | 50.03042 | 8.42645 | 72° | 40km/h | 36410m | 3.4m/s | -29.6°C | 1.4% | 4.7hPa | 2.6V | 02:54:19 | 02:14:38 | 00:00:00 | |
| AA1-15 | 2026-08-30 18:56:25 | 50.03042 | 8.42645 | 72° | 40km/h | 36410m | 3.4m/s | -29.6°C | 0% | 4.7hPa | 2.6V | 02:54:39 | 02:14:38 | 00:00:00 | |
| DL1XH-west | 2026-08-30 18:56:23 | 50.03038 | 8.42614 | 81° | 40km/h | 36403m | 3.5m/s | -29.6°C | 0% | 4.7hPa | 2.5V | 02:54:39 | 02:14:36 | 00:00:00 | |
| BUE01 | 2026-08-30 18:56:23 | 50.03038 | 8.42614 | 81° | 40km/h | 36404m | 3.5m/s | -29.6°C | 0.2% | 4.7hPa | 2.5V | 00:00:00 | 00:00:00 | 00:00:00 | |
| SONDE2-11 | 2026-08-30 18:56:22 | 50.03036 | 8.42598 | 83° | 40km/h | 36400m | 3.4m/s | -29.6°C | 0.3% | 4.7hPa | 2.5V | 00:00:00 | 00:00:00 | 00:00:00 | |
| IW2NTF | 2026-08-30 18:56:21 | 50.03023 | 8.42516 | 62° | 35km/h | 36378m | 3.5m/s | -29.6°C | 0% | 4.7hPa | 2.5V | 02:54:28 | 02:14:29 | 00:00:00 | |
| DO3MHA-11 | 2026-08-30 18:56:21 | 50.03035 | 8.42582 | 84° | 38km/h | 36397m | 3.5m/s | -29.5°C | 1.4% | 4.6hPa | 2.5V | 00:00:00 | 02:14:34 | 00:00:00 | |
| DL1XH-15 | 2026-08-30 18:56:20 | 50.03019 | 8.42504 | 60° | 37km/h | 36375m | 3.4m/s | -29.6°C | 1.4% | 4.7hPa | 2.5V | 02:54:29 | 02:14:28 | 00:00:00 | |
| HSKMA3-T | 2026-08-30 18:56:20 | 50.03034 | 8.42568 | 82° | 37km/h | 36393m | 3.4m/s | -29.6°C | 0% | 4.7hPa | 2.6V | 02:54:39 | 02:14:33 | 00:00:00 | |
| BIOWL1-15 | 2026-08-30 18:56:18 | 50.03030 | 8.42541 | 72° | 35km/h | 36386m | 3.6m/s | -29.6°C | 0% | 4.7hPa | 2.6V | 02:54:39 | 02:14:31 | 00:00:00 | |
| DL6DJ-15 | 2026-08-30 18:56:18 | 50.03019 | 8.42504 | 60° | 37km/h | 36375m | 3.4m/s | 0°C | -1.0% | -1.0hPa | 2.6V | 00:00:00 | 00:00:00 | 00:00:00 | |
| DL1XH1-15 | 2026-08-30 18:56:17 | 50.03005 | 8.42461 | 66° | 44km/h | 36365m | 3.4m/s | -29.5°C | 1.4% | 4.7hPa | 2.6V | 02:54:32 | 02:14:25 | 00:00:00 | |
| AA1-15 | 2026-08-30 18:56:14 | 50.03014 | 8.42491 | 61° | 40km/h | 36372m | 3.4m/s | -29.6°C | 0% | 4.7hPa | 2.6V | 02:54:39 | 02:14:27 | 00:00:00 | |
| DJ2DS-15 | 2026-08-30 18:56:14 | 50.03014 | 8.42490 | 62° | 40km/h | 36372m | 3.3m/s | -29.5°C | 1.4% | 4.6hPa | 2.6V | 00:00:00 | 02:14:27 | 00:00:00 | |
| DM0DOS-11 | 2026-08-30 18:56:13 | 50.02993 | 8.42390 | 82° | 47km/h | 36351m | 3.5m/s | -29.5°C | 1.4% | 4.7hPa | 2.6V | 02:54:36 | 02:14:21 | 00:00:00 | |
| DL1XH-west | 2026-08-30 18:56:13 | 50.03010 | 8.42477 | 64° | 42km/h | 36368m | 3.3m/s | -29.6°C | 0% | 4.7hPa | 2.7V | 02:54:39 | 02:14:26 | 00:00:00 | |
| HSKMA3-T | 2026-08-30 18:56:09 | 50.02995 | 8.42409 | 80° | 49km/h | 36355m | 3.4m/s | -29.5°C | 0% | 4.7hPa | 2.6V | 02:54:39 | 02:14:22 | 00:00:00 | |
| DL4BBY-15 | 2026-08-30 18:56:09 | 50.02995 | 8.42409 | 80° | 37km/h | 36356m | 3.4m/s | -31.2°C | 0% | 0hPa | 2.6V | 00:00:00 | 00:00:00 | 00:00:00 | |
| DD1CC2-15 | 2026-08-30 18:56:08 | 50.02995 | 8.42409 | 81° | 49km/h | 36355m | 3.4m/s | -29.5°C | 0.3% | 4.7hPa | 2.6V | 02:54:00 | 00:00:00 | 00:00:00 | |
| DL1XH1-15 | 2026-08-30 18:56:07 | 50.02984 | 8.42297 | 67° | 33km/h | 36330m | 3.7m/s | -29.4°C | 1.4% | 4.7hPa | 2.6V | 02:54:42 | 02:14:15 | 00:00:00 | |
| BIOWL1-15 | 2026-08-30 18:56:07 | 50.02992 | 8.42372 | 84° | 46km/h | 36348m | 3.3m/s | -29.5°C | 0% | 4.7hPa | 2.7V | 02:54:39 | 02:14:20 | 00:00:00 | |
| D01LWL | 2026-08-30 18:56:06 | 50.02991 | 8.42354 | 84° | 42km/h | 36345m | 3.4m/s | -29.5°C | 0.2% | 4.7hPa | 2.5V | 00:00:00 | 00:00:00 | 00:00:00 | |
| DF1GD-15 | 2026-08-30 18:56:04 | 50.02990 | 8.42338 | 85° | 40km/h | 36342m | 3.3m/s | -29.5°C | 0.3% | 4.7hPa | 2.5V | 02:54:00 | 00:00:00 | 00:00:00 | |
| DM0DOS-11 | 2026-08-30 18:56:03 | 50.02967 | 8.42251 | 61° | 37km/h | 36316m | 3.4m/s | -29.4°C | 1.4% | 4.7hPa | 2.5V | 02:54:46 | 02:14:11 | 00:00:00 | |
| AA1-15 | 2026-08-30 18:56:03 | 50.02987 | 8.42310 | 74° | 35km/h | 36334m | 3.6m/s | -29.4°C | 0% | 4.7hPa | 2.5V | 02:55:30 | 02:14:16 | 00:00:00 | |
| DL1XH-west | 2026-08-30 18:56:02 | 50.02984 | 8.42297 | 68° | 33km/h | 36330m | 3.7m/s | -29.4°C | 0% | 4.7hPa | 2.6V | 02:55:30 | 02:14:15 | 00:00:00 | |
| DO9LL-15 | 2026-08-30 18:56:01 | 50.02980 | 8.42286 | 63° | 37km/h | 36327m | 3.7m/s | -29.4°C | 1.4% | 4.7hPa | 2.6V | 00:00:00 | 02:14:14 | 00:00:00 | |
| DL0LBS | 2026-08-30 18:56:00 | 50.02980 | 8.42286 | 63° | 33km/h | 36327m | 3.7m/s | -29.4°C | 0.3% | 4.7hPa | 2.6V | 02:55:00 | 00:00:00 | 00:00:00 | |
| DL1XH-15 | 2026-08-30 18:55:59 | 50.02956 | 8.42193 | 83° | 42km/h | 36301m | 3.8m/s | -29.3°C | 1.4% | 4.7hPa | 2.6V | 02:54:50 | 02:14:07 | 00:00:00 | |
| HSKMA3-T | 2026-08-30 18:55:59 | 50.02972 | 8.42263 | 60° | 35km/h | 36319m | 3.6m/s | -29.4°C | 0% | 4.7hPa | 2.5V | 02:55:30 | 02:14:12 | 00:00:00 | |
| BIOWL1-15 | 2026-08-30 18:55:58 | 50.02960 | 8.42224 | 72° | 40km/h | 36309m | 3.4m/s | -29.4°C | 0% | 4.8hPa | 2.7V | 02:55:30 | 02:14:09 | 00:00:00 | |
| DL1XH1-15 | 2026-08-30 18:55:57 | 50.02954 | 8.42159 | 91° | 44km/h | 36293m | 3.7m/s | -29.3°C | 1.4% | 4.7hPa | 2.5V | 02:54:52 | 02:14:05 | 00:00:00 | |
| AA1-15 | 2026-08-30 18:55:52 | 50.02955 | 8.42159 | 91° | 44km/h | 36293m | 3.7m/s | -29.3°C | 0% | 4.8hPa | 2.5V | 02:55:30 | 02:14:05 | 00:00:00 | |
| DL1XH-west | 2026-08-30 18:55:51 | 50.02955 | 8.42143 | 93° | 42km/h | 36290m | 3.6m/s | -29.3°C | 0% | 4.8hPa | 2.5V | 02:55:30 | 02:14:04 | 00:00:00 | |
| HSKMA3-T | 2026-08-30 18:55:48 | 50.02955 | 8.42099 | 84° | 33km/h | 36279m | 3.5m/s | -29.3°C | 0% | 4.8hPa | 2.6V | 02:55:30 | 02:14:01 | 00:00:00 | |
| BIOWL1-15 | 2026-08-30 18:55:45 | 50.02949 | 8.42066 | 63° | 27km/h | 36268m | 3.7m/s | -29.2°C | 0% | 4.8hPa | 2.5V | 02:55:30 | 02:13:58 | 00:00:00 | |
| DF8AY | 2026-08-30 18:55:44 | 50.02945 | 8.42057 | 58° | 29km/h | 36264m | 3.6m/s | 0°C | 0% | 0hPa | 2.6V | 18:12:15 | 02:13:57 | 00:00:00 | |
| DM0DOS-11 | 2026-08-30 18:55:43 | 50.02926 | 8.41980 | 83° | 42km/h | 36243m | 3.5m/s | -29.2°C | 1.4% | 4.8hPa | 2.6V | 02:55:06 | 02:13:51 | 00:00:00 | |
| AA1-15 | 2026-08-30 18:55:42 | 50.02937 | 8.42036 | 63° | 33km/h | 36257m | 3.4m/s | -29.2°C | 0% | 4.8hPa | 2.7V | 02:55:30 | 02:13:55 | 00:00:00 | |
| DL1XH-west | 2026-08-30 18:55:41 | 50.02933 | 8.42024 | 67° | 35km/h | 36254m | 3.4m/s | -29.2°C | 0% | 4.8hPa | 2.6V | 02:55:30 | 02:13:54 | 00:00:00 | |
| HSKMA3-T | 2026-08-30 18:55:38 | 50.02926 | 8.41980 | 84° | 42km/h | 36243m | 3.5m/s | -29.2°C | 0% | 4.8hPa | 2.6V | 02:55:30 | 02:13:51 | 00:00:00 | |
| BIOWL1-15 | 2026-08-30 18:55:37 | 50.02925 | 8.41931 | 88° | 40km/h | 36232m | 3.6m/s | -29.2°C | 0% | 4.8hPa | 2.6V | 02:55:30 | 02:13:48 | 00:00:00 | |
| EDDB2-12 | 2026-08-30 18:55:36 | 50.02925 | 8.41947 | 88° | 42km/h | 36236m | 3.6m/s | -29.2°C | 0.3% | 4.8hPa | 2.5V | 00:00:00 | 00:00:00 | 00:00:00 | |
| D01LWL | 2026-08-30 18:55:35 | 50.02925 | 8.41931 | 87° | 40km/h | 36232m | 3.6m/s | -29.2°C | -1.0% | -1.0hPa | 2.5V | 00:00:00 | 00:00:00 | 00:00:00 | |
| DJ2DS-15 | 2026-08-30 18:55:34 | 50.02924 | 8.41916 | 87° | 33km/h | 36229m | 3.6m/s | -29.2°C | 1.4% | 4.8hPa | 2.5V | 00:00:00 | 02:13:47 | 00:00:00 | |
| DM0DOS-11 | 2026-08-30 18:55:33 | 50.02911 | 8.41848 | 61° | 27km/h | 36205m | 3.7m/s | -29.4°C | 1.4% | 4.8hPa | 2.5V | 02:55:16 | 02:13:41 | 00:00:00 | |
| DF8AY | 2026-08-30 18:55:33 | 50.02923 | 8.41902 | 82° | 35km/h | 36225m | 3.8m/s | 0°C | 0% | 0hPa | 2.5V | 18:12:15 | 02:13:46 | 00:00:00 | |
| AA1-15 | 2026-08-30 18:55:31 | 50.02920 | 8.41878 | 72° | 29km/h | 36217m | 4m/s | -29.3°C | 0% | 4.8hPa | 2.6V | 02:55:30 | 02:13:44 | 00:00:00 | |
| DL1XH-west | 2026-08-30 18:55:30 | 50.02917 | 8.41868 | 65° | 27km/h | 36213m | 3.8m/s | -29.3°C | 0% | 4.8hPa | 2.6V | 02:55:30 | 02:13:43 | 00:00:00 | |
| DK5PH-5 | 2026-08-30 18:55:29 | 50.02914 | 8.41858 | 62° | 33km/h | 36209m | 3.7m/s | -29.3°C | 1.4% | 4.8hPa | 2.5V | 00:00:00 | 02:13:42 | 00:00:00 | |
| DL1ZP-14 | 2026-08-30 18:55:28 | 50.02911 | 8.41848 | 61° | 27km/h | 36205m | 3.7m/s | -29.4°C | 0.3% | 4.8hPa | 2.5V | 00:00:00 | 00:00:00 | 00:00:00 | |
| DL1XH1-15 | 2026-08-30 18:55:27 | 50.02900 | 8.41770 | 90° | 42km/h | 36182m | 3.8m/s | -29.4°C | 1.4% | 4.8hPa | 2.5V | 02:55:22 | 02:13:35 | 00:00:00 | |
| HSKMA3-T | 2026-08-30 18:55:27 | 50.02907 | 8.41838 | 65° | 29km/h | 36201m | 3.7m/s | -29.4°C | 0% | 4.8hPa | 2.6V | 02:55:30 | 02:13:40 | 00:00:00 | |
| BIOWL1-15 | 2026-08-30 18:55:24 | 50.02901 | 8.41801 | 83° | 37km/h | 36190m | 4m/s | -29.4°C | 0% | 4.8hPa | 2.6V | 02:55:30 | 02:13:37 | 00:00:00 | |
| DF8AY | 2026-08-30 18:55:20 | 50.02901 | 8.41738 | 92° | 40km/h | 36175m | 3.3m/s | 0°C | 0% | 0hPa | 2.7V | 18:12:15 | 02:13:33 | 00:00:00 | |
| DL1XH-west | 2026-08-30 18:55:19 | 50.02901 | 8.41723 | 90° | 37km/h | 36172m | 3.3m/s | -29.5°C | 0% | 4.8hPa | 2.6V | 02:55:30 | 02:13:32 | 00:00:00 | |
| DL8DAS-15 | 2026-08-30 18:55:18 | 50.02901 | 8.41723 | 91° | 37km/h | 36172m | 3.3m/s | -29.5°C | 0.3% | 4.8hPa | 2.6V | 02:55:00 | 00:00:00 | 00:00:00 | |
| DL1XH1-15 | 2026-08-30 18:55:17 | 50.02882 | 8.41658 | 46° | 24km/h | 36145m | 3.4m/s | -29.6°C | 1.4% | 4.8hPa | 2.6V | 02:55:32 | 02:13:25 | 00:00:00 | |
| HSKMA3-T | 2026-08-30 18:55:17 | 50.02899 | 8.41697 | 77° | 29km/h | 36165m | 3.9m/s | -29.6°C | 0% | 4.9hPa | 2.6V | 02:55:30 | 02:13:30 | 00:00:00 | |
| BIOWL1-15 | 2026-08-30 18:55:14 | 50.02890 | 8.41671 | 48° | 24km/h | 36153m | 3.9m/s | -29.6°C | 0% | 4.9hPa | 2.5V | 02:55:30 | 02:13:27 | 00:00:00 | |
| AA1-15 | 2026-08-30 18:55:10 | 50.02874 | 8.41642 | 66° | 26km/h | 36138m | 3.5m/s | -29.6°C | 0% | 4.9hPa | 2.6V | 02:56:21 | 02:13:23 | 00:00:00 | |
| DL1XH-15 | 2026-08-30 18:55:09 | 50.02874 | 8.41561 | 98° | 40km/h | 36115m | 3.5m/s | -29.6°C | 1.4% | 4.9hPa | 2.6V | 02:55:40 | 02:13:17 | 00:00:00 | |
| DL1XH-west | 2026-08-30 18:55:09 | 50.02872 | 8.41632 | 74° | 29km/h | 36135m | 3.7m/s | -29.7°C | 0% | 4.9hPa | 2.6V | 02:56:21 | 02:13:22 | 00:00:00 | |
| DF7PN | 2026-08-30 18:55:08 | 50.02871 | 8.41620 | 84° | 31km/h | 36131m | 3.9m/s | -29.7°C | 0.2% | 4.9hPa | 2.5V | 00:00:00 | 00:00:00 | 00:00:00 | |
| DL1XH1-15 | 2026-08-30 18:55:07 | 50.02876 | 8.41531 | 91° | 35km/h | 36108m | 3.5m/s | -29.6°C | 1.4% | 4.9hPa | 2.5V | 02:55:42 | 02:13:15 | 00:00:00 | |
| HSKMA3-T | 2026-08-30 18:55:06 | 50.02871 | 8.41592 | 97° | 40km/h | 36123m | 3.9m/s | -29.6°C | 0% | 4.9hPa | 2.6V | 02:56:21 | 02:13:19 | 00:00:00 | |
| BIOWL1-15 | 2026-08-30 18:55:03 | 50.02875 | 8.41546 | 96° | 38km/h | 36112m | 3.4m/s | -29.6°C | 0% | 4.9hPa | 2.5V | 02:56:21 | 02:13:16 | 00:00:00 | |
| DF1GD-15 | 2026-08-30 18:55:03 | 50.02875 | 8.41545 | 97° | 38km/h | 36112m | 3.4m/s | -29.6°C | 0.3% | 4.9hPa | 2.6V | 02:56:00 | 00:00:00 | 00:00:00 | |
| BIOWL9-15 | 2026-08-30 18:55:00 | 50.02874 | 8.41506 | 75° | 29km/h | 36101m | 4.2m/s | -29.6°C | 0.3% | 4.9hPa | 2.6V | 00:00:00 | 00:00:00 | 00:00:00 | |
| DL1XH-15 | 2026-08-30 18:54:59 | 50.02853 | 8.41446 | 69° | 33km/h | 36078m | 3.5m/s | -29.7°C | 1.4% | 4.9hPa | 2.6V | 02:55:50 | 02:13:07 | 00:00:00 | |
| AA1-15 | 2026-08-30 18:54:59 | 50.02871 | 8.41496 | 65° | 27km/h | 36097m | 4.1m/s | -29.6°C | 0% | 4.9hPa | 2.6V | 02:56:21 | 02:13:12 | 00:00:00 | |
| DL1XH-west | 2026-08-30 18:54:58 | 50.02868 | 8.41486 | 58° | 27km/h | 36093m | 4m/s | -29.6°C | 0% | 4.9hPa | 2.6V | 02:56:21 | 02:13:11 | 00:00:00 | |
| HSKMA3-T | 2026-08-30 18:54:55 | 50.02856 | 8.41458 | 61° | 31km/h | 36081m | 3.5m/s | -29.7°C | 0% | 4.9hPa | 2.5V | 02:56:21 | 02:13:08 | 00:00:00 | |
| BIOWL1-15 | 2026-08-30 18:54:53 | 50.02850 | 8.41434 | 77° | 35km/h | 36074m | 3.9m/s | -29.7°C | 0% | 4.9hPa | 2.6V | 02:56:21 | 02:13:06 | 00:00:00 | |
| SONCRA | 2026-08-30 18:54:52 | 50.02848 | 8.41404 | 90° | 40km/h | 36066m | 4.2m/s | -29.7°C | 0.3% | 4.9hPa | 2.5V | 00:00:00 | 00:00:00 | 00:00:00 | |
| DO3MHA-11 | 2026-08-30 18:54:51 | 50.02848 | 8.41404 | 91° | 38km/h | 36067m | 4.1m/s | -29.7°C | 1.4% | 4.9hPa | 2.5V | 00:00:00 | 02:13:04 | 00:00:00 | |
| DL8DAS-15 | 2026-08-30 18:54:50 | 50.02848 | 8.41404 | 91° | 40km/h | 36067m | 4.2m/s | -29.7°C | 0.3% | 4.9hPa | 2.5V | 02:56:00 | 00:00:00 | 00:00:00 | |
| DL1XH-15 | 2026-08-30 18:54:49 | 50.02844 | 8.41296 | 62° | 35km/h | 36041m | 3.7m/s | -29.8°C | 1.4% | 4.9hPa | 2.5V | 02:56:00 | 02:12:57 | 00:00:00 | |
| DL1XH-west | 2026-08-30 18:54:48 | 50.02850 | 8.41354 | 94° | 42km/h | 36055m | 3.3m/s | -29.8°C | 0% | 4.9hPa | 2.6V | 02:56:21 | 02:13:01 | 00:00:00 | |
| BIOWL1-15 | 2026-08-30 18:54:45 | 50.02840 | 8.41285 | 54° | 35km/h | 36037m | 4m/s | -29.8°C | 0% | 4.9hPa | 2.5V | 02:56:21 | 02:12:56 | 00:00:00 | |
| HSKMA3-T | 2026-08-30 18:54:44 | 50.02844 | 8.41296 | 62° | 35km/h | 36041m | 3.7m/s | -29.8°C | 0% | 4.9hPa | 2.5V | 02:56:21 | 02:12:57 | 00:00:00 | |
| DM0DOS-11 | 2026-08-30 18:54:43 | 50.02812 | 8.41229 | 62° | 37km/h | 36019m | 3.8m/s | -29.9°C | 1.4% | 4.9hPa | 2.5V | 02:56:06 | 02:12:51 | 00:00:00 | |
| DD1CC8 | 2026-08-30 18:54:42 | 50.02834 | 8.41274 | 49° | 35km/h | 36034m | 3.8m/s | -29.8°C | 0.3% | 4.9hPa | 2.7V | 00:00:00 | 00:00:00 | 00:00:00 | |
| DO3MHA-11 | 2026-08-30 18:54:41 | 50.02828 | 8.41264 | 49° | 37km/h | 36030m | 3.6m/s | -29.8°C | 1.4% | 4.9hPa | 2.7V | 00:00:00 | 02:12:54 | 00:00:00 | |
| DL8DAS-15 | 2026-08-30 18:54:40 | 50.02829 | 8.41264 | 49° | 37km/h | 36030m | 3.7m/s | -29.8°C | 0.3% | 5.0hPa | 2.7V | 02:56:00 | 00:00:00 | 00:00:00 | |
| DL1XH-15 | 2026-08-30 18:54:39 | 50.02803 | 8.41173 | 86° | 35km/h | 36002m | 4.2m/s | -30°C | 1.4% | 5hPa | 2.7V | 02:56:10 | 02:12:47 | 00:00:00 | |
| DL4BBY-15 | 2026-08-30 18:54:39 | 50.02817 | 8.41241 | 56° | 35km/h | 36023m | 3.7m/s | -31.5°C | 0% | 0hPa | 2.6V | 00:00:00 | 00:00:00 | 00:00:00 | |
| DL0LBS | 2026-08-30 18:54:38 | 50.02817 | 8.41241 | 57° | 37km/h | 36023m | 3.8m/s | -29.8°C | 0.3% | 4.9hPa | 2.6V | 02:56:00 | 00:00:00 | 00:00:00 | |
| DL1XH1-15 | 2026-08-30 18:54:37 | 50.02802 | 8.41148 | 84° | 29km/h | 35994m | 3.8m/s | -30.1°C | 1.4% | 5hPa | 2.6V | 02:56:12 | 02:12:45 | 00:00:00 | |
| DL1XH-west | 2026-08-30 18:54:37 | 50.02808 | 8.41215 | 71° | 37km/h | 36015m | 4m/s | -29.9°C | 0% | 4.9hPa | 2.5V | 02:56:21 | 02:12:50 | 00:00:00 | |
| DO2KSM | 2026-08-30 18:54:36 | 50.02808 | 8.41215 | 72° | 37km/h | 36015m | 4.0m/s | -29.9°C | 0.3% | 4.9hPa | 2.7V | 02:56:00 | 00:00:00 | 00:00:00 | |
| KANTATE | 2026-08-30 18:54:35 | 50.02806 | 8.41201 | 79° | 37km/h | 36011m | 4.1m/s | -29.9°C | 0.3% | 4.9hPa | 2.7V | 02:56:00 | 00:00:00 | 00:00:00 | |
| DJ2DS-15 | 2026-08-30 18:54:34 | 50.02803 | 8.41173 | 87° | 35km/h | 36003m | 4.2m/s | -29.9°C | 1.4% | 4.9hPa | 2.7V | 00:00:00 | 02:12:47 | 00:00:00 | |
| DM0DOS-11 | 2026-08-30 18:54:33 | 50.02792 | 8.41111 | 44° | 27km/h | 35978m | 4.1m/s | -30.1°C | 1.4% | 5hPa | 2.7V | 02:56:16 | 02:12:41 | 00:00:00 | |
| HSKMA3-T | 2026-08-30 18:54:33 | 50.02803 | 8.41160 | 88° | 33km/h | 35998m | 4m/s | -30°C | 0% | 5hPa | 2.6V | 02:56:21 | 02:12:46 | 00:00:00 | |
| BIOWL1-15 | 2026-08-30 18:54:32 | 50.02802 | 8.41148 | 84° | 29km/h | 35994m | 3.8m/s | -30.1°C | 0% | 5hPa | 2.6V | 02:56:21 | 02:12:45 | 00:00:00 | |
| DO9LL-15 | 2026-08-30 18:54:31 | 50.02801 | 8.41137 | 77° | 37km/h | 35991m | 3.7m/s | -30.1°C | 1.5% | 4.9hPa | 2.5V | 00:00:00 | 02:12:44 | 00:00:00 | |
| DL1CLM-18 | 2026-08-30 18:54:30 | 50.02801 | 8.41137 | 78° | 26km/h | 35991m | 3.7m/s | -30.1°C | 0.3% | 5.0hPa | 2.5V | 00:00:00 | 00:00:00 | 00:00:00 | |
| DL1XH-15 | 2026-08-30 18:54:29 | 50.02769 | 8.41073 | 57° | 38km/h | 35963m | 3.6m/s | -30.1°C | 1.4% | 5hPa | 2.5V | 02:56:20 | 02:12:37 | 00:00:00 | |
| DK5PH-5 | 2026-08-30 18:54:28 | 50.02791 | 8.41111 | 45° | 35km/h | 35979m | 4.1m/s | -30.1°C | 1.4% | 4.9hPa | 2.6V | 00:00:00 | 02:12:41 | 00:00:00 | |
| DL1XH1-15 | 2026-08-30 18:54:27 | 50.02761 | 8.41045 | 76° | 40km/h | 35955m | 4.2m/s | -30.1°C | 1.4% | 5hPa | 2.6V | 02:56:22 | 02:12:35 | 00:00:00 | |
| AA1-15 | 2026-08-30 18:54:27 | 50.02786 | 8.41103 | 43° | 31km/h | 35974m | 4m/s | -30.1°C | 0% | 5hPa | 2.6V | 02:56:21 | 02:12:40 | 00:00:00 | |
| DL1XH-west | 2026-08-30 18:54:26 | 50.02780 | 8.41094 | 44° | 35km/h | 35970m | 4m/s | -30°C | 0% | 5hPa | 2.6V | 02:56:21 | 02:12:39 | 00:00:00 | |
| DJ2KF-10 | 2026-08-30 18:54:26 | 50.02780 | 8.41094 | 44° | 37km/h | 35971m | 3.9m/s | -30.0°C | 1.4% | 4.9hPa | 2.6V | 00:00:00 | 02:12:39 | 00:00:00 | |
| SFWM-10 | 2026-08-30 18:54:25 | 50.02780 | 8.41094 | 45° | 35km/h | 35971m | 4.0m/s | -30.0°C | 0.3% | 5.0hPa | 2.6V | 00:00:00 | 00:00:00 | 00:00:00 | |
| BIOWL7-15 | 2026-08-30 18:54:24 | 50.02774 | 8.41084 | 50° | 37km/h | 35967m | 3.6m/s | -30.1°C | 0.3% | 5.0hPa | 2.6V | 02:56:00 | 00:00:00 | 00:00:00 | |
| DM0DOS-11 | 2026-08-30 18:54:23 | 50.02762 | 8.40978 | 101° | 42km/h | 35938m | 3.8m/s | -30.1°C | 1.4% | 5hPa | 2.6V | 02:56:26 | 02:12:31 | 00:00:00 | |
| HSKMA3-T | 2026-08-30 18:54:22 | 50.02761 | 8.41045 | 77° | 40km/h | 35955m | 4.2m/s | -30.1°C | 0% | 5hPa | 2.6V | 02:57:12 | 02:12:35 | 00:00:00 | |
| BIOWL1-15 | 2026-08-30 18:54:21 | 50.02759 | 8.41029 | 85° | 42km/h | 35951m | 4.4m/s | -30.1°C | 0% | 5hPa | 2.6V | 02:57:12 | 02:12:34 | 00:00:00 | |
| DO3MHA-11 | 2026-08-30 18:54:21 | 50.02759 | 8.41029 | 86° | 37km/h | 35951m | 4.4m/s | -30.1°C | 1.4% | 4.9hPa | 2.6V | 00:00:00 | 02:12:34 | 00:00:00 | |
| DO1YAY-16 | 2026-08-30 18:54:20 | 50.02759 | 8.41012 | 92° | 44km/h | 35947m | 4.4m/s | -30.1°C | 0.3% | 5.0hPa | 2.6V | 00:00:00 | 00:00:00 | 00:00:00 | |
| BUE01 | 2026-08-30 18:54:19 | 50.02760 | 8.40995 | 98° | 44km/h | 35942m | 4.1m/s | -30.1°C | 0.3% | 5.0hPa | 2.6V | 00:00:00 | 00:00:00 | 00:00:00 | |
| SONDE2-11 | 2026-08-30 18:54:18 | 50.02762 | 8.40978 | 101° | 42km/h | 35938m | 3.8m/s | -30.1°C | 0.3% | 5.0hPa | 2.6V | 00:00:00 | 00:00:00 | 00:00:00 | |
| DL1XH1-15 | 2026-08-30 18:54:17 | 50.02760 | 8.40904 | 57° | 29km/h | 35915m | 4.3m/s | -30.2°C | 1.4% | 5hPa | 2.6V | 02:56:32 | 02:12:25 | 00:00:00 | |
| AA1-15 | 2026-08-30 18:54:16 | 50.02765 | 8.40948 | 99° | 35km/h | 35931m | 3.4m/s | -30.1°C | 0% | 5hPa | 2.6V | 02:57:12 | 02:12:29 | 00:00:00 | |
| DL1XH-west | 2026-08-30 18:54:15 | 50.02766 | 8.40936 | 90° | 31km/h | 35927m | 3.6m/s | -30.2°C | 0% | 5hPa | 2.6V | 02:57:12 | 02:12:28 | 00:00:00 | |
| HSKMA3-T | 2026-08-30 18:54:12 | 50.02760 | 8.40904 | 58° | 29km/h | 35915m | 4.4m/s | -30.2°C | 0% | 5hPa | 2.6V | 02:57:12 | 02:12:25 | 00:00:00 | |
| BIOWL1-15 | 2026-08-30 18:54:10 | 50.02750 | 8.40883 | 54° | 37km/h | 35907m | 3.9m/s | -30.2°C | 0% | 5hPa | 2.6V | 02:57:12 | 02:12:23 | 00:00:00 | |
| DL1XH-15 | 2026-08-30 18:54:09 | 50.02731 | 8.40795 | 86° | 42km/h | 35884m | 3.5m/s | -30.2°C | 1.5% | 5hPa | 2.5V | 02:56:40 | 02:12:17 | 00:00:00 | |
| DL4BBY-15 | 2026-08-30 18:54:09 | 50.02745 | 8.40871 | 58° | 38km/h | 35904m | 3.7m/s | -31.9°C | 0% | 0hPa | 2.7V | 00:00:00 | 00:00:00 | 00:00:00 | |
| DL1XH1-15 | 2026-08-30 18:54:07 | 50.02729 | 8.40765 | 86° | 35km/h | 35877m | 3.3m/s | -30.2°C | 1.4% | 5hPa | 2.7V | 02:56:42 | 02:12:15 | 00:00:00 | |
| AA1-15 | 2026-08-30 18:54:05 | 50.02731 | 8.40811 | 83° | 42km/h | 35888m | 3.7m/s | -30.2°C | 0% | 5hPa | 2.5V | 02:57:12 | 02:12:18 | 00:00:00 | |
| DL1XH-west | 2026-08-30 18:54:04 | 50.02730 | 8.40795 | 86° | 42km/h | 35884m | 3.5m/s | -30.2°C | 0% | 5hPa | 2.5V | 02:57:12 | 02:12:17 | 00:00:00 | |
| HSKMA3-T | 2026-08-30 18:54:01 | 50.02729 | 8.40752 | 82° | 33km/h | 35874m | 3.3m/s | -30.2°C | 0% | 5hPa | 2.6V | 02:57:12 | 02:12:14 | 00:00:00 | |
| BIOWL1-15 | 2026-08-30 18:53:59 | 50.02724 | 8.40729 | 62° | 31km/h | 35866m | 4.1m/s | -30.2°C | 0% | 5hPa | 2.5V | 02:57:12 | 02:12:12 | 00:00:00 | |
| AA1-15 | 2026-08-30 18:53:54 | 50.02695 | 8.40674 | 57° | 42km/h | 35845m | 3.5m/s | -30.2°C | 0% | 5hPa | 2.5V | 02:57:12 | 02:12:07 | 00:00:00 | |
| DL1XH-west | 2026-08-30 18:53:53 | 50.02690 | 8.40660 | 65° | 42km/h | 35842m | 3.8m/s | -30.2°C | 0% | 5.1hPa | 2.5V | 02:57:12 | 02:12:06 | 00:00:00 | |
| HSKMA3-T | 2026-08-30 18:53:50 | 50.02684 | 8.40610 | 90° | 44km/h | 35829m | 4.3m/s | -30.2°C | 0% | 5.1hPa | 2.6V | 02:57:12 | 02:12:03 | 00:00:00 | |
| DL1XH-15 | 2026-08-30 18:53:49 | 50.02685 | 8.40524 | 65° | 27km/h | 35807m | 3.9m/s | -30.2°C | 1.4% | 5.1hPa | 2.6V | 02:57:00 | 02:11:57 | 00:00:00 | |
| BIOWL1-15 | 2026-08-30 18:53:48 | 50.02685 | 8.40576 | 98° | 42km/h | 35821m | 3.7m/s | -30.1°C | 0% | 5.1hPa | 2.5V | 02:57:12 | 02:12:01 | 00:00:00 | |
| DL1XH1-15 | 2026-08-30 18:53:47 | 50.02676 | 8.40505 | 42° | 35km/h | 35798m | 4.5m/s | -30.2°C | 1.4% | 5.1hPa | 2.6V | 02:57:02 | 02:11:55 | 00:00:00 | |
| AA1-15 | 2026-08-30 18:53:44 | 50.02685 | 8.40524 | 66° | 27km/h | 35807m | 3.9m/s | -30.2°C | 0% | 5.1hPa | 2.6V | 02:57:12 | 02:11:57 | 00:00:00 | |
| OE5DRO-10 | 2026-08-30 18:53:44 | 50.02685 | 8.40524 | 66° | 42km/h | 35807m | 3.9m/s | 0°C | 0% | 0hPa | 2.5V | 00:00:00 | 00:00:00 | 00:00:00 | |
| DM0DOS-11 | 2026-08-30 18:53:43 | 50.02644 | 8.40457 | 53° | 51km/h | 35782m | 3.7m/s | -30.3°C | 1.4% | 5.1hPa | 2.5V | 02:57:06 | 02:11:51 | 00:00:00 | |
| DL1XH-west | 2026-08-30 18:53:43 | 50.02681 | 8.40514 | 52° | 31km/h | 35803m | 4.4m/s | -30.2°C | 0% | 5.1hPa | 2.5V | 02:57:12 | 02:11:56 | 00:00:00 | |
| BIOWL1-15 | 2026-08-30 18:53:41 | 50.02636 | 8.40440 | 61° | 53km/h | 35778m | 4m/s | -30.4°C | 0% | 5.1hPa | 2.6V | 02:57:12 | 02:11:50 | 00:00:00 | |
| DB0UT-7 | 2026-08-30 18:53:41 | 50.02668 | 8.40495 | 40° | 47km/h | 35794m | 4.5m/s | -30.2°C | 1.4% | 5.0hPa | 2.6V | 02:57:00 | 00:00:00 | 00:00:00 | |
| DD1CC8 | 2026-08-30 18:53:40 | 50.02660 | 8.40485 | 41° | 44km/h | 35790m | 4.0m/s | -30.3°C | 0.3% | 5.1hPa | 2.6V | 00:00:00 | 00:00:00 | 00:00:00 | |
| DL1XH-15 | 2026-08-30 18:53:39 | 50.02624 | 8.40380 | 81° | 55km/h | 35765m | 4.2m/s | -30.5°C | 1.4% | 5.1hPa | 2.6V | 02:57:10 | 02:11:47 | 00:00:00 | |
| HSKMA3-T | 2026-08-30 18:53:39 | 50.02652 | 8.40472 | 46° | 47km/h | 35786m | 3.7m/s | -30.3°C | 0% | 5.1hPa | 2.5V | 02:57:12 | 02:11:52 | 00:00:00 | |
| DL4BBY-15 | 2026-08-30 18:53:39 | 50.02651 | 8.40472 | 47° | 46km/h | 35786m | 3.6m/s | -32.0°C | 0% | 0hPa | 2.5V | 00:00:00 | 00:00:00 | 00:00:00 | |
| DC4HF-4 | 2026-08-30 18:53:38 | 50.02644 | 8.40457 | 53° | 49km/h | 35782m | 3.7m/s | -30.3°C | 0.3% | 5.1hPa | 2.5V | 00:00:00 | 00:00:00 | 00:00:00 | |
| DL1XH1-15 | 2026-08-30 18:53:37 | 50.02621 | 8.40339 | 86° | 49km/h | 35757m | 3.7m/s | -30.6°C | 1.4% | 5.1hPa | 2.5V | 02:57:12 | 02:11:45 | 00:00:00 | |
| DF7PN | 2026-08-30 18:53:35 | 50.02627 | 8.40401 | 75° | 55km/h | 35770m | 4.3m/s | -30.5°C | 0.3% | 5.1hPa | 2.5V | 00:00:00 | 00:00:00 | 00:00:00 | |
| DJ2DS-15 | 2026-08-30 18:53:34 | 50.02624 | 8.40380 | 82° | 44km/h | 35766m | 4.2m/s | -30.5°C | 1.4% | 5.1hPa | 2.5V | 00:00:00 | 02:11:47 | 00:00:00 | |
| DM0DOS-11 | 2026-08-30 18:53:33 | 50.02612 | 8.40278 | 57° | 33km/h | 35741m | 4.5m/s | -30.7°C | 1.5% | 5.1hPa | 2.5V | 02:57:16 | 02:11:41 | 00:00:00 | |
| DL1XH-west | 2026-08-30 18:53:33 | 50.02622 | 8.40359 | 85° | 53km/h | 35761m | 4.1m/s | -30.6°C | 0% | 5.1hPa | 2.5V | 02:57:12 | 02:11:46 | 00:00:00 | |
| EDDB2-12 | 2026-08-30 18:53:32 | 50.02621 | 8.40339 | 86° | 49km/h | 35758m | 3.7m/s | -30.6°C | 0.3% | 5.1hPa | 2.6V | 00:00:00 | 00:00:00 | 00:00:00 | |
| DO3MHA-11 | 2026-08-30 18:53:31 | 50.02620 | 8.40321 | 84° | 38km/h | 35754m | 3.8m/s | -30.6°C | 1.5% | 5.1hPa | 2.6V | 02:57:00 | 02:11:44 | 00:00:00 | |
| DM7RM-13 | 2026-08-30 18:53:30 | 50.02620 | 8.40321 | 84° | 46km/h | 35754m | 3.9m/s | -30.6°C | 0.3% | 5.1hPa | 2.6V | 02:58:00 | 00:00:00 | 00:00:00 | |
| DL1XH-15 | 2026-08-30 18:53:29 | 50.02587 | 8.40238 | 45° | 38km/h | 35724m | 3.4m/s | -30.9°C | 1.5% | 5.2hPa | 2.6V | 02:57:20 | 02:11:37 | 00:00:00 | |
| HSKMA3-T | 2026-08-30 18:53:28 | 50.02612 | 8.40278 | 58° | 33km/h | 35741m | 4.5m/s | -30.7°C | 0% | 5.1hPa | 2.5V | 02:58:03 | 02:11:41 | 00:00:00 | |
| BIOWL1-15 | 2026-08-30 18:53:28 | 50.02601 | 8.40258 | 42° | 37km/h | 35732m | 4.3m/s | -30.8°C | 0% | 5.2hPa | 2.6V | 02:58:03 | 02:11:39 | 00:00:00 | |
| DK5PH-5 | 2026-08-30 18:53:28 | 50.02612 | 8.40278 | 58° | 42km/h | 35741m | 4.4m/s | -30.7°C | 1.5% | 5.1hPa | 2.5V | 02:57:00 | 02:11:41 | 00:00:00 | |
| BIOWL9-15 | 2026-08-30 18:53:27 | 50.02607 | 8.40268 | 47° | 33km/h | 35737m | 4.5m/s | -30.8°C | 0.3% | 5.2hPa | 2.6V | 00:00:00 | 00:00:00 | 00:00:00 | |
| DJ2KF-10 | 2026-08-30 18:53:26 | 50.02601 | 8.40258 | 42° | 42km/h | 35732m | 4.3m/s | -30.7°C | 1.5% | 5.1hPa | 2.6V | 02:57:00 | 02:11:39 | 00:00:00 | |
| OE5DRO-10 | 2026-08-30 18:53:25 | 50.02594 | 8.40248 | 42° | 47km/h | 35728m | 3.7m/s | 0°C | 0% | 0hPa | 2.6V | 00:00:00 | 00:00:00 | 00:00:00 | |
| DL1ZP-14 | 2026-08-30 18:53:24 | 50.02580 | 8.40227 | 53° | 38km/h | 35721m | 3.5m/s | -30.9°C | 0.3% | 5.2hPa | 2.6V | 00:00:00 | 00:00:00 | 00:00:00 | |
| DM0DOS-11 | 2026-08-30 18:53:23 | 50.02566 | 8.40142 | 87° | 51km/h | 35699m | 4.2m/s | -30.9°C | 1.5% | 5.2hPa | 2.6V | 02:57:26 | 02:11:31 | 00:00:00 | |
| DL1XH-west | 2026-08-30 18:53:22 | 50.02575 | 8.40213 | 62° | 42km/h | 35717m | 3.9m/s | -30.9°C | 0% | 5.1hPa | 2.5V | 02:58:03 | 02:11:35 | 00:00:00 | |
| DB0NH | 2026-08-30 18:53:22 | 50.02575 | 8.40213 | 63° | 44km/h | 35718m | 3.8m/s | -30.9°C | 1.5% | 5.1hPa | 2.6V | 00:00:00 | 02:11:35 | 00:00:00 | |
| DO3MHA-11 | 2026-08-30 18:53:21 | 50.02571 | 8.40198 | 72° | 49km/h | 35713m | 4.3m/s | -30.9°C | 1.5% | 5.1hPa | 2.6V | 00:00:00 | 02:11:34 | 00:00:00 | |
| DO3DL | 2026-08-30 18:53:20 | 50.02571 | 8.40198 | 73° | 44km/h | 35713m | 4.3m/s | -30.9°C | 0.3% | 5.2hPa | 2.6V | 02:58:00 | 00:00:00 | 00:00:00 | |
| DL1XH-15 | 2026-08-30 18:53:19 | 50.02555 | 8.40067 | 60° | 47km/h | 35685m | 4m/s | -30.8°C | 1.5% | 5.2hPa | 2.6V | 02:57:30 | 02:11:27 | 00:00:00 | |
| HSKMA3-T | 2026-08-30 18:53:18 | 50.02566 | 8.40142 | 87° | 51km/h | 35699m | 4.2m/s | -30.9°C | 0% | 5.2hPa | 2.6V | 02:58:03 | 02:11:31 | 00:00:00 | |
| BIOWL1-15 | 2026-08-30 18:53:15 | 50.02560 | 8.40084 | 71° | 47km/h | 35689m | 3.3m/s | -30.9°C | 0% | 5.2hPa | 2.7V | 02:58:03 | 02:11:28 | 00:00:00 | |
| DL1XH-west | 2026-08-30 18:53:12 | 50.02540 | 8.40038 | 39° | 51km/h | 35676m | 5m/s | -30.8°C | 0% | 5.2hPa | 2.5V | 02:58:03 | 02:11:25 | 00:00:00 | |
| AA1-15 | 2026-08-30 18:53:11 | 50.02529 | 8.40027 | 33° | 53km/h | 35671m | 4.9m/s | -30.8°C | 0% | 5.2hPa | 2.6V | 02:58:03 | 02:11:24 | 00:00:00 | |
| DO3MHA-11 | 2026-08-30 18:53:11 | 50.02529 | 8.40027 | 33° | 40km/h | 35671m | 4.9m/s | -30.8°C | 1.5% | 5.1hPa | 2.5V | 00:00:00 | 02:11:24 | 00:00:00 | |
| DB0UT-7 | 2026-08-30 18:53:10 | 50.02518 | 8.40016 | 30° | 40km/h | 35667m | 4.2m/s | -30.8°C | 1.5% | 5.2hPa | 2.5V | 00:00:00 | 02:11:23 | 00:00:00 | |
| DL4BBY-15 | 2026-08-30 18:53:09 | 50.02506 | 8.40006 | 30° | 40km/h | 35663m | 3.4m/s | -32.5°C | 0% | 0hPa | 2.5V | 00:00:00 | 00:00:00 | 00:00:00 | |
| GOEST3-10 | 2026-08-30 18:53:08 | 50.02496 | 8.39996 | 35° | 40km/h | 35659m | 3.2m/s | -30.8°C | 1.5% | 5.2hPa | 2.5V | 00:00:00 | 02:11:21 | 00:00:00 | |
| DL1XH1-15 | 2026-08-30 18:53:07 | 50.02480 | 8.39925 | 103° | 35km/h | 35634m | 3.9m/s | -30.7°C | 1.5% | 5.2hPa | 2.5V | 02:57:42 | 02:11:15 | 00:00:00 | |
| HSKMA3-T | 2026-08-30 18:53:07 | 50.02488 | 8.39986 | 43° | 40km/h | 35656m | 3.4m/s | -30.8°C | 0% | 5.2hPa | 2.5V | 02:58:03 | 02:11:20 | 00:00:00 | |
| BIOWL1-15 | 2026-08-30 18:53:05 | 50.02478 | 8.39963 | 75° | 31km/h | 35648m | 4.8m/s | -30.8°C | 0% | 5.2hPa | 2.6V | 02:58:03 | 02:11:18 | 00:00:00 | |
| DF8AY | 2026-08-30 18:53:04 | 50.02478 | 8.39951 | 92° | 33km/h | 35643m | 5m/s | 0°C | 0% | 0hPa | 2.7V | 18:12:15 | 02:11:17 | 00:00:00 | |
| DM0DOS-11 | 2026-08-30 18:53:02 | 50.02470 | 8.39867 | 37° | 42km/h | 35613m | 5.8m/s | -30.7°C | 1.4% | 5.2hPa | 2.6V | 02:57:47 | 02:11:10 | 00:00:00 | |
| DL1XH-west | 2026-08-30 18:53:02 | 50.02480 | 8.39925 | 104° | 35km/h | 35634m | 3.9m/s | -30.7°C | 0% | 5.2hPa | 2.5V | 02:58:03 | 02:11:15 | 00:00:00 | |
| AA1-15 | 2026-08-30 18:53:00 | 50.02483 | 8.39900 | 87° | 31km/h | 35627m | 3.3m/s | -30.7°C | 0% | 5.2hPa | 2.6V | 02:58:03 | 02:11:13 | 00:00:00 | |
| DL1XH-15 | 2026-08-30 18:52:59 | 50.02437 | 8.39838 | 27° | 55km/h | 35598m | 3.9m/s | -30.7°C | 1.5% | 5.3hPa | 2.6V | 02:57:50 | 02:11:07 | 00:00:00 | |
| HSKMA3-T | 2026-08-30 18:52:57 | 50.02470 | 8.39867 | 38° | 42km/h | 35613m | 5.8m/s | -30.7°C | 0% | 5.2hPa | 2.6V | 02:58:03 | 02:11:10 | 00:00:00 | |
| DL1XH1-15 | 2026-08-30 18:52:57 | 50.02415 | 8.39816 | 40° | 47km/h | 35591m | 3m/s | -30.8°C | 1.4% | 5.3hPa | 2.6V | 02:57:52 | 02:11:05 | 00:00:00 | |
| BIOWL1-15 | 2026-08-30 18:52:54 | 50.02437 | 8.39838 | 28° | 55km/h | 35598m | 3.9m/s | -30.7°C | 0% | 5.3hPa | 2.6V | 02:58:03 | 02:11:07 | 00:00:00 | |
| DL1XH-west | 2026-08-30 18:52:52 | 50.02416 | 8.39816 | 41° | 47km/h | 35591m | 3m/s | -30.8°C | 0% | 5.3hPa | 2.6V | 02:58:03 | 02:11:05 | 00:00:00 | |
| DB0NH | 2026-08-30 18:52:52 | 50.02416 | 8.39816 | 41° | 44km/h | 35591m | 3.0m/s | -30.7°C | 1.4% | 5.2hPa | 2.6V | 02:57:00 | 02:11:05 | 00:00:00 | |
| DO3MHA-11 | 2026-08-30 18:52:51 | 50.02408 | 8.39803 | 54° | 37km/h | 35588m | 3.9m/s | -30.8°C | 1.4% | 5.2hPa | 2.5V | 00:00:00 | 02:11:04 | 00:00:00 | |
| DM0DOS-11 | 2026-08-30 18:52:50 | 50.02410 | 8.39718 | 96° | 35km/h | 35562m | 2.1m/s | -31.3°C | 1.5% | 5.3hPa | 2.5V | 02:57:59 | 02:10:58 | 00:00:00 | |
| AA1-15 | 2026-08-30 18:52:49 | 50.02402 | 8.39776 | 88° | 37km/h | 35578m | 5.6m/s | -30.9°C | 0% | 5.3hPa | 2.6V | 02:58:03 | 02:11:02 | 00:00:00 | |
| DL1XH-15 | 2026-08-30 18:52:49 | 50.02410 | 8.39706 | 77° | 31km/h | 35559m | 2.7m/s | -31.4°C | 1.5% | 5.3hPa | 2.6V | 02:58:00 | 02:10:57 | 00:00:00 | |
| HSKMA3-T | 2026-08-30 18:52:46 | 50.02408 | 8.39732 | 107° | 38km/h | 35564m | 2.6m/s | -31.2°C | 0% | 5.3hPa | 2.5V | 02:58:03 | 02:10:59 | 00:00:00 | |
| BUE01 | 2026-08-30 18:52:46 | 50.02410 | 8.39718 | 96° | 33km/h | 35562m | 2.1m/s | -31.3°C | 0.3% | 5.3hPa | 2.6V | 00:00:00 | 00:00:00 | 00:00:00 | |
| SONDE2-11 | 2026-08-30 18:52:45 | 50.02410 | 8.39718 | 96° | 33km/h | 35562m | 2.1m/s | -31.3°C | 0.3% | 5.3hPa | 2.6V | 00:00:00 | 00:00:00 | 00:00:00 | |
| BIOWL1-15 | 2026-08-30 18:52:43 | 50.02406 | 8.39694 | 56° | 33km/h | 35556m | 4.2m/s | -31.5°C | 0% | 5.3hPa | 2.6V | 02:58:03 | 02:10:56 | 00:00:00 | |
| DL1XH-west | 2026-08-30 18:52:41 | 50.02391 | 8.39675 | 27° | 47km/h | 35545m | 6.5m/s | -31.7°C | 0% | 5.3hPa | 2.5V | 02:58:03 | 02:10:54 | 00:00:00 | |
| CB1BUN | 2026-08-30 18:52:41 | 50.02391 | 8.39675 | 28° | 47km/h | 35545m | 6.5m/s | -31.7°C | 0.3% | 5.3hPa | 2.6V | 02:58:00 | 00:00:00 | 00:00:00 | |
| DB0UT-7 | 2026-08-30 18:52:40 | 50.02379 | 8.39667 | 20° | 37km/h | 35539m | 5.7m/s | -31.7°C | 1.5% | 5.3hPa | 2.6V | 00:00:00 | 00:00:00 | 00:00:00 | |
| DL1XH-15 | 2026-08-30 18:52:39 | 50.02325 | 8.39635 | 93° | 15km/h | 35517m | 6.3m/s | -31.8°C | 1.5% | 5.3hPa | 2.6V | 02:58:10 | 02:10:47 | 00:00:00 | |
| AA1-15 | 2026-08-30 18:52:38 | 50.02352 | 8.39655 | 15° | 53km/h | 35531m | 2.5m/s | -31.7°C | 0% | 5.3hPa | 2.6V | 02:58:54 | 02:10:51 | 00:00:00 | |
| DM0DOS-11 | 2026-08-30 18:52:38 | 50.02327 | 8.39628 | 127° | 22km/h | 35510m | 6.5m/s | -31.8°C | 1.5% | 5.3hPa | 2.7V | 02:58:11 | 02:10:46 | 00:00:00 | |
| GOEST3-10 | 2026-08-30 18:52:38 | 50.02352 | 8.39655 | 15° | 37km/h | 35531m | 2.4m/s | -31.7°C | 1.5% | 5.2hPa | 2.7V | 00:00:00 | 02:10:51 | 00:00:00 | |
| DL1XH1-15 | 2026-08-30 18:52:37 | 50.02331 | 8.39621 | 135° | 31km/h | 35504m | 5.1m/s | -31.8°C | 1.5% | 5.3hPa | 2.7V | 02:58:12 | 02:10:45 | 00:00:00 | |
| HSKMA3-T | 2026-08-30 18:52:35 | 50.02326 | 8.39640 | 43° | 18km/h | 35522m | 4.8m/s | -31.8°C | 0% | 5.3hPa | 2.5V | 02:58:54 | 02:10:48 | 00:00:00 | |
| BIOWL1-15 | 2026-08-30 18:52:32 | 50.02331 | 8.39621 | 136° | 31km/h | 35504m | 5.1m/s | -31.8°C | 0% | 5.3hPa | 2.7V | 02:58:54 | 02:10:45 | 00:00:00 | |
| DL1XH-west | 2026-08-30 18:52:31 | 50.02337 | 8.39611 | 132° | 35km/h | 35500m | 2.9m/s | -31.8°C | 0% | 5.3hPa | 2.6V | 02:58:54 | 02:10:44 | 00:00:00 | |
| DO9LL-15 | 2026-08-30 18:52:31 | 50.02337 | 8.39611 | 132° | 37km/h | 35501m | 2.9m/s | -31.7°C | 1.5% | 5.3hPa | 2.6V | 00:00:00 | 02:10:44 | 00:00:00 | |
| EDDB2-12 | 2026-08-30 18:52:30 | 50.02342 | 8.39601 | 119° | 33km/h | 35499m | 1.6m/s | -31.8°C | 0.3% | 5.3hPa | 2.6V | 00:00:00 | 00:00:00 | 00:00:00 | |
| DM7RM-13 | 2026-08-30 18:52:29 | 50.02342 | 8.39601 | 120° | 33km/h | 35499m | 1.6m/s | -31.8°C | 0.3% | 5.3hPa | 2.6V | 02:58:00 | 00:00:00 | 00:00:00 | |
| DM0DOS-11 | 2026-08-30 18:52:28 | 50.02286 | 8.39528 | 12° | 66km/h | 35467m | 2.5m/s | -31.8°C | 1.5% | 5.4hPa | 2.6V | 02:58:21 | 02:10:36 | 00:00:00 | |
| DK5PH-5 | 2026-08-30 18:52:28 | 50.02343 | 8.39577 | 71° | 44km/h | 35495m | 3.2m/s | -31.7°C | 1.5% | 5.3hPa | 2.6V | 00:00:00 | 02:10:41 | 00:00:00 | |
| DL1XH1-15 | 2026-08-30 18:52:27 | 50.02271 | 8.39524 | 9° | 57km/h | 35465m | 1m/s | -31.8°C | 1.5% | 5.3hPa | 2.6V | 02:58:22 | 02:10:35 | 00:00:00 | |
| AA1-15 | 2026-08-30 18:52:27 | 50.02339 | 8.39565 | 49° | 40km/h | 35490m | 5.4m/s | -31.8°C | 0% | 5.4hPa | 2.6V | 02:58:54 | 02:10:40 | 00:00:00 | |
| HSKMA3-T | 2026-08-30 18:52:24 | 50.02303 | 8.39535 | 17° | 68km/h | 35470m | 5.1m/s | -31.8°C | 0% | 5.4hPa | 2.6V | 02:58:54 | 02:10:37 | 00:00:00 | |
| BIOWL1-15 | 2026-08-30 18:52:22 | 50.02271 | 8.39524 | 10° | 57km/h | 35465m | 1m/s | -31.8°C | 0% | 5.3hPa | 2.6V | 02:58:54 | 02:10:35 | 00:00:00 | |
| DL1XH-west | 2026-08-30 18:52:20 | 50.02251 | 8.39518 | 15° | 26km/h | 35461m | 3.6m/s | -31.9°C | 0% | 5.4hPa | 2.5V | 02:58:54 | 02:10:33 | 00:00:00 | |
| DL1XH-15 | 2026-08-30 18:52:19 | 50.02262 | 8.39485 | 105° | 24km/h | 35434m | 1.4m/s | -32.2°C | 1.5% | 5.4hPa | 2.6V | 02:58:30 | 02:10:27 | 00:00:00 | |
| DF1GD-15 | 2026-08-30 18:52:18 | 50.02246 | 8.39515 | 38° | 13km/h | 35457m | 5.8m/s | -31.9°C | 0.3% | 5.4hPa | 2.6V | 02:58:00 | 00:00:00 | 00:00:00 | |
| DL1XH1-15 | 2026-08-30 18:52:17 | 50.02258 | 8.39466 | 44° | 33km/h | 35428m | 4.9m/s | -32.4°C | 1.5% | 5.4hPa | 2.6V | 02:58:32 | 02:10:25 | 00:00:00 | |
| AA1-15 | 2026-08-30 18:52:16 | 50.02254 | 8.39501 | 143° | 29km/h | 35438m | 3.8m/s | -32.1°C | 0% | 5.4hPa | 2.6V | 02:58:54 | 02:10:29 | 00:00:00 | |
| HSKMA3-T | 2026-08-30 18:52:13 | 50.02262 | 8.39476 | 71° | 26km/h | 35432m | 2.5m/s | -32.3°C | 0% | 5.4hPa | 2.6V | 02:58:54 | 02:10:26 | 00:00:00 | |
| BIOWL1-15 | 2026-08-30 18:52:12 | 50.02258 | 8.39466 | 44° | 33km/h | 35428m | 4.9m/s | -32.4°C | 0% | 5.4hPa | 2.6V | 02:58:54 | 02:10:25 | 00:00:00 | |
| DO3MHA-11 | 2026-08-30 18:52:11 | 50.02250 | 8.39458 | 28° | 40km/h | 35423m | 6.6m/s | -32.6°C | 1.5% | 5.4hPa | 2.5V | 00:00:00 | 02:10:24 | 00:00:00 | |
| DB0UT-7 | 2026-08-30 18:52:10 | 50.02238 | 8.39450 | 18° | 37km/h | 35417m | 6.9m/s | -32.8°C | 1.6% | 5.3hPa | 2.5V | 02:58:00 | 02:10:23 | 00:00:00 | |
| DL1XH-15 | 2026-08-30 18:52:09 | 50.02166 | 8.39444 | 349° | 11km/h | 35394m | 5.5m/s | -33.3°C | 1.6% | 5.4hPa | 2.5V | 02:58:40 | 02:10:17 | 00:00:00 | |
| DL1XH-west | 2026-08-30 18:52:09 | 50.02223 | 8.39445 | 10° | 66km/h | 35410m | 5.5m/s | -33°C | 0% | 5.4hPa | 2.5V | 02:58:54 | 02:10:22 | 00:00:00 | |
| AA1-15 | 2026-08-30 18:52:05 | 50.02170 | 8.39443 | 353° | 26km/h | 35399m | 3.5m/s | -33.2°C | 0% | 5.4hPa | 2.6V | 02:58:54 | 02:10:18 | 00:00:00 | |
| BIOWL1-15 | 2026-08-30 18:52:03 | 50.02173 | 8.39440 | 157° | 26km/h | 35376m | 4.1m/s | -33.5°C | 0% | 5.4hPa | 2.6V | 02:58:54 | 02:10:14 | 00:00:00 | |
| HSKMA3-T | 2026-08-30 18:52:02 | 50.02168 | 8.39443 | 164° | 18km/h | 35381m | 6.3m/s | -33.4°C | 0% | 5.4hPa | 2.5V | 02:58:54 | 02:10:15 | 00:00:00 | |
| DL1XH-west | 2026-08-30 18:51:58 | 50.02182 | 8.39422 | 65° | 18km/h | 35370m | 2.4m/s | -33.5°C | 0% | 5.5hPa | 2.5V | 02:58:54 | 02:10:11 | 00:00:00 | |
| DL3AQ-11 | 2026-08-30 18:51:57 | 50.02158 | 8.39407 | 6° | 55km/h | 35354m | 7.0m/s | -33.7°C | 0.3% | 5.5hPa | 2.6V | 00:00:00 | 00:00:00 | 00:00:00 | |
| DJ2KF-10 | 2026-08-30 18:51:56 | 50.02170 | 8.39411 | 17° | 35km/h | 35361m | 6.3m/s | -33.6°C | 1.6% | 5.4hPa | 2.6V | 02:58:00 | 02:10:09 | 00:00:00 | |
| DM0DOS-11 | 2026-08-30 18:51:54 | 50.02084 | 8.39424 | 324° | 16km/h | 35331m | 6m/s | -33.9°C | 1.6% | 5.5hPa | 2.5V | 02:58:55 | 02:10:02 | 00:00:00 | |
| AA1-15 | 2026-08-30 18:51:54 | 50.02143 | 8.39406 | 0° | 64km/h | 35348m | 5.6m/s | -33.7°C | 0% | 5.5hPa | 2.5V | 02:58:54 | 02:10:07 | 00:00:00 | |
| HSKMA3-T | 2026-08-30 18:51:51 | 50.02098 | 8.39415 | 344° | 47km/h | 35339m | 2m/s | -33.8°C | 0% | 5.5hPa | 2.6V | 02:58:54 | 02:10:04 | 00:00:00 | |
| BIOWL1-15 | 2026-08-30 18:51:50 | 50.02089 | 8.39420 | 338° | 31km/h | 35336m | 3.7m/s | -33.9°C | 0% | 5.5hPa | 2.6V | 02:58:54 | 02:10:03 | 00:00:00 | |
| DL1XH-15 | 2026-08-30 18:51:49 | 50.02097 | 8.39417 | 106° | 18km/h | 35307m | 1.4m/s | -34.2°C | 1.7% | 5.5hPa | 2.6V | 02:59:00 | 02:09:57 | 00:00:00 | |
| DF3TZ-5 | 2026-08-30 18:51:47 | 50.02084 | 8.39428 | 179° | 15km/h | 35318m | 6.5m/s | -34.0°C | 0.3% | 5.5hPa | 2.7V | 00:00:00 | 00:00:00 | 00:00:00 | |
| DL1XH-west | 2026-08-30 18:51:47 | 50.02084 | 8.39428 | 179° | 15km/h | 35318m | 6.5m/s | -34°C | 0% | 5.5hPa | 2.5V | 02:59:45 | 02:10:00 | 00:00:00 | |
| DL3AQ-11 | 2026-08-30 18:51:46 | 50.02094 | 8.39423 | 142° | 20km/h | 35310m | 2.2m/s | -34.2°C | 0.3% | 5.5hPa | 2.7V | 00:00:00 | 00:00:00 | 00:00:00 | |
| DO1YAY-16 | 2026-08-30 18:51:45 | 50.02097 | 8.39417 | 106° | 16km/h | 35308m | 1.4m/s | -34.2°C | 0.3% | 5.5hPa | 2.7V | 00:00:00 | 00:00:00 | 00:00:00 | |
| DM0DOS-11 | 2026-08-30 18:51:44 | 50.02053 | 8.39387 | 4° | 69km/h | 35283m | 5.8m/s | -34.5°C | 1.7% | 5.5hPa | 2.7V | 02:59:05 | 02:09:52 | 00:00:00 | |
| AA1-15 | 2026-08-30 18:51:44 | 50.02097 | 8.39417 | 107° | 18km/h | 35307m | 1.4m/s | -34.2°C | 0% | 5.5hPa | 2.6V | 02:59:45 | 02:09:57 | 00:00:00 | |
| HSKMA3-T | 2026-08-30 18:51:40 | 50.02069 | 8.39390 | 11° | 60km/h | 35289m | 7.2m/s | -34.4°C | 0% | 5.5hPa | 2.6V | 02:59:45 | 02:09:53 | 00:00:00 | |
| DB0UT-7 | 2026-08-30 18:51:40 | 50.02069 | 8.39390 | 12° | 33km/h | 35290m | 7.1m/s | -34.4°C | 1.7% | 5.5hPa | 2.6V | 00:00:00 | 00:00:00 | 00:00:00 | |
| DL1XH-15 | 2026-08-30 18:51:39 | 50.01987 | 8.39393 | 346° | 18km/h | 35267m | 5.9m/s | -34.7°C | 1.7% | 5.5hPa | 2.6V | 02:59:10 | 02:09:47 | 00:00:00 | |
| BIOWL1-15 | 2026-08-30 18:51:39 | 50.02053 | 8.39387 | 5° | 69km/h | 35283m | 5.8m/s | -34.5°C | 0% | 5.5hPa | 2.7V | 02:59:45 | 02:09:52 | 00:00:00 | |
| DL1XH-west | 2026-08-30 18:51:37 | 50.02018 | 8.39387 | 356° | 64km/h | 35276m | 1.3m/s | -34.6°C | 0% | 5.5hPa | 2.6V | 02:59:45 | 02:09:50 | 00:00:00 | |
| DD1CC8 | 2026-08-30 18:51:36 | 50.02004 | 8.39389 | 352° | 49km/h | 35275m | 1.5m/s | -34.6°C | 0.3% | 5.5hPa | 2.5V | 00:00:00 | 00:00:00 | 00:00:00 | |
| DM0DOS-11 | 2026-08-30 18:51:34 | 50.01999 | 8.39383 | 122° | 15km/h | 35242m | 1.5m/s | -34.8°C | 1.7% | 5.5hPa | 2.5V | 02:59:15 | 02:09:42 | 00:00:00 | |
| AA1-15 | 2026-08-30 18:51:33 | 50.01985 | 8.39394 | 314° | 2km/h | 35260m | 7.5m/s | -34.7°C | 0% | 5.5hPa | 2.6V | 02:59:45 | 02:09:46 | 00:00:00 | |
| HSKMA3-T | 2026-08-30 18:51:30 | 50.01996 | 8.39388 | 149° | 22km/h | 35244m | 2.4m/s | -34.8°C | 0% | 5.5hPa | 2.6V | 02:59:45 | 02:09:43 | 00:00:00 | |
| BIOWL1-15 | 2026-08-30 18:51:28 | 50.01999 | 8.39379 | 60° | 15km/h | 35240m | 2.5m/s | -34.8°C | 0% | 5.6hPa | 2.5V | 02:59:45 | 02:09:41 | 00:00:00 | |
| DK5PH-5 | 2026-08-30 18:51:28 | 50.01999 | 8.39379 | 60° | 35km/h | 35240m | 2.5m/s | -34.8°C | 1.8% | 5.5hPa | 2.5V | 00:00:00 | 02:09:41 | 00:00:00 | |
| DL1XH1-15 | 2026-08-30 18:51:27 | 50.01929 | 8.39371 | 352° | 57km/h | 35211m | 1.2m/s | -35°C | 1.8% | 5.6hPa | 2.5V | 02:59:22 | 02:09:35 | 00:00:00 | |
| DL1XH-west | 2026-08-30 18:51:27 | 50.01995 | 8.39374 | 24° | 26km/h | 35236m | 4.6m/s | -34.9°C | 0% | 5.6hPa | 2.6V | 02:59:45 | 02:09:40 | 00:00:00 | |
| DJ2KF-10 | 2026-08-30 18:51:26 | 50.01987 | 8.39371 | 12° | 33km/h | 35231m | 6.5m/s | -34.9°C | 1.8% | 5.5hPa | 2.6V | 00:00:00 | 02:09:39 | 00:00:00 | |
| DM0DOS-11 | 2026-08-30 18:51:24 | 50.01904 | 8.39382 | 316° | 13km/h | 35203m | 6.1m/s | -35°C | 1.8% | 5.6hPa | 2.6V | 02:59:25 | 02:09:32 | 00:00:00 | |
| AA1-15 | 2026-08-30 18:51:22 | 50.01930 | 8.39371 | 352° | 57km/h | 35211m | 1.2m/s | -35°C | 0% | 5.6hPa | 2.5V | 02:59:45 | 02:09:35 | 00:00:00 | |
| HSKMA3-T | 2026-08-30 18:51:20 | 50.01909 | 8.39378 | 340° | 27km/h | 35207m | 3.6m/s | -35°C | 0% | 5.6hPa | 2.6V | 02:59:45 | 02:09:33 | 00:00:00 | |
| BIOWL1-15 | 2026-08-30 18:51:18 | 50.01904 | 8.39385 | 224° | 11km/h | 35196m | 7.5m/s | -35°C | 0% | 5.6hPa | 2.5V | 02:59:45 | 02:09:31 | 00:00:00 | |
| DL1XH-west | 2026-08-30 18:51:17 | 50.01908 | 8.39387 | 193° | 22km/h | 35188m | 7.3m/s | -35.1°C | 0% | 5.6hPa | 2.5V | 02:59:45 | 02:09:30 | 00:00:00 | |
| CB1BUN | 2026-08-30 18:51:16 | 50.01908 | 8.39387 | 194° | 22km/h | 35189m | 7.3m/s | -35.1°C | 0.3% | 5.6hPa | 2.7V | 02:59:00 | 00:00:00 | 00:00:00 | |
| DF1GD-15 | 2026-08-30 18:51:15 | 50.01914 | 8.39388 | 185° | 29km/h | 35182m | 5.0m/s | -35.1°C | 0.4% | 5.6hPa | 2.7V | 02:59:00 | 00:00:00 | 00:00:00 | |
| DM0DOS-11 | 2026-08-30 18:51:14 | 50.01901 | 8.39388 | 355° | 57km/h | 35153m | 5.5m/s | -35.1°C | 1.7% | 5.6hPa | 2.7V | 02:59:35 | 02:09:22 | 00:00:00 | |
| AA1-15 | 2026-08-30 18:51:11 | 50.01923 | 8.39387 | 0° | 29km/h | 35166m | 6.4m/s | -35.1°C | 0% | 5.6hPa | 2.5V | 02:59:45 | 02:09:24 | 00:00:00 | |
| HSKMA3-T | 2026-08-30 18:51:09 | 50.01901 | 8.39388 | 355° | 57km/h | 35153m | 5.5m/s | -35.1°C | 0% | 5.6hPa | 2.7V | 02:59:45 | 02:09:22 | 00:00:00 | |
| BIOWL1-15 | 2026-08-30 18:51:08 | 50.01887 | 8.39391 | 353° | 58km/h | 35149m | 2.9m/s | -35.1°C | 0% | 5.6hPa | 2.6V | 02:59:45 | 02:09:21 | 00:00:00 | |
| DL1XH-west | 2026-08-30 18:51:06 | 50.01862 | 8.39397 | 345° | 38km/h | 35145m | 1.6m/s | -35.2°C | 0% | 5.6hPa | 2.5V | 02:59:45 | 02:09:19 | 00:00:00 | |
| DL3AQ-11 | 2026-08-30 18:51:06 | 50.01855 | 8.39401 | 332° | 24km/h | 35143m | 3.7m/s | -35.3°C | 0.4% | 5.6hPa | 2.6V | 00:00:00 | 00:00:00 | 00:00:00 | |
| GOEST3-10 | 2026-08-30 18:51:05 | 50.01855 | 8.39401 | 333° | 22km/h | 35143m | 3.7m/s | -35.2°C | 1.8% | 5.6hPa | 2.6V | 00:00:00 | 02:09:18 | 00:00:00 | |
| DM0DOS-11 | 2026-08-30 18:51:04 | 50.01880 | 8.39427 | 205° | 22km/h | 35113m | 1.1m/s | -35.7°C | 1.8% | 5.7hPa | 2.6V | 02:59:45 | 02:09:12 | 00:00:00 | |
| AA1-15 | 2026-08-30 18:51:00 | 50.01873 | 8.39423 | 198° | 33km/h | 35114m | 2m/s | -35.7°C | 0% | 5.7hPa | 2.5V | 02:59:45 | 02:09:13 | 00:00:00 | |
| GOEST3-10 | 2026-08-30 18:51:00 | 50.01873 | 8.39423 | 198° | 29km/h | 35114m | 2.0m/s | -35.6°C | 1.8% | 5.6hPa | 2.5V | 02:59:00 | 00:00:00 | 00:00:00 | |
| DL1XH-15 | 2026-08-30 18:50:59 | 50.01857 | 8.39446 | 349° | 55km/h | 35089m | 4.9m/s | -36°C | 1.8% | 5.7hPa | 2.7V | 02:59:50 | 02:09:07 | 00:00:00 | |
| HSKMA3-T | 2026-08-30 18:50:59 | 50.01880 | 8.39427 | 206° | 22km/h | 35113m | 1.1m/s | -35.7°C | 0% | 5.7hPa | 2.6V | 02:59:45 | 02:09:12 | 00:00:00 | |
| BIOWL1-15 | 2026-08-30 18:50:57 | 50.01882 | 8.39435 | 318° | 15km/h | 35107m | 4.8m/s | -35.8°C | 0% | 5.7hPa | 2.6V | 03:00:36 | 02:09:10 | 00:00:00 | |
| DL1XH-west | 2026-08-30 18:50:55 | 50.01869 | 8.39442 | 348° | 44km/h | 35095m | 7m/s | -35.9°C | 0% | 5.7hPa | 2.6V | 03:00:36 | 02:09:08 | 00:00:00 | |
| DJ2DS-15 | 2026-08-30 18:50:54 | 50.01857 | 8.39446 | 349° | 53km/h | 35089m | 4.9m/s | -36.0°C | 0.4% | 5.7hPa | 2.6V | 00:00:00 | 00:00:00 | 00:00:00 | |
| BIOWL9-15 | 2026-08-30 18:50:52 | 50.01822 | 8.39459 | 333° | 31km/h | 35083m | 1.4m/s | -36.0°C | 0.4% | 5.7hPa | 2.6V | 00:00:00 | 00:00:00 | 00:00:00 | |
| DB0ND-19 | 2026-08-30 18:50:51 | 50.01822 | 8.39459 | 333° | 31km/h | 35083m | 1.4m/s | -36.0°C | 0.4% | 5.7hPa | 2.6V | 00:00:00 | 00:00:00 | 00:00:00 | |
| DL3AQ-11 | 2026-08-30 18:50:50 | 50.01817 | 8.39472 | 250° | 18km/h | 35075m | 6.8m/s | -36.1°C | 0.4% | 5.7hPa | 2.6V | 00:00:00 | 00:00:00 | 00:00:00 | |
| DL1XH-15 | 2026-08-30 18:50:49 | 50.01859 | 8.39511 | 212° | 35km/h | 35049m | 1.2m/s | -36°C | 1.9% | 5.7hPa | 2.6V | 03:00:00 | 02:08:57 | 00:00:00 | |
| AA1-15 | 2026-08-30 18:50:49 | 50.01817 | 8.39472 | 251° | 18km/h | 35075m | 6.8m/s | -36.1°C | 0% | 5.7hPa | 2.7V | 03:00:36 | 02:09:02 | 00:00:00 | |
| BIOWL1-15 | 2026-08-30 18:50:49 | 50.01828 | 8.39487 | 208° | 44km/h | 35060m | 7m/s | -36°C | 0% | 5.7hPa | 2.6V | 03:00:36 | 02:09:00 | 00:00:00 | |
| HSKMA3-T | 2026-08-30 18:50:48 | 50.01820 | 8.39479 | 220° | 31km/h | 35067m | 8.1m/s | -36.1°C | 0% | 5.7hPa | 2.7V | 03:00:36 | 02:09:01 | 00:00:00 | |
| DL1XH-west | 2026-08-30 18:50:45 | 50.01850 | 8.39503 | 206° | 46km/h | 35050m | 2.1m/s | -36°C | 0% | 5.7hPa | 2.5V | 03:00:36 | 02:08:58 | 00:00:00 | |
| DH7VM-15 | 2026-08-30 18:50:45 | 50.01850 | 8.39503 | 207° | 46km/h | 35051m | 2.1m/s | -36.0°C | 0.4% | 5.7hPa | 2.6V | 00:00:00 | 00:00:00 | 00:00:00 | |
| DM0DOS-11 | 2026-08-30 18:50:44 | 50.01846 | 8.39536 | 350° | 44km/h | 35023m | 5.6m/s | -36.1°C | 1.9% | 5.7hPa | 2.6V | 03:00:05 | 02:08:52 | 00:00:00 | |
| AA1-15 | 2026-08-30 18:50:38 | 50.01835 | 8.39538 | 351° | 46km/h | 35019m | 2.9m/s | -36.1°C | 0% | 5.7hPa | 2.7V | 03:00:36 | 02:08:51 | 00:00:00 | |
| HSKMA3-T | 2026-08-30 18:50:37 | 50.01825 | 8.39541 | 347° | 37km/h | 35017m | 1.2m/s | -36.1°C | 0% | 5.7hPa | 2.6V | 03:00:36 | 02:08:50 | 00:00:00 | |
| BIOWL1-15 | 2026-08-30 18:50:36 | 50.01817 | 8.39545 | 333° | 24km/h | 35016m | 1.4m/s | -36.1°C | 0% | 5.8hPa | 2.6V | 03:00:36 | 02:08:49 | 00:00:00 | |
| NBG1-10 | 2026-08-30 18:50:36 | 50.01817 | 8.39545 | 334° | 29km/h | 35016m | 1.3m/s | -36.0°C | 1.9% | 5.7hPa | 2.5V | 00:00:00 | 02:08:49 | 00:00:00 | |
| DO3DL | 2026-08-30 18:50:35 | 50.01817 | 8.39545 | 334° | 26km/h | 35016m | 1.4m/s | -36.1°C | 0.4% | 5.7hPa | 2.5V | 03:00:00 | 00:00:00 | 00:00:00 | |
| DM0DOS-11 | 2026-08-30 18:50:34 | 50.01862 | 8.39602 | 213° | 44km/h | 34983m | 1.4m/s | -36°C | 1.8% | 5.8hPa | 2.5V | 03:00:15 | 02:08:42 | 00:00:00 | |
| DL1XH-west | 2026-08-30 18:50:34 | 50.01814 | 8.39556 | 238° | 20km/h | 35009m | 5.8m/s | -36.1°C | 0% | 5.8hPa | 2.5V | 03:00:36 | 02:08:47 | 00:00:00 | |
| BIOWL1-15 | 2026-08-30 18:50:28 | 50.01873 | 8.39625 | 300° | 16km/h | 34972m | 6.5m/s | -35.9°C | 0% | 5.8hPa | 2.6V | 03:00:36 | 02:08:39 | 00:00:00 | |
| DK5PH-5 | 2026-08-30 18:50:28 | 50.01869 | 8.39611 | 225° | 29km/h | 34981m | 2.4m/s | -35.9°C | 1.9% | 5.8hPa | 2.6V | 00:00:00 | 02:08:41 | 00:00:00 | |
| DL1XH1-15 | 2026-08-30 18:50:27 | 50.01846 | 8.39634 | 354° | 27km/h | 34952m | 1.8m/s | -35.8°C | 1.9% | 5.8hPa | 2.6V | 03:00:22 | 02:08:35 | 00:00:00 | |
| HSKMA3-T | 2026-08-30 18:50:27 | 50.01873 | 8.39619 | 248° | 20km/h | 34977m | 4.7m/s | -35.9°C | 0% | 5.8hPa | 2.7V | 03:00:36 | 02:08:40 | 00:00:00 | |
| DL1XH-west | 2026-08-30 18:50:23 | 50.01853 | 8.39634 | 356° | 35km/h | 34954m | 3.5m/s | -35.8°C | 0% | 5.8hPa | 2.6V | 03:00:36 | 02:08:36 | 00:00:00 | |
| DM0DOS-11 | 2026-08-30 18:50:22 | 50.01857 | 8.39654 | 203° | 49km/h | 34928m | 6.7m/s | -35.8°C | 1.9% | 5.8hPa | 2.7V | 03:00:27 | 02:08:30 | 00:00:00 | |
| DO3MHA-11 | 2026-08-30 18:50:21 | 50.01841 | 8.39636 | 343° | 31km/h | 34950m | 2.0m/s | -35.8°C | 1.9% | 5.8hPa | 2.7V | 00:00:00 | 02:08:34 | 00:00:00 | |
| DB0ND-19 | 2026-08-30 18:50:20 | 50.01842 | 8.39642 | 214° | 20km/h | 34942m | 5.9m/s | -35.8°C | 0.4% | 5.8hPa | 2.7V | 00:00:00 | 00:00:00 | 00:00:00 | |
| EDDB2-11 | 2026-08-30 18:50:18 | 50.01848 | 8.39647 | 205° | 35km/h | 34936m | 7.4m/s | -35.8°C | 0.4% | 5.8hPa | 2.7V | 00:00:00 | 00:00:00 | 00:00:00 | |
| DL1XH1-15 | 2026-08-30 18:50:17 | 50.01904 | 8.39689 | 234° | 11km/h | 34911m | 5.3m/s | -35.8°C | 1.8% | 5.8hPa | 2.7V | 03:00:32 | 02:08:25 | 00:00:00 | |
| HSKMA3-T | 2026-08-30 18:50:17 | 50.01858 | 8.39654 | 203° | 49km/h | 34928m | 6.7m/s | -35.8°C | 0% | 5.8hPa | 2.7V | 03:00:36 | 02:08:30 | 00:00:00 | |
| AA1-15 | 2026-08-30 18:50:16 | 50.01870 | 8.39662 | 203° | 57km/h | 34923m | 4.1m/s | -35.8°C | 0% | 5.8hPa | 2.6V | 03:00:36 | 02:08:29 | 00:00:00 | |
| BIOWL1-15 | 2026-08-30 18:50:15 | 50.01882 | 8.39670 | 204° | 53km/h | 34920m | 2m/s | -35.8°C | 0% | 5.8hPa | 2.6V | 03:00:36 | 02:08:28 | 00:00:00 | |
| DL1XH-west | 2026-08-30 18:50:13 | 50.01900 | 8.39685 | 213° | 26km/h | 34916m | 3.2m/s | -35.8°C | 0% | 5.8hPa | 2.6V | 03:00:36 | 02:08:26 | 00:00:00 | |
| BIOWL1-15 | 2026-08-30 18:50:08 | 50.01883 | 8.39685 | 194° | 26km/h | 34876m | 6.8m/s | -35.7°C | 0% | 5.9hPa | 2.6V | 03:01:27 | 02:08:17 | 00:00:00 | |
| DL1XH1-15 | 2026-08-30 18:50:07 | 50.01902 | 8.39694 | 199° | 53km/h | 34862m | 6m/s | -35.7°C | 1.8% | 5.9hPa | 2.6V | 03:00:42 | 02:08:15 | 00:00:00 | |
| HSKMA3-T | 2026-08-30 18:50:06 | 50.01878 | 8.39684 | 33° | 5km/h | 34885m | 2.6m/s | -35.7°C | 0% | 5.9hPa | 2.7V | 03:01:27 | 02:08:19 | 00:00:00 | |
| AA1-15 | 2026-08-30 18:50:05 | 50.01878 | 8.39683 | 184° | 9km/h | 34882m | 4.7m/s | -35.7°C | 0% | 5.9hPa | 2.6V | 03:01:27 | 02:08:18 | 00:00:00 | |
| DL1XH-west | 2026-08-30 18:50:03 | 50.01891 | 8.39688 | 197° | 40km/h | 34869m | 7.5m/s | -35.7°C | 0% | 5.8hPa | 2.5V | 03:01:27 | 02:08:16 | 00:00:00 | |
| DC4HF-4 | 2026-08-30 18:50:02 | 50.01915 | 8.39701 | 201° | 55km/h | 34857m | 3.6m/s | -35.7°C | 0.4% | 5.9hPa | 2.5V | 00:00:00 | 00:00:00 | 00:00:00 | |
| DO9LL-15 | 2026-08-30 18:50:01 | 50.01915 | 8.39701 | 202° | 31km/h | 34858m | 3.5m/s | -35.6°C | 1.8% | 5.8hPa | 2.5V | 03:00:00 | 02:08:14 | 00:00:00 | |
| HEMX73-11 | 2026-08-30 18:50:00 | 50.01915 | 8.39701 | 203° | 57km/h | 34858m | 3.6m/s | -35.7°C | 0.4% | 5.9hPa | 2.5V | 03:01:00 | 00:00:00 | 00:00:00 | |
| DB0NH | 2026-08-30 18:49:59 | 50.01937 | 8.39717 | 208° | 31km/h | 34852m | 2.3m/s | -35.6°C | 1.8% | 5.9hPa | 2.5V | 00:00:00 | 02:08:12 | 00:00:00 | |
| DK5PH-5 | 2026-08-30 18:49:58 | 50.01944 | 8.39723 | 213° | 31km/h | 34849m | 4.2m/s | -35.7°C | 1.8% | 5.8hPa | 2.5V | 00:00:00 | 02:08:11 | 00:00:00 | |
| DL1XH1-15 | 2026-08-30 18:49:57 | 50.01929 | 8.39713 | 59° | 15km/h | 34820m | 2.1m/s | -35.8°C | 1.9% | 5.9hPa | 2.5V | 03:00:52 | 02:08:05 | 00:00:00 | |
| BIOWL1-15 | 2026-08-30 18:49:55 | 50.01932 | 8.39718 | 36° | 24km/h | 34822m | 2.2m/s | -35.8°C | 0% | 5.9hPa | 2.5V | 03:01:27 | 02:08:06 | 00:00:00 | |
| HSKMA3-T | 2026-08-30 18:49:55 | 50.01943 | 8.39727 | 19° | 20km/h | 34830m | 6m/s | -35.8°C | 0% | 5.9hPa | 2.7V | 03:01:27 | 02:08:08 | 00:00:00 | |
| AA1-15 | 2026-08-30 18:49:54 | 50.01937 | 8.39723 | 27° | 26km/h | 34825m | 3.8m/s | -35.8°C | 0% | 5.9hPa | 2.6V | 03:01:27 | 02:08:07 | 00:00:00 | |
| DJ2DS-15 | 2026-08-30 18:49:54 | 50.01937 | 8.39723 | 28° | 27km/h | 34826m | 3.8m/s | -35.7°C | 1.8% | 5.9hPa | 2.6V | 00:00:00 | 02:08:07 | 00:00:00 | |
| DM0DOS-11 | 2026-08-30 18:49:52 | 50.01962 | 8.39711 | 194° | 57km/h | 34793m | 5m/s | -35.8°C | 1.8% | 5.9hPa | 2.5V | 03:00:57 | 02:08:00 | 00:00:00 | |
| DL1XH-west | 2026-08-30 18:49:52 | 50.01929 | 8.39713 | 59° | 15km/h | 34820m | 2.2m/s | -35.8°C | 0% | 5.9hPa | 2.5V | 03:01:27 | 02:08:05 | 00:00:00 | |
| BIOWL9-15 | 2026-08-30 18:49:50 | 50.01939 | 8.39705 | 182° | 35km/h | 34806m | 7.2m/s | -35.8°C | 0.4% | 5.9hPa | 2.5V | 00:00:00 | 00:00:00 | 00:00:00 | |
| DB0ND-19 | 2026-08-30 18:49:49 | 50.01949 | 8.39707 | 189° | 47km/h | 34799m | 7.0m/s | -35.8°C | 0.4% | 6.0hPa | 2.5V | 00:00:00 | 00:00:00 | 00:00:00 | |
| KANTATE | 2026-08-30 18:49:48 | 50.01939 | 8.39705 | 183° | 35km/h | 34806m | 7.2m/s | -35.8°C | 0.4% | 5.9hPa | 2.5V | 03:01:00 | 00:00:00 | 00:00:00 | |
| DL1XH1-15 | 2026-08-30 18:49:47 | 50.02005 | 8.39735 | 207° | 4km/h | 34773m | 6.4m/s | -35.9°C | 1.9% | 6hPa | 2.5V | 03:01:02 | 02:07:55 | 00:00:00 | |
| DL1ZP-14 | 2026-08-30 18:49:46 | 50.01976 | 8.39717 | 197° | 53km/h | 34789m | 2.9m/s | -35.8°C | 0.4% | 5.9hPa | 2.6V | 00:00:00 | 00:00:00 | 00:00:00 | |
| HSKMA3-T | 2026-08-30 18:49:44 | 50.01997 | 8.39729 | 203° | 33km/h | 34783m | 3.3m/s | -35.9°C | 0% | 6hPa | 2.7V | 03:01:27 | 02:07:57 | 00:00:00 | |
| AA1-15 | 2026-08-30 18:49:43 | 50.02003 | 8.39733 | 206° | 18km/h | 34779m | 5.1m/s | -35.9°C | 0% | 6hPa | 2.6V | 03:01:27 | 02:07:56 | 00:00:00 | |
| DL1XH-west | 2026-08-30 18:49:42 | 50.02005 | 8.39735 | 207° | 4km/h | 34773m | 6.4m/s | -35.9°C | 0% | 6hPa | 2.5V | 03:01:27 | 02:07:55 | 00:00:00 | |
| HSKMA3-T | 2026-08-30 18:49:34 | 50.02019 | 8.39701 | 182° | 47km/h | 34736m | 6.5m/s | -35.9°C | 0% | 6hPa | 2.7V | 03:01:27 | 02:07:47 | 00:00:00 | |
| AA1-15 | 2026-08-30 18:49:33 | 50.02032 | 8.39703 | 189° | 57km/h | 34730m | 5m/s | -35.9°C | 0% | 6hPa | 2.6V | 03:01:27 | 02:07:46 | 00:00:00 | |
| DL1XH-west | 2026-08-30 18:49:31 | 50.02059 | 8.39713 | 199° | 49km/h | 34723m | 2.2m/s | -35.9°C | 0% | 6hPa | 2.6V | 03:01:27 | 02:07:44 | 00:00:00 | |
| DO3MHA-11 | 2026-08-30 18:49:31 | 50.02059 | 8.39713 | 199° | 22km/h | 34724m | 2.2m/s | -35.8°C | 1.9% | 6.0hPa | 2.6V | 00:00:00 | 02:07:44 | 00:00:00 | |
| NBG1-10 | 2026-08-30 18:49:30 | 50.02069 | 8.39719 | 203° | 27km/h | 34721m | 3.0m/s | -35.8°C | 1.9% | 6.0hPa | 2.6V | 00:00:00 | 02:07:43 | 00:00:00 | |
| DB0NH | 2026-08-30 18:49:29 | 50.02076 | 8.39724 | 207° | 27km/h | 34717m | 4.9m/s | -35.8°C | 1.9% | 6.0hPa | 2.7V | 03:01:00 | 02:07:42 | 00:00:00 | |
| DK5PH-5 | 2026-08-30 18:49:28 | 50.02079 | 8.39727 | 216° | 22km/h | 34712m | 6.5m/s | -35.8°C | 1.9% | 6.0hPa | 2.6V | 00:00:00 | 02:07:41 | 00:00:00 | |
| DL1XH1-15 | 2026-08-30 18:49:27 | 50.02070 | 8.39699 | 135° | 20km/h | 34683m | 4.2m/s | -35.9°C | 1.9% | 6.1hPa | 2.6V | 03:01:22 | 02:07:35 | 00:00:00 | |
| HSKMA3-T | 2026-08-30 18:49:23 | 50.02068 | 8.39705 | 94° | 18km/h | 34687m | 2.6m/s | -35.9°C | 0% | 6hPa | 2.7V | 03:01:27 | 02:07:36 | 00:00:00 | |
| AA1-15 | 2026-08-30 18:49:22 | 50.02070 | 8.39699 | 136° | 20km/h | 34683m | 4.2m/s | -35.9°C | 0% | 6.1hPa | 2.6V | 03:01:27 | 02:07:35 | 00:00:00 | |
| DL1XH-west | 2026-08-30 18:49:20 | 50.02084 | 8.39692 | 177° | 42km/h | 34672m | 6.4m/s | -35.9°C | 0% | 6hPa | 2.6V | 03:01:27 | 02:07:33 | 00:00:00 | |
| HEMX73-11 | 2026-08-30 18:49:19 | 50.02084 | 8.39692 | 178° | 42km/h | 34673m | 6.4m/s | -35.9°C | 0.4% | 6.0hPa | 2.7V | 03:01:00 | 00:00:00 | 00:00:00 | |
| DL1XH1-15 | 2026-08-30 18:49:17 | 50.02137 | 8.39706 | 33° | 24km/h | 34634m | 6.4m/s | -35.7°C | 1.9% | 6.1hPa | 2.7V | 03:01:32 | 02:07:25 | 00:00:00 | |
| DF8AY | 2026-08-30 18:49:17 | 50.02121 | 8.39701 | 195° | 47km/h | 34659m | 2.1m/s | -35.9°C | 0% | 6hPa | 2.6V | 03:01:27 | 02:07:30 | 00:00:00 | |
| DL3AQ-11 | 2026-08-30 18:49:17 | 50.02131 | 8.39705 | 197° | 35km/h | 34657m | 2.5m/s | -35.9°C | 0.4% | 6.1hPa | 2.5V | 00:00:00 | 00:00:00 | 00:00:00 | |
| EDDB2-11 | 2026-08-30 18:49:16 | 50.02131 | 8.39705 | 197° | 35km/h | 34657m | 2.5m/s | -35.9°C | 0.4% | 6.1hPa | 2.5V | 00:00:00 | 00:00:00 | 00:00:00 | |
| DL1ZP-14 | 2026-08-30 18:49:15 | 50.02138 | 8.39709 | 200° | 20km/h | 34653m | 4.2m/s | -35.9°C | 0.4% | 6.1hPa | 2.5V | 00:00:00 | 00:00:00 | 00:00:00 | |
| DJ2DS-15 | 2026-08-30 18:49:14 | 50.02141 | 8.39710 | 199° | 26km/h | 34648m | 6.2m/s | -35.8°C | 1.9% | 6.0hPa | 2.6V | 00:00:00 | 02:07:27 | 00:00:00 | |
| BIOWL1-15 | 2026-08-30 18:49:14 | 50.02137 | 8.39706 | 33° | 24km/h | 34634m | 6.4m/s | -35.7°C | 0% | 6.1hPa | 2.7V | 03:02:18 | 02:07:25 | 00:00:00 | |
| DL1XH-15 | 2026-08-30 18:49:13 | 50.02122 | 8.39674 | 102° | 22km/h | 34619m | 3.9m/s | -35.6°C | 1.9% | 6.1hPa | 2.6V | 03:01:36 | 02:07:21 | 00:00:00 | |
| HSKMA3-T | 2026-08-30 18:49:13 | 50.02141 | 8.39710 | 31° | 9km/h | 34641m | 7.1m/s | -35.8°C | 0% | 6.1hPa | 2.7V | 03:02:18 | 02:07:26 | 00:00:00 | |
| DM0DOS-11 | 2026-08-30 18:49:12 | 50.02126 | 8.39667 | 139° | 26km/h | 34615m | 5.6m/s | -35.6°C | 1.9% | 6.1hPa | 2.7V | 03:01:37 | 02:07:20 | 00:00:00 | |
| AA1-15 | 2026-08-30 18:49:11 | 50.02132 | 8.39700 | 40° | 31km/h | 34629m | 4.3m/s | -35.7°C | 0% | 6.1hPa | 2.6V | 03:03:09 | 02:07:24 | 00:00:00 | |
| DL1XH-west | 2026-08-30 18:49:09 | 50.02123 | 8.39683 | 70° | 26km/h | 34623m | 2.5m/s | -35.6°C | 0% | 6.1hPa | 2.6V | 03:02:18 | 02:07:22 | 00:00:00 | |
| DL4BBY-15 | 2026-08-30 18:49:09 | 50.02123 | 8.39683 | 70° | 29km/h | 34623m | 2.4m/s | -37.3°C | 0% | 0hPa | 2.6V | 00:00:00 | 00:00:00 | 00:00:00 | |
| SONDE2-11 | 2026-08-30 18:49:08 | 50.02125 | 8.39667 | 139° | 24km/h | 34615m | 5.6m/s | -35.6°C | 0.4% | 6.1hPa | 2.6V | 00:00:00 | 00:00:00 | 00:00:00 | |
| DL1XH1-15 | 2026-08-30 18:49:07 | 50.02173 | 8.39662 | 191° | 31km/h | 34592m | 2.1m/s | -35.4°C | 1.9% | 6.1hPa | 2.6V | 03:01:42 | 02:07:15 | 00:00:00 | |
| DL3AQ-11 | 2026-08-30 18:49:06 | 50.02142 | 8.39659 | 174° | 42km/h | 34602m | 5.9m/s | -35.5°C | 0.4% | 6.1hPa | 2.7V | 00:00:00 | 00:00:00 | 00:00:00 | |
| DO8TBO-1 | 2026-08-30 18:49:04 | 50.02153 | 8.39658 | 183° | 31km/h | 34598m | 3.8m/s | -35.4°C | 1.9% | 6.1hPa | 2.7V | 00:00:00 | 02:07:17 | 00:00:00 | |
| DL1XH-15 | 2026-08-30 18:49:03 | 50.02175 | 8.39662 | 21° | 27km/h | 34572m | 6.6m/s | -35.3°C | 1.9% | 6.1hPa | 2.7V | 03:01:46 | 02:07:11 | 00:00:00 | |
| DF8AY | 2026-08-30 18:49:03 | 50.02164 | 8.39660 | 188° | 42km/h | 34594m | 1.7m/s | -35.5°C | 0% | 6.1hPa | 2.7V | 03:03:09 | 02:07:16 | 00:00:00 | |
| DM0DOS-11 | 2026-08-30 18:49:02 | 50.02168 | 8.39657 | 27° | 35km/h | 34566m | 4.4m/s | -35.3°C | 1.8% | 6.2hPa | 2.7V | 03:01:47 | 02:07:10 | 00:00:00 | |
| HSKMA3-T | 2026-08-30 18:49:02 | 50.02173 | 8.39662 | 192° | 31km/h | 34592m | 2.1m/s | -35.4°C | 0% | 6.2hPa | 2.6V | 03:02:18 | 02:07:15 | 00:00:00 | |
| BIOWL1-15 | 2026-08-30 18:49:01 | 50.02179 | 8.39665 | 197° | 16km/h | 34590m | 3.8m/s | -35.4°C | 0% | 6.1hPa | 2.5V | 03:02:18 | 02:07:14 | 00:00:00 | |
| AA1-15 | 2026-08-30 18:49:00 | 50.02181 | 8.39666 | 219° | 2km/h | 34585m | 5.6m/s | -35.4°C | 0% | 6.2hPa | 2.6V | 03:03:09 | 02:07:13 | 00:00:00 | |
| DL1XH-west | 2026-08-30 18:48:59 | 50.02180 | 8.39665 | 17° | 15km/h | 34578m | 7m/s | -35.4°C | 0% | 6.1hPa | 2.6V | 03:02:18 | 02:07:12 | 00:00:00 | |
| DB0NH | 2026-08-30 18:48:59 | 50.02180 | 8.39665 | 17° | 29km/h | 34579m | 7.0m/s | -35.3°C | 1.8% | 6.1hPa | 2.7V | 00:00:00 | 02:07:12 | 00:00:00 | |
| DK5PH-5 | 2026-08-30 18:48:58 | 50.02175 | 8.39662 | 22° | 24km/h | 34572m | 6.5m/s | -35.3°C | 1.9% | 6.1hPa | 2.7V | 03:01:00 | 02:07:11 | 00:00:00 | |
| DL1XH1-15 | 2026-08-30 18:48:57 | 50.02156 | 8.39619 | 150° | 29km/h | 34547m | 6.7m/s | -35.1°C | 1.8% | 6.2hPa | 2.7V | 03:01:52 | 02:07:05 | 00:00:00 | |
| DF7PN | 2026-08-30 18:48:56 | 50.02154 | 8.39641 | 49° | 27km/h | 34561m | 1.9m/s | -35.2°C | 0.4% | 6.2hPa | 2.7V | 00:00:00 | 00:00:00 | 00:00:00 | |
| DL8DAS-14 | 2026-08-30 18:48:55 | 50.02154 | 8.39641 | 49° | 27km/h | 34561m | 1.9m/s | -35.2°C | 0.4% | 6.2hPa | 2.7V | 00:00:00 | 00:00:00 | 00:00:00 | |
| EDDB2-12 | 2026-08-30 18:48:53 | 50.02156 | 8.39619 | 150° | 29km/h | 34548m | 6.7m/s | -35.1°C | 0.4% | 6.2hPa | 2.7V | 00:00:00 | 00:00:00 | 00:00:00 | |
| DL1XH-15 | 2026-08-30 18:48:52 | 50.02204 | 8.39609 | 175° | 22km/h | 34526m | 2.7m/s | -35°C | 1.8% | 6.2hPa | 2.7V | 03:01:57 | 02:07:00 | 00:00:00 | |
| HSKMA3-T | 2026-08-30 18:48:51 | 50.02164 | 8.39614 | 166° | 40km/h | 34541m | 6.9m/s | -35.1°C | 0% | 6.2hPa | 2.7V | 03:02:18 | 02:07:04 | 00:00:00 | |
| DL1XH-west | 2026-08-30 18:48:49 | 50.02187 | 8.39610 | 177° | 46km/h | 34531m | 2.9m/s | -35.1°C | 0% | 6.2hPa | 2.6V | 03:02:18 | 02:07:02 | 00:00:00 | |
| BIOWL9-15 | 2026-08-30 18:48:48 | 50.02204 | 8.39609 | 175° | 22km/h | 34526m | 2.7m/s | -35.0°C | 0.4% | 6.2hPa | 2.5V | 00:00:00 | 00:00:00 | 00:00:00 | |
| DB0ND-19 | 2026-08-30 18:48:47 | 50.02208 | 8.39608 | 157° | 7km/h | 34523m | 4.5m/s | -35.0°C | 0.4% | 6.2hPa | 2.5V | 00:00:00 | 00:00:00 | 00:00:00 | |
| EDDB2-11 | 2026-08-30 18:48:45 | 50.02208 | 8.39606 | 40° | 7km/h | 34517m | 6.1m/s | -35.0°C | 0.4% | 6.2hPa | 2.5V | 00:00:00 | 00:00:00 | 00:00:00 | |
| DL1ZP-14 | 2026-08-30 18:48:44 | 50.02199 | 8.39598 | 25° | 31km/h | 34505m | 5.8m/s | -34.9°C | 0.4% | 6.2hPa | 2.5V | 00:00:00 | 00:00:00 | 00:00:00 | |
| HTAHTA | 2026-08-30 18:48:43 | 50.02199 | 8.39598 | 25° | 31km/h | 34505m | 5.8m/s | -34.9°C | 0.4% | 6.2hPa | 2.6V | 00:00:00 | 00:00:00 | 00:00:00 | |
| DM0DOS-11 | 2026-08-30 18:48:42 | 50.02181 | 8.39546 | 134° | 33km/h | 34480m | 6.1m/s | -34.9°C | 1.8% | 6.2hPa | 2.6V | 03:02:07 | 02:06:50 | 00:00:00 | |
| HSKMA3-T | 2026-08-30 18:48:40 | 50.02178 | 8.39575 | 57° | 29km/h | 34493m | 2.7m/s | -34.9°C | 0% | 6.2hPa | 2.6V | 03:02:18 | 02:06:53 | 00:00:00 | |
| DB0UT-7 | 2026-08-30 18:48:40 | 50.02178 | 8.39575 | 57° | 26km/h | 34494m | 2.6m/s | -34.9°C | 1.8% | 6.2hPa | 2.5V | 00:00:00 | 00:00:00 | 00:00:00 | |
| DL4BBY-15 | 2026-08-30 18:48:39 | 50.02175 | 8.39565 | 85° | 26km/h | 34490m | 3.5m/s | -36.6°C | 0% | 0hPa | 2.5V | 00:00:00 | 00:00:00 | 00:00:00 | |
| GOEST3-10 | 2026-08-30 18:48:38 | 50.02177 | 8.39555 | 113° | 24km/h | 34486m | 5.0m/s | -34.8°C | 1.8% | 6.2hPa | 2.5V | 00:00:00 | 00:00:00 | 00:00:00 | |
| DL1XH-west | 2026-08-30 18:48:38 | 50.02177 | 8.39555 | 113° | 27km/h | 34486m | 5.1m/s | -34.9°C | 0% | 6.2hPa | 2.6V | 03:02:18 | 02:06:51 | 00:00:00 | |
| DL1XH1-15 | 2026-08-30 18:48:37 | 50.02222 | 8.39514 | 155° | 22km/h | 34457m | 3.5m/s | -34.9°C | 1.8% | 6.3hPa | 2.5V | 03:02:12 | 02:06:45 | 00:00:00 | |
| DF8AY | 2026-08-30 18:48:35 | 50.02197 | 8.39529 | 156° | 44km/h | 34468m | 5m/s | -34.9°C | 0% | 6.2hPa | 2.7V | 03:03:09 | 02:06:48 | 00:00:00 | |
| BIOWL1-15 | 2026-08-30 18:48:30 | 50.02226 | 8.39508 | 62° | 9km/h | 34448m | 5.4m/s | -35°C | 0% | 6.2hPa | 2.7V | 03:02:18 | 02:06:43 | 00:00:00 | |
| HSKMA3-T | 2026-08-30 18:48:29 | 50.02224 | 8.39505 | 32° | 18km/h | 34442m | 5.7m/s | -35°C | 0% | 6.3hPa | 2.6V | 03:02:18 | 02:06:42 | 00:00:00 | |
| DL1XH-west | 2026-08-30 18:48:28 | 50.02220 | 8.39500 | 29° | 24km/h | 34437m | 5.2m/s | -35°C | 0% | 6.3hPa | 2.5V | 03:02:18 | 02:06:41 | 00:00:00 | |
| AA1-15 | 2026-08-30 18:48:27 | 50.02214 | 8.39495 | 34° | 27km/h | 34432m | 4.4m/s | -35°C | 0% | 6.3hPa | 2.6V | 03:03:09 | 02:06:40 | 00:00:00 | |
| DF8AY | 2026-08-30 18:48:23 | 50.02203 | 8.39460 | 104° | 29km/h | 34415m | 4.9m/s | -35.2°C | 0% | 6.3hPa | 2.6V | 03:03:09 | 02:06:36 | 00:00:00 | |
| BIOWL1-15 | 2026-08-30 18:48:19 | 50.02220 | 8.39416 | 126° | 29km/h | 34397m | 3.8m/s | -35.3°C | 0% | 6.3hPa | 2.7V | 03:03:09 | 02:06:32 | 00:00:00 | |
| DL1XH-west | 2026-08-30 18:48:18 | 50.02224 | 8.39408 | 118° | 22km/h | 34393m | 4.1m/s | -35.3°C | 0% | 6.3hPa | 2.7V | 03:03:09 | 02:06:31 | 00:00:00 | |
| AA1-15 | 2026-08-30 18:48:13 | 50.02210 | 8.39388 | 13° | 26km/h | 34369m | 3.6m/s | -35.5°C | 0% | 6.3hPa | 2.6V | 03:03:09 | 02:06:26 | 00:00:00 | |
| DF8AY | 2026-08-30 18:48:12 | 50.02204 | 8.39385 | 18° | 24km/h | 34366m | 3m/s | -35.5°C | 0% | 6.3hPa | 2.6V | 03:03:09 | 02:06:25 | 00:00:00 | |
| BIOWL1-15 | 2026-08-30 18:48:09 | 50.02196 | 8.39372 | 96° | 16km/h | 34354m | 5.4m/s | -35.7°C | 0% | 6.3hPa | 2.7V | 03:03:09 | 02:06:22 | 00:00:00 | |
| PG1ADW-2 | 2026-08-30 18:48:08 | 50.02197 | 8.39365 | 116° | 27km/h | 34349m | 5.2m/s | 0°C | 0% | 0hPa | 2.5V | 00:00:00 | 00:00:00 | 00:00:00 | |
| DL1XH-west | 2026-08-30 18:48:08 | 50.02197 | 8.39365 | 116° | 20km/h | 34349m | 5.3m/s | -35.7°C | 0% | 6.4hPa | 2.6V | 03:03:09 | 02:06:21 | 00:00:00 | |
| DL1XH1-15 | 2026-08-30 18:48:07 | 50.02197 | 8.39318 | 30° | 31km/h | 34323m | 6.3m/s | -35.9°C | 1.9% | 6.4hPa | 2.5V | 03:02:42 | 02:06:15 | 00:00:00 | |
| HSKMA3-T | 2026-08-30 18:48:07 | 50.02200 | 8.39357 | 121° | 26km/h | 34344m | 4.2m/s | -35.7°C | 0% | 6.4hPa | 2.5V | 03:03:09 | 02:06:20 | 00:00:00 | |
| AA1-15 | 2026-08-30 18:48:02 | 50.02197 | 8.39318 | 31° | 31km/h | 34323m | 6.3m/s | -35.9°C | 0% | 6.4hPa | 2.5V | 03:03:09 | 02:06:15 | 00:00:00 | |
| DM0DOS-11 | 2026-08-30 18:48:02 | 50.02151 | 8.39292 | 29° | 29km/h | 34302m | 4m/s | -35.9°C | 1.9% | 6.4hPa | 2.6V | 03:02:47 | 02:06:10 | 00:00:00 | |
| DF8AY | 2026-08-30 18:47:58 | 50.02158 | 8.39297 | 20° | 38km/h | 34305m | 2.8m/s | -35.9°C | 0% | 6.4hPa | 2.7V | 03:03:09 | 02:06:11 | 00:00:00 | |
| DL1XH-west | 2026-08-30 18:47:57 | 50.02151 | 8.39292 | 30° | 29km/h | 34302m | 4.1m/s | -35.9°C | 0% | 6.4hPa | 2.6V | 03:03:09 | 02:06:10 | 00:00:00 | |
| HSKMA3-T | 2026-08-30 18:47:56 | 50.02146 | 8.39286 | 50° | 22km/h | 34297m | 5.7m/s | -36°C | 0% | 6.4hPa | 2.5V | 03:03:09 | 02:06:09 | 00:00:00 | |
| DF7PN | 2026-08-30 18:47:54 | 50.02147 | 8.39263 | 121° | 24km/h | 34280m | 4.4m/s | -36.0°C | 0.4% | 6.4hPa | 2.7V | 00:00:00 | 00:00:00 | 00:00:00 | |
| DL8DAS-14 | 2026-08-30 18:47:53 | 50.02147 | 8.39263 | 121° | 24km/h | 34280m | 4.4m/s | -36.0°C | 0.4% | 6.4hPa | 2.7V | 00:00:00 | 00:00:00 | 00:00:00 | |
| DM0DOS-11 | 2026-08-30 18:47:52 | 50.02131 | 8.39228 | 13° | 44km/h | 34253m | 5.4m/s | -36°C | 1.9% | 6.5hPa | 2.7V | 03:02:57 | 02:06:00 | 00:00:00 | |
| AA1-15 | 2026-08-30 18:47:52 | 50.02150 | 8.39256 | 117° | 22km/h | 34276m | 3.1m/s | -36°C | 0% | 6.5hPa | 2.6V | 03:03:09 | 02:06:05 | 00:00:00 | |
| BIOWL1-15 | 2026-08-30 18:47:48 | 50.02140 | 8.39232 | 19° | 35km/h | 34259m | 5.9m/s | -36°C | 0% | 6.4hPa | 2.7V | 03:03:09 | 02:06:01 | 00:00:00 | |
| PG1ADW-2 | 2026-08-30 18:47:48 | 50.02140 | 8.39232 | 19° | 29km/h | 34259m | 5.9m/s | 0°C | 0% | 0hPa | 2.7V | 00:00:00 | 02:06:01 | 00:00:00 | |
| DL1XH1-15 | 2026-08-30 18:47:47 | 50.02085 | 8.39202 | 56° | 22km/h | 34233m | 5.3m/s | -36°C | 1.9% | 6.5hPa | 2.7V | 03:03:02 | 02:05:55 | 00:00:00 | |
| DL1XH-west | 2026-08-30 18:47:46 | 50.02119 | 8.39224 | 13° | 47km/h | 34249m | 4m/s | -36.1°C | 0% | 6.5hPa | 2.6V | 03:03:09 | 02:05:59 | 00:00:00 | |
| HSKMA3-T | 2026-08-30 18:47:45 | 50.02108 | 8.39220 | 15° | 46km/h | 34245m | 3m/s | -36.1°C | 0% | 6.5hPa | 2.5V | 03:03:09 | 02:05:58 | 00:00:00 | |
| DH7VM-15 | 2026-08-30 18:47:45 | 50.02108 | 8.39219 | 16° | 46km/h | 34245m | 3.0m/s | -36.1°C | 0.4% | 6.5hPa | 2.7V | 00:00:00 | 00:00:00 | 00:00:00 | |
| DL0LBS | 2026-08-30 18:47:44 | 50.02108 | 8.39219 | 16° | 46km/h | 34245m | 3.0m/s | -36.1°C | 0.4% | 6.5hPa | 2.7V | 03:03:00 | 00:00:00 | 00:00:00 | |
| EDDB2-11 | 2026-08-30 18:47:43 | 50.02090 | 8.39209 | 33° | 29km/h | 34238m | 4.3m/s | -36.1°C | 0.4% | 6.5hPa | 2.7V | 00:00:00 | 00:00:00 | 00:00:00 | |
| DM0DOS-11 | 2026-08-30 18:47:42 | 50.02092 | 8.39165 | 104° | 15km/h | 34210m | 3.8m/s | -36°C | 1.9% | 6.5hPa | 2.7V | 03:03:07 | 02:05:50 | 00:00:00 | |
| AA1-15 | 2026-08-30 18:47:41 | 50.02084 | 8.39194 | 89° | 20km/h | 34228m | 5.8m/s | -36°C | 0% | 6.5hPa | 2.6V | 03:03:09 | 02:05:54 | 00:00:00 | |
| BIOWL1-15 | 2026-08-30 18:47:38 | 50.02092 | 8.39165 | 105° | 15km/h | 34210m | 3.8m/s | -36°C | 0% | 6.5hPa | 2.7V | 03:03:09 | 02:05:50 | 00:00:00 | |
| DL1XH1-15 | 2026-08-30 18:47:37 | 50.02068 | 8.39147 | 15° | 35km/h | 34185m | 3.5m/s | -36°C | 1.9% | 6.5hPa | 2.7V | 03:03:12 | 02:05:45 | 00:00:00 | |
| DL1XH-west | 2026-08-30 18:47:36 | 50.02092 | 8.39160 | 64° | 13km/h | 34206m | 4.9m/s | -36°C | 0% | 6.5hPa | 2.5V | 03:03:09 | 02:05:49 | 00:00:00 | |
| HSKMA3-T | 2026-08-30 18:47:34 | 50.02084 | 8.39153 | 16° | 27km/h | 34195m | 5.6m/s | -36°C | 0% | 6.5hPa | 2.6V | 03:04:00 | 02:05:47 | 00:00:00 | |
| DJ2DS-15 | 2026-08-30 18:47:34 | 50.02084 | 8.39153 | 17° | 24km/h | 34195m | 5.6m/s | -36.0°C | 1.9% | 6.4hPa | 2.7V | 00:00:00 | 02:05:47 | 00:00:00 | |
| DM0DOS-11 | 2026-08-30 18:47:32 | 50.02052 | 8.39114 | 118° | 27km/h | 34164m | 5.5m/s | -36°C | 1.9% | 6.5hPa | 2.7V | 03:03:17 | 02:05:40 | 00:00:00 | |
| AA1-15 | 2026-08-30 18:47:30 | 50.02054 | 8.39137 | 38° | 26km/h | 34179m | 3.7m/s | -36°C | 0% | 6.5hPa | 2.5V | 03:04:00 | 02:05:43 | 00:00:00 | |
| DF8AY | 2026-08-30 18:47:29 | 50.02050 | 8.39130 | 64° | 22km/h | 34174m | 4.9m/s | -36°C | 0% | 6.5hPa | 2.6V | 03:04:00 | 02:05:42 | 00:00:00 | |
| BIOWL1-15 | 2026-08-30 18:47:28 | 50.02055 | 8.39105 | 129° | 29km/h | 34159m | 4.7m/s | -36°C | 0% | 6.5hPa | 2.7V | 03:04:00 | 02:05:39 | 00:00:00 | |
| DD1CC8 | 2026-08-30 18:47:28 | 50.02051 | 8.39114 | 118° | 26km/h | 34164m | 5.5m/s | -36.0°C | 0.4% | 6.5hPa | 2.7V | 00:00:00 | 00:00:00 | 00:00:00 | |
| DL1XH1-15 | 2026-08-30 18:47:27 | 50.02068 | 8.39076 | 78° | 11km/h | 34142m | 5.1m/s | -36°C | 1.9% | 6.6hPa | 2.7V | 03:03:22 | 02:05:35 | 00:00:00 | |
| DL1XH-west | 2026-08-30 18:47:25 | 50.02060 | 8.39096 | 132° | 29km/h | 34154m | 3.6m/s | -36°C | 0% | 6.6hPa | 2.6V | 03:04:00 | 02:05:38 | 00:00:00 | |
| HSKMA3-T | 2026-08-30 18:47:24 | 50.02065 | 8.39088 | 128° | 24km/h | 34151m | 3.6m/s | -36°C | 0% | 6.6hPa | 2.6V | 03:04:00 | 02:05:37 | 00:00:00 | |
| AA1-15 | 2026-08-30 18:47:19 | 50.02057 | 8.39067 | 14° | 22km/h | 34127m | 4m/s | -36°C | 0% | 6.6hPa | 2.5V | 03:04:00 | 02:05:32 | 00:00:00 | |
| NBG1-10 | 2026-08-30 18:47:18 | 50.02052 | 8.39064 | 19° | 22km/h | 34124m | 3.3m/s | -35.9°C | 1.9% | 6.6hPa | 2.7V | 00:00:00 | 02:05:31 | 00:00:00 | |
| DL3AQ-11 | 2026-08-30 18:47:17 | 50.02045 | 8.39056 | 70° | 15km/h | 34117m | 4.3m/s | -35.9°C | 0.4% | 6.6hPa | 2.7V | 00:00:00 | 00:00:00 | 00:00:00 | |
| DL1XH1-15 | 2026-08-30 18:47:16 | 50.02064 | 8.39012 | 129° | 31km/h | 34093m | 2.9m/s | -35.9°C | 1.9% | 6.6hPa | 2.7V | 03:03:33 | 02:05:24 | 00:00:00 | |
| DF8AY | 2026-08-30 18:47:16 | 50.02045 | 8.39056 | 70° | 15km/h | 34116m | 4.3m/s | -35.9°C | 0% | 6.6hPa | 2.7V | 03:04:00 | 02:05:29 | 00:00:00 | |
| DL1XH-west | 2026-08-30 18:47:15 | 50.02045 | 8.39050 | 106° | 18km/h | 34111m | 5.3m/s | -35.9°C | 0% | 6.6hPa | 2.6V | 03:04:00 | 02:05:28 | 00:00:00 | |
| HSKMA3-T | 2026-08-30 18:47:14 | 50.02048 | 8.39042 | 124° | 27km/h | 34106m | 5.5m/s | -35.9°C | 0% | 6.6hPa | 2.5V | 03:04:00 | 02:05:27 | 00:00:00 | |
| AA1-15 | 2026-08-30 18:47:08 | 50.02070 | 8.38990 | 61° | 13km/h | 34081m | 5.9m/s | -35.9°C | 0% | 6.6hPa | 2.5V | 03:04:00 | 02:05:21 | 00:00:00 | |
| DL1XH-west | 2026-08-30 18:47:04 | 50.02053 | 8.38987 | 349° | 15km/h | 34062m | 2.9m/s | -35.9°C | 0% | 6.7hPa | 2.7V | 03:04:00 | 02:05:17 | 00:00:00 | |
| HSKMA3-T | 2026-08-30 18:47:03 | 50.02051 | 8.38988 | 350° | 4km/h | 34059m | 3.4m/s | -35.9°C | 0% | 6.7hPa | 2.5V | 03:04:00 | 02:05:16 | 00:00:00 | |
| DF8AY | 2026-08-30 18:47:02 | 50.02051 | 8.38987 | 156° | 7km/h | 34055m | 4.9m/s | -35.9°C | 0% | 6.7hPa | 2.6V | 03:04:00 | 02:05:15 | 00:00:00 | |
| AA1-15 | 2026-08-30 18:46:57 | 50.02081 | 8.38957 | 132° | 31km/h | 34032m | 2.4m/s | -35.9°C | 0% | 6.7hPa | 2.5V | 03:04:00 | 02:05:10 | 00:00:00 | |
| DD1CC8 | 2026-08-30 18:46:57 | 50.02085 | 8.38948 | 116° | 22km/h | 34029m | 3.4m/s | -36.0°C | 0.4% | 6.7hPa | 2.6V | 00:00:00 | 00:00:00 | 00:00:00 | |
| DL1XH1-15 | 2026-08-30 18:46:56 | 50.02066 | 8.38934 | 344° | 26km/h | 34004m | 2.9m/s | -36°C | 1.9% | 6.7hPa | 2.6V | 03:03:53 | 02:05:04 | 00:00:00 | |
| DL1XH-west | 2026-08-30 18:46:53 | 50.02079 | 8.38932 | 10° | 24km/h | 34013m | 5.9m/s | -36°C | 0% | 6.7hPa | 2.6V | 03:04:00 | 02:05:06 | 00:00:00 | |
| HSKMA3-T | 2026-08-30 18:46:52 | 50.02073 | 8.38932 | 355° | 27km/h | 34008m | 4.5m/s | -36°C | 0% | 6.7hPa | 2.6V | 03:04:00 | 02:05:05 | 00:00:00 | |
| DF8AY | 2026-08-30 18:46:49 | 50.02059 | 8.38940 | 294° | 7km/h | 33998m | 3.9m/s | -36.1°C | 0% | 6.7hPa | 2.6V | 03:04:00 | 02:05:02 | 00:00:00 | |
| DO3DL | 2026-08-30 18:46:49 | 50.02059 | 8.38940 | 295° | 7km/h | 33999m | 3.9m/s | -36.1°C | 0.4% | 6.7hPa | 2.5V | 03:04:00 | 00:00:00 | 00:00:00 | |
| DN1GJH-1 | 2026-08-30 18:46:48 | 50.02059 | 8.38940 | 295° | 7km/h | 33999m | 3.9m/s | -36.1°C | 0.4% | 6.7hPa | 2.5V | 03:04:00 | 00:00:00 | 00:00:00 | |
| IW2NTF | 2026-08-30 18:46:47 | 50.02099 | 8.38905 | 108° | 26km/h | 33968m | 3.8m/s | 0°C | 0% | 0hPa | 2.5V | 00:00:00 | 02:04:55 | 00:00:00 | |
| DL1XH1-15 | 2026-08-30 18:46:46 | 50.02100 | 8.38897 | 71° | 20km/h | 33963m | 5.6m/s | -36.2°C | 1.9% | 6.8hPa | 2.5V | 03:04:03 | 02:04:54 | 00:00:00 | |
| AA1-15 | 2026-08-30 18:46:46 | 50.02072 | 8.38938 | 161° | 35km/h | 33981m | 5.7m/s | -36.2°C | 0% | 6.7hPa | 2.6V | 03:04:00 | 02:04:59 | 00:00:00 | |
| BIOWL1-15 | 2026-08-30 18:46:44 | 50.02099 | 8.38905 | 109° | 26km/h | 33968m | 3.8m/s | -36.2°C | 0% | 6.8hPa | 2.5V | 03:04:51 | 02:04:55 | 00:00:00 | |
| DL1XH-west | 2026-08-30 18:46:43 | 50.02096 | 8.38915 | 130° | 33km/h | 33971m | 2.3m/s | -36.2°C | 0% | 6.8hPa | 2.6V | 03:04:51 | 02:04:56 | 00:00:00 | |
| HSKMA3-T | 2026-08-30 18:46:41 | 50.02100 | 8.38897 | 71° | 20km/h | 33963m | 5.6m/s | -36.2°C | 0% | 6.8hPa | 2.5V | 03:04:51 | 02:04:54 | 00:00:00 | |
| DO3MHA-11 | 2026-08-30 18:46:41 | 50.02099 | 8.38897 | 72° | 29km/h | 33964m | 5.6m/s | -36.2°C | 1.9% | 6.7hPa | 2.5V | 03:04:00 | 02:04:54 | 00:00:00 | |
| DB0UT-7 | 2026-08-30 18:46:40 | 50.02096 | 8.38891 | 31° | 37km/h | 33957m | 6.4m/s | -36.2°C | 1.9% | 6.7hPa | 2.5V | 00:00:00 | 00:00:00 | 00:00:00 | |
| DL4BBY-15 | 2026-08-30 18:46:39 | 50.02090 | 8.38888 | 4° | 35km/h | 33952m | 5.7m/s | -37.9°C | 0% | 0hPa | 2.5V | 00:00:00 | 00:00:00 | 00:00:00 | |
| DM7RM-13 | 2026-08-30 18:46:38 | 50.02090 | 8.38888 | 5° | 31km/h | 33951m | 5.8m/s | -36.2°C | 0.4% | 6.8hPa | 2.5V | 03:04:00 | 00:00:00 | 00:00:00 | |
| DL1XH1-15 | 2026-08-30 18:46:36 | 50.02100 | 8.38917 | 164° | 55km/h | 33916m | 4.4m/s | -36.4°C | 1.9% | 6.8hPa | 2.5V | 03:04:13 | 02:04:44 | 00:00:00 | |
| DF8AY | 2026-08-30 18:46:35 | 50.02068 | 8.38908 | 264° | 18km/h | 33939m | 3.8m/s | -36.3°C | 0% | 6.8hPa | 2.6V | 03:04:51 | 02:04:48 | 00:00:00 | |
| DL1XH-west | 2026-08-30 18:46:32 | 50.02088 | 8.38920 | 176° | 47km/h | 33921m | 6.2m/s | -36.4°C | 0% | 6.8hPa | 2.6V | 03:04:51 | 02:04:45 | 00:00:00 | |
| HSKMA3-T | 2026-08-30 18:46:31 | 50.02100 | 8.38917 | 164° | 55km/h | 33916m | 4.4m/s | -36.4°C | 0% | 6.8hPa | 2.5V | 03:04:51 | 02:04:44 | 00:00:00 | |
| DO3MHA-11 | 2026-08-30 18:46:31 | 50.02100 | 8.38917 | 165° | 37km/h | 33917m | 4.4m/s | -36.4°C | 1.9% | 6.7hPa | 2.5V | 00:00:00 | 02:04:44 | 00:00:00 | |
| DB0UT-9 | 2026-08-30 18:46:30 | 50.02100 | 8.38917 | 165° | 55km/h | 33917m | 4.4m/s | -36.4°C | 0.4% | 6.8hPa | 2.6V | 03:04:00 | 00:00:00 | 00:00:00 | |
| DO9LL-15 | 2026-08-30 18:46:29 | 50.02123 | 8.38899 | 141° | 38km/h | 33911m | 2.3m/s | -36.4°C | 1.9% | 6.8hPa | 2.6V | 00:00:00 | 02:04:42 | 00:00:00 | |
| DO3DL | 2026-08-30 18:46:28 | 50.02123 | 8.38899 | 141° | 46km/h | 33911m | 2.4m/s | -36.4°C | 0.4% | 6.8hPa | 2.6V | 03:04:00 | 00:00:00 | 00:00:00 | |
| DL1XH1-15 | 2026-08-30 18:46:26 | 50.02104 | 8.38889 | 270° | 27km/h | 33877m | 3.4m/s | -36.6°C | 1.9% | 6.8hPa | 2.6V | 03:04:23 | 02:04:34 | 00:00:00 | |
| BIOWL1-15 | 2026-08-30 18:46:25 | 50.02104 | 8.38889 | 270° | 27km/h | 33877m | 3.4m/s | -36.6°C | 0% | 6.8hPa | 2.6V | 03:04:51 | 02:04:34 | 00:00:00 | |
| AA1-15 | 2026-08-30 18:46:24 | 50.02119 | 8.38865 | 347° | 33km/h | 33886m | 4.7m/s | -36.5°C | 0% | 6.8hPa | 2.6V | 03:04:51 | 02:04:37 | 00:00:00 | |
| DL1XH-west | 2026-08-30 18:46:22 | 50.02106 | 8.38879 | 302° | 31km/h | 33880m | 2.7m/s | -36.6°C | 0% | 6.8hPa | 2.7V | 03:04:51 | 02:04:35 | 00:00:00 | |
| DF8AY | 2026-08-30 18:46:20 | 50.02106 | 8.38899 | 234° | 27km/h | 33873m | 4.7m/s | -36.7°C | 0% | 6.8hPa | 2.5V | 03:04:51 | 02:04:33 | 00:00:00 | |
| DO2KSM | 2026-08-30 18:46:19 | 50.02106 | 8.38899 | 235° | 27km/h | 33873m | 4.7m/s | -36.6°C | 0.4% | 6.8hPa | 2.7V | 03:04:00 | 00:00:00 | 00:00:00 | |
| DL1CLM-18 | 2026-08-30 18:46:18 | 50.02112 | 8.38906 | 204° | 35km/h | 33868m | 5.7m/s | -36.7°C | 0.4% | 6.8hPa | 2.7V | 00:00:00 | 00:00:00 | 00:00:00 | |
| DM7RM-13 | 2026-08-30 18:46:17 | 50.02122 | 8.38908 | 181° | 44km/h | 33862m | 5.7m/s | -36.7°C | 0.4% | 6.9hPa | 2.7V | 03:04:00 | 00:00:00 | 00:00:00 | |
| DL1XH1-15 | 2026-08-30 18:46:16 | 50.02148 | 8.38834 | 21° | 35km/h | 33832m | 5.5m/s | -37°C | 2% | 6.9hPa | 2.7V | 03:04:33 | 02:04:24 | 00:00:00 | |
| AA1-15 | 2026-08-30 18:46:14 | 50.02158 | 8.38869 | 107° | 42km/h | 33846m | 3.4m/s | -36.8°C | 0% | 6.9hPa | 2.6V | 03:04:51 | 02:04:27 | 00:00:00 | |
| DJ2DS-15 | 2026-08-30 18:46:14 | 50.02158 | 8.38869 | 107° | 35km/h | 33846m | 3.4m/s | -36.8°C | 1.9% | 6.8hPa | 2.6V | 00:00:00 | 02:04:27 | 00:00:00 | |
| DM0DOS-11 | 2026-08-30 18:46:12 | 50.02124 | 8.38853 | 269° | 26km/h | 33815m | 3.6m/s | -37.1°C | 2% | 6.9hPa | 2.6V | 03:04:37 | 02:04:20 | 00:00:00 | |
| DL1XH-west | 2026-08-30 18:46:12 | 50.02155 | 8.38842 | 51° | 33km/h | 33837m | 5.4m/s | -37°C | 0% | 6.9hPa | 2.7V | 03:04:51 | 02:04:25 | 00:00:00 | |
| BIOWL1-15 | 2026-08-30 18:46:11 | 50.02149 | 8.38834 | 21° | 35km/h | 33832m | 5.5m/s | -37°C | 0% | 6.9hPa | 2.7V | 03:04:51 | 02:04:24 | 00:00:00 | |
| HSKMA3-T | 2026-08-30 18:46:10 | 50.02140 | 8.38833 | 356° | 35km/h | 33827m | 4.8m/s | -37°C | 0% | 6.9hPa | 2.6V | 03:04:51 | 02:04:23 | 00:00:00 | |
| DF8AY | 2026-08-30 18:46:07 | 50.02124 | 8.38853 | 270° | 26km/h | 33815m | 3.6m/s | -37.1°C | 0% | 6.9hPa | 2.6V | 03:04:51 | 02:04:20 | 00:00:00 | |
| DL1XH1-15 | 2026-08-30 18:46:06 | 50.02169 | 8.38836 | 119° | 49km/h | 33786m | 4m/s | -37.3°C | 2% | 6.9hPa | 2.7V | 03:04:43 | 02:04:14 | 00:00:00 | |
| AA1-15 | 2026-08-30 18:46:02 | 50.02161 | 8.38851 | 136° | 51km/h | 33791m | 4.5m/s | -37.3°C | 0% | 6.9hPa | 2.6V | 03:04:51 | 02:04:15 | 00:00:00 | |
| DM0DOS-11 | 2026-08-30 18:46:02 | 50.02164 | 8.38783 | 23° | 27km/h | 33769m | 5.2m/s | -37.3°C | 2% | 6.9hPa | 2.6V | 03:04:47 | 02:04:10 | 00:00:00 | |
| BIOWL1-15 | 2026-08-30 18:46:02 | 50.02173 | 8.38819 | 101° | 46km/h | 33783m | 4m/s | -37.3°C | 0% | 6.9hPa | 2.7V | 03:04:51 | 02:04:13 | 00:00:00 | |
| DL1XH-west | 2026-08-30 18:46:01 | 50.02168 | 8.38836 | 119° | 49km/h | 33787m | 4m/s | -37.3°C | 0% | 6.9hPa | 2.7V | 03:04:51 | 02:04:14 | 00:00:00 | |
| HSKMA3-T | 2026-08-30 18:45:59 | 50.02173 | 8.38803 | 81° | 38km/h | 33779m | 4.2m/s | -37.3°C | 0% | 7hPa | 2.6V | 03:04:51 | 02:04:12 | 00:00:00 | |
| DL3AQ-11 | 2026-08-30 18:45:57 | 50.02158 | 8.38782 | 348° | 26km/h | 33764m | 5.3m/s | -37.3°C | 0.4% | 7.0hPa | 2.7V | 00:00:00 | 00:00:00 | 00:00:00 | |
| DL1XH1-15 | 2026-08-30 18:45:56 | 50.02158 | 8.38825 | 206° | 33km/h | 33740m | 4.9m/s | -37.3°C | 2% | 7hPa | 2.7V | 03:04:53 | 02:04:04 | 00:00:00 | |
| DF8AY | 2026-08-30 18:45:53 | 50.02148 | 8.38807 | 259° | 31km/h | 33749m | 4.5m/s | -37.2°C | 0% | 7hPa | 2.6V | 03:04:51 | 02:04:06 | 00:00:00 | |
| DM0DOS-11 | 2026-08-30 18:45:52 | 50.02190 | 8.38807 | 120° | 40km/h | 33721m | 4.6m/s | -37.3°C | 2% | 7hPa | 2.6V | 03:04:57 | 02:04:00 | 00:00:00 | |
| AA1-15 | 2026-08-30 18:45:51 | 50.02158 | 8.38825 | 206° | 33km/h | 33740m | 4.9m/s | -37.3°C | 0% | 7hPa | 2.7V | 03:05:42 | 02:04:04 | 00:00:00 | |
| BIOWL1-15 | 2026-08-30 18:45:51 | 50.02175 | 8.38826 | 160° | 38km/h | 33730m | 5m/s | -37.3°C | 0% | 7hPa | 2.5V | 03:05:42 | 02:04:02 | 00:00:00 | |
| DL1XH-west | 2026-08-30 18:45:50 | 50.02166 | 8.38828 | 182° | 37km/h | 33735m | 4.9m/s | -37.3°C | 0% | 7hPa | 2.6V | 03:05:42 | 02:04:03 | 00:00:00 | |
| HSKMA3-T | 2026-08-30 18:45:48 | 50.02183 | 8.38818 | 140° | 40km/h | 33725m | 4.8m/s | -37.4°C | 0% | 7hPa | 2.6V | 03:05:42 | 02:04:01 | 00:00:00 | |
| DL3AQ-11 | 2026-08-30 18:45:46 | 50.02193 | 8.38779 | 78° | 33km/h | 33712m | 4.5m/s | -37.4°C | 0.4% | 7.0hPa | 2.6V | 00:00:00 | 00:00:00 | 00:00:00 | |
| DL1CLM-18 | 2026-08-30 18:45:45 | 50.02193 | 8.38793 | 101° | 38km/h | 33716m | 4.4m/s | -37.3°C | 0.4% | 7.0hPa | 2.6V | 03:05:00 | 00:00:00 | 00:00:00 | |
| DL8DAS-15 | 2026-08-30 18:45:43 | 50.02190 | 8.38767 | 56° | 31km/h | 33708m | 4.8m/s | -37.4°C | 0.4% | 7.0hPa | 2.6V | 00:00:00 | 00:00:00 | 00:00:00 | |
| DM0DOS-11 | 2026-08-30 18:45:42 | 50.02169 | 8.38792 | 227° | 26km/h | 33671m | 4.8m/s | -37.6°C | 2.1% | 7.1hPa | 2.6V | 03:05:07 | 02:03:50 | 00:00:00 | |
| AA1-15 | 2026-08-30 18:45:41 | 50.02172 | 8.38759 | 332° | 24km/h | 33691m | 5.4m/s | -37.5°C | 0% | 7hPa | 2.6V | 03:05:42 | 02:03:54 | 00:00:00 | |
| DL1XH-west | 2026-08-30 18:45:40 | 50.02168 | 8.38766 | 303° | 24km/h | 33686m | 5.4m/s | -37.6°C | 0% | 7hPa | 2.6V | 03:05:42 | 02:03:53 | 00:00:00 | |
| BIOWL1-15 | 2026-08-30 18:45:38 | 50.02166 | 8.38784 | 253° | 26km/h | 33676m | 5m/s | -37.6°C | 0% | 7hPa | 2.7V | 03:05:42 | 02:03:51 | 00:00:00 | |
| HSKMA3-T | 2026-08-30 18:45:37 | 50.02169 | 8.38792 | 227° | 26km/h | 33671m | 4.8m/s | -37.6°C | 0% | 7.1hPa | 2.6V | 03:05:42 | 02:03:50 | 00:00:00 | |
| DM7RM-13 | 2026-08-30 18:45:36 | 50.02169 | 8.38792 | 228° | 26km/h | 33671m | 4.8m/s | -37.6°C | 0.5% | 7.1hPa | 2.6V | 03:05:00 | 00:00:00 | 00:00:00 | |
| HEMX73-11 | 2026-08-30 18:45:35 | 50.02174 | 8.38797 | 202° | 24km/h | 33666m | 4.7m/s | -37.6°C | 0.4% | 7.1hPa | 2.6V | 03:05:00 | 00:00:00 | 00:00:00 | |
| DJ2DS-15 | 2026-08-30 18:45:34 | 50.02186 | 8.38795 | 147° | 22km/h | 33657m | 4.9m/s | -37.5°C | 2.0% | 7.0hPa | 2.6V | 03:05:00 | 02:03:47 | 00:00:00 | |
| DL8DAS-15 | 2026-08-30 18:45:33 | 50.02186 | 8.38795 | 148° | 27km/h | 33657m | 4.9m/s | -37.6°C | 0.5% | 7.1hPa | 2.6V | 00:00:00 | 00:00:00 | 00:00:00 | |
| DM0DOS-11 | 2026-08-30 18:45:32 | 50.02177 | 8.38738 | 2° | 24km/h | 33621m | 5.1m/s | -37.5°C | 2% | 7.1hPa | 2.6V | 03:05:17 | 02:03:40 | 00:00:00 | |
| BIOWL1-15 | 2026-08-30 18:45:32 | 50.02183 | 8.38740 | 23° | 26km/h | 33626m | 5.3m/s | -37.5°C | 0% | 7.1hPa | 2.6V | 03:05:42 | 02:03:41 | 00:00:00 | |
| AA1-15 | 2026-08-30 18:45:30 | 50.02193 | 8.38754 | 64° | 29km/h | 33637m | 5.1m/s | -37.5°C | 0% | 7.1hPa | 2.5V | 03:05:42 | 02:03:43 | 00:00:00 | |
| DL1XH-west | 2026-08-30 18:45:29 | 50.02189 | 8.38746 | 43° | 27km/h | 33631m | 5.4m/s | -37.5°C | 0% | 7.1hPa | 2.5V | 03:05:42 | 02:03:42 | 00:00:00 | |
| HSKMA3-T | 2026-08-30 18:45:26 | 50.02171 | 8.38739 | 347° | 22km/h | 33616m | 4.9m/s | -37.5°C | 0% | 7.1hPa | 2.7V | 03:05:42 | 02:03:39 | 00:00:00 | |
| DF8AY | 2026-08-30 18:45:23 | 50.02162 | 8.38747 | 278° | 5km/h | 33601m | 5.2m/s | -37.5°C | 0% | 7.1hPa | 2.6V | 03:05:42 | 02:03:36 | 00:00:00 | |
| DM0DOS-11 | 2026-08-30 18:45:22 | 50.02174 | 8.38718 | 86° | 22km/h | 33572m | 4.3m/s | -37.5°C | 2% | 7.2hPa | 2.6V | 03:05:27 | 02:03:30 | 00:00:00 | |
| AA1-15 | 2026-08-30 18:45:19 | 50.02171 | 8.38735 | 119° | 24km/h | 33580m | 4.3m/s | -37.5°C | 0% | 7.2hPa | 2.7V | 03:05:42 | 02:03:32 | 00:00:00 | |
| DL1XH-west | 2026-08-30 18:45:18 | 50.02173 | 8.38726 | 104° | 24km/h | 33576m | 4m/s | -37.5°C | 0% | 7.1hPa | 2.6V | 03:05:42 | 02:03:31 | 00:00:00 | |
| BIOWL1-15 | 2026-08-30 18:45:17 | 50.02174 | 8.38718 | 86° | 22km/h | 33572m | 4.3m/s | -37.5°C | 0% | 7.2hPa | 2.6V | 03:05:42 | 02:03:30 | 00:00:00 | |
| DL3AQ-11 | 2026-08-30 18:45:17 | 50.02173 | 8.38710 | 63° | 18km/h | 33567m | 4.8m/s | -37.5°C | 0.4% | 7.2hPa | 2.7V | 00:00:00 | 00:00:00 | 00:00:00 | |
| DL1XH1-15 | 2026-08-30 18:45:16 | 50.02145 | 8.38698 | 3° | 27km/h | 33541m | 4.1m/s | -37.5°C | 2% | 7.2hPa | 2.7V | 03:05:33 | 02:03:24 | 00:00:00 | |
| HSKMA3-T | 2026-08-30 18:45:16 | 50.02173 | 8.38710 | 63° | 20km/h | 33567m | 4.8m/s | -37.5°C | 0% | 7.2hPa | 2.7V | 03:05:42 | 02:03:29 | 00:00:00 | |
| DN1GJH-1 | 2026-08-30 18:45:15 | 50.02173 | 8.38710 | 64° | 20km/h | 33567m | 4.8m/s | -37.5°C | 0.4% | 7.2hPa | 2.6V | 00:00:00 | 00:00:00 | 00:00:00 | |
| DJ2DS-15 | 2026-08-30 18:45:14 | 50.02165 | 8.38701 | 18° | 24km/h | 33557m | 5.7m/s | -37.5°C | 2.0% | 7.1hPa | 2.6V | 00:00:00 | 02:03:27 | 00:00:00 | |
| DC4HF-4 | 2026-08-30 18:45:13 | 50.02159 | 8.38699 | 5° | 26km/h | 33551m | 5.4m/s | -37.5°C | 0.4% | 7.2hPa | 2.6V | 00:00:00 | 00:00:00 | 00:00:00 | |
| DL1XH-15 | 2026-08-30 18:45:12 | 50.02127 | 8.38679 | 72° | 26km/h | 33521m | 6m/s | -37.4°C | 2% | 7.2hPa | 2.6V | 03:05:37 | 02:03:20 | 00:00:00 | |
| DF8AY | 2026-08-30 18:45:11 | 50.02145 | 8.38698 | 3° | 27km/h | 33541m | 4.1m/s | -37.5°C | 0% | 7.2hPa | 2.7V | 03:05:42 | 02:03:24 | 00:00:00 | |
| AA1-15 | 2026-08-30 18:45:08 | 50.02130 | 8.38687 | 53° | 24km/h | 33527m | 6m/s | -37.5°C | 0% | 7.2hPa | 2.6V | 03:05:42 | 02:03:21 | 00:00:00 | |
| DL1XH-west | 2026-08-30 18:45:07 | 50.02127 | 8.38679 | 72° | 26km/h | 33521m | 6m/s | -37.4°C | 0% | 7.2hPa | 2.6V | 03:05:42 | 02:03:20 | 00:00:00 | |
| HSKMA3-T | 2026-08-30 18:45:06 | 50.02126 | 8.38669 | 84° | 27km/h | 33515m | 5.5m/s | -37.4°C | 0% | 7.2hPa | 2.6V | 03:05:42 | 02:03:19 | 00:00:00 | |
| NBG1-10 | 2026-08-30 18:45:06 | 50.02126 | 8.38669 | 85° | 29km/h | 33516m | 5.4m/s | -37.4°C | 2.0% | 7.2hPa | 2.7V | 00:00:00 | 02:03:19 | 00:00:00 | |
| DF1GD-15 | 2026-08-30 18:45:05 | 50.02125 | 8.38669 | 85° | 27km/h | 33516m | 5.5m/s | -37.4°C | 0.4% | 7.2hPa | 2.7V | 03:05:00 | 00:00:00 | 00:00:00 | |
| DL1XH-15 | 2026-08-30 18:45:02 | 50.02105 | 8.38650 | 354° | 33km/h | 33473m | 3.4m/s | -37.3°C | 2% | 7.3hPa | 2.7V | 03:05:47 | 02:03:10 | 00:00:00 | |
| DM0DOS-11 | 2026-08-30 18:45:01 | 50.02096 | 8.38650 | 12° | 35km/h | 33469m | 3.7m/s | -37.3°C | 2% | 7.3hPa | 2.6V | 03:05:48 | 02:03:09 | 00:00:00 | |
| DF8AY | 2026-08-30 18:44:58 | 50.02112 | 8.38648 | 339° | 29km/h | 33476m | 3.8m/s | -37.3°C | 0% | 7.3hPa | 2.7V | 03:09:06 | 02:03:11 | 00:00:00 | |
| DL1XH-west | 2026-08-30 18:44:57 | 50.02105 | 8.38650 | 354° | 33km/h | 33473m | 3.4m/s | -37.3°C | 0% | 7.3hPa | 2.7V | 03:06:33 | 02:03:10 | 00:00:00 | |
| HSKMA3-T | 2026-08-30 18:44:55 | 50.02088 | 8.38644 | 30° | 38km/h | 33465m | 5.3m/s | -37.3°C | 0% | 7.3hPa | 2.5V | 03:06:33 | 02:03:08 | 00:00:00 | |
| DJ2DS-15 | 2026-08-30 18:44:54 | 50.02073 | 8.38621 | 60° | 46km/h | 33453m | 5.8m/s | -37.4°C | 0.4% | 7.3hPa | 2.6V | 00:00:00 | 00:00:00 | 00:00:00 | |
| DD1CC8 | 2026-08-30 18:44:53 | 50.02068 | 8.38605 | 71° | 44km/h | 33448m | 3.7m/s | -37.4°C | 0.4% | 7.3hPa | 2.6V | 00:00:00 | 00:00:00 | 00:00:00 | |
| DL1XH-15 | 2026-08-30 18:44:52 | 50.02065 | 8.38573 | 276° | 18km/h | 33425m | 7.7m/s | -37.4°C | 2% | 7.3hPa | 2.6V | 03:05:57 | 02:03:00 | 00:00:00 | |
| DL1XH-west | 2026-08-30 18:44:47 | 50.02065 | 8.38573 | 277° | 20km/h | 33425m | 7.7m/s | -37.4°C | 0% | 7.3hPa | 2.6V | 03:06:33 | 02:03:00 | 00:00:00 | |
| AA1-15 | 2026-08-30 18:44:46 | 50.02064 | 8.38583 | 287° | 33km/h | 33418m | 6.4m/s | -37.3°C | 0% | 7.3hPa | 2.6V | 03:06:33 | 02:02:59 | 00:00:00 | |
| DL1XH1-15 | 2026-08-30 18:44:46 | 50.02032 | 8.38618 | 25° | 35km/h | 33398m | 6.5m/s | -37.3°C | 2% | 7.3hPa | 2.7V | 03:06:03 | 02:02:54 | 00:00:00 | |
| BIOWL1-15 | 2026-08-30 18:44:45 | 50.02060 | 8.38596 | 298° | 38km/h | 33413m | 3.7m/s | -37.3°C | 0% | 7.3hPa | 2.7V | 03:06:33 | 02:02:58 | 00:00:00 | |
| DF8AY | 2026-08-30 18:44:43 | 50.02048 | 8.38617 | 331° | 35km/h | 33408m | 2.9m/s | -37.3°C | 0% | 7.3hPa | 2.6V | 03:09:06 | 02:02:56 | 00:00:00 | |
| DL1XH-15 | 2026-08-30 18:44:42 | 50.02010 | 8.38561 | 79° | 40km/h | 33378m | 2.3m/s | -37.3°C | 2% | 7.4hPa | 2.6V | 03:06:07 | 02:02:50 | 00:00:00 | |
| DM0DOS-11 | 2026-08-30 18:44:41 | 50.02009 | 8.38548 | 85° | 26km/h | 33375m | 3.2m/s | -37.3°C | 2% | 7.4hPa | 2.7V | 03:06:08 | 02:02:49 | 00:00:00 | |
| BIOWL1-15 | 2026-08-30 18:44:38 | 50.02009 | 8.38540 | 261° | 7km/h | 33365m | 6.7m/s | -37.3°C | 0% | 7.4hPa | 2.7V | 03:06:33 | 02:02:47 | 00:00:00 | |
| GOEST3-10 | 2026-08-30 18:44:38 | 50.02013 | 8.38577 | 73° | 44km/h | 33381m | 3.3m/s | -37.2°C | 2.0% | 7.3hPa | 2.6V | 00:00:00 | 02:02:51 | 00:00:00 | |
| DL3AQ-11 | 2026-08-30 18:44:37 | 50.02009 | 8.38548 | 85° | 26km/h | 33375m | 3.2m/s | -37.3°C | 0.4% | 7.4hPa | 2.6V | 00:00:00 | 00:00:00 | 00:00:00 | |
| DL1XH1-15 | 2026-08-30 18:44:36 | 50.02007 | 8.38572 | 285° | 40km/h | 33346m | 4.1m/s | -37.3°C | 2% | 7.4hPa | 2.6V | 03:06:13 | 02:02:44 | 00:00:00 | |
| DL1XH-west | 2026-08-30 18:44:36 | 50.02009 | 8.38548 | 85° | 26km/h | 33375m | 3.2m/s | -37.3°C | 0% | 7.4hPa | 2.7V | 03:06:33 | 02:02:49 | 00:00:00 | |
| HSKMA3-T | 2026-08-30 18:44:35 | 50.02009 | 8.38541 | 96° | 11km/h | 33371m | 4.7m/s | -37.3°C | 0% | 7.4hPa | 2.7V | 03:06:33 | 02:02:48 | 00:00:00 | |
| DJ2DS-15 | 2026-08-30 18:44:34 | 50.02009 | 8.38540 | 261° | 29km/h | 33366m | 6.6m/s | -37.3°C | 2.0% | 7.3hPa | 2.6V | 00:00:00 | 02:02:47 | 00:00:00 | |
| NBG1-10 | 2026-08-30 18:44:33 | 50.02009 | 8.38546 | 273° | 26km/h | 33359m | 7.3m/s | -37.3°C | 2.0% | 7.3hPa | 2.6V | 00:00:00 | 02:02:46 | 00:00:00 | |
| DF3TZ-5 | 2026-08-30 18:44:32 | 50.02003 | 8.38586 | 295° | 37km/h | 33343m | 2.7m/s | -37.3°C | 0.4% | 7.4hPa | 2.6V | 00:00:00 | 00:00:00 | 00:00:00 | |
| DM0DOS-11 | 2026-08-30 18:44:31 | 50.01983 | 8.38597 | 47° | 31km/h | 33323m | 7.2m/s | -37.2°C | 1.9% | 7.4hPa | 2.6V | 03:06:18 | 02:02:39 | 00:00:00 | |
| DF8AY | 2026-08-30 18:44:31 | 50.02007 | 8.38572 | 285° | 40km/h | 33346m | 4.1m/s | -37.3°C | 0% | 7.4hPa | 2.6V | 03:09:06 | 02:02:44 | 00:00:00 | |
| DO3MHA-11 | 2026-08-30 18:44:31 | 50.02007 | 8.38572 | 286° | 33km/h | 33347m | 4.0m/s | -37.2°C | 2.0% | 7.4hPa | 2.6V | 00:00:00 | 02:02:44 | 00:00:00 | |
| DO1YAY-16 | 2026-08-30 18:44:30 | 50.02003 | 8.38586 | 295° | 37km/h | 33343m | 2.7m/s | -37.3°C | 0.4% | 7.4hPa | 2.7V | 00:00:00 | 00:00:00 | 00:00:00 | |
| DO9LL-15 | 2026-08-30 18:44:29 | 50.01999 | 8.38597 | 311° | 26km/h | 33340m | 3.1m/s | -37.2°C | 2.0% | 7.4hPa | 2.7V | 00:00:00 | 02:02:42 | 00:00:00 | |
| SONDE2-11 | 2026-08-30 18:44:28 | 50.01994 | 8.38603 | 338° | 22km/h | 33336m | 4.8m/s | -37.3°C | 0.4% | 7.4hPa | 2.6V | 00:00:00 | 00:00:00 | 00:00:00 | |
| DB0NH | 2026-08-30 18:44:27 | 50.01988 | 8.38603 | 19° | 24km/h | 33331m | 6.5m/s | -37.2°C | 2.0% | 7.4hPa | 2.6V | 00:00:00 | 02:02:40 | 00:00:00 | |
| DL1XH1-15 | 2026-08-30 18:44:26 | 50.01966 | 8.38539 | 61° | 13km/h | 33300m | 4.1m/s | -37.3°C | 2% | 7.4hPa | 2.6V | 03:06:23 | 02:02:34 | 00:00:00 | |
| DL1XH-west | 2026-08-30 18:44:25 | 50.01978 | 8.38586 | 61° | 38km/h | 33316m | 6.8m/s | -37.3°C | 0% | 7.4hPa | 2.7V | 03:06:33 | 02:02:38 | 00:00:00 | |
| HSKMA3-T | 2026-08-30 18:44:24 | 50.01974 | 8.38572 | 69° | 42km/h | 33310m | 4.9m/s | -37.2°C | 0% | 7.5hPa | 2.7V | 03:06:33 | 02:02:37 | 00:00:00 | |
| BIOWL1-15 | 2026-08-30 18:44:23 | 50.01970 | 8.38557 | 73° | 37km/h | 33307m | 3.1m/s | -37.3°C | 0% | 7.5hPa | 2.7V | 03:06:33 | 02:02:36 | 00:00:00 | |
| DO3MHA-11 | 2026-08-30 18:44:21 | 50.01966 | 8.38538 | 62° | 22km/h | 33300m | 4.1m/s | -37.2°C | 2.0% | 7.4hPa | 2.6V | 00:00:00 | 02:02:34 | 00:00:00 | |
| KANTATE | 2026-08-30 18:44:20 | 50.01966 | 8.38538 | 62° | 13km/h | 33300m | 4.1m/s | -37.3°C | 0.4% | 7.4hPa | 2.6V | 03:06:00 | 00:00:00 | 00:00:00 | |
| DL0LBS | 2026-08-30 18:44:17 | 50.01963 | 8.38551 | 278° | 31km/h | 33282m | 7.0m/s | -37.3°C | 0.5% | 7.5hPa | 2.6V | 03:06:00 | 00:00:00 | 00:00:00 | |
| DL1XH1-15 | 2026-08-30 18:44:16 | 50.01950 | 8.38604 | 51° | 20km/h | 33247m | 6.2m/s | -37.4°C | 2% | 7.5hPa | 2.6V | 03:06:33 | 02:02:24 | 00:00:00 | |
| DF8AY | 2026-08-30 18:44:15 | 50.01960 | 8.38592 | 281° | 31km/h | 33266m | 3.5m/s | -37.4°C | 0% | 7.5hPa | 2.6V | 03:09:06 | 02:02:28 | 00:00:00 | |
| DL1XH-west | 2026-08-30 18:44:14 | 50.01958 | 8.38602 | 291° | 22km/h | 33263m | 3.9m/s | -37.4°C | 0% | 7.5hPa | 2.7V | 03:06:33 | 02:02:27 | 00:00:00 | |
| HSKMA3-T | 2026-08-30 18:44:13 | 50.01956 | 8.38607 | 323° | 11km/h | 33258m | 4.9m/s | -37.4°C | 0% | 7.5hPa | 2.7V | 03:06:33 | 02:02:26 | 00:00:00 | |
| DL1XH-15 | 2026-08-30 18:44:12 | 50.01935 | 8.38575 | 27° | 18km/h | 33227m | 4.3m/s | -37.5°C | 2% | 7.5hPa | 2.7V | 03:06:37 | 02:02:20 | 00:00:00 | |
| BIOWL1-15 | 2026-08-30 18:44:12 | 50.01953 | 8.38608 | 27° | 13km/h | 33253m | 5.9m/s | -37.4°C | 0% | 7.5hPa | 2.7V | 03:06:33 | 02:02:25 | 00:00:00 | |
| DO3MHA-11 | 2026-08-30 18:44:11 | 50.01950 | 8.38603 | 52° | 24km/h | 33248m | 6.2m/s | -37.3°C | 2.0% | 7.5hPa | 2.7V | 00:00:00 | 02:02:24 | 00:00:00 | |
| DB0UT-7 | 2026-08-30 18:44:10 | 50.01947 | 8.38596 | 58° | 18km/h | 33241m | 5.5m/s | -37.4°C | 2.0% | 7.5hPa | 2.7V | 00:00:00 | 02:02:23 | 00:00:00 | |
| DN1GJH-1 | 2026-08-30 18:44:09 | 50.01943 | 8.38587 | 57° | 27km/h | 33237m | 4.8m/s | -37.4°C | 0.4% | 7.5hPa | 2.7V | 03:07:00 | 00:00:00 | 00:00:00 | |
| BIOWL9-15 | 2026-08-30 18:44:08 | 50.01939 | 8.38579 | 47° | 22km/h | 33232m | 4.1m/s | -37.4°C | 0.4% | 7.5hPa | 2.7V | 00:00:00 | 00:00:00 | 00:00:00 | |
| DB0ND-19 | 2026-08-30 18:44:07 | 50.01935 | 8.38574 | 27° | 16km/h | 33227m | 4.3m/s | -37.5°C | 0.4% | 7.5hPa | 2.7V | 00:00:00 | 00:00:00 | 00:00:00 | |
| DL1XH1-15 | 2026-08-30 18:44:06 | 50.01919 | 8.38616 | 285° | 26km/h | 33196m | 4.5m/s | -37.6°C | 2% | 7.6hPa | 2.7V | 03:06:43 | 02:02:14 | 00:00:00 | |
| DL1XH-west | 2026-08-30 18:44:04 | 50.01925 | 8.38584 | 295° | 26km/h | 33211m | 5.8m/s | -37.5°C | 0% | 7.6hPa | 2.6V | 03:07:24 | 02:02:17 | 00:00:00 | |
| HSKMA3-T | 2026-08-30 18:44:03 | 50.01923 | 8.38594 | 287° | 29km/h | 33206m | 5.1m/s | -37.6°C | 0% | 7.5hPa | 2.7V | 03:07:24 | 02:02:16 | 00:00:00 | |
| AA1-15 | 2026-08-30 18:44:02 | 50.01921 | 8.38605 | 285° | 31km/h | 33201m | 4.6m/s | -37.6°C | 0% | 7.5hPa | 2.7V | 03:07:24 | 02:02:15 | 00:00:00 | |
| BIOWL1-15 | 2026-08-30 18:44:01 | 50.01919 | 8.38616 | 286° | 27km/h | 33196m | 4.5m/s | -37.6°C | 0% | 7.6hPa | 2.7V | 03:07:24 | 02:02:14 | 00:00:00 | |
| HSKMA3-T | 2026-08-30 18:43:53 | 50.01902 | 8.38616 | 338° | 7km/h | 33157m | 5.2m/s | -37.6°C | 0% | 7.6hPa | 2.6V | 03:07:24 | 02:02:06 | 00:00:00 | |
| DL1XH-15 | 2026-08-30 18:43:52 | 50.01898 | 8.38661 | 272° | 15km/h | 33127m | 4.8m/s | -37.6°C | 2% | 7.6hPa | 2.6V | 03:06:57 | 02:02:00 | 00:00:00 | |
| BIOWL1-15 | 2026-08-30 18:43:51 | 50.01900 | 8.38625 | 279° | 20km/h | 33146m | 5.8m/s | -37.6°C | 0% | 7.6hPa | 2.7V | 03:07:24 | 02:02:04 | 00:00:00 | |
| DF8AY | 2026-08-30 18:43:49 | 50.01899 | 8.38644 | 273° | 26km/h | 33136m | 4.2m/s | -37.6°C | 0% | 7.6hPa | 2.6V | 03:09:06 | 02:02:02 | 00:00:00 | |
| DL8OAI-8 | 2026-08-30 18:43:48 | 50.01899 | 8.38644 | 274° | 26km/h | 33136m | 4.2m/s | -37.6°C | 0.4% | 7.6hPa | 2.7V | 03:07:00 | 00:00:00 | 00:00:00 | |
| BIOWL7-15 | 2026-08-30 18:43:47 | 50.01899 | 8.38654 | 273° | 22km/h | 33132m | 3.9m/s | -37.6°C | 0.4% | 7.7hPa | 2.7V | 03:07:00 | 00:00:00 | 00:00:00 | |
| DL1XH1-15 | 2026-08-30 18:43:46 | 50.01901 | 8.38645 | 122° | 11km/h | 33096m | 4.7m/s | -37.6°C | 2% | 7.7hPa | 2.7V | 03:07:03 | 02:01:54 | 00:00:00 | |
| DL3AQ-11 | 2026-08-30 18:43:46 | 50.01898 | 8.38665 | 93° | 4km/h | 33116m | 6.0m/s | -37.6°C | 0.4% | 7.7hPa | 2.6V | 00:00:00 | 00:00:00 | 00:00:00 | |
| DL8DAS-14 | 2026-08-30 18:43:45 | 50.01898 | 8.38665 | 93° | 4km/h | 33116m | 6.0m/s | -37.6°C | 0.4% | 7.7hPa | 2.6V | 00:00:00 | 00:00:00 | 00:00:00 | |
| DL1XH-west | 2026-08-30 18:43:43 | 50.01899 | 8.38656 | 101° | 16km/h | 33105m | 4.6m/s | -37.6°C | 0% | 7.7hPa | 2.6V | 03:07:24 | 02:01:56 | 00:00:00 | |
| HSKMA3-T | 2026-08-30 18:43:42 | 50.01900 | 8.38650 | 108° | 16km/h | 33101m | 4.2m/s | -37.6°C | 0% | 7.7hPa | 2.6V | 03:07:24 | 02:01:55 | 00:00:00 | |
| DJ2DS-15 | 2026-08-30 18:43:42 | 50.01901 | 8.38645 | 122° | 11km/h | 33096m | 4.7m/s | -37.7°C | 0.4% | 7.7hPa | 2.6V | 00:00:00 | 00:00:00 | 00:00:00 | |
| DM0DOS-11 | 2026-08-30 18:43:41 | 50.01904 | 8.38664 | 286° | 22km/h | 33071m | 4.8m/s | -37.7°C | 2% | 7.7hPa | 2.6V | 03:07:08 | 02:01:49 | 00:00:00 | |
| AA1-15 | 2026-08-30 18:43:41 | 50.01901 | 8.38645 | 122° | 11km/h | 33096m | 4.7m/s | -37.7°C | 0% | 7.7hPa | 2.7V | 03:07:24 | 02:01:54 | 00:00:00 | |
| BIOWL1-15 | 2026-08-30 18:43:40 | 50.01903 | 8.38643 | 168° | 5km/h | 33091m | 5.2m/s | -37.7°C | 0% | 7.7hPa | 2.7V | 03:07:24 | 02:01:53 | 00:00:00 | |
| DB0UT-7 | 2026-08-30 18:43:40 | 50.01903 | 8.38643 | 168° | 15km/h | 33092m | 5.1m/s | -37.6°C | 2.0% | 7.7hPa | 2.6V | 00:00:00 | 00:00:00 | 00:00:00 | |
| DL4BBY-15 | 2026-08-30 18:43:39 | 50.01904 | 8.38644 | 243° | 16km/h | 33087m | 5.1m/s | -39.4°C | 0% | 0hPa | 2.6V | 00:00:00 | 00:00:00 | 00:00:00 | |
| DO3DL | 2026-08-30 18:43:38 | 50.01904 | 8.38644 | 244° | 9km/h | 33087m | 5.2m/s | -37.7°C | 0.4% | 7.7hPa | 2.6V | 03:07:00 | 00:00:00 | 00:00:00 | |
| BIOWL9-15 | 2026-08-30 18:43:37 | 50.01905 | 8.38656 | 276° | 20km/h | 33076m | 5.0m/s | -37.7°C | -1.0% | 7.7hPa | 2.6V | 00:00:00 | 00:00:00 | 00:00:00 | |
| DL1XH1-15 | 2026-08-30 18:43:36 | 50.01889 | 8.38685 | 16° | 11km/h | 33045m | 4.8m/s | -37.8°C | 2% | 7.7hPa | 2.6V | 03:07:13 | 02:01:44 | 00:00:00 | |
| DF8AY | 2026-08-30 18:43:36 | 50.01904 | 8.38664 | 286° | 22km/h | 33071m | 4.8m/s | -37.7°C | 0% | 7.7hPa | 2.6V | 03:09:06 | 02:01:49 | 00:00:00 | |
| DL1XH-west | 2026-08-30 18:43:33 | 50.01895 | 8.38683 | 332° | 16km/h | 33055m | 5.4m/s | -37.8°C | 0% | 7.7hPa | 2.6V | 03:07:24 | 02:01:46 | 00:00:00 | |
| DL1XH-15 | 2026-08-30 18:43:32 | 50.01886 | 8.38681 | 222° | 5km/h | 33024m | 5.7m/s | -37.9°C | 2% | 7.8hPa | 2.6V | 03:07:17 | 02:01:40 | 00:00:00 | |
| HSKMA3-T | 2026-08-30 18:43:31 | 50.01889 | 8.38685 | 17° | 11km/h | 33045m | 4.8m/s | -37.8°C | 0% | 7.7hPa | 2.6V | 03:07:24 | 02:01:44 | 00:00:00 | |
| BIOWL1-15 | 2026-08-30 18:43:30 | 50.01887 | 8.38683 | 38° | 9km/h | 33040m | 4.7m/s | -37.8°C | 0% | 7.8hPa | 2.7V | 03:07:24 | 02:01:43 | 00:00:00 | |
| DL3AQ-11 | 2026-08-30 18:43:30 | 50.01885 | 8.38681 | 57° | 4km/h | 33035m | 4.9m/s | -37.8°C | 0.4% | 7.8hPa | 2.6V | 00:00:00 | 00:00:00 | 00:00:00 | |
| DO9LL-15 | 2026-08-30 18:43:29 | 50.01885 | 8.38681 | 58° | 18km/h | 33035m | 4.9m/s | -37.8°C | 2.0% | 7.7hPa | 2.6V | 00:00:00 | 02:01:42 | 00:00:00 | |
| DO1YAY-16 | 2026-08-30 18:43:28 | 50.01886 | 8.38681 | 222° | 5km/h | 33024m | 5.7m/s | -37.9°C | 0.4% | 7.8hPa | 2.6V | 00:00:00 | 00:00:00 | 00:00:00 | |
| BUE01 | 2026-08-30 18:43:27 | 50.01887 | 8.38683 | 239° | 9km/h | 33019m | 5.1m/s | -38.0°C | 0.4% | 7.8hPa | 2.6V | 00:00:00 | 00:00:00 | 00:00:00 | |
| DL1XH1-15 | 2026-08-30 18:43:26 | 50.01881 | 8.38701 | 355° | 20km/h | 32995m | 6.3m/s | -38.2°C | 2.1% | 7.8hPa | 2.6V | 03:07:23 | 02:01:34 | 00:00:00 | |
| DF8AY | 2026-08-30 18:43:24 | 50.01889 | 8.38692 | 274° | 13km/h | 33010m | 4m/s | -38°C | 0% | 7.8hPa | 2.7V | 03:09:06 | 02:01:37 | 00:00:00 | |
| DK5PH-5 | 2026-08-30 18:43:23 | 50.01888 | 8.38697 | 305° | 18km/h | 33006m | 4.3m/s | -38.0°C | 2.0% | 7.8hPa | 2.7V | 00:00:00 | 02:01:36 | 00:00:00 | |
| DL1XH-15 | 2026-08-30 18:43:22 | 50.01854 | 8.38697 | 358° | 24km/h | 32975m | 3.9m/s | -38.4°C | 2.1% | 7.8hPa | 2.7V | 03:07:27 | 02:01:30 | 00:00:00 | |
| DL1XH-west | 2026-08-30 18:43:22 | 50.01885 | 8.38700 | 337° | 15km/h | 33001m | 5.3m/s | -38.1°C | 0% | 7.8hPa | 2.6V | 03:07:24 | 02:01:35 | 00:00:00 | |
| HSKMA3-T | 2026-08-30 18:43:20 | 50.01875 | 8.38701 | 6° | 26km/h | 32989m | 5.9m/s | -38.2°C | 0% | 7.8hPa | 2.6V | 03:07:24 | 02:01:33 | 00:00:00 | |
| AA1-15 | 2026-08-30 18:43:19 | 50.01868 | 8.38699 | 8° | 29km/h | 32983m | 5m/s | -38.3°C | 0% | 7.8hPa | 2.7V | 03:08:15 | 02:01:32 | 00:00:00 | |
| KANTATE | 2026-08-30 18:43:18 | 50.01868 | 8.38699 | 9° | 29km/h | 32984m | 5.0m/s | -38.3°C | 0.4% | 7.8hPa | 2.6V | 03:08:00 | 00:00:00 | 00:00:00 | |
| DL8DAS-15 | 2026-08-30 18:43:17 | 50.01861 | 8.38698 | 7° | 27km/h | 32979m | 4.0m/s | -38.3°C | 0.5% | 7.8hPa | 2.6V | 03:08:00 | 00:00:00 | 00:00:00 | |
| DL1XH1-15 | 2026-08-30 18:43:16 | 50.01843 | 8.38729 | 265° | 15km/h | 32944m | 3.6m/s | -38.4°C | 2.1% | 7.9hPa | 2.6V | 03:07:33 | 02:01:24 | 00:00:00 | |
| CB1BUN | 2026-08-30 18:43:14 | 50.01842 | 8.38707 | 288° | 18km/h | 32959m | 6.2m/s | -38.3°C | 0.4% | 7.9hPa | 2.7V | 03:08:00 | 00:00:00 | 00:00:00 | |
| DO2KSM | 2026-08-30 18:43:13 | 50.01842 | 8.38707 | 288° | 18km/h | 32959m | 6.2m/s | -38.3°C | 0.4% | 7.9hPa | 2.7V | 03:08:00 | 00:00:00 | 00:00:00 | |
| DL1XH-15 | 2026-08-30 18:43:12 | 50.01833 | 8.38732 | 16° | 26km/h | 32924m | 5.2m/s | -38.4°C | 2.1% | 7.9hPa | 2.7V | 03:07:37 | 02:01:20 | 00:00:00 | |
| DL1XH-west | 2026-08-30 18:43:11 | 50.01843 | 8.38729 | 266° | 15km/h | 32944m | 3.6m/s | -38.4°C | 0% | 7.9hPa | 2.6V | 03:08:15 | 02:01:24 | 00:00:00 | |
| HSKMA3-T | 2026-08-30 18:43:10 | 50.01843 | 8.38733 | 293° | 9km/h | 32940m | 4.5m/s | -38.4°C | 0% | 7.9hPa | 2.6V | 03:08:15 | 02:01:23 | 00:00:00 | |
| BIOWL1-15 | 2026-08-30 18:43:09 | 50.01841 | 8.38735 | 350° | 9km/h | 32935m | 5.8m/s | -38.4°C | 0% | 7.9hPa | 2.6V | 03:08:15 | 02:01:22 | 00:00:00 | |
| AA1-15 | 2026-08-30 18:43:08 | 50.01838 | 8.38735 | 13° | 18km/h | 32929m | 5.9m/s | -38.4°C | 0% | 7.9hPa | 2.7V | 03:08:15 | 02:01:21 | 00:00:00 | |
| DJ2DS-15 | 2026-08-30 18:43:06 | 50.01819 | 8.38729 | 1° | 27km/h | 32915m | 3.8m/s | -38.4°C | 0.4% | 7.9hPa | 2.7V | 00:00:00 | 00:00:00 | 00:00:00 | |
| DB0ND-19 | 2026-08-30 18:43:05 | 50.01819 | 8.38729 | 1° | 27km/h | 32915m | 3.8m/s | -38.4°C | 0.4% | 7.9hPa | 2.7V | 00:00:00 | 00:00:00 | 00:00:00 | |
| EDDB2-11 | 2026-08-30 18:43:04 | 50.01807 | 8.38734 | 321° | 24km/h | 32906m | 5.7m/s | -38.4°C | 0.4% | 7.9hPa | 2.7V | 00:00:00 | 00:00:00 | 00:00:00 | |
| DL1XH-15 | 2026-08-30 18:43:02 | 50.01807 | 8.38792 | 251° | 13km/h | 32876m | 5m/s | -38.5°C | 2.1% | 7.9hPa | 2.7V | 03:07:47 | 02:01:10 | 00:00:00 | |
| DL1XH-west | 2026-08-30 18:43:01 | 50.01802 | 8.38752 | 275° | 31km/h | 32893m | 6.2m/s | -38.4°C | 0% | 7.9hPa | 2.7V | 03:08:15 | 02:01:14 | 00:00:00 | |
| HSKMA3-T | 2026-08-30 18:42:59 | 50.01803 | 8.38776 | 255° | 29km/h | 32884m | 3.7m/s | -38.5°C | 0% | 8hPa | 2.6V | 03:08:15 | 02:01:12 | 00:00:00 | |
| BIOWL1-15 | 2026-08-30 18:42:58 | 50.01805 | 8.38786 | 251° | 22km/h | 32880m | 3.6m/s | -38.5°C | 0% | 8hPa | 2.6V | 03:08:15 | 02:01:11 | 00:00:00 | |
| DF8AY | 2026-08-30 18:42:57 | 50.01807 | 8.38792 | 252° | 13km/h | 32876m | 5m/s | -38.5°C | 0% | 8hPa | 2.7V | 03:09:06 | 02:01:10 | 00:00:00 | |
| DO1YAY-16 | 2026-08-30 18:42:57 | 50.01807 | 8.38795 | 292° | 2km/h | 32871m | 5.9m/s | -38.6°C | 0.4% | 8.0hPa | 2.7V | 00:00:00 | 00:00:00 | 00:00:00 | |
| DL1XH1-15 | 2026-08-30 18:42:56 | 50.01789 | 8.38785 | 352° | 20km/h | 32844m | 4.8m/s | -38.6°C | 2.1% | 8hPa | 2.7V | 03:07:53 | 02:01:04 | 00:00:00 | |
| BUE01 | 2026-08-30 18:42:56 | 50.01806 | 8.38795 | 32° | 9km/h | 32865m | 6.1m/s | -38.6°C | 0.5% | 8.0hPa | 2.6V | 00:00:00 | 00:00:00 | 00:00:00 | |
| SONDE2-11 | 2026-08-30 18:42:55 | 50.01806 | 8.38795 | 32° | 9km/h | 32865m | 6.1m/s | -38.6°C | 0.5% | 8.0hPa | 2.6V | 00:00:00 | 00:00:00 | 00:00:00 | |
| DJ2DS-15 | 2026-08-30 18:42:54 | 50.01803 | 8.38792 | 34° | 16km/h | 32859m | 5.5m/s | -38.5°C | 2.1% | 7.9hPa | 2.6V | 03:07:00 | 02:01:07 | 00:00:00 | |
| DJTTGO | 2026-08-30 18:42:53 | 50.01803 | 8.38792 | 34° | 16km/h | 32859m | 5.5m/s | -38.6°C | 0.4% | 8.0hPa | 2.6V | 00:00:00 | 00:00:00 | 00:00:00 | |
| DL1XH-15 | 2026-08-30 18:42:52 | 50.01779 | 8.38814 | 268° | 31km/h | 32824m | 5m/s | -38.8°C | 2.1% | 8hPa | 2.6V | 03:07:57 | 02:01:00 | 00:00:00 | |
| GOEST3-10 | 2026-08-30 18:42:52 | 50.01794 | 8.38785 | 15° | 26km/h | 32850m | 4.3m/s | 0°C | 0% | 0hPa | 2.7V | 00:00:00 | 00:00:00 | 00:00:00 | |
| DM0DOS-11 | 2026-08-30 18:42:51 | 50.01780 | 8.38825 | 261° | 29km/h | 32819m | 4.8m/s | -38.8°C | 2.1% | 8hPa | 2.7V | 03:07:58 | 02:00:59 | 00:00:00 | |
| DL1XH-west | 2026-08-30 18:42:51 | 50.01789 | 8.38784 | 353° | 20km/h | 32845m | 4.8m/s | -38.6°C | 0% | 8hPa | 2.7V | 03:08:15 | 02:01:04 | 00:00:00 | |
| DF8AY | 2026-08-30 18:42:50 | 50.01781 | 8.38836 | 258° | 24km/h | 32814m | 4.7m/s | -38.8°C | 0% | 8hPa | 2.7V | 03:09:06 | 02:00:58 | 00:00:00 | |
| HSKMA3-T | 2026-08-30 18:42:49 | 50.01781 | 8.38793 | 295° | 22km/h | 32834m | 5.4m/s | -38.7°C | 0% | 8hPa | 2.6V | 03:08:15 | 02:01:02 | 00:00:00 | |
| BIOWL1-15 | 2026-08-30 18:42:47 | 50.01779 | 8.38814 | 268° | 31km/h | 32824m | 5m/s | -38.8°C | 0% | 8hPa | 2.6V | 03:08:15 | 02:01:00 | 00:00:00 | |
| AA1-15 | 2026-08-30 18:42:46 | 50.01780 | 8.38825 | 261° | 29km/h | 32819m | 4.8m/s | -38.8°C | 0% | 8hPa | 2.7V | 03:08:15 | 02:00:59 | 00:00:00 | |
| GOEST3-10 | 2026-08-30 18:42:45 | 50.01781 | 8.38836 | 259° | 18km/h | 32815m | 4.6m/s | 0°C | 0% | 0hPa | 2.6V | 00:00:00 | 02:00:58 | 00:00:00 | |
| BIOWL7-15 | 2026-08-30 18:42:44 | 50.01781 | 8.38836 | 259° | 24km/h | 32815m | 4.7m/s | -38.8°C | 0.4% | 8.0hPa | 2.6V | 03:08:00 | 00:00:00 | 00:00:00 | |
| DL8DAS-14 | 2026-08-30 18:42:43 | 50.01783 | 8.38849 | 258° | 9km/h | 32805m | 5.1m/s | -38.8°C | 0.4% | 8.0hPa | 2.6V | 00:00:00 | 00:00:00 | 00:00:00 | |
| DL1XH-15 | 2026-08-30 18:42:42 | 50.01778 | 8.38861 | 278° | 13km/h | 32773m | 5.3m/s | -38.8°C | 2.1% | 8.1hPa | 2.6V | 03:08:07 | 02:00:50 | 00:00:00 | |
| DM0DOS-11 | 2026-08-30 18:42:41 | 50.01778 | 8.38867 | 268° | 18km/h | 32768m | 5m/s | -38.8°C | 2.1% | 8.1hPa | 2.6V | 03:08:08 | 02:00:49 | 00:00:00 | |
| DL1XH-west | 2026-08-30 18:42:41 | 50.01782 | 8.38853 | 342° | 4km/h | 32794m | 5m/s | -38.8°C | 0% | 8.1hPa | 2.6V | 03:08:15 | 02:00:54 | 00:00:00 | |
| BIOWL1-15 | 2026-08-30 18:42:39 | 50.01778 | 8.38861 | 278° | 13km/h | 32773m | 5.3m/s | -38.8°C | 0% | 8.1hPa | 2.6V | 03:08:15 | 02:00:50 | 00:00:00 | |
| HSKMA3-T | 2026-08-30 18:42:38 | 50.01779 | 8.38856 | 301° | 9km/h | 32778m | 5.2m/s | -38.8°C | 0% | 8.1hPa | 2.6V | 03:08:15 | 02:00:51 | 00:00:00 | |
| AA1-15 | 2026-08-30 18:42:35 | 50.01778 | 8.38874 | 264° | 20km/h | 32763m | 4.9m/s | -38.8°C | 0% | 8.1hPa | 2.7V | 03:08:15 | 02:00:48 | 00:00:00 | |
| DF8AY | 2026-08-30 18:42:34 | 50.01779 | 8.38882 | 258° | 22km/h | 32758m | 4.6m/s | -38.8°C | 0% | 8.1hPa | 2.7V | 03:09:06 | 02:00:47 | 00:00:00 | |
| DJ2DS-15 | 2026-08-30 18:42:34 | 50.01779 | 8.38882 | 259° | 11km/h | 32759m | 4.6m/s | -38.8°C | 2.1% | 8.0hPa | 2.6V | 00:00:00 | 02:00:47 | 00:00:00 | |
| EDDB2-11 | 2026-08-30 18:42:33 | 50.01782 | 8.38896 | 251° | 15km/h | 32749m | 5.3m/s | -38.9°C | 0.4% | 8.1hPa | 2.6V | 00:00:00 | 00:00:00 | 00:00:00 | |
| DL1XH-15 | 2026-08-30 18:42:32 | 50.01784 | 8.38906 | 245° | 5km/h | 32724m | 4.8m/s | -39.2°C | 2.2% | 8.1hPa | 2.6V | 03:08:17 | 02:00:40 | 00:00:00 | |
| DM0DOS-11 | 2026-08-30 18:42:31 | 50.01785 | 8.38909 | 246° | 9km/h | 32718m | 5.5m/s | -39.2°C | 2.2% | 8.2hPa | 2.6V | 03:08:18 | 02:00:39 | 00:00:00 | |
| DL1XH-west | 2026-08-30 18:42:30 | 50.01783 | 8.38903 | 253° | 4km/h | 32738m | 5.3m/s | -39°C | 0% | 8.1hPa | 2.6V | 03:08:15 | 02:00:43 | 00:00:00 | |
| HSKMA3-T | 2026-08-30 18:42:28 | 50.01784 | 8.38905 | 253° | 2km/h | 32729m | 4.2m/s | -39.1°C | 0% | 8.2hPa | 2.7V | 03:09:06 | 02:00:41 | 00:00:00 | |
| BIOWL1-15 | 2026-08-30 18:42:26 | 50.01785 | 8.38909 | 246° | 9km/h | 32719m | 5.5m/s | -39.2°C | 0% | 8.2hPa | 2.6V | 03:09:06 | 02:00:39 | 00:00:00 | |
| DL1XH1-15 | 2026-08-30 18:42:26 | 50.01792 | 8.38934 | 241° | 11km/h | 32693m | 5.6m/s | -39.3°C | 2.2% | 8.2hPa | 2.6V | 03:08:23 | 02:00:34 | 00:00:00 | |
| AA1-15 | 2026-08-30 18:42:24 | 50.01787 | 8.38918 | 246° | 16km/h | 32708m | 5m/s | -39.3°C | 0% | 8.2hPa | 2.7V | 03:09:06 | 02:00:37 | 00:00:00 | |
| DF8AY | 2026-08-30 18:42:23 | 50.01789 | 8.38923 | 247° | 16km/h | 32703m | 4.9m/s | -39.3°C | 0% | 8.2hPa | 2.7V | 03:09:06 | 02:00:36 | 00:00:00 | |
| DK5PH-5 | 2026-08-30 18:42:22 | 50.01790 | 8.38929 | 245° | 11km/h | 32698m | 5.0m/s | -39.3°C | 2.1% | 8.1hPa | 2.6V | 00:00:00 | 02:00:35 | 00:00:00 | |
| DM0DOS-11 | 2026-08-30 18:42:21 | 50.01799 | 8.38946 | 224° | 11km/h | 32668m | 5.6m/s | -39.4°C | 2.2% | 8.2hPa | 2.6V | 03:08:28 | 02:00:29 | 00:00:00 | |
| DL1XH-west | 2026-08-30 18:42:19 | 50.01794 | 8.38939 | 226° | 7km/h | 32682m | 4.8m/s | -39.3°C | 0% | 8.2hPa | 2.6V | 03:09:06 | 02:00:32 | 00:00:00 | |
| HSKMA3-T | 2026-08-30 18:42:17 | 50.01797 | 8.38943 | 223° | 9km/h | 32673m | 4.7m/s | -39.4°C | 0% | 8.2hPa | 2.7V | 03:09:06 | 02:00:30 | 00:00:00 | |
| BIOWL1-15 | 2026-08-30 18:42:16 | 50.01799 | 8.38946 | 225° | 11km/h | 32668m | 5.6m/s | -39.4°C | 0% | 8.2hPa | 2.6V | 03:09:06 | 02:00:29 | 00:00:00 | |
| DL1CLM-18 | 2026-08-30 18:42:15 | 50.01799 | 8.38946 | 226° | 11km/h | 32668m | 5.6m/s | -39.4°C | 0.5% | 8.2hPa | 2.7V | 03:09:00 | 00:00:00 | 00:00:00 | |
| DJ2DS-15 | 2026-08-30 18:42:14 | 50.01803 | 8.38954 | 232° | 13km/h | 32657m | 5.2m/s | -39.4°C | 2.2% | 8.2hPa | 2.7V | 00:00:00 | 02:00:27 | 00:00:00 | |
| DC4HF-4 | 2026-08-30 18:42:13 | 50.01806 | 8.38960 | 231° | 15km/h | 32652m | 4.6m/s | -39.5°C | 0.5% | 8.2hPa | 2.7V | 00:00:00 | 00:00:00 | 00:00:00 | |
| DF8AY | 2026-08-30 18:42:13 | 50.01806 | 8.38960 | 232° | 16km/h | 32652m | 4.6m/s | -39.5°C | 0% | 8.2hPa | 2.7V | 03:09:06 | 02:00:26 | 00:00:00 | |
| DL1XH-15 | 2026-08-30 18:42:12 | 50.01815 | 8.38965 | 146° | 7km/h | 32622m | 4.3m/s | -39.8°C | 2.3% | 8.3hPa | 2.7V | 03:08:37 | 02:00:20 | 00:00:00 | |
| DL1XH-west | 2026-08-30 18:42:08 | 50.01814 | 8.38967 | 130° | 5km/h | 32626m | 4.5m/s | -39.7°C | 0% | 8.2hPa | 2.6V | 03:09:06 | 02:00:21 | 00:00:00 | |
| HSKMA3-T | 2026-08-30 18:42:07 | 50.01815 | 8.38965 | 147° | 7km/h | 32622m | 4.3m/s | -39.8°C | 0% | 8.3hPa | 2.7V | 03:09:06 | 02:00:20 | 00:00:00 | |
| BIOWL1-15 | 2026-08-30 18:42:07 | 50.01819 | 8.38965 | 199° | 13km/h | 32613m | 5.2m/s | -39.7°C | 0% | 8.3hPa | 2.6V | 03:09:06 | 02:00:18 | 00:00:00 | |
| GOEST3-10 | 2026-08-30 18:42:07 | 50.01815 | 8.38965 | 147° | 13km/h | 32622m | 4.3m/s | 0°C | 0% | 0hPa | 2.6V | 03:08:00 | 00:00:00 | 00:00:00 | |
| DL8DAS-15 | 2026-08-30 18:42:06 | 50.01815 | 8.38965 | 148° | 7km/h | 32622m | 4.3m/s | -39.8°C | 0.5% | 8.3hPa | 2.6V | 03:09:00 | 00:00:00 | 00:00:00 | |
| DN1GJH-1 | 2026-08-30 18:42:04 | 50.01819 | 8.38964 | 200° | 13km/h | 32613m | 5.2m/s | -39.7°C | 0.5% | 8.3hPa | 2.6V | 03:09:00 | 00:00:00 | 00:00:00 | |
| DB0ND-19 | 2026-08-30 18:42:03 | 50.01827 | 8.38971 | 219° | 20km/h | 32602m | 5.6m/s | -39.7°C | 0.5% | 8.3hPa | 2.6V | 00:00:00 | 00:00:00 | 00:00:00 | |
| DL1XH-15 | 2026-08-30 18:42:02 | 50.01839 | 8.38982 | 69° | 15km/h | 32572m | 5.8m/s | -39.6°C | 2.3% | 8.3hPa | 2.6V | 03:08:47 | 02:00:10 | 00:00:00 | |
| AA1-15 | 2026-08-30 18:42:02 | 50.01831 | 8.38977 | 222° | 22km/h | 32597m | 4.4m/s | -39.7°C | 0% | 8.3hPa | 2.7V | 03:09:06 | 02:00:15 | 00:00:00 | |
| EDDB2-11 | 2026-08-30 18:42:02 | 50.01834 | 8.38982 | 221° | 18km/h | 32593m | 3.8m/s | -39.7°C | 0.5% | 8.3hPa | 2.7V | 00:00:00 | 00:00:00 | 00:00:00 | |
| DM0DOS-11 | 2026-08-30 18:42:01 | 50.01838 | 8.38976 | 68° | 16km/h | 32566m | 4.5m/s | -39.5°C | 2.2% | 8.3hPa | 2.7V | 03:08:48 | 02:00:09 | 00:00:00 | |
| DF8AY | 2026-08-30 18:42:00 | 50.01839 | 8.38987 | 182° | 4km/h | 32583m | 5.7m/s | -39.7°C | 0% | 8.3hPa | 2.6V | 03:09:06 | 02:00:12 | 00:00:00 | |
| DL1XH-west | 2026-08-30 18:41:57 | 50.01839 | 8.38982 | 70° | 15km/h | 32572m | 5.8m/s | -39.6°C | 0% | 8.3hPa | 2.6V | 03:09:06 | 02:00:10 | 00:00:00 | |
| DL3AQ-11 | 2026-08-30 18:41:57 | 50.01837 | 8.38976 | 68° | 16km/h | 32566m | 4.6m/s | -39.5°C | 0.5% | 8.4hPa | 2.7V | 00:00:00 | 00:00:00 | 00:00:00 | |
| DL1XH1-15 | 2026-08-30 18:41:56 | 50.01841 | 8.38965 | 215° | 16km/h | 32542m | 5.5m/s | -39.3°C | 2.2% | 8.4hPa | 2.7V | 03:08:53 | 02:00:04 | 00:00:00 | |
| HSKMA3-T | 2026-08-30 18:41:56 | 50.01837 | 8.38976 | 69° | 16km/h | 32566m | 4.6m/s | -39.5°C | 0% | 8.4hPa | 2.7V | 03:09:06 | 02:00:09 | 00:00:00 | |
| BIOWL1-15 | 2026-08-30 18:41:54 | 50.01835 | 8.38965 | 87° | 9km/h | 32558m | 4.1m/s | -39.5°C | 0% | 8.4hPa | 2.6V | 03:09:06 | 02:00:07 | 00:00:00 | |
| BUE01 | 2026-08-30 18:41:54 | 50.01836 | 8.38963 | 140° | 5km/h | 32553m | 5.4m/s | -39.5°C | 0.5% | 8.3hPa | 2.6V | 00:00:00 | 00:00:00 | 00:00:00 | |
| SONDE2-11 | 2026-08-30 18:41:53 | 50.01836 | 8.38963 | 140° | 5km/h | 32553m | 5.4m/s | -39.5°C | 0.5% | 8.3hPa | 2.6V | 00:00:00 | 00:00:00 | 00:00:00 | |
| DL1XH-15 | 2026-08-30 18:41:52 | 50.01854 | 8.38984 | 227° | 9km/h | 32522m | 5.2m/s | -39.2°C | 2.2% | 8.4hPa | 2.6V | 03:08:57 | 02:00:00 | 00:00:00 | |
| DM0DOS-11 | 2026-08-30 18:41:51 | 50.01855 | 8.38986 | 238° | 4km/h | 32517m | 5.1m/s | -39.1°C | 2.2% | 8.4hPa | 2.6V | 03:08:58 | 01:59:59 | 00:00:00 | |
| AA1-15 | 2026-08-30 18:41:51 | 50.01841 | 8.38965 | 216° | 16km/h | 32542m | 5.5m/s | -39.3°C | 0% | 8.4hPa | 2.7V | 03:09:06 | 02:00:04 | 00:00:00 | |
| DF8AY | 2026-08-30 18:41:47 | 50.01854 | 8.38984 | 228° | 9km/h | 32522m | 5.2m/s | -39.2°C | 0% | 8.4hPa | 2.6V | 03:09:06 | 02:00:00 | 00:00:00 | |
| DL1XH1-15 | 2026-08-30 18:41:47 | 50.01852 | 8.38979 | 100° | 4km/h | 32491m | 4.9m/s | -39.1°C | 2.2% | 8.4hPa | 2.6V | 03:09:03 | 01:59:54 | 00:00:00 | |
| DL1XH-west | 2026-08-30 18:41:46 | 50.01855 | 8.38986 | 238° | 4km/h | 32517m | 5.1m/s | -39.2°C | 0% | 8.4hPa | 2.6V | 03:09:06 | 01:59:59 | 00:00:00 | |
| HSKMA3-T | 2026-08-30 18:41:45 | 50.01855 | 8.38986 | 38° | 4km/h | 32512m | 5.1m/s | -39.1°C | 0% | 8.4hPa | 2.7V | 03:09:06 | 01:59:58 | 00:00:00 | |
| BIOWL1-15 | 2026-08-30 18:41:44 | 50.01854 | 8.38985 | 46° | 7km/h | 32507m | 5m/s | -39.1°C | 0% | 8.4hPa | 2.7V | 03:09:06 | 01:59:57 | 00:00:00 | |
| DN1GJH-1 | 2026-08-30 18:41:43 | 50.01854 | 8.38985 | 47° | 7km/h | 32507m | 5.0m/s | -39.1°C | 0.5% | 8.4hPa | 2.6V | 03:09:00 | 00:00:00 | 00:00:00 | |
| DL1XH-15 | 2026-08-30 18:41:42 | 50.01859 | 8.38972 | 156° | 11km/h | 32472m | 5.3m/s | -39.2°C | 2.2% | 8.4hPa | 2.6V | 03:09:07 | 01:59:50 | 00:00:00 | |
| DM0DOS-11 | 2026-08-30 18:41:41 | 50.01861 | 8.38970 | 154° | 11km/h | 32467m | 5.6m/s | -39.3°C | 2.2% | 8.5hPa | 2.6V | 03:09:08 | 01:59:49 | 00:00:00 | |
| AA1-15 | 2026-08-30 18:41:40 | 50.01852 | 8.38977 | 140° | 5km/h | 32486m | 4.6m/s | -39.1°C | 0% | 8.4hPa | 2.7V | 03:09:06 | 01:59:53 | 00:00:00 | |
| GOEST3-10 | 2026-08-30 18:41:40 | 50.01852 | 8.38977 | 140° | 9km/h | 32487m | 4.5m/s | 0°C | 0% | 0hPa | 2.6V | 00:00:00 | 01:59:53 | 00:00:00 | |
| DL4BBY-15 | 2026-08-30 18:41:39 | 50.01854 | 8.38975 | 156° | 20km/h | 32483m | 4.6m/s | -40.8°C | 0% | 0hPa | 2.6V | 00:00:00 | 00:00:00 | 00:00:00 | |
| EDDB2-12 | 2026-08-30 18:41:38 | 50.01856 | 8.38974 | 158° | 9km/h | 32477m | 4.7m/s | -39.2°C | 0.5% | 8.4hPa | 2.6V | 00:00:00 | 00:00:00 | 00:00:00 | |
| DC4HF-4 | 2026-08-30 18:41:37 | 50.01859 | 8.38972 | 156° | 11km/h | 32472m | 5.3m/s | -39.3°C | 0.5% | 8.4hPa | 2.6V | 00:00:00 | 00:00:00 | 00:00:00 | |
| DL1XH1-15 | 2026-08-30 18:41:36 | 50.01871 | 8.38976 | 244° | 15km/h | 32441m | 6m/s | -39.2°C | 2.2% | 8.5hPa | 2.6V | 03:09:13 | 01:59:44 | 00:00:00 | |
| DL1XH-west | 2026-08-30 18:41:35 | 50.01864 | 8.38969 | 156° | 9km/h | 32462m | 4.9m/s | -39.2°C | 0% | 8.5hPa | 2.6V | 03:09:57 | 01:59:48 | 00:00:00 | |
| HSKMA3-T | 2026-08-30 18:41:34 | 50.01866 | 8.38968 | 176° | 7km/h | 32457m | 4.6m/s | -39.2°C | 0% | 8.5hPa | 2.7V | 03:09:57 | 01:59:47 | 00:00:00 | |
| DJ2DS-15 | 2026-08-30 18:41:34 | 50.01866 | 8.38968 | 176° | 20km/h | 32457m | 4.5m/s | -39.2°C | 2.2% | 8.4hPa | 2.6V | 03:09:00 | 01:59:47 | 00:00:00 | |
| BIOWL9-15 | 2026-08-30 18:41:33 | 50.01868 | 8.38969 | 213° | 7km/h | 32452m | 4.7m/s | -39.2°C | 0.5% | 8.5hPa | 2.6V | 00:00:00 | 00:00:00 | 00:00:00 | |
| DB0ND-19 | 2026-08-30 18:41:32 | 50.01869 | 8.38971 | 237° | 9km/h | 32447m | 5.4m/s | -39.2°C | 0.5% | 8.5hPa | 2.6V | 00:00:00 | 00:00:00 | 00:00:00 | |
| DM0DOS-11 | 2026-08-30 18:41:31 | 50.01878 | 8.38993 | 119° | 9km/h | 32419m | 5.1m/s | -39.1°C | 2.1% | 8.5hPa | 2.6V | 03:09:18 | 01:59:39 | 00:00:00 | |
| AA1-15 | 2026-08-30 18:41:30 | 50.01872 | 8.38981 | 250° | 16km/h | 32435m | 5.4m/s | -39.1°C | 0% | 8.5hPa | 2.6V | 03:09:57 | 01:59:43 | 00:00:00 | |
| DL3AQ-11 | 2026-08-30 18:41:30 | 50.01874 | 8.38987 | 247° | 15km/h | 32431m | 4.0m/s | -39.1°C | 0.4% | 8.5hPa | 2.7V | 00:00:00 | 00:00:00 | 00:00:00 | |
| DO9LL-15 | 2026-08-30 18:41:29 | 50.01873 | 8.38987 | 248° | 27km/h | 32431m | 3.9m/s | -39.1°C | 2.1% | 8.5hPa | 2.7V | 00:00:00 | 01:59:42 | 00:00:00 | |
| HTAHTA | 2026-08-30 18:41:28 | 50.01875 | 8.38992 | 239° | 9km/h | 32427m | 3.5m/s | -39.1°C | 0.5% | 8.5hPa | 2.6V | 00:00:00 | 00:00:00 | 00:00:00 | |
| DL1CLM-18 | 2026-08-30 18:41:27 | 50.01875 | 8.38992 | 240° | 11km/h | 32427m | 3.5m/s | -39.1°C | 0.5% | 8.5hPa | 2.6V | 03:09:00 | 00:00:00 | 00:00:00 | |
| DL1XH1-15 | 2026-08-30 18:41:26 | 50.01886 | 8.38949 | 126° | 26km/h | 32394m | 2.5m/s | -39.4°C | 2.1% | 8.6hPa | 2.6V | 03:09:23 | 01:59:34 | 00:00:00 | |
| DL1XH-west | 2026-08-30 18:41:25 | 50.01879 | 8.38988 | 102° | 16km/h | 32413m | 6.2m/s | -39.2°C | 0% | 8.6hPa | 2.6V | 03:09:57 | 01:59:38 | 00:00:00 | |
| HSKMA3-T | 2026-08-30 18:41:23 | 50.01881 | 8.38970 | 102° | 31km/h | 32401m | 5m/s | -39.3°C | 0% | 8.6hPa | 2.7V | 03:09:57 | 01:59:36 | 00:00:00 | |
| BUE01 | 2026-08-30 18:41:23 | 50.01883 | 8.38958 | 110° | 29km/h | 32397m | 3.1m/s | -39.3°C | 0.4% | 8.6hPa | 2.7V | 00:00:00 | 00:00:00 | 00:00:00 | |
| DL1XH-15 | 2026-08-30 18:41:22 | 50.01905 | 8.38954 | 238° | 35km/h | 32373m | 6.2m/s | -39.6°C | 2.1% | 8.6hPa | 2.7V | 03:09:27 | 01:59:30 | 00:00:00 | |
| AA1-15 | 2026-08-30 18:41:19 | 50.01895 | 8.38942 | 188° | 20km/h | 32386m | 6.1m/s | -39.5°C | 0% | 8.6hPa | 2.6V | 03:09:57 | 01:59:32 | 00:00:00 | |
| DB0UT-9 | 2026-08-30 18:41:18 | 50.01895 | 8.38942 | 188° | 20km/h | 32387m | 6.1m/s | -39.5°C | 0.5% | 8.6hPa | 2.7V | 03:09:00 | 00:00:00 | 00:00:00 | |
| DJ2DS-15 | 2026-08-30 18:41:17 | 50.01905 | 8.38954 | 238° | 33km/h | 32373m | 6.2m/s | -39.6°C | 0.5% | 8.6hPa | 2.7V | 00:00:00 | 00:00:00 | 00:00:00 | |
| DL1XH1-15 | 2026-08-30 18:41:16 | 50.01899 | 8.38999 | 48° | 22km/h | 32344m | 5.8m/s | -39.9°C | 2.2% | 8.6hPa | 2.7V | 03:09:33 | 01:59:24 | 00:00:00 | |
| DF8AY | 2026-08-30 18:41:15 | 50.01910 | 8.38981 | 269° | 35km/h | 32364m | 3m/s | -39.7°C | 0% | 8.6hPa | 2.6V | 03:10:48 | 01:59:28 | 00:00:00 | |
| DL1XH-west | 2026-08-30 18:41:14 | 50.01909 | 8.38993 | 286° | 27km/h | 32360m | 3.5m/s | -39.7°C | 0% | 8.6hPa | 2.6V | 03:09:57 | 01:59:27 | 00:00:00 | |
| HSKMA3-T | 2026-08-30 18:41:13 | 50.01907 | 8.39000 | 315° | 20km/h | 32356m | 5m/s | -39.8°C | 0% | 8.6hPa | 2.6V | 03:09:57 | 01:59:26 | 00:00:00 | |
| BIOWL1-15 | 2026-08-30 18:41:12 | 50.01903 | 8.39003 | 5° | 16km/h | 32351m | 6m/s | -39.8°C | 0% | 8.6hPa | 2.7V | 03:09:57 | 01:59:25 | 00:00:00 | |
| AA1-15 | 2026-08-30 18:41:08 | 50.01897 | 8.38966 | 115° | 31km/h | 32331m | 3.5m/s | -40°C | 0% | 8.6hPa | 2.6V | 03:09:57 | 01:59:21 | 00:00:00 | |
| DL1XH-west | 2026-08-30 18:41:03 | 50.01928 | 8.38974 | 244° | 42km/h | 32307m | 4.4m/s | -40.1°C | 0% | 8.7hPa | 2.6V | 03:09:57 | 01:59:16 | 00:00:00 | |
| BIOWL1-15 | 2026-08-30 18:41:03 | 50.01931 | 8.39003 | 281° | 35km/h | 32299m | 3.7m/s | -40.1°C | 0% | 8.7hPa | 2.7V | 03:09:57 | 01:59:14 | 00:00:00 | |
| AA1-15 | 2026-08-30 18:40:57 | 50.01912 | 8.39016 | 48° | 29km/h | 32279m | 5.5m/s | -40.2°C | 0% | 8.7hPa | 2.6V | 03:09:57 | 01:59:10 | 00:00:00 | |
| DL1XH1-15 | 2026-08-30 18:40:56 | 50.01928 | 8.38978 | 214° | 35km/h | 32251m | 5.6m/s | -40.4°C | 2.2% | 8.8hPa | 2.6V | 03:09:53 | 01:59:04 | 00:00:00 | |
| DL1XH-west | 2026-08-30 18:40:53 | 50.01915 | 8.38976 | 153° | 27km/h | 32261m | 4.7m/s | -40.3°C | 0% | 8.7hPa | 2.6V | 03:09:57 | 01:59:06 | 00:00:00 | |
| DL1XH-15 | 2026-08-30 18:40:52 | 50.01937 | 8.39031 | 294° | 35km/h | 32232m | 4.3m/s | -40.7°C | 2.3% | 8.8hPa | 2.6V | 03:09:57 | 01:59:00 | 00:00:00 | |
| HSKMA3-T | 2026-08-30 18:40:52 | 50.01921 | 8.38974 | 187° | 29km/h | 32256m | 5.5m/s | -40.4°C | 0% | 8.7hPa | 2.6V | 03:09:57 | 01:59:05 | 00:00:00 | |
| BIOWL1-15 | 2026-08-30 18:40:51 | 50.01928 | 8.38978 | 215° | 35km/h | 32251m | 5.6m/s | -40.4°C | 0% | 8.8hPa | 2.6V | 03:09:57 | 01:59:04 | 00:00:00 | |
| DF8AY | 2026-08-30 18:40:50 | 50.01934 | 8.38989 | 237° | 38km/h | 32245m | 5.1m/s | -40.5°C | 0% | 8.8hPa | 2.7V | 03:10:48 | 01:59:03 | 00:00:00 | |
| DL3AQ-11 | 2026-08-30 18:40:49 | 50.01938 | 8.39003 | 255° | 40km/h | 32241m | 4.4m/s | -40.6°C | 0.5% | 8.8hPa | 2.6V | 00:00:00 | 00:00:00 | 00:00:00 | |
| DL8DAS-15 | 2026-08-30 18:40:48 | 50.01938 | 8.39003 | 256° | 40km/h | 32241m | 4.4m/s | -40.6°C | 0.5% | 8.8hPa | 2.6V | 03:09:00 | 00:00:00 | 00:00:00 | |
| DL1XH1-15 | 2026-08-30 18:40:46 | 50.01912 | 8.39017 | 106° | 27km/h | 32203m | 4.3m/s | -41°C | 2.3% | 8.8hPa | 2.6V | 03:10:03 | 01:58:54 | 00:00:00 | |
| AA1-15 | 2026-08-30 18:40:46 | 50.01932 | 8.39041 | 321° | 29km/h | 32228m | 4.9m/s | -40.8°C | 0% | 8.8hPa | 2.6V | 03:10:48 | 01:58:59 | 00:00:00 | |
| DL1XH-west | 2026-08-30 18:40:43 | 50.01914 | 8.39038 | 54° | 29km/h | 32212m | 5m/s | -40.9°C | 0% | 8.8hPa | 2.7V | 03:10:48 | 01:58:56 | 00:00:00 | |
| HSKMA3-T | 2026-08-30 18:40:42 | 50.01912 | 8.39028 | 80° | 29km/h | 32208m | 4.7m/s | -41°C | 0% | 8.8hPa | 2.6V | 03:10:48 | 01:58:55 | 00:00:00 | |
| BIOWL1-15 | 2026-08-30 18:40:41 | 50.01912 | 8.39017 | 107° | 27km/h | 32203m | 4.3m/s | -41°C | 0% | 8.8hPa | 2.6V | 03:10:48 | 01:58:54 | 00:00:00 | |
| DF8AY | 2026-08-30 18:40:37 | 50.01933 | 8.39012 | 232° | 31km/h | 32185m | 5.5m/s | -41.2°C | 0% | 8.8hPa | 2.6V | 03:10:48 | 01:58:50 | 00:00:00 | |
| DL3AQ-11 | 2026-08-30 18:40:37 | 50.01937 | 8.39024 | 256° | 35km/h | 32180m | 5.6m/s | -41.2°C | 0.5% | 8.9hPa | 2.6V | 00:00:00 | 00:00:00 | 00:00:00 | |
| DL1XH1-15 | 2026-08-30 18:40:36 | 50.01913 | 8.39077 | 359° | 29km/h | 32156m | 4.8m/s | -41.4°C | 2.4% | 8.9hPa | 2.6V | 03:10:13 | 01:58:44 | 00:00:00 | |
| AA1-15 | 2026-08-30 18:40:35 | 50.01937 | 8.39039 | 277° | 40km/h | 32174m | 5.1m/s | -41.2°C | 0% | 8.9hPa | 2.6V | 03:10:48 | 01:58:48 | 00:00:00 | |
| DL1XH-west | 2026-08-30 18:40:33 | 50.01928 | 8.39066 | 315° | 38km/h | 32165m | 4.1m/s | -41.3°C | 0% | 8.8hPa | 2.7V | 03:10:48 | 01:58:46 | 00:00:00 | |
| DL1XH-15 | 2026-08-30 18:40:32 | 50.01904 | 8.39051 | 126° | 24km/h | 32136m | 4.2m/s | -41.4°C | 2.4% | 8.9hPa | 2.7V | 03:10:17 | 01:58:40 | 00:00:00 | |
| BIOWL1-15 | 2026-08-30 18:40:32 | 50.01907 | 8.39075 | 31° | 26km/h | 32151m | 5.4m/s | -41.4°C | 0% | 8.9hPa | 2.6V | 03:10:48 | 01:58:43 | 00:00:00 | |
| HSKMA3-T | 2026-08-30 18:40:31 | 50.01913 | 8.39077 | 360° | 29km/h | 32156m | 4.8m/s | -41.4°C | 0% | 8.9hPa | 2.6V | 03:10:48 | 01:58:44 | 00:00:00 | |
| DO3MHA-11 | 2026-08-30 18:40:31 | 50.01913 | 8.39077 | 360° | 27km/h | 32157m | 4.8m/s | -41.3°C | 2.4% | 8.8hPa | 2.6V | 00:00:00 | 01:58:44 | 00:00:00 | |
| DB0ND-19 | 2026-08-30 18:40:30 | 50.01907 | 8.39075 | 30° | 24km/h | 32152m | 5.4m/s | -41.4°C | 0.5% | 8.9hPa | 2.7V | 00:00:00 | 00:00:00 | 00:00:00 | |
| DO9LL-15 | 2026-08-30 18:40:29 | 50.01903 | 8.39068 | 64° | 26km/h | 32146m | 5.5m/s | -41.4°C | 2.4% | 8.8hPa | 2.7V | 00:00:00 | 01:58:42 | 00:00:00 | |
| EDDB2-11 | 2026-08-30 18:40:28 | 50.01902 | 8.39059 | 96° | 24km/h | 32141m | 4.9m/s | -41.4°C | 0.5% | 8.9hPa | 2.7V | 00:00:00 | 00:00:00 | 00:00:00 | |
| DL1ZP-14 | 2026-08-30 18:40:27 | 50.01904 | 8.39051 | 126° | 24km/h | 32136m | 4.2m/s | -41.4°C | 0.5% | 8.9hPa | 2.7V | 00:00:00 | 00:00:00 | 00:00:00 | |
| DL1XH1-15 | 2026-08-30 18:40:26 | 50.01917 | 8.39092 | 296° | 47km/h | 32105m | 5.5m/s | -41.5°C | 2.4% | 8.9hPa | 2.7V | 03:10:23 | 01:58:34 | 00:00:00 | |
| AA1-15 | 2026-08-30 18:40:24 | 50.01918 | 8.39050 | 234° | 26km/h | 32123m | 5.3m/s | -41.5°C | 0% | 8.9hPa | 2.6V | 03:10:48 | 01:58:37 | 00:00:00 | |
| DL1XH-west | 2026-08-30 18:40:22 | 50.01920 | 8.39076 | 281° | 42km/h | 32111m | 6m/s | -41.5°C | 0% | 8.9hPa | 2.7V | 03:10:48 | 01:58:35 | 00:00:00 | |
| HSKMA3-T | 2026-08-30 18:40:21 | 50.01916 | 8.39092 | 297° | 47km/h | 32105m | 5.5m/s | -41.5°C | 0% | 8.9hPa | 2.7V | 03:10:48 | 01:58:34 | 00:00:00 | |
| BIOWL1-15 | 2026-08-30 18:40:19 | 50.01901 | 8.39121 | 323° | 47km/h | 32096m | 4.2m/s | -41.5°C | 0% | 9hPa | 2.6V | 03:10:48 | 01:58:32 | 00:00:00 | |
| DF1GD-15 | 2026-08-30 18:40:17 | 50.01891 | 8.39130 | 338° | 42km/h | 32092m | 4.3m/s | -41.6°C | 0.6% | 9.0hPa | 2.7V | 03:10:00 | 00:00:00 | 00:00:00 | |
| DL1XH1-15 | 2026-08-30 18:40:16 | 50.01875 | 8.39120 | 225° | 15km/h | 32057m | 4.4m/s | -41.7°C | 2.4% | 9hPa | 2.7V | 03:10:33 | 01:58:24 | 00:00:00 | |
| AA1-15 | 2026-08-30 18:40:13 | 50.01870 | 8.39120 | 130° | 13km/h | 32066m | 4.4m/s | -41.7°C | 0% | 9hPa | 2.6V | 03:10:48 | 01:58:26 | 00:00:00 | |
| DD1CC8 | 2026-08-30 18:40:13 | 50.01873 | 8.39118 | 177° | 11km/h | 32062m | 4.1m/s | -41.7°C | 0.5% | 9.0hPa | 2.6V | 00:00:00 | 00:00:00 | 00:00:00 | |
| DL1XH-15 | 2026-08-30 18:40:12 | 50.01870 | 8.39161 | 303° | 40km/h | 32035m | 5.5m/s | -41.8°C | 2.4% | 9hPa | 2.6V | 03:10:37 | 01:58:20 | 00:00:00 | |
| DL1XH-west | 2026-08-30 18:40:11 | 50.01875 | 8.39120 | 226° | 15km/h | 32057m | 4.4m/s | -41.7°C | 0% | 9hPa | 2.7V | 03:10:48 | 01:58:24 | 00:00:00 | |
| HSKMA3-T | 2026-08-30 18:40:10 | 50.01877 | 8.39126 | 260° | 20km/h | 32052m | 5.1m/s | -41.7°C | 0% | 9hPa | 2.7V | 03:10:48 | 01:58:23 | 00:00:00 | |
| DF8AY | 2026-08-30 18:40:08 | 50.01874 | 8.39147 | 293° | 37km/h | 32041m | 5.8m/s | -41.7°C | 0% | 9hPa | 2.6V | 03:10:48 | 01:58:21 | 00:00:00 | |
| NBG1-10 | 2026-08-30 18:40:08 | 50.01874 | 8.39147 | 294° | 15km/h | 32041m | 5.8m/s | -41.7°C | 2.4% | 9.0hPa | 2.6V | 00:00:00 | 01:58:21 | 00:00:00 | |
| DO2KSM | 2026-08-30 18:40:07 | 50.01874 | 8.39147 | 294° | 37km/h | 32041m | 5.8m/s | -41.7°C | 0.5% | 9.0hPa | 2.6V | 03:10:00 | 00:00:00 | 00:00:00 | |
| DL1KLB | 2026-08-30 18:40:06 | 50.01869 | 8.39160 | 304° | 40km/h | 32036m | 5.5m/s | -41.8°C | 0.5% | 9.0hPa | 2.6V | 03:10:00 | 00:00:00 | 00:00:00 | |
| EDDB2-12 | 2026-08-30 18:40:05 | 50.01856 | 8.39184 | 319° | 37km/h | 32026m | 4.2m/s | -41.8°C | 0.5% | 9.0hPa | 2.6V | 00:00:00 | 00:00:00 | 00:00:00 | |
| D01LWL | 2026-08-30 18:40:04 | 50.01845 | 8.39196 | 336° | 16km/h | 32017m | 5.2m/s | -41.9°C | 0.5% | 9.1hPa | 2.6V | 00:00:00 | 00:00:00 | 00:00:00 | |
| GOEST3-10 | 2026-08-30 18:40:03 | 50.01845 | 8.39196 | 337° | 18km/h | 32017m | 5.1m/s | 0°C | 0% | 0hPa | 2.6V | 00:00:00 | 01:58:16 | 00:00:00 | |
| DL1XH-15 | 2026-08-30 18:40:02 | 50.01849 | 8.39195 | 233° | 9km/h | 31985m | 5.6m/s | -42.2°C | 2.4% | 9.1hPa | 2.6V | 03:10:47 | 01:58:10 | 00:00:00 | |
| AA1-15 | 2026-08-30 18:40:02 | 50.01842 | 8.39197 | 358° | 7km/h | 32011m | 5.7m/s | -41.9°C | 0% | 9.1hPa | 2.6V | 03:10:48 | 01:58:15 | 00:00:00 | |
| DM0DOS-11 | 2026-08-30 18:40:01 | 50.01849 | 8.39199 | 274° | 11km/h | 31979m | 5.8m/s | -42.2°C | 2.4% | 9.1hPa | 2.6V | 03:10:48 | 01:58:09 | 00:00:00 | |
| DL1XH-west | 2026-08-30 18:40:01 | 50.01841 | 8.39197 | 105° | 4km/h | 32006m | 5.7m/s | -41.9°C | 0% | 9.1hPa | 2.7V | 03:10:48 | 01:58:14 | 00:00:00 | |
| HSKMA3-T | 2026-08-30 18:39:59 | 50.01844 | 8.39193 | 167° | 11km/h | 31995m | 5.1m/s | -42.1°C | 0% | 9.1hPa | 2.7V | 03:10:48 | 01:58:12 | 00:00:00 | |
| BIOWL1-15 | 2026-08-30 18:39:57 | 50.01848 | 8.39195 | 234° | 9km/h | 31985m | 5.6m/s | -42.2°C | 0% | 9.1hPa | 2.6V | 03:10:48 | 01:58:10 | 00:00:00 | |
| DL3AQ-11 | 2026-08-30 18:39:57 | 50.01849 | 8.39199 | 274° | 11km/h | 31979m | 5.8m/s | -42.3°C | 0.5% | 9.1hPa | 2.6V | 00:00:00 | 00:00:00 | 00:00:00 | |
| DL1ZP-14 | 2026-08-30 18:39:56 | 50.01849 | 8.39199 | 274° | 11km/h | 31979m | 5.8m/s | -42.3°C | 0.5% | 9.1hPa | 2.6V | 00:00:00 | 00:00:00 | 00:00:00 | |
| HTAHTA | 2026-08-30 18:39:55 | 50.01845 | 8.39211 | 303° | 22km/h | 31967m | 5.7m/s | -42.4°C | 0.5% | 9.1hPa | 2.6V | 00:00:00 | 00:00:00 | 00:00:00 | |
| DF3TZ-5 | 2026-08-30 18:39:53 | 50.01842 | 8.39218 | 308° | 24km/h | 31962m | 5.2m/s | -42.4°C | 0.5% | 9.2hPa | 2.6V | 00:00:00 | 00:00:00 | 00:00:00 | |
| DL1XH-15 | 2026-08-30 18:39:52 | 50.01835 | 8.39240 | 172° | 9km/h | 31930m | 5.2m/s | -42.6°C | 2.5% | 9.2hPa | 2.6V | 03:10:57 | 01:58:00 | 00:00:00 | |
| DJ2DS-15 | 2026-08-30 18:39:52 | 50.01838 | 8.39225 | 311° | 9km/h | 31957m | 5.0m/s | -42.4°C | 2.5% | 9.1hPa | 2.6V | 00:00:00 | 01:58:05 | 00:00:00 | |
| DM0DOS-11 | 2026-08-30 18:39:51 | 50.01838 | 8.39240 | 169° | 11km/h | 31925m | 4.5m/s | -42.6°C | 2.5% | 9.2hPa | 2.6V | 03:10:58 | 01:57:59 | 00:00:00 | |
| DL1XH-west | 2026-08-30 18:39:51 | 50.01835 | 8.39231 | 309° | 18km/h | 31952m | 5.1m/s | -42.5°C | 0% | 9.2hPa | 2.6V | 03:11:39 | 01:58:04 | 00:00:00 | |
| HSKMA3-T | 2026-08-30 18:39:49 | 50.01832 | 8.39239 | 265° | 5km/h | 31941m | 5.7m/s | -42.6°C | 0% | 9.2hPa | 2.7V | 03:11:39 | 01:58:02 | 00:00:00 | |
| BIOWL1-15 | 2026-08-30 18:39:49 | 50.01835 | 8.39240 | 172° | 11km/h | 31930m | 5.3m/s | -42.6°C | 0% | 9.2hPa | 2.6V | 03:11:39 | 01:58:00 | 00:00:00 | |
| DF8AY | 2026-08-30 18:39:47 | 50.01837 | 8.39240 | 170° | 11km/h | 31925m | 4.5m/s | -42.6°C | 0% | 9.2hPa | 2.6V | 03:14:12 | 01:57:59 | 00:00:00 | |
| DL3AQ-11 | 2026-08-30 18:39:46 | 50.01840 | 8.39239 | 176° | 7km/h | 31921m | 4.5m/s | -42.6°C | 0.5% | 9.2hPa | 2.7V | 00:00:00 | 00:00:00 | 00:00:00 | |
| GOEST3-10 | 2026-08-30 18:39:45 | 50.01840 | 8.39239 | 177° | 9km/h | 31921m | 4.4m/s | 0°C | 0% | 0hPa | 2.7V | 00:00:00 | 00:00:00 | 00:00:00 | |
| DL6DJ-15 | 2026-08-30 18:39:44 | 50.01842 | 8.39241 | 282° | 5km/h | 31910m | 5.8m/s | 0°C | -1.0% | -1.0hPa | 2.7V | 00:00:00 | 00:00:00 | 00:00:00 | |
| DL1XH-15 | 2026-08-30 18:39:42 | 50.01832 | 8.39257 | 53° | 0km/h | 31878m | 5.6m/s | -42.7°C | 2.5% | 9.2hPa | 2.7V | 03:11:07 | 01:57:50 | 00:00:00 | |
| DL1XH-west | 2026-08-30 18:39:40 | 50.01837 | 8.39252 | 319° | 15km/h | 31894m | 4.7m/s | -42.7°C | 0% | 9.3hPa | 2.6V | 03:11:39 | 01:57:53 | 00:00:00 | |
| HSKMA3-T | 2026-08-30 18:39:39 | 50.01834 | 8.39255 | 323° | 11km/h | 31889m | 5.3m/s | -42.7°C | 0% | 9.2hPa | 2.7V | 03:11:39 | 01:57:52 | 00:00:00 | |
| BIOWL1-15 | 2026-08-30 18:39:38 | 50.01832 | 8.39257 | 142° | 5km/h | 31873m | 5.2m/s | -42.7°C | 0% | 9.3hPa | 2.6V | 03:11:39 | 01:57:49 | 00:00:00 | |
| DF7PN | 2026-08-30 18:39:37 | 50.01832 | 8.39257 | 141° | 4km/h | 31873m | 5.2m/s | -42.7°C | 0.6% | 9.3hPa | 2.6V | 00:00:00 | 00:00:00 | 00:00:00 | |
| DL1XH1-15 | 2026-08-30 18:39:36 | 50.01841 | 8.39256 | 199° | 7km/h | 31846m | 4.4m/s | -42.7°C | 2.5% | 9.3hPa | 2.6V | 03:11:13 | 01:57:44 | 00:00:00 | |
| DF8AY | 2026-08-30 18:39:33 | 50.01837 | 8.39254 | 184° | 7km/h | 31856m | 5.7m/s | -42.7°C | 0% | 9.3hPa | 2.7V | 03:14:12 | 01:57:46 | 00:00:00 | |
| DL1XH-15 | 2026-08-30 18:39:32 | 50.01847 | 8.39251 | 121° | 11km/h | 31825m | 5.6m/s | -42.7°C | 2.5% | 9.3hPa | 2.7V | 03:11:17 | 01:57:40 | 00:00:00 | |
| DL1XH-west | 2026-08-30 18:39:29 | 50.01844 | 8.39256 | 160° | 7km/h | 31837m | 5.3m/s | -42.7°C | 0% | 9.3hPa | 2.6V | 03:11:39 | 01:57:42 | 00:00:00 | |
| HSKMA3-T | 2026-08-30 18:39:28 | 50.01845 | 8.39254 | 136° | 9km/h | 31831m | 6m/s | -42.7°C | 0% | 9.3hPa | 2.7V | 03:11:39 | 01:57:41 | 00:00:00 | |
| DO9LL-15 | 2026-08-30 18:39:27 | 50.01847 | 8.39251 | 122° | 9km/h | 31826m | 5.6m/s | -42.7°C | 2.5% | 9.3hPa | 2.7V | 00:00:00 | 01:57:40 | 00:00:00 | |
| DL1XH1-15 | 2026-08-30 18:39:26 | 50.01843 | 8.39240 | 335° | 11km/h | 31793m | 5.1m/s | -42.8°C | 2.5% | 9.4hPa | 2.7V | 03:11:23 | 01:57:34 | 00:00:00 | |
| BIOWL1-15 | 2026-08-30 18:39:26 | 50.01848 | 8.39248 | 109° | 11km/h | 31820m | 5m/s | -42.7°C | 0% | 9.3hPa | 2.7V | 03:11:39 | 01:57:39 | 00:00:00 | |
| DB0NH | 2026-08-30 18:39:26 | 50.01848 | 8.39247 | 109° | 11km/h | 31821m | 4.9m/s | -42.7°C | 2.5% | 9.3hPa | 2.6V | 03:11:00 | 01:57:39 | 00:00:00 | |
| DL1ZP-14 | 2026-08-30 18:39:25 | 50.01848 | 8.39244 | 94° | 9km/h | 31815m | 4.9m/s | -42.7°C | 0.6% | 9.4hPa | 2.6V | 00:00:00 | 00:00:00 | 00:00:00 | |
| HTAHTA | 2026-08-30 18:39:24 | 50.01848 | 8.39240 | 68° | 5km/h | 31810m | 5.2m/s | -42.8°C | 0.6% | 9.4hPa | 2.7V | 00:00:00 | 00:00:00 | 00:00:00 | |
| DL1XH-15 | 2026-08-30 18:39:22 | 50.01839 | 8.39238 | 117° | 11km/h | 31773m | 6.2m/s | -42.8°C | 2.5% | 9.4hPa | 2.7V | 03:11:27 | 01:57:30 | 00:00:00 | |
| DF3TZ-5 | 2026-08-30 18:39:22 | 50.01845 | 8.39239 | 347° | 7km/h | 31799m | 6.0m/s | -42.7°C | 0.6% | 9.4hPa | 2.7V | 00:00:00 | 00:00:00 | 00:00:00 | |
| DM0DOS-11 | 2026-08-30 18:39:21 | 50.01841 | 8.39233 | 123° | 18km/h | 31767m | 5.7m/s | -42.9°C | 2.5% | 9.4hPa | 2.7V | 03:11:28 | 01:57:29 | 00:00:00 | |
| DF8AY | 2026-08-30 18:39:21 | 50.01843 | 8.39240 | 335° | 11km/h | 31793m | 5.1m/s | -42.8°C | 0% | 9.4hPa | 2.7V | 03:14:12 | 01:57:34 | 00:00:00 | |
| AA1-15 | 2026-08-30 18:39:19 | 50.01839 | 8.39242 | 357° | 4km/h | 31784m | 4.3m/s | -42.8°C | 0% | 9.4hPa | 2.6V | 03:11:39 | 01:57:32 | 00:00:00 | |
| DL1XH-west | 2026-08-30 18:39:18 | 50.01839 | 8.39241 | 95° | 5km/h | 31779m | 5.2m/s | -42.8°C | 0% | 9.4hPa | 2.6V | 03:11:39 | 01:57:31 | 00:00:00 | |
| HSKMA3-T | 2026-08-30 18:39:17 | 50.01840 | 8.39238 | 117° | 11km/h | 31773m | 6.2m/s | -42.8°C | 0% | 9.4hPa | 2.7V | 03:11:39 | 01:57:30 | 00:00:00 | |
| BIOWL1-15 | 2026-08-30 18:39:15 | 50.01844 | 8.39227 | 128° | 20km/h | 31762m | 4.7m/s | -42.9°C | 0% | 9.4hPa | 2.7V | 03:11:39 | 01:57:28 | 00:00:00 | |
| DM7RM-13 | 2026-08-30 18:39:14 | 50.01844 | 8.39227 | 129° | 20km/h | 31763m | 4.7m/s | -42.9°C | 0.6% | 9.4hPa | 2.6V | 00:00:00 | 00:00:00 | 00:00:00 | |
| GOEST3-10 | 2026-08-30 18:39:13 | 50.01851 | 8.39217 | 141° | 15km/h | 31754m | 4.7m/s | 0°C | 0% | 0hPa | 2.6V | 00:00:00 | 00:00:00 | 00:00:00 | |
| DL1XH-15 | 2026-08-30 18:39:12 | 50.01846 | 8.39228 | 339° | 15km/h | 31722m | 5.4m/s | -43°C | 2.5% | 9.5hPa | 2.6V | 03:11:37 | 01:57:20 | 00:00:00 | |
| DJ2DS-15 | 2026-08-30 18:39:12 | 50.01853 | 8.39214 | 158° | 11km/h | 31749m | 5.7m/s | -42.9°C | 2.5% | 9.4hPa | 2.7V | 00:00:00 | 01:57:25 | 00:00:00 | |
| DM0DOS-11 | 2026-08-30 18:39:11 | 50.01843 | 8.39229 | 5° | 13km/h | 31717m | 5.7m/s | -43°C | 2.5% | 9.5hPa | 2.7V | 03:11:38 | 01:57:19 | 00:00:00 | |
| DF8AY | 2026-08-30 18:39:11 | 50.01854 | 8.39214 | 250° | 4km/h | 31742m | 5.8m/s | -42.9°C | 0% | 9.4hPa | 2.7V | 03:14:12 | 01:57:24 | 00:00:00 | |
| BIOWL1-15 | 2026-08-30 18:39:09 | 50.01840 | 8.39227 | 36° | 11km/h | 31711m | 5.6m/s | -43°C | 0% | 9.5hPa | 2.7V | 03:11:39 | 01:57:18 | 00:00:00 | |
| DL1XH-west | 2026-08-30 18:39:08 | 50.01849 | 8.39225 | 323° | 15km/h | 31727m | 4.7m/s | -42.9°C | 0% | 9.5hPa | 2.6V | 03:11:39 | 01:57:21 | 00:00:00 | |
| HSKMA3-T | 2026-08-30 18:39:07 | 50.01846 | 8.39228 | 340° | 15km/h | 31722m | 5.4m/s | -43°C | 0% | 9.5hPa | 2.6V | 03:11:39 | 01:57:20 | 00:00:00 | |
| CB1BUN | 2026-08-30 18:39:06 | 50.01843 | 8.39229 | 6° | 13km/h | 31717m | 5.7m/s | -43.0°C | 0.5% | 9.5hPa | 2.6V | 03:11:00 | 00:00:00 | 00:00:00 | |
| DH7VM-15 | 2026-08-30 18:39:05 | 50.01843 | 8.39229 | 6° | 13km/h | 31717m | 5.7m/s | -43.0°C | 0.5% | 9.5hPa | 2.6V | 00:00:00 | 00:00:00 | 00:00:00 | |
| DO2KSM | 2026-08-30 18:39:04 | 50.01840 | 8.39227 | 37° | 11km/h | 31711m | 5.6m/s | -43.0°C | 0.5% | 9.5hPa | 2.6V | 03:11:00 | 00:00:00 | 00:00:00 | |
| EDDB2-12 | 2026-08-30 18:39:03 | 50.01838 | 8.39220 | 92° | 9km/h | 31701m | 5.2m/s | -43.1°C | 0.6% | 9.5hPa | 2.6V | 00:00:00 | 00:00:00 | 00:00:00 | |
| DL1XH-15 | 2026-08-30 18:39:02 | 50.01852 | 8.39221 | 215° | 11km/h | 31669m | 4.5m/s | -43.4°C | 2.6% | 9.5hPa | 2.6V | 03:11:47 | 01:57:10 | 00:00:00 | |
| GOEST3-10 | 2026-08-30 18:39:02 | 50.01838 | 8.39216 | 124° | 11km/h | 31696m | 5.2m/s | 0°C | 0% | 0hPa | 2.6V | 00:00:00 | 01:57:15 | 00:00:00 | |
| DM0DOS-11 | 2026-08-30 18:39:01 | 50.01853 | 8.39223 | 209° | 5km/h | 31664m | 5.5m/s | -43.4°C | 2.6% | 9.6hPa | 2.6V | 03:11:48 | 01:57:09 | 00:00:00 | |
| DL1XH-west | 2026-08-30 18:38:57 | 50.01852 | 8.39221 | 216° | 11km/h | 31669m | 4.5m/s | -43.4°C | 0% | 9.5hPa | 2.6V | 03:12:30 | 01:57:10 | 00:00:00 | |
| HSKMA3-T | 2026-08-30 18:38:56 | 50.01853 | 8.39223 | 210° | 5km/h | 31664m | 5.5m/s | -43.4°C | 0% | 9.6hPa | 2.6V | 03:12:30 | 01:57:09 | 00:00:00 | |
| DF8AY | 2026-08-30 18:38:55 | 50.01854 | 8.39222 | 73° | 4km/h | 31658m | 6m/s | -43.4°C | 0% | 9.6hPa | 2.7V | 03:14:12 | 01:57:08 | 00:00:00 | |
| DL1ZP-14 | 2026-08-30 18:38:54 | 50.01853 | 8.39220 | 49° | 9km/h | 31653m | 5.7m/s | -43.4°C | 0.6% | 9.6hPa | 2.7V | 00:00:00 | 00:00:00 | 00:00:00 | |
| HTAHTA | 2026-08-30 18:38:53 | 50.01850 | 8.39216 | 41° | 16km/h | 31647m | 5.2m/s | -43.4°C | 0.6% | 9.6hPa | 2.6V | 00:00:00 | 00:00:00 | 00:00:00 | |
| DJ2DS-15 | 2026-08-30 18:38:52 | 50.01846 | 8.39212 | 33° | 15km/h | 31642m | 4.8m/s | -43.3°C | 2.5% | 9.6hPa | 2.6V | 03:11:00 | 01:57:05 | 00:00:00 | |
| DM0DOS-11 | 2026-08-30 18:38:51 | 50.01826 | 8.39211 | 299° | 4km/h | 31610m | 6m/s | -43.5°C | 2.6% | 9.7hPa | 2.7V | 03:11:58 | 01:56:59 | 00:00:00 | |
| DL1XH-west | 2026-08-30 18:38:47 | 50.01827 | 8.39209 | 323° | 7km/h | 31615m | 4.9m/s | -43.5°C | 0% | 9.7hPa | 2.7V | 03:12:30 | 01:57:00 | 00:00:00 | |
| DL1XH1-15 | 2026-08-30 18:38:46 | 50.01831 | 8.39215 | 248° | 5km/h | 31582m | 5.8m/s | -43.7°C | 2.6% | 9.7hPa | 2.7V | 03:12:03 | 01:56:54 | 00:00:00 | |
| HSKMA3-T | 2026-08-30 18:38:46 | 50.01826 | 8.39211 | 300° | 4km/h | 31610m | 6m/s | -43.5°C | 0% | 9.7hPa | 2.7V | 03:12:30 | 01:56:59 | 00:00:00 | |
| BIOWL1-15 | 2026-08-30 18:38:44 | 50.01827 | 8.39212 | 189° | 5km/h | 31598m | 5.5m/s | -43.6°C | 0% | 9.7hPa | 2.6V | 03:12:30 | 01:56:57 | 00:00:00 | |
| DF8AY | 2026-08-30 18:38:43 | 50.01828 | 8.39213 | 193° | 5km/h | 31593m | 5.1m/s | -43.6°C | 0% | 9.7hPa | 2.6V | 03:14:12 | 01:56:56 | 00:00:00 | |
| DL8DAS-15 | 2026-08-30 18:38:42 | 50.01828 | 8.39213 | 193° | 5km/h | 31593m | 5.1m/s | -43.6°C | 0.6% | 9.7hPa | 2.6V | 00:00:00 | 00:00:00 | 00:00:00 | |
| DM0DOS-11 | 2026-08-30 18:38:41 | 50.01819 | 8.39215 | 35° | 22km/h | 31556m | 6.4m/s | -44°C | 2.7% | 9.7hPa | 2.6V | 03:12:08 | 01:56:49 | 00:00:00 | |
| DO3MHA-11 | 2026-08-30 18:38:41 | 50.01831 | 8.39215 | 249° | 16km/h | 31582m | 5.7m/s | -43.7°C | 2.6% | 9.6hPa | 2.7V | 03:12:00 | 01:56:54 | 00:00:00 | |
| DD1CC8 | 2026-08-30 18:38:40 | 50.01829 | 8.39219 | 334° | 7km/h | 31572m | 4.5m/s | -43.8°C | 0.6% | 9.7hPa | 2.7V | 00:00:00 | 00:00:00 | 00:00:00 | |
| DL4BBY-15 | 2026-08-30 18:38:39 | 50.01829 | 8.39219 | 335° | 15km/h | 31572m | 4.5m/s | -45.4°C | 0% | 0hPa | 2.7V | 00:00:00 | 00:00:00 | 00:00:00 | |
| DO3DL | 2026-08-30 18:38:38 | 50.01830 | 8.39219 | 336° | 9km/h | 31572m | 4.5m/s | -43.8°C | 0.6% | 9.7hPa | 2.7V | 03:12:00 | 00:00:00 | 00:00:00 | |
| DL3AQ-11 | 2026-08-30 18:38:37 | 50.01819 | 8.39215 | 35° | 22km/h | 31556m | 6.4m/s | -44.0°C | 0.6% | 9.7hPa | 2.7V | 00:00:00 | 00:00:00 | 00:00:00 | |
| DL1XH1-15 | 2026-08-30 18:38:36 | 50.01801 | 8.39179 | 61° | 11km/h | 31530m | 5.8m/s | -44.1°C | 2.7% | 9.8hPa | 2.7V | 03:12:13 | 01:56:44 | 00:00:00 | |
| DL1XH-west | 2026-08-30 18:38:36 | 50.01819 | 8.39215 | 36° | 22km/h | 31556m | 6.4m/s | -44°C | 0% | 9.7hPa | 2.6V | 03:12:30 | 01:56:49 | 00:00:00 | |
| AA1-15 | 2026-08-30 18:38:35 | 50.01814 | 8.39209 | 47° | 26km/h | 31550m | 6.3m/s | -43.9°C | 0% | 9.8hPa | 2.6V | 03:12:30 | 01:56:48 | 00:00:00 | |
| BIOWL1-15 | 2026-08-30 18:38:34 | 50.01810 | 8.39200 | 53° | 27km/h | 31544m | 5.2m/s | -44°C | 0% | 9.8hPa | 2.6V | 03:12:30 | 01:56:47 | 00:00:00 | |
| DL1XH-15 | 2026-08-30 18:38:32 | 50.01802 | 8.39183 | 244° | 9km/h | 31508m | 4.1m/s | -44.2°C | 2.7% | 9.8hPa | 2.6V | 03:12:17 | 01:56:40 | 00:00:00 | |
| DF8AY | 2026-08-30 18:38:32 | 50.01803 | 8.39184 | 61° | 20km/h | 31535m | 4.5m/s | -44°C | 0% | 9.8hPa | 2.7V | 03:14:12 | 01:56:45 | 00:00:00 | |
| DJ2DS-15 | 2026-08-30 18:38:32 | 50.01803 | 8.39184 | 61° | 13km/h | 31535m | 4.4m/s | -44.0°C | 2.7% | 9.7hPa | 2.7V | 00:00:00 | 01:56:45 | 00:00:00 | |
| DM0DOS-11 | 2026-08-30 18:38:31 | 50.01803 | 8.39186 | 232° | 5km/h | 31504m | 4.8m/s | -44.2°C | 2.6% | 9.8hPa | 2.7V | 03:12:18 | 01:56:39 | 00:00:00 | |
| DO3MHA-11 | 2026-08-30 18:38:31 | 50.01801 | 8.39179 | 62° | 9km/h | 31530m | 5.8m/s | -44.0°C | 2.7% | 9.7hPa | 2.7V | 00:00:00 | 01:56:44 | 00:00:00 | |
| NBG1-10 | 2026-08-30 18:38:29 | 50.01800 | 8.39177 | 258° | 11km/h | 31518m | 5.7m/s | -44.1°C | 2.6% | 9.7hPa | 2.6V | 00:00:00 | 01:56:42 | 00:00:00 | |
| BIOWL9-15 | 2026-08-30 18:38:27 | 50.01802 | 8.39183 | 244° | 9km/h | 31508m | 4.1m/s | -44.2°C | 0.6% | 9.8hPa | 2.6V | 00:00:00 | 00:00:00 | 00:00:00 | |
| DL1XH1-15 | 2026-08-30 18:38:26 | 50.01794 | 8.39170 | 32° | 26km/h | 31477m | 5.9m/s | -44.4°C | 2.7% | 9.8hPa | 2.6V | 03:12:23 | 01:56:34 | 00:00:00 | |
| DL1XH-west | 2026-08-30 18:38:25 | 50.01804 | 8.39186 | 122° | 2km/h | 31498m | 5.4m/s | -44.2°C | 0% | 9.8hPa | 2.7V | 03:12:30 | 01:56:38 | 00:00:00 | |
| HSKMA3-T | 2026-08-30 18:38:24 | 50.01803 | 8.39184 | 68° | 9km/h | 31493m | 5.5m/s | -44.3°C | 0% | 9.8hPa | 2.7V | 03:12:30 | 01:56:37 | 00:00:00 | |
| BIOWL1-15 | 2026-08-30 18:38:23 | 50.01802 | 8.39180 | 54° | 16km/h | 31488m | 5.4m/s | -44.3°C | 0% | 9.8hPa | 2.6V | 03:12:30 | 01:56:36 | 00:00:00 | |
| DF8AY | 2026-08-30 18:38:22 | 50.01799 | 8.39175 | 42° | 22km/h | 31482m | 5.2m/s | -44.3°C | 0% | 9.9hPa | 2.6V | 03:14:12 | 01:56:35 | 00:00:00 | |
| DM0DOS-11 | 2026-08-30 18:38:21 | 50.01767 | 8.39160 | 351° | 11km/h | 31450m | 6m/s | -44.5°C | 2.7% | 9.9hPa | 2.6V | 03:12:28 | 01:56:29 | 00:00:00 | |
| DL1XH-west | 2026-08-30 18:38:15 | 50.01765 | 8.39161 | 322° | 5km/h | 31444m | 6m/s | -44.5°C | 0% | 9.9hPa | 2.7V | 03:12:30 | 01:56:28 | 00:00:00 | |
| BIOWL1-15 | 2026-08-30 18:38:13 | 50.01766 | 8.39165 | 232° | 11km/h | 31433m | 5m/s | -44.6°C | 0% | 9.9hPa | 2.7V | 03:13:21 | 01:56:26 | 00:00:00 | |
| DF8AY | 2026-08-30 18:38:09 | 50.01769 | 8.39184 | 298° | 13km/h | 31412m | 4.8m/s | -44.6°C | 0% | 9.9hPa | 2.7V | 03:14:12 | 01:56:22 | 00:00:00 | |
| DD1CC8 | 2026-08-30 18:38:09 | 50.01767 | 8.39187 | 332° | 11km/h | 31407m | 4.9m/s | -44.6°C | 0.6% | 10.0hPa | 2.6V | 00:00:00 | 00:00:00 | 00:00:00 | |
| DL1XH1-15 | 2026-08-30 18:38:06 | 50.01738 | 8.39160 | 10° | 13km/h | 31371m | 5.5m/s | -44.6°C | 2.7% | 10hPa | 2.6V | 03:12:43 | 01:56:14 | 00:00:00 | |
| DL1XH-west | 2026-08-30 18:38:05 | 50.01755 | 8.39181 | 40° | 24km/h | 31389m | 6.2m/s | -44.6°C | 0% | 10hPa | 2.6V | 03:13:21 | 01:56:18 | 00:00:00 | |
| HSKMA3-T | 2026-08-30 18:38:02 | 50.01742 | 8.39162 | 34° | 18km/h | 31376m | 4m/s | -44.6°C | 0% | 10hPa | 2.7V | 03:13:21 | 01:56:15 | 00:00:00 | |
| DM0DOS-11 | 2026-08-30 18:38:01 | 50.01736 | 8.39187 | 236° | 16km/h | 31343m | 4.9m/s | -44.7°C | 2.7% | 10.1hPa | 2.6V | 03:12:48 | 01:56:09 | 00:00:00 | |
| DF8AY | 2026-08-30 18:37:56 | 50.01736 | 8.39187 | 237° | 16km/h | 31343m | 4.9m/s | -44.7°C | 0% | 10.1hPa | 2.6V | 03:14:12 | 01:56:09 | 00:00:00 | |
| DL1XH1-15 | 2026-08-30 18:37:56 | 50.01744 | 8.39179 | 73° | 15km/h | 31315m | 5.5m/s | -44.8°C | 2.7% | 10.1hPa | 2.7V | 03:12:53 | 01:56:04 | 00:00:00 | |
| DL1XH-west | 2026-08-30 18:37:55 | 50.01739 | 8.39191 | 213° | 13km/h | 31337m | 5.8m/s | -44.7°C | 0% | 10.1hPa | 2.6V | 03:13:21 | 01:56:08 | 00:00:00 | |
| BIOWL1-15 | 2026-08-30 18:37:52 | 50.01744 | 8.39184 | 95° | 15km/h | 31321m | 5.3m/s | -44.8°C | 0% | 10.1hPa | 2.7V | 03:13:21 | 01:56:05 | 00:00:00 | |
| DJ2DS-15 | 2026-08-30 18:37:52 | 50.01744 | 8.39184 | 96° | 13km/h | 31321m | 5.3m/s | -44.7°C | 2.7% | 10.1hPa | 2.7V | 00:00:00 | 01:56:05 | 00:00:00 | |
| DM0DOS-11 | 2026-08-30 18:37:51 | 50.01733 | 8.39173 | 294° | 9km/h | 31289m | 5.3m/s | -45°C | 2.8% | 10.2hPa | 2.7V | 03:12:58 | 01:55:59 | 00:00:00 | |
| HSKMA3-T | 2026-08-30 18:37:51 | 50.01744 | 8.39179 | 74° | 15km/h | 31315m | 5.5m/s | -44.8°C | 0% | 10.1hPa | 2.7V | 03:13:21 | 01:56:04 | 00:00:00 | |
| DF3TZ-5 | 2026-08-30 18:37:49 | 50.01737 | 8.39169 | 357° | 9km/h | 31299m | 4.9m/s | -44.9°C | 0.6% | 10.1hPa | 2.7V | 00:00:00 | 00:00:00 | 00:00:00 | |
| SONCRA | 2026-08-30 18:37:47 | 50.01733 | 8.39173 | 294° | 9km/h | 31289m | 5.3m/s | -45.0°C | 0.6% | 10.2hPa | 2.7V | 00:00:00 | 00:00:00 | 00:00:00 | |
| DL1XH1-15 | 2026-08-30 18:37:46 | 50.01741 | 8.39188 | 208° | 11km/h | 31261m | 5m/s | -45.1°C | 2.8% | 10.2hPa | 2.7V | 03:13:03 | 01:55:54 | 00:00:00 | |
| DL3AQ-11 | 2026-08-30 18:37:46 | 50.01732 | 8.39177 | 264° | 9km/h | 31283m | 6.2m/s | -45.0°C | 0.6% | 10.1hPa | 2.6V | 00:00:00 | 00:00:00 | 00:00:00 | |
| BUE01 | 2026-08-30 18:37:45 | 50.01732 | 8.39177 | 264° | 9km/h | 31283m | 6.2m/s | -45.0°C | 0.6% | 10.1hPa | 2.6V | 00:00:00 | 00:00:00 | 00:00:00 | |
| DL1XH-west | 2026-08-30 18:37:44 | 50.01733 | 8.39180 | 234° | 11km/h | 31277m | 6.2m/s | -45.1°C | 0% | 10.1hPa | 2.6V | 03:13:21 | 01:55:57 | 00:00:00 | |
| DF8AY | 2026-08-30 18:37:43 | 50.01736 | 8.39184 | 217° | 13km/h | 31271m | 5.5m/s | -45.1°C | 0% | 10.2hPa | 2.6V | 03:14:12 | 01:55:56 | 00:00:00 | |
| BIOWL1-15 | 2026-08-30 18:37:42 | 50.01738 | 8.39186 | 209° | 13km/h | 31265m | 4.8m/s | -45.1°C | 0% | 10.2hPa | 2.7V | 03:13:21 | 01:55:55 | 00:00:00 | |
| DM0DOS-11 | 2026-08-30 18:37:41 | 50.01738 | 8.39187 | 43° | 15km/h | 31233m | 5.4m/s | -45.3°C | 2.9% | 10.2hPa | 2.7V | 03:13:08 | 01:55:49 | 00:00:00 | |
| HSKMA3-T | 2026-08-30 18:37:40 | 50.01743 | 8.39190 | 220° | 5km/h | 31255m | 5.9m/s | -45.1°C | 0% | 10.2hPa | 2.7V | 03:13:21 | 01:55:53 | 00:00:00 | |
| DO9LL-15 | 2026-08-30 18:37:40 | 50.01742 | 8.39190 | 220° | 11km/h | 31256m | 5.8m/s | -45.0°C | 2.8% | 10.1hPa | 2.7V | 03:13:00 | 01:55:53 | 00:00:00 | |
| DL4BBY-15 | 2026-08-30 18:37:39 | 50.01743 | 8.39191 | 300° | 15km/h | 31250m | 5.7m/s | -46.8°C | 0% | 0hPa | 2.7V | 00:00:00 | 00:00:00 | 00:00:00 | |
| DJTTGO | 2026-08-30 18:37:37 | 50.01742 | 8.39191 | 15° | 7km/h | 31244m | 5.4m/s | -45.2°C | 0.6% | 10.2hPa | 2.7V | 00:00:00 | 00:00:00 | 00:00:00 | |
| DL1XH1-15 | 2026-08-30 18:37:36 | 50.01729 | 8.39163 | 25° | 5km/h | 31208m | 5.2m/s | -45.4°C | 2.9% | 10.3hPa | 2.7V | 03:13:13 | 01:55:44 | 00:00:00 | |
| BIOWL1-15 | 2026-08-30 18:37:34 | 50.01730 | 8.39165 | 65° | 11km/h | 31212m | 4.3m/s | -45.4°C | 0% | 10.2hPa | 2.6V | 03:13:21 | 01:55:45 | 00:00:00 | |
| DL1XH-west | 2026-08-30 18:37:34 | 50.01733 | 8.39176 | 65° | 18km/h | 31222m | 5.5m/s | -45.3°C | 0% | 10.2hPa | 2.6V | 03:13:21 | 01:55:47 | 00:00:00 | |
| HSKMA3-T | 2026-08-30 18:37:29 | 50.01726 | 8.39167 | 297° | 15km/h | 31195m | 6.9m/s | -45.4°C | 0% | 10.3hPa | 2.7V | 03:13:21 | 01:55:42 | 00:00:00 | |
| DF8AY | 2026-08-30 18:37:28 | 50.01724 | 8.39174 | 292° | 20km/h | 31189m | 5.7m/s | -45.4°C | 0% | 10.3hPa | 2.6V | 03:14:12 | 01:55:41 | 00:00:00 | |
| DO3DL | 2026-08-30 18:37:27 | 50.01724 | 8.39173 | 293° | 20km/h | 31189m | 5.7m/s | -45.4°C | 0.7% | 10.3hPa | 2.6V | 03:13:00 | 00:00:00 | 00:00:00 | |
| DL1XH1-15 | 2026-08-30 18:37:26 | 50.01720 | 8.39192 | 86° | 16km/h | 31152m | 4.7m/s | -45.3°C | 2.8% | 10.3hPa | 2.6V | 03:13:23 | 01:55:34 | 00:00:00 | |
| BIOWL1-15 | 2026-08-30 18:37:24 | 50.01720 | 8.39197 | 100° | 11km/h | 31158m | 5.7m/s | -45.3°C | 0% | 10.3hPa | 2.6V | 03:14:12 | 01:55:35 | 00:00:00 | |
| DL1XH-west | 2026-08-30 18:37:24 | 50.01719 | 8.39199 | 269° | 5km/h | 31170m | 5.8m/s | -45.4°C | 0% | 10.3hPa | 2.7V | 03:13:21 | 01:55:37 | 00:00:00 | |
| HSKMA3-T | 2026-08-30 18:37:19 | 50.01717 | 8.39179 | 48° | 18km/h | 31143m | 5.2m/s | -45.3°C | 0% | 10.4hPa | 2.7V | 03:14:12 | 01:55:32 | 00:00:00 | |
| HEMX73-11 | 2026-08-30 18:37:17 | 50.01713 | 8.39175 | 26° | 20km/h | 31138m | 6.1m/s | -45.3°C | 0.7% | 10.4hPa | 2.6V | 03:14:00 | 00:00:00 | 00:00:00 | |
| DL1XH1-15 | 2026-08-30 18:37:16 | 50.01686 | 8.39191 | 210° | 5km/h | 31100m | 5.8m/s | -45.1°C | 2.8% | 10.4hPa | 2.6V | 03:13:33 | 01:55:24 | 00:00:00 | |
| DL1XH-west | 2026-08-30 18:37:13 | 50.01687 | 8.39186 | 313° | 15km/h | 31112m | 5.7m/s | -45.2°C | 0% | 10.4hPa | 2.7V | 03:14:12 | 01:55:26 | 00:00:00 | |
| DL1XH-15 | 2026-08-30 18:37:12 | 50.01694 | 8.39189 | 123° | 4km/h | 31080m | 5.6m/s | -45.1°C | 2.8% | 10.5hPa | 2.7V | 03:13:37 | 01:55:20 | 00:00:00 | |
| DF8AY | 2026-08-30 18:37:12 | 50.01686 | 8.39189 | 285° | 7km/h | 31106m | 6.1m/s | -45.2°C | 0% | 10.4hPa | 2.6V | 03:14:12 | 01:55:25 | 00:00:00 | |
| BIOWL1-15 | 2026-08-30 18:37:11 | 50.01686 | 8.39191 | 210° | 5km/h | 31100m | 5.8m/s | -45.1°C | 0% | 10.4hPa | 2.6V | 03:14:12 | 01:55:24 | 00:00:00 | |
| AA1-15 | 2026-08-30 18:37:08 | 50.01693 | 8.39190 | 153° | 7km/h | 31085m | 4.8m/s | -45.1°C | 0% | 10.5hPa | 2.7V | 03:14:12 | 01:55:21 | 00:00:00 | |
| DL1CLM-18 | 2026-08-30 18:37:07 | 50.01693 | 8.39190 | 153° | 7km/h | 31085m | 4.8m/s | -45.1°C | 0% | 10.5hPa | 2.6V | 03:14:00 | 00:00:00 | 00:00:00 | |
| DJ2DS-15 | 2026-08-30 18:37:05 | 50.01692 | 8.39187 | 3° | 11km/h | 31069m | 5.6m/s | -45.1°C | 0.6% | 10.5hPa | 2.6V | 00:00:00 | 00:00:00 | 00:00:00 | |
| DL8DAS-15 | 2026-08-30 18:37:04 | 50.01692 | 8.39187 | 5° | 11km/h | 31069m | 5.6m/s | -45.1°C | 0.7% | 10.5hPa | 2.6V | 03:14:00 | 00:00:00 | 00:00:00 | |
| DL0LBS | 2026-08-30 18:37:03 | 50.01688 | 8.39187 | 3° | 16km/h | 31064m | 5.0m/s | -45.1°C | 0.7% | 10.5hPa | 2.6V | 03:14:00 | 00:00:00 | 00:00:00 | |
| DL1XH-15 | 2026-08-30 18:37:02 | 50.01677 | 8.39177 | 171° | 7km/h | 31027m | 4.5m/s | -45.2°C | 2.8% | 10.6hPa | 2.6V | 03:13:47 | 01:55:10 | 00:00:00 | |
| DL1XH-west | 2026-08-30 18:37:02 | 50.01680 | 8.39186 | 9° | 15km/h | 31053m | 5.1m/s | -45.1°C | 0% | 10.5hPa | 2.7V | 03:14:12 | 01:55:15 | 00:00:00 | |
| BIOWL1-15 | 2026-08-30 18:37:01 | 50.01677 | 8.39185 | 23° | 13km/h | 31048m | 6.1m/s | -45.1°C | 0% | 10.5hPa | 2.7V | 03:14:12 | 01:55:14 | 00:00:00 | |
| HSKMA3-T | 2026-08-30 18:36:58 | 50.01675 | 8.39178 | 139° | 7km/h | 31031m | 4.7m/s | -45.2°C | 0% | 10.6hPa | 2.6V | 03:14:12 | 01:55:11 | 00:00:00 | |
| AA1-15 | 2026-08-30 18:36:57 | 50.01677 | 8.39177 | 172° | 7km/h | 31027m | 4.5m/s | -45.2°C | 0% | 10.6hPa | 2.6V | 03:14:12 | 01:55:10 | 00:00:00 | |
| BIOWL9-15 | 2026-08-30 18:36:54 | 50.01678 | 8.39184 | 312° | 7km/h | 31005m | 4.7m/s | -45.3°C | 0.7% | 10.6hPa | 2.7V | 00:00:00 | 00:00:00 | 00:00:00 | |
| NBG1-10 | 2026-08-30 18:36:53 | 50.01678 | 8.39184 | 313° | 11km/h | 31005m | 4.6m/s | -45.3°C | 2.9% | 10.5hPa | 2.7V | 00:00:00 | 01:55:06 | 00:00:00 | |
| DL1XH-15 | 2026-08-30 18:36:52 | 50.01670 | 8.39165 | 84° | 16km/h | 30973m | 4.3m/s | -45.4°C | 2.9% | 10.7hPa | 2.7V | 03:13:57 | 01:55:00 | 00:00:00 | |
| DJ2DS-15 | 2026-08-30 18:36:52 | 50.01677 | 8.39185 | 345° | 13km/h | 31001m | 4.8m/s | -45.3°C | 2.9% | 10.6hPa | 2.7V | 00:00:00 | 01:55:05 | 00:00:00 | |
| DM0DOS-11 | 2026-08-30 18:36:51 | 50.01670 | 8.39159 | 81° | 13km/h | 30969m | 5.2m/s | -45.3°C | 2.8% | 10.7hPa | 2.7V | 03:13:58 | 01:54:59 | 00:00:00 | |
| DL1XH-west | 2026-08-30 18:36:51 | 50.01675 | 8.39185 | 26° | 9km/h | 30995m | 5.5m/s | -45.4°C | 0% | 10.6hPa | 2.7V | 03:14:12 | 01:55:04 | 00:00:00 | |
| BIOWL1-15 | 2026-08-30 18:36:50 | 50.01673 | 8.39183 | 55° | 11km/h | 30989m | 6.3m/s | -45.4°C | 0% | 10.6hPa | 2.6V | 03:14:12 | 01:55:03 | 00:00:00 | |
| HSKMA3-T | 2026-08-30 18:36:47 | 50.01670 | 8.39165 | 84° | 16km/h | 30973m | 4.3m/s | -45.4°C | 0% | 10.7hPa | 2.7V | 03:14:12 | 01:55:00 | 00:00:00 | |
| DF3TZ-5 | 2026-08-30 18:36:47 | 50.01670 | 8.39159 | 81° | 13km/h | 30969m | 5.2m/s | -45.4°C | 0.6% | 10.7hPa | 2.6V | 00:00:00 | 00:00:00 | 00:00:00 | |
| DL1XH1-15 | 2026-08-30 18:36:46 | 50.01669 | 8.39155 | 201° | 5km/h | 30943m | 4.8m/s | -45.4°C | 2.8% | 10.7hPa | 2.6V | 03:14:03 | 01:54:54 | 00:00:00 | |
| AA1-15 | 2026-08-30 18:36:46 | 50.01670 | 8.39159 | 82° | 13km/h | 30969m | 5.2m/s | -45.4°C | 0% | 10.7hPa | 2.7V | 03:14:12 | 01:54:59 | 00:00:00 | |
| DO1YAY-16 | 2026-08-30 18:36:44 | 50.01669 | 8.39153 | 39° | 2km/h | 30958m | 5.5m/s | -45.4°C | 0.7% | 10.7hPa | 2.6V | 00:00:00 | 00:00:00 | 00:00:00 | |
| SONDE2-11 | 2026-08-30 18:36:43 | 50.01668 | 8.39154 | 248° | 4km/h | 30948m | 4.6m/s | -45.4°C | 0.6% | 10.7hPa | 2.6V | 00:00:00 | 00:00:00 | 00:00:00 | |
| DM0DOS-11 | 2026-08-30 18:36:41 | 50.01685 | 8.39139 | 129° | 20km/h | 30916m | 4.7m/s | -45.3°C | 2.8% | 10.7hPa | 2.6V | 03:14:08 | 01:54:49 | 00:00:00 | |
| DL1XH-west | 2026-08-30 18:36:41 | 50.01669 | 8.39155 | 202° | 5km/h | 30943m | 4.8m/s | -45.4°C | 0% | 10.7hPa | 2.6V | 03:14:12 | 01:54:54 | 00:00:00 | |
| BIOWL1-15 | 2026-08-30 18:36:39 | 50.01674 | 8.39154 | 154° | 15km/h | 30932m | 6m/s | -45.3°C | 0% | 10.7hPa | 2.7V | 03:14:12 | 01:54:52 | 00:00:00 | |
| DL4BBY-15 | 2026-08-30 18:36:39 | 50.01674 | 8.39154 | 154° | 15km/h | 30933m | 5.9m/s | -47.0°C | 0% | 0hPa | 2.6V | 00:00:00 | 00:00:00 | 00:00:00 | |
| DM7RM-13 | 2026-08-30 18:36:38 | 50.01674 | 8.39154 | 155° | 15km/h | 30932m | 6.0m/s | -45.3°C | 0.7% | 10.7hPa | 2.6V | 03:14:00 | 00:00:00 | 00:00:00 | |
| DL3AQ-11 | 2026-08-30 18:36:37 | 50.01685 | 8.39139 | 129° | 20km/h | 30916m | 4.7m/s | -45.3°C | 0.6% | 10.7hPa | 2.6V | 00:00:00 | 00:00:00 | 00:00:00 | |
| DL1XH1-15 | 2026-08-30 18:36:36 | 50.01689 | 8.39117 | 82° | 9km/h | 30890m | 5.1m/s | -45.4°C | 2.8% | 10.8hPa | 2.6V | 03:14:13 | 01:54:44 | 00:00:00 | |
| HSKMA3-T | 2026-08-30 18:36:36 | 50.01685 | 8.39139 | 129° | 20km/h | 30916m | 4.7m/s | -45.3°C | 0% | 10.7hPa | 2.6V | 03:14:12 | 01:54:49 | 00:00:00 | |
| AA1-15 | 2026-08-30 18:36:35 | 50.01688 | 8.39133 | 122° | 16km/h | 30911m | 5.9m/s | -45.4°C | 0% | 10.8hPa | 2.6V | 03:14:12 | 01:54:48 | 00:00:00 | |
| BIOWL7-15 | 2026-08-30 18:36:34 | 50.01688 | 8.39133 | 123° | 16km/h | 30911m | 5.9m/s | -45.4°C | 0.6% | 10.7hPa | 2.7V | 03:14:00 | 00:00:00 | 00:00:00 | |
| DL1CLM-18 | 2026-08-30 18:36:33 | 50.01689 | 8.39128 | 110° | 13km/h | 30906m | 5.8m/s | -45.4°C | 0% | 10.8hPa | 2.7V | 03:14:00 | 00:00:00 | 00:00:00 | |
| DL1XH-15 | 2026-08-30 18:36:32 | 50.01694 | 8.39099 | 132° | 15km/h | 30868m | 5m/s | -45.5°C | 2.9% | 10.8hPa | 2.7V | 03:14:17 | 01:54:40 | 00:00:00 | |
| DJ2DS-15 | 2026-08-30 18:36:32 | 50.01690 | 8.39121 | 79° | 16km/h | 30895m | 4.7m/s | -45.3°C | 2.9% | 10.7hPa | 2.6V | 00:00:00 | 01:54:45 | 00:00:00 | |
| DM0DOS-11 | 2026-08-30 18:36:31 | 50.01697 | 8.39095 | 137° | 15km/h | 30863m | 5.1m/s | -45.5°C | 2.9% | 10.8hPa | 2.6V | 03:14:18 | 01:54:39 | 00:00:00 | |
| BIOWL1-15 | 2026-08-30 18:36:30 | 50.01692 | 8.39104 | 125° | 15km/h | 30873m | 5.3m/s | -45.5°C | 0% | 10.8hPa | 2.7V | 03:15:03 | 01:54:41 | 00:00:00 | |
| DL1XH-west | 2026-08-30 18:36:30 | 50.01689 | 8.39113 | 97° | 11km/h | 30884m | 5.7m/s | -45.4°C | 0% | 10.8hPa | 2.6V | 03:15:03 | 01:54:43 | 00:00:00 | |
| DJ2DS-15 | 2026-08-30 18:36:29 | 50.01690 | 8.39109 | 113° | 13km/h | 30879m | 5.8m/s | -45.4°C | 0.6% | 10.8hPa | 2.6V | 00:00:00 | 00:00:00 | 00:00:00 | |
| EDDB2-12 | 2026-08-30 18:36:28 | 50.01694 | 8.39099 | 132° | 15km/h | 30868m | 5.0m/s | -45.5°C | 0.6% | 10.8hPa | 2.6V | 00:00:00 | 00:00:00 | 00:00:00 | |
| D01LWL | 2026-08-30 18:36:27 | 50.01697 | 8.39095 | 137° | 13km/h | 30863m | 5.1m/s | -45.5°C | 0.7% | 10.8hPa | 2.6V | 00:00:00 | 00:00:00 | 00:00:00 | |
| DL1XH1-15 | 2026-08-30 18:36:26 | 50.01701 | 8.39079 | 82° | 15km/h | 30837m | 4.8m/s | -45.5°C | 2.9% | 10.9hPa | 2.6V | 03:14:23 | 01:54:34 | 00:00:00 | |
| HSKMA3-T | 2026-08-30 18:36:25 | 50.01699 | 8.39092 | 139° | 11km/h | 30857m | 5.6m/s | -45.5°C | 0% | 10.8hPa | 2.6V | 03:15:03 | 01:54:38 | 00:00:00 | |
| AA1-15 | 2026-08-30 18:36:24 | 50.01701 | 8.39089 | 131° | 7km/h | 30852m | 5.8m/s | -45.5°C | 0% | 10.9hPa | 2.6V | 03:15:03 | 01:54:37 | 00:00:00 | |
| DF8AY | 2026-08-30 18:36:22 | 50.01702 | 8.39083 | 84° | 11km/h | 30841m | 4.6m/s | -45.5°C | 0% | 10.9hPa | 2.7V | 03:15:54 | 01:54:35 | 00:00:00 | |
| DM0DOS-11 | 2026-08-30 18:36:21 | 50.01699 | 8.39028 | 84° | 27km/h | 30810m | 4.1m/s | -45.5°C | 2.8% | 10.9hPa | 2.7V | 03:14:28 | 01:54:29 | 00:00:00 | |
| BIOWL1-15 | 2026-08-30 18:36:20 | 50.01700 | 8.39052 | 89° | 29km/h | 30819m | 5.5m/s | -45.5°C | 0% | 10.9hPa | 2.7V | 03:15:03 | 01:54:31 | 00:00:00 | |
| DL1XH-west | 2026-08-30 18:36:19 | 50.01701 | 8.39063 | 88° | 26km/h | 30825m | 6.2m/s | -45.5°C | 0% | 10.9hPa | 2.6V | 03:15:03 | 01:54:32 | 00:00:00 | |
| HSKMA3-T | 2026-08-30 18:36:15 | 50.01699 | 8.39019 | 80° | 22km/h | 30805m | 4.9m/s | -45.5°C | 0% | 10.9hPa | 2.6V | 03:15:03 | 01:54:28 | 00:00:00 | |
| AA1-15 | 2026-08-30 18:36:13 | 50.01696 | 8.39008 | 48° | 9km/h | 30793m | 6m/s | -45.5°C | 0% | 10.9hPa | 2.6V | 03:15:03 | 01:54:26 | 00:00:00 | |
| DL1XH-15 | 2026-08-30 18:36:12 | 50.01699 | 8.38996 | 119° | 20km/h | 30762m | 5.5m/s | -45.5°C | 2.8% | 11hPa | 2.7V | 03:14:37 | 01:54:20 | 00:00:00 | |
| DL1XH-west | 2026-08-30 18:36:08 | 50.01697 | 8.39002 | 127° | 15km/h | 30767m | 6m/s | -45.6°C | 0% | 11hPa | 2.6V | 03:15:03 | 01:54:21 | 00:00:00 | |
| BIOWL1-15 | 2026-08-30 18:36:07 | 50.01700 | 8.38996 | 119° | 20km/h | 30762m | 5.5m/s | -45.5°C | 0% | 11hPa | 2.7V | 03:15:03 | 01:54:20 | 00:00:00 | |
| HSKMA3-T | 2026-08-30 18:36:04 | 50.01704 | 8.38972 | 92° | 20km/h | 30747m | 5.2m/s | -45.6°C | 0% | 11hPa | 2.6V | 03:15:03 | 01:54:17 | 00:00:00 | |
| AA1-15 | 2026-08-30 18:36:03 | 50.01702 | 8.38959 | 52° | 15km/h | 30735m | 5.7m/s | -45.6°C | 0% | 11hPa | 2.6V | 03:15:03 | 01:54:15 | 00:00:00 | |
| DL0LBS | 2026-08-30 18:36:02 | 50.01704 | 8.38964 | 77° | 16km/h | 30742m | 6.0m/s | -45.6°C | 0.7% | 11.1hPa | 2.7V | 03:15:00 | 00:00:00 | 00:00:00 | |
| DM0DOS-11 | 2026-08-30 18:36:01 | 50.01694 | 8.38938 | 101° | 20km/h | 30705m | 5.5m/s | -45.7°C | 2.9% | 11.1hPa | 2.7V | 03:14:48 | 01:54:09 | 00:00:00 | |
| DL1XH-west | 2026-08-30 18:35:57 | 50.01694 | 8.38944 | 93° | 15km/h | 30711m | 5.9m/s | -45.7°C | 0% | 11.1hPa | 2.6V | 03:15:03 | 01:54:10 | 00:00:00 | |
| BIOWL1-15 | 2026-08-30 18:35:56 | 50.01695 | 8.38938 | 102° | 20km/h | 30705m | 5.5m/s | -45.7°C | 0% | 11.1hPa | 2.7V | 03:15:03 | 01:54:09 | 00:00:00 | |
| HSKMA3-T | 2026-08-30 18:35:53 | 50.01698 | 8.38913 | 95° | 20km/h | 30691m | 4.7m/s | -45.7°C | 0% | 11.1hPa | 2.6V | 03:15:03 | 01:54:06 | 00:00:00 | |
| DJ2DS-15 | 2026-08-30 18:35:53 | 50.01698 | 8.38913 | 95° | 20km/h | 30691m | 4.7m/s | -45.7°C | 0.6% | 11.1hPa | 2.6V | 00:00:00 | 00:00:00 | 00:00:00 | |
| DL1XH-15 | 2026-08-30 18:35:52 | 50.01694 | 8.38901 | 202° | 2km/h | 30659m | 4.9m/s | -45.7°C | 2.9% | 11.2hPa | 2.6V | 03:14:57 | 01:54:00 | 00:00:00 | |
| AA1-15 | 2026-08-30 18:35:51 | 50.01697 | 8.38901 | 66° | 9km/h | 30680m | 5.8m/s | -45.7°C | 0% | 11.2hPa | 2.6V | 03:15:03 | 01:54:04 | 00:00:00 | |
| DL1XH-west | 2026-08-30 18:35:47 | 50.01695 | 8.38901 | 203° | 2km/h | 30659m | 4.9m/s | -45.7°C | 0% | 11.2hPa | 2.6V | 03:15:03 | 01:54:00 | 00:00:00 | |
| NBG1-10 | 2026-08-30 18:35:47 | 50.01695 | 8.38901 | 203° | 20km/h | 30660m | 4.9m/s | -45.7°C | 2.9% | 11.1hPa | 2.6V | 00:00:00 | 01:54:00 | 00:00:00 | |
| DL1XH1-15 | 2026-08-30 18:35:46 | 50.01690 | 8.38863 | 58° | 26km/h | 30628m | 4.6m/s | -45.7°C | 2.9% | 11.2hPa | 2.6V | 03:15:03 | 01:53:54 | 00:00:00 | |
| DF8AY | 2026-08-30 18:35:46 | 50.01695 | 8.38900 | 116° | 5km/h | 30654m | 4.9m/s | -45.7°C | 0% | 11.2hPa | 2.6V | 03:15:54 | 01:53:59 | 00:00:00 | |
| BIOWL1-15 | 2026-08-30 18:35:45 | 50.01696 | 8.38897 | 99° | 13km/h | 30649m | 5.1m/s | -45.7°C | 0% | 11.2hPa | 2.7V | 03:15:03 | 01:53:58 | 00:00:00 | |
| DF3TZ-5 | 2026-08-30 18:35:45 | 50.01696 | 8.38890 | 86° | 18km/h | 30644m | 5.6m/s | -45.7°C | 0.7% | 11.2hPa | 2.7V | 00:00:00 | 00:00:00 | 00:00:00 | |
| GOEST3-10 | 2026-08-30 18:35:43 | 50.01695 | 8.38882 | 76° | 26km/h | 30638m | 5.7m/s | 0°C | 0% | 0hPa | 2.7V | 00:00:00 | 01:53:56 | 00:00:00 | |
| DL1XH-15 | 2026-08-30 18:35:42 | 50.01679 | 8.38854 | 290° | 11km/h | 30606m | 6.6m/s | -45.7°C | 3% | 11.2hPa | 2.7V | 03:15:07 | 01:53:50 | 00:00:00 | |
| HSKMA3-T | 2026-08-30 18:35:42 | 50.01693 | 8.38872 | 68° | 27km/h | 30633m | 5.2m/s | -45.7°C | 0% | 11.2hPa | 2.6V | 03:15:03 | 01:53:55 | 00:00:00 | |
| DM0DOS-11 | 2026-08-30 18:35:41 | 50.01678 | 8.38859 | 263° | 16km/h | 30600m | 5.8m/s | -45.7°C | 3% | 11.3hPa | 2.7V | 03:15:08 | 01:53:49 | 00:00:00 | |
| AA1-15 | 2026-08-30 18:35:40 | 50.01686 | 8.38856 | 47° | 20km/h | 30623m | 4.5m/s | -45.7°C | 0% | 11.2hPa | 2.6V | 03:15:54 | 01:53:53 | 00:00:00 | |
| DL4BBY-15 | 2026-08-30 18:35:39 | 50.01683 | 8.38851 | 28° | 22km/h | 30619m | 5.3m/s | -47.3°C | 0% | 0hPa | 2.7V | 00:00:00 | 00:00:00 | 00:00:00 | |
| GOEST3-10 | 2026-08-30 18:35:38 | 50.01680 | 8.38851 | 341° | 11km/h | 30613m | 6.1m/s | 0°C | 0% | 0hPa | 2.7V | 00:00:00 | 00:00:00 | 00:00:00 | |
| DL1KLB | 2026-08-30 18:35:37 | 50.01680 | 8.38851 | 342° | 9km/h | 30613m | 6.2m/s | -45.7°C | 0.7% | 11.3hPa | 2.7V | 03:15:00 | 00:00:00 | 00:00:00 | |
| DL1XH1-15 | 2026-08-30 18:35:36 | 50.01686 | 8.38862 | 89° | 22km/h | 30576m | 5.9m/s | -45.7°C | 2.9% | 11.3hPa | 2.7V | 03:15:13 | 01:53:44 | 00:00:00 | |
| DL1XH-west | 2026-08-30 18:35:36 | 50.01679 | 8.38859 | 263° | 16km/h | 30600m | 5.8m/s | -45.7°C | 0% | 11.3hPa | 2.7V | 03:15:54 | 01:53:49 | 00:00:00 | |
| BIOWL1-15 | 2026-08-30 18:35:35 | 50.01680 | 8.38865 | 247° | 16km/h | 30595m | 4.3m/s | -45.7°C | 0% | 11.3hPa | 2.6V | 03:15:54 | 01:53:48 | 00:00:00 | |
| DF8AY | 2026-08-30 18:35:34 | 50.01682 | 8.38870 | 222° | 13km/h | 30591m | 3.5m/s | -45.6°C | 0% | 11.3hPa | 2.6V | 03:15:54 | 01:53:47 | 00:00:00 | |
| DK5PH-5 | 2026-08-30 18:35:34 | 50.01682 | 8.38870 | 223° | 20km/h | 30591m | 3.5m/s | -45.6°C | 2.9% | 11.2hPa | 2.6V | 00:00:00 | 01:53:47 | 00:00:00 | |
| DD1CC8 | 2026-08-30 18:35:33 | 50.01684 | 8.38871 | 172° | 9km/h | 30587m | 4.2m/s | -45.6°C | 0.6% | 11.3hPa | 2.6V | 00:00:00 | 00:00:00 | 00:00:00 | |
| DJ2DS-15 | 2026-08-30 18:35:32 | 50.01686 | 8.38869 | 120° | 26km/h | 30582m | 5.9m/s | -45.6°C | 2.9% | 11.2hPa | 2.6V | 00:00:00 | 01:53:45 | 00:00:00 | |
| DM0DOS-11 | 2026-08-30 18:35:31 | 50.01659 | 8.38818 | 6° | 37km/h | 30550m | 5.3m/s | -45.7°C | 2.9% | 11.3hPa | 2.6V | 03:15:18 | 01:53:39 | 00:00:00 | |
| HSKMA3-T | 2026-08-30 18:35:31 | 50.01687 | 8.38862 | 90° | 22km/h | 30576m | 5.9m/s | -45.7°C | 0% | 11.3hPa | 2.7V | 03:15:54 | 01:53:44 | 00:00:00 | |
| AA1-15 | 2026-08-30 18:35:29 | 50.01682 | 8.38840 | 56° | 37km/h | 30566m | 4.5m/s | -45.7°C | 0% | 11.3hPa | 2.6V | 03:15:54 | 01:53:42 | 00:00:00 | |
| DL1XH-west | 2026-08-30 18:35:25 | 50.01650 | 8.38819 | 347° | 33km/h | 30545m | 4.9m/s | -45.7°C | 0% | 11.4hPa | 2.6V | 03:15:54 | 01:53:38 | 00:00:00 | |
| BIOWL1-15 | 2026-08-30 18:35:24 | 50.01643 | 8.38823 | 328° | 29km/h | 30540m | 4.7m/s | -45.7°C | 0% | 11.4hPa | 2.6V | 03:15:54 | 01:53:37 | 00:00:00 | |
| DF8AY | 2026-08-30 18:35:23 | 50.01638 | 8.38830 | 311° | 24km/h | 30535m | 5.2m/s | -45.7°C | 0% | 11.4hPa | 2.7V | 03:15:54 | 01:53:36 | 00:00:00 | |
| HSKMA3-T | 2026-08-30 18:35:20 | 50.01636 | 8.38846 | 205° | 9km/h | 30518m | 4.9m/s | -45.8°C | 0% | 11.4hPa | 2.6V | 03:15:54 | 01:53:33 | 00:00:00 | |
| AA1-15 | 2026-08-30 18:35:18 | 50.01640 | 8.38843 | 113° | 11km/h | 30510m | 4m/s | -45.8°C | 0% | 11.4hPa | 2.6V | 03:15:54 | 01:53:31 | 00:00:00 | |
| DL1XH-west | 2026-08-30 18:35:15 | 50.01633 | 8.38829 | 23° | 27km/h | 30495m | 5.8m/s | -45.8°C | 0% | 11.4hPa | 2.7V | 03:15:54 | 01:53:28 | 00:00:00 | |
| DF3TZ-5 | 2026-08-30 18:35:14 | 50.01617 | 8.38826 | 356° | 37km/h | 30484m | 5.0m/s | -45.7°C | 0.7% | 11.4hPa | 2.6V | 00:00:00 | 00:00:00 | 00:00:00 | |
| DL1XH1-15 | 2026-08-30 18:35:13 | 50.01587 | 8.38844 | 299° | 9km/h | 30458m | 5.6m/s | -45.7°C | 2.9% | 11.5hPa | 2.6V | 03:15:36 | 01:53:21 | 00:00:00 | |
| BIOWL1-15 | 2026-08-30 18:35:13 | 50.01617 | 8.38826 | 356° | 37km/h | 30484m | 5m/s | -45.7°C | 0% | 11.4hPa | 2.6V | 03:15:54 | 01:53:26 | 00:00:00 | |
| DF8AY | 2026-08-30 18:35:12 | 50.01608 | 8.38828 | 348° | 37km/h | 30479m | 4.5m/s | -45.7°C | 0% | 11.5hPa | 2.6V | 03:15:54 | 01:53:25 | 00:00:00 | |
| HSKMA3-T | 2026-08-30 18:35:09 | 50.01589 | 8.38840 | 319° | 16km/h | 30464m | 5.6m/s | -45.7°C | 0% | 11.5hPa | 2.7V | 03:15:54 | 01:53:22 | 00:00:00 | |
| AA1-15 | 2026-08-30 18:35:07 | 50.01586 | 8.38846 | 270° | 4km/h | 30453m | 5.2m/s | -45.7°C | 0% | 11.5hPa | 2.6V | 03:15:54 | 01:53:20 | 00:00:00 | |
| DL1XH-west | 2026-08-30 18:35:05 | 50.01586 | 8.38848 | 4° | 2km/h | 30442m | 5.6m/s | -45.7°C | 0% | 11.6hPa | 2.7V | 03:15:54 | 01:53:18 | 00:00:00 | |
| BIOWL1-15 | 2026-08-30 18:35:03 | 50.01578 | 8.38847 | 357° | 20km/h | 30425m | 5.4m/s | -45.8°C | 0% | 11.6hPa | 2.6V | 03:15:54 | 01:53:15 | 00:00:00 | |
| DL1XH1-15 | 2026-08-30 18:35:03 | 50.01556 | 8.38854 | 337° | 16km/h | 30405m | 5.3m/s | -45.9°C | 2.9% | 11.6hPa | 2.7V | 03:15:46 | 01:53:11 | 00:00:00 | |
| DD1CC8 | 2026-08-30 18:35:02 | 50.01578 | 8.38847 | 357° | 18km/h | 30426m | 5.4m/s | -45.8°C | 0.7% | 11.6hPa | 2.6V | 00:00:00 | 00:00:00 | 00:00:00 | |
| DM0DOS-11 | 2026-08-30 18:35:01 | 50.01551 | 8.38860 | 304° | 11km/h | 30395m | 5m/s | -45.9°C | 2.9% | 11.6hPa | 2.6V | 03:15:48 | 01:53:09 | 00:00:00 | |
| DF8AY | 2026-08-30 18:35:01 | 50.01572 | 8.38848 | 353° | 24km/h | 30420m | 4.9m/s | -45.9°C | 0% | 11.6hPa | 2.6V | 03:15:54 | 01:53:14 | 00:00:00 | |
| HSKMA3-T | 2026-08-30 18:34:59 | 50.01561 | 8.38851 | 345° | 22km/h | 30411m | 5m/s | -45.9°C | 0% | 11.6hPa | 2.7V | 03:15:54 | 01:53:12 | 00:00:00 | |
| AA1-15 | 2026-08-30 18:34:57 | 50.01553 | 8.38857 | 324° | 13km/h | 30400m | 5.1m/s | -45.9°C | 0% | 11.6hPa | 2.6V | 03:15:54 | 01:53:10 | 00:00:00 | |
| BIOWL1-15 | 2026-08-30 18:34:54 | 50.01545 | 8.38880 | 298° | 18km/h | 30374m | 5.6m/s | -45.9°C | 0% | 11.7hPa | 2.7V | 03:15:54 | 01:53:05 | 00:00:00 | |
| DL1XH-west | 2026-08-30 18:34:54 | 50.01549 | 8.38869 | 286° | 13km/h | 30385m | 5m/s | -45.9°C | 0% | 11.7hPa | 2.7V | 03:15:54 | 01:53:07 | 00:00:00 | |
| DL1XH1-15 | 2026-08-30 18:34:53 | 50.01536 | 8.38904 | 298° | 13km/h | 30354m | 5.9m/s | -45.8°C | 2.9% | 11.7hPa | 2.7V | 03:15:56 | 01:53:01 | 00:00:00 | |
| DL1XH-15 | 2026-08-30 18:34:52 | 50.01535 | 8.38908 | 286° | 9km/h | 30348m | 5.7m/s | -45.9°C | 2.9% | 11.7hPa | 2.7V | 03:15:57 | 01:53:00 | 00:00:00 | |
| DF8AY | 2026-08-30 18:34:51 | 50.01543 | 8.38887 | 303° | 20km/h | 30368m | 4.9m/s | -45.9°C | 0% | 11.7hPa | 2.6V | 03:15:54 | 01:53:04 | 00:00:00 | |
| HSKMA3-T | 2026-08-30 18:34:48 | 50.01536 | 8.38904 | 298° | 13km/h | 30354m | 5.9m/s | -45.8°C | 0% | 11.7hPa | 2.7V | 03:16:45 | 01:53:01 | 00:00:00 | |
| AA1-15 | 2026-08-30 18:34:46 | 50.01534 | 8.38911 | 277° | 9km/h | 30343m | 5m/s | -45.9°C | 0% | 11.8hPa | 2.6V | 03:16:45 | 01:52:59 | 00:00:00 | |
| DL1ZP-14 | 2026-08-30 18:34:45 | 50.01534 | 8.38915 | 279° | 11km/h | 30338m | 4.6m/s | -45.9°C | 0.7% | 11.8hPa | 2.6V | 00:00:00 | 00:00:00 | 00:00:00 | |
| DL1XH-west | 2026-08-30 18:34:44 | 50.01533 | 8.38920 | 287° | 15km/h | 30333m | 5.7m/s | -45.9°C | 0% | 11.8hPa | 2.6V | 03:16:45 | 01:52:57 | 00:00:00 | |
| DF3TZ-5 | 2026-08-30 18:34:43 | 50.01529 | 8.38933 | 295° | 22km/h | 30321m | 5.2m/s | -45.9°C | 0.7% | 11.8hPa | 2.6V | 00:00:00 | 00:00:00 | 00:00:00 | |
| DL1XH-15 | 2026-08-30 18:34:42 | 50.01523 | 8.38970 | 260° | 11km/h | 30295m | 5.2m/s | -45.8°C | 2.9% | 11.8hPa | 2.6V | 03:16:07 | 01:52:50 | 00:00:00 | |
| BIOWL1-15 | 2026-08-30 18:34:42 | 50.01529 | 8.38933 | 295° | 22km/h | 30321m | 5.2m/s | -45.9°C | 0% | 11.8hPa | 2.7V | 03:16:45 | 01:52:55 | 00:00:00 | |
| DM0DOS-11 | 2026-08-30 18:34:41 | 50.01524 | 8.38973 | 256° | 9km/h | 30291m | 4.4m/s | -45.8°C | 3% | 11.8hPa | 2.7V | 03:16:08 | 01:52:49 | 00:00:00 | |
| DF8AY | 2026-08-30 18:34:40 | 50.01525 | 8.38950 | 290° | 22km/h | 30311m | 4.7m/s | -45.8°C | 0% | 11.8hPa | 2.6V | 03:19:18 | 01:52:53 | 00:00:00 | |
| HSKMA3-T | 2026-08-30 18:34:38 | 50.01523 | 8.38964 | 273° | 15km/h | 30301m | 5.9m/s | -45.8°C | 0% | 11.8hPa | 2.6V | 03:16:45 | 01:52:51 | 00:00:00 | |
| AA1-15 | 2026-08-30 18:34:35 | 50.01524 | 8.38976 | 272° | 7km/h | 30286m | 4.3m/s | -45.8°C | 0% | 11.8hPa | 2.7V | 03:16:45 | 01:52:48 | 00:00:00 | |
| DF8AY | 2026-08-30 18:34:34 | 50.01511 | 8.39005 | 284° | 18km/h | 30256m | 5.3m/s | -45.8°C | 0% | 11.9hPa | 2.7V | 03:19:18 | 01:52:42 | 00:00:00 | |
| DL1XH-west | 2026-08-30 18:34:34 | 50.01523 | 8.38979 | 300° | 9km/h | 30281m | 5.6m/s | -45.8°C | 0% | 11.8hPa | 2.7V | 03:16:45 | 01:52:47 | 00:00:00 | |
| BIOWL1-15 | 2026-08-30 18:34:33 | 50.01515 | 8.38992 | 313° | 20km/h | 30265m | 4.4m/s | -45.8°C | 0% | 11.9hPa | 2.6V | 03:16:45 | 01:52:44 | 00:00:00 | |
| DJ2DS-15 | 2026-08-30 18:34:32 | 50.01519 | 8.38987 | 318° | 15km/h | 30270m | 5.2m/s | -45.7°C | 2.9% | 11.8hPa | 2.7V | 00:00:00 | 01:52:45 | 00:00:00 | |
| DM0DOS-11 | 2026-08-30 18:34:31 | 50.01515 | 8.39027 | 235° | 24km/h | 30239m | 4.9m/s | -45.8°C | 2.9% | 11.9hPa | 2.7V | 03:16:18 | 01:52:39 | 00:00:00 | |
| HSKMA3-T | 2026-08-30 18:34:27 | 50.01512 | 8.39019 | 243° | 22km/h | 30244m | 5.6m/s | -45.8°C | 0% | 11.9hPa | 2.6V | 03:16:45 | 01:52:40 | 00:00:00 | |
| AA1-15 | 2026-08-30 18:34:24 | 50.01521 | 8.39041 | 243° | 20km/h | 30229m | 5.1m/s | -45.7°C | 0% | 11.9hPa | 2.6V | 03:16:45 | 01:52:37 | 00:00:00 | |
| EDDB2-12 | 2026-08-30 18:34:24 | 50.01523 | 8.39048 | 255° | 18km/h | 30224m | 5.8m/s | -45.7°C | 0.7% | 11.9hPa | 2.6V | 00:00:00 | 00:00:00 | 00:00:00 | |
| DL1XH1-15 | 2026-08-30 18:34:23 | 50.01519 | 8.39073 | 284° | 7km/h | 30196m | 5.7m/s | -45.6°C | 2.9% | 12hPa | 2.6V | 03:16:26 | 01:52:31 | 00:00:00 | |
| DL1XH-west | 2026-08-30 18:34:23 | 50.01523 | 8.39048 | 256° | 18km/h | 30224m | 5.8m/s | -45.7°C | 0% | 11.9hPa | 2.6V | 03:16:45 | 01:52:36 | 00:00:00 | |
| D01LWL | 2026-08-30 18:34:22 | 50.01521 | 8.39066 | 297° | 11km/h | 30208m | 5.4m/s | -45.6°C | 0.7% | 12.0hPa | 2.6V | 00:00:00 | 00:00:00 | 00:00:00 | |
| DM0DOS-11 | 2026-08-30 18:34:21 | 50.01519 | 8.39077 | 250° | 7km/h | 30186m | 4.4m/s | -45.5°C | 2.9% | 12hPa | 2.6V | 03:16:28 | 01:52:29 | 00:00:00 | |
| BIOWL1-15 | 2026-08-30 18:34:20 | 50.01521 | 8.39066 | 298° | 13km/h | 30207m | 5.4m/s | -45.6°C | 0% | 12hPa | 2.7V | 03:16:45 | 01:52:33 | 00:00:00 | |
| DF8AY | 2026-08-30 18:34:19 | 50.01520 | 8.39070 | 299° | 9km/h | 30201m | 6m/s | -45.6°C | 0% | 12hPa | 2.7V | 03:19:18 | 01:52:32 | 00:00:00 | |
| DB0NH | 2026-08-30 18:34:18 | 50.01519 | 8.39073 | 285° | 15km/h | 30196m | 5.6m/s | -45.5°C | 2.9% | 11.9hPa | 2.6V | 00:00:00 | 01:52:31 | 00:00:00 | |
| CB1BUN | 2026-08-30 18:34:17 | 50.01519 | 8.39073 | 286° | 7km/h | 30196m | 5.7m/s | -45.6°C | 0.7% | 12.0hPa | 2.7V | 03:16:00 | 00:00:00 | 00:00:00 | |
| EDDB2-11 | 2026-08-30 18:34:16 | 50.01519 | 8.39077 | 250° | 5km/h | 30186m | 4.4m/s | -45.6°C | 0.7% | 12.0hPa | 2.7V | 00:00:00 | 00:00:00 | 00:00:00 | |
| HSKMA3-T | 2026-08-30 18:34:16 | 50.01519 | 8.39077 | 251° | 7km/h | 30186m | 4.4m/s | -45.6°C | 0% | 12hPa | 2.6V | 03:16:45 | 01:52:29 | 00:00:00 | |
| DO3DL | 2026-08-30 18:34:14 | 50.01520 | 8.39080 | 255° | 9km/h | 30182m | 4.6m/s | -45.6°C | 0.6% | 12.0hPa | 2.7V | 03:16:00 | 00:00:00 | 00:00:00 | |
| DL1XH1-15 | 2026-08-30 18:34:13 | 50.01530 | 8.39126 | 221° | 16km/h | 30144m | 5m/s | -45.6°C | 2.9% | 12.1hPa | 2.7V | 03:16:36 | 01:52:21 | 00:00:00 | |
| AA1-15 | 2026-08-30 18:34:13 | 50.01521 | 8.39090 | 264° | 16km/h | 30170m | 5.8m/s | -45.6°C | 0% | 12.1hPa | 2.7V | 03:16:45 | 01:52:26 | 00:00:00 | |
| DL1XH-west | 2026-08-30 18:34:12 | 50.01522 | 8.39097 | 262° | 20km/h | 30165m | 5.2m/s | -45.6°C | 0% | 12.1hPa | 2.7V | 03:16:45 | 01:52:25 | 00:00:00 | |
| BIOWL1-15 | 2026-08-30 18:34:09 | 50.01527 | 8.39121 | 234° | 20km/h | 30150m | 6m/s | -45.6°C | 0% | 12.1hPa | 2.6V | 03:16:45 | 01:52:22 | 00:00:00 | |
| DF8AY | 2026-08-30 18:34:08 | 50.01531 | 8.39126 | 221° | 18km/h | 30144m | 5m/s | -45.6°C | 0% | 12.1hPa | 2.7V | 03:19:18 | 01:52:21 | 00:00:00 | |
| HSKMA3-T | 2026-08-30 18:34:06 | 50.01535 | 8.39131 | 198° | 5km/h | 30135m | 4.6m/s | -45.6°C | 0% | 12.1hPa | 2.6V | 03:16:45 | 01:52:19 | 00:00:00 | |
| GOEST3-10 | 2026-08-30 18:34:05 | 50.01535 | 8.39131 | 40° | 13km/h | 30130m | 6.0m/s | 0°C | 0% | 0hPa | 2.6V | 00:00:00 | 01:52:18 | 00:00:00 | |
| DK5PH-5 | 2026-08-30 18:34:04 | 50.01534 | 8.39130 | 24° | 15km/h | 30123m | 6.4m/s | -45.6°C | 2.9% | 12.1hPa | 2.6V | 03:16:00 | 01:52:17 | 00:00:00 | |
| DL1XH1-15 | 2026-08-30 18:34:03 | 50.01522 | 8.39128 | 211° | 15km/h | 30094m | 6.2m/s | -45.6°C | 2.9% | 12.2hPa | 2.6V | 03:16:46 | 01:52:11 | 00:00:00 | |
| DL1XH-15 | 2026-08-30 18:34:02 | 50.01527 | 8.39132 | 208° | 22km/h | 30088m | 5.3m/s | -45.6°C | 2.9% | 12.2hPa | 2.7V | 03:16:47 | 01:52:10 | 00:00:00 | |
| DL1XH-west | 2026-08-30 18:34:02 | 50.01527 | 8.39126 | 15° | 16km/h | 30113m | 3.8m/s | -45.6°C | 0% | 12.2hPa | 2.7V | 03:16:45 | 01:52:15 | 00:00:00 | |
| BIOWL1-15 | 2026-08-30 18:34:01 | 50.01521 | 8.39126 | 235° | 5km/h | 30100m | 5.9m/s | -45.6°C | 0% | 12.2hPa | 2.6V | 03:16:45 | 01:52:12 | 00:00:00 | |
| DF8AY | 2026-08-30 18:33:58 | 50.01522 | 8.39128 | 212° | 15km/h | 30094m | 6.2m/s | -45.6°C | 0% | 12.2hPa | 2.6V | 03:19:18 | 01:52:11 | 00:00:00 | |
| HSKMA3-T | 2026-08-30 18:33:56 | 50.01532 | 8.39136 | 212° | 26km/h | 30083m | 4.3m/s | -45.6°C | 0% | 12.2hPa | 2.7V | 03:17:36 | 01:52:09 | 00:00:00 | |
| DL8DAS-14 | 2026-08-30 18:33:56 | 50.01537 | 8.39142 | 217° | 24km/h | 30079m | 4.0m/s | -45.5°C | 0.6% | 12.2hPa | 2.6V | 00:00:00 | 00:00:00 | 00:00:00 | |
| GOEST3-10 | 2026-08-30 18:33:55 | 50.01537 | 8.39142 | 218° | 24km/h | 30079m | 4.0m/s | 0°C | 0% | 0hPa | 2.6V | 00:00:00 | 00:00:00 | 00:00:00 | |
| DL1KLB | 2026-08-30 18:33:54 | 50.01537 | 8.39142 | 219° | 24km/h | 30079m | 4.0m/s | -45.5°C | 0.6% | 12.2hPa | 2.6V | 03:17:00 | 00:00:00 | 00:00:00 | |
| DL1XH1-15 | 2026-08-30 18:33:53 | 50.01535 | 8.39165 | 65° | 2km/h | 30044m | 5.5m/s | -45.4°C | 2.8% | 12.3hPa | 2.6V | 03:16:56 | 01:52:01 | 00:00:00 | |
| EDDB2-12 | 2026-08-30 18:33:53 | 50.01543 | 8.39159 | 289° | 11km/h | 30064m | 5.9m/s | -45.5°C | 0.7% | 12.2hPa | 2.6V | 00:00:00 | 00:00:00 | 00:00:00 | |
| DL1XH-15 | 2026-08-30 18:33:52 | 50.01536 | 8.39164 | 161° | 9km/h | 30038m | 6m/s | -45.4°C | 2.8% | 12.3hPa | 2.6V | 03:16:57 | 01:52:00 | 00:00:00 | |
| DL1XH-west | 2026-08-30 18:33:52 | 50.01543 | 8.39159 | 289° | 13km/h | 30063m | 5.9m/s | -45.5°C | 0% | 12.2hPa | 2.7V | 03:17:36 | 01:52:05 | 00:00:00 | |
| DJ2DS-15 | 2026-08-30 18:33:52 | 50.01543 | 8.39158 | 290° | 13km/h | 30064m | 5.8m/s | -45.4°C | 2.9% | 12.2hPa | 2.7V | 00:00:00 | 01:52:05 | 00:00:00 | |
| DM0DOS-11 | 2026-08-30 18:33:51 | 50.01540 | 8.39163 | 171° | 18km/h | 30032m | 5.5m/s | -45.4°C | 2.8% | 12.3hPa | 2.7V | 03:16:58 | 01:51:59 | 00:00:00 | |
| AA1-15 | 2026-08-30 18:33:51 | 50.01541 | 8.39163 | 323° | 13km/h | 30058m | 5.1m/s | -45.5°C | 0% | 12.2hPa | 2.7V | 03:17:36 | 01:52:04 | 00:00:00 | |
| BIOWL1-15 | 2026-08-30 18:33:48 | 50.01535 | 8.39165 | 66° | 2km/h | 30044m | 5.5m/s | -45.4°C | 0% | 12.3hPa | 2.6V | 03:17:36 | 01:52:01 | 00:00:00 | |
| HSKMA3-T | 2026-08-30 18:33:45 | 50.01545 | 8.39163 | 179° | 26km/h | 30027m | 4.8m/s | -45.4°C | 0% | 12.3hPa | 2.7V | 03:17:36 | 01:51:58 | 00:00:00 | |
| GOEST3-10 | 2026-08-30 18:33:45 | 50.01545 | 8.39162 | 179° | 18km/h | 30027m | 4.8m/s | 0°C | 0% | 0hPa | 2.6V | 00:00:00 | 01:51:58 | 00:00:00 | |
| DL1ZP-14 | 2026-08-30 18:33:43 | 50.01559 | 8.39164 | 189° | 26km/h | 30018m | 5.3m/s | -45.5°C | 0.6% | 12.3hPa | 2.6V | 00:00:00 | 00:00:00 | 00:00:00 | |
| DL1XH-15 | 2026-08-30 18:33:42 | 50.01578 | 8.39184 | 228° | 7km/h | 29985m | 6m/s | -45.5°C | 2.9% | 12.4hPa | 2.6V | 03:17:07 | 01:51:50 | 00:00:00 | |
| DM0DOS-11 | 2026-08-30 18:33:41 | 50.01580 | 8.39185 | 203° | 5km/h | 29980m | 5.4m/s | -45.5°C | 2.9% | 12.4hPa | 2.6V | 03:17:08 | 01:51:49 | 00:00:00 | |
| DL1XH-west | 2026-08-30 18:33:41 | 50.01570 | 8.39170 | 210° | 20km/h | 30007m | 5.2m/s | -45.5°C | 0% | 12.3hPa | 2.7V | 03:17:36 | 01:51:54 | 00:00:00 | |
| AA1-15 | 2026-08-30 18:33:40 | 50.01573 | 8.39174 | 224° | 15km/h | 30001m | 5.1m/s | -45.5°C | 0% | 12.4hPa | 2.7V | 03:17:36 | 01:51:53 | 00:00:00 | |
| BIOWL1-15 | 2026-08-30 18:33:40 | 50.01577 | 8.39181 | 239° | 9km/h | 29991m | 5.7m/s | -45.6°C | 0% | 12.4hPa | 2.6V | 03:17:36 | 01:51:51 | 00:00:00 | |
| DF8AY | 2026-08-30 18:33:38 | 50.01578 | 8.39184 | 228° | 7km/h | 29985m | 6m/s | -45.6°C | 0% | 12.4hPa | 2.6V | 03:19:18 | 01:51:50 | 00:00:00 | |
| HSKMA3-T | 2026-08-30 18:33:35 | 50.01581 | 8.39186 | 177° | 5km/h | 29974m | 4.9m/s | -45.5°C | 0% | 12.4hPa | 2.7V | 03:17:36 | 01:51:48 | 00:00:00 | |
| NBG1-10 | 2026-08-30 18:33:35 | 50.01581 | 8.39186 | 177° | 18km/h | 29975m | 4.8m/s | -45.5°C | 2.9% | 12.4hPa | 2.6V | 00:00:00 | 01:51:48 | 00:00:00 | |
| DK5PH-5 | 2026-08-30 18:33:34 | 50.01582 | 8.39185 | 158° | 20km/h | 29970m | 4.6m/s | -45.5°C | 2.9% | 12.4hPa | 2.6V | 00:00:00 | 01:51:47 | 00:00:00 | |
| DL1KLB | 2026-08-30 18:33:33 | 50.01582 | 8.39185 | 159° | 5km/h | 29970m | 4.6m/s | -45.6°C | 0.7% | 12.4hPa | 2.6V | 03:17:00 | 00:00:00 | 00:00:00 | |
| DL1XH-15 | 2026-08-30 18:33:32 | 50.01605 | 8.39194 | 198° | 33km/h | 29934m | 6.6m/s | -45.5°C | 2.9% | 12.5hPa | 2.6V | 03:17:17 | 01:51:40 | 00:00:00 | |
| DJ2DS-15 | 2026-08-30 18:33:32 | 50.01585 | 8.39183 | 157° | 20km/h | 29960m | 5.6m/s | -45.4°C | 2.9% | 12.4hPa | 2.6V | 03:17:00 | 01:51:45 | 00:00:00 | |
| DM0DOS-11 | 2026-08-30 18:33:31 | 50.01613 | 8.39198 | 196° | 37km/h | 29928m | 5.9m/s | -45.5°C | 2.8% | 12.5hPa | 2.6V | 03:17:18 | 01:51:39 | 00:00:00 | |
| DL1XH-west | 2026-08-30 18:33:30 | 50.01589 | 8.39184 | 201° | 13km/h | 29950m | 4.2m/s | -45.5°C | 0% | 12.5hPa | 2.7V | 03:17:36 | 01:51:43 | 00:00:00 | |
| AA1-15 | 2026-08-30 18:33:29 | 50.01593 | 8.39186 | 204° | 20km/h | 29945m | 4.4m/s | -45.5°C | 0% | 12.5hPa | 2.7V | 03:17:36 | 01:51:42 | 00:00:00 | |
| BIOWL1-15 | 2026-08-30 18:33:27 | 50.01605 | 8.39194 | 199° | 33km/h | 29934m | 6.6m/s | -45.5°C | 0% | 12.5hPa | 2.6V | 03:17:36 | 01:51:40 | 00:00:00 | |
| HSKMA3-T | 2026-08-30 18:33:24 | 50.01630 | 8.39205 | 195° | 31km/h | 29919m | 3.8m/s | -45.6°C | 0% | 12.5hPa | 2.6V | 03:17:36 | 01:51:37 | 00:00:00 | |
| DF8AY | 2026-08-30 18:33:23 | 50.01637 | 8.39208 | 195° | 24km/h | 29914m | 5m/s | -45.7°C | 0% | 12.5hPa | 2.7V | 03:19:18 | 01:51:36 | 00:00:00 | |
| DL1XH-15 | 2026-08-30 18:33:22 | 50.01648 | 8.39203 | 145° | 13km/h | 29882m | 5.6m/s | -45.7°C | 2.9% | 12.6hPa | 2.7V | 03:17:27 | 01:51:30 | 00:00:00 | |
| DM0DOS-11 | 2026-08-30 18:33:21 | 50.01651 | 8.39201 | 164° | 20km/h | 29877m | 5.1m/s | -45.7°C | 2.9% | 12.6hPa | 2.7V | 03:17:28 | 01:51:29 | 00:00:00 | |
| BIOWL1-15 | 2026-08-30 18:33:19 | 50.01648 | 8.39203 | 145° | 13km/h | 29882m | 5.6m/s | -45.7°C | 0% | 12.6hPa | 2.7V | 03:17:36 | 01:51:30 | 00:00:00 | |
| DL1XH-west | 2026-08-30 18:33:19 | 50.01645 | 8.39209 | 89° | 5km/h | 29892m | 4.3m/s | -45.7°C | 0% | 12.6hPa | 2.6V | 03:17:36 | 01:51:32 | 00:00:00 | |
| AA1-15 | 2026-08-30 18:33:18 | 50.01646 | 8.39206 | 117° | 9km/h | 29887m | 5m/s | -45.7°C | 0% | 12.6hPa | 2.6V | 03:17:36 | 01:51:31 | 00:00:00 | |
| DB0NH | 2026-08-30 18:33:18 | 50.01646 | 8.39206 | 117° | 18km/h | 29888m | 5.0m/s | -45.7°C | 2.9% | 12.5hPa | 2.6V | 03:17:00 | 01:51:31 | 00:00:00 | |
| DL0LBS | 2026-08-30 18:33:16 | 50.01647 | 8.39203 | 146° | 13km/h | 29883m | 5.6m/s | -45.7°C | 0.7% | 12.6hPa | 2.6V | 03:17:00 | 00:00:00 | 00:00:00 | |
| DL8DAS-15 | 2026-08-30 18:33:15 | 50.01651 | 8.39201 | 166° | 20km/h | 29877m | 5.1m/s | -45.7°C | 0.7% | 12.6hPa | 2.6V | 00:00:00 | 00:00:00 | 00:00:00 | |
| EDDB2-11 | 2026-08-30 18:33:14 | 50.01664 | 8.39200 | 186° | 29km/h | 29867m | 5.3m/s | -45.7°C | 0.7% | 12.6hPa | 2.6V | 00:00:00 | 00:00:00 | 00:00:00 | |
| DL1XH1-15 | 2026-08-30 18:33:13 | 50.01704 | 8.39224 | 194° | 18km/h | 29836m | 5.5m/s | -45.8°C | 2.9% | 12.7hPa | 2.6V | 03:17:36 | 01:51:21 | 00:00:00 | |
| HSKMA3-T | 2026-08-30 18:33:13 | 50.01672 | 8.39202 | 194° | 33km/h | 29861m | 5.7m/s | -45.8°C | 0% | 12.7hPa | 2.6V | 03:17:36 | 01:51:26 | 00:00:00 | |
| HTAHTA | 2026-08-30 18:33:12 | 50.01694 | 8.39217 | 208° | 26km/h | 29846m | 4.2m/s | -45.8°C | 0.7% | 12.7hPa | 2.7V | 00:00:00 | 00:00:00 | 00:00:00 | |
| DM0DOS-11 | 2026-08-30 18:33:11 | 50.01712 | 8.39223 | 161° | 13km/h | 29825m | 5.6m/s | -45.8°C | 2.9% | 12.7hPa | 2.7V | 03:17:38 | 01:51:19 | 00:00:00 | |
| DF8AY | 2026-08-30 18:33:09 | 50.01699 | 8.39221 | 205° | 22km/h | 29841m | 4.5m/s | -45.8°C | 0% | 12.7hPa | 2.6V | 03:19:18 | 01:51:22 | 00:00:00 | |
| DL1XH-west | 2026-08-30 18:33:08 | 50.01704 | 8.39224 | 195° | 18km/h | 29837m | 5.5m/s | -45.8°C | 0% | 12.7hPa | 2.6V | 03:17:36 | 01:51:21 | 00:00:00 | |
| BIOWL1-15 | 2026-08-30 18:33:07 | 50.01708 | 8.39224 | 178° | 15km/h | 29831m | 6.1m/s | -45.8°C | 0% | 12.7hPa | 2.6V | 03:18:27 | 01:51:20 | 00:00:00 | |
| DO1YAY-16 | 2026-08-30 18:33:07 | 50.01712 | 8.39223 | 161° | 13km/h | 29825m | 5.6m/s | -45.8°C | 0.7% | 12.7hPa | 2.6V | 00:00:00 | 00:00:00 | 00:00:00 | |
| BUE01 | 2026-08-30 18:33:06 | 50.01715 | 8.39222 | 150° | 11km/h | 29820m | 4.8m/s | -45.8°C | 0.7% | 12.7hPa | 2.6V | 00:00:00 | 00:00:00 | 00:00:00 | |
| SONDE2-11 | 2026-08-30 18:33:05 | 50.01715 | 8.39222 | 150° | 11km/h | 29820m | 4.8m/s | -45.8°C | 0.7% | 12.7hPa | 2.6V | 00:00:00 | 00:00:00 | 00:00:00 | |
| DK5PH-5 | 2026-08-30 18:33:04 | 50.01717 | 8.39220 | 153° | 16km/h | 29815m | 4.4m/s | -45.7°C | 2.9% | 12.7hPa | 2.6V | 00:00:00 | 01:51:17 | 00:00:00 | |
| DL1XH1-15 | 2026-08-30 18:33:03 | 50.01733 | 8.39240 | 207° | 26km/h | 29784m | 5.5m/s | -46°C | 3% | 12.8hPa | 2.6V | 03:17:46 | 01:51:11 | 00:00:00 | |
| HSKMA3-T | 2026-08-30 18:33:03 | 50.01718 | 8.39219 | 182° | 5km/h | 29810m | 5.5m/s | -45.8°C | 0% | 12.8hPa | 2.6V | 03:18:27 | 01:51:16 | 00:00:00 | |
| DL1XH-15 | 2026-08-30 18:33:02 | 50.01740 | 8.39244 | 196° | 29km/h | 29778m | 6.2m/s | -45.9°C | 3% | 12.8hPa | 2.6V | 03:17:47 | 01:51:10 | 00:00:00 | |
| DF8AY | 2026-08-30 18:32:59 | 50.01728 | 8.39235 | 219° | 24km/h | 29789m | 4.6m/s | -45.9°C | 0% | 12.8hPa | 2.7V | 03:19:18 | 01:51:12 | 00:00:00 | |
| DL1XH-west | 2026-08-30 18:32:58 | 50.01733 | 8.39240 | 207° | 26km/h | 29784m | 5.5m/s | -46°C | 0% | 12.8hPa | 2.6V | 03:18:27 | 01:51:11 | 00:00:00 | |
| BIOWL1-15 | 2026-08-30 18:32:57 | 50.01740 | 8.39244 | 197° | 29km/h | 29778m | 6.2m/s | -45.9°C | 0% | 12.8hPa | 2.6V | 03:18:27 | 01:51:10 | 00:00:00 | |
| DF8AY | 2026-08-30 18:32:54 | 50.01770 | 8.39261 | 295° | 9km/h | 29738m | 4.6m/s | -45.8°C | 0% | 12.9hPa | 2.7V | 03:19:18 | 01:51:02 | 00:00:00 | |
| DL8DAS-14 | 2026-08-30 18:32:54 | 50.01766 | 8.39250 | 191° | 16km/h | 29759m | 5.2m/s | -45.8°C | 0.7% | 12.8hPa | 2.7V | 00:00:00 | 00:00:00 | 00:00:00 | |
| DL1XH1-15 | 2026-08-30 18:32:53 | 50.01769 | 8.39264 | 289° | 7km/h | 29733m | 5.1m/s | -45.8°C | 2.9% | 12.9hPa | 2.7V | 03:17:56 | 01:51:01 | 00:00:00 | |
| HSKMA3-T | 2026-08-30 18:32:52 | 50.01769 | 8.39251 | 213° | 11km/h | 29753m | 5.9m/s | -45.8°C | 0% | 12.8hPa | 2.6V | 03:18:27 | 01:51:05 | 00:00:00 | |
| DH7VM-15 | 2026-08-30 18:32:52 | 50.01769 | 8.39251 | 214° | 11km/h | 29753m | 5.9m/s | -45.8°C | 0.7% | 12.9hPa | 2.6V | 00:00:00 | 00:00:00 | 00:00:00 | |
| DM0DOS-11 | 2026-08-30 18:32:51 | 50.01770 | 8.39267 | 199° | 9km/h | 29722m | 5.1m/s | -45.8°C | 2.9% | 12.9hPa | 2.6V | 03:17:58 | 01:50:59 | 00:00:00 | |
| DL1XH-west | 2026-08-30 18:32:48 | 50.01769 | 8.39264 | 290° | 7km/h | 29733m | 5.1m/s | -45.8°C | 0% | 12.9hPa | 2.7V | 03:18:27 | 01:51:01 | 00:00:00 | |
| AA1-15 | 2026-08-30 18:32:46 | 50.01770 | 8.39267 | 200° | 9km/h | 29722m | 5.1m/s | -45.8°C | 0% | 12.9hPa | 2.6V | 03:18:27 | 01:50:59 | 00:00:00 | |
| DB0ND-19 | 2026-08-30 18:32:45 | 50.01777 | 8.39271 | 201° | 18km/h | 29713m | 4.6m/s | -45.9°C | 0.7% | 12.9hPa | 2.7V | 00:00:00 | 00:00:00 | 00:00:00 | |
| DL1XH1-15 | 2026-08-30 18:32:43 | 50.01802 | 8.39307 | 226° | 18km/h | 29682m | 5.6m/s | -46°C | 3% | 12.9hPa | 2.7V | 03:18:06 | 01:50:51 | 00:00:00 | |
| DL1XH-15 | 2026-08-30 18:32:42 | 50.01805 | 8.39311 | 218° | 13km/h | 29676m | 5.9m/s | -46°C | 3% | 13hPa | 2.7V | 03:18:07 | 01:50:50 | 00:00:00 | |
| HSKMA3-T | 2026-08-30 18:32:41 | 50.01791 | 8.39286 | 227° | 26km/h | 29696m | 5.4m/s | -46°C | 0% | 12.9hPa | 2.6V | 03:18:27 | 01:50:54 | 00:00:00 | |
| DL1XH-west | 2026-08-30 18:32:37 | 50.01805 | 8.39311 | 219° | 13km/h | 29676m | 5.9m/s | -46°C | 0% | 13hPa | 2.7V | 03:18:27 | 01:50:50 | 00:00:00 | |
| AA1-15 | 2026-08-30 18:32:35 | 50.01809 | 8.39315 | 219° | 5km/h | 29666m | 4.7m/s | -45.9°C | 0% | 13hPa | 2.6V | 03:18:27 | 01:50:48 | 00:00:00 | |
| DK5PH-5 | 2026-08-30 18:32:34 | 50.01810 | 8.39317 | 251° | 18km/h | 29662m | 4.8m/s | -45.8°C | 2.9% | 13.0hPa | 2.6V | 00:00:00 | 01:50:47 | 00:00:00 | |
| DO2KSM | 2026-08-30 18:32:33 | 50.01810 | 8.39317 | 252° | 5km/h | 29662m | 4.9m/s | -45.9°C | 0.7% | 13.0hPa | 2.6V | 03:18:00 | 00:00:00 | 00:00:00 | |
| DL1XH-15 | 2026-08-30 18:32:32 | 50.01822 | 8.39358 | 214° | 20km/h | 29624m | 5.1m/s | -45.7°C | 2.9% | 13.1hPa | 2.6V | 03:18:17 | 01:50:40 | 00:00:00 | |
| DF8AY | 2026-08-30 18:32:32 | 50.01810 | 8.39324 | 265° | 15km/h | 29650m | 5.7m/s | -45.8°C | 0% | 13.1hPa | 2.7V | 03:19:18 | 01:50:45 | 00:00:00 | |
| DM0DOS-11 | 2026-08-30 18:32:31 | 50.01826 | 8.39362 | 208° | 20km/h | 29620m | 4.1m/s | -45.8°C | 3% | 13.1hPa | 2.7V | 03:18:18 | 01:50:39 | 00:00:00 | |
| HSKMA3-T | 2026-08-30 18:32:30 | 50.01812 | 8.39338 | 250° | 22km/h | 29640m | 4.6m/s | -45.7°C | 0% | 13.1hPa | 2.7V | 03:18:27 | 01:50:43 | 00:00:00 | |
| DL1XH-west | 2026-08-30 18:32:26 | 50.01826 | 8.39362 | 208° | 20km/h | 29620m | 4.1m/s | -45.8°C | 0% | 13.1hPa | 2.7V | 03:18:27 | 01:50:39 | 00:00:00 | |
| BIOWL1-15 | 2026-08-30 18:32:24 | 50.01834 | 8.39370 | 228° | 16km/h | 29611m | 5.2m/s | -45.8°C | 0% | 13.1hPa | 2.6V | 03:18:27 | 01:50:37 | 00:00:00 | |
| DL1XH1-15 | 2026-08-30 18:32:23 | 50.01839 | 8.39414 | 249° | 18km/h | 29579m | 5.8m/s | -45.7°C | 2.9% | 13.2hPa | 2.6V | 03:18:26 | 01:50:31 | 00:00:00 | |
| DF7PN | 2026-08-30 18:32:22 | 50.01837 | 8.39382 | 261° | 18km/h | 29600m | 5.5m/s | -45.8°C | 0.7% | 13.2hPa | 2.6V | 00:00:00 | 00:00:00 | 00:00:00 | |
| DM0DOS-11 | 2026-08-30 18:32:21 | 50.01844 | 8.39426 | 230° | 18km/h | 29569m | 4.7m/s | -45.8°C | 2.9% | 13.2hPa | 2.6V | 03:18:28 | 01:50:29 | 00:00:00 | |
| DF8AY | 2026-08-30 18:32:21 | 50.01838 | 8.39390 | 268° | 22km/h | 29595m | 4.9m/s | -45.7°C | 0% | 13.2hPa | 2.7V | 03:19:18 | 01:50:34 | 00:00:00 | |
| HSKMA3-T | 2026-08-30 18:32:20 | 50.01838 | 8.39398 | 268° | 22km/h | 29590m | 4.6m/s | -45.7°C | 0% | 13.2hPa | 2.7V | 03:18:27 | 01:50:33 | 00:00:00 | |
| DL1XH-west | 2026-08-30 18:32:16 | 50.01844 | 8.39426 | 231° | 18km/h | 29569m | 4.7m/s | -45.8°C | 0% | 13.2hPa | 2.6V | 03:19:18 | 01:50:29 | 00:00:00 | |
| BIOWL1-15 | 2026-08-30 18:32:14 | 50.01850 | 8.39439 | 237° | 22km/h | 29559m | 5.4m/s | -45.8°C | 0% | 13.2hPa | 2.7V | 03:19:18 | 01:50:27 | 00:00:00 | |
| AA1-15 | 2026-08-30 18:32:13 | 50.01853 | 8.39447 | 243° | 24km/h | 29554m | 5.8m/s | -45.8°C | 0% | 13.2hPa | 2.6V | 03:19:18 | 01:50:26 | 00:00:00 | |
| EDDB2-11 | 2026-08-30 18:32:12 | 50.01856 | 8.39456 | 248° | 26km/h | 29549m | 4.9m/s | -45.8°C | 0.7% | 13.3hPa | 2.6V | 00:00:00 | 00:00:00 | 00:00:00 | |
| DM0DOS-11 | 2026-08-30 18:32:11 | 50.01874 | 8.39497 | 201° | 16km/h | 29520m | 4.9m/s | -45.8°C | 2.9% | 13.3hPa | 2.6V | 03:18:38 | 01:50:19 | 00:00:00 | |
| DF8AY | 2026-08-30 18:32:10 | 50.01861 | 8.39475 | 246° | 26km/h | 29540m | 4m/s | -45.8°C | 0% | 13.3hPa | 2.7V | 03:19:18 | 01:50:23 | 00:00:00 | |
| DL1XH-west | 2026-08-30 18:32:06 | 50.01874 | 8.39496 | 202° | 16km/h | 29520m | 4.9m/s | -45.8°C | 0% | 13.3hPa | 2.6V | 03:19:18 | 01:50:19 | 00:00:00 | |
| BIOWL1-15 | 2026-08-30 18:32:04 | 50.01880 | 8.39502 | 226° | 13km/h | 29510m | 4.7m/s | -45.8°C | 0% | 13.3hPa | 2.7V | 03:19:18 | 01:50:17 | 00:00:00 | |
| DK5PH-5 | 2026-08-30 18:32:04 | 50.01880 | 8.39502 | 226° | 16km/h | 29510m | 4.7m/s | -45.7°C | 2.9% | 13.3hPa | 2.7V | 03:18:00 | 01:50:17 | 00:00:00 | |
| DL1XH1-15 | 2026-08-30 18:32:03 | 50.01881 | 8.39542 | 255° | 15km/h | 29481m | 5.3m/s | -45.8°C | 2.9% | 13.4hPa | 2.7V | 03:18:46 | 01:50:11 | 00:00:00 | |
| AA1-15 | 2026-08-30 18:32:02 | 50.01882 | 8.39512 | 271° | 18km/h | 29499m | 5.7m/s | -45.8°C | 0% | 13.3hPa | 2.6V | 03:19:18 | 01:50:15 | 00:00:00 | |
| DF8AY | 2026-08-30 18:32:00 | 50.01881 | 8.39527 | 279° | 22km/h | 29490m | 3.7m/s | -45.8°C | 0% | 13.4hPa | 2.6V | 03:19:18 | 01:50:13 | 00:00:00 | |
| HSKMA3-T | 2026-08-30 18:31:59 | 50.01881 | 8.39535 | 273° | 18km/h | 29486m | 4.1m/s | -45.8°C | 0% | 13.4hPa | 2.7V | 03:19:18 | 01:50:12 | 00:00:00 | |
| DL1XH-west | 2026-08-30 18:31:55 | 50.01889 | 8.39550 | 182° | 16km/h | 29465m | 4.9m/s | -45.8°C | 0% | 13.4hPa | 2.6V | 03:19:18 | 01:50:08 | 00:00:00 | |
| BIOWL1-15 | 2026-08-30 18:31:53 | 50.01898 | 8.39550 | 184° | 15km/h | 29455m | 5.4m/s | -45.8°C | 0% | 13.4hPa | 2.6V | 03:19:18 | 01:50:06 | 00:00:00 | |
| DL1XH-15 | 2026-08-30 18:31:52 | 50.01908 | 8.39568 | 255° | 11km/h | 29425m | 4.7m/s | -45.8°C | 2.9% | 13.5hPa | 2.6V | 03:18:57 | 01:50:00 | 00:00:00 | |
| AA1-15 | 2026-08-30 18:31:52 | 50.01901 | 8.39551 | 200° | 11km/h | 29450m | 5.3m/s | -45.8°C | 0% | 13.4hPa | 2.7V | 03:19:18 | 01:50:05 | 00:00:00 | |
| DF8AY | 2026-08-30 18:31:49 | 50.01906 | 8.39560 | 247° | 11km/h | 29435m | 5.4m/s | -45.9°C | 0% | 13.5hPa | 2.6V | 03:19:18 | 01:50:02 | 00:00:00 | |
| EDDB2-12 | 2026-08-30 18:31:48 | 50.01907 | 8.39564 | 250° | 9km/h | 29430m | 5.3m/s | -45.9°C | 0.7% | 13.5hPa | 2.6V | 00:00:00 | 00:00:00 | 00:00:00 | |
| DL3AQ-11 | 2026-08-30 18:31:46 | 50.01908 | 8.39576 | 273° | 11km/h | 29416m | 5.2m/s | -45.8°C | 0.7% | 13.6hPa | 2.6V | 00:00:00 | 00:00:00 | 00:00:00 | |
| DL1XH-west | 2026-08-30 18:31:44 | 50.01908 | 8.39581 | 276° | 13km/h | 29410m | 5.6m/s | -45.9°C | 0% | 13.6hPa | 2.6V | 03:19:18 | 01:49:57 | 00:00:00 | |
| DB0ND-19 | 2026-08-30 18:31:43 | 50.01908 | 8.39592 | 245° | 15km/h | 29401m | 4.1m/s | -45.9°C | 0.6% | 13.6hPa | 2.6V | 00:00:00 | 00:00:00 | 00:00:00 | |
| DL1XH-15 | 2026-08-30 18:31:42 | 50.01934 | 8.39612 | 199° | 27km/h | 29375m | 4m/s | -46.1°C | 2.9% | 13.6hPa | 2.6V | 03:19:07 | 01:49:50 | 00:00:00 | |
| BIOWL1-15 | 2026-08-30 18:31:42 | 50.01908 | 8.39592 | 246° | 15km/h | 29401m | 4.1m/s | -45.9°C | 0% | 13.6hPa | 2.6V | 03:19:18 | 01:49:55 | 00:00:00 | |
| AA1-15 | 2026-08-30 18:31:41 | 50.01911 | 8.39597 | 224° | 18km/h | 29396m | 4.8m/s | -46°C | 0% | 13.6hPa | 2.7V | 03:19:18 | 01:49:54 | 00:00:00 | |
| DM0DOS-11 | 2026-08-30 18:31:41 | 50.01940 | 8.39616 | 207° | 22km/h | 29371m | 5.1m/s | -46.1°C | 2.9% | 13.6hPa | 2.6V | 03:19:08 | 01:49:49 | 00:00:00 | |
| HSKMA3-T | 2026-08-30 18:31:38 | 50.01927 | 8.39609 | 198° | 29km/h | 29380m | 4.6m/s | -46.1°C | 0% | 13.6hPa | 2.6V | 03:19:18 | 01:49:51 | 00:00:00 | |
| DF8AY | 2026-08-30 18:31:37 | 50.01934 | 8.39612 | 200° | 27km/h | 29375m | 4m/s | -46.1°C | 0% | 13.6hPa | 2.6V | 03:19:18 | 01:49:50 | 00:00:00 | |
| DL1XH-west | 2026-08-30 18:31:33 | 50.01945 | 8.39629 | 287° | 11km/h | 29355m | 4.4m/s | -46.1°C | 0% | 13.7hPa | 2.6V | 03:19:18 | 01:49:46 | 00:00:00 | |
| DL1XH-15 | 2026-08-30 18:31:32 | 50.01949 | 8.39657 | 224° | 22km/h | 29326m | 4.8m/s | -46°C | 2.9% | 13.7hPa | 2.6V | 03:19:17 | 01:49:40 | 00:00:00 | |
| DM0DOS-11 | 2026-08-30 18:31:31 | 50.01953 | 8.39663 | 222° | 24km/h | 29321m | 5m/s | -46°C | 2.9% | 13.8hPa | 2.6V | 03:19:18 | 01:49:39 | 00:00:00 | |
| AA1-15 | 2026-08-30 18:31:31 | 50.01943 | 8.39637 | 289° | 11km/h | 29346m | 5.4m/s | -46.1°C | 0% | 13.7hPa | 2.6V | 03:19:18 | 01:49:44 | 00:00:00 | |
| HSKMA3-T | 2026-08-30 18:31:28 | 50.01945 | 8.39651 | 231° | 18km/h | 29331m | 4.8m/s | -46.1°C | 0% | 13.7hPa | 2.7V | 03:19:18 | 01:49:41 | 00:00:00 | |
| DF8AY | 2026-08-30 18:31:27 | 50.01949 | 8.39657 | 225° | 22km/h | 29326m | 4.9m/s | -46°C | 0% | 13.7hPa | 2.6V | 03:19:18 | 01:49:40 | 00:00:00 | |
| DJ2KF-10 | 2026-08-30 18:31:26 | 50.01953 | 8.39663 | 223° | 20km/h | 29322m | 5.0m/s | -46.0°C | 2.9% | 13.7hPa | 2.6V | 00:00:00 | 01:49:39 | 00:00:00 | |
| DD1CC8 | 2026-08-30 18:31:25 | 50.01958 | 8.39670 | 222° | 26km/h | 29316m | 5.4m/s | -46.0°C | 0.7% | 13.8hPa | 2.6V | 00:00:00 | 00:00:00 | 00:00:00 | |
| DC4HF-4 | 2026-08-30 18:31:24 | 50.01963 | 8.39677 | 222° | 24km/h | 29311m | 5.4m/s | -46.0°C | 0.7% | 13.8hPa | 2.6V | 00:00:00 | 00:00:00 | 00:00:00 | |
| DL1XH1-15 | 2026-08-30 18:31:23 | 50.01993 | 8.39702 | 190° | 24km/h | 29281m | 4.5m/s | -46.1°C | 2.9% | 13.8hPa | 2.6V | 03:19:26 | 01:49:31 | 00:00:00 | |
| DL1XH-west | 2026-08-30 18:31:23 | 50.01967 | 8.39683 | 222° | 24km/h | 29306m | 5.2m/s | -46°C | 0% | 13.8hPa | 2.7V | 03:20:09 | 01:49:36 | 00:00:00 | |
| DM0DOS-11 | 2026-08-30 18:31:21 | 50.02003 | 8.39706 | 205° | 18km/h | 29272m | 4.3m/s | -46.3°C | 2.9% | 13.8hPa | 2.7V | 03:19:28 | 01:49:29 | 00:00:00 | |
| AA1-15 | 2026-08-30 18:31:20 | 50.01981 | 8.39698 | 200° | 22km/h | 29291m | 5m/s | -46°C | 0% | 13.8hPa | 2.6V | 03:20:09 | 01:49:33 | 00:00:00 | |
| HSKMA3-T | 2026-08-30 18:31:17 | 50.01998 | 8.39704 | 195° | 20km/h | 29277m | 3.9m/s | -46.2°C | 0% | 13.8hPa | 2.7V | 03:20:09 | 01:49:30 | 00:00:00 | |
| DF8AY | 2026-08-30 18:31:16 | 50.02003 | 8.39706 | 205° | 18km/h | 29272m | 4.3m/s | -46.3°C | 0% | 13.8hPa | 2.7V | 03:20:09 | 01:49:29 | 00:00:00 | |
| NBG1-10 | 2026-08-30 18:31:16 | 50.02003 | 8.39706 | 206° | 20km/h | 29273m | 4.2m/s | -46.3°C | 2.9% | 13.8hPa | 2.7V | 00:00:00 | 01:49:29 | 00:00:00 | |
| DJTTGO | 2026-08-30 18:31:14 | 50.02006 | 8.39710 | 225° | 15km/h | 29268m | 6.0m/s | -46.3°C | 0.7% | 13.8hPa | 2.7V | 03:20:00 | 00:00:00 | 00:00:00 | |
| DL1XH1-15 | 2026-08-30 18:31:13 | 50.02028 | 8.39751 | 196° | 27km/h | 29232m | 4.4m/s | -46.5°C | 2.9% | 13.9hPa | 2.7V | 03:19:36 | 01:49:21 | 00:00:00 | |
| DL1XH-west | 2026-08-30 18:31:13 | 50.02010 | 8.39721 | 257° | 18km/h | 29256m | 4.8m/s | -46.4°C | 0% | 13.9hPa | 2.7V | 03:20:09 | 01:49:26 | 00:00:00 | |
| DL1XH-15 | 2026-08-30 18:31:12 | 50.02034 | 8.39753 | 189° | 27km/h | 29228m | 4.4m/s | -46.5°C | 2.9% | 13.9hPa | 2.7V | 03:19:37 | 01:49:20 | 00:00:00 | |
| DB0ND-19 | 2026-08-30 18:31:12 | 50.02013 | 8.39735 | 238° | 20km/h | 29247m | 4.8m/s | -46.4°C | 0.7% | 13.9hPa | 2.6V | 00:00:00 | 00:00:00 | 00:00:00 | |
| DJ2DS-15 | 2026-08-30 18:31:11 | 50.02013 | 8.39735 | 239° | 20km/h | 29247m | 4.7m/s | -46.3°C | 2.9% | 13.8hPa | 2.6V | 00:00:00 | 01:49:24 | 00:00:00 | |
| DM0DOS-11 | 2026-08-30 18:31:10 | 50.02047 | 8.39755 | 183° | 20km/h | 29218m | 5.5m/s | -46.6°C | 2.9% | 14hPa | 2.6V | 03:19:39 | 01:49:18 | 00:00:00 | |
| BIOWL1-15 | 2026-08-30 18:31:10 | 50.02017 | 8.39742 | 222° | 24km/h | 29242m | 5.5m/s | -46.4°C | 0% | 13.9hPa | 2.6V | 03:20:09 | 01:49:23 | 00:00:00 | |
| AA1-15 | 2026-08-30 18:31:09 | 50.02022 | 8.39747 | 207° | 26km/h | 29237m | 4.9m/s | -46.5°C | 0% | 13.9hPa | 2.6V | 03:20:09 | 01:49:22 | 00:00:00 | |
| HSKMA3-T | 2026-08-30 18:31:07 | 50.02034 | 8.39753 | 190° | 27km/h | 29228m | 4.4m/s | -46.6°C | 0% | 13.9hPa | 2.7V | 03:20:09 | 01:49:20 | 00:00:00 | |
| DF8AY | 2026-08-30 18:31:06 | 50.02041 | 8.39754 | 186° | 26km/h | 29223m | 5.3m/s | -46.6°C | 0% | 13.9hPa | 2.7V | 03:20:09 | 01:49:19 | 00:00:00 | |
| DB0UT-7 | 2026-08-30 18:31:06 | 50.02041 | 8.39754 | 186° | 18km/h | 29223m | 5.2m/s | -46.5°C | 2.9% | 13.9hPa | 2.7V | 03:19:00 | 01:49:19 | 00:00:00 | |
| DG1MJG | 2026-08-30 18:31:05 | 50.02041 | 8.39754 | 187° | 26km/h | 29223m | 5.3m/s | -46.6°C | 0% | 0hPa | 2.6V | 00:00:00 | 00:00:00 | 00:00:00 | |
| DD1CC2-15 | 2026-08-30 18:31:04 | 50.02047 | 8.39755 | 184° | 20km/h | 29218m | 5.5m/s | -46.6°C | 0.7% | 14.0hPa | 2.6V | 03:20:00 | 00:00:00 | 00:00:00 | |
| DL1XH1-15 | 2026-08-30 18:31:03 | 50.02075 | 8.39765 | 209° | 24km/h | 29183m | 4.7m/s | -47.1°C | 3.1% | 14hPa | 2.6V | 03:19:46 | 01:49:11 | 00:00:00 | |
| DL1XH-15 | 2026-08-30 18:31:02 | 50.02080 | 8.39770 | 216° | 24km/h | 29179m | 4.5m/s | -47.3°C | 3.1% | 14hPa | 2.6V | 03:19:47 | 01:49:10 | 00:00:00 | |
| DL1XH-west | 2026-08-30 18:31:02 | 50.02058 | 8.39757 | 187° | 13km/h | 29203m | 4.6m/s | -46.7°C | 0% | 14hPa | 2.6V | 03:20:09 | 01:49:15 | 00:00:00 | |
| BIOWL1-15 | 2026-08-30 18:30:59 | 50.02070 | 8.39761 | 203° | 20km/h | 29188m | 5.2m/s | -47°C | 0% | 14hPa | 2.7V | 03:20:09 | 01:49:12 | 00:00:00 | |
| AA1-15 | 2026-08-30 18:30:58 | 50.02075 | 8.39765 | 209° | 24km/h | 29183m | 4.7m/s | -47.2°C | 0% | 14hPa | 2.6V | 03:20:09 | 01:49:11 | 00:00:00 | |
| HSKMA3-T | 2026-08-30 18:30:56 | 50.02084 | 8.39776 | 224° | 24km/h | 29174m | 5.4m/s | -47.4°C | 0% | 14hPa | 2.6V | 03:20:09 | 01:49:09 | 00:00:00 | |
| DF8AY | 2026-08-30 18:30:55 | 50.02088 | 8.39783 | 233° | 22km/h | 29168m | 5.9m/s | -47.5°C | 0% | 14.1hPa | 2.7V | 03:20:09 | 01:49:08 | 00:00:00 | |
| DD1CC8 | 2026-08-30 18:30:54 | 50.02091 | 8.39790 | 237° | 20km/h | 29163m | 5.0m/s | -47.4°C | 0.7% | 14.1hPa | 2.6V | 00:00:00 | 00:00:00 | 00:00:00 | |
| DL0LBS | 2026-08-30 18:30:53 | 50.02091 | 8.39789 | 238° | 20km/h | 29163m | 5.0m/s | -47.4°C | 0.8% | 14.1hPa | 2.6V | 03:20:00 | 00:00:00 | 00:00:00 | |
| DL1XH-15 | 2026-08-30 18:30:52 | 50.02124 | 8.39823 | 188° | 20km/h | 29128m | 6.1m/s | -47.6°C | 3.1% | 14.2hPa | 2.6V | 03:19:57 | 01:49:00 | 00:00:00 | |
| DL1XH-west | 2026-08-30 18:30:51 | 50.02102 | 8.39809 | 218° | 24km/h | 29148m | 5.8m/s | -47.4°C | 0% | 14.1hPa | 2.6V | 03:20:09 | 01:49:04 | 00:00:00 | |
| BIOWL1-15 | 2026-08-30 18:30:48 | 50.02119 | 8.39821 | 194° | 24km/h | 29133m | 4.8m/s | -47.6°C | 0% | 14.1hPa | 2.7V | 03:20:09 | 01:49:01 | 00:00:00 | |
| AA1-15 | 2026-08-30 18:30:47 | 50.02125 | 8.39823 | 189° | 20km/h | 29128m | 6.1m/s | -47.6°C | 0% | 14.2hPa | 2.6V | 03:20:09 | 01:49:00 | 00:00:00 | |
| HSKMA3-T | 2026-08-30 18:30:45 | 50.02133 | 8.39825 | 188° | 15km/h | 29117m | 4.6m/s | -47.7°C | 0% | 14.2hPa | 2.6V | 03:20:09 | 01:48:58 | 00:00:00 | |
| DF8AY | 2026-08-30 18:30:44 | 50.02137 | 8.39826 | 200° | 15km/h | 29112m | 4.2m/s | -47.8°C | 0% | 14.2hPa | 2.7V | 03:20:09 | 01:48:57 | 00:00:00 | |
| DL1XH1-15 | 2026-08-30 18:30:43 | 50.02159 | 8.39856 | 230° | 16km/h | 29081m | 5.8m/s | -48°C | 3.2% | 14.2hPa | 2.7V | 03:20:06 | 01:48:51 | 00:00:00 | |
| NBG1-10 | 2026-08-30 18:30:43 | 50.02140 | 8.39829 | 211° | 18km/h | 29108m | 5.4m/s | -47.8°C | 3.1% | 14.1hPa | 2.7V | 00:00:00 | 01:48:56 | 00:00:00 | |
| DF1GD-15 | 2026-08-30 18:30:42 | 50.02140 | 8.39829 | 211° | 16km/h | 29108m | 5.4m/s | -47.8°C | 0.7% | 14.2hPa | 2.6V | 03:20:00 | 00:00:00 | 00:00:00 | |
| DB0ND-19 | 2026-08-30 18:30:41 | 50.02152 | 8.39844 | 227° | 22km/h | 29092m | 4.6m/s | -47.9°C | 0.7% | 14.2hPa | 2.6V | 00:00:00 | 00:00:00 | 00:00:00 | |
| DM0DOS-11 | 2026-08-30 18:30:40 | 50.02166 | 8.39866 | 208° | 13km/h | 29066m | 4.5m/s | -48°C | 3.3% | 14.3hPa | 2.6V | 03:20:09 | 01:48:48 | 00:00:00 | |
| DL1XH-west | 2026-08-30 18:30:40 | 50.02152 | 8.39844 | 227° | 22km/h | 29092m | 4.6m/s | -47.9°C | 0% | 14.2hPa | 2.6V | 03:20:09 | 01:48:53 | 00:00:00 | |
| BIOWL1-15 | 2026-08-30 18:30:39 | 50.02161 | 8.39860 | 230° | 13km/h | 29076m | 5.1m/s | -48°C | 0.1% | 14.3hPa | 2.7V | 03:20:09 | 01:48:50 | 00:00:00 | |
| AA1-15 | 2026-08-30 18:30:36 | 50.02163 | 8.39864 | 221° | 11km/h | 29071m | 4.5m/s | -48°C | 0.1% | 14.3hPa | 2.6V | 03:20:09 | 01:48:49 | 00:00:00 | |
| HSKMA3-T | 2026-08-30 18:30:35 | 50.02166 | 8.39866 | 209° | 13km/h | 29066m | 4.5m/s | -48.1°C | 0.1% | 14.3hPa | 2.6V | 03:20:09 | 01:48:48 | 00:00:00 | |
| DB0UT-7 | 2026-08-30 18:30:34 | 50.02169 | 8.39868 | 206° | 20km/h | 29062m | 5.5m/s | -48.0°C | 3.2% | 14.2hPa | 2.7V | 00:00:00 | 00:00:00 | 00:00:00 | |
| DL1XH1-15 | 2026-08-30 18:30:33 | 50.02192 | 8.39883 | 204° | 11km/h | 29030m | 4.9m/s | -48.3°C | 3.3% | 14.4hPa | 2.7V | 03:20:16 | 01:48:41 | 00:00:00 | |
| DF8AY | 2026-08-30 18:30:33 | 50.02172 | 8.39871 | 201° | 18km/h | 29056m | 5.8m/s | -48.1°C | 0.1% | 14.3hPa | 2.7V | 03:21:51 | 01:48:46 | 00:00:00 | |
| SONCRA | 2026-08-30 18:30:32 | 50.02181 | 8.39876 | 200° | 18km/h | 29046m | 4.4m/s | -48.2°C | 0.8% | 14.3hPa | 2.6V | 00:00:00 | 00:00:00 | 00:00:00 | |
| DO3MHA-11 | 2026-08-30 18:30:31 | 50.02181 | 8.39876 | 201° | 15km/h | 29046m | 4.3m/s | -48.2°C | 3.3% | 14.3hPa | 2.6V | 00:00:00 | 01:48:44 | 00:00:00 | |
| DM0DOS-11 | 2026-08-30 18:30:30 | 50.02200 | 8.39889 | 212° | 15km/h | 29016m | 5.5m/s | -48.3°C | 3.3% | 14.4hPa | 2.6V | 03:20:19 | 01:48:38 | 00:00:00 | |
| DL1XH-west | 2026-08-30 18:30:30 | 50.02186 | 8.39879 | 200° | 16km/h | 29041m | 5.2m/s | -48.3°C | 0.1% | 14.3hPa | 2.6V | 03:21:00 | 01:48:43 | 00:00:00 | |
| BIOWL1-15 | 2026-08-30 18:30:29 | 50.02194 | 8.39884 | 210° | 9km/h | 29025m | 4.4m/s | -48.3°C | 0.1% | 14.4hPa | 2.7V | 03:21:00 | 01:48:40 | 00:00:00 | |
| HSKMA3-T | 2026-08-30 18:30:25 | 50.02199 | 8.39889 | 213° | 15km/h | 29016m | 5.5m/s | -48.3°C | 0.1% | 14.4hPa | 2.6V | 03:21:00 | 01:48:38 | 00:00:00 | |
| DD1CC8 | 2026-08-30 18:30:23 | 50.02207 | 8.39896 | 206° | 20km/h | 29006m | 4.6m/s | -48.3°C | 0.7% | 14.4hPa | 2.7V | 00:00:00 | 00:00:00 | 00:00:00 | |
| DL1XH-15 | 2026-08-30 18:30:22 | 50.02236 | 8.39893 | 156° | 26km/h | 28974m | 5.6m/s | -48.3°C | 3.3% | 14.5hPa | 2.7V | 03:20:27 | 01:48:30 | 00:00:00 | |
| DF8AY | 2026-08-30 18:30:22 | 50.02212 | 8.39899 | 199° | 20km/h | 29001m | 4.4m/s | -48.3°C | 0.1% | 14.4hPa | 2.7V | 03:21:51 | 01:48:35 | 00:00:00 | |
| DO3MHA-11 | 2026-08-30 18:30:21 | 50.02217 | 8.39901 | 190° | 20km/h | 28997m | 5.4m/s | -48.3°C | 3.2% | 14.4hPa | 2.7V | 00:00:00 | 01:48:34 | 00:00:00 | |
| DM0DOS-11 | 2026-08-30 18:30:20 | 50.02249 | 8.39886 | 163° | 29km/h | 28963m | 5.1m/s | -48.2°C | 3.3% | 14.5hPa | 2.7V | 03:20:29 | 01:48:28 | 00:00:00 | |
| BIOWL1-15 | 2026-08-30 18:30:19 | 50.02236 | 8.39893 | 156° | 26km/h | 28974m | 5.6m/s | -48.3°C | 0.1% | 14.5hPa | 2.7V | 03:21:00 | 01:48:30 | 00:00:00 | |
| DL1XH-west | 2026-08-30 18:30:19 | 50.02226 | 8.39900 | 160° | 18km/h | 28985m | 5.4m/s | -48.3°C | 0% | 14.4hPa | 2.6V | 03:21:00 | 01:48:32 | 00:00:00 | |
| HSKMA3-T | 2026-08-30 18:30:15 | 50.02256 | 8.39883 | 166° | 29km/h | 28958m | 4.5m/s | -48.3°C | 0.1% | 14.5hPa | 2.6V | 03:21:00 | 01:48:27 | 00:00:00 | |
| DF8AY | 2026-08-30 18:30:12 | 50.02269 | 8.39878 | 162° | 22km/h | 28948m | 5.9m/s | -48.3°C | 0.2% | 14.6hPa | 2.6V | 03:21:51 | 01:48:25 | 00:00:00 | |
| DJ2DS-15 | 2026-08-30 18:30:11 | 50.02273 | 8.39875 | 158° | 20km/h | 28943m | 5.9m/s | -48.3°C | 3.3% | 14.5hPa | 2.6V | 00:00:00 | 01:48:24 | 00:00:00 | |
| DM0DOS-11 | 2026-08-30 18:30:10 | 50.02302 | 8.39867 | 175° | 26km/h | 28910m | 4.5m/s | -48.2°C | 3.3% | 14.6hPa | 2.6V | 03:20:39 | 01:48:18 | 00:00:00 | |
| DL1XH-west | 2026-08-30 18:30:09 | 50.02281 | 8.39870 | 163° | 15km/h | 28932m | 4.8m/s | -48.3°C | 0.1% | 14.6hPa | 2.7V | 03:21:00 | 01:48:22 | 00:00:00 | |
| BIOWL1-15 | 2026-08-30 18:30:06 | 50.02296 | 8.39868 | 179° | 24km/h | 28915m | 5.2m/s | -48.3°C | 0.1% | 14.6hPa | 2.6V | 03:21:00 | 01:48:19 | 00:00:00 | |
| HSKMA3-T | 2026-08-30 18:30:03 | 50.02314 | 8.39863 | 158° | 26km/h | 28900m | 6.1m/s | -48.2°C | 0.1% | 14.7hPa | 2.7V | 03:21:00 | 01:48:16 | 00:00:00 | |
| DL1XH-15 | 2026-08-30 18:30:02 | 50.02346 | 8.39832 | 152° | 20km/h | 28868m | 4.5m/s | -48°C | 3.2% | 14.7hPa | 2.7V | 03:20:47 | 01:48:10 | 00:00:00 | |
| DF8AY | 2026-08-30 18:30:01 | 50.02325 | 8.39853 | 143° | 26km/h | 28889m | 5m/s | -48.1°C | 0% | 14.7hPa | 2.6V | 03:21:51 | 01:48:14 | 00:00:00 | |
| SONCRA | 2026-08-30 18:30:01 | 50.02331 | 8.39847 | 142° | 26km/h | 28884m | 4.9m/s | -48.0°C | 0.8% | 14.7hPa | 2.6V | 00:00:00 | 00:00:00 | 00:00:00 | |
| DM0DOS-11 | 2026-08-30 18:30:00 | 50.02353 | 8.39825 | 139° | 15km/h | 28858m | 6.1m/s | -47.9°C | 3.2% | 14.7hPa | 2.6V | 03:20:49 | 01:48:08 | 00:00:00 | |
| DL1XH-west | 2026-08-30 18:29:58 | 50.02341 | 8.39836 | 150° | 24km/h | 28872m | 5.2m/s | -48°C | 0.1% | 14.7hPa | 2.7V | 03:21:00 | 01:48:11 | 00:00:00 | |
| BIOWL1-15 | 2026-08-30 18:29:55 | 50.02353 | 8.39825 | 140° | 15km/h | 28858m | 6.1m/s | -47.9°C | 0.1% | 14.7hPa | 2.6V | 03:21:00 | 01:48:08 | 00:00:00 | |
| DO8TBO-1 | 2026-08-30 18:29:55 | 50.02353 | 8.39825 | 140° | 18km/h | 28858m | 6.1m/s | -47.9°C | 3.2% | 14.7hPa | 2.6V | 00:00:00 | 01:48:08 | 00:00:00 | |
| DO3DL | 2026-08-30 18:29:54 | 50.02353 | 8.39825 | 141° | 15km/h | 28858m | 6.1m/s | -47.9°C | 0.7% | 14.7hPa | 2.7V | 03:21:00 | 00:00:00 | 00:00:00 | |
| DL1XH1-15 | 2026-08-30 18:29:53 | 50.02376 | 8.39799 | 157° | 27km/h | 28820m | 4.5m/s | -48°C | 3.2% | 14.8hPa | 2.7V | 03:20:56 | 01:48:01 | 00:00:00 | |
| HSKMA3-T | 2026-08-30 18:29:53 | 50.02357 | 8.39817 | 121° | 11km/h | 28846m | 4.9m/s | -48°C | 0.2% | 14.8hPa | 2.7V | 03:21:00 | 01:48:06 | 00:00:00 | |
| AA1-15 | 2026-08-30 18:29:52 | 50.02359 | 8.39814 | 130° | 13km/h | 28841m | 4.6m/s | -48°C | 0.1% | 14.8hPa | 2.7V | 03:21:00 | 01:48:05 | 00:00:00 | |
| DF8AY | 2026-08-30 18:29:49 | 50.02370 | 8.39803 | 159° | 24km/h | 28825m | 5.2m/s | -48°C | 0.1% | 14.8hPa | 2.6V | 03:21:51 | 01:48:02 | 00:00:00 | |
| DL1XH-west | 2026-08-30 18:29:47 | 50.02383 | 8.39795 | 151° | 27km/h | 28815m | 4.5m/s | -48°C | 0% | 14.9hPa | 2.7V | 03:21:00 | 01:48:00 | 00:00:00 | |
| BIOWL1-15 | 2026-08-30 18:29:45 | 50.02393 | 8.39781 | 128° | 27km/h | 28804m | 6.1m/s | -48°C | 0.1% | 14.9hPa | 2.6V | 03:21:00 | 01:47:58 | 00:00:00 | |
| EDDB2-12 | 2026-08-30 18:29:44 | 50.02397 | 8.39771 | 115° | 27km/h | 28799m | 5.7m/s | -48.0°C | 0.7% | 14.9hPa | 2.6V | 00:00:00 | 00:00:00 | 00:00:00 | |
| DL1XH1-15 | 2026-08-30 18:29:43 | 50.02414 | 8.39724 | 135° | 18km/h | 28767m | 5m/s | -48.1°C | 3.2% | 14.9hPa | 2.6V | 03:21:06 | 01:47:51 | 00:00:00 | |
| HSKMA3-T | 2026-08-30 18:29:43 | 50.02400 | 8.39761 | 110° | 27km/h | 28793m | 4.9m/s | -48°C | 0.1% | 14.9hPa | 2.6V | 03:21:51 | 01:47:56 | 00:00:00 | |
| DL1XH-15 | 2026-08-30 18:29:42 | 50.02417 | 8.39719 | 131° | 16km/h | 28762m | 5.7m/s | -48.1°C | 3.2% | 15hPa | 2.7V | 03:21:07 | 01:47:50 | 00:00:00 | |
| AA1-15 | 2026-08-30 18:29:41 | 50.02404 | 8.39742 | 115° | 24km/h | 28783m | 5.7m/s | -48.1°C | 0% | 14.9hPa | 2.7V | 03:21:51 | 01:47:54 | 00:00:00 | |
| DF8AY | 2026-08-30 18:29:39 | 50.02410 | 8.39729 | 134° | 20km/h | 28772m | 5.1m/s | -48.1°C | 0% | 14.9hPa | 2.6V | 03:21:51 | 01:47:52 | 00:00:00 | |
| DL1XH-west | 2026-08-30 18:29:36 | 50.02419 | 8.39713 | 122° | 18km/h | 28756m | 6m/s | -48.1°C | 0.1% | 15hPa | 2.7V | 03:21:51 | 01:47:49 | 00:00:00 | |
| BIOWL1-15 | 2026-08-30 18:29:34 | 50.02424 | 8.39700 | 117° | 22km/h | 28746m | 4.6m/s | -48.1°C | 0.1% | 15hPa | 2.6V | 03:21:51 | 01:47:47 | 00:00:00 | |
| DB0UT-7 | 2026-08-30 18:29:34 | 50.02424 | 8.39700 | 118° | 18km/h | 28746m | 4.6m/s | -48.1°C | 3.3% | 15.0hPa | 2.6V | 00:00:00 | 00:00:00 | 00:00:00 | |
| DL1XH-15 | 2026-08-30 18:29:32 | 50.02448 | 8.39643 | 103° | 22km/h | 28708m | 5.8m/s | -48.2°C | 3.3% | 15.1hPa | 2.6V | 03:21:17 | 01:47:40 | 00:00:00 | |
| HSKMA3-T | 2026-08-30 18:29:32 | 50.02430 | 8.39684 | 128° | 26km/h | 28735m | 6.1m/s | -48.1°C | 0.1% | 15.1hPa | 2.6V | 03:21:51 | 01:47:45 | 00:00:00 | |
| AA1-15 | 2026-08-30 18:29:30 | 50.02439 | 8.39668 | 129° | 27km/h | 28724m | 4.7m/s | -48.1°C | 0.1% | 15.1hPa | 2.7V | 03:21:51 | 01:47:43 | 00:00:00 | |
| DF8AY | 2026-08-30 18:29:28 | 50.02446 | 8.39651 | 115° | 24km/h | 28714m | 5.9m/s | -48.2°C | 0.2% | 15.1hPa | 2.7V | 03:21:51 | 01:47:41 | 00:00:00 | |
| DL1XH-west | 2026-08-30 18:29:26 | 50.02448 | 8.39635 | 92° | 18km/h | 28703m | 4.7m/s | -48.2°C | 0.2% | 15.1hPa | 2.6V | 03:21:51 | 01:47:39 | 00:00:00 | |
| BIOWL1-15 | 2026-08-30 18:29:24 | 50.02448 | 8.39624 | 93° | 9km/h | 28694m | 5.3m/s | -48.2°C | 0.1% | 15.1hPa | 2.7V | 03:21:51 | 01:47:37 | 00:00:00 | |
| DL1XH1-15 | 2026-08-30 18:29:23 | 50.02462 | 8.39606 | 122° | 20km/h | 28661m | 6.3m/s | -48°C | 3.2% | 15.2hPa | 2.7V | 03:21:26 | 01:47:31 | 00:00:00 | |
| HSKMA3-T | 2026-08-30 18:29:21 | 50.02453 | 8.39617 | 160° | 13km/h | 28677m | 4.7m/s | -48.1°C | 0.1% | 15.2hPa | 2.6V | 03:21:51 | 01:47:34 | 00:00:00 | |
| DD1CC8 | 2026-08-30 18:29:21 | 50.02456 | 8.39615 | 150° | 15km/h | 28673m | 4.4m/s | -48.1°C | 0.8% | 15.2hPa | 2.6V | 00:00:00 | 00:00:00 | 00:00:00 | |
| DM0DOS-11 | 2026-08-30 18:29:20 | 50.02468 | 8.39582 | 104° | 20km/h | 28646m | 4.8m/s | -47.9°C | 3.2% | 15.2hPa | 2.6V | 03:21:29 | 01:47:28 | 00:00:00 | |
| AA1-15 | 2026-08-30 18:29:20 | 50.02456 | 8.39615 | 151° | 15km/h | 28673m | 4.4m/s | -48.1°C | 0.1% | 15.2hPa | 2.6V | 03:21:51 | 01:47:33 | 00:00:00 | |
| DF8AY | 2026-08-30 18:29:18 | 50.02462 | 8.39606 | 123° | 20km/h | 28661m | 6.3m/s | -48°C | 0.1% | 15.2hPa | 2.7V | 03:21:51 | 01:47:31 | 00:00:00 | |
| DL1XH-west | 2026-08-30 18:29:16 | 50.02466 | 8.39590 | 107° | 24km/h | 28651m | 4.5m/s | -47.9°C | 0% | 15.3hPa | 2.6V | 03:21:51 | 01:47:29 | 00:00:00 | |
| DO3DL | 2026-08-30 18:29:15 | 50.02466 | 8.39590 | 108° | 24km/h | 28651m | 4.5m/s | -47.9°C | 0.7% | 15.3hPa | 2.7V | 03:21:00 | 00:00:00 | 00:00:00 | |
| DL1XH1-15 | 2026-08-30 18:29:13 | 50.02466 | 8.39553 | 60° | 15km/h | 28608m | 5.6m/s | -47.7°C | 3.2% | 15.3hPa | 2.7V | 03:21:36 | 01:47:21 | 00:00:00 | |
| BIOWL1-15 | 2026-08-30 18:29:13 | 50.02470 | 8.39569 | 103° | 13km/h | 28634m | 5.8m/s | -47.8°C | 0% | 15.3hPa | 2.7V | 03:21:51 | 01:47:26 | 00:00:00 | |
| DL1XH-15 | 2026-08-30 18:29:12 | 50.02464 | 8.39547 | 74° | 16km/h | 28603m | 4.7m/s | -47.7°C | 3.2% | 15.3hPa | 2.7V | 03:21:37 | 01:47:20 | 00:00:00 | |
| DJ2DS-15 | 2026-08-30 18:29:11 | 50.02470 | 8.39562 | 67° | 15km/h | 28624m | 4.8m/s | -47.7°C | 3.2% | 15.3hPa | 2.6V | 00:00:00 | 01:47:24 | 00:00:00 | |
| DM0DOS-11 | 2026-08-30 18:29:10 | 50.02465 | 8.39534 | 113° | 18km/h | 28594m | 4.8m/s | -47.7°C | 3.2% | 15.4hPa | 2.6V | 03:21:39 | 01:47:18 | 00:00:00 | |
| HSKMA3-T | 2026-08-30 18:29:10 | 50.02469 | 8.39560 | 53° | 7km/h | 28619m | 5m/s | -47.7°C | 0.1% | 15.3hPa | 2.6V | 03:21:51 | 01:47:23 | 00:00:00 | |
| AA1-15 | 2026-08-30 18:29:09 | 50.02468 | 8.39557 | 52° | 11km/h | 28614m | 5.8m/s | -47.7°C | 0.1% | 15.3hPa | 2.6V | 03:21:51 | 01:47:22 | 00:00:00 | |
| DF8AY | 2026-08-30 18:29:07 | 50.02464 | 8.39547 | 74° | 16km/h | 28603m | 4.7m/s | -47.7°C | 0.1% | 15.3hPa | 2.7V | 03:21:51 | 01:47:20 | 00:00:00 | |
| DL1XH-west | 2026-08-30 18:29:05 | 50.02465 | 8.39534 | 113° | 18km/h | 28594m | 4.8m/s | -47.7°C | 0% | 15.4hPa | 2.6V | 03:21:51 | 01:47:18 | 00:00:00 | |
| BIOWL1-15 | 2026-08-30 18:29:04 | 50.02477 | 8.39521 | 171° | 20km/h | 28577m | 5.2m/s | -47.8°C | 0% | 15.4hPa | 2.7V | 03:21:51 | 01:47:15 | 00:00:00 | |
| DB0UT-7 | 2026-08-30 18:29:04 | 50.02468 | 8.39528 | 135° | 13km/h | 28589m | 6.0m/s | -47.7°C | 3.2% | 15.3hPa | 2.6V | 03:21:00 | 01:47:17 | 00:00:00 | |
| DL1XH1-15 | 2026-08-30 18:29:03 | 50.02486 | 8.39519 | 46° | 7km/h | 28557m | 5.7m/s | -47.7°C | 3.2% | 15.4hPa | 2.6V | 03:21:46 | 01:47:11 | 00:00:00 | |
| DL1XH-15 | 2026-08-30 18:29:02 | 50.02484 | 8.39516 | 44° | 16km/h | 28552m | 5.7m/s | -47.7°C | 3.2% | 15.5hPa | 2.7V | 03:21:47 | 01:47:10 | 00:00:00 | |
| DM0DOS-11 | 2026-08-30 18:29:00 | 50.02478 | 8.39503 | 56° | 24km/h | 28541m | 4.8m/s | -47.8°C | 3.2% | 15.5hPa | 2.7V | 03:21:49 | 01:47:08 | 00:00:00 | |
| HSKMA3-T | 2026-08-30 18:28:59 | 50.02487 | 8.39521 | 155° | 4km/h | 28563m | 5.2m/s | -47.8°C | 0.1% | 15.4hPa | 2.6V | 03:21:51 | 01:47:12 | 00:00:00 | |
| AA1-15 | 2026-08-30 18:28:58 | 50.02486 | 8.39519 | 47° | 7km/h | 28557m | 5.7m/s | -47.7°C | 0.1% | 15.5hPa | 2.6V | 03:21:51 | 01:47:11 | 00:00:00 | |
| DF8AY | 2026-08-30 18:28:57 | 50.02484 | 8.39516 | 45° | 16km/h | 28552m | 5.7m/s | -47.8°C | 0% | 15.5hPa | 2.7V | 03:21:51 | 01:47:10 | 00:00:00 | |
| DL1XH-west | 2026-08-30 18:28:54 | 50.02475 | 8.39496 | 67° | 20km/h | 28536m | 5.2m/s | -47.8°C | 0.1% | 15.5hPa | 2.6V | 03:21:51 | 01:47:07 | 00:00:00 | |
| BIOWL1-15 | 2026-08-30 18:28:53 | 50.02476 | 8.39484 | 174° | 9km/h | 28520m | 5.5m/s | -47.9°C | 0% | 15.5hPa | 2.6V | 03:22:42 | 01:47:04 | 00:00:00 | |
| DO8TBO-1 | 2026-08-30 18:28:53 | 50.02474 | 8.39490 | 86° | 11km/h | 28531m | 5.2m/s | -47.8°C | 3.2% | 15.5hPa | 2.6V | 00:00:00 | 01:47:06 | 00:00:00 | |
| DL1XH-15 | 2026-08-30 18:28:52 | 50.02484 | 8.39494 | 246° | 7km/h | 28498m | 5.1m/s | -47.8°C | 3.2% | 15.6hPa | 2.6V | 03:21:57 | 01:47:00 | 00:00:00 | |
| DJ2DS-15 | 2026-08-30 18:28:51 | 50.02476 | 8.39484 | 175° | 9km/h | 28521m | 5.5m/s | -47.8°C | 3.2% | 15.5hPa | 2.6V | 00:00:00 | 01:47:04 | 00:00:00 | |
| DM0DOS-11 | 2026-08-30 18:28:50 | 50.02485 | 8.39496 | 104° | 4km/h | 28488m | 4.9m/s | -47.8°C | 3.1% | 15.6hPa | 2.6V | 03:21:59 | 01:46:58 | 00:00:00 | |
| HSKMA3-T | 2026-08-30 18:28:48 | 50.02483 | 8.39491 | 234° | 11km/h | 28504m | 5.5m/s | -47.9°C | 0% | 15.6hPa | 2.7V | 03:22:42 | 01:47:01 | 00:00:00 | |
| AA1-15 | 2026-08-30 18:28:47 | 50.02484 | 8.39494 | 246° | 7km/h | 28498m | 5.1m/s | -47.8°C | 0.1% | 15.6hPa | 2.6V | 03:22:42 | 01:47:00 | 00:00:00 | |
| DL8DAS-14 | 2026-08-30 18:28:45 | 50.02485 | 8.39496 | 104° | 2km/h | 28488m | 4.9m/s | -47.8°C | 0.7% | 15.6hPa | 2.7V | 00:00:00 | 00:00:00 | 00:00:00 | |
| DL1XH-west | 2026-08-30 18:28:44 | 50.02485 | 8.39494 | 106° | 9km/h | 28483m | 5.8m/s | -47.8°C | 0% | 15.6hPa | 2.7V | 03:22:42 | 01:46:57 | 00:00:00 | |
| DL1XH1-15 | 2026-08-30 18:28:43 | 50.02494 | 8.39467 | 163° | 4km/h | 28450m | 6.3m/s | -47.9°C | 3.2% | 15.7hPa | 2.7V | 03:22:06 | 01:46:51 | 00:00:00 | |
| BIOWL1-15 | 2026-08-30 18:28:41 | 50.02490 | 8.39478 | 120° | 18km/h | 28466m | 4.8m/s | -47.8°C | 0% | 15.7hPa | 2.6V | 03:22:42 | 01:46:54 | 00:00:00 | |
| D01LWL | 2026-08-30 18:28:41 | 50.02492 | 8.39472 | 121° | 13km/h | 28461m | 4.4m/s | -47.9°C | 0.7% | 15.7hPa | 2.6V | 00:00:00 | 00:00:00 | 00:00:00 | |
| DM0DOS-11 | 2026-08-30 18:28:40 | 50.02497 | 8.39472 | 218° | 9km/h | 28434m | 5.7m/s | -47.9°C | 3.2% | 15.7hPa | 2.6V | 03:22:09 | 01:46:48 | 00:00:00 | |
| HSKMA3-T | 2026-08-30 18:28:38 | 50.02495 | 8.39467 | 163° | 4km/h | 28450m | 6.3m/s | -47.9°C | 0% | 15.7hPa | 2.7V | 03:22:42 | 01:46:51 | 00:00:00 | |
| DF8AY | 2026-08-30 18:28:36 | 50.02496 | 8.39470 | 236° | 7km/h | 28439m | 4.9m/s | -47.9°C | 0% | 15.7hPa | 2.6V | 03:22:42 | 01:46:49 | 00:00:00 | |
| EDDB2-11 | 2026-08-30 18:28:35 | 50.02500 | 8.39474 | 199° | 9km/h | 28428m | 6.0m/s | -48.0°C | 0.8% | 15.8hPa | 2.7V | 00:00:00 | 00:00:00 | 00:00:00 | |
| DB0UT-7 | 2026-08-30 18:28:34 | 50.02499 | 8.39473 | 200° | 13km/h | 28428m | 5.9m/s | -47.9°C | 3.2% | 15.7hPa | 2.7V | 00:00:00 | 00:00:00 | 00:00:00 | |
| DL1XH1-15 | 2026-08-30 18:28:33 | 50.02515 | 8.39468 | 147° | 11km/h | 28395m | 4.4m/s | -48.3°C | 3.3% | 15.8hPa | 2.7V | 03:22:16 | 01:46:41 | 00:00:00 | |
| DL1XH-west | 2026-08-30 18:28:33 | 50.02502 | 8.39474 | 182° | 11km/h | 28422m | 5.3m/s | -48°C | 0% | 15.8hPa | 2.7V | 03:22:42 | 01:46:46 | 00:00:00 | |
| DL1ZP-14 | 2026-08-30 18:28:33 | 50.02505 | 8.39474 | 171° | 11km/h | 28417m | 5.2m/s | -48.1°C | 0.8% | 15.8hPa | 2.7V | 00:00:00 | 00:00:00 | 00:00:00 | |
| DL1XH-15 | 2026-08-30 18:28:32 | 50.02518 | 8.39465 | 145° | 13km/h | 28391m | 4.5m/s | -48.3°C | 3.2% | 15.9hPa | 2.7V | 03:22:17 | 01:46:40 | 00:00:00 | |
| BIOWL1-15 | 2026-08-30 18:28:31 | 50.02508 | 8.39473 | 165° | 11km/h | 28411m | 5.5m/s | -48.1°C | 0.1% | 15.8hPa | 2.6V | 03:22:42 | 01:46:44 | 00:00:00 | |
| HSKMA3-T | 2026-08-30 18:28:28 | 50.02515 | 8.39468 | 147° | 11km/h | 28395m | 4.4m/s | -48.3°C | 0.1% | 15.8hPa | 2.7V | 03:22:42 | 01:46:41 | 00:00:00 | |
| AA1-15 | 2026-08-30 18:28:25 | 50.02524 | 8.39459 | 149° | 18km/h | 28380m | 6.2m/s | -48.3°C | 0.1% | 15.9hPa | 2.6V | 03:22:42 | 01:46:38 | 00:00:00 | |
| DL8DAS-15 | 2026-08-30 18:28:24 | 50.02524 | 8.39459 | 150° | 18km/h | 28380m | 6.2m/s | -48.3°C | 0.8% | 15.9hPa | 2.7V | 00:00:00 | 00:00:00 | 00:00:00 | |
| DB0UT-9 | 2026-08-30 18:28:23 | 50.02529 | 8.39455 | 155° | 22km/h | 28374m | 5.5m/s | -48.3°C | 0.8% | 15.9hPa | 2.7V | 03:22:00 | 00:00:00 | 00:00:00 | |
| DL1XH-15 | 2026-08-30 18:28:22 | 50.02542 | 8.39467 | 266° | 15km/h | 28338m | 4.2m/s | -48.3°C | 3.3% | 16hPa | 2.7V | 03:22:27 | 01:46:30 | 00:00:00 | |
| DL1XH-west | 2026-08-30 18:28:22 | 50.02538 | 8.39450 | 172° | 15km/h | 28364m | 4.5m/s | -48.4°C | 0.1% | 15.9hPa | 2.7V | 03:22:42 | 01:46:35 | 00:00:00 | |
| BIOWL1-15 | 2026-08-30 18:28:21 | 50.02541 | 8.39450 | 196° | 9km/h | 28360m | 5.4m/s | -48.4°C | 0.1% | 15.9hPa | 2.7V | 03:22:42 | 01:46:34 | 00:00:00 | |
| HSKMA3-T | 2026-08-30 18:28:17 | 50.02543 | 8.39467 | 266° | 15km/h | 28338m | 4.2m/s | -48.3°C | 0.2% | 16hPa | 2.7V | 03:22:42 | 01:46:30 | 00:00:00 | |
| DF8AY | 2026-08-30 18:28:15 | 50.02546 | 8.39476 | 208° | 15km/h | 28327m | 6m/s | -48.2°C | 0.1% | 16hPa | 2.7V | 03:22:42 | 01:46:28 | 00:00:00 | |
| AA1-15 | 2026-08-30 18:28:14 | 50.02550 | 8.39477 | 184° | 20km/h | 28321m | 5.6m/s | -48.2°C | 0.1% | 16hPa | 2.6V | 03:22:42 | 01:46:27 | 00:00:00 | |
| DL1XH1-15 | 2026-08-30 18:28:13 | 50.02575 | 8.39463 | 137° | 5km/h | 28289m | 5m/s | -48.3°C | 3.3% | 16.1hPa | 2.7V | 03:22:36 | 01:46:21 | 00:00:00 | |
| DL1XH-west | 2026-08-30 18:28:11 | 50.02566 | 8.39471 | 156° | 22km/h | 28305m | 5.9m/s | -48.2°C | 0% | 16.1hPa | 2.6V | 03:22:42 | 01:46:24 | 00:00:00 | |
| BIOWL1-15 | 2026-08-30 18:28:10 | 50.02570 | 8.39468 | 148° | 16km/h | 28299m | 5.7m/s | -48.2°C | 0% | 16.1hPa | 2.7V | 03:22:42 | 01:46:23 | 00:00:00 | |
| HSKMA3-T | 2026-08-30 18:28:06 | 50.02576 | 8.39463 | 219° | 4km/h | 28278m | 6.2m/s | -48.4°C | 0.1% | 16.1hPa | 2.6V | 03:22:42 | 01:46:19 | 00:00:00 | |
| AA1-15 | 2026-08-30 18:28:03 | 50.02579 | 8.39471 | 256° | 11km/h | 28261m | 4.9m/s | -48.3°C | 0.1% | 16.2hPa | 2.7V | 03:22:42 | 01:46:16 | 00:00:00 | |
| DL1XH1-15 | 2026-08-30 18:28:03 | 50.02585 | 8.39483 | 165° | 15km/h | 28235m | 6.5m/s | -48.4°C | 3.2% | 16.2hPa | 2.7V | 03:22:46 | 01:46:11 | 00:00:00 | |
| DL1XH-15 | 2026-08-30 18:28:02 | 50.02589 | 8.39481 | 154° | 20km/h | 28229m | 6.5m/s | -48.4°C | 3.3% | 16.2hPa | 2.7V | 03:22:47 | 01:46:10 | 00:00:00 | |
| BIOWL1-15 | 2026-08-30 18:28:02 | 50.02580 | 8.39482 | 235° | 7km/h | 28246m | 4.4m/s | -48.4°C | 0.1% | 16.2hPa | 2.6V | 03:23:33 | 01:46:13 | 00:00:00 | |
| DL1XH-west | 2026-08-30 18:28:01 | 50.02580 | 8.39479 | 260° | 9km/h | 28250m | 5.1m/s | -48.4°C | 0.1% | 16.2hPa | 2.6V | 03:23:33 | 01:46:14 | 00:00:00 | |
| HSKMA3-T | 2026-08-30 18:27:55 | 50.02599 | 8.39471 | 144° | 24km/h | 28218m | 4.7m/s | -48.4°C | 0.1% | 16.3hPa | 2.6V | 03:23:33 | 01:46:08 | 00:00:00 | |
| SONDE2-11 | 2026-08-30 18:27:55 | 50.02604 | 8.39466 | 140° | 18km/h | 28214m | 5.5m/s | -48.4°C | 0.8% | 16.3hPa | 2.7V | 00:00:00 | 00:00:00 | 00:00:00 | |
| DO3DL | 2026-08-30 18:27:54 | 50.02599 | 8.39471 | 145° | 24km/h | 28219m | 4.7m/s | -48.4°C | 0.8% | 16.3hPa | 2.7V | 03:23:00 | 00:00:00 | 00:00:00 | |
| DL1XH1-15 | 2026-08-30 18:27:53 | 50.02611 | 8.39472 | 239° | 15km/h | 28180m | 5.1m/s | -48.5°C | 3.3% | 16.4hPa | 2.7V | 03:22:56 | 01:46:01 | 00:00:00 | |
| DL1XH-15 | 2026-08-30 18:27:52 | 50.02613 | 8.39476 | 226° | 15km/h | 28175m | 4.3m/s | -48.5°C | 3.3% | 16.4hPa | 2.7V | 03:22:57 | 01:46:00 | 00:00:00 | |
| AA1-15 | 2026-08-30 18:27:52 | 50.02608 | 8.39460 | 153° | 4km/h | 28202m | 5.3m/s | -48.4°C | 0.1% | 16.3hPa | 2.7V | 03:23:33 | 01:46:05 | 00:00:00 | |
| DL1XH-west | 2026-08-30 18:27:51 | 50.02609 | 8.39461 | 250° | 4km/h | 28197m | 5.3m/s | -48.5°C | 0.1% | 16.3hPa | 2.6V | 03:23:33 | 01:46:04 | 00:00:00 | |
| BIOWL1-15 | 2026-08-30 18:27:50 | 50.02609 | 8.39463 | 259° | 9km/h | 28192m | 5.6m/s | -48.5°C | 0.1% | 16.4hPa | 2.6V | 03:23:33 | 01:46:03 | 00:00:00 | |
| DF8AY | 2026-08-30 18:27:49 | 50.02610 | 8.39467 | 251° | 13km/h | 28185m | 6.1m/s | -48.5°C | 0.1% | 16.3hPa | 2.6V | 03:23:33 | 01:46:02 | 00:00:00 | |
| DC4HF-4 | 2026-08-30 18:27:48 | 50.02613 | 8.39476 | 226° | 13km/h | 28175m | 4.3m/s | -48.5°C | 0.8% | 16.4hPa | 2.6V | 00:00:00 | 00:00:00 | 00:00:00 | |
| DD1CC8 | 2026-08-30 18:27:47 | 50.02613 | 8.39476 | 226° | 13km/h | 28175m | 4.3m/s | -48.5°C | 0.8% | 16.4hPa | 2.6V | 00:00:00 | 00:00:00 | 00:00:00 | |
| DL3AQ-11 | 2026-08-30 18:27:45 | 50.02618 | 8.39481 | 199° | 9km/h | 28166m | 5.5m/s | -48.6°C | 0.8% | 16.4hPa | 2.6V | 00:00:00 | 00:00:00 | 00:00:00 | |
| HSKMA3-T | 2026-08-30 18:27:44 | 50.02620 | 8.39482 | 173° | 7km/h | 28160m | 5.6m/s | -48.6°C | 0.1% | 16.4hPa | 2.6V | 03:23:33 | 01:45:57 | 00:00:00 | |
| DL1XH1-15 | 2026-08-30 18:27:43 | 50.02639 | 8.39470 | 171° | 16km/h | 28129m | 4.4m/s | -48.5°C | 3.3% | 16.5hPa | 2.6V | 03:23:06 | 01:45:51 | 00:00:00 | |
| BIOWL1-15 | 2026-08-30 18:27:42 | 50.02631 | 8.39473 | 158° | 16km/h | 28139m | 6.1m/s | -48.5°C | 0.1% | 16.5hPa | 2.7V | 03:23:33 | 01:45:53 | 00:00:00 | |
| DL1XH-west | 2026-08-30 18:27:41 | 50.02627 | 8.39476 | 151° | 15km/h | 28145m | 5.6m/s | -48.6°C | 0.1% | 16.4hPa | 2.7V | 03:23:33 | 01:45:54 | 00:00:00 | |
| DM0DOS-11 | 2026-08-30 18:27:40 | 50.02647 | 8.39469 | 219° | 4km/h | 28112m | 5.7m/s | -48.6°C | 3.2% | 16.5hPa | 2.7V | 03:23:09 | 01:45:48 | 00:00:00 | |
| DF8AY | 2026-08-30 18:27:38 | 50.02639 | 8.39470 | 171° | 16km/h | 28129m | 4.4m/s | -48.5°C | 0.2% | 16.5hPa | 2.6V | 03:23:33 | 01:45:51 | 00:00:00 | |
| HSKMA3-T | 2026-08-30 18:27:34 | 50.02647 | 8.39470 | 254° | 4km/h | 28107m | 4.9m/s | -48.6°C | 0.1% | 16.6hPa | 2.7V | 03:23:33 | 01:45:47 | 00:00:00 | |
| DB0UT-7 | 2026-08-30 18:27:34 | 50.02647 | 8.39470 | 255° | 11km/h | 28107m | 4.8m/s | -48.5°C | 3.3% | 16.5hPa | 2.7V | 00:00:00 | 00:00:00 | 00:00:00 | |
| DL1XH1-15 | 2026-08-30 18:27:33 | 50.02658 | 8.39472 | 143° | 13km/h | 28076m | 6.1m/s | -48.7°C | 3.3% | 16.6hPa | 2.7V | 03:23:16 | 01:45:41 | 00:00:00 | |
| EDDB2-11 | 2026-08-30 18:27:33 | 50.02648 | 8.39473 | 212° | 5km/h | 28097m | 6.1m/s | -48.6°C | 0.8% | 16.6hPa | 2.7V | 00:00:00 | 00:00:00 | 00:00:00 | |
| DL1ZP-14 | 2026-08-30 18:27:31 | 50.02653 | 8.39475 | 176° | 11km/h | 28086m | 4.6m/s | -48.7°C | 0.8% | 16.6hPa | 2.7V | 00:00:00 | 00:00:00 | 00:00:00 | |
| DM0DOS-11 | 2026-08-30 18:27:30 | 50.02665 | 8.39459 | 123° | 16km/h | 28060m | 5m/s | -48.7°C | 3.3% | 16.7hPa | 2.6V | 03:23:19 | 01:45:38 | 00:00:00 | |
| DL1XH-west | 2026-08-30 18:27:30 | 50.02653 | 8.39475 | 176° | 11km/h | 28086m | 4.6m/s | -48.7°C | 0.1% | 16.6hPa | 2.7V | 03:23:33 | 01:45:43 | 00:00:00 | |
| BIOWL1-15 | 2026-08-30 18:27:29 | 50.02656 | 8.39474 | 161° | 11km/h | 28081m | 4.9m/s | -48.7°C | 0.1% | 16.7hPa | 2.7V | 03:23:33 | 01:45:42 | 00:00:00 | |
| HSKMA3-T | 2026-08-30 18:27:24 | 50.02667 | 8.39453 | 131° | 18km/h | 28054m | 6.1m/s | -48.7°C | 0.2% | 16.7hPa | 2.7V | 03:23:33 | 01:45:37 | 00:00:00 | |
| SONDE2-11 | 2026-08-30 18:27:24 | 50.02670 | 8.39448 | 137° | 16km/h | 28049m | 5.3m/s | -48.7°C | 0.8% | 16.7hPa | 2.7V | 00:00:00 | 00:00:00 | 00:00:00 | |
| DL1XH1-15 | 2026-08-30 18:27:23 | 50.02678 | 8.39436 | 15° | 4km/h | 28023m | 5.2m/s | -48.6°C | 3.3% | 16.8hPa | 2.7V | 03:23:26 | 01:45:31 | 00:00:00 | |
| DF8AY | 2026-08-30 18:27:23 | 50.02674 | 8.39444 | 142° | 15km/h | 28044m | 4.3m/s | -48.7°C | 0.1% | 16.7hPa | 2.6V | 03:23:33 | 01:45:35 | 00:00:00 | |
| DL1XH-15 | 2026-08-30 18:27:22 | 50.02677 | 8.39436 | 335° | 4km/h | 28018m | 4.8m/s | -48.6°C | 3.3% | 16.8hPa | 2.7V | 03:23:27 | 01:45:30 | 00:00:00 | |
| DB0UT-9 | 2026-08-30 18:27:21 | 50.02674 | 8.39444 | 143° | 15km/h | 28044m | 4.3m/s | -48.7°C | 0.8% | 16.7hPa | 2.6V | 03:23:00 | 00:00:00 | 00:00:00 | |
| DM0DOS-11 | 2026-08-30 18:27:20 | 50.02678 | 8.39437 | 197° | 5km/h | 28007m | 6m/s | -48.6°C | 3.3% | 16.8hPa | 2.6V | 03:23:29 | 01:45:28 | 00:00:00 | |
| BIOWL1-15 | 2026-08-30 18:27:20 | 50.02678 | 8.39436 | 15° | 4km/h | 28023m | 5.2m/s | -48.7°C | 0.1% | 16.8hPa | 2.7V | 03:23:33 | 01:45:31 | 00:00:00 | |
| DL1XH-west | 2026-08-30 18:27:19 | 50.02678 | 8.39437 | 78° | 4km/h | 28028m | 6m/s | -48.7°C | 0.1% | 16.8hPa | 2.7V | 03:23:33 | 01:45:32 | 00:00:00 | |
| HSKMA3-T | 2026-08-30 18:27:14 | 50.02679 | 8.39438 | 185° | 11km/h | 28001m | 5.3m/s | -48.7°C | 0.1% | 16.9hPa | 2.6V | 03:23:33 | 01:45:27 | 00:00:00 | |
| DL1XH-15 | 2026-08-30 18:27:12 | 50.02694 | 8.39417 | 114° | 13km/h | 27966m | 5.6m/s | -48.7°C | 3.4% | 16.9hPa | 2.7V | 03:23:37 | 01:45:20 | 00:00:00 | |
| DF8AY | 2026-08-30 18:27:12 | 50.02686 | 8.39437 | 162° | 13km/h | 27992m | 4.7m/s | -48.6°C | 0.1% | 16.9hPa | 2.7V | 03:23:33 | 01:45:25 | 00:00:00 | |
| DC4HF-4 | 2026-08-30 18:27:12 | 50.02688 | 8.39434 | 144° | 11km/h | 27987m | 5.6m/s | -48.6°C | 0.8% | 16.9hPa | 2.6V | 00:00:00 | 00:00:00 | 00:00:00 | |
| DJ2DS-15 | 2026-08-30 18:27:11 | 50.02688 | 8.39434 | 145° | 13km/h | 27987m | 5.6m/s | -48.6°C | 3.3% | 16.8hPa | 2.6V | 00:00:00 | 01:45:24 | 00:00:00 | |
| DM0DOS-11 | 2026-08-30 18:27:10 | 50.02698 | 8.39410 | 147° | 13km/h | 27954m | 5.1m/s | -48.7°C | 3.4% | 17hPa | 2.6V | 03:23:39 | 01:45:18 | 00:00:00 | |
| BIOWL1-15 | 2026-08-30 18:27:09 | 50.02694 | 8.39418 | 115° | 13km/h | 27966m | 5.6m/s | -48.7°C | 0.2% | 16.9hPa | 2.7V | 03:24:24 | 01:45:20 | 00:00:00 | |
| DL1XH-west | 2026-08-30 18:27:09 | 50.02692 | 8.39427 | 110° | 13km/h | 27976m | 4.9m/s | -48.7°C | 0.1% | 16.9hPa | 2.6V | 03:24:24 | 01:45:22 | 00:00:00 | |
| HSKMA3-T | 2026-08-30 18:27:04 | 50.02701 | 8.39408 | 161° | 11km/h | 27950m | 4.7m/s | -48.7°C | 0.2% | 17hPa | 2.6V | 03:24:24 | 01:45:17 | 00:00:00 | |
| DB0ND-19 | 2026-08-30 18:27:03 | 50.02703 | 8.39408 | 174° | 7km/h | 27945m | 4.9m/s | -48.7°C | 0.8% | 17.0hPa | 2.6V | 00:00:00 | 00:00:00 | 00:00:00 | |
| DL1XH-15 | 2026-08-30 18:27:02 | 50.02717 | 8.39409 | 171° | 18km/h | 27913m | 5.6m/s | -48.6°C | 3.3% | 17.1hPa | 2.6V | 03:23:47 | 01:45:10 | 00:00:00 | |
| DF8AY | 2026-08-30 18:27:01 | 50.02706 | 8.39408 | 200° | 5km/h | 27934m | 5.1m/s | -48.7°C | 0.1% | 17hPa | 2.7V | 03:24:24 | 01:45:14 | 00:00:00 | |
| DL1XH-west | 2026-08-30 18:26:58 | 50.02713 | 8.39410 | 180° | 15km/h | 27919m | 6.1m/s | -48.6°C | 0.1% | 17.1hPa | 2.6V | 03:24:24 | 01:45:11 | 00:00:00 | |
| BIOWL1-15 | 2026-08-30 18:26:57 | 50.02717 | 8.39409 | 171° | 20km/h | 27913m | 5.6m/s | -48.6°C | 0.1% | 17.1hPa | 2.6V | 03:24:24 | 01:45:10 | 00:00:00 | |
| HSKMA3-T | 2026-08-30 18:26:53 | 50.02734 | 8.39395 | 126° | 16km/h | 27893m | 6m/s | -48.6°C | 0.1% | 17.1hPa | 2.6V | 03:24:24 | 01:45:06 | 00:00:00 | |
| SONDE2-11 | 2026-08-30 18:26:53 | 50.02736 | 8.39390 | 109° | 13km/h | 27887m | 5.2m/s | -48.6°C | 0.8% | 17.2hPa | 2.6V | 00:00:00 | 00:00:00 | 00:00:00 | |
| DL1XH-15 | 2026-08-30 18:26:52 | 50.02744 | 8.39371 | 163° | 13km/h | 27862m | 4.8m/s | -48.7°C | 3.3% | 17.2hPa | 2.6V | 03:23:57 | 01:45:00 | 00:00:00 | |
| DF8AY | 2026-08-30 18:26:51 | 50.02737 | 8.39385 | 102° | 13km/h | 27882m | 4.4m/s | -48.6°C | 0.1% | 17.2hPa | 2.6V | 03:24:24 | 01:45:04 | 00:00:00 | |
| DJ2DS-15 | 2026-08-30 18:26:51 | 50.02737 | 8.39385 | 103° | 7km/h | 27882m | 4.4m/s | -48.5°C | 3.3% | 17.1hPa | 2.6V | 03:23:00 | 01:45:04 | 00:00:00 | |
| DM0DOS-11 | 2026-08-30 18:26:50 | 50.02749 | 8.39370 | 176° | 9km/h | 27852m | 5.4m/s | -48.7°C | 3.3% | 17.2hPa | 2.6V | 03:23:59 | 01:44:58 | 00:00:00 | |
| BIOWL1-15 | 2026-08-30 18:26:48 | 50.02747 | 8.39370 | 172° | 11km/h | 27858m | 4.5m/s | -48.7°C | 0.1% | 17.2hPa | 2.6V | 03:24:24 | 01:44:59 | 00:00:00 | |
| DL1XH-west | 2026-08-30 18:26:48 | 50.02741 | 8.39373 | 147° | 11km/h | 27867m | 5.4m/s | -48.7°C | 0.2% | 17.2hPa | 2.7V | 03:24:24 | 01:45:01 | 00:00:00 | |
| AA1-15 | 2026-08-30 18:26:47 | 50.02744 | 8.39371 | 164° | 13km/h | 27862m | 4.9m/s | -48.7°C | 0.1% | 17.2hPa | 2.6V | 03:24:24 | 01:45:00 | 00:00:00 | |
| DO3MHA-11 | 2026-08-30 18:26:46 | 50.02747 | 8.39370 | 173° | 7km/h | 27858m | 4.4m/s | -48.7°C | 3.3% | 17.2hPa | 2.7V | 00:00:00 | 01:44:59 | 00:00:00 | |
| DO8TBO-1 | 2026-08-30 18:26:45 | 50.02749 | 8.39370 | 177° | 5km/h | 27853m | 5.3m/s | -48.7°C | 3.3% | 17.2hPa | 2.7V | 00:00:00 | 01:44:58 | 00:00:00 | |
| CB1BUN | 2026-08-30 18:26:44 | 50.02749 | 8.39370 | 178° | 9km/h | 27853m | 5.4m/s | -48.7°C | 0.8% | 17.2hPa | 2.7V | 03:24:00 | 00:00:00 | 00:00:00 | |
| DL1XH1-15 | 2026-08-30 18:26:43 | 50.02763 | 8.39368 | 169° | 7km/h | 27816m | 4.3m/s | -48.7°C | 3.3% | 17.4hPa | 2.7V | 03:24:06 | 01:44:51 | 00:00:00 | |
| HSKMA3-T | 2026-08-30 18:26:43 | 50.02753 | 8.39370 | 176° | 5km/h | 27842m | 5m/s | -48.7°C | 0.1% | 17.3hPa | 2.7V | 03:24:24 | 01:44:56 | 00:00:00 | |
| DL8DAS-14 | 2026-08-30 18:26:41 | 50.02756 | 8.39369 | 171° | 5km/h | 27832m | 5.3m/s | -48.7°C | 0.8% | 17.3hPa | 2.6V | 00:00:00 | 00:00:00 | 00:00:00 | |
| DM0DOS-11 | 2026-08-30 18:26:40 | 50.02763 | 8.39365 | 31° | 5km/h | 27801m | 5.4m/s | -48.7°C | 3.4% | 17.4hPa | 2.6V | 03:24:09 | 01:44:48 | 00:00:00 | |
| DF8AY | 2026-08-30 18:26:40 | 50.02758 | 8.39369 | 173° | 9km/h | 27826m | 5.9m/s | -48.7°C | 0.1% | 17.3hPa | 2.6V | 03:24:24 | 01:44:53 | 00:00:00 | |
| DL1XH-west | 2026-08-30 18:26:38 | 50.02762 | 8.39368 | 170° | 7km/h | 27816m | 4.3m/s | -48.7°C | 0.1% | 17.4hPa | 2.7V | 03:24:24 | 01:44:51 | 00:00:00 | |
| BIOWL1-15 | 2026-08-30 18:26:36 | 50.02764 | 8.39366 | 69° | 2km/h | 27806m | 6.1m/s | -48.7°C | 0.2% | 17.4hPa | 2.6V | 03:24:24 | 01:44:49 | 00:00:00 | |
| KANTATE | 2026-08-30 18:26:35 | 50.02764 | 8.39366 | 70° | 2km/h | 27807m | 6.1m/s | -48.7°C | 0.8% | 17.3hPa | 2.6V | 03:24:00 | 00:00:00 | 00:00:00 | |
| DO3MHA-11 | 2026-08-30 18:26:34 | 50.02762 | 8.39364 | 33° | 5km/h | 27796m | 4.6m/s | -48.6°C | 3.3% | 17.3hPa | 2.6V | 00:00:00 | 01:44:47 | 00:00:00 | |
| DL1XH-15 | 2026-08-30 18:26:33 | 50.02766 | 8.39355 | 155° | 5km/h | 27766m | 4.4m/s | -48.8°C | 3.3% | 17.5hPa | 2.7V | 03:24:16 | 01:44:41 | 00:00:00 | |
| HSKMA3-T | 2026-08-30 18:26:33 | 50.02761 | 8.39362 | 45° | 5km/h | 27791m | 4.7m/s | -48.7°C | 0.1% | 17.4hPa | 2.7V | 03:24:24 | 01:44:46 | 00:00:00 | |
| DB0UT-7 | 2026-08-30 18:26:32 | 50.02760 | 8.39361 | 86° | 7km/h | 27786m | 5.7m/s | -48.7°C | 3.4% | 17.4hPa | 2.7V | 00:00:00 | 00:00:00 | 00:00:00 | |
| DM0DOS-11 | 2026-08-30 18:26:31 | 50.02765 | 8.39354 | 354° | 7km/h | 27750m | 4.9m/s | -48.8°C | 3.3% | 17.5hPa | 2.6V | 03:24:19 | 01:44:38 | 00:00:00 | |
| DF8AY | 2026-08-30 18:26:29 | 50.02764 | 8.39356 | 157° | 9km/h | 27770m | 4.2m/s | -48.8°C | 0.1% | 17.5hPa | 2.6V | 03:24:24 | 01:44:42 | 00:00:00 | |
| DL1XH-west | 2026-08-30 18:26:27 | 50.02767 | 8.39354 | 140° | 2km/h | 27761m | 5.7m/s | -48.8°C | 0.1% | 17.5hPa | 2.7V | 03:24:24 | 01:44:40 | 00:00:00 | |
| AA1-15 | 2026-08-30 18:26:25 | 50.02765 | 8.39354 | 355° | 7km/h | 27750m | 4.9m/s | -48.8°C | 0.1% | 17.5hPa | 2.6V | 03:24:24 | 01:44:38 | 00:00:00 | |
| HSKMA3-T | 2026-08-30 18:26:22 | 50.02760 | 8.39355 | 334° | 4km/h | 27734m | 6.1m/s | -48.8°C | 0.1% | 17.5hPa | 2.6V | 03:24:24 | 01:44:35 | 00:00:00 | |
| DF8AY | 2026-08-30 18:26:18 | 50.02760 | 8.39357 | 289° | 0km/h | 27714m | 5.5m/s | -49°C | 0.1% | 17.6hPa | 2.6V | 03:26:06 | 01:44:31 | 00:00:00 | |
| DL1XH-west | 2026-08-30 18:26:16 | 50.02759 | 8.39357 | 7° | 4km/h | 27704m | 4.4m/s | -49°C | 0.2% | 17.6hPa | 2.6V | 03:25:15 | 01:44:29 | 00:00:00 | |
| BIOWL1-15 | 2026-08-30 18:26:15 | 50.02759 | 8.39357 | 21° | 2km/h | 27699m | 4.1m/s | -49.1°C | 0.1% | 17.6hPa | 2.7V | 03:25:15 | 01:44:28 | 00:00:00 | |
| AA1-15 | 2026-08-30 18:26:14 | 50.02759 | 8.39357 | 160° | 2km/h | 27695m | 5.2m/s | -49.1°C | 0.1% | 17.7hPa | 2.7V | 03:25:15 | 01:44:27 | 00:00:00 | |
| BIOWL7-15 | 2026-08-30 18:26:14 | 50.02759 | 8.39356 | 0° | 0km/h | 27695m | 5.2m/s | -49.1°C | 0.8% | 17.7hPa | 2.7V | 03:25:00 | 00:00:00 | 00:00:00 | |
| DL1XH1-15 | 2026-08-30 18:26:13 | 50.02768 | 8.39371 | 263° | 15km/h | 27663m | 5.6m/s | -49.5°C | 3.5% | 17.7hPa | 2.7V | 03:24:36 | 01:44:21 | 00:00:00 | |
| HSKMA3-T | 2026-08-30 18:26:11 | 50.02764 | 8.39359 | 213° | 11km/h | 27679m | 4.4m/s | -49.3°C | 0.2% | 17.7hPa | 2.6V | 03:25:15 | 01:44:24 | 00:00:00 | |
| BIOWL1-15 | 2026-08-30 18:26:07 | 50.02770 | 8.39387 | 239° | 15km/h | 27649m | 5.9m/s | -49.4°C | 0.2% | 17.8hPa | 2.6V | 03:25:15 | 01:44:18 | 00:00:00 | |
| DL1XH-west | 2026-08-30 18:26:06 | 50.02769 | 8.39382 | 254° | 15km/h | 27654m | 4.4m/s | -49.4°C | 0.2% | 17.8hPa | 2.6V | 03:25:15 | 01:44:19 | 00:00:00 | |
| DF8AY | 2026-08-30 18:26:04 | 50.02772 | 8.39391 | 217° | 13km/h | 27643m | 5.1m/s | -49.4°C | 0.2% | 17.8hPa | 2.7V | 03:26:06 | 01:44:17 | 00:00:00 | |
| AA1-15 | 2026-08-30 18:26:03 | 50.02775 | 8.39394 | 201° | 13km/h | 27638m | 4.3m/s | -49.4°C | 0.2% | 17.8hPa | 2.7V | 03:25:15 | 01:44:16 | 00:00:00 | |
| DL1XH1-15 | 2026-08-30 18:26:03 | 50.02781 | 8.39398 | 298° | 5km/h | 27614m | 4.6m/s | -49.5°C | 3.4% | 17.9hPa | 2.7V | 03:24:46 | 01:44:11 | 00:00:00 | |
| HSKMA3-T | 2026-08-30 18:26:00 | 50.02781 | 8.39396 | 201° | 2km/h | 27624m | 5.6m/s | -49.5°C | 0.2% | 17.9hPa | 2.6V | 03:25:15 | 01:44:13 | 00:00:00 | |
| DL1XH-west | 2026-08-30 18:25:56 | 50.02781 | 8.39404 | 251° | 11km/h | 27604m | 5.6m/s | -49.6°C | 0.2% | 17.9hPa | 2.6V | 03:25:15 | 01:44:09 | 00:00:00 | |
| BIOWL1-15 | 2026-08-30 18:25:55 | 50.02782 | 8.39408 | 237° | 15km/h | 27598m | 5.8m/s | -49.6°C | 0.2% | 17.9hPa | 2.6V | 03:25:15 | 01:44:08 | 00:00:00 | |
| DF8AY | 2026-08-30 18:25:54 | 50.02785 | 8.39412 | 225° | 16km/h | 27593m | 4.8m/s | -49.5°C | 0.2% | 17.9hPa | 2.6V | 03:26:06 | 01:44:07 | 00:00:00 | |
| AA1-15 | 2026-08-30 18:25:52 | 50.02791 | 8.39420 | 217° | 13km/h | 27584m | 5.4m/s | -49.5°C | 0.3% | 18hPa | 2.7V | 03:25:15 | 01:44:05 | 00:00:00 | |
| HSKMA3-T | 2026-08-30 18:25:50 | 50.02794 | 8.39424 | 197° | 4km/h | 27573m | 5.4m/s | -49.5°C | 0.2% | 18hPa | 2.6V | 03:25:15 | 01:44:03 | 00:00:00 | |
| DL1XH-west | 2026-08-30 18:25:46 | 50.02798 | 8.39424 | 198° | 7km/h | 27551m | 5.5m/s | -49.5°C | 0.3% | 18.1hPa | 2.7V | 03:25:15 | 01:43:59 | 00:00:00 | |
| DL3AQ-11 | 2026-08-30 18:25:45 | 50.02800 | 8.39425 | 211° | 7km/h | 27547m | 4.9m/s | -49.5°C | 0.9% | 18.1hPa | 2.6V | 00:00:00 | 00:00:00 | 00:00:00 | |
| BIOWL1-15 | 2026-08-30 18:25:44 | 50.02802 | 8.39427 | 224° | 9km/h | 27542m | 4.7m/s | -49.5°C | 0.2% | 18.1hPa | 2.6V | 03:25:15 | 01:43:57 | 00:00:00 | |
| DO3MHA-11 | 2026-08-30 18:25:44 | 50.02802 | 8.39427 | 225° | 13km/h | 27542m | 4.6m/s | -49.4°C | 3.4% | 18.0hPa | 2.6V | 00:00:00 | 01:43:57 | 00:00:00 | |
| DL1XH1-15 | 2026-08-30 18:25:43 | 50.02810 | 8.39448 | 220° | 16km/h | 27509m | 6.1m/s | -49.4°C | 3.5% | 18.2hPa | 2.6V | 03:25:06 | 01:43:51 | 00:00:00 | |
| DF8AY | 2026-08-30 18:25:42 | 50.02804 | 8.39433 | 254° | 9km/h | 27530m | 5.8m/s | -49.4°C | 0.3% | 18.1hPa | 2.6V | 03:26:06 | 01:43:55 | 00:00:00 | |
| AA1-15 | 2026-08-30 18:25:41 | 50.02805 | 8.39437 | 255° | 9km/h | 27525m | 4.9m/s | -49.4°C | 0.2% | 18.1hPa | 2.7V | 03:25:15 | 01:43:54 | 00:00:00 | |
| DM0DOS-11 | 2026-08-30 18:25:40 | 50.02821 | 8.39457 | 197° | 15km/h | 27494m | 4.9m/s | -49.3°C | 3.5% | 18.2hPa | 2.7V | 03:25:09 | 01:43:48 | 00:00:00 | |
| HSKMA3-T | 2026-08-30 18:25:40 | 50.02806 | 8.39440 | 245° | 11km/h | 27520m | 4.7m/s | -49.4°C | 0.2% | 18.1hPa | 2.7V | 03:25:15 | 01:43:53 | 00:00:00 | |
| DL1XH-west | 2026-08-30 18:25:35 | 50.02821 | 8.39457 | 197° | 15km/h | 27494m | 4.9m/s | -49.3°C | 0.2% | 18.2hPa | 2.7V | 03:25:15 | 01:43:48 | 00:00:00 | |
| DO3MHA-11 | 2026-08-30 18:25:34 | 50.02824 | 8.39458 | 191° | 11km/h | 27489m | 6.0m/s | -49.3°C | 3.5% | 18.2hPa | 2.7V | 03:25:00 | 01:43:47 | 00:00:00 | |
| DL1XH1-15 | 2026-08-30 18:25:33 | 50.02835 | 8.39467 | 223° | 16km/h | 27458m | 4.9m/s | -49.3°C | 3.5% | 18.3hPa | 2.7V | 03:25:16 | 01:43:41 | 00:00:00 | |
| BIOWL1-15 | 2026-08-30 18:25:33 | 50.02826 | 8.39459 | 181° | 5km/h | 27483m | 5.4m/s | -49.3°C | 0.3% | 18.2hPa | 2.6V | 03:25:15 | 01:43:46 | 00:00:00 | |
| DB0UT-7 | 2026-08-30 18:25:32 | 50.02827 | 8.39459 | 182° | 15km/h | 27479m | 4.5m/s | -49.3°C | 3.5% | 18.2hPa | 2.6V | 00:00:00 | 00:00:00 | 00:00:00 | |
| BIOWL9-15 | 2026-08-30 18:25:31 | 50.02830 | 8.39461 | 212° | 7km/h | 27469m | 5.8m/s | -49.3°C | 0.8% | 18.3hPa | 2.6V | 00:00:00 | 00:00:00 | 00:00:00 | |
| DM0DOS-11 | 2026-08-30 18:25:30 | 50.02843 | 8.39483 | 238° | 16km/h | 27442m | 5.5m/s | -49.1°C | 3.4% | 18.4hPa | 2.6V | 03:25:19 | 01:43:38 | 00:00:00 | |
| AA1-15 | 2026-08-30 18:25:30 | 50.02830 | 8.39461 | 213° | 9km/h | 27469m | 5.8m/s | -49.3°C | 0.2% | 18.3hPa | 2.7V | 03:25:15 | 01:43:43 | 00:00:00 | |
| HSKMA3-T | 2026-08-30 18:25:29 | 50.02832 | 8.39463 | 218° | 13km/h | 27463m | 5.6m/s | -49.3°C | 0.3% | 18.3hPa | 2.7V | 03:25:15 | 01:43:42 | 00:00:00 | |
| DL1XH-west | 2026-08-30 18:25:25 | 50.02843 | 8.39483 | 239° | 16km/h | 27442m | 5.5m/s | -49.2°C | 0.2% | 18.4hPa | 2.6V | 03:26:06 | 01:43:38 | 00:00:00 | |
| BIOWL1-15 | 2026-08-30 18:25:22 | 50.02852 | 8.39497 | 212° | 18km/h | 27428m | 5.1m/s | -49.1°C | 0.3% | 18.4hPa | 2.6V | 03:26:06 | 01:43:35 | 00:00:00 | |
| HSKMA3-T | 2026-08-30 18:25:19 | 50.02867 | 8.39505 | 188° | 24km/h | 27412m | 4.6m/s | -49°C | 0.2% | 18.5hPa | 2.7V | 03:26:06 | 01:43:32 | 00:00:00 | |
| DL1XH-west | 2026-08-30 18:25:14 | 50.02883 | 8.39505 | 173° | 4km/h | 27387m | 4.4m/s | -48.9°C | 0.1% | 18.5hPa | 2.6V | 03:26:06 | 01:43:27 | 00:00:00 | |
| DO3MHA-11 | 2026-08-30 18:25:14 | 50.02883 | 8.39505 | 173° | 15km/h | 27387m | 4.4m/s | -48.8°C | 3.4% | 18.5hPa | 2.6V | 00:00:00 | 01:43:27 | 00:00:00 | |
| DL1XH1-15 | 2026-08-30 18:25:13 | 50.02901 | 8.39523 | 216° | 22km/h | 27355m | 5.7m/s | -48.9°C | 3.4% | 18.6hPa | 2.6V | 03:25:36 | 01:43:21 | 00:00:00 | |
| DF8AY | 2026-08-30 18:25:12 | 50.02886 | 8.39507 | 212° | 9km/h | 27377m | 5.8m/s | -48.9°C | 0.1% | 18.5hPa | 2.7V | 03:26:06 | 01:43:25 | 00:00:00 | |
| BIOWL1-15 | 2026-08-30 18:25:11 | 50.02888 | 8.39509 | 213° | 15km/h | 27371m | 5.5m/s | -48.9°C | 0.2% | 18.6hPa | 2.7V | 03:26:06 | 01:43:24 | 00:00:00 | |
| DM0DOS-11 | 2026-08-30 18:25:10 | 50.02912 | 8.39534 | 196° | 16km/h | 27339m | 4.8m/s | -48.8°C | 3.4% | 18.7hPa | 2.7V | 03:25:39 | 01:43:18 | 00:00:00 | |
| HSKMA3-T | 2026-08-30 18:25:09 | 50.02896 | 8.39518 | 216° | 22km/h | 27361m | 4.8m/s | -48.9°C | 0.2% | 18.6hPa | 2.6V | 03:26:06 | 01:43:22 | 00:00:00 | |
| AA1-15 | 2026-08-30 18:25:08 | 50.02901 | 8.39523 | 216° | 22km/h | 27355m | 5.7m/s | -48.9°C | 0.2% | 18.6hPa | 2.6V | 03:26:06 | 01:43:21 | 00:00:00 | |
| DJ2DS-15 | 2026-08-30 18:25:08 | 50.02901 | 8.39523 | 217° | 16km/h | 27356m | 5.7m/s | -48.8°C | 3.4% | 18.6hPa | 2.6V | 00:00:00 | 01:43:21 | 00:00:00 | |
| DF7PN | 2026-08-30 18:25:07 | 50.02905 | 8.39527 | 215° | 18km/h | 27350m | 5.9m/s | -48.8°C | 0.8% | 18.6hPa | 2.6V | 00:00:00 | 00:00:00 | 00:00:00 | |
| DL3AQ-11 | 2026-08-30 18:25:06 | 50.02912 | 8.39534 | 196° | 15km/h | 27339m | 4.9m/s | -48.8°C | 0.8% | 18.7hPa | 2.6V | 00:00:00 | 00:00:00 | 00:00:00 | |
| EDDB2-12 | 2026-08-30 18:25:05 | 50.02912 | 8.39534 | 196° | 15km/h | 27339m | 4.9m/s | -48.8°C | 0.8% | 18.7hPa | 2.6V | 00:00:00 | 00:00:00 | 00:00:00 | |
| DO3MHA-11 | 2026-08-30 18:25:04 | 50.02916 | 8.39535 | 186° | 13km/h | 27334m | 5.4m/s | -48.7°C | 3.4% | 18.6hPa | 2.6V | 00:00:00 | 01:43:17 | 00:00:00 | |
| DL1XH-15 | 2026-08-30 18:25:03 | 50.02937 | 8.39528 | 169° | 4km/h | 27302m | 5.5m/s | -48.9°C | 3.4% | 18.8hPa | 2.6V | 03:25:46 | 01:43:11 | 00:00:00 | |
| DL1XH-west | 2026-08-30 18:25:03 | 50.02921 | 8.39535 | 178° | 18km/h | 27328m | 5.9m/s | -48.8°C | 0.1% | 18.7hPa | 2.6V | 03:26:06 | 01:43:16 | 00:00:00 | |
| DF8AY | 2026-08-30 18:25:02 | 50.02925 | 8.39534 | 170° | 18km/h | 27323m | 4.9m/s | -48.8°C | 0.2% | 18.7hPa | 2.6V | 03:26:06 | 01:43:15 | 00:00:00 | |
| DB0UT-7 | 2026-08-30 18:25:02 | 50.02925 | 8.39534 | 171° | 15km/h | 27323m | 4.8m/s | -48.7°C | 3.4% | 18.7hPa | 2.6V | 03:25:00 | 01:43:15 | 00:00:00 | |
| DL0LBS | 2026-08-30 18:25:01 | 50.02930 | 8.39533 | 165° | 16km/h | 27319m | 4.3m/s | -48.8°C | 0.8% | 18.7hPa | 2.7V | 03:26:00 | 00:00:00 | 00:00:00 | |
| DM0DOS-11 | 2026-08-30 18:25:00 | 50.02939 | 8.39536 | 240° | 15km/h | 27287m | 6m/s | -49°C | 3.4% | 18.8hPa | 2.7V | 03:25:49 | 01:43:08 | 00:00:00 | |
| BIOWL1-15 | 2026-08-30 18:25:00 | 50.02933 | 8.39531 | 159° | 13km/h | 27314m | 4.9m/s | -48.8°C | 0.1% | 18.7hPa | 2.7V | 03:26:06 | 01:43:13 | 00:00:00 | |
| AA1-15 | 2026-08-30 18:24:58 | 50.02937 | 8.39528 | 170° | 4km/h | 27302m | 5.5m/s | -48.9°C | 0.2% | 18.8hPa | 2.6V | 03:26:06 | 01:43:11 | 00:00:00 | |
| EDDB2-11 | 2026-08-30 18:24:57 | 50.02938 | 8.39529 | 250° | 4km/h | 27298m | 4.8m/s | -48.9°C | 0.8% | 18.8hPa | 2.7V | 00:00:00 | 00:00:00 | 00:00:00 | |
| DL1ZP-14 | 2026-08-30 18:24:55 | 50.02939 | 8.39536 | 240° | 15km/h | 27287m | 6.0m/s | -49.0°C | 0.8% | 18.8hPa | 2.7V | 00:00:00 | 00:00:00 | 00:00:00 | |
| DO3MHA-11 | 2026-08-30 18:24:54 | 50.02942 | 8.39542 | 230° | 16km/h | 27281m | 5.8m/s | -48.9°C | 3.4% | 18.8hPa | 2.7V | 03:25:00 | 01:43:07 | 00:00:00 | |
| DL1XH-15 | 2026-08-30 18:24:53 | 50.02966 | 8.39561 | 141° | 9km/h | 27251m | 5.1m/s | -48.7°C | 3.3% | 18.9hPa | 2.7V | 03:25:56 | 01:43:01 | 00:00:00 | |
| DL1XH-west | 2026-08-30 18:24:52 | 50.02951 | 8.39554 | 215° | 26km/h | 27271m | 4m/s | -48.9°C | 0.1% | 18.9hPa | 2.6V | 03:26:06 | 01:43:05 | 00:00:00 | |
| DF8AY | 2026-08-30 18:24:51 | 50.02956 | 8.39559 | 208° | 22km/h | 27267m | 4.4m/s | -48.9°C | 0.2% | 18.9hPa | 2.6V | 03:26:06 | 01:43:04 | 00:00:00 | |
| DM0DOS-11 | 2026-08-30 18:24:50 | 50.02972 | 8.39551 | 138° | 13km/h | 27236m | 5.6m/s | -48.7°C | 3.3% | 19hPa | 2.6V | 03:25:59 | 01:42:58 | 00:00:00 | |
| BIOWL1-15 | 2026-08-30 18:24:49 | 50.02964 | 8.39562 | 176° | 11km/h | 27256m | 5.9m/s | -48.8°C | 0% | 18.9hPa | 2.7V | 03:26:06 | 01:43:02 | 00:00:00 | |
| HSKMA3-T | 2026-08-30 18:24:48 | 50.02966 | 8.39561 | 141° | 9km/h | 27251m | 5.1m/s | -48.7°C | 0.1% | 18.9hPa | 2.7V | 03:26:06 | 01:43:01 | 00:00:00 | |
| AA1-15 | 2026-08-30 18:24:47 | 50.02968 | 8.39558 | 125° | 11km/h | 27246m | 4.7m/s | -48.7°C | 0.2% | 18.9hPa | 2.6V | 03:26:06 | 01:43:00 | 00:00:00 | |
| DB0NH | 2026-08-30 18:24:47 | 50.02968 | 8.39558 | 125° | 13km/h | 27246m | 4.6m/s | -48.7°C | 3.3% | 18.9hPa | 2.6V | 00:00:00 | 01:43:00 | 00:00:00 | |
| DN1GJH-1 | 2026-08-30 18:24:46 | 50.02968 | 8.39558 | 126° | 11km/h | 27246m | 4.7m/s | -48.7°C | 0.8% | 18.9hPa | 2.6V | 03:26:00 | 00:00:00 | 00:00:00 | |
| DO3MHA-11 | 2026-08-30 18:24:44 | 50.02974 | 8.39548 | 158° | 11km/h | 27231m | 5.4m/s | -48.6°C | 3.2% | 18.9hPa | 2.6V | 00:00:00 | 01:42:57 | 00:00:00 | |
| DL1XH1-15 | 2026-08-30 18:24:43 | 50.02992 | 8.39558 | 236° | 9km/h | 27199m | 4.8m/s | -48.8°C | 3.3% | 19.1hPa | 2.6V | 03:26:06 | 01:42:51 | 00:00:00 | |
| DL1XH-west | 2026-08-30 18:24:42 | 50.02982 | 8.39547 | 189° | 16km/h | 27220m | 4.6m/s | -48.6°C | 0% | 19hPa | 2.7V | 03:26:06 | 01:42:55 | 00:00:00 | |
| DD1CC8 | 2026-08-30 18:24:41 | 50.02985 | 8.39549 | 202° | 15km/h | 27216m | 4.7m/s | -48.7°C | 0.8% | 19.0hPa | 2.6V | 00:00:00 | 00:00:00 | 00:00:00 | |
| DM0DOS-11 | 2026-08-30 18:24:40 | 50.02997 | 8.39561 | 164° | 11km/h | 27184m | 5.8m/s | -48.9°C | 3.4% | 19.1hPa | 2.6V | 03:26:09 | 01:42:48 | 00:00:00 | |
| HSKMA3-T | 2026-08-30 18:24:38 | 50.02992 | 8.39558 | 237° | 9km/h | 27199m | 4.8m/s | -48.8°C | 0.1% | 19.1hPa | 2.6V | 03:26:06 | 01:42:51 | 00:00:00 | |
| AA1-15 | 2026-08-30 18:24:36 | 50.02995 | 8.39561 | 190° | 7km/h | 27189m | 5.5m/s | -48.9°C | 0.2% | 19.1hPa | 2.7V | 03:26:57 | 01:42:49 | 00:00:00 | |
| DL8OAI-8 | 2026-08-30 18:24:35 | 50.02995 | 8.39561 | 191° | 7km/h | 27189m | 5.5m/s | -48.9°C | 0.9% | 19.1hPa | 2.6V | 03:26:00 | 00:00:00 | 00:00:00 | |
| DO3MHA-11 | 2026-08-30 18:24:34 | 50.03000 | 8.39559 | 150° | 15km/h | 27178m | 5.0m/s | -48.9°C | 3.4% | 19.1hPa | 2.6V | 00:00:00 | 01:42:47 | 00:00:00 | |
| DL1XH1-15 | 2026-08-30 18:24:33 | 50.03012 | 8.39527 | 120° | 11km/h | 27147m | 5m/s | -49.1°C | 3.4% | 19.2hPa | 2.6V | 03:26:16 | 01:42:41 | 00:00:00 | |
| DL1XH-west | 2026-08-30 18:24:32 | 50.03006 | 8.39550 | 126° | 18km/h | 27168m | 5.2m/s | -49°C | 0.2% | 19.2hPa | 2.7V | 03:26:57 | 01:42:45 | 00:00:00 | |
| DB0UT-7 | 2026-08-30 18:24:32 | 50.03006 | 8.39550 | 126° | 13km/h | 27169m | 5.2m/s | -49.0°C | 3.4% | 19.1hPa | 2.7V | 00:00:00 | 00:00:00 | 00:00:00 | |
| DK5PH-5 | 2026-08-30 18:24:31 | 50.03008 | 8.39543 | 115° | 11km/h | 27163m | 5.8m/s | -49.0°C | 3.4% | 19.1hPa | 2.7V | 03:26:00 | 01:42:44 | 00:00:00 | |
| DM0DOS-11 | 2026-08-30 18:24:30 | 50.03019 | 8.39523 | 182° | 11km/h | 27131m | 4.8m/s | -49.1°C | 3.3% | 19.3hPa | 2.7V | 03:26:19 | 01:42:38 | 00:00:00 | |
| DF8AY | 2026-08-30 18:24:28 | 50.03012 | 8.39527 | 120° | 11km/h | 27148m | 5m/s | -49.1°C | 0.1% | 19.2hPa | 2.6V | 03:26:57 | 01:42:41 | 00:00:00 | |
| HSKMA3-T | 2026-08-30 18:24:27 | 50.03014 | 8.39524 | 146° | 9km/h | 27142m | 6.3m/s | -49.1°C | 0.2% | 19.2hPa | 2.6V | 03:26:57 | 01:42:40 | 00:00:00 | |
| AA1-15 | 2026-08-30 18:24:25 | 50.03019 | 8.39523 | 182° | 11km/h | 27131m | 4.8m/s | -49.2°C | 0.1% | 19.3hPa | 2.7V | 03:26:57 | 01:42:38 | 00:00:00 | |
| DL1XH-west | 2026-08-30 18:24:22 | 50.03025 | 8.39523 | 152° | 4km/h | 27115m | 5.2m/s | -49.3°C | 0.2% | 19.3hPa | 2.6V | 03:26:57 | 01:42:35 | 00:00:00 | |
| DH7VM-15 | 2026-08-30 18:24:21 | 50.03025 | 8.39523 | 153° | 4km/h | 27115m | 5.2m/s | -49.3°C | 0.8% | 19.3hPa | 2.6V | 00:00:00 | 00:00:00 | 00:00:00 | |
| DM0DOS-11 | 2026-08-30 18:24:20 | 50.03039 | 8.39490 | 112° | 16km/h | 27079m | 5.9m/s | -49.2°C | 3.4% | 19.4hPa | 2.6V | 03:26:29 | 01:42:28 | 00:00:00 | |
| BIOWL1-15 | 2026-08-30 18:24:17 | 50.03034 | 8.39503 | 127° | 20km/h | 27089m | 4.7m/s | -49.3°C | 0.2% | 19.4hPa | 2.6V | 03:26:57 | 01:42:30 | 00:00:00 | |
| AA1-15 | 2026-08-30 18:24:14 | 50.03041 | 8.39485 | 101° | 15km/h | 27073m | 5.8m/s | -49.2°C | 0.2% | 19.5hPa | 2.7V | 03:26:57 | 01:42:27 | 00:00:00 | |
| DL1XH-west | 2026-08-30 18:24:12 | 50.03041 | 8.39476 | 88° | 9km/h | 27063m | 5m/s | -49.3°C | 0.2% | 19.5hPa | 2.7V | 03:26:57 | 01:42:25 | 00:00:00 | |
| HSKMA3-T | 2026-08-30 18:24:07 | 50.03047 | 8.39462 | 133° | 9km/h | 27038m | 4.8m/s | -49.4°C | 0.2% | 19.6hPa | 2.7V | 03:26:57 | 01:42:20 | 00:00:00 | |
| BIOWL1-15 | 2026-08-30 18:24:06 | 50.03048 | 8.39459 | 113° | 7km/h | 27032m | 5.6m/s | -49.4°C | 0.3% | 19.6hPa | 2.6V | 03:26:57 | 01:42:19 | 00:00:00 | |
| DF8AY | 2026-08-30 18:24:04 | 50.03049 | 8.39453 | 93° | 11km/h | 27022m | 4.8m/s | -49.3°C | 0.2% | 19.6hPa | 2.6V | 03:26:57 | 01:42:17 | 00:00:00 | |
| AA1-15 | 2026-08-30 18:24:03 | 50.03049 | 8.39448 | 102° | 13km/h | 27017m | 4.6m/s | -49.3°C | 0.2% | 19.6hPa | 2.7V | 03:26:57 | 01:42:16 | 00:00:00 | |
| DL1XH-west | 2026-08-30 18:24:01 | 50.03052 | 8.39436 | 119° | 20km/h | 27006m | 5.9m/s | -49.3°C | 0.2% | 19.7hPa | 2.7V | 03:26:57 | 01:42:14 | 00:00:00 | |
| DK5PH-5 | 2026-08-30 18:24:01 | 50.03052 | 8.39436 | 120° | 18km/h | 27007m | 5.8m/s | -49.2°C | 3.4% | 19.6hPa | 2.6V | 00:00:00 | 01:42:14 | 00:00:00 | |
| DM0DOS-11 | 2026-08-30 18:24:00 | 50.03060 | 8.39392 | 75° | 16km/h | 26976m | 3.9m/s | -49.2°C | 3.4% | 19.8hPa | 2.6V | 03:26:49 | 01:42:08 | 00:00:00 | |
| BIOWL1-15 | 2026-08-30 18:23:57 | 50.03060 | 8.39392 | 76° | 16km/h | 26976m | 3.9m/s | -49.2°C | 0.1% | 19.8hPa | 2.6V | 03:26:57 | 01:42:08 | 00:00:00 | |
| HSKMA3-T | 2026-08-30 18:23:56 | 50.03061 | 8.39398 | 84° | 18km/h | 26980m | 4.8m/s | -49.2°C | 0.2% | 19.7hPa | 2.7V | 03:26:57 | 01:42:09 | 00:00:00 | |
| EDDB2-11 | 2026-08-30 18:23:55 | 50.03060 | 8.39392 | 75° | 15km/h | 26976m | 3.9m/s | -49.2°C | 0.8% | 19.8hPa | 2.6V | 00:00:00 | 00:00:00 | 00:00:00 | |
| DO3MHA-11 | 2026-08-30 18:23:54 | 50.03059 | 8.39386 | 77° | 15km/h | 26971m | 5.0m/s | -49.1°C | 3.4% | 19.7hPa | 2.6V | 00:00:00 | 01:42:07 | 00:00:00 | |
| DL1XH1-15 | 2026-08-30 18:23:53 | 50.03062 | 8.39357 | 89° | 16km/h | 26940m | 5.8m/s | -49.3°C | 3.4% | 19.8hPa | 2.6V | 03:26:56 | 01:42:01 | 00:00:00 | |
| DF8AY | 2026-08-30 18:23:53 | 50.03059 | 8.39381 | 88° | 11km/h | 26966m | 5.7m/s | -49.1°C | 0.2% | 19.8hPa | 2.6V | 03:26:57 | 01:42:06 | 00:00:00 | |
| AA1-15 | 2026-08-30 18:23:52 | 50.03059 | 8.39377 | 105° | 11km/h | 26960m | 5.2m/s | -49.1°C | 0.2% | 19.8hPa | 2.7V | 03:26:57 | 01:42:05 | 00:00:00 | |
| DL1XH-west | 2026-08-30 18:23:50 | 50.03061 | 8.39368 | 107° | 13km/h | 26951m | 4.4m/s | -49.2°C | 0.2% | 19.8hPa | 2.7V | 03:26:57 | 01:42:03 | 00:00:00 | |
| HSKMA3-T | 2026-08-30 18:23:46 | 50.03062 | 8.39343 | 93° | 20km/h | 26930m | 5m/s | -49.3°C | 0.2% | 19.9hPa | 2.6V | 03:27:48 | 01:41:59 | 00:00:00 | |
| DL3AQ-11 | 2026-08-30 18:23:46 | 50.03062 | 8.39335 | 100° | 20km/h | 26924m | 6.0m/s | -49.3°C | 0.8% | 19.9hPa | 2.7V | 00:00:00 | 00:00:00 | 00:00:00 | |
| BIOWL1-15 | 2026-08-30 18:23:44 | 50.03064 | 8.39326 | 107° | 22km/h | 26918m | 5.6m/s | -49.3°C | 0.2% | 19.9hPa | 2.7V | 03:27:48 | 01:41:57 | 00:00:00 | |
| DO8TBO-1 | 2026-08-30 18:23:44 | 50.03064 | 8.39326 | 108° | 24km/h | 26919m | 5.6m/s | -49.2°C | 3.4% | 19.9hPa | 2.7V | 00:00:00 | 01:41:57 | 00:00:00 | |
| DL1XH1-15 | 2026-08-30 18:23:43 | 50.03065 | 8.39278 | 75° | 22km/h | 26888m | 4.5m/s | -49.2°C | 3.4% | 20hPa | 2.7V | 03:27:06 | 01:41:51 | 00:00:00 | |
| DF8AY | 2026-08-30 18:23:43 | 50.03066 | 8.39318 | 108° | 22km/h | 26913m | 4.5m/s | -49.2°C | 0.2% | 19.9hPa | 2.7V | 03:27:48 | 01:41:56 | 00:00:00 | |
| AA1-15 | 2026-08-30 18:23:41 | 50.03068 | 8.39302 | 93° | 20km/h | 26904m | 5.6m/s | -49.2°C | 0.2% | 20hPa | 2.6V | 03:27:48 | 01:41:54 | 00:00:00 | |
| DL1XH-west | 2026-08-30 18:23:39 | 50.03066 | 8.39286 | 75° | 22km/h | 26893m | 4.7m/s | -49.2°C | 0.2% | 20hPa | 2.7V | 03:27:48 | 01:41:52 | 00:00:00 | |
| BIOWL1-15 | 2026-08-30 18:23:38 | 50.03065 | 8.39242 | 97° | 24km/h | 26868m | 4.3m/s | -49.3°C | 0.2% | 20.1hPa | 2.7V | 03:27:48 | 01:41:47 | 00:00:00 | |
| HSKMA3-T | 2026-08-30 18:23:35 | 50.03064 | 8.39251 | 98° | 24km/h | 26872m | 5m/s | -49.2°C | 0.2% | 20.1hPa | 2.6V | 03:27:48 | 01:41:48 | 00:00:00 | |
| DF8AY | 2026-08-30 18:23:32 | 50.03065 | 8.39224 | 80° | 24km/h | 26858m | 5.9m/s | -49.3°C | 0.2% | 20.1hPa | 2.7V | 03:27:48 | 01:41:45 | 00:00:00 | |
| AA1-15 | 2026-08-30 18:23:30 | 50.03060 | 8.39206 | 57° | 27km/h | 26846m | 5.3m/s | -49.4°C | 0.2% | 20.1hPa | 2.6V | 03:27:48 | 01:41:43 | 00:00:00 | |
| DL1XH-west | 2026-08-30 18:23:29 | 50.03056 | 8.39197 | 54° | 27km/h | 26841m | 4.7m/s | -49.4°C | 0.2% | 20.2hPa | 2.6V | 03:27:48 | 01:41:42 | 00:00:00 | |
| BIOWL1-15 | 2026-08-30 18:23:26 | 50.03043 | 8.39148 | 81° | 29km/h | 26816m | 4.6m/s | -49.4°C | 0.2% | 20.2hPa | 2.6V | 03:27:48 | 01:41:37 | 00:00:00 | |
| HSKMA3-T | 2026-08-30 18:23:25 | 50.03044 | 8.39159 | 80° | 27km/h | 26821m | 4.8m/s | -49.4°C | 0.2% | 20.2hPa | 2.6V | 03:27:48 | 01:41:38 | 00:00:00 | |
| DF8AY | 2026-08-30 18:23:21 | 50.03037 | 8.39114 | 69° | 31km/h | 26800m | 4.7m/s | -49.5°C | 0.2% | 20.3hPa | 2.7V | 03:27:48 | 01:41:34 | 00:00:00 | |
| DM0DOS-11 | 2026-08-30 18:23:20 | 50.03020 | 8.39054 | 51° | 26km/h | 26771m | 5.9m/s | -49.4°C | 3.4% | 20.4hPa | 2.7V | 03:27:29 | 01:41:28 | 00:00:00 | |
| AA1-15 | 2026-08-30 18:23:20 | 50.03034 | 8.39102 | 69° | 31km/h | 26796m | 4.4m/s | -49.5°C | 0.3% | 20.3hPa | 2.6V | 03:27:48 | 01:41:33 | 00:00:00 | |
| DL1XH-west | 2026-08-30 18:23:18 | 50.03029 | 8.39080 | 71° | 27km/h | 26785m | 5.6m/s | -49.5°C | 0.2% | 20.3hPa | 2.6V | 03:27:48 | 01:41:31 | 00:00:00 | |
| BIOWL1-15 | 2026-08-30 18:23:15 | 50.03011 | 8.39040 | 42° | 27km/h | 26759m | 4.8m/s | -49.4°C | 0.3% | 20.4hPa | 2.6V | 03:27:48 | 01:41:26 | 00:00:00 | |
| HSKMA3-T | 2026-08-30 18:23:15 | 50.03020 | 8.39054 | 51° | 26km/h | 26771m | 5.9m/s | -49.4°C | 0.2% | 20.4hPa | 2.7V | 03:27:48 | 01:41:28 | 00:00:00 | |
| DO3MHA-11 | 2026-08-30 18:23:14 | 50.03016 | 8.39047 | 44° | 27km/h | 26765m | 6.0m/s | -49.3°C | 3.5% | 20.3hPa | 2.6V | 00:00:00 | 01:41:27 | 00:00:00 | |
| DL1XH1-15 | 2026-08-30 18:23:13 | 50.02994 | 8.38996 | 70° | 27km/h | 26734m | 4.4m/s | -49.3°C | 3.4% | 20.5hPa | 2.6V | 03:27:36 | 01:41:21 | 00:00:00 | |
| DF8AY | 2026-08-30 18:23:11 | 50.02999 | 8.39016 | 65° | 26km/h | 26743m | 5.7m/s | -49.3°C | 0.2% | 20.5hPa | 2.7V | 03:27:48 | 01:41:23 | 00:00:00 | |
| DM0DOS-11 | 2026-08-30 18:23:10 | 50.02984 | 8.38966 | 52° | 29km/h | 26718m | 4.9m/s | -49.3°C | 3.3% | 20.5hPa | 2.7V | 03:27:39 | 01:41:18 | 00:00:00 | |
| AA1-15 | 2026-08-30 18:23:09 | 50.02996 | 8.39006 | 71° | 27km/h | 26738m | 4.7m/s | -49.3°C | 0.1% | 20.5hPa | 2.7V | 03:27:48 | 01:41:22 | 00:00:00 | |
| DL1XH-west | 2026-08-30 18:23:07 | 50.02991 | 8.38986 | 66° | 29km/h | 26729m | 5.3m/s | -49.3°C | 0.2% | 20.5hPa | 2.6V | 03:27:48 | 01:41:20 | 00:00:00 | |
| HSKMA3-T | 2026-08-30 18:23:04 | 50.02979 | 8.38957 | 49° | 27km/h | 26714m | 4.5m/s | -49.3°C | 0.1% | 20.6hPa | 2.7V | 03:27:48 | 01:41:17 | 00:00:00 | |
| DO3MHA-11 | 2026-08-30 18:23:04 | 50.02979 | 8.38957 | 50° | 20km/h | 26714m | 4.4m/s | -49.2°C | 3.4% | 20.5hPa | 2.7V | 00:00:00 | 01:41:17 | 00:00:00 | |
| DL1XH1-15 | 2026-08-30 18:23:03 | 50.02959 | 8.38921 | 37° | 16km/h | 26683m | 5.9m/s | -49.4°C | 3.4% | 20.7hPa | 2.7V | 03:27:46 | 01:41:11 | 00:00:00 | |
| BIOWL1-15 | 2026-08-30 18:23:03 | 50.02975 | 8.38949 | 48° | 26km/h | 26709m | 5m/s | -49.3°C | 0.2% | 20.6hPa | 2.7V | 03:27:48 | 01:41:16 | 00:00:00 | |
| DK5PH-5 | 2026-08-30 18:23:01 | 50.02967 | 8.38935 | 54° | 18km/h | 26698m | 5.0m/s | -49.3°C | 3.5% | 20.6hPa | 2.6V | 00:00:00 | 01:41:14 | 00:00:00 | |
| DM0DOS-11 | 2026-08-30 18:23:00 | 50.02947 | 8.38909 | 39° | 20km/h | 26668m | 4.1m/s | -49.4°C | 3.4% | 20.7hPa | 2.6V | 03:27:49 | 01:41:08 | 00:00:00 | |
| DF8AY | 2026-08-30 18:22:59 | 50.02962 | 8.38925 | 47° | 16km/h | 26689m | 4.7m/s | -49.4°C | 0.2% | 20.6hPa | 2.7V | 03:27:48 | 01:41:12 | 00:00:00 | |
| BIOWL1-15 | 2026-08-30 18:22:56 | 50.02938 | 8.38889 | 67° | 24km/h | 26653m | 4.7m/s | -49.4°C | 0.2% | 20.8hPa | 2.7V | 03:28:39 | 01:41:05 | 00:00:00 | |
| DL1XH-west | 2026-08-30 18:22:56 | 50.02951 | 8.38913 | 31° | 18km/h | 26672m | 4.6m/s | -49.4°C | 0.2% | 20.7hPa | 2.6V | 03:27:48 | 01:41:09 | 00:00:00 | |
| HSKMA3-T | 2026-08-30 18:22:54 | 50.02944 | 8.38904 | 50° | 20km/h | 26663m | 5.2m/s | -49.4°C | 0.1% | 20.7hPa | 2.7V | 03:28:39 | 01:41:07 | 00:00:00 | |
| DO3MHA-11 | 2026-08-30 18:22:54 | 50.02944 | 8.38903 | 50° | 24km/h | 26664m | 5.2m/s | -49.3°C | 3.4% | 20.7hPa | 2.6V | 03:27:00 | 01:41:07 | 00:00:00 | |
| DL1XH1-15 | 2026-08-30 18:22:53 | 50.02923 | 8.38854 | 38° | 27km/h | 26633m | 4.5m/s | -49.5°C | 3.4% | 20.8hPa | 2.6V | 03:27:56 | 01:41:01 | 00:00:00 | |
| DF8AY | 2026-08-30 18:22:48 | 50.02923 | 8.38854 | 38° | 27km/h | 26633m | 4.5m/s | -49.5°C | 0.2% | 20.8hPa | 2.6V | 03:28:39 | 01:41:01 | 00:00:00 | |
| DL1XH-west | 2026-08-30 18:22:46 | 50.02912 | 8.38844 | 27° | 20km/h | 26623m | 5.3m/s | -49.6°C | 0.2% | 20.9hPa | 2.7V | 03:28:39 | 01:40:59 | 00:00:00 | |
| DO1YAY-16 | 2026-08-30 18:22:45 | 50.02908 | 8.38841 | 20° | 15km/h | 26618m | 5.4m/s | -49.5°C | 0.8% | 20.9hPa | 2.6V | 00:00:00 | 00:00:00 | 00:00:00 | |
| HSKMA3-T | 2026-08-30 18:22:44 | 50.02905 | 8.38840 | 12° | 11km/h | 26613m | 4.7m/s | -49.5°C | 0.2% | 20.9hPa | 2.6V | 03:28:39 | 01:40:57 | 00:00:00 | |
| BIOWL1-15 | 2026-08-30 18:22:41 | 50.02896 | 8.38838 | 5° | 15km/h | 26598m | 5.7m/s | -49.6°C | 0.2% | 20.9hPa | 2.7V | 03:28:39 | 01:40:54 | 00:00:00 | |
| DF8AY | 2026-08-30 18:22:37 | 50.02882 | 8.38829 | 48° | 15km/h | 26578m | 5.9m/s | -49.8°C | 0.2% | 21hPa | 2.6V | 03:28:39 | 01:40:50 | 00:00:00 | |
| DL1XH-west | 2026-08-30 18:22:36 | 50.02880 | 8.38825 | 55° | 15km/h | 26573m | 5.1m/s | -49.8°C | 0.2% | 21hPa | 2.7V | 03:28:39 | 01:40:49 | 00:00:00 | |
| HSKMA3-T | 2026-08-30 18:22:34 | 50.02876 | 8.38817 | 41° | 15km/h | 26564m | 4.3m/s | -49.8°C | 0.3% | 21hPa | 2.7V | 03:28:39 | 01:40:47 | 00:00:00 | |
| DO3MHA-11 | 2026-08-30 18:22:34 | 50.02876 | 8.38817 | 41° | 15km/h | 26564m | 4.3m/s | -49.8°C | 3.6% | 21.0hPa | 2.7V | 00:00:00 | 01:40:47 | 00:00:00 | |
| DL1XH1-15 | 2026-08-30 18:22:33 | 50.02847 | 8.38813 | 352° | 15km/h | 26533m | 5.3m/s | -49.8°C | 3.5% | 21.1hPa | 2.7V | 03:28:16 | 01:40:41 | 00:00:00 | |
| BIOWL1-15 | 2026-08-30 18:22:30 | 50.02857 | 8.38811 | 356° | 24km/h | 26543m | 4.2m/s | -49.8°C | 0.3% | 21.1hPa | 2.6V | 03:28:39 | 01:40:43 | 00:00:00 | |
| DF8AY | 2026-08-30 18:22:27 | 50.02844 | 8.38813 | 354° | 9km/h | 26529m | 5.2m/s | -49.8°C | 0.3% | 21.2hPa | 2.7V | 03:28:39 | 01:40:40 | 00:00:00 | |
| AA1-15 | 2026-08-30 18:22:26 | 50.02843 | 8.38813 | 7° | 4km/h | 26524m | 4.6m/s | -49.7°C | 0.2% | 21.2hPa | 2.6V | 03:28:39 | 01:40:39 | 00:00:00 | |
| DL1XH-west | 2026-08-30 18:22:25 | 50.02842 | 8.38813 | 37° | 2km/h | 26519m | 4.6m/s | -49.7°C | 0.2% | 21.2hPa | 2.6V | 03:28:39 | 01:40:38 | 00:00:00 | |
| HSKMA3-T | 2026-08-30 18:22:23 | 50.02840 | 8.38811 | 43° | 7km/h | 26508m | 5.4m/s | -49.7°C | 0.2% | 21.2hPa | 2.7V | 03:28:39 | 01:40:36 | 00:00:00 | |
| EDDB2-11 | 2026-08-30 18:22:22 | 50.02839 | 8.38809 | 44° | 9km/h | 26504m | 4.8m/s | -49.7°C | 0.8% | 21.2hPa | 2.6V | 00:00:00 | 00:00:00 | 00:00:00 | |
| DM0DOS-11 | 2026-08-30 18:22:20 | 50.02821 | 8.38783 | 356° | 16km/h | 26468m | 5.9m/s | -49.7°C | 3.4% | 21.4hPa | 2.6V | 03:28:29 | 01:40:28 | 00:00:00 | |
| BIOWL1-15 | 2026-08-30 18:22:20 | 50.02835 | 8.38801 | 58° | 15km/h | 26493m | 5.5m/s | -49.7°C | 0.2% | 21.2hPa | 2.6V | 03:28:39 | 01:40:33 | 00:00:00 | |
| AA1-15 | 2026-08-30 18:22:16 | 50.02825 | 8.38783 | 18° | 15km/h | 26474m | 5.5m/s | -49.7°C | 0.2% | 21.3hPa | 2.7V | 03:28:39 | 01:40:29 | 00:00:00 | |
| DL1XH-west | 2026-08-30 18:22:14 | 50.02817 | 8.38784 | 337° | 16km/h | 26463m | 4.8m/s | -49.7°C | 0.2% | 21.4hPa | 2.6V | 03:28:39 | 01:40:27 | 00:00:00 | |
| HSKMA3-T | 2026-08-30 18:22:12 | 50.02811 | 8.38791 | 306° | 11km/h | 26454m | 5.2m/s | -49.7°C | 0.3% | 21.4hPa | 2.7V | 03:28:39 | 01:40:25 | 00:00:00 | |
| DG1MJG | 2026-08-30 18:22:11 | 50.02810 | 8.38794 | 276° | 7km/h | 26449m | 5.5m/s | 0°C | 0% | 0hPa | 2.7V | 00:00:00 | 00:00:00 | 00:00:00 | |
| DM0DOS-11 | 2026-08-30 18:22:10 | 50.02814 | 8.38794 | 21° | 5km/h | 26420m | 4.5m/s | -50°C | 3.5% | 21.5hPa | 2.7V | 03:28:39 | 01:40:18 | 00:00:00 | |
| BIOWL1-15 | 2026-08-30 18:22:10 | 50.02811 | 8.38797 | 224° | 5km/h | 26443m | 4.6m/s | -49.8°C | 0.2% | 21.4hPa | 2.6V | 03:28:39 | 01:40:23 | 00:00:00 | |
| DF8AY | 2026-08-30 18:22:09 | 50.02812 | 8.38798 | 183° | 7km/h | 26439m | 3.8m/s | -49.8°C | 0.2% | 21.5hPa | 2.6V | 03:28:39 | 01:40:22 | 00:00:00 | |
| AA1-15 | 2026-08-30 18:22:05 | 50.02814 | 8.38794 | 22° | 5km/h | 26420m | 4.5m/s | -50°C | 0.3% | 21.5hPa | 2.7V | 03:28:39 | 01:40:18 | 00:00:00 | |
| DO3MHA-11 | 2026-08-30 18:22:04 | 50.02812 | 8.38793 | 360° | 7km/h | 26415m | 4.5m/s | -50.0°C | 3.5% | 21.5hPa | 2.6V | 00:00:00 | 01:40:17 | 00:00:00 | |
| DL1XH1-15 | 2026-08-30 18:22:03 | 50.02805 | 8.38807 | 316° | 9km/h | 26384m | 5.3m/s | -50.1°C | 3.5% | 21.6hPa | 2.7V | 03:28:46 | 01:40:11 | 00:00:00 | |
| DL1XH-west | 2026-08-30 18:22:03 | 50.02811 | 8.38794 | 335° | 5km/h | 26410m | 5.4m/s | -50°C | 0.3% | 21.5hPa | 2.6V | 03:29:30 | 01:40:16 | 00:00:00 | |
| HSKMA3-T | 2026-08-30 18:22:01 | 50.02808 | 8.38798 | 294° | 7km/h | 26400m | 4.5m/s | -50.1°C | 0.3% | 21.6hPa | 2.6V | 03:29:30 | 01:40:14 | 00:00:00 | |
| DB0UT-7 | 2026-08-30 18:22:01 | 50.02808 | 8.38798 | 294° | 7km/h | 26400m | 4.4m/s | -50.0°C | 3.5% | 21.5hPa | 2.6V | 00:00:00 | 01:40:14 | 00:00:00 | |
| DM0DOS-11 | 2026-08-30 18:22:00 | 50.02802 | 8.38809 | 106° | 4km/h | 26371m | 4.7m/s | -50.1°C | 3.5% | 21.7hPa | 2.6V | 03:28:49 | 01:40:08 | 00:00:00 | |
| DF8AY | 2026-08-30 18:21:59 | 50.02807 | 8.38804 | 302° | 9km/h | 26390m | 5.7m/s | -50.1°C | 0.3% | 21.6hPa | 2.7V | 03:29:30 | 01:40:12 | 00:00:00 | |
| AA1-15 | 2026-08-30 18:21:55 | 50.02802 | 8.38809 | 106° | 4km/h | 26371m | 4.7m/s | -50.1°C | 0.3% | 21.7hPa | 2.6V | 03:29:30 | 01:40:08 | 00:00:00 | |
| DL1XH-west | 2026-08-30 18:21:53 | 50.02804 | 8.38805 | 137° | 11km/h | 26360m | 5.4m/s | -50.1°C | 0.2% | 21.7hPa | 2.7V | 03:29:30 | 01:40:06 | 00:00:00 | |
| HSKMA3-T | 2026-08-30 18:21:51 | 50.02808 | 8.38798 | 119° | 11km/h | 26351m | 5m/s | -50.1°C | 0.3% | 21.7hPa | 2.6V | 03:29:30 | 01:40:04 | 00:00:00 | |
| BIOWL1-15 | 2026-08-30 18:21:48 | 50.02807 | 8.38791 | 11° | 5km/h | 26336m | 4.4m/s | -50.2°C | 0.2% | 21.8hPa | 2.7V | 03:29:30 | 01:40:01 | 00:00:00 | |
| DC4HF-4 | 2026-08-30 18:21:47 | 50.02806 | 8.38791 | 329° | 5km/h | 26331m | 4.6m/s | -50.3°C | 0.8% | 21.8hPa | 2.6V | 00:00:00 | 00:00:00 | 00:00:00 | |
| DL3AQ-11 | 2026-08-30 18:21:45 | 50.02804 | 8.38796 | 274° | 9km/h | 26320m | 5.2m/s | -50.3°C | 0.9% | 21.9hPa | 2.6V | 00:00:00 | 00:00:00 | 00:00:00 | |
| AA1-15 | 2026-08-30 18:21:44 | 50.02804 | 8.38801 | 265° | 11km/h | 26316m | 4.5m/s | -50.3°C | 0.3% | 21.9hPa | 2.6V | 03:29:30 | 01:39:57 | 00:00:00 | |
| DO3MHA-11 | 2026-08-30 18:21:44 | 50.02804 | 8.38801 | 265° | 7km/h | 26316m | 4.5m/s | -50.2°C | 3.6% | 21.8hPa | 2.6V | 00:00:00 | 01:39:57 | 00:00:00 | |
| DL1XH1-15 | 2026-08-30 18:21:43 | 50.02803 | 8.38808 | 108° | 7km/h | 26287m | 5.2m/s | -50.3°C | 3.5% | 22hPa | 2.6V | 03:29:06 | 01:39:51 | 00:00:00 | |
| DL1XH-west | 2026-08-30 18:21:42 | 50.02805 | 8.38808 | 276° | 7km/h | 26306m | 5.2m/s | -50.3°C | 0.3% | 21.9hPa | 2.7V | 03:29:30 | 01:39:55 | 00:00:00 | |
| HSKMA3-T | 2026-08-30 18:21:41 | 50.02804 | 8.38811 | 307° | 4km/h | 26301m | 5.6m/s | -50.3°C | 0.2% | 21.9hPa | 2.7V | 03:29:30 | 01:39:54 | 00:00:00 | |
| BIOWL1-15 | 2026-08-30 18:21:37 | 50.02804 | 8.38805 | 137° | 9km/h | 26281m | 5.7m/s | -50.3°C | 0.3% | 22hPa | 2.6V | 03:29:30 | 01:39:50 | 00:00:00 | |
| DL0LBS | 2026-08-30 18:21:36 | 50.02806 | 8.38803 | 152° | 11km/h | 26276m | 4.8m/s | -50.3°C | 0.9% | 22.0hPa | 2.6V | 03:29:00 | 00:00:00 | 00:00:00 | |
| DO3MHA-11 | 2026-08-30 18:21:34 | 50.02810 | 8.38800 | 161° | 7km/h | 26266m | 5.1m/s | -50.2°C | 3.5% | 22.0hPa | 2.6V | 03:29:00 | 01:39:47 | 00:00:00 | |
| DL1XH-15 | 2026-08-30 18:21:33 | 50.02818 | 8.38811 | 228° | 13km/h | 26236m | 4.5m/s | -50.3°C | 3.5% | 22.1hPa | 2.6V | 03:29:16 | 01:39:41 | 00:00:00 | |
| AA1-15 | 2026-08-30 18:21:33 | 50.02812 | 8.38799 | 168° | 4km/h | 26261m | 5.7m/s | -50.2°C | 0.3% | 22hPa | 2.6V | 03:29:30 | 01:39:46 | 00:00:00 | |
| DL1XH-west | 2026-08-30 18:21:32 | 50.02813 | 8.38800 | 228° | 4km/h | 26256m | 4.5m/s | -50.3°C | 0.3% | 22.1hPa | 2.6V | 03:29:30 | 01:39:45 | 00:00:00 | |
| HSKMA3-T | 2026-08-30 18:21:30 | 50.02814 | 8.38804 | 244° | 9km/h | 26246m | 5.3m/s | -50.3°C | 0.2% | 22.1hPa | 2.7V | 03:29:30 | 01:39:43 | 00:00:00 | |
| BIOWL1-15 | 2026-08-30 18:21:28 | 50.02821 | 8.38816 | 212° | 5km/h | 26227m | 5.2m/s | -50.4°C | 0.2% | 22.2hPa | 2.6V | 03:29:30 | 01:39:39 | 00:00:00 | |
| DJ2DS-15 | 2026-08-30 18:21:28 | 50.02817 | 8.38811 | 229° | 5km/h | 26236m | 4.5m/s | -50.3°C | 3.5% | 22.1hPa | 2.7V | 03:29:00 | 01:39:41 | 00:00:00 | |
| DD1CC2-15 | 2026-08-30 18:21:27 | 50.02818 | 8.38811 | 230° | 13km/h | 26236m | 4.5m/s | -50.3°C | 0.9% | 22.1hPa | 2.7V | 03:29:00 | 00:00:00 | 00:00:00 | |
| DJ2KF-10 | 2026-08-30 18:21:26 | 50.02821 | 8.38816 | 212° | 4km/h | 26227m | 5.1m/s | -50.4°C | 3.5% | 22.1hPa | 2.7V | 00:00:00 | 01:39:39 | 00:00:00 | |
| DF1GD-15 | 2026-08-30 18:21:25 | 50.02821 | 8.38816 | 213° | 5km/h | 26227m | 5.2m/s | -50.4°C | 0.9% | 22.2hPa | 2.7V | 03:29:00 | 00:00:00 | 00:00:00 | |
| DO3MHA-11 | 2026-08-30 18:21:24 | 50.02823 | 8.38816 | 97° | 5km/h | 26216m | 4.9m/s | -50.4°C | 3.6% | 22.2hPa | 2.7V | 00:00:00 | 01:39:37 | 00:00:00 | |
| DL1XH1-15 | 2026-08-30 18:21:23 | 50.02827 | 8.38806 | 182° | 5km/h | 26187m | 4.4m/s | -50.6°C | 3.6% | 22.3hPa | 2.7V | 03:29:26 | 01:39:31 | 00:00:00 | |
| AA1-15 | 2026-08-30 18:21:22 | 50.02823 | 8.38811 | 95° | 7km/h | 26207m | 5.2m/s | -50.5°C | 0.3% | 22.2hPa | 2.6V | 03:29:30 | 01:39:35 | 00:00:00 | |
| DL1XH-west | 2026-08-30 18:21:21 | 50.02823 | 8.38808 | 117° | 5km/h | 26202m | 5.3m/s | -50.5°C | 0.3% | 22.3hPa | 2.6V | 03:29:30 | 01:39:34 | 00:00:00 | |
| DF8AY | 2026-08-30 18:21:20 | 50.02824 | 8.38807 | 152° | 5km/h | 26196m | 4.8m/s | -50.5°C | 0.3% | 22.3hPa | 2.7V | 03:29:30 | 01:39:33 | 00:00:00 | |
| HSKMA3-T | 2026-08-30 18:21:19 | 50.02825 | 8.38806 | 176° | 5km/h | 26192m | 4.4m/s | -50.6°C | 0.3% | 22.3hPa | 2.7V | 03:29:30 | 01:39:32 | 00:00:00 | |
| BIOWL1-15 | 2026-08-30 18:21:15 | 50.02829 | 8.38805 | 94° | 2km/h | 26172m | 4.7m/s | -50.6°C | 0.4% | 22.3hPa | 2.6V | 03:29:30 | 01:39:28 | 00:00:00 | |
| AA1-15 | 2026-08-30 18:21:11 | 50.02832 | 8.38805 | 204° | 7km/h | 26152m | 4.7m/s | -50.6°C | 0.3% | 22.4hPa | 2.7V | 03:30:21 | 01:39:24 | 00:00:00 | |
| DM0DOS-11 | 2026-08-30 18:21:10 | 50.02830 | 8.38802 | 24° | 7km/h | 26123m | 4.6m/s | -50.6°C | 3.6% | 22.5hPa | 2.6V | 03:29:39 | 01:39:18 | 00:00:00 | |
| DL1XH-west | 2026-08-30 18:21:10 | 50.02833 | 8.38806 | 201° | 5km/h | 26148m | 4.1m/s | -50.6°C | 0.3% | 22.4hPa | 2.6V | 03:30:21 | 01:39:23 | 00:00:00 | |
| HSKMA3-T | 2026-08-30 18:21:08 | 50.02834 | 8.38806 | 38° | 2km/h | 26138m | 5.8m/s | -50.6°C | 0.3% | 22.5hPa | 2.6V | 03:30:21 | 01:39:21 | 00:00:00 | |
| BIOWL1-15 | 2026-08-30 18:21:04 | 50.02829 | 8.38802 | 23° | 4km/h | 26119m | 5.5m/s | -50.6°C | 0.3% | 22.5hPa | 2.6V | 03:30:21 | 01:39:17 | 00:00:00 | |
| DO3MHA-11 | 2026-08-30 18:21:04 | 50.02829 | 8.38801 | 24° | 4km/h | 26119m | 5.5m/s | -50.6°C | 3.6% | 22.5hPa | 2.6V | 00:00:00 | 01:39:17 | 00:00:00 | |
| DL3OBA | 2026-08-30 18:21:03 | 50.02829 | 8.38802 | 24° | 4km/h | 26119m | 5.5m/s | -50.6°C | 0.9% | 22.5hPa | 2.7V | 00:00:00 | 00:00:00 | 00:00:00 | |
| DK5PH-5 | 2026-08-30 18:21:01 | 50.02829 | 8.38801 | 158° | 7km/h | 26104m | 4.6m/s | -50.6°C | 3.6% | 22.5hPa | 2.7V | 00:00:00 | 01:39:14 | 00:00:00 | |
| DM0DOS-11 | 2026-08-30 18:21:00 | 50.02826 | 8.38801 | 293° | 9km/h | 26073m | 5.6m/s | -50.6°C | 3.5% | 22.7hPa | 2.7V | 03:29:49 | 01:39:08 | 00:00:00 | |
| DL1XH-west | 2026-08-30 18:21:00 | 50.02830 | 8.38801 | 110° | 2km/h | 26098m | 5.8m/s | -50.7°C | 0.4% | 22.6hPa | 2.7V | 03:30:21 | 01:39:13 | 00:00:00 | |
| DF8AY | 2026-08-30 18:20:58 | 50.02829 | 8.38798 | 26° | 4km/h | 26088m | 4.6m/s | -50.7°C | 0.3% | 22.7hPa | 2.6V | 03:30:21 | 01:39:11 | 00:00:00 | |
| HSKMA3-T | 2026-08-30 18:20:57 | 50.02828 | 8.38798 | 350° | 4km/h | 26084m | 4.1m/s | -50.7°C | 0.3% | 22.7hPa | 2.6V | 03:30:21 | 01:39:10 | 00:00:00 | |
| BIOWL1-15 | 2026-08-30 18:20:55 | 50.02824 | 8.38808 | 306° | 9km/h | 26063m | 4.4m/s | -50.7°C | 0.3% | 22.8hPa | 2.7V | 03:30:21 | 01:39:06 | 00:00:00 | |
| DL9PN | 2026-08-30 18:20:53 | 50.02822 | 8.38810 | 333° | 7km/h | 26059m | 5.4m/s | -50.7°C | 0.9% | 22.7hPa | 2.6V | 00:00:00 | 00:00:00 | 00:00:00 | |
| DJ2DS-15 | 2026-08-30 18:20:52 | 50.02820 | 8.38811 | 4° | 9km/h | 26053m | 6.0m/s | -50.7°C | 0.9% | 22.8hPa | 2.6V | 00:00:00 | 00:00:00 | 00:00:00 | |
| DB0ND-19 | 2026-08-30 18:20:51 | 50.02820 | 8.38811 | 4° | 9km/h | 26053m | 6.0m/s | -50.7°C | 0.9% | 22.8hPa | 2.6V | 00:00:00 | 00:00:00 | 00:00:00 | |
| DM0DOS-11 | 2026-08-30 18:20:50 | 50.02810 | 8.38800 | 14° | 4km/h | 26023m | 4m/s | -50.6°C | 3.5% | 22.9hPa | 2.6V | 03:29:59 | 01:38:58 | 00:00:00 | |
| DL1XH-west | 2026-08-30 18:20:49 | 50.02815 | 8.38807 | 37° | 11km/h | 26042m | 4.6m/s | -50.7°C | 0.3% | 22.8hPa | 2.7V | 03:30:21 | 01:39:02 | 00:00:00 | |
| HSKMA3-T | 2026-08-30 18:20:47 | 50.02812 | 8.38803 | 45° | 7km/h | 26032m | 5.3m/s | -50.7°C | 0.3% | 22.8hPa | 2.6V | 03:30:21 | 01:39:00 | 00:00:00 | |
| HTAHTA | 2026-08-30 18:20:46 | 50.02811 | 8.38801 | 37° | 4km/h | 26027m | 4.2m/s | 0°C | -1.0% | -1.0hPa | 2.7V | 00:00:00 | 00:00:00 | 00:00:00 | |
| BIOWL1-15 | 2026-08-30 18:20:45 | 50.02807 | 8.38800 | 353° | 7km/h | 26013m | 5.7m/s | -50.7°C | 0.3% | 22.9hPa | 2.7V | 03:30:21 | 01:38:56 | 00:00:00 | |
| DO3MHA-11 | 2026-08-30 18:20:44 | 50.02809 | 8.38800 | 1° | 7km/h | 26019m | 5.5m/s | -50.6°C | 3.6% | 22.9hPa | 2.7V | 00:00:00 | 01:38:57 | 00:00:00 | |
| DF1GD-15 | 2026-08-30 18:20:43 | 50.02809 | 8.38800 | 1° | 5km/h | 26019m | 5.6m/s | -50.7°C | 0.9% | 22.9hPa | 2.7V | 03:30:00 | 00:00:00 | 00:00:00 | |
| SONCRA | 2026-08-30 18:20:42 | 50.02805 | 8.38801 | 343° | 7km/h | 26008m | 4.7m/s | -50.8°C | 0.9% | 22.9hPa | 2.7V | 00:00:00 | 00:00:00 | 00:00:00 | |
| DO1YAY-16 | 2026-08-30 18:20:41 | 50.02803 | 8.38802 | 330° | 7km/h | 26003m | 4.3m/s | -50.8°C | 0.9% | 23.0hPa | 2.7V | 00:00:00 | 00:00:00 | 00:00:00 | |
| DM0DOS-11 | 2026-08-30 18:20:40 | 50.02798 | 8.38813 | 37° | 7km/h | 25973m | 6.2m/s | -51°C | 3.6% | 23hPa | 2.7V | 03:30:09 | 01:38:48 | 00:00:00 | |
| DL1XH-west | 2026-08-30 18:20:39 | 50.02801 | 8.38807 | 290° | 9km/h | 25993m | 5.8m/s | -50.9°C | 0.3% | 23hPa | 2.6V | 03:30:21 | 01:38:52 | 00:00:00 | |
| AA1-15 | 2026-08-30 18:20:38 | 50.02800 | 8.38810 | 279° | 7km/h | 25988m | 4.7m/s | -50.9°C | 0.3% | 23hPa | 2.6V | 03:30:21 | 01:38:51 | 00:00:00 | |
| DF8AY | 2026-08-30 18:20:37 | 50.02800 | 8.38813 | 289° | 5km/h | 25983m | 4.4m/s | -50.9°C | 0.3% | 23.1hPa | 2.7V | 03:30:21 | 01:38:50 | 00:00:00 | |
| HSKMA3-T | 2026-08-30 18:20:36 | 50.02799 | 8.38814 | 352° | 4km/h | 25978m | 5m/s | -51°C | 0.3% | 23hPa | 2.7V | 03:30:21 | 01:38:49 | 00:00:00 | |
| DC4HF-4 | 2026-08-30 18:20:35 | 50.02798 | 8.38813 | 37° | 5km/h | 25973m | 6.2m/s | -51.0°C | 0.9% | 23.1hPa | 2.6V | 00:00:00 | 00:00:00 | 00:00:00 | |
| DO3MHA-11 | 2026-08-30 18:20:34 | 50.02797 | 8.38810 | 54° | 7km/h | 25967m | 5.2m/s | -51.0°C | 3.7% | 23.0hPa | 2.6V | 00:00:00 | 01:38:47 | 00:00:00 | |
| DL1XH1-15 | 2026-08-30 18:20:33 | 50.02797 | 8.38795 | 222° | 4km/h | 25938m | 5.4m/s | -51.1°C | 3.7% | 23.2hPa | 2.6V | 03:30:16 | 01:38:41 | 00:00:00 | |
| BIOWL1-15 | 2026-08-30 18:20:33 | 50.02795 | 8.38807 | 64° | 13km/h | 25962m | 4.7m/s | -51°C | 0.3% | 23.1hPa | 2.6V | 03:30:21 | 01:38:46 | 00:00:00 | |
| DD1CC8 | 2026-08-30 18:20:32 | 50.02794 | 8.38802 | 77° | 11km/h | 25957m | 5.4m/s | -51.1°C | 0.9% | 23.1hPa | 2.7V | 00:00:00 | 00:00:00 | 00:00:00 | |
| DK5PH-5 | 2026-08-30 18:20:31 | 50.02794 | 8.38799 | 100° | 7km/h | 25952m | 5.4m/s | -51.0°C | 3.7% | 23.1hPa | 2.7V | 03:30:00 | 01:38:44 | 00:00:00 | |
| DM0DOS-11 | 2026-08-30 18:20:30 | 50.02796 | 8.38802 | 277° | 9km/h | 25922m | 4.4m/s | -51.2°C | 3.7% | 23.2hPa | 2.7V | 03:30:19 | 01:38:38 | 00:00:00 | |
| DL1XH-west | 2026-08-30 18:20:29 | 50.02796 | 8.38794 | 164° | 4km/h | 25943m | 4.1m/s | -51.1°C | 0.3% | 23.2hPa | 2.6V | 03:30:21 | 01:38:42 | 00:00:00 | |
| AA1-15 | 2026-08-30 18:20:27 | 50.02797 | 8.38796 | 276° | 5km/h | 25932m | 6m/s | -51.2°C | 0.3% | 23.2hPa | 2.6V | 03:30:21 | 01:38:40 | 00:00:00 | |
| HSKMA3-T | 2026-08-30 18:20:25 | 50.02796 | 8.38802 | 277° | 9km/h | 25922m | 4.4m/s | -51.2°C | 0.4% | 23.2hPa | 2.7V | 03:30:21 | 01:38:38 | 00:00:00 | |
| DF8AY | 2026-08-30 18:20:23 | 50.02797 | 8.38809 | 241° | 11km/h | 25913m | 5.6m/s | -51.2°C | 0.4% | 23.3hPa | 2.6V | 03:30:21 | 01:38:36 | 00:00:00 | |
| DL1XH1-15 | 2026-08-30 18:20:23 | 50.02805 | 8.38811 | 91° | 9km/h | 25886m | 5.5m/s | -51.3°C | 3.6% | 23.4hPa | 2.7V | 03:30:26 | 01:38:31 | 00:00:00 | |
| BIOWL1-15 | 2026-08-30 18:20:22 | 50.02798 | 8.38812 | 222° | 11km/h | 25907m | 5.3m/s | -51.3°C | 0.4% | 23.3hPa | 2.6V | 03:31:12 | 01:38:35 | 00:00:00 | |
| DL9PN | 2026-08-30 18:20:22 | 50.02801 | 8.38814 | 202° | 9km/h | 25903m | 4.7m/s | -51.3°C | 0.9% | 23.3hPa | 2.6V | 00:00:00 | 00:00:00 | 00:00:00 | |
| DM0DOS-11 | 2026-08-30 18:20:20 | 50.02804 | 8.38799 | 87° | 11km/h | 25872m | 4.5m/s | -51.3°C | 3.8% | 23.4hPa | 2.6V | 03:30:29 | 01:38:28 | 00:00:00 | |
| DL1XH-west | 2026-08-30 18:20:18 | 50.02805 | 8.38811 | 92° | 9km/h | 25886m | 5.5m/s | -51.3°C | 0.3% | 23.4hPa | 2.7V | 03:31:12 | 01:38:31 | 00:00:00 | |
| AA1-15 | 2026-08-30 18:20:16 | 50.02804 | 8.38803 | 79° | 13km/h | 25877m | 4.3m/s | -51.3°C | 0.4% | 23.4hPa | 2.6V | 03:31:12 | 01:38:29 | 00:00:00 | |
| HSKMA3-T | 2026-08-30 18:20:15 | 50.02804 | 8.38799 | 87° | 11km/h | 25872m | 4.5m/s | -51.3°C | 0.4% | 23.4hPa | 2.6V | 03:31:12 | 01:38:28 | 00:00:00 | |
| DO3MHA-11 | 2026-08-30 18:20:14 | 50.02804 | 8.38794 | 107° | 7km/h | 25867m | 5.4m/s | -51.3°C | 3.7% | 23.4hPa | 2.7V | 03:30:00 | 01:38:27 | 00:00:00 | |
| DL1XH1-15 | 2026-08-30 18:20:13 | 50.02807 | 8.38797 | 312° | 11km/h | 25838m | 4.7m/s | -51.2°C | 3.8% | 23.6hPa | 2.7V | 03:30:36 | 01:38:21 | 00:00:00 | |
| BIOWL1-15 | 2026-08-30 18:20:12 | 50.02807 | 8.38790 | 163° | 7km/h | 25858m | 4m/s | -51.2°C | 0.4% | 23.5hPa | 2.7V | 03:31:12 | 01:38:25 | 00:00:00 | |
| DL1XH-west | 2026-08-30 18:20:08 | 50.02807 | 8.38797 | 312° | 11km/h | 25838m | 4.7m/s | -51.3°C | 0.4% | 23.6hPa | 2.7V | 03:31:12 | 01:38:21 | 00:00:00 | |
| AA1-15 | 2026-08-30 18:20:06 | 50.02803 | 8.38802 | 331° | 9km/h | 25828m | 5.2m/s | -51.3°C | 0.4% | 23.6hPa | 2.7V | 03:31:12 | 01:38:19 | 00:00:00 | |
| HSKMA3-T | 2026-08-30 18:20:05 | 50.02801 | 8.38802 | 360° | 5km/h | 25823m | 5m/s | -51.4°C | 0.4% | 23.6hPa | 2.6V | 03:31:12 | 01:38:18 | 00:00:00 | |
| DO3MHA-11 | 2026-08-30 18:20:04 | 50.02800 | 8.38801 | 50° | 11km/h | 25819m | 4.6m/s | -51.3°C | 3.7% | 23.6hPa | 2.6V | 00:00:00 | 01:38:17 | 00:00:00 | |
| DL1XH1-15 | 2026-08-30 18:20:03 | 50.02788 | 8.38783 | 349° | 7km/h | 25789m | 4.8m/s | -51.5°C | 3.8% | 23.7hPa | 2.6V | 03:30:46 | 01:38:11 | 00:00:00 | |
| BIOWL1-15 | 2026-08-30 18:20:03 | 50.02795 | 8.38790 | 52° | 15km/h | 25803m | 5.5m/s | -51.5°C | 0.4% | 23.6hPa | 2.7V | 03:31:12 | 01:38:14 | 00:00:00 | |
| DF8AY | 2026-08-30 18:20:02 | 50.02797 | 8.38795 | 59° | 13km/h | 25809m | 5.6m/s | -51.5°C | 0.4% | 23.7hPa | 2.6V | 03:32:03 | 01:38:15 | 00:00:00 | |
| DD1CC8 | 2026-08-30 18:20:01 | 50.02795 | 8.38790 | 51° | 15km/h | 25803m | 5.5m/s | -51.5°C | 0.9% | 23.6hPa | 2.7V | 00:00:00 | 00:00:00 | 00:00:00 | |
| DM0DOS-11 | 2026-08-30 18:20:00 | 50.02785 | 8.38793 | 279° | 15km/h | 25773m | 4.3m/s | -51.5°C | 3.7% | 23.8hPa | 2.7V | 03:30:49 | 01:38:08 | 00:00:00 | |
| DL1XH-west | 2026-08-30 18:19:58 | 50.02788 | 8.38783 | 350° | 7km/h | 25789m | 4.8m/s | -51.5°C | 0.4% | 23.7hPa | 2.6V | 03:31:12 | 01:38:11 | 00:00:00 | |
| AA1-15 | 2026-08-30 18:19:55 | 50.02786 | 8.38793 | 280° | 15km/h | 25773m | 4.4m/s | -51.5°C | 0.4% | 23.8hPa | 2.7V | 03:31:12 | 01:38:08 | 00:00:00 | |
| HSKMA3-T | 2026-08-30 18:19:54 | 50.02785 | 8.38799 | 291° | 16km/h | 25768m | 4.6m/s | -51.5°C | 0.4% | 23.8hPa | 2.7V | 03:31:12 | 01:38:07 | 00:00:00 | |
| DF8AY | 2026-08-30 18:19:52 | 50.02779 | 8.38810 | 330° | 18km/h | 25758m | 5.3m/s | -51.4°C | 0.4% | 23.8hPa | 2.6V | 03:32:03 | 01:38:05 | 00:00:00 | |
| BIOWL1-15 | 2026-08-30 18:19:52 | 50.02769 | 8.38812 | 8° | 20km/h | 25748m | 5m/s | -51.4°C | 0.5% | 23.9hPa | 2.7V | 03:31:12 | 01:38:03 | 00:00:00 | |
| DL0LBS | 2026-08-30 18:19:51 | 50.02779 | 8.38810 | 331° | 18km/h | 25758m | 5.3m/s | -51.4°C | 1.0% | 23.8hPa | 2.6V | 03:31:00 | 00:00:00 | 00:00:00 | |
| DM0DOS-11 | 2026-08-30 18:19:50 | 50.02753 | 8.38802 | 354° | 9km/h | 25724m | 5.5m/s | -51.4°C | 3.8% | 24hPa | 2.6V | 03:30:59 | 01:37:58 | 00:00:00 | |
| DL1XH-west | 2026-08-30 18:19:48 | 50.02761 | 8.38807 | 32° | 16km/h | 25737m | 4.9m/s | -51.4°C | 0.5% | 23.9hPa | 2.7V | 03:31:12 | 01:38:01 | 00:00:00 | |
| EDDB2-11 | 2026-08-30 18:19:47 | 50.02758 | 8.38804 | 34° | 13km/h | 25733m | 3.8m/s | -51.4°C | 0.9% | 23.9hPa | 2.7V | 00:00:00 | 00:00:00 | 00:00:00 | |
| DL3AQ-11 | 2026-08-30 18:19:45 | 50.02753 | 8.38802 | 354° | 9km/h | 25724m | 5.5m/s | -51.4°C | 0.9% | 24.0hPa | 2.7V | 00:00:00 | 00:00:00 | 00:00:00 | |
| HSKMA3-T | 2026-08-30 18:19:44 | 50.02750 | 8.38803 | 324° | 13km/h | 25718m | 5.9m/s | -51.4°C | 0.4% | 24hPa | 2.7V | 03:31:12 | 01:37:57 | 00:00:00 | |
| DO3MHA-11 | 2026-08-30 18:19:44 | 50.02750 | 8.38803 | 325° | 13km/h | 25718m | 5.8m/s | -51.3°C | 3.8% | 23.9hPa | 2.6V | 00:00:00 | 01:37:57 | 00:00:00 | |
| DO8TBO-1 | 2026-08-30 18:19:43 | 50.02748 | 8.38807 | 307° | 18km/h | 25713m | 5.1m/s | -51.3°C | 3.7% | 24.0hPa | 2.6V | 00:00:00 | 01:37:56 | 00:00:00 | |
| KANTATE | 2026-08-30 18:19:42 | 50.02748 | 8.38807 | 307° | 16km/h | 25713m | 5.1m/s | -51.3°C | 0.9% | 24.0hPa | 2.6V | 03:31:00 | 00:00:00 | 00:00:00 | |
| DF1GD-15 | 2026-08-30 18:19:41 | 50.02746 | 8.38813 | 295° | 18km/h | 25708m | 4.2m/s | -51.4°C | 1.0% | 24.0hPa | 2.6V | 03:31:00 | 00:00:00 | 00:00:00 | |
| DM0DOS-11 | 2026-08-30 18:19:40 | 50.02744 | 8.38842 | 10° | 7km/h | 25676m | 5.4m/s | -51.2°C | 3.7% | 24.2hPa | 2.6V | 03:31:09 | 01:37:48 | 00:00:00 | |
| BIOWL1-15 | 2026-08-30 18:19:39 | 50.02744 | 8.38834 | 261° | 15km/h | 25694m | 5.1m/s | -51.3°C | 0.4% | 24.1hPa | 2.7V | 03:31:12 | 01:37:52 | 00:00:00 | |
| DL1XH-west | 2026-08-30 18:19:37 | 50.02745 | 8.38841 | 243° | 5km/h | 25685m | 3.9m/s | -51.2°C | 0.4% | 24.1hPa | 2.7V | 03:31:12 | 01:37:50 | 00:00:00 | |
| HSKMA3-T | 2026-08-30 18:19:34 | 50.02742 | 8.38841 | 14° | 13km/h | 25671m | 5.3m/s | -51.2°C | 0.3% | 24.2hPa | 2.6V | 03:31:12 | 01:37:47 | 00:00:00 | |
| AA1-15 | 2026-08-30 18:19:33 | 50.02738 | 8.38840 | 18° | 16km/h | 25666m | 4.8m/s | -51.2°C | 0.3% | 24.2hPa | 2.6V | 03:31:12 | 01:37:46 | 00:00:00 | |
| DL1XH-15 | 2026-08-30 18:19:32 | 50.02718 | 8.38833 | 324° | 11km/h | 25636m | 5.8m/s | -51.2°C | 3.7% | 24.3hPa | 2.6V | 03:31:17 | 01:37:40 | 00:00:00 | |
| DO3DL | 2026-08-30 18:19:31 | 50.02734 | 8.38838 | 21° | 18km/h | 25661m | 4.7m/s | -51.2°C | 0.9% | 24.2hPa | 2.7V | 03:31:00 | 00:00:00 | 00:00:00 | |
| DM0DOS-11 | 2026-08-30 18:19:30 | 50.02715 | 8.38841 | 293° | 13km/h | 25626m | 4.4m/s | -51.2°C | 3.7% | 24.3hPa | 2.7V | 03:31:19 | 01:37:38 | 00:00:00 | |
| BIOWL1-15 | 2026-08-30 18:19:29 | 50.02723 | 8.38831 | 11° | 11km/h | 25646m | 4m/s | -51.1°C | 0.3% | 24.3hPa | 2.6V | 03:32:03 | 01:37:42 | 00:00:00 | |
| DL1XH-west | 2026-08-30 18:19:27 | 50.02718 | 8.38833 | 324° | 11km/h | 25636m | 5.8m/s | -51.2°C | 0.4% | 24.3hPa | 2.6V | 03:32:03 | 01:37:40 | 00:00:00 | |
| DF8AY | 2026-08-30 18:19:26 | 50.02716 | 8.38836 | 306° | 13km/h | 25631m | 5.2m/s | -51.2°C | 0.3% | 24.3hPa | 2.7V | 03:32:03 | 01:37:39 | 00:00:00 | |
| DJ2KF-10 | 2026-08-30 18:19:26 | 50.02716 | 8.38836 | 307° | 11km/h | 25631m | 5.1m/s | -51.2°C | 3.7% | 24.3hPa | 2.6V | 00:00:00 | 01:37:39 | 00:00:00 | |
| DO3DL | 2026-08-30 18:19:25 | 50.02716 | 8.38836 | 307° | 13km/h | 25631m | 5.2m/s | -51.2°C | 0.9% | 24.3hPa | 2.6V | 03:32:00 | 00:00:00 | 00:00:00 | |
| DO3MHA-11 | 2026-08-30 18:19:24 | 50.02714 | 8.38845 | 280° | 9km/h | 25622m | 4.3m/s | -51.2°C | 3.6% | 24.3hPa | 2.6V | 00:00:00 | 01:37:37 | 00:00:00 | |
| DL1XH1-15 | 2026-08-30 18:19:23 | 50.02712 | 8.38843 | 12° | 9km/h | 25591m | 4.9m/s | -51.3°C | 3.8% | 24.5hPa | 2.6V | 03:31:26 | 01:37:31 | 00:00:00 | |
| HSKMA3-T | 2026-08-30 18:19:23 | 50.02714 | 8.38848 | 259° | 5km/h | 25617m | 5.8m/s | -51.3°C | 0.3% | 24.4hPa | 2.6V | 03:32:03 | 01:37:36 | 00:00:00 | |
| AA1-15 | 2026-08-30 18:19:22 | 50.02714 | 8.38849 | 196° | 4km/h | 25611m | 5.7m/s | -51.3°C | 0.3% | 24.4hPa | 2.6V | 03:32:03 | 01:37:35 | 00:00:00 | |
| BIOWL1-15 | 2026-08-30 18:19:19 | 50.02714 | 8.38845 | 44° | 7km/h | 25596m | 5.5m/s | -51.3°C | 0.4% | 24.4hPa | 2.7V | 03:32:03 | 01:37:32 | 00:00:00 | |
| DL1XH-west | 2026-08-30 18:19:17 | 50.02709 | 8.38843 | 353° | 13km/h | 25586m | 4.2m/s | -51.3°C | 0.4% | 24.5hPa | 2.6V | 03:32:03 | 01:37:30 | 00:00:00 | |
| HSKMA3-T | 2026-08-30 18:19:13 | 50.02699 | 8.38854 | 295° | 11km/h | 25566m | 5m/s | -51.3°C | 0.4% | 24.6hPa | 2.7V | 03:32:03 | 01:37:26 | 00:00:00 | |
| DL1XH-15 | 2026-08-30 18:19:12 | 50.02688 | 8.38884 | 319° | 20km/h | 25538m | 4.7m/s | -51.3°C | 3.7% | 24.7hPa | 2.7V | 03:31:37 | 01:37:20 | 00:00:00 | |
| AA1-15 | 2026-08-30 18:19:11 | 50.02698 | 8.38862 | 285° | 13km/h | 25557m | 4.1m/s | -51.3°C | 0.4% | 24.6hPa | 2.6V | 03:32:03 | 01:37:24 | 00:00:00 | |
| DM0DOS-11 | 2026-08-30 18:19:10 | 50.02681 | 8.38893 | 328° | 15km/h | 25529m | 5m/s | -51.3°C | 3.8% | 24.7hPa | 2.6V | 03:31:39 | 01:37:18 | 00:00:00 | |
| BIOWL1-15 | 2026-08-30 18:19:10 | 50.02692 | 8.38879 | 313° | 20km/h | 25543m | 5.3m/s | -51.3°C | 0.4% | 24.7hPa | 2.7V | 03:32:03 | 01:37:21 | 00:00:00 | |
| DF8AY | 2026-08-30 18:19:07 | 50.02688 | 8.38884 | 320° | 22km/h | 25538m | 4.7m/s | -51.3°C | 0.4% | 24.7hPa | 2.7V | 03:32:03 | 01:37:20 | 00:00:00 | |
| DL1XH-west | 2026-08-30 18:19:06 | 50.02684 | 8.38889 | 324° | 20km/h | 25533m | 4.2m/s | -51.3°C | 0.4% | 24.7hPa | 2.6V | 03:32:03 | 01:37:19 | 00:00:00 | |
| DL8OAI-8 | 2026-08-30 18:19:05 | 50.02684 | 8.38889 | 325° | 20km/h | 25533m | 4.2m/s | -51.3°C | 1.0% | 24.7hPa | 2.6V | 03:32:00 | 00:00:00 | 00:00:00 | |
| DJ2DS-15 | 2026-08-30 18:19:04 | 50.02676 | 8.38896 | 346° | 5km/h | 25518m | 5.0m/s | -51.4°C | 0.9% | 24.8hPa | 2.6V | 00:00:00 | 00:00:00 | 00:00:00 | |
| DL1XH1-15 | 2026-08-30 18:19:03 | 50.02664 | 8.38901 | 325° | 16km/h | 25494m | 4.2m/s | -51.4°C | 3.7% | 24.9hPa | 2.6V | 03:31:46 | 01:37:11 | 00:00:00 | |
| HSKMA3-T | 2026-08-30 18:19:02 | 50.02674 | 8.38897 | 1° | 5km/h | 25513m | 4m/s | -51.4°C | 0.4% | 24.8hPa | 2.7V | 03:32:03 | 01:37:15 | 00:00:00 | |
| NBG1-10 | 2026-08-30 18:19:02 | 50.02674 | 8.38897 | 2° | 13km/h | 25514m | 4.0m/s | -51.3°C | 3.8% | 24.7hPa | 2.7V | 03:31:00 | 01:37:15 | 00:00:00 | |
| DM0DOS-11 | 2026-08-30 18:19:01 | 50.02656 | 8.38920 | 283° | 24km/h | 25479m | 5.9m/s | -51.3°C | 3.7% | 24.9hPa | 2.7V | 03:31:49 | 01:37:08 | 00:00:00 | |
| AA1-15 | 2026-08-30 18:19:00 | 50.02670 | 8.38897 | 353° | 11km/h | 25504m | 5.6m/s | -51.4°C | 0.4% | 24.8hPa | 2.6V | 03:32:03 | 01:37:13 | 00:00:00 | |
| BIOWL1-15 | 2026-08-30 18:19:00 | 50.02664 | 8.38901 | 325° | 16km/h | 25494m | 4.2m/s | -51.4°C | 0.3% | 24.9hPa | 2.6V | 03:32:03 | 01:37:11 | 00:00:00 | |
| DL1XH-west | 2026-08-30 18:18:55 | 50.02656 | 8.38920 | 283° | 24km/h | 25479m | 5.9m/s | -51.3°C | 0.3% | 24.9hPa | 2.7V | 03:32:03 | 01:37:08 | 00:00:00 | |
| DF7PN | 2026-08-30 18:18:55 | 50.02655 | 8.38930 | 276° | 24km/h | 25474m | 4.8m/s | -51.3°C | 0.9% | 24.9hPa | 2.6V | 00:00:00 | 00:00:00 | 00:00:00 | |
| DO3MHA-11 | 2026-08-30 18:18:54 | 50.02655 | 8.38930 | 277° | 16km/h | 25474m | 4.7m/s | -51.3°C | 3.7% | 24.9hPa | 2.6V | 03:31:00 | 01:37:07 | 00:00:00 | |
| DL1XH1-15 | 2026-08-30 18:18:53 | 50.02644 | 8.38974 | 323° | 11km/h | 25446m | 5.2m/s | -51.3°C | 3.8% | 25hPa | 2.6V | 03:31:56 | 01:37:01 | 00:00:00 | |
| DF8AY | 2026-08-30 18:18:53 | 50.02654 | 8.38939 | 276° | 26km/h | 25469m | 4.4m/s | -51.3°C | 0.4% | 24.9hPa | 2.6V | 03:32:03 | 01:37:06 | 00:00:00 | |
| HSKMA3-T | 2026-08-30 18:18:51 | 50.02652 | 8.38958 | 291° | 22km/h | 25459m | 5m/s | -51.3°C | 0.4% | 25hPa | 2.6V | 03:32:03 | 01:37:04 | 00:00:00 | |
| AA1-15 | 2026-08-30 18:18:49 | 50.02647 | 8.38970 | 314° | 15km/h | 25450m | 4m/s | -51.3°C | 0.3% | 25hPa | 2.7V | 03:32:03 | 01:37:02 | 00:00:00 | |
| BIOWL1-15 | 2026-08-30 18:18:49 | 50.02642 | 8.38976 | 334° | 7km/h | 25440m | 5.7m/s | -51.3°C | 0.4% | 25.1hPa | 2.6V | 03:32:03 | 01:37:00 | 00:00:00 | |
| DL9PN | 2026-08-30 18:18:48 | 50.02644 | 8.38974 | 323° | 11km/h | 25446m | 5.2m/s | -51.3°C | 0.9% | 25.0hPa | 2.7V | 00:00:00 | 00:00:00 | 00:00:00 | |
| DB0ND-19 | 2026-08-30 18:18:47 | 50.02641 | 8.38977 | 352° | 4km/h | 25435m | 5.3m/s | -51.3°C | 0.9% | 25.1hPa | 2.7V | 00:00:00 | 00:00:00 | 00:00:00 | |
| EDDB2-11 | 2026-08-30 18:18:45 | 50.02640 | 8.38977 | 358° | 4km/h | 25430m | 4.3m/s | -51.3°C | 0.9% | 25.1hPa | 2.7V | 00:00:00 | 00:00:00 | 00:00:00 | |
| DL1XH-west | 2026-08-30 18:18:44 | 50.02638 | 8.38977 | 343° | 7km/h | 25425m | 4.9m/s | -51.3°C | 0.3% | 25.1hPa | 2.7V | 03:32:03 | 01:36:57 | 00:00:00 | |
| DO3MHA-11 | 2026-08-30 18:18:44 | 50.02638 | 8.38977 | 343° | 15km/h | 25426m | 4.8m/s | -51.2°C | 3.6% | 25.1hPa | 2.6V | 00:00:00 | 01:36:57 | 00:00:00 | |
| DL1ZP-14 | 2026-08-30 18:18:43 | 50.02633 | 8.38981 | 320° | 13km/h | 25415m | 4.7m/s | -51.3°C | 0.9% | 25.2hPa | 2.6V | 00:00:00 | 00:00:00 | 00:00:00 | |
| DL1XH-15 | 2026-08-30 18:18:42 | 50.02626 | 8.39009 | 275° | 16km/h | 25389m | 4.6m/s | -51.3°C | 3.7% | 25.2hPa | 2.7V | 03:32:07 | 01:36:50 | 00:00:00 | |
| DF8AY | 2026-08-30 18:18:42 | 50.02633 | 8.38981 | 321° | 15km/h | 25415m | 4.7m/s | -51.3°C | 0.3% | 25.2hPa | 2.6V | 03:32:03 | 01:36:55 | 00:00:00 | |
| HSKMA3-T | 2026-08-30 18:18:41 | 50.02631 | 8.38985 | 309° | 15km/h | 25410m | 4.5m/s | -51.2°C | 0.4% | 25.2hPa | 2.6V | 03:32:03 | 01:36:54 | 00:00:00 | |
| AA1-15 | 2026-08-30 18:18:38 | 50.02627 | 8.39002 | 275° | 16km/h | 25394m | 4.9m/s | -51.3°C | 0.4% | 25.2hPa | 2.7V | 03:32:54 | 01:36:51 | 00:00:00 | |
| BIOWL1-15 | 2026-08-30 18:18:36 | 50.02626 | 8.39015 | 282° | 15km/h | 25384m | 5.7m/s | -51.3°C | 0.4% | 25.3hPa | 2.7V | 03:32:54 | 01:36:49 | 00:00:00 | |
| DL1XH-west | 2026-08-30 18:18:34 | 50.02624 | 8.39023 | 294° | 9km/h | 25374m | 4.2m/s | -51.4°C | 0.4% | 25.3hPa | 2.6V | 03:32:54 | 01:36:47 | 00:00:00 | |
| DO3MHA-11 | 2026-08-30 18:18:34 | 50.02624 | 8.39023 | 294° | 9km/h | 25375m | 4.2m/s | -51.3°C | 3.7% | 25.3hPa | 2.6V | 00:00:00 | 01:36:47 | 00:00:00 | |
| DL1XH1-15 | 2026-08-30 18:18:33 | 50.02625 | 8.39035 | 283° | 9km/h | 25344m | 5.7m/s | -51.5°C | 3.7% | 25.4hPa | 2.6V | 03:32:16 | 01:36:41 | 00:00:00 | |
| DF8AY | 2026-08-30 18:18:32 | 50.02623 | 8.39028 | 253° | 4km/h | 25365m | 6m/s | -51.4°C | 0.4% | 25.3hPa | 2.7V | 03:32:54 | 01:36:45 | 00:00:00 | |
| CB1BUN | 2026-08-30 18:18:31 | 50.02623 | 8.39028 | 254° | 4km/h | 25365m | 6.0m/s | -51.4°C | 0.9% | 25.3hPa | 2.7V | 03:32:00 | 00:00:00 | 00:00:00 | |
| DM0DOS-11 | 2026-08-30 18:18:30 | 50.02622 | 8.39053 | 278° | 22km/h | 25329m | 5.5m/s | -51.5°C | 3.7% | 25.5hPa | 2.7V | 03:32:19 | 01:36:38 | 00:00:00 | |
| HSKMA3-T | 2026-08-30 18:18:30 | 50.02625 | 8.39030 | 225° | 5km/h | 25354m | 4.4m/s | -51.4°C | 0.3% | 25.4hPa | 2.6V | 03:32:54 | 01:36:43 | 00:00:00 | |
| AA1-15 | 2026-08-30 18:18:27 | 50.02624 | 8.39039 | 290° | 15km/h | 25339m | 5.1m/s | -51.5°C | 0.3% | 25.4hPa | 2.7V | 03:32:54 | 01:36:40 | 00:00:00 | |
| BIOWL1-15 | 2026-08-30 18:18:25 | 50.02622 | 8.39053 | 279° | 22km/h | 25329m | 5.6m/s | -51.5°C | 0.4% | 25.5hPa | 2.7V | 03:32:54 | 01:36:38 | 00:00:00 | |
| DL1XH-west | 2026-08-30 18:18:23 | 50.02622 | 8.39072 | 263° | 26km/h | 25318m | 5m/s | -51.4°C | 0.4% | 25.6hPa | 2.6V | 03:32:54 | 01:36:36 | 00:00:00 | |
| DL8DAS-15 | 2026-08-30 18:18:21 | 50.02623 | 8.39082 | 262° | 24km/h | 25313m | 4.2m/s | -51.4°C | 1.0% | 25.5hPa | 2.6V | 03:32:00 | 00:00:00 | 00:00:00 | |
| DM0DOS-11 | 2026-08-30 18:18:20 | 50.02626 | 8.39118 | 204° | 9km/h | 25278m | 5.2m/s | -51.5°C | 3.8% | 25.7hPa | 2.6V | 03:32:29 | 01:36:28 | 00:00:00 | |
| HSKMA3-T | 2026-08-30 18:18:20 | 50.02624 | 8.39099 | 268° | 20km/h | 25304m | 5.6m/s | -51.4°C | 0.4% | 25.6hPa | 2.7V | 03:32:54 | 01:36:33 | 00:00:00 | |
| AA1-15 | 2026-08-30 18:18:16 | 50.02625 | 8.39116 | 221° | 7km/h | 25284m | 6.1m/s | -51.5°C | 0.3% | 25.6hPa | 2.6V | 03:32:54 | 01:36:29 | 00:00:00 | |
| BIOWL1-15 | 2026-08-30 18:18:15 | 50.02627 | 8.39118 | 205° | 9km/h | 25278m | 5.2m/s | -51.5°C | 0.4% | 25.7hPa | 2.6V | 03:32:54 | 01:36:28 | 00:00:00 | |
| DF8AY | 2026-08-30 18:18:14 | 50.02629 | 8.39120 | 209° | 9km/h | 25274m | 4.2m/s | -51.4°C | 0.3% | 25.7hPa | 2.7V | 03:32:54 | 01:36:27 | 00:00:00 | |
| DO3MHA-11 | 2026-08-30 18:18:14 | 50.02629 | 8.39119 | 210° | 18km/h | 25274m | 4.2m/s | -51.4°C | 3.7% | 25.7hPa | 2.7V | 03:32:00 | 01:36:27 | 00:00:00 | |
| DL1XH1-15 | 2026-08-30 18:18:13 | 50.02634 | 8.39152 | 256° | 22km/h | 25246m | 5.4m/s | -51.5°C | 3.7% | 25.8hPa | 2.7V | 03:32:36 | 01:36:21 | 00:00:00 | |
| DL1XH-west | 2026-08-30 18:18:12 | 50.02632 | 8.39126 | 248° | 11km/h | 25264m | 5.4m/s | -51.5°C | 0.3% | 25.8hPa | 2.6V | 03:32:54 | 01:36:25 | 00:00:00 | |
| DC4HF-4 | 2026-08-30 18:18:11 | 50.02633 | 8.39130 | 263° | 13km/h | 25259m | 4.7m/s | -51.5°C | 0.9% | 25.8hPa | 2.6V | 00:00:00 | 00:00:00 | 00:00:00 | |
| DM0DOS-11 | 2026-08-30 18:18:10 | 50.02642 | 8.39178 | 238° | 26km/h | 25230m | 4.5m/s | -51.5°C | 3.7% | 25.9hPa | 2.6V | 03:32:39 | 01:36:18 | 00:00:00 | |
| HSKMA3-T | 2026-08-30 18:18:09 | 50.02633 | 8.39144 | 265° | 20km/h | 25251m | 4.1m/s | -51.5°C | 0.3% | 25.8hPa | 2.7V | 03:32:54 | 01:36:22 | 00:00:00 | |
| AA1-15 | 2026-08-30 18:18:05 | 50.02642 | 8.39178 | 238° | 26km/h | 25230m | 4.5m/s | -51.5°C | 0.4% | 25.9hPa | 2.6V | 03:32:54 | 01:36:18 | 00:00:00 | |
| BIOWL1-15 | 2026-08-30 18:18:04 | 50.02645 | 8.39185 | 239° | 22km/h | 25226m | 4.6m/s | -51.5°C | 0.4% | 25.9hPa | 2.6V | 03:32:54 | 01:36:17 | 00:00:00 | |
| DF8AY | 2026-08-30 18:18:03 | 50.02648 | 8.39193 | 243° | 20km/h | 25221m | 5.7m/s | -51.5°C | 0.4% | 25.9hPa | 2.6V | 03:32:54 | 01:36:16 | 00:00:00 | |
| DL1XH1-15 | 2026-08-30 18:18:03 | 50.02658 | 8.39214 | 204° | 13km/h | 25194m | 5.2m/s | -51.5°C | 3.8% | 26hPa | 2.6V | 03:32:46 | 01:36:11 | 00:00:00 | |
| DL1XH-15 | 2026-08-30 18:18:02 | 50.02661 | 8.39217 | 204° | 15km/h | 25190m | 4.3m/s | -51.5°C | 3.8% | 26hPa | 2.6V | 03:32:47 | 01:36:10 | 00:00:00 | |
| DL1XH-west | 2026-08-30 18:18:02 | 50.02650 | 8.39199 | 248° | 16km/h | 25215m | 5m/s | -51.5°C | 0.5% | 26hPa | 2.7V | 03:32:54 | 01:36:15 | 00:00:00 | |
| DM0DOS-11 | 2026-08-30 18:18:00 | 50.02667 | 8.39222 | 219° | 13km/h | 25180m | 5.6m/s | -51.5°C | 3.7% | 26.1hPa | 2.7V | 03:32:49 | 01:36:08 | 00:00:00 | |
| HSKMA3-T | 2026-08-30 18:17:58 | 50.02658 | 8.39214 | 205° | 15km/h | 25194m | 5.2m/s | -51.5°C | 0.4% | 26.1hPa | 2.6V | 03:32:54 | 01:36:11 | 00:00:00 | |
| AA1-15 | 2026-08-30 18:17:55 | 50.02667 | 8.39222 | 220° | 13km/h | 25180m | 5.6m/s | -51.5°C | 0.3% | 26.1hPa | 2.7V | 03:32:54 | 01:36:08 | 00:00:00 | |
| BIOWL1-15 | 2026-08-30 18:17:54 | 50.02669 | 8.39225 | 228° | 13km/h | 25175m | 4.5m/s | -51.5°C | 0.4% | 26.1hPa | 2.6V | 03:32:54 | 01:36:07 | 00:00:00 | |
| DO3MHA-11 | 2026-08-30 18:17:54 | 50.02669 | 8.39225 | 229° | 18km/h | 25176m | 4.5m/s | -51.4°C | 3.7% | 26.1hPa | 2.6V | 00:00:00 | 01:36:07 | 00:00:00 | |
| DL1XH-15 | 2026-08-30 18:17:52 | 50.02695 | 8.39262 | 231° | 20km/h | 25140m | 5.3m/s | -51.5°C | 3.9% | 26.3hPa | 2.6V | 03:32:57 | 01:36:00 | 00:00:00 | |
| DL1XH-west | 2026-08-30 18:17:52 | 50.02675 | 8.39234 | 222° | 18km/h | 25166m | 5.7m/s | -51.5°C | 0.3% | 26.1hPa | 2.6V | 03:32:54 | 01:36:05 | 00:00:00 | |
| DJ2DS-15 | 2026-08-30 18:17:52 | 50.02678 | 8.39239 | 218° | 20km/h | 25160m | 5.6m/s | -51.5°C | 0.9% | 26.2hPa | 2.6V | 00:00:00 | 00:00:00 | 00:00:00 | |
| CB1BUN | 2026-08-30 18:17:51 | 50.02674 | 8.39234 | 223° | 18km/h | 25166m | 5.7m/s | -51.5°C | 0.9% | 26.2hPa | 2.6V | 03:32:00 | 00:00:00 | 00:00:00 | |
| DM0DOS-11 | 2026-08-30 18:17:50 | 50.02701 | 8.39273 | 220° | 16km/h | 25131m | 4.7m/s | -51.4°C | 3.8% | 26.3hPa | 2.6V | 03:32:59 | 01:35:58 | 00:00:00 | |
| HSKMA3-T | 2026-08-30 18:17:48 | 50.02691 | 8.39256 | 228° | 22km/h | 25146m | 5.4m/s | -51.5°C | 0.4% | 26.2hPa | 2.6V | 03:33:45 | 01:36:01 | 00:00:00 | |
| DL9PN | 2026-08-30 18:17:46 | 50.02698 | 8.39268 | 229° | 16km/h | 25136m | 4.4m/s | -51.4°C | 1.0% | 26.3hPa | 2.7V | 00:00:00 | 00:00:00 | 00:00:00 | |
| BIOWL9-15 | 2026-08-30 18:17:45 | 50.02701 | 8.39273 | 220° | 15km/h | 25131m | 4.7m/s | -51.4°C | 0.9% | 26.3hPa | 2.7V | 00:00:00 | 00:00:00 | 00:00:00 | |
| BIOWL1-15 | 2026-08-30 18:17:44 | 50.02704 | 8.39277 | 206° | 16km/h | 25126m | 5.5m/s | -51.4°C | 0.4% | 26.3hPa | 2.7V | 03:33:45 | 01:35:57 | 00:00:00 | |
| DL1XH-west | 2026-08-30 18:17:41 | 50.02718 | 8.39281 | 188° | 18km/h | 25112m | 4.1m/s | -51.5°C | 0.4% | 26.4hPa | 2.6V | 03:33:45 | 01:35:54 | 00:00:00 | |
| HSKMA3-T | 2026-08-30 18:17:37 | 50.02729 | 8.39287 | 207° | 9km/h | 25092m | 3.9m/s | -51.6°C | 0.3% | 26.4hPa | 2.7V | 03:33:45 | 01:35:50 | 00:00:00 | |
| BIOWL1-15 | 2026-08-30 18:17:34 | 50.02740 | 8.39290 | 179° | 20km/h | 25078m | 5.9m/s | -51.6°C | 0.3% | 26.5hPa | 2.6V | 03:33:45 | 01:35:47 | 00:00:00 | |
| DO3MHA-11 | 2026-08-30 18:17:34 | 50.02740 | 8.39290 | 180° | 22km/h | 25078m | 5.8m/s | -51.6°C | 3.7% | 26.4hPa | 2.6V | 03:33:00 | 01:35:47 | 00:00:00 | |
| DL1XH1-15 | 2026-08-30 18:17:33 | 50.02776 | 8.39295 | 201° | 20km/h | 25048m | 4.7m/s | -51.5°C | 3.9% | 26.6hPa | 2.6V | 03:33:16 | 01:35:41 | 00:00:00 | |
| AA1-15 | 2026-08-30 18:17:33 | 50.02746 | 8.39289 | 177° | 26km/h | 25073m | 4.9m/s | -51.6°C | 0.4% | 26.5hPa | 2.7V | 03:33:45 | 01:35:46 | 00:00:00 | |
| DL1XH-west | 2026-08-30 18:17:31 | 50.02759 | 8.39289 | 183° | 27km/h | 25064m | 5m/s | -51.6°C | 0.4% | 26.6hPa | 2.7V | 03:33:45 | 01:35:44 | 00:00:00 | |
| DM0DOS-11 | 2026-08-30 18:17:30 | 50.02789 | 8.39299 | 176° | 18km/h | 25033m | 4.9m/s | -51.6°C | 3.9% | 26.7hPa | 2.7V | 03:33:19 | 01:35:38 | 00:00:00 | |
| DF8AY | 2026-08-30 18:17:29 | 50.02771 | 8.39293 | 198° | 22km/h | 25053m | 4.9m/s | -51.5°C | 0.4% | 0hPa | 2.6V | 03:33:45 | 01:35:42 | 00:00:00 | |
| HSKMA3-T | 2026-08-30 18:17:27 | 50.02780 | 8.39298 | 197° | 18km/h | 25043m | 4.8m/s | -51.6°C | 0.5% | 26.6hPa | 2.6V | 03:33:45 | 01:35:40 | 00:00:00 | |
| HEMX73-11 | 2026-08-30 18:17:27 | 50.02780 | 8.39298 | 198° | 18km/h | 25044m | 4.8m/s | -51.6°C | 1.0% | 26.7hPa | 2.6V | 03:33:00 | 00:00:00 | 00:00:00 | |
| DD1CC8 | 2026-08-30 18:17:26 | 50.02785 | 8.39299 | 187° | 16km/h | 25038m | 5.6m/s | -51.6°C | 1.0% | 26.7hPa | 2.6V | 00:00:00 | 00:00:00 | 00:00:00 | |
| DN1GJH-1 | 2026-08-30 18:17:25 | 50.02789 | 8.39299 | 178° | 18km/h | 25033m | 4.9m/s | -51.6°C | 1.0% | 26.7hPa | 2.6V | 03:33:00 | 00:00:00 | 00:00:00 | |
| DO3MHA-11 | 2026-08-30 18:17:24 | 50.02794 | 8.39299 | 172° | 20km/h | 25029m | 4.2m/s | -51.5°C | 3.8% | 26.7hPa | 2.6V | 00:00:00 | 01:35:37 | 00:00:00 | |
| DL1XH1-15 | 2026-08-30 18:17:23 | 50.02822 | 8.39286 | 152° | 24km/h | 24998m | 5.9m/s | -51.6°C | 3.7% | 26.8hPa | 2.6V | 03:33:26 | 01:35:31 | 00:00:00 | |
| BIOWL1-15 | 2026-08-30 18:17:23 | 50.02799 | 8.39298 | 169° | 18km/h | 25024m | 4.6m/s | -51.6°C | 0.4% | 26.8hPa | 2.6V | 03:33:45 | 01:35:36 | 00:00:00 | |
| NBG1-10 | 2026-08-30 18:17:23 | 50.02799 | 8.39297 | 170° | 13km/h | 25024m | 4.6m/s | -51.5°C | 3.8% | 26.7hPa | 2.6V | 00:00:00 | 01:35:36 | 00:00:00 | |
| DL1XH-15 | 2026-08-30 18:17:22 | 50.02827 | 8.39282 | 152° | 24km/h | 24993m | 4.7m/s | -51.6°C | 3.8% | 26.8hPa | 2.6V | 03:33:27 | 01:35:30 | 00:00:00 | |
| AA1-15 | 2026-08-30 18:17:22 | 50.02803 | 8.39296 | 169° | 18km/h | 25019m | 5.9m/s | -51.5°C | 0.3% | 26.8hPa | 2.6V | 03:33:45 | 01:35:35 | 00:00:00 | |
| DL1XH-west | 2026-08-30 18:17:20 | 50.02812 | 8.39293 | 161° | 18km/h | 25009m | 4.2m/s | -51.6°C | 0.3% | 26.8hPa | 2.7V | 03:33:45 | 01:35:33 | 00:00:00 | |
| HSKMA3-T | 2026-08-30 18:17:16 | 50.02832 | 8.39278 | 155° | 22km/h | 24989m | 3.9m/s | -51.6°C | 0.4% | 26.9hPa | 2.6V | 03:33:45 | 01:35:29 | 00:00:00 | |
| DL9PN | 2026-08-30 18:17:15 | 50.02837 | 8.39275 | 161° | 18km/h | 24984m | 5.4m/s | -51.6°C | 0.9% | 26.9hPa | 2.7V | 00:00:00 | 00:00:00 | 00:00:00 | |
| DB0ND-19 | 2026-08-30 18:17:14 | 50.02844 | 8.39273 | 184° | 9km/h | 24973m | 5.0m/s | -51.6°C | 0.9% | 26.9hPa | 2.7V | 00:00:00 | 00:00:00 | 00:00:00 | |
| DL1XH1-15 | 2026-08-30 18:17:13 | 50.02853 | 8.39267 | 141° | 9km/h | 24949m | 4.1m/s | -51.5°C | 3.8% | 27hPa | 2.7V | 03:33:36 | 01:35:21 | 00:00:00 | |
| DL1XH-15 | 2026-08-30 18:17:12 | 50.02855 | 8.39265 | 149° | 9km/h | 24944m | 5.6m/s | -51.5°C | 3.7% | 27.1hPa | 2.7V | 03:33:37 | 01:35:20 | 00:00:00 | |
| BIOWL1-15 | 2026-08-30 18:17:12 | 50.02846 | 8.39273 | 184° | 7km/h | 24969m | 4.7m/s | -51.5°C | 0.5% | 27hPa | 2.6V | 03:33:45 | 01:35:25 | 00:00:00 | |
| DF8AY | 2026-08-30 18:17:11 | 50.02848 | 8.39273 | 168° | 5km/h | 24964m | 5.4m/s | -51.6°C | 0.4% | 0hPa | 2.6V | 03:33:45 | 01:35:24 | 00:00:00 | |
| DL1XH-west | 2026-08-30 18:17:09 | 50.02851 | 8.39270 | 138° | 9km/h | 24953m | 4.3m/s | -51.5°C | 0.4% | 27.1hPa | 2.6V | 03:33:45 | 01:35:22 | 00:00:00 | |
| HSKMA3-T | 2026-08-30 18:17:05 | 50.02860 | 8.39262 | 161° | 13km/h | 24934m | 4.8m/s | -51.6°C | 0.4% | 27.1hPa | 2.6V | 03:33:45 | 01:35:18 | 00:00:00 | |
| SONCRA | 2026-08-30 18:17:05 | 50.02863 | 8.39260 | 156° | 15km/h | 24929m | 5.0m/s | -51.6°C | 0.9% | 27.1hPa | 2.6V | 00:00:00 | 00:00:00 | 00:00:00 | |
| DO3MHA-11 | 2026-08-30 18:17:04 | 50.02863 | 8.39260 | 157° | 11km/h | 24929m | 4.9m/s | -51.6°C | 3.8% | 27.1hPa | 2.6V | 00:00:00 | 01:35:17 | 00:00:00 | |
| DL1XH1-15 | 2026-08-30 18:17:03 | 50.02881 | 8.39241 | 139° | 4km/h | 24900m | 5.5m/s | -51.7°C | 3.8% | 27.3hPa | 2.6V | 03:33:46 | 01:35:11 | 00:00:00 | |
| SONDE2-11 | 2026-08-30 18:17:03 | 50.02866 | 8.39257 | 150° | 16km/h | 24923m | 5.9m/s | -51.6°C | 0.9% | 27.2hPa | 2.7V | 00:00:00 | 00:00:00 | 00:00:00 | |
| DL1XH-15 | 2026-08-30 18:17:02 | 50.02881 | 8.39241 | 13° | 2km/h | 24895m | 4.6m/s | -51.7°C | 3.7% | 27.3hPa | 2.7V | 03:33:47 | 01:35:10 | 00:00:00 | |
| BIOWL1-15 | 2026-08-30 18:17:01 | 50.02874 | 8.39249 | 143° | 18km/h | 24914m | 3.6m/s | -51.7°C | 0.4% | 27.2hPa | 2.7V | 03:33:45 | 01:35:14 | 00:00:00 | |
| DM0DOS-11 | 2026-08-30 18:17:00 | 50.02879 | 8.39239 | 41° | 7km/h | 24885m | 5.3m/s | -51.8°C | 3.8% | 27.3hPa | 2.7V | 03:33:49 | 01:35:08 | 00:00:00 | |
| AA1-15 | 2026-08-30 18:17:00 | 50.02877 | 8.39245 | 143° | 15km/h | 24910m | 3.9m/s | -51.7°C | 0.4% | 27.2hPa | 2.6V | 03:33:45 | 01:35:13 | 00:00:00 | |
| DL1XH-west | 2026-08-30 18:16:59 | 50.02880 | 8.39243 | 143° | 9km/h | 24906m | 5.6m/s | -51.7°C | 0.4% | 27.2hPa | 2.6V | 03:33:45 | 01:35:12 | 00:00:00 | |
| DF8AY | 2026-08-30 18:16:58 | 50.02881 | 8.39241 | 139° | 4km/h | 24900m | 5.5m/s | -51.7°C | 0.4% | 0hPa | 2.6V | 03:34:36 | 01:35:11 | 00:00:00 | |
| HSKMA3-T | 2026-08-30 18:16:55 | 50.02879 | 8.39239 | 42° | 7km/h | 24885m | 5.3m/s | -51.8°C | 0.4% | 27.3hPa | 2.7V | 03:34:36 | 01:35:08 | 00:00:00 | |
| DJ2KF-10 | 2026-08-30 18:16:54 | 50.02877 | 8.39236 | 62° | 9km/h | 24880m | 5.3m/s | -51.7°C | 3.8% | 27.3hPa | 2.7V | 03:33:00 | 01:35:07 | 00:00:00 | |
| DL1XH1-15 | 2026-08-30 18:16:53 | 50.02879 | 8.39207 | 125° | 11km/h | 24850m | 4m/s | -51.7°C | 3.9% | 27.5hPa | 2.7V | 03:33:56 | 01:35:01 | 00:00:00 | |
| DL1XH-15 | 2026-08-30 18:16:52 | 50.02880 | 8.39204 | 124° | 13km/h | 24846m | 4.4m/s | -51.7°C | 3.9% | 27.5hPa | 2.6V | 03:33:57 | 01:35:00 | 00:00:00 | |
| DL8DAS-14 | 2026-08-30 18:16:52 | 50.02876 | 8.39220 | 95° | 13km/h | 24865m | 5.6m/s | -51.8°C | 0.9% | 27.4hPa | 2.6V | 00:00:00 | 00:00:00 | 00:00:00 | |
| DM0DOS-11 | 2026-08-30 18:16:50 | 50.02883 | 8.39194 | 108° | 13km/h | 24836m | 4.6m/s | -51.7°C | 3.9% | 27.5hPa | 2.6V | 03:33:59 | 01:34:58 | 00:00:00 | |
| BIOWL1-15 | 2026-08-30 18:16:50 | 50.02876 | 8.39215 | 105° | 11km/h | 24859m | 5.4m/s | -51.8°C | 0.5% | 27.4hPa | 2.7V | 03:34:36 | 01:35:03 | 00:00:00 | |
| AA1-15 | 2026-08-30 18:16:49 | 50.02877 | 8.39211 | 117° | 11km/h | 24855m | 4.5m/s | -51.8°C | 0.4% | 27.5hPa | 2.7V | 03:34:36 | 01:35:02 | 00:00:00 | |
| DL1XH-west | 2026-08-30 18:16:48 | 50.02879 | 8.39207 | 125° | 11km/h | 24850m | 4.1m/s | -51.7°C | 0.5% | 27.5hPa | 2.7V | 03:34:36 | 01:35:01 | 00:00:00 | |
| HSKMA3-T | 2026-08-30 18:16:45 | 50.02883 | 8.39194 | 109° | 15km/h | 24836m | 4.6m/s | -51.7°C | 0.5% | 27.5hPa | 2.6V | 03:34:36 | 01:34:58 | 00:00:00 | |
| BIOWL1-15 | 2026-08-30 18:16:43 | 50.02876 | 8.39182 | 16° | 11km/h | 24806m | 5.2m/s | -51.6°C | 0.4% | 27.7hPa | 2.7V | 03:34:36 | 01:34:52 | 00:00:00 | |
| DB0ND-19 | 2026-08-30 18:16:43 | 50.02883 | 8.39184 | 33° | 5km/h | 24821m | 6.1m/s | -51.7°C | 0.9% | 27.6hPa | 2.7V | 00:00:00 | 00:00:00 | 00:00:00 | |
| DL1XH-15 | 2026-08-30 18:16:42 | 50.02871 | 8.39177 | 39° | 13km/h | 24796m | 4.2m/s | -51.6°C | 3.7% | 27.7hPa | 2.7V | 03:34:07 | 01:34:50 | 00:00:00 | |
| EDDB2-11 | 2026-08-30 18:16:41 | 50.02882 | 8.39183 | 3° | 7km/h | 24816m | 5.2m/s | -51.7°C | 0.9% | 27.6hPa | 2.6V | 00:00:00 | 00:00:00 | 00:00:00 | |
| DM0DOS-11 | 2026-08-30 18:16:40 | 50.02868 | 8.39172 | 53° | 7km/h | 24787m | 5.6m/s | -51.6°C | 3.7% | 27.7hPa | 2.6V | 03:34:09 | 01:34:48 | 00:00:00 | |
| DL1XH-west | 2026-08-30 18:16:38 | 50.02874 | 8.39180 | 30° | 13km/h | 24801m | 5m/s | -51.6°C | 0.4% | 27.7hPa | 2.7V | 03:34:36 | 01:34:51 | 00:00:00 | |
| DF8AY | 2026-08-30 18:16:37 | 50.02871 | 8.39177 | 40° | 13km/h | 24796m | 4.2m/s | -51.6°C | 0.3% | 0hPa | 2.7V | 03:34:36 | 01:34:50 | 00:00:00 | |
| HSKMA3-T | 2026-08-30 18:16:34 | 50.02867 | 8.39170 | 78° | 4km/h | 24782m | 5.2m/s | -51.6°C | 0.4% | 27.8hPa | 2.6V | 03:34:36 | 01:34:47 | 00:00:00 | |
| DO3MHA-11 | 2026-08-30 18:16:34 | 50.02867 | 8.39170 | 78° | 7km/h | 24782m | 5.2m/s | -51.6°C | 3.7% | 27.7hPa | 2.6V | 00:00:00 | 01:34:47 | 00:00:00 | |
| DL1XH1-15 | 2026-08-30 18:16:33 | 50.02874 | 8.39153 | 113° | 9km/h | 24753m | 3.8m/s | -51.6°C | 3.9% | 27.9hPa | 2.6V | 03:34:16 | 01:34:41 | 00:00:00 | |
| DO1YAY-16 | 2026-08-30 18:16:33 | 50.02868 | 8.39166 | 133° | 7km/h | 24773m | 4.6m/s | -51.7°C | 0.9% | 27.8hPa | 2.7V | 00:00:00 | 00:00:00 | 00:00:00 | |
| SONDE2-11 | 2026-08-30 18:16:32 | 50.02869 | 8.39164 | 131° | 9km/h | 24767m | 5.6m/s | -51.7°C | 0.9% | 27.8hPa | 2.7V | 00:00:00 | 00:00:00 | 00:00:00 | |
| DM0DOS-11 | 2026-08-30 18:16:30 | 50.02873 | 8.39149 | 350° | 7km/h | 24738m | 4.5m/s | -51.5°C | 3.8% | 28hPa | 2.7V | 03:34:19 | 01:34:38 | 00:00:00 | |
| BIOWL1-15 | 2026-08-30 18:16:28 | 50.02874 | 8.39153 | 113° | 9km/h | 24753m | 3.8m/s | -51.6°C | 0.5% | 27.9hPa | 2.6V | 03:34:36 | 01:34:41 | 00:00:00 | |
| DL1XH-west | 2026-08-30 18:16:27 | 50.02875 | 8.39150 | 98° | 5km/h | 24749m | 5.6m/s | -51.6°C | 0.5% | 27.9hPa | 2.6V | 03:34:36 | 01:34:40 | 00:00:00 | |
| DF8AY | 2026-08-30 18:16:26 | 50.02874 | 8.39149 | 14° | 4km/h | 24743m | 5.4m/s | -51.5°C | 0.3% | 0hPa | 2.7V | 03:34:36 | 01:34:39 | 00:00:00 | |
| HSKMA3-T | 2026-08-30 18:16:23 | 50.02869 | 8.39148 | 22° | 11km/h | 24730m | 4.3m/s | -51.5°C | 0.4% | 28hPa | 2.6V | 03:34:36 | 01:34:36 | 00:00:00 | |
| DC4HF-4 | 2026-08-30 18:16:23 | 50.02866 | 8.39146 | 42° | 11km/h | 24725m | 5.6m/s | -51.5°C | 0.9% | 28.0hPa | 2.6V | 00:00:00 | 00:00:00 | 00:00:00 | |
| DL1XH-15 | 2026-08-30 18:16:22 | 50.02863 | 8.39120 | 93° | 9km/h | 24700m | 4.8m/s | -51.4°C | 3.7% | 28.1hPa | 2.6V | 03:34:27 | 01:34:30 | 00:00:00 | |
| DL8DAS-14 | 2026-08-30 18:16:21 | 50.02863 | 8.39136 | 76° | 15km/h | 24715m | 4.2m/s | -51.5°C | 0.9% | 28.1hPa | 2.6V | 00:00:00 | 00:00:00 | 00:00:00 | |
| DM0DOS-11 | 2026-08-30 18:16:20 | 50.02862 | 8.39115 | 67° | 7km/h | 24691m | 4.5m/s | -51.5°C | 3.7% | 28.1hPa | 2.6V | 03:34:29 | 01:34:28 | 00:00:00 | |
| BIOWL1-15 | 2026-08-30 18:16:18 | 50.02862 | 8.39125 | 91° | 13km/h | 24706m | 5.3m/s | -51.4°C | 0.3% | 28.1hPa | 2.6V | 03:34:36 | 01:34:31 | 00:00:00 | |
| DL1XH-west | 2026-08-30 18:16:17 | 50.02862 | 8.39120 | 93° | 9km/h | 24700m | 4.8m/s | -51.4°C | 0.4% | 28.1hPa | 2.6V | 03:34:36 | 01:34:30 | 00:00:00 | |
| AA1-15 | 2026-08-30 18:16:16 | 50.02862 | 8.39117 | 87° | 7km/h | 24696m | 4.5m/s | -51.5°C | 0.3% | 28.1hPa | 2.6V | 03:34:36 | 01:34:29 | 00:00:00 | |
| DF8AY | 2026-08-30 18:16:14 | 50.02861 | 8.39112 | 54° | 9km/h | 24686m | 5.4m/s | 0°C | 0% | 0hPa | 2.7V | 03:34:36 | 01:34:27 | 00:00:00 | |
| DO3MHA-11 | 2026-08-30 18:16:14 | 50.02861 | 8.39112 | 54° | 13km/h | 24687m | 5.4m/s | -51.5°C | 3.7% | 28.1hPa | 2.7V | 03:34:00 | 01:34:27 | 00:00:00 | |
| DL9PN | 2026-08-30 18:16:13 | 50.02859 | 8.39109 | 44° | 11km/h | 24681m | 5.4m/s | -51.6°C | 0.9% | 28.2hPa | 2.7V | 00:00:00 | 00:00:00 | 00:00:00 | |
| DL1XH-15 | 2026-08-30 18:16:12 | 50.02838 | 8.39099 | 13° | 11km/h | 24653m | 4.1m/s | -51.8°C | 3.7% | 28.3hPa | 2.7V | 03:34:37 | 01:34:20 | 00:00:00 | |
| HSKMA3-T | 2026-08-30 18:16:12 | 50.02856 | 8.39105 | 34° | 16km/h | 24676m | 4.5m/s | -51.6°C | 0.4% | 28.2hPa | 2.7V | 03:34:36 | 01:34:25 | 00:00:00 | |
| BIOWL1-15 | 2026-08-30 18:16:11 | 50.02838 | 8.39099 | 14° | 11km/h | 24653m | 4.1m/s | -51.8°C | 0.4% | 28.3hPa | 2.7V | 03:35:27 | 01:34:20 | 00:00:00 | |
| DL1XH-west | 2026-08-30 18:16:06 | 50.02836 | 8.39097 | 39° | 9km/h | 24648m | 5.3m/s | -51.9°C | 0.4% | 28.3hPa | 2.6V | 03:35:27 | 01:34:19 | 00:00:00 | |
| AA1-15 | 2026-08-30 18:16:05 | 50.02834 | 8.39094 | 65° | 13km/h | 24642m | 5.6m/s | -51.9°C | 0.4% | 28.4hPa | 2.6V | 03:35:27 | 01:34:18 | 00:00:00 | |
| DF8AY | 2026-08-30 18:16:03 | 50.02832 | 8.39084 | 74° | 15km/h | 24633m | 3.8m/s | 0°C | 0% | 0hPa | 2.7V | 18:12:15 | 01:34:16 | 00:00:00 | |
| SONCRA | 2026-08-30 18:16:03 | 50.02831 | 8.39080 | 64° | 11km/h | 24629m | 5.1m/s | -51.9°C | 1.0% | 28.4hPa | 2.6V | 00:00:00 | 00:00:00 | 00:00:00 | |
| DL1XH-15 | 2026-08-30 18:16:02 | 50.02811 | 8.39070 | 8° | 24km/h | 24603m | 4.7m/s | -51.9°C | 3.8% | 28.5hPa | 2.6V | 03:34:47 | 01:34:10 | 00:00:00 | |
| HSKMA3-T | 2026-08-30 18:16:01 | 50.02829 | 8.39076 | 36° | 11km/h | 24624m | 5.1m/s | -51.9°C | 0.5% | 28.5hPa | 2.7V | 03:35:27 | 01:34:14 | 00:00:00 | |
| SONDE2-11 | 2026-08-30 18:16:01 | 50.02826 | 8.39074 | 14° | 15km/h | 24619m | 4.5m/s | -51.9°C | 1.0% | 28.5hPa | 2.7V | 00:00:00 | 00:00:00 | 00:00:00 | |
| DM0DOS-11 | 2026-08-30 18:16:00 | 50.02800 | 8.39068 | 3° | 22km/h | 24595m | 4.2m/s | -52°C | 3.9% | 28.6hPa | 2.7V | 03:34:49 | 01:34:08 | 00:00:00 | |
| BIOWL1-15 | 2026-08-30 18:15:56 | 50.02806 | 8.39069 | 8° | 24km/h | 24599m | 3.9m/s | -51.9°C | 0.4% | 28.6hPa | 2.7V | 03:35:27 | 01:34:09 | 00:00:00 | |
| DL1XH-west | 2026-08-30 18:15:55 | 50.02800 | 8.39068 | 4° | 22km/h | 24595m | 4.2m/s | -52°C | 0.5% | 28.6hPa | 2.7V | 03:35:27 | 01:34:08 | 00:00:00 | |
| DF8AY | 2026-08-30 18:15:53 | 50.02790 | 8.39069 | 350° | 18km/h | 24585m | 5.4m/s | 0°C | 0% | 0hPa | 2.6V | 18:12:15 | 01:34:06 | 00:00:00 | |
| DM0DOS-11 | 2026-08-30 18:15:51 | 50.02758 | 8.39066 | 348° | 15km/h | 24545m | 5.1m/s | -51.8°C | 3.8% | 28.8hPa | 2.7V | 03:34:59 | 01:33:58 | 00:00:00 | |
| HSKMA3-T | 2026-08-30 18:15:50 | 50.02777 | 8.39072 | 4° | 15km/h | 24570m | 5.6m/s | -52°C | 0.5% | 28.7hPa | 2.7V | 03:35:27 | 01:34:03 | 00:00:00 | |
| BIOWL1-15 | 2026-08-30 18:15:45 | 50.02758 | 8.39066 | 349° | 15km/h | 24546m | 5.1m/s | -51.8°C | 0.4% | 28.8hPa | 2.7V | 03:35:27 | 01:33:58 | 00:00:00 | |
| AA1-15 | 2026-08-30 18:15:44 | 50.02755 | 8.39067 | 341° | 16km/h | 24541m | 4.5m/s | -51.8°C | 0.4% | 28.8hPa | 2.7V | 03:35:27 | 01:33:57 | 00:00:00 | |
| DF8AY | 2026-08-30 18:15:43 | 50.02751 | 8.39070 | 341° | 16km/h | 24536m | 5m/s | 0°C | 0% | 0hPa | 2.7V | 18:12:15 | 01:33:56 | 00:00:00 | |
| DL8OAI-8 | 2026-08-30 18:15:43 | 50.02751 | 8.39069 | 342° | 16km/h | 24536m | 5.0m/s | -51.8°C | 1.0% | 28.8hPa | 2.6V | 03:35:00 | 00:00:00 | 00:00:00 | |
| DL9PN | 2026-08-30 18:15:42 | 50.02747 | 8.39072 | 343° | 16km/h | 24531m | 5.6m/s | -51.8°C | 1.0% | 28.9hPa | 2.6V | 00:00:00 | 00:00:00 | 00:00:00 | |
| DB0ND-19 | 2026-08-30 18:15:41 | 50.02738 | 8.39076 | 335° | 18km/h | 24522m | 3.9m/s | -51.7°C | 1.0% | 28.9hPa | 2.6V | 00:00:00 | 00:00:00 | 00:00:00 | |
| DM0DOS-11 | 2026-08-30 18:15:40 | 50.02715 | 8.39100 | 334° | 22km/h | 24498m | 5.1m/s | -51.8°C | 3.7% | 29hPa | 2.6V | 03:35:09 | 01:33:48 | 00:00:00 | |
| HSKMA3-T | 2026-08-30 18:15:39 | 50.02734 | 8.39080 | 329° | 20km/h | 24517m | 5.2m/s | -51.7°C | 0.4% | 28.9hPa | 2.6V | 03:35:27 | 01:33:52 | 00:00:00 | |
| DL1XH-west | 2026-08-30 18:15:34 | 50.02711 | 8.39102 | 348° | 20km/h | 24493m | 5.4m/s | -51.8°C | 0.4% | 29hPa | 2.6V | 03:35:27 | 01:33:47 | 00:00:00 | |
| AA1-15 | 2026-08-30 18:15:33 | 50.02706 | 8.39103 | 358° | 18km/h | 24488m | 4.5m/s | -51.9°C | 0.4% | 29.1hPa | 2.6V | 03:35:27 | 01:33:46 | 00:00:00 | |
| DF8AY | 2026-08-30 18:15:32 | 50.02701 | 8.39103 | 1° | 16km/h | 24483m | 3.9m/s | 0°C | 0% | 0hPa | 2.7V | 18:12:15 | 01:33:45 | 00:00:00 | |
| DL1XH-15 | 2026-08-30 18:15:32 | 50.02685 | 8.39116 | 314° | 18km/h | 24459m | 4.5m/s | -52°C | 3.8% | 29.2hPa | 2.7V | 03:35:17 | 01:33:40 | 00:00:00 | |
| SONCRA | 2026-08-30 18:15:32 | 50.02697 | 8.39103 | 355° | 15km/h | 24479m | 5.2m/s | -51.9°C | 1.0% | 29.1hPa | 2.7V | 00:00:00 | 00:00:00 | 00:00:00 | |
| DO1YAY-16 | 2026-08-30 18:15:31 | 50.02694 | 8.39105 | 338° | 13km/h | 24474m | 5.4m/s | -52.0°C | 0.9% | 29.1hPa | 2.7V | 00:00:00 | 00:00:00 | 00:00:00 | |
| DM0DOS-11 | 2026-08-30 18:15:30 | 50.02678 | 8.39126 | 319° | 20km/h | 24449m | 4.9m/s | -52°C | 3.9% | 29.3hPa | 2.7V | 03:35:19 | 01:33:38 | 00:00:00 | |
| HSKMA3-T | 2026-08-30 18:15:29 | 50.02691 | 8.39107 | 323° | 15km/h | 24468m | 4.9m/s | -52°C | 0.4% | 29.1hPa | 2.6V | 03:35:27 | 01:33:42 | 00:00:00 | |
| BIOWL1-15 | 2026-08-30 18:15:24 | 50.02674 | 8.39132 | 318° | 22km/h | 24444m | 4.2m/s | -52°C | 0.5% | 29.3hPa | 2.6V | 03:35:27 | 01:33:37 | 00:00:00 | |
| DL1XH-west | 2026-08-30 18:15:23 | 50.02670 | 8.39138 | 313° | 22km/h | 24440m | 5m/s | -52°C | 0.4% | 29.3hPa | 2.6V | 03:35:27 | 01:33:36 | 00:00:00 | |
| AA1-15 | 2026-08-30 18:15:22 | 50.02666 | 8.39144 | 307° | 22km/h | 24435m | 5.7m/s | -52°C | 0.4% | 29.3hPa | 2.6V | 03:35:27 | 01:33:35 | 00:00:00 | |
| HSKMA3-T | 2026-08-30 18:15:19 | 50.02657 | 8.39164 | 314° | 18km/h | 24421m | 4.8m/s | -52°C | 0.4% | 29.4hPa | 2.7V | 03:35:27 | 01:33:32 | 00:00:00 | |
| DB0UT-9 | 2026-08-30 18:15:18 | 50.02656 | 8.39164 | 315° | 18km/h | 24421m | 4.8m/s | -52.0°C | 1.0% | 29.4hPa | 2.7V | 03:35:00 | 00:00:00 | 00:00:00 | |
| DB0NH | 2026-08-30 18:15:17 | 50.02649 | 8.39173 | 328° | 18km/h | 24411m | 4.2m/s | -52.0°C | 3.9% | 29.4hPa | 2.7V | 03:35:00 | 01:33:30 | 00:00:00 | |
| DJTTGO | 2026-08-30 18:15:16 | 50.02649 | 8.39173 | 329° | 18km/h | 24411m | 4.2m/s | -52.1°C | 1.0% | 29.4hPa | 2.7V | 03:35:00 | 00:00:00 | 00:00:00 | |
| EDDB2-12 | 2026-08-30 18:15:15 | 50.02642 | 8.39182 | 314° | 20km/h | 24402m | 5.3m/s | -52.0°C | 1.0% | 29.5hPa | 2.7V | 00:00:00 | 00:00:00 | 00:00:00 | |
| DO3MHA-11 | 2026-08-30 18:15:14 | 50.02638 | 8.39189 | 306° | 22km/h | 24396m | 5.7m/s | -52.0°C | 3.9% | 29.4hPa | 2.7V | 00:00:00 | 01:33:27 | 00:00:00 | |
| DL1XH1-15 | 2026-08-30 18:15:13 | 50.02617 | 8.39233 | 317° | 18km/h | 24366m | 4.8m/s | -52°C | 3.9% | 29.6hPa | 2.7V | 03:35:36 | 01:33:21 | 00:00:00 | |
| DL1XH-west | 2026-08-30 18:15:13 | 50.02635 | 8.39197 | 301° | 26km/h | 24391m | 4.6m/s | -52°C | 0.5% | 29.5hPa | 2.7V | 03:36:18 | 01:33:26 | 00:00:00 | |
| AA1-15 | 2026-08-30 18:15:11 | 50.02628 | 8.39214 | 304° | 24km/h | 24381m | 5.6m/s | -52°C | 0.4% | 29.6hPa | 2.6V | 03:36:18 | 01:33:24 | 00:00:00 | |
| DC4HF-4 | 2026-08-30 18:15:11 | 50.02625 | 8.39221 | 309° | 22km/h | 24376m | 5.1m/s | -52.0°C | 1.0% | 29.6hPa | 2.6V | 00:00:00 | 00:00:00 | 00:00:00 | |
| DM0DOS-11 | 2026-08-30 18:15:10 | 50.02608 | 8.39248 | 310° | 18km/h | 24350m | 4.4m/s | -51.9°C | 3.9% | 29.7hPa | 2.6V | 03:35:39 | 01:33:18 | 00:00:00 | |
| HSKMA3-T | 2026-08-30 18:15:08 | 50.02617 | 8.39233 | 317° | 18km/h | 24366m | 4.8m/s | -52°C | 0.5% | 29.6hPa | 2.7V | 03:36:18 | 01:33:21 | 00:00:00 | |
| DJ2DS-15 | 2026-08-30 18:15:08 | 50.02617 | 8.39233 | 318° | 16km/h | 24367m | 4.7m/s | -51.9°C | 3.9% | 29.6hPa | 2.6V | 00:00:00 | 01:33:21 | 00:00:00 | |
| DL3AQ-11 | 2026-08-30 18:15:06 | 50.02608 | 8.39248 | 310° | 16km/h | 24351m | 4.4m/s | -51.9°C | 1.0% | 29.7hPa | 2.6V | 00:00:00 | 00:00:00 | 00:00:00 | |
| DL1ZP-14 | 2026-08-30 18:15:05 | 50.02608 | 8.39248 | 310° | 16km/h | 24351m | 4.4m/s | -51.9°C | 1.0% | 29.7hPa | 2.6V | 00:00:00 | 00:00:00 | 00:00:00 | |
| DO3MHA-11 | 2026-08-30 18:15:04 | 50.02605 | 8.39253 | 317° | 16km/h | 24347m | 3.9m/s | -51.8°C | 3.9% | 29.6hPa | 2.6V | 00:00:00 | 01:33:17 | 00:00:00 | |
| DL1XH1-15 | 2026-08-30 18:15:03 | 50.02583 | 8.39271 | 317° | 16km/h | 24318m | 5.2m/s | -51.8°C | 3.8% | 29.8hPa | 2.6V | 03:35:46 | 01:33:11 | 00:00:00 | |
| DL1XH-west | 2026-08-30 18:15:03 | 50.02601 | 8.39257 | 327° | 16km/h | 24342m | 4.8m/s | -51.9°C | 0.4% | 29.7hPa | 2.6V | 03:36:18 | 01:33:16 | 00:00:00 | |
| BIOWL1-15 | 2026-08-30 18:15:02 | 50.02598 | 8.39260 | 337° | 16km/h | 24337m | 5.3m/s | -51.9°C | 0.5% | 29.7hPa | 2.7V | 03:36:18 | 01:33:15 | 00:00:00 | |
| AA1-15 | 2026-08-30 18:15:00 | 50.02590 | 8.39265 | 339° | 16km/h | 24328m | 4m/s | -51.8°C | 0.4% | 29.8hPa | 2.7V | 03:36:18 | 01:33:13 | 00:00:00 | |
| HSKMA3-T | 2026-08-30 18:14:57 | 50.02580 | 8.39276 | 311° | 18km/h | 24313m | 4.3m/s | -51.8°C | 0.4% | 29.8hPa | 2.6V | 03:36:18 | 01:33:10 | 00:00:00 | |
| DL1XH-15 | 2026-08-30 18:14:55 | 50.02553 | 8.39296 | 339° | 15km/h | 24280m | 5.3m/s | -51.8°C | 3.7% | 30hPa | 2.7V | 03:35:54 | 01:33:03 | 00:00:00 | |
| DO3MHA-11 | 2026-08-30 18:14:54 | 50.02569 | 8.39290 | 337° | 16km/h | 24300m | 5.4m/s | -51.7°C | 3.8% | 29.8hPa | 2.6V | 03:35:00 | 01:33:07 | 00:00:00 | |
| DL1XH1-15 | 2026-08-30 18:14:53 | 50.02546 | 8.39301 | 337° | 16km/h | 24271m | 4m/s | -51.8°C | 3.7% | 30hPa | 2.6V | 03:35:56 | 01:33:01 | 00:00:00 | |
| DL1XH-west | 2026-08-30 18:14:52 | 50.02561 | 8.39293 | 350° | 16km/h | 24290m | 4.3m/s | -51.7°C | 0.4% | 30hPa | 2.6V | 03:36:18 | 01:33:05 | 00:00:00 | |
| BIOWL1-15 | 2026-08-30 18:14:51 | 50.02557 | 8.39295 | 347° | 16km/h | 24285m | 5.1m/s | -51.8°C | 0.4% | 30hPa | 2.7V | 03:36:18 | 01:33:04 | 00:00:00 | |
| AA1-15 | 2026-08-30 18:14:49 | 50.02550 | 8.39299 | 336° | 15km/h | 24275m | 4.3m/s | -51.8°C | 0.3% | 30hPa | 2.7V | 03:36:18 | 01:33:02 | 00:00:00 | |
| HSKMA3-T | 2026-08-30 18:14:47 | 50.02542 | 8.39303 | 343° | 16km/h | 24266m | 5.2m/s | -51.8°C | 0.3% | 30.1hPa | 2.6V | 03:36:18 | 01:33:00 | 00:00:00 | |
| DF7PN | 2026-08-30 18:14:46 | 50.02538 | 8.39305 | 347° | 15km/h | 24261m | 5.0m/s | -51.8°C | 0.9% | 30.1hPa | 2.6V | 00:00:00 | 00:00:00 | 00:00:00 | |
| DL1XH-15 | 2026-08-30 18:14:45 | 50.02522 | 8.39320 | 331° | 11km/h | 24233m | 4.9m/s | -52.1°C | 3.7% | 30.2hPa | 2.6V | 03:36:04 | 01:32:53 | 00:00:00 | |
| DO3MHA-11 | 2026-08-30 18:14:44 | 50.02531 | 8.39308 | 337° | 13km/h | 24252m | 4.7m/s | -51.8°C | 3.7% | 30.1hPa | 2.7V | 00:00:00 | 01:32:57 | 00:00:00 | |
| DL1XH1-15 | 2026-08-30 18:14:43 | 50.02517 | 8.39321 | 2° | 13km/h | 24222m | 4.7m/s | -52.3°C | 3.8% | 30.3hPa | 2.7V | 03:36:06 | 01:32:51 | 00:00:00 | |
| DL1XH-west | 2026-08-30 18:14:42 | 50.02526 | 8.39314 | 313° | 13km/h | 24241m | 4.5m/s | -52.1°C | 0.4% | 30.2hPa | 2.7V | 03:36:18 | 01:32:55 | 00:00:00 | |
| HEMX73-11 | 2026-08-30 18:14:41 | 50.02526 | 8.39314 | 314° | 13km/h | 24241m | 4.5m/s | -52.1°C | 0.9% | 30.2hPa | 2.6V | 03:36:00 | 00:00:00 | 00:00:00 | |
| DM0DOS-11 | 2026-08-30 18:14:40 | 50.02507 | 8.39322 | 341° | 13km/h | 24208m | 5.5m/s | -52.4°C | 3.8% | 30.3hPa | 2.6V | 03:36:09 | 01:32:48 | 00:00:00 | |
| BIOWL1-15 | 2026-08-30 18:14:40 | 50.02522 | 8.39320 | 332° | 11km/h | 24233m | 4.9m/s | -52.1°C | 0.3% | 30.2hPa | 2.6V | 03:36:18 | 01:32:53 | 00:00:00 | |
| AA1-15 | 2026-08-30 18:14:38 | 50.02517 | 8.39321 | 3° | 13km/h | 24222m | 4.7m/s | -52.3°C | 0.4% | 30.3hPa | 2.7V | 03:36:18 | 01:32:51 | 00:00:00 | |
| HSKMA3-T | 2026-08-30 18:14:37 | 50.02513 | 8.39321 | 2° | 13km/h | 24218m | 4.2m/s | -52.3°C | 0.4% | 30.3hPa | 2.7V | 03:36:18 | 01:32:50 | 00:00:00 | |
| EDDB2-11 | 2026-08-30 18:14:37 | 50.02510 | 8.39321 | 353° | 13km/h | 24214m | 5.1m/s | -52.4°C | 1.0% | 30.3hPa | 2.6V | 00:00:00 | 00:00:00 | 00:00:00 | |
| DL3AQ-11 | 2026-08-30 18:14:36 | 50.02510 | 8.39321 | 353° | 13km/h | 24214m | 5.1m/s | -52.4°C | 1.0% | 30.3hPa | 2.6V | 00:00:00 | 00:00:00 | 00:00:00 | |
| DO3DL | 2026-08-30 18:14:35 | 50.02510 | 8.39321 | 355° | 13km/h | 24214m | 5.1m/s | -52.4°C | 1.0% | 30.3hPa | 2.6V | 03:36:00 | 00:00:00 | 00:00:00 | |
| DO3MHA-11 | 2026-08-30 18:14:34 | 50.02504 | 8.39324 | 336° | 11km/h | 24203m | 4.1m/s | -52.4°C | 3.8% | 30.3hPa | 2.6V | 00:00:00 | 01:32:47 | 00:00:00 | |
| DL1XH1-15 | 2026-08-30 18:14:33 | 50.02488 | 8.39326 | 353° | 9km/h | 24174m | 5.6m/s | -52.8°C | 3.9% | 30.5hPa | 2.6V | 03:36:16 | 01:32:41 | 00:00:00 | |
| DL1XH-west | 2026-08-30 18:14:32 | 50.02498 | 8.39327 | 350° | 11km/h | 24194m | 5.6m/s | -52.6°C | 0.5% | 30.4hPa | 2.7V | 03:36:18 | 01:32:45 | 00:00:00 | |
| DF3TZ-5 | 2026-08-30 18:14:32 | 50.02495 | 8.39327 | 4° | 11km/h | 24189m | 5.2m/s | -52.7°C | 1.0% | 30.5hPa | 2.7V | 00:00:00 | 00:00:00 | 00:00:00 | |
| DM0DOS-11 | 2026-08-30 18:14:30 | 50.02481 | 8.39328 | 3° | 11km/h | 24160m | 5.4m/s | -52.8°C | 3.9% | 30.6hPa | 2.7V | 03:36:19 | 01:32:38 | 00:00:00 | |
| BIOWL1-15 | 2026-08-30 18:14:30 | 50.02493 | 8.39327 | 9° | 11km/h | 24184m | 4.4m/s | -52.7°C | 0.5% | 30.5hPa | 2.6V | 03:36:18 | 01:32:43 | 00:00:00 | |
| AA1-15 | 2026-08-30 18:14:28 | 50.02488 | 8.39326 | 354° | 9km/h | 24174m | 5.6m/s | -52.8°C | 0.5% | 30.5hPa | 2.6V | 03:36:18 | 01:32:41 | 00:00:00 | |
| HSKMA3-T | 2026-08-30 18:14:26 | 50.02483 | 8.39328 | 350° | 9km/h | 24165m | 4m/s | -52.8°C | 0.5% | 30.6hPa | 2.7V | 03:36:18 | 01:32:39 | 00:00:00 | |
| DL3AQ-11 | 2026-08-30 18:14:25 | 50.02481 | 8.39328 | 3° | 9km/h | 24161m | 5.4m/s | -52.8°C | 1.0% | 30.6hPa | 2.6V | 00:00:00 | 00:00:00 | 00:00:00 | |
| DL0LBS | 2026-08-30 18:14:24 | 50.02478 | 8.39327 | 18° | 13km/h | 24155m | 5.1m/s | -52.7°C | 1.0% | 30.6hPa | 2.6V | 03:37:00 | 00:00:00 | 00:00:00 | |
| DL1XH1-15 | 2026-08-30 18:14:23 | 50.02456 | 8.39328 | 341° | 18km/h | 24126m | 4.4m/s | -52.8°C | 3.9% | 30.7hPa | 2.6V | 03:36:26 | 01:32:31 | 00:00:00 | |
| DL1XH-west | 2026-08-30 18:14:22 | 50.02471 | 8.39324 | 11° | 15km/h | 24146m | 3.9m/s | -52.8°C | 0.5% | 30.7hPa | 2.6V | 03:37:09 | 01:32:35 | 00:00:00 | |
| DM0DOS-11 | 2026-08-30 18:14:20 | 50.02443 | 8.39334 | 341° | 16km/h | 24113m | 3.7m/s | -52.9°C | 3.9% | 30.8hPa | 2.7V | 03:36:29 | 01:32:28 | 00:00:00 | |
| BIOWL1-15 | 2026-08-30 18:14:19 | 50.02460 | 8.39326 | 341° | 16km/h | 24131m | 4.7m/s | -52.8°C | 0.4% | 30.7hPa | 2.7V | 03:37:09 | 01:32:32 | 00:00:00 | |
| AA1-15 | 2026-08-30 18:14:17 | 50.02452 | 8.39330 | 345° | 18km/h | 24122m | 5.5m/s | -52.9°C | 0.5% | 30.8hPa | 2.6V | 03:37:09 | 01:32:30 | 00:00:00 | |
| HSKMA3-T | 2026-08-30 18:14:15 | 50.02443 | 8.39334 | 341° | 16km/h | 24113m | 3.7m/s | -52.9°C | 0.5% | 30.8hPa | 2.7V | 03:37:09 | 01:32:28 | 00:00:00 | |
| DF1GD-15 | 2026-08-30 18:14:15 | 50.02443 | 8.39334 | 342° | 16km/h | 24113m | 3.7m/s | -52.9°C | 1.0% | 30.8hPa | 2.7V | 03:37:00 | 00:00:00 | 00:00:00 | |
| DO3MHA-11 | 2026-08-30 18:14:14 | 50.02439 | 8.39336 | 333° | 15km/h | 24109m | 4.4m/s | -52.9°C | 3.9% | 30.8hPa | 2.7V | 03:36:00 | 01:32:27 | 00:00:00 | |
| DL1XH1-15 | 2026-08-30 18:14:13 | 50.02419 | 8.39359 | 351° | 13km/h | 24080m | 4.6m/s | -53.4°C | 4% | 30.9hPa | 2.7V | 03:36:36 | 01:32:21 | 00:00:00 | |
| DL1XH-west | 2026-08-30 18:14:11 | 50.02429 | 8.39350 | 315° | 18km/h | 24094m | 4m/s | -53.2°C | 0.5% | 30.9hPa | 2.6V | 03:37:09 | 01:32:24 | 00:00:00 | |
| BIOWL1-15 | 2026-08-30 18:14:09 | 50.02422 | 8.39357 | 335° | 15km/h | 24085m | 5.1m/s | -53.3°C | 0.4% | 30.9hPa | 2.6V | 03:37:09 | 01:32:22 | 00:00:00 | |
| AA1-15 | 2026-08-30 18:14:06 | 50.02413 | 8.39360 | 352° | 11km/h | 24072m | 4.1m/s | -53.5°C | 0.5% | 31hPa | 2.7V | 03:37:09 | 01:32:19 | 00:00:00 | |
| HSKMA3-T | 2026-08-30 18:14:05 | 50.02411 | 8.39361 | 332° | 11km/h | 24068m | 5.2m/s | -53.5°C | 0.6% | 31hPa | 2.6V | 03:37:09 | 01:32:18 | 00:00:00 | |
| NBG1-10 | 2026-08-30 18:14:05 | 50.02411 | 8.39361 | 333° | 22km/h | 24068m | 5.2m/s | -53.4°C | 4.1% | 31.0hPa | 2.6V | 00:00:00 | 01:32:18 | 00:00:00 | |
| DO3MHA-11 | 2026-08-30 18:14:04 | 50.02408 | 8.39364 | 312° | 24km/h | 24062m | 5.3m/s | -53.4°C | 4.1% | 31.0hPa | 2.6V | 00:00:00 | 01:32:17 | 00:00:00 | |
| DL1XH1-15 | 2026-08-30 18:14:03 | 50.02387 | 8.39404 | 314° | 26km/h | 24033m | 4m/s | -53.8°C | 4.1% | 31.2hPa | 2.6V | 03:36:46 | 01:32:11 | 00:00:00 | |
| DL1XH-west | 2026-08-30 18:14:01 | 50.02400 | 8.39382 | 307° | 24km/h | 24048m | 4.8m/s | -53.6°C | 0.6% | 31.1hPa | 2.7V | 03:37:09 | 01:32:14 | 00:00:00 | |
| BIOWL1-15 | 2026-08-30 18:14:00 | 50.02387 | 8.39404 | 315° | 26km/h | 24033m | 4m/s | -53.8°C | 0.5% | 31.2hPa | 2.6V | 03:37:09 | 01:32:11 | 00:00:00 | |
| AA1-15 | 2026-08-30 18:13:55 | 50.02375 | 8.39428 | 305° | 27km/h | 24019m | 4.3m/s | -53.8°C | 0.6% | 31.3hPa | 2.7V | 03:37:09 | 01:32:08 | 00:00:00 | |
| DL1XH-15 | 2026-08-30 18:13:55 | 50.02354 | 8.39462 | 311° | 22km/h | 23995m | 4.5m/s | -53.7°C | 4.1% | 31.4hPa | 2.7V | 03:36:54 | 01:32:03 | 00:00:00 | |
| HSKMA3-T | 2026-08-30 18:13:54 | 50.02371 | 8.39437 | 307° | 26km/h | 24014m | 4.3m/s | -53.8°C | 0.6% | 31.3hPa | 2.6V | 03:37:09 | 01:32:07 | 00:00:00 | |
| DO3MHA-11 | 2026-08-30 18:13:54 | 50.02371 | 8.39436 | 307° | 24km/h | 24015m | 4.3m/s | -53.7°C | 4.1% | 31.2hPa | 2.6V | 00:00:00 | 01:32:07 | 00:00:00 | |
| DJ2KF-10 | 2026-08-30 18:13:53 | 50.02367 | 8.39444 | 315° | 22km/h | 24010m | 5.5m/s | -53.7°C | 4.2% | 31.3hPa | 2.6V | 00:00:00 | 01:32:06 | 00:00:00 | |
| DL8DAS-15 | 2026-08-30 18:13:51 | 50.02362 | 8.39450 | 321° | 22km/h | 24005m | 4.9m/s | -53.7°C | 1.1% | 31.3hPa | 2.6V | 00:00:00 | 00:00:00 | 00:00:00 | |
| DM0DOS-11 | 2026-08-30 18:13:50 | 50.02341 | 8.39501 | 303° | 22km/h | 23970m | 5.5m/s | -53.7°C | 4.1% | 31.5hPa | 2.6V | 03:36:59 | 01:31:58 | 00:00:00 | |
| DL1XH-west | 2026-08-30 18:13:50 | 50.02354 | 8.39462 | 312° | 22km/h | 23995m | 4.5m/s | -53.7°C | 0.5% | 31.4hPa | 2.7V | 03:37:09 | 01:32:03 | 00:00:00 | |
| BIOWL1-15 | 2026-08-30 18:13:47 | 50.02346 | 8.39485 | 293° | 24km/h | 23980m | 4.2m/s | -53.7°C | 0.6% | 31.5hPa | 2.6V | 03:37:09 | 01:32:00 | 00:00:00 | |
| DL3AQ-11 | 2026-08-30 18:13:46 | 50.02341 | 8.39501 | 303° | 22km/h | 23970m | 5.5m/s | -53.7°C | 1.1% | 31.5hPa | 2.6V | 00:00:00 | 00:00:00 | 00:00:00 | |
| DL1XH-15 | 2026-08-30 18:13:45 | 50.02324 | 8.39539 | 301° | 24km/h | 23946m | 4.7m/s | -53.7°C | 4.1% | 31.6hPa | 2.6V | 03:37:04 | 01:31:53 | 00:00:00 | |
| AA1-15 | 2026-08-30 18:13:45 | 50.02341 | 8.39501 | 303° | 22km/h | 23970m | 5.5m/s | -53.7°C | 0.6% | 31.5hPa | 2.6V | 03:37:09 | 01:31:58 | 00:00:00 | |
| HSKMA3-T | 2026-08-30 18:13:44 | 50.02337 | 8.39508 | 307° | 24km/h | 23966m | 4.3m/s | -53.7°C | 0.6% | 31.5hPa | 2.7V | 03:37:09 | 01:31:57 | 00:00:00 | |
| DO3MHA-11 | 2026-08-30 18:13:44 | 50.02337 | 8.39508 | 307° | 24km/h | 23966m | 4.3m/s | -53.6°C | 4.1% | 31.5hPa | 2.6V | 00:00:00 | 01:31:57 | 00:00:00 | |
| EDDB2-12 | 2026-08-30 18:13:42 | 50.02331 | 8.39523 | 302° | 22km/h | 23956m | 5.4m/s | -53.7°C | 1.0% | 31.6hPa | 2.6V | 00:00:00 | 00:00:00 | 00:00:00 | |
| DL0LBS | 2026-08-30 18:13:41 | 50.02330 | 8.39523 | 304° | 24km/h | 23957m | 5.4m/s | -53.7°C | 1.1% | 31.6hPa | 2.6V | 03:37:00 | 00:00:00 | 00:00:00 | |
| DM0DOS-11 | 2026-08-30 18:13:40 | 50.02308 | 8.39574 | 297° | 22km/h | 23922m | 5m/s | -53.8°C | 4.2% | 31.8hPa | 2.6V | 03:37:09 | 01:31:48 | 00:00:00 | |
| DL1XH-west | 2026-08-30 18:13:40 | 50.02324 | 8.39539 | 301° | 24km/h | 23946m | 4.7m/s | -53.7°C | 0.6% | 31.6hPa | 2.6V | 03:37:09 | 01:31:53 | 00:00:00 | |
| BIOWL1-15 | 2026-08-30 18:13:39 | 50.02314 | 8.39561 | 312° | 22km/h | 23931m | 4.4m/s | -53.8°C | 0.6% | 31.7hPa | 2.7V | 03:37:09 | 01:31:50 | 00:00:00 | |
| AA1-15 | 2026-08-30 18:13:34 | 50.02305 | 8.39582 | 287° | 22km/h | 23917m | 5.4m/s | -53.8°C | 0.6% | 31.8hPa | 2.6V | 03:38:00 | 01:31:47 | 00:00:00 | |
| HSKMA3-T | 2026-08-30 18:13:33 | 50.02304 | 8.39591 | 281° | 24km/h | 23912m | 4.4m/s | -53.8°C | 0.6% | 31.8hPa | 2.6V | 03:38:00 | 01:31:46 | 00:00:00 | |
| NBG1-10 | 2026-08-30 18:13:32 | 50.02303 | 8.39600 | 280° | 9km/h | 23908m | 4.2m/s | -53.7°C | 4.2% | 31.8hPa | 2.7V | 00:00:00 | 01:31:45 | 00:00:00 | |
| DG1MJG | 2026-08-30 18:13:31 | 50.02303 | 8.39600 | 281° | 24km/h | 23908m | 4.2m/s | -53.8°C | 1.1% | 31.8hPa | 2.7V | 03:38:00 | 00:00:00 | 00:00:00 | |
| DM0DOS-11 | 2026-08-30 18:13:30 | 50.02288 | 8.39647 | 304° | 18km/h | 23873m | 4.1m/s | -53.8°C | 4.2% | 32hPa | 2.7V | 03:37:19 | 01:31:38 | 00:00:00 | |
| DL1XH-west | 2026-08-30 18:13:29 | 50.02298 | 8.39623 | 302° | 18km/h | 23892m | 4.6m/s | -53.7°C | 0.6% | 31.9hPa | 2.6V | 03:38:00 | 01:31:42 | 00:00:00 | |
| BIOWL1-15 | 2026-08-30 18:13:26 | 50.02290 | 8.39641 | 302° | 18km/h | 23877m | 5.2m/s | -53.8°C | 0.5% | 32hPa | 2.7V | 03:38:00 | 01:31:39 | 00:00:00 | |
| DL1XH-15 | 2026-08-30 18:13:25 | 50.02271 | 8.39671 | 308° | 16km/h | 23849m | 4.8m/s | -53.9°C | 4.2% | 32.1hPa | 2.7V | 03:37:24 | 01:31:33 | 00:00:00 | |
| DO3MHA-11 | 2026-08-30 18:13:24 | 50.02285 | 8.39652 | 313° | 15km/h | 23869m | 4.4m/s | -53.7°C | 4.1% | 32.0hPa | 2.6V | 00:00:00 | 01:31:37 | 00:00:00 | |
| DL1XH1-15 | 2026-08-30 18:13:23 | 50.02269 | 8.39682 | 274° | 15km/h | 23838m | 4.6m/s | -53.9°C | 4.1% | 32.2hPa | 2.6V | 03:37:26 | 01:31:31 | 00:00:00 | |
| AA1-15 | 2026-08-30 18:13:23 | 50.02282 | 8.39657 | 320° | 18km/h | 23863m | 6m/s | -53.8°C | 0.6% | 32hPa | 2.6V | 03:38:00 | 01:31:36 | 00:00:00 | |
| HSKMA3-T | 2026-08-30 18:13:22 | 50.02278 | 8.39662 | 325° | 18km/h | 23858m | 5.2m/s | -53.8°C | 0.6% | 32.1hPa | 2.6V | 03:38:00 | 01:31:35 | 00:00:00 | |
| DO3DL | 2026-08-30 18:13:22 | 50.02278 | 8.39662 | 326° | 18km/h | 23858m | 5.2m/s | -53.8°C | 1.1% | 32.1hPa | 2.6V | 03:38:00 | 00:00:00 | 00:00:00 | |
| DL0LBS | 2026-08-30 18:13:21 | 50.02278 | 8.39662 | 326° | 18km/h | 23858m | 5.2m/s | -53.8°C | 1.1% | 32.1hPa | 2.6V | 03:38:00 | 00:00:00 | 00:00:00 | |
| DM0DOS-11 | 2026-08-30 18:13:20 | 50.02269 | 8.39696 | 277° | 7km/h | 23823m | 5.6m/s | -54°C | 4.2% | 32.2hPa | 2.6V | 03:37:29 | 01:31:28 | 00:00:00 | |
| DL1XH-west | 2026-08-30 18:13:18 | 50.02269 | 8.39682 | 275° | 15km/h | 23838m | 4.6m/s | -53.9°C | 0.6% | 32.2hPa | 2.6V | 03:38:00 | 01:31:31 | 00:00:00 | |
| BIOWL1-15 | 2026-08-30 18:13:17 | 50.02269 | 8.39696 | 277° | 7km/h | 23823m | 5.6m/s | -54°C | 0.6% | 32.2hPa | 2.6V | 03:38:00 | 01:31:28 | 00:00:00 | |
| DB0NH | 2026-08-30 18:13:17 | 50.02269 | 8.39687 | 267° | 11km/h | 23834m | 4.3m/s | -53.9°C | 4.2% | 32.1hPa | 2.6V | 03:37:00 | 01:31:30 | 00:00:00 | |
| DM7RM-13 | 2026-08-30 18:13:16 | 50.02269 | 8.39687 | 268° | 13km/h | 23834m | 4.3m/s | -54.0°C | 1.1% | 32.2hPa | 2.6V | 03:38:00 | 00:00:00 | 00:00:00 | |
| DL1XH-15 | 2026-08-30 18:13:15 | 50.02265 | 8.39708 | 297° | 11km/h | 23800m | 4.7m/s | -54°C | 4.2% | 32.3hPa | 2.6V | 03:37:34 | 01:31:23 | 00:00:00 | |
| AA1-15 | 2026-08-30 18:13:13 | 50.02268 | 8.39700 | 296° | 5km/h | 23815m | 4m/s | -54°C | 0.6% | 32.3hPa | 2.7V | 03:38:00 | 01:31:26 | 00:00:00 | |
| HSKMA3-T | 2026-08-30 18:13:12 | 50.02267 | 8.39702 | 292° | 7km/h | 23810m | 5.4m/s | -54°C | 0.6% | 32.3hPa | 2.7V | 03:38:00 | 01:31:25 | 00:00:00 | |
| DL1XH-west | 2026-08-30 18:13:08 | 50.02262 | 8.39716 | 312° | 13km/h | 23790m | 5.4m/s | -54°C | 0.6% | 32.4hPa | 2.7V | 03:38:00 | 01:31:21 | 00:00:00 | |
| DJ2DS-15 | 2026-08-30 18:13:08 | 50.02262 | 8.39716 | 313° | 11km/h | 23790m | 5.4m/s | -53.9°C | 4.2% | 32.4hPa | 2.6V | 00:00:00 | 01:31:21 | 00:00:00 | |
| DL9PN | 2026-08-30 18:13:07 | 50.02257 | 8.39725 | 301° | 15km/h | 23781m | 4.3m/s | -54.0°C | 1.1% | 32.5hPa | 2.6V | 00:00:00 | 00:00:00 | 00:00:00 | |
| DL3AQ-11 | 2026-08-30 18:13:06 | 50.02255 | 8.39731 | 288° | 16km/h | 23776m | 5.4m/s | -54.0°C | 1.1% | 32.5hPa | 2.6V | 00:00:00 | 00:00:00 | 00:00:00 | |
| DL1XH-15 | 2026-08-30 18:13:05 | 50.02255 | 8.39762 | 273° | 9km/h | 23753m | 5.4m/s | -54°C | 4.3% | 32.6hPa | 2.6V | 03:37:44 | 01:31:13 | 00:00:00 | |
| BIOWL1-15 | 2026-08-30 18:13:04 | 50.02255 | 8.39737 | 274° | 18km/h | 23771m | 4.9m/s | -54°C | 0.6% | 32.5hPa | 2.6V | 03:38:00 | 01:31:17 | 00:00:00 | |
| AA1-15 | 2026-08-30 18:13:03 | 50.02255 | 8.39751 | 264° | 16km/h | 23763m | 3.8m/s | -54.1°C | 0.6% | 32.5hPa | 2.7V | 03:38:00 | 01:31:15 | 00:00:00 | |
| HSKMA3-T | 2026-08-30 18:13:03 | 50.02255 | 8.39757 | 266° | 13km/h | 23758m | 5m/s | -54°C | 0.6% | 32.6hPa | 2.7V | 03:38:00 | 01:31:14 | 00:00:00 | |
| DL1XH-west | 2026-08-30 18:12:57 | 50.02255 | 8.39767 | 239° | 4km/h | 23739m | 4.6m/s | -54°C | 0.6% | 32.7hPa | 2.6V | 03:38:00 | 01:31:10 | 00:00:00 | |
| SONCRA | 2026-08-30 18:12:56 | 50.02256 | 8.39769 | 234° | 5km/h | 23734m | 5.5m/s | -54.0°C | 1.1% | 32.7hPa | 2.7V | 00:00:00 | 00:00:00 | 00:00:00 | |
| DL1XH-15 | 2026-08-30 18:12:55 | 50.02256 | 8.39788 | 296° | 13km/h | 23706m | 4.3m/s | -54°C | 4.2% | 32.9hPa | 2.7V | 03:37:54 | 01:31:03 | 00:00:00 | |
| DO3MHA-11 | 2026-08-30 18:12:54 | 50.02258 | 8.39774 | 245° | 11km/h | 23725m | 4.1m/s | -54.0°C | 4.2% | 32.7hPa | 2.6V | 03:37:00 | 01:31:07 | 00:00:00 | |
| DL1XH1-15 | 2026-08-30 18:12:53 | 50.02254 | 8.39798 | 275° | 15km/h | 23696m | 5m/s | -54°C | 4.3% | 32.9hPa | 2.6V | 03:37:56 | 01:31:01 | 00:00:00 | |
| BIOWL1-15 | 2026-08-30 18:12:53 | 50.02259 | 8.39777 | 260° | 9km/h | 23720m | 4.7m/s | -54.1°C | 0.6% | 32.8hPa | 2.6V | 03:38:00 | 01:31:06 | 00:00:00 | |
| AA1-15 | 2026-08-30 18:12:51 | 50.02258 | 8.39784 | 296° | 11km/h | 23710m | 4.5m/s | -54°C | 0.6% | 32.8hPa | 2.6V | 03:38:00 | 01:31:04 | 00:00:00 | |
| HSKMA3-T | 2026-08-30 18:12:50 | 50.02256 | 8.39788 | 296° | 13km/h | 23706m | 4.3m/s | -54°C | 0.6% | 32.9hPa | 2.7V | 03:38:00 | 01:31:03 | 00:00:00 | |
| DL1XH-west | 2026-08-30 18:12:46 | 50.02254 | 8.39809 | 271° | 13km/h | 23688m | 3.6m/s | -53.9°C | 0.7% | 32.9hPa | 2.6V | 03:38:00 | 01:30:59 | 00:00:00 | |
| DL8DAS-14 | 2026-08-30 18:12:44 | 50.02253 | 8.39819 | 305° | 4km/h | 23674m | 4.5m/s | -53.9°C | 1.1% | 33.0hPa | 2.7V | 00:00:00 | 00:00:00 | 00:00:00 | |
| DL1XH1-15 | 2026-08-30 18:12:43 | 50.02256 | 8.39825 | 203° | 5km/h | 23650m | 4.8m/s | -53.8°C | 4.2% | 33.1hPa | 2.7V | 03:38:06 | 01:30:51 | 00:00:00 | |
| BIOWL1-15 | 2026-08-30 18:12:43 | 50.02253 | 8.39819 | 306° | 4km/h | 23674m | 4.5m/s | -53.9°C | 0.7% | 33hPa | 2.7V | 03:38:51 | 01:30:56 | 00:00:00 | |
| DO3DL | 2026-08-30 18:12:42 | 50.02253 | 8.39820 | 287° | 4km/h | 23670m | 4.2m/s | -53.9°C | 1.1% | 33.1hPa | 2.6V | 03:38:00 | 00:00:00 | 00:00:00 | |
| DL1KLB | 2026-08-30 18:12:41 | 50.02253 | 8.39820 | 287° | 4km/h | 23670m | 4.2m/s | -53.9°C | 1.1% | 33.1hPa | 2.6V | 03:38:00 | 00:00:00 | 00:00:00 | |
| DM0DOS-11 | 2026-08-30 18:12:40 | 50.02258 | 8.39826 | 218° | 2km/h | 23635m | 4.3m/s | -53.8°C | 4.1% | 33.2hPa | 2.6V | 03:38:09 | 01:30:48 | 00:00:00 | |
| HSKMA3-T | 2026-08-30 18:12:40 | 50.02253 | 8.39823 | 222° | 5km/h | 23659m | 5m/s | -53.8°C | 0.6% | 33.1hPa | 2.6V | 03:38:51 | 01:30:53 | 00:00:00 | |
| DL1XH-west | 2026-08-30 18:12:36 | 50.02257 | 8.39826 | 179° | 2km/h | 23639m | 4.6m/s | -53.8°C | 0.6% | 33.2hPa | 2.7V | 03:38:51 | 01:30:49 | 00:00:00 | |
| BIOWL1-15 | 2026-08-30 18:12:34 | 50.02260 | 8.39831 | 244° | 7km/h | 23620m | 4.3m/s | -53.8°C | 0.6% | 33.3hPa | 2.7V | 03:38:51 | 01:30:45 | 00:00:00 | |
| DO3MHA-11 | 2026-08-30 18:12:34 | 50.02258 | 8.39827 | 233° | 4km/h | 23631m | 5.4m/s | -53.7°C | 4.2% | 33.2hPa | 2.6V | 00:00:00 | 01:30:47 | 00:00:00 | |
| DL1XH1-15 | 2026-08-30 18:12:33 | 50.02259 | 8.39838 | 345° | 2km/h | 23602m | 3.9m/s | -53.7°C | 4.1% | 33.4hPa | 2.6V | 03:38:16 | 01:30:41 | 00:00:00 | |
| BIOWL7-15 | 2026-08-30 18:12:32 | 50.02259 | 8.39829 | 240° | 7km/h | 23625m | 5.0m/s | -53.8°C | 1.1% | 33.2hPa | 2.7V | 03:38:00 | 00:00:00 | 00:00:00 | |
| DF1GD-15 | 2026-08-30 18:12:31 | 50.02260 | 8.39831 | 245° | 7km/h | 23620m | 4.3m/s | -53.8°C | 1.1% | 33.3hPa | 2.7V | 03:38:00 | 00:00:00 | 00:00:00 | |
| DM0DOS-11 | 2026-08-30 18:12:30 | 50.02261 | 8.39839 | 193° | 5km/h | 23587m | 5.1m/s | -53.8°C | 4.1% | 33.4hPa | 2.7V | 03:38:19 | 01:30:38 | 00:00:00 | |
| HSKMA3-T | 2026-08-30 18:12:30 | 50.02261 | 8.39836 | 275° | 4km/h | 23611m | 5.5m/s | -53.7°C | 0.6% | 33.4hPa | 2.6V | 03:38:51 | 01:30:43 | 00:00:00 | |
| DK5PH-5 | 2026-08-30 18:12:30 | 50.02260 | 8.39836 | 275° | 9km/h | 23612m | 5.4m/s | -53.7°C | 4.1% | 33.3hPa | 2.7V | 03:38:00 | 01:30:43 | 00:00:00 | |
| DJ2DS-15 | 2026-08-30 18:12:28 | 50.02260 | 8.39838 | 346° | 7km/h | 23602m | 3.8m/s | -53.7°C | 4.1% | 33.3hPa | 2.7V | 00:00:00 | 01:30:41 | 00:00:00 | |
| DO3DL | 2026-08-30 18:12:27 | 50.02259 | 8.39838 | 347° | 2km/h | 23602m | 3.9m/s | -53.7°C | 1.0% | 33.4hPa | 2.7V | 03:38:00 | 00:00:00 | 00:00:00 | |
| DL3AQ-11 | 2026-08-30 18:12:26 | 50.02260 | 8.39839 | 193° | 5km/h | 23587m | 5.1m/s | -53.8°C | 1.1% | 33.4hPa | 2.7V | 00:00:00 | 00:00:00 | 00:00:00 | |
| DL1XH-15 | 2026-08-30 18:12:25 | 50.02272 | 8.39830 | 122° | 13km/h | 23563m | 4.2m/s | -53.8°C | 4.1% | 33.6hPa | 2.7V | 03:38:24 | 01:30:33 | 00:00:00 | |
| DL1XH-west | 2026-08-30 18:12:25 | 50.02260 | 8.39839 | 194° | 7km/h | 23587m | 5.1m/s | -53.8°C | 0.6% | 33.4hPa | 2.7V | 03:38:51 | 01:30:38 | 00:00:00 | |
| DO3MHA-11 | 2026-08-30 18:12:24 | 50.02262 | 8.39839 | 183° | 9km/h | 23582m | 4.5m/s | -53.7°C | 4.1% | 33.4hPa | 2.7V | 00:00:00 | 01:30:37 | 00:00:00 | |
| DL1XH1-15 | 2026-08-30 18:12:23 | 50.02275 | 8.39823 | 131° | 9km/h | 23554m | 4.8m/s | -53.8°C | 4.2% | 33.6hPa | 2.7V | 03:38:26 | 01:30:31 | 00:00:00 | |
| BIOWL1-15 | 2026-08-30 18:12:22 | 50.02268 | 8.39837 | 150° | 13km/h | 23573m | 5.1m/s | -53.8°C | 0.6% | 33.5hPa | 2.6V | 03:38:51 | 01:30:35 | 00:00:00 | |
| DM0DOS-11 | 2026-08-30 18:12:20 | 50.02280 | 8.39821 | 214° | 5km/h | 23540m | 4.4m/s | -53.8°C | 4.2% | 33.7hPa | 2.6V | 03:38:29 | 01:30:28 | 00:00:00 | |
| HSKMA3-T | 2026-08-30 18:12:19 | 50.02274 | 8.39826 | 121° | 11km/h | 23559m | 4m/s | -53.8°C | 0.6% | 33.6hPa | 2.7V | 03:38:51 | 01:30:32 | 00:00:00 | |
| KANTATE | 2026-08-30 18:12:18 | 50.02274 | 8.39826 | 122° | 11km/h | 23559m | 4.0m/s | -53.8°C | 1.1% | 33.6hPa | 2.6V | 03:38:00 | 00:00:00 | 00:00:00 | |
| DB0NH | 2026-08-30 18:12:17 | 50.02277 | 8.39821 | 159° | 11km/h | 23549m | 5.2m/s | -53.8°C | 4.2% | 33.6hPa | 2.6V | 00:00:00 | 01:30:30 | 00:00:00 | |
| DD1CC8 | 2026-08-30 18:12:16 | 50.02280 | 8.39821 | 214° | 4km/h | 23540m | 4.4m/s | -53.8°C | 1.1% | 33.7hPa | 2.6V | 00:00:00 | 00:00:00 | 00:00:00 | |
| DL1XH-15 | 2026-08-30 18:12:15 | 50.02283 | 8.39820 | 149° | 9km/h | 23517m | 5.1m/s | -53.9°C | 4.1% | 33.8hPa | 2.6V | 03:38:34 | 01:30:23 | 00:00:00 | |
| DL1XH-west | 2026-08-30 18:12:15 | 50.02280 | 8.39821 | 214° | 5km/h | 23540m | 4.4m/s | -53.8°C | 0.6% | 33.7hPa | 2.6V | 03:38:51 | 01:30:28 | 00:00:00 | |
| BIOWL1-15 | 2026-08-30 18:12:13 | 50.02282 | 8.39822 | 140° | 5km/h | 23521m | 3.7m/s | -53.9°C | 0.6% | 33.8hPa | 2.6V | 03:38:51 | 01:30:24 | 00:00:00 | |
| HSKMA3-T | 2026-08-30 18:12:09 | 50.02286 | 8.39818 | 155° | 13km/h | 23511m | 5.4m/s | -53.9°C | 0.6% | 33.9hPa | 2.7V | 03:38:51 | 01:30:22 | 00:00:00 | |
| AA1-15 | 2026-08-30 18:12:08 | 50.02289 | 8.39816 | 157° | 16km/h | 23506m | 4.7m/s | -54°C | 0.5% | 33.9hPa | 2.7V | 03:38:51 | 01:30:21 | 00:00:00 | |
| DJ2DS-15 | 2026-08-30 18:12:08 | 50.02289 | 8.39816 | 157° | 13km/h | 23506m | 4.7m/s | -53.9°C | 4.1% | 33.8hPa | 2.7V | 03:38:00 | 01:30:21 | 00:00:00 | |
| DO3DL | 2026-08-30 18:12:07 | 50.02289 | 8.39816 | 158° | 16km/h | 23506m | 4.7m/s | -54.0°C | 1.0% | 33.9hPa | 2.7V | 03:38:00 | 00:00:00 | 00:00:00 | |
| DL1XH-15 | 2026-08-30 18:12:05 | 50.02313 | 8.39781 | 167° | 9km/h | 23469m | 4.6m/s | -54.1°C | 4.3% | 34.1hPa | 2.7V | 03:38:44 | 01:30:13 | 00:00:00 | |
| DL1XH-west | 2026-08-30 18:12:04 | 50.02304 | 8.39798 | 123° | 18km/h | 23487m | 4.6m/s | -54.1°C | 0.6% | 34hPa | 2.6V | 03:38:51 | 01:30:17 | 00:00:00 | |
| BIOWL1-15 | 2026-08-30 18:12:01 | 50.02311 | 8.39783 | 137° | 11km/h | 23474m | 5.4m/s | -54.1°C | 0.7% | 34.1hPa | 2.7V | 03:38:51 | 01:30:14 | 00:00:00 | |
| DM0DOS-11 | 2026-08-30 18:12:00 | 50.02316 | 8.39794 | 278° | 9km/h | 23445m | 4.1m/s | -54.1°C | 4.3% | 34.2hPa | 2.7V | 03:38:49 | 01:30:08 | 00:00:00 | |
| HSKMA3-T | 2026-08-30 18:11:59 | 50.02315 | 8.39781 | 213° | 7km/h | 23464m | 4m/s | -54.1°C | 0.7% | 34.1hPa | 2.6V | 03:38:51 | 01:30:12 | 00:00:00 | |
| AA1-15 | 2026-08-30 18:11:57 | 50.02316 | 8.39787 | 269° | 9km/h | 23455m | 5.8m/s | -54.2°C | 0.7% | 34.1hPa | 2.6V | 03:38:51 | 01:30:10 | 00:00:00 | |
| DL3AQ-11 | 2026-08-30 18:11:57 | 50.02316 | 8.39791 | 280° | 9km/h | 23450m | 5.1m/s | -54.1°C | 1.1% | 34.2hPa | 2.6V | 00:00:00 | 00:00:00 | 00:00:00 | |
| DF3TZ-5 | 2026-08-30 18:11:56 | 50.02316 | 8.39791 | 280° | 9km/h | 23450m | 5.1m/s | -54.1°C | 1.1% | 34.2hPa | 2.6V | 00:00:00 | 00:00:00 | 00:00:00 | |
| KANTATE | 2026-08-30 18:11:55 | 50.02316 | 8.39791 | 282° | 11km/h | 23450m | 5.1m/s | -54.1°C | 1.1% | 34.2hPa | 2.6V | 03:38:00 | 00:00:00 | 00:00:00 | |
| DO3MHA-11 | 2026-08-30 18:11:54 | 50.02316 | 8.39797 | 260° | 13km/h | 23441m | 3.8m/s | -54.1°C | 4.3% | 34.2hPa | 2.6V | 00:00:00 | 01:30:07 | 00:00:00 | |
| DL1XH1-15 | 2026-08-30 18:11:53 | 50.02330 | 8.39788 | 116° | 16km/h | 23411m | 4.7m/s | -54°C | 4.2% | 34.4hPa | 2.6V | 03:38:56 | 01:30:01 | 00:00:00 | |
| DL1XH-west | 2026-08-30 18:11:53 | 50.02317 | 8.39800 | 223° | 7km/h | 23436m | 5.5m/s | -54.1°C | 0.7% | 34.3hPa | 2.6V | 03:38:51 | 01:30:06 | 00:00:00 | |
| SONDE2-11 | 2026-08-30 18:11:52 | 50.02318 | 8.39801 | 184° | 9km/h | 23431m | 5.0m/s | -54.1°C | 1.1% | 34.3hPa | 2.6V | 00:00:00 | 00:00:00 | 00:00:00 | |
| DJ2DS-15 | 2026-08-30 18:11:51 | 50.02321 | 8.39800 | 160° | 13km/h | 23426m | 4.6m/s | -54.1°C | 1.1% | 34.3hPa | 2.6V | 00:00:00 | 00:00:00 | 00:00:00 | |
| DM0DOS-11 | 2026-08-30 18:11:50 | 50.02334 | 8.39774 | 132° | 9km/h | 23398m | 5m/s | -54°C | 4.2% | 34.5hPa | 2.6V | 03:38:59 | 01:29:58 | 00:00:00 | |
| BIOWL1-15 | 2026-08-30 18:11:50 | 50.02324 | 8.39798 | 143° | 16km/h | 23422m | 4.7m/s | -54.1°C | 0.6% | 34.4hPa | 2.7V | 03:39:42 | 01:30:03 | 00:00:00 | |
| HSKMA3-T | 2026-08-30 18:11:49 | 50.02327 | 8.39793 | 129° | 16km/h | 23417m | 5.7m/s | -54°C | 0.7% | 34.4hPa | 2.7V | 03:39:42 | 01:30:02 | 00:00:00 | |
| AA1-15 | 2026-08-30 18:11:46 | 50.02332 | 8.39778 | 115° | 13km/h | 23403m | 4.8m/s | -54.1°C | 0.7% | 34.5hPa | 2.6V | 03:40:33 | 01:29:59 | 00:00:00 | |
| DL3AQ-11 | 2026-08-30 18:11:46 | 50.02334 | 8.39774 | 132° | 7km/h | 23398m | 5.0m/s | -54.1°C | 1.1% | 34.5hPa | 2.7V | 00:00:00 | 00:00:00 | 00:00:00 | |
| DD1CC8 | 2026-08-30 18:11:45 | 50.02335 | 8.39773 | 171° | 5km/h | 23393m | 4.4m/s | -54.1°C | 1.1% | 34.5hPa | 2.7V | 00:00:00 | 00:00:00 | 00:00:00 | |
| DO3MHA-11 | 2026-08-30 18:11:44 | 50.02335 | 8.39773 | 172° | 5km/h | 23393m | 4.3m/s | -54.0°C | 4.2% | 34.5hPa | 2.7V | 00:00:00 | 01:29:57 | 00:00:00 | |
| DL1XH1-15 | 2026-08-30 18:11:43 | 50.02335 | 8.39784 | 264° | 4km/h | 23365m | 4.6m/s | -54°C | 4.2% | 34.6hPa | 2.7V | 03:39:06 | 01:29:51 | 00:00:00 | |
| DL1XH-west | 2026-08-30 18:11:43 | 50.02336 | 8.39773 | 227° | 5km/h | 23389m | 4.2m/s | -54.1°C | 0.6% | 34.5hPa | 2.7V | 03:39:42 | 01:29:56 | 00:00:00 | |
| DH7VM-15 | 2026-08-30 18:11:41 | 50.02336 | 8.39775 | 270° | 5km/h | 23385m | 4.7m/s | -54.0°C | 1.1% | 34.5hPa | 2.6V | 00:00:00 | 00:00:00 | 00:00:00 | |
| DM0DOS-11 | 2026-08-30 18:11:40 | 50.02339 | 8.39783 | 148° | 9km/h | 23351m | 4.3m/s | -54°C | 4.2% | 34.7hPa | 2.6V | 03:39:09 | 01:29:48 | 00:00:00 | |
| BIOWL1-15 | 2026-08-30 18:11:39 | 50.02335 | 8.39783 | 295° | 5km/h | 23370m | 4.3m/s | -54°C | 0.6% | 34.6hPa | 2.6V | 03:39:42 | 01:29:52 | 00:00:00 | |
| HSKMA3-T | 2026-08-30 18:11:38 | 50.02335 | 8.39784 | 264° | 4km/h | 23365m | 4.6m/s | -54°C | 0.6% | 34.6hPa | 2.7V | 03:39:42 | 01:29:51 | 00:00:00 | |
| EDDB2-12 | 2026-08-30 18:11:38 | 50.02335 | 8.39785 | 195° | 4km/h | 23360m | 5.4m/s | 0°C | -1.0% | -1.0hPa | 2.6V | 00:00:00 | 00:00:00 | 00:00:00 | |
| DL8OAI-8 | 2026-08-30 18:11:36 | 50.02335 | 8.39785 | 196° | 4km/h | 23360m | 5.4m/s | -54.0°C | 1.1% | 34.7hPa | 2.6V | 03:39:00 | 00:00:00 | 00:00:00 | |
| DL1XH-15 | 2026-08-30 18:11:35 | 50.02340 | 8.39766 | 34° | 7km/h | 23328m | 4.1m/s | -54°C | 4.2% | 34.9hPa | 2.6V | 03:39:14 | 01:29:43 | 00:00:00 | |
| AA1-15 | 2026-08-30 18:11:35 | 50.02339 | 8.39783 | 149° | 9km/h | 23351m | 4.3m/s | -54°C | 0.6% | 34.7hPa | 2.6V | 03:40:33 | 01:29:48 | 00:00:00 | |
| DO3MHA-11 | 2026-08-30 18:11:34 | 50.02340 | 8.39781 | 129° | 9km/h | 23346m | 5.1m/s | -53.9°C | 4.2% | 34.7hPa | 2.6V | 03:39:00 | 01:29:47 | 00:00:00 | |
| DL1XH1-15 | 2026-08-30 18:11:33 | 50.02337 | 8.39767 | 298° | 7km/h | 23318m | 4.6m/s | -54°C | 4.2% | 34.9hPa | 2.6V | 03:39:16 | 01:29:41 | 00:00:00 | |
| DL1XH-west | 2026-08-30 18:11:32 | 50.02342 | 8.39772 | 81° | 11km/h | 23336m | 4.4m/s | -54°C | 0.6% | 34.8hPa | 2.7V | 03:39:42 | 01:29:45 | 00:00:00 | |
| DB0UT-9 | 2026-08-30 18:11:31 | 50.02342 | 8.39772 | 82° | 11km/h | 23336m | 4.4m/s | -54.0°C | 1.1% | 34.8hPa | 2.7V | 03:39:00 | 00:00:00 | 00:00:00 | |
| DM0DOS-11 | 2026-08-30 18:11:30 | 50.02336 | 8.39777 | 271° | 7km/h | 23305m | 5.4m/s | -54°C | 4.2% | 35hPa | 2.7V | 03:39:19 | 01:29:38 | 00:00:00 | |
| BIOWL1-15 | 2026-08-30 18:11:28 | 50.02337 | 8.39767 | 299° | 7km/h | 23318m | 4.6m/s | -54°C | 0.7% | 34.9hPa | 2.6V | 03:39:42 | 01:29:41 | 00:00:00 | |
| DJ2DS-15 | 2026-08-30 18:11:28 | 50.02337 | 8.39767 | 299° | 7km/h | 23319m | 4.6m/s | -53.9°C | 4.2% | 34.9hPa | 2.7V | 00:00:00 | 01:29:41 | 00:00:00 | |
| DO3DL | 2026-08-30 18:11:27 | 50.02337 | 8.39767 | 300° | 7km/h | 23319m | 4.6m/s | -54.0°C | 1.1% | 34.9hPa | 2.7V | 03:39:00 | 00:00:00 | 00:00:00 | |
| DO8TBO-1 | 2026-08-30 18:11:26 | 50.02336 | 8.39773 | 275° | 5km/h | 23310m | 4.3m/s | -53.9°C | 4.2% | 34.9hPa | 2.7V | 03:39:00 | 01:29:39 | 00:00:00 | |
| DL1XH-15 | 2026-08-30 18:11:25 | 50.02339 | 8.39775 | 142° | 5km/h | 23281m | 4.5m/s | -54°C | 4.3% | 35.1hPa | 2.7V | 03:39:24 | 01:29:33 | 00:00:00 | |
| AA1-15 | 2026-08-30 18:11:25 | 50.02336 | 8.39777 | 271° | 7km/h | 23305m | 5.4m/s | -54°C | 0.6% | 35hPa | 2.7V | 03:40:33 | 01:29:38 | 00:00:00 | |
| DO3MHA-11 | 2026-08-30 18:11:24 | 50.02336 | 8.39778 | 249° | 5km/h | 23300m | 4.9m/s | -53.9°C | 4.2% | 35.0hPa | 2.6V | 00:00:00 | 01:29:37 | 00:00:00 | |
| DL1XH1-15 | 2026-08-30 18:11:23 | 50.02340 | 8.39773 | 106° | 5km/h | 23272m | 4.7m/s | -54.1°C | 4.3% | 35.1hPa | 2.6V | 03:39:26 | 01:29:31 | 00:00:00 | |
| DL1XH-west | 2026-08-30 18:11:21 | 50.02338 | 8.39777 | 144° | 5km/h | 23286m | 5.4m/s | -54°C | 0.7% | 35.1hPa | 2.6V | 03:39:42 | 01:29:34 | 00:00:00 | |
| HSKMA3-T | 2026-08-30 18:11:18 | 50.02340 | 8.39772 | 107° | 5km/h | 23273m | 4.7m/s | -54.1°C | 0.7% | 35.1hPa | 2.6V | 03:39:42 | 01:29:31 | 00:00:00 | |
| NBG1-10 | 2026-08-30 18:11:18 | 50.02340 | 8.39772 | 107° | 7km/h | 23273m | 4.7m/s | -54.0°C | 4.3% | 35.1hPa | 2.6V | 00:00:00 | 01:29:31 | 00:00:00 | |
| DL3AQ-11 | 2026-08-30 18:11:17 | 50.02340 | 8.39768 | 84° | 5km/h | 23263m | 4.6m/s | -54.0°C | 1.1% | 35.2hPa | 2.6V | 00:00:00 | 00:00:00 | 00:00:00 | |
| DL1XH-15 | 2026-08-30 18:11:15 | 50.02345 | 8.39777 | 258° | 11km/h | 23235m | 5m/s | -54°C | 4.2% | 35.4hPa | 2.6V | 03:39:34 | 01:29:23 | 00:00:00 | |
| AA1-15 | 2026-08-30 18:11:14 | 50.02341 | 8.39765 | 173° | 2km/h | 23254m | 4.4m/s | -54.1°C | 0.6% | 35.3hPa | 2.7V | 03:40:33 | 01:29:27 | 00:00:00 | |
| DL1XH-west | 2026-08-30 18:11:11 | 50.02344 | 8.39772 | 250° | 13km/h | 23239m | 3.9m/s | -54.1°C | 0.6% | 35.3hPa | 2.6V | 03:39:42 | 01:29:24 | 00:00:00 | |
| DL8DAS-14 | 2026-08-30 18:11:11 | 50.02344 | 8.39777 | 258° | 11km/h | 23235m | 5.0m/s | -54.1°C | 1.1% | 35.4hPa | 2.6V | 00:00:00 | 00:00:00 | 00:00:00 | |
| DM0DOS-11 | 2026-08-30 18:11:10 | 50.02343 | 8.39786 | 277° | 2km/h | 23211m | 5.5m/s | -54.1°C | 4.3% | 35.5hPa | 2.6V | 03:39:39 | 01:29:18 | 00:00:00 | |
| BIOWL1-15 | 2026-08-30 18:11:07 | 50.02343 | 8.39784 | 317° | 4km/h | 23221m | 4m/s | -54.1°C | 0.6% | 35.5hPa | 2.7V | 03:39:42 | 01:29:20 | 00:00:00 | |
| DL3AQ-11 | 2026-08-30 18:11:06 | 50.02343 | 8.39786 | 277° | 0km/h | 23211m | 5.6m/s | -54.1°C | 1.1% | 35.5hPa | 2.6V | 00:00:00 | 00:00:00 | 00:00:00 | |
| DL1XH-15 | 2026-08-30 18:11:05 | 50.02346 | 8.39780 | 129° | 5km/h | 23188m | 4.3m/s | -54°C | 4.3% | 35.6hPa | 2.6V | 03:39:44 | 01:29:13 | 00:00:00 | |
| AA1-15 | 2026-08-30 18:11:04 | 50.02343 | 8.39786 | 177° | 2km/h | 23206m | 4.3m/s | -54.1°C | 0.7% | 35.5hPa | 2.6V | 03:40:33 | 01:29:17 | 00:00:00 | |
| DO3MHA-11 | 2026-08-30 18:11:04 | 50.02343 | 8.39786 | 178° | 7km/h | 23207m | 4.3m/s | -54.1°C | 4.3% | 35.5hPa | 2.6V | 00:00:00 | 01:29:17 | 00:00:00 | |
| DL1XH1-15 | 2026-08-30 18:11:03 | 50.02348 | 8.39780 | 222° | 7km/h | 23178m | 5.6m/s | -54°C | 4.3% | 35.7hPa | 2.6V | 03:39:46 | 01:29:11 | 00:00:00 | |
| BIOWL9-15 | 2026-08-30 18:11:02 | 50.02345 | 8.39782 | 116° | 5km/h | 23193m | 5.2m/s | -54.1°C | 1.1% | 35.6hPa | 2.7V | 00:00:00 | 00:00:00 | 00:00:00 | |
| DB0ND-19 | 2026-08-30 18:11:01 | 50.02345 | 8.39782 | 116° | 5km/h | 23193m | 5.2m/s | -54.1°C | 1.1% | 35.6hPa | 2.7V | 00:00:00 | 00:00:00 | 00:00:00 | |
| DM0DOS-11 | 2026-08-30 18:11:00 | 50.02351 | 8.39793 | 266° | 15km/h | 23164m | 4.8m/s | -54°C | 4.3% | 35.8hPa | 2.7V | 03:39:49 | 01:29:08 | 00:00:00 | |
| DL1XH-west | 2026-08-30 18:11:00 | 50.02346 | 8.39780 | 129° | 5km/h | 23188m | 4.3m/s | -54.1°C | 0.7% | 35.6hPa | 2.6V | 03:40:33 | 01:29:13 | 00:00:00 | |
| BIOWL1-15 | 2026-08-30 18:10:59 | 50.02349 | 8.39783 | 245° | 11km/h | 23173m | 4.8m/s | -54°C | 0.6% | 35.7hPa | 2.7V | 03:40:33 | 01:29:10 | 00:00:00 | |
| HSKMA3-T | 2026-08-30 18:10:56 | 50.02350 | 8.39788 | 256° | 15km/h | 23168m | 4m/s | -54°C | 0.7% | 35.8hPa | 2.7V | 03:40:33 | 01:29:09 | 00:00:00 | |
| DO8TBO-1 | 2026-08-30 18:10:56 | 50.02350 | 8.39788 | 257° | 7km/h | 23169m | 3.9m/s | -54.0°C | 4.3% | 35.7hPa | 2.7V | 00:00:00 | 01:29:09 | 00:00:00 | |
| DL8OAI-8 | 2026-08-30 18:10:55 | 50.02350 | 8.39788 | 257° | 15km/h | 23169m | 4.0m/s | -54.0°C | 1.1% | 35.8hPa | 2.6V | 03:40:00 | 00:00:00 | 00:00:00 | |
| DO3MHA-11 | 2026-08-30 18:10:54 | 50.02350 | 8.39799 | 278° | 7km/h | 23160m | 4.9m/s | -54.0°C | 4.3% | 35.7hPa | 2.6V | 03:39:00 | 01:29:07 | 00:00:00 | |
| DL1XH1-15 | 2026-08-30 18:10:53 | 50.02352 | 8.39816 | 209° | 7km/h | 23132m | 4.2m/s | -54.1°C | 4.2% | 35.9hPa | 2.6V | 03:39:56 | 01:29:01 | 00:00:00 | |
| AA1-15 | 2026-08-30 18:10:53 | 50.02350 | 8.39803 | 287° | 11km/h | 23155m | 4.2m/s | -54°C | 0.7% | 35.8hPa | 2.6V | 03:40:33 | 01:29:06 | 00:00:00 | |
| SONCRA | 2026-08-30 18:10:52 | 50.02349 | 8.39807 | 286° | 7km/h | 23151m | 3.6m/s | -54.0°C | 1.1% | 35.8hPa | 2.7V | 00:00:00 | 00:00:00 | 00:00:00 | |
| DO1YAY-16 | 2026-08-30 18:10:51 | 50.02349 | 8.39812 | 242° | 5km/h | 23142m | 5.4m/s | -54.1°C | 1.1% | 35.9hPa | 2.7V | 00:00:00 | 00:00:00 | 00:00:00 | |
| DM0DOS-11 | 2026-08-30 18:10:50 | 50.02356 | 8.39819 | 243° | 4km/h | 23118m | 4.5m/s | -54.1°C | 4.2% | 36hPa | 2.7V | 03:39:59 | 01:28:58 | 00:00:00 | |
| DL1XH-west | 2026-08-30 18:10:49 | 50.02350 | 8.39814 | 219° | 7km/h | 23137m | 4.9m/s | -54.1°C | 0.7% | 35.9hPa | 2.6V | 03:40:33 | 01:29:02 | 00:00:00 | |
| BIOWL1-15 | 2026-08-30 18:10:46 | 50.02355 | 8.39818 | 212° | 5km/h | 23123m | 5.2m/s | -54.1°C | 0.6% | 36hPa | 2.7V | 03:40:33 | 01:28:59 | 00:00:00 | |
| NBG1-10 | 2026-08-30 18:10:45 | 50.02356 | 8.39819 | 244° | 7km/h | 23119m | 4.4m/s | -54.0°C | 4.2% | 36.0hPa | 2.7V | 03:39:00 | 01:28:58 | 00:00:00 | |
| DO3MHA-11 | 2026-08-30 18:10:44 | 50.02356 | 8.39821 | 275° | 7km/h | 23115m | 3.5m/s | -54.0°C | 4.1% | 36.0hPa | 2.7V | 00:00:00 | 01:28:57 | 00:00:00 | |
| DL1XH1-15 | 2026-08-30 18:10:43 | 50.02359 | 8.39842 | 243° | 5km/h | 23087m | 5.2m/s | -54.1°C | 4.3% | 36.2hPa | 2.7V | 03:40:06 | 01:28:51 | 00:00:00 | |
| AA1-15 | 2026-08-30 18:10:42 | 50.02356 | 8.39826 | 262° | 9km/h | 23106m | 5.3m/s | -54.1°C | 0.7% | 36.1hPa | 2.6V | 03:40:33 | 01:28:55 | 00:00:00 | |
| DL1XH-west | 2026-08-30 18:10:38 | 50.02359 | 8.39842 | 243° | 5km/h | 23087m | 5.3m/s | -54.1°C | 0.7% | 36.2hPa | 2.7V | 03:40:33 | 01:28:51 | 00:00:00 | |
| HSKMA3-T | 2026-08-30 18:10:36 | 50.02360 | 8.39843 | 163° | 4km/h | 23078m | 4m/s | -54.2°C | 0.7% | 36.3hPa | 2.6V | 03:40:33 | 01:28:49 | 00:00:00 | |
| BIOWL1-15 | 2026-08-30 18:10:35 | 50.02362 | 8.39843 | 162° | 7km/h | 23074m | 4.4m/s | -54.1°C | 0.7% | 36.3hPa | 2.6V | 03:40:33 | 01:28:48 | 00:00:00 | |
| AA1-15 | 2026-08-30 18:10:31 | 50.02372 | 8.39842 | 183° | 11km/h | 23054m | 5.1m/s | -54.2°C | 0.6% | 36.4hPa | 2.6V | 03:40:33 | 01:28:44 | 00:00:00 | |
| DL1XH-west | 2026-08-30 18:10:27 | 50.02379 | 8.39844 | 211° | 7km/h | 23036m | 4.9m/s | -54.2°C | 0.6% | 36.5hPa | 2.7V | 03:40:33 | 01:28:40 | 00:00:00 | |
| HSKMA3-T | 2026-08-30 18:10:25 | 50.02382 | 8.39848 | 220° | 9km/h | 23026m | 4.4m/s | -54.2°C | 0.7% | 36.6hPa | 2.6V | 03:40:33 | 01:28:38 | 00:00:00 | |
| BIOWL1-15 | 2026-08-30 18:10:24 | 50.02384 | 8.39850 | 217° | 7km/h | 23022m | 4.5m/s | -54.2°C | 0.6% | 36.6hPa | 2.6V | 03:40:33 | 01:28:37 | 00:00:00 | |
| DO3MHA-11 | 2026-08-30 18:10:24 | 50.02384 | 8.39850 | 218° | 9km/h | 23022m | 4.4m/s | -54.1°C | 4.2% | 36.5hPa | 2.7V | 00:00:00 | 01:28:37 | 00:00:00 | |
| DJ2KF-10 | 2026-08-30 18:10:23 | 50.02385 | 8.39851 | 196° | 11km/h | 23017m | 5.6m/s | -54.1°C | 4.2% | 36.6hPa | 2.7V | 00:00:00 | 01:28:36 | 00:00:00 | |
| DC4HF-4 | 2026-08-30 18:10:22 | 50.02385 | 8.39850 | 113° | 4km/h | 23011m | 5.0m/s | -54.1°C | 1.1% | 36.6hPa | 2.7V | 00:00:00 | 00:00:00 | 00:00:00 | |
| SONCRA | 2026-08-30 18:10:21 | 50.02386 | 8.39848 | 108° | 5km/h | 23007m | 4.2m/s | -54.1°C | 1.1% | 36.7hPa | 2.7V | 00:00:00 | 00:00:00 | 00:00:00 | |
| DM0DOS-11 | 2026-08-30 18:10:20 | 50.02396 | 8.39831 | 114° | 9km/h | 22980m | 5.3m/s | -54°C | 4.4% | 36.8hPa | 2.7V | 03:40:29 | 01:28:28 | 00:00:00 | |
| AA1-15 | 2026-08-30 18:10:20 | 50.02387 | 8.39846 | 117° | 9km/h | 23003m | 4.3m/s | -54.1°C | 0.6% | 36.7hPa | 2.7V | 03:40:33 | 01:28:33 | 00:00:00 | |
| DL1XH-west | 2026-08-30 18:10:16 | 50.02394 | 8.39834 | 133° | 11km/h | 22984m | 4m/s | -54°C | 0.7% | 36.8hPa | 2.6V | 03:40:33 | 01:28:29 | 00:00:00 | |
| HSKMA3-T | 2026-08-30 18:10:15 | 50.02396 | 8.39831 | 115° | 9km/h | 22980m | 5.3m/s | -54°C | 0.7% | 36.8hPa | 2.7V | 03:40:33 | 01:28:28 | 00:00:00 | |
| DO3MHA-11 | 2026-08-30 18:10:14 | 50.02396 | 8.39827 | 94° | 7km/h | 22975m | 4.7m/s | -53.8°C | 4.4% | 36.8hPa | 2.7V | 03:40:00 | 01:28:27 | 00:00:00 | |
| DL1XH1-15 | 2026-08-30 18:10:13 | 50.02393 | 8.39816 | 78° | 7km/h | 22947m | 5.1m/s | -53.8°C | 4.2% | 37hPa | 2.7V | 03:40:36 | 01:28:21 | 00:00:00 | |
| BIOWL1-15 | 2026-08-30 18:10:13 | 50.02396 | 8.39824 | 76° | 7km/h | 22970m | 4.6m/s | -53.9°C | 0.7% | 36.9hPa | 2.6V | 03:40:33 | 01:28:26 | 00:00:00 | |
| CB1BUN | 2026-08-30 18:10:12 | 50.02396 | 8.39824 | 77° | 7km/h | 22970m | 4.6m/s | -53.9°C | 1.1% | 36.9hPa | 2.6V | 00:00:00 | 00:00:00 | 00:00:00 | |
| DD1CC8 | 2026-08-30 18:10:11 | 50.02395 | 8.39820 | 45° | 2km/h | 22960m | 5.2m/s | -53.9°C | 1.2% | 37.0hPa | 2.6V | 00:00:00 | 00:00:00 | 00:00:00 | |
| DM0DOS-11 | 2026-08-30 18:10:10 | 50.02394 | 8.39802 | 110° | 15km/h | 22934m | 4.2m/s | -53.7°C | 4% | 37.1hPa | 2.6V | 03:40:39 | 01:28:18 | 00:00:00 | |
| AA1-15 | 2026-08-30 18:10:10 | 50.02395 | 8.39819 | 39° | 4km/h | 22955m | 3.9m/s | -53.9°C | 0.7% | 37hPa | 2.7V | 03:41:24 | 01:28:23 | 00:00:00 | |
| DO9LL-15 | 2026-08-30 18:10:10 | 50.02395 | 8.39819 | 39° | 13km/h | 22955m | 3.8m/s | -53.8°C | 4.3% | 36.9hPa | 2.6V | 03:40:00 | 01:28:23 | 00:00:00 | |
| DL4BBY-15 | 2026-08-30 18:10:09 | 50.02394 | 8.39818 | 62° | 13km/h | 22952m | 3.8m/s | -55.5°C | 0% | 0hPa | 2.6V | 00:00:00 | 00:00:00 | 00:00:00 | |
| DJ2DS-15 | 2026-08-30 18:10:08 | 50.02393 | 8.39816 | 79° | 13km/h | 22947m | 5.0m/s | -53.8°C | 4.2% | 36.9hPa | 2.6V | 00:00:00 | 01:28:21 | 00:00:00 | |
| KANTATE | 2026-08-30 18:10:07 | 50.02393 | 8.39816 | 79° | 7km/h | 22947m | 5.1m/s | -53.8°C | 1.1% | 37.0hPa | 2.6V | 00:00:00 | 00:00:00 | 00:00:00 | |
| DL1XH-15 | 2026-08-30 18:10:05 | 50.02403 | 8.39781 | 93° | 11km/h | 22911m | 4.5m/s | -53.6°C | 4.2% | 37.2hPa | 2.6V | 03:40:44 | 01:28:13 | 00:00:00 | |
| DL1XH-west | 2026-08-30 18:10:05 | 50.02395 | 8.39802 | 110° | 15km/h | 22934m | 4.2m/s | -53.7°C | 0.5% | 37.1hPa | 2.6V | 03:41:24 | 01:28:18 | 00:00:00 | |
| BIOWL1-15 | 2026-08-30 18:10:03 | 50.02398 | 8.39792 | 131° | 13km/h | 22924m | 5.2m/s | -53.6°C | 0.5% | 37.1hPa | 2.7V | 03:41:24 | 01:28:16 | 00:00:00 | |
| DJ2DS-15 | 2026-08-30 18:10:03 | 50.02398 | 8.39792 | 130° | 13km/h | 22924m | 5.2m/s | -53.6°C | 1.0% | 37.1hPa | 2.6V | 00:00:00 | 00:00:00 | 00:00:00 | |
| BIOWL7-15 | 2026-08-30 18:10:02 | 50.02398 | 8.39792 | 132° | 13km/h | 22924m | 5.2m/s | -53.6°C | 1.0% | 37.1hPa | 2.6V | 03:41:00 | 00:00:00 | 00:00:00 | |
| DL8DAS-15 | 2026-08-30 18:10:01 | 50.02400 | 8.39788 | 135° | 11km/h | 22919m | 4.4m/s | -53.6°C | 1.1% | 37.2hPa | 2.6V | 03:41:00 | 00:00:00 | 00:00:00 | |
| DM0DOS-11 | 2026-08-30 18:10:00 | 50.02396 | 8.39750 | 76° | 18km/h | 22889m | 4.7m/s | -53.6°C | 4.1% | 37.3hPa | 2.6V | 03:40:49 | 01:28:08 | 00:00:00 | |
| AA1-15 | 2026-08-30 18:09:59 | 50.02402 | 8.39777 | 75° | 15km/h | 22906m | 5.1m/s | -53.6°C | 0.7% | 37.2hPa | 2.7V | 03:41:24 | 01:28:12 | 00:00:00 | |
| DL3AQ-11 | 2026-08-30 18:09:57 | 50.02397 | 8.39757 | 69° | 20km/h | 22893m | 3.7m/s | -53.6°C | 1.1% | 37.3hPa | 2.7V | 00:00:00 | 00:00:00 | 00:00:00 | |
| DO8TBO-1 | 2026-08-30 18:09:56 | 50.02397 | 8.39756 | 70° | 15km/h | 22893m | 3.7m/s | -53.6°C | 4.2% | 37.3hPa | 2.7V | 00:00:00 | 01:28:09 | 00:00:00 | |
| DL1XH-15 | 2026-08-30 18:09:55 | 50.02394 | 8.39732 | 32° | 7km/h | 22867m | 5.2m/s | -53.7°C | 4.1% | 37.5hPa | 2.7V | 03:40:54 | 01:28:03 | 00:00:00 | |
| DL1XH-west | 2026-08-30 18:09:55 | 50.02396 | 8.39750 | 77° | 18km/h | 22889m | 4.7m/s | -53.6°C | 0.6% | 37.3hPa | 2.6V | 03:41:24 | 01:28:08 | 00:00:00 | |
| HSKMA3-T | 2026-08-30 18:09:54 | 50.02395 | 8.39744 | 89° | 15km/h | 22884m | 4.5m/s | -53.6°C | 0.6% | 37.4hPa | 2.6V | 03:41:24 | 01:28:07 | 00:00:00 | |
| BIOWL1-15 | 2026-08-30 18:09:54 | 50.02395 | 8.39736 | 96° | 7km/h | 22876m | 3.6m/s | -53.7°C | 0.6% | 37.4hPa | 2.7V | 03:41:24 | 01:28:05 | 00:00:00 | |
| AA1-15 | 2026-08-30 18:09:49 | 50.02393 | 8.39731 | 26° | 11km/h | 22862m | 5m/s | -53.7°C | 0.6% | 37.5hPa | 2.6V | 03:41:24 | 01:28:02 | 00:00:00 | |
| DO1YAY-16 | 2026-08-30 18:09:49 | 50.02390 | 8.39729 | 28° | 11km/h | 22857m | 4.5m/s | -53.7°C | 1.1% | 37.5hPa | 2.7V | 00:00:00 | 00:00:00 | 00:00:00 | |
| SONDE2-11 | 2026-08-30 18:09:48 | 50.02390 | 8.39729 | 28° | 11km/h | 22857m | 4.5m/s | -53.7°C | 1.1% | 37.5hPa | 2.7V | 00:00:00 | 00:00:00 | 00:00:00 | |
| DL3AQ-11 | 2026-08-30 18:09:46 | 50.02384 | 8.39718 | 76° | 13km/h | 22843m | 5.4m/s | -53.8°C | 1.1% | 37.6hPa | 2.7V | 00:00:00 | 00:00:00 | 00:00:00 | |
| DL1XH-15 | 2026-08-30 18:09:45 | 50.02381 | 8.39684 | 61° | 20km/h | 22821m | 4.8m/s | -53.9°C | 4.2% | 37.7hPa | 2.7V | 03:41:04 | 01:27:53 | 00:00:00 | |
| DL1XH-west | 2026-08-30 18:09:44 | 50.02384 | 8.39712 | 90° | 16km/h | 22839m | 4.1m/s | -53.8°C | 0.6% | 37.6hPa | 2.6V | 03:41:24 | 01:27:57 | 00:00:00 | |
| HSKMA3-T | 2026-08-30 18:09:43 | 50.02384 | 8.39706 | 91° | 18km/h | 22835m | 3.3m/s | -53.8°C | 0.6% | 37.6hPa | 2.6V | 03:41:24 | 01:27:56 | 00:00:00 | |
| BIOWL1-15 | 2026-08-30 18:09:41 | 50.02383 | 8.39691 | 75° | 20km/h | 22826m | 5.2m/s | -53.9°C | 0.6% | 37.7hPa | 2.7V | 03:41:24 | 01:27:54 | 00:00:00 | |
| AA1-15 | 2026-08-30 18:09:38 | 50.02374 | 8.39671 | 42° | 18km/h | 22813m | 4.4m/s | -53.9°C | 0.7% | 37.8hPa | 2.6V | 03:41:24 | 01:27:51 | 00:00:00 | |
| DL8DAS-14 | 2026-08-30 18:09:37 | 50.02371 | 8.39667 | 37° | 16km/h | 22809m | 4.8m/s | -53.9°C | 1.1% | 37.8hPa | 2.7V | 00:00:00 | 00:00:00 | 00:00:00 | |
| DL1XH-15 | 2026-08-30 18:09:35 | 50.02346 | 8.39641 | 42° | 15km/h | 22776m | 5.3m/s | -53.8°C | 4.2% | 38hPa | 2.7V | 03:41:14 | 01:27:43 | 00:00:00 | |
| DL0LBS | 2026-08-30 18:09:35 | 50.02364 | 8.39660 | 32° | 16km/h | 22800m | 3.9m/s | -53.9°C | 1.2% | 37.9hPa | 2.7V | 03:41:00 | 00:00:00 | 00:00:00 | |
| DO3MHA-11 | 2026-08-30 18:09:34 | 50.02360 | 8.39657 | 31° | 16km/h | 22796m | 5.0m/s | -53.8°C | 4.2% | 37.8hPa | 2.7V | 03:41:00 | 01:27:47 | 00:00:00 | |
| DL1XH1-15 | 2026-08-30 18:09:33 | 50.02341 | 8.39633 | 52° | 13km/h | 22767m | 3.8m/s | -53.8°C | 4.2% | 38.1hPa | 2.7V | 03:41:16 | 01:27:41 | 00:00:00 | |
| DL1XH-west | 2026-08-30 18:09:33 | 50.02357 | 8.39653 | 34° | 18km/h | 22791m | 5.3m/s | -53.9°C | 0.7% | 37.9hPa | 2.6V | 03:41:24 | 01:27:46 | 00:00:00 | |
| HSKMA3-T | 2026-08-30 18:09:32 | 50.02353 | 8.39649 | 36° | 18km/h | 22786m | 4.4m/s | -53.8°C | 0.7% | 38hPa | 2.6V | 03:41:24 | 01:27:45 | 00:00:00 | |
| BIOWL1-15 | 2026-08-30 18:09:30 | 50.02346 | 8.39641 | 42° | 15km/h | 22776m | 5.3m/s | -53.8°C | 0.6% | 38hPa | 2.7V | 03:41:24 | 01:27:43 | 00:00:00 | |
| AA1-15 | 2026-08-30 18:09:27 | 50.02339 | 8.39628 | 58° | 16km/h | 22763m | 4.8m/s | -53.8°C | 0.6% | 38.1hPa | 2.6V | 03:41:24 | 01:27:40 | 00:00:00 | |
| DJ2DS-15 | 2026-08-30 18:09:27 | 50.02339 | 8.39628 | 57° | 15km/h | 22763m | 4.8m/s | -53.8°C | 1.1% | 38.1hPa | 2.6V | 00:00:00 | 00:00:00 | 00:00:00 | |
| DO8TBO-1 | 2026-08-30 18:09:26 | 50.02337 | 8.39622 | 61° | 18km/h | 22758m | 5.4m/s | -53.7°C | 4.1% | 38.1hPa | 2.6V | 03:41:00 | 01:27:39 | 00:00:00 | |
| KANTATE | 2026-08-30 18:09:25 | 50.02337 | 8.39622 | 61° | 18km/h | 22758m | 5.4m/s | -53.8°C | 1.0% | 38.1hPa | 2.6V | 00:00:00 | 00:00:00 | 00:00:00 | |
| DO3MHA-11 | 2026-08-30 18:09:24 | 50.02332 | 8.39608 | 68° | 18km/h | 22749m | 4.6m/s | -53.6°C | 4.1% | 38.1hPa | 2.6V | 00:00:00 | 01:27:37 | 00:00:00 | |
| DL1XH1-15 | 2026-08-30 18:09:23 | 50.02318 | 8.39568 | 44° | 22km/h | 22720m | 4.6m/s | -53.5°C | 4.2% | 38.3hPa | 2.6V | 03:41:26 | 01:27:31 | 00:00:00 | |
| DL1XH-west | 2026-08-30 18:09:23 | 50.02331 | 8.39600 | 70° | 20km/h | 22743m | 5.5m/s | -53.6°C | 0.6% | 38.2hPa | 2.7V | 03:41:24 | 01:27:36 | 00:00:00 | |
| HSKMA3-T | 2026-08-30 18:09:21 | 50.02327 | 8.39586 | 62° | 18km/h | 22734m | 3.5m/s | -53.6°C | 0.7% | 38.3hPa | 2.7V | 03:41:24 | 01:27:34 | 00:00:00 | |
| BIOWL1-15 | 2026-08-30 18:09:20 | 50.02324 | 8.39580 | 55° | 20km/h | 22730m | 4.3m/s | -53.5°C | 0.7% | 38.3hPa | 2.6V | 03:41:24 | 01:27:33 | 00:00:00 | |
| AA1-15 | 2026-08-30 18:09:16 | 50.02311 | 8.39558 | 38° | 16km/h | 22712m | 5.2m/s | -53.5°C | 0.7% | 38.4hPa | 2.7V | 03:42:15 | 01:27:29 | 00:00:00 | |
| DB0NH | 2026-08-30 18:09:16 | 50.02310 | 8.39558 | 38° | 18km/h | 22712m | 5.2m/s | -53.4°C | 4.2% | 38.3hPa | 2.7V | 03:41:00 | 01:27:29 | 00:00:00 | |
| DL1XH-15 | 2026-08-30 18:09:15 | 50.02292 | 8.39532 | 50° | 20km/h | 22684m | 4.2m/s | -53.4°C | 4% | 38.5hPa | 2.7V | 03:41:34 | 01:27:23 | 00:00:00 | |
| DO3MHA-11 | 2026-08-30 18:09:14 | 50.02305 | 8.39551 | 38° | 16km/h | 22703m | 4.1m/s | -53.4°C | 4.2% | 38.4hPa | 2.6V | 00:00:00 | 01:27:27 | 00:00:00 | |
| DL1XH1-15 | 2026-08-30 18:09:13 | 50.02287 | 8.39521 | 58° | 16km/h | 22674m | 4.8m/s | -53.4°C | 4% | 38.6hPa | 2.6V | 03:41:36 | 01:27:21 | 00:00:00 | |
| BIOWL1-15 | 2026-08-30 18:09:12 | 50.02292 | 8.39532 | 51° | 20km/h | 22684m | 4.2m/s | -53.4°C | 0.6% | 38.5hPa | 2.7V | 03:42:15 | 01:27:23 | 00:00:00 | |
| DL1XH-west | 2026-08-30 18:09:12 | 50.02299 | 8.39543 | 42° | 18km/h | 22693m | 5.7m/s | -53.4°C | 0.6% | 38.5hPa | 2.7V | 03:42:15 | 01:27:25 | 00:00:00 | |
| HSKMA3-T | 2026-08-30 18:09:11 | 50.02295 | 8.39538 | 46° | 20km/h | 22688m | 4.5m/s | -53.4°C | 0.6% | 38.5hPa | 2.7V | 03:42:15 | 01:27:24 | 00:00:00 | |
| DO9LL-15 | 2026-08-30 18:09:10 | 50.02292 | 8.39532 | 51° | 18km/h | 22684m | 4.1m/s | -53.3°C | 4.0% | 38.5hPa | 2.7V | 00:00:00 | 01:27:23 | 00:00:00 | |
| DD1CC8 | 2026-08-30 18:09:09 | 50.02289 | 8.39527 | 54° | 16km/h | 22679m | 5.2m/s | -53.4°C | 1.0% | 38.6hPa | 2.7V | 00:00:00 | 00:00:00 | 00:00:00 | |
| DJ2DS-15 | 2026-08-30 18:09:08 | 50.02287 | 8.39521 | 59° | 18km/h | 22674m | 4.8m/s | -53.3°C | 4.0% | 38.6hPa | 2.7V | 00:00:00 | 01:27:21 | 00:00:00 | |
| DO3DL | 2026-08-30 18:09:07 | 50.02287 | 8.39521 | 60° | 16km/h | 22674m | 4.9m/s | -53.4°C | 1.0% | 38.6hPa | 2.7V | 03:42:00 | 00:00:00 | 00:00:00 | |
| DL3AQ-11 | 2026-08-30 18:09:06 | 50.02280 | 8.39506 | 43° | 16km/h | 22660m | 5.9m/s | -53.3°C | -1.0% | -1.0hPa | 2.7V | 00:00:00 | 00:00:00 | 00:00:00 | |
| DL1XH-15 | 2026-08-30 18:09:05 | 50.02262 | 8.39488 | 28° | 13km/h | 22636m | 4.7m/s | -53.3°C | 4.1% | 38.9hPa | 2.7V | 03:41:44 | 01:27:13 | 00:00:00 | |
| AA1-15 | 2026-08-30 18:09:05 | 50.02280 | 8.39506 | 43° | 18km/h | 22660m | 5.9m/s | -53.3°C | 0.5% | 38.7hPa | 2.7V | 03:42:15 | 01:27:18 | 00:00:00 | |
| DL1XH-west | 2026-08-30 18:09:01 | 50.02265 | 8.39491 | 30° | 15km/h | 22641m | 5.3m/s | -53.4°C | 0.6% | 38.8hPa | 2.7V | 03:42:15 | 01:27:14 | 00:00:00 | |
| HSKMA3-T | 2026-08-30 18:09:00 | 50.02262 | 8.39488 | 29° | 13km/h | 22636m | 4.7m/s | -53.3°C | 0.6% | 38.9hPa | 2.7V | 03:42:15 | 01:27:13 | 00:00:00 | |
| BIOWL1-15 | 2026-08-30 18:08:59 | 50.02259 | 8.39486 | 31° | 15km/h | 22631m | 4.7m/s | -53.3°C | 0.6% | 38.9hPa | 2.7V | 03:42:15 | 01:27:12 | 00:00:00 | |
| BIOWL9-15 | 2026-08-30 18:08:58 | 50.02252 | 8.39478 | 35° | 18km/h | 22621m | 4.8m/s | -53.3°C | 1.1% | 39.0hPa | 2.7V | 00:00:00 | 00:00:00 | 00:00:00 | |
| DB0ND-19 | 2026-08-30 18:08:57 | 50.02252 | 8.39478 | 35° | 18km/h | 22621m | 4.8m/s | -53.3°C | 1.1% | 39.0hPa | 2.7V | 00:00:00 | 00:00:00 | 00:00:00 | |
| BIOWL7-15 | 2026-08-30 18:08:56 | 50.02252 | 8.39478 | 37° | 20km/h | 22621m | 4.8m/s | -53.3°C | 1.1% | 39.0hPa | 2.7V | 03:42:00 | 00:00:00 | 00:00:00 | |
| DL1XH-15 | 2026-08-30 18:08:55 | 50.02229 | 8.39443 | 33° | 22km/h | 22589m | 5.5m/s | -53.3°C | 4% | 39.1hPa | 2.7V | 03:41:54 | 01:27:03 | 00:00:00 | |
| AA1-15 | 2026-08-30 18:08:54 | 50.02241 | 8.39463 | 49° | 18km/h | 22607m | 5.3m/s | -53.3°C | 0.6% | 39hPa | 2.7V | 03:42:15 | 01:27:07 | 00:00:00 | |
| DO3MHA-11 | 2026-08-30 18:08:54 | 50.02241 | 8.39463 | 49° | 20km/h | 22608m | 5.3m/s | -53.3°C | 4.1% | 39.0hPa | 2.7V | 03:41:00 | 01:27:07 | 00:00:00 | |
| DL1XH1-15 | 2026-08-30 18:08:53 | 50.02218 | 8.39434 | 24° | 26km/h | 22580m | 3.6m/s | -53.3°C | 4% | 39.2hPa | 2.7V | 03:41:56 | 01:27:01 | 00:00:00 | |
| BIOWL1-15 | 2026-08-30 18:08:51 | 50.02223 | 8.39438 | 27° | 26km/h | 22584m | 4.4m/s | -53.3°C | 0.5% | 39.2hPa | 2.7V | 03:42:15 | 01:27:02 | 00:00:00 | |
| DL1XH-west | 2026-08-30 18:08:51 | 50.02233 | 8.39448 | 42° | 20km/h | 22595m | 4.6m/s | -53.3°C | 0.6% | 39.1hPa | 2.6V | 03:42:15 | 01:27:04 | 00:00:00 | |
| DJ2DS-15 | 2026-08-30 18:08:51 | 50.02233 | 8.39448 | 42° | 18km/h | 22595m | 4.6m/s | -53.3°C | 1.1% | 39.1hPa | 2.6V | 00:00:00 | 00:00:00 | 00:00:00 | |
| DM0DOS-11 | 2026-08-30 18:08:50 | 50.02202 | 8.39423 | 23° | 20km/h | 22566m | 4.3m/s | -53.3°C | 4% | 39.3hPa | 2.6V | 03:41:59 | 01:26:58 | 00:00:00 | |
| HSKMA3-T | 2026-08-30 18:08:50 | 50.02228 | 8.39443 | 34° | 22km/h | 22589m | 5.5m/s | -53.3°C | 0.5% | 39.1hPa | 2.7V | 03:42:15 | 01:27:03 | 00:00:00 | |
| DF3TZ-5 | 2026-08-30 18:08:50 | 50.02228 | 8.39443 | 33° | 22km/h | 22590m | 5.5m/s | -53.3°C | 1.0% | 39.1hPa | 2.7V | 00:00:00 | 00:00:00 | 00:00:00 | |
| SONCRA | 2026-08-30 18:08:49 | 50.02212 | 8.39430 | 24° | 22km/h | 22576m | 5.1m/s | -53.3°C | 1.0% | 39.2hPa | 2.7V | 00:00:00 | 00:00:00 | 00:00:00 | |
| DJ2DS-15 | 2026-08-30 18:08:48 | 50.02218 | 8.39434 | 25° | 18km/h | 22581m | 3.6m/s | -53.3°C | 4.0% | 39.1hPa | 2.7V | 00:00:00 | 01:27:01 | 00:00:00 | |
| DB0NH | 2026-08-30 18:08:46 | 50.02207 | 8.39426 | 25° | 15km/h | 22571m | 5.2m/s | -53.2°C | 4.0% | 39.2hPa | 2.6V | 00:00:00 | 01:26:59 | 00:00:00 | |
| DL1XH-15 | 2026-08-30 18:08:45 | 50.02182 | 8.39407 | 40° | 15km/h | 22544m | 5.5m/s | -53.3°C | 4.1% | 39.4hPa | 2.6V | 03:42:04 | 01:26:53 | 00:00:00 | |
| AA1-15 | 2026-08-30 18:08:43 | 50.02193 | 8.39417 | 22° | 20km/h | 22557m | 5m/s | -53.3°C | 0.5% | 39.4hPa | 2.7V | 03:42:15 | 01:26:56 | 00:00:00 | |
| DL1XH1-15 | 2026-08-30 18:08:43 | 50.02177 | 8.39400 | 50° | 13km/h | 22534m | 4.1m/s | -53.4°C | 4.2% | 39.5hPa | 2.6V | 03:42:06 | 01:26:51 | 00:00:00 | |
| DM0DOS-11 | 2026-08-30 18:08:40 | 50.02167 | 8.39390 | 18° | 20km/h | 22520m | 4.8m/s | -53.5°C | 4.1% | 39.6hPa | 2.6V | 03:42:09 | 01:26:48 | 00:00:00 | |
| DL1XH-west | 2026-08-30 18:08:40 | 50.02181 | 8.39407 | 41° | 15km/h | 22544m | 5.5m/s | -53.3°C | 0.6% | 39.4hPa | 2.6V | 03:42:15 | 01:26:53 | 00:00:00 | |
| HSKMA3-T | 2026-08-30 18:08:39 | 50.02179 | 8.39403 | 50° | 13km/h | 22538m | 5.4m/s | -53.4°C | 0.7% | 39.5hPa | 2.6V | 03:42:15 | 01:26:52 | 00:00:00 | |
| BIOWL1-15 | 2026-08-30 18:08:38 | 50.02177 | 8.39400 | 50° | 13km/h | 22534m | 4.1m/s | -53.4°C | 0.6% | 39.5hPa | 2.6V | 03:42:15 | 01:26:51 | 00:00:00 | |
| DL4BBY-15 | 2026-08-30 18:08:38 | 50.02177 | 8.39400 | 51° | 15km/h | 22534m | 4.0m/s | -55.0°C | 0% | 0hPa | 2.7V | 00:00:00 | 00:00:00 | 00:00:00 | |
| BIOWL7-15 | 2026-08-30 18:08:36 | 50.02175 | 8.39396 | 42° | 15km/h | 22530m | 4.0m/s | -53.5°C | 1.1% | 39.5hPa | 2.7V | 03:42:00 | 00:00:00 | 00:00:00 | |
| DL1XH-15 | 2026-08-30 18:08:35 | 50.02142 | 8.39386 | 354° | 15km/h | 22498m | 4.2m/s | -53.5°C | 4% | 39.7hPa | 2.7V | 03:42:14 | 01:26:43 | 00:00:00 | |
| DO3MHA-11 | 2026-08-30 18:08:34 | 50.02162 | 8.39388 | 12° | 16km/h | 22516m | 3.8m/s | -53.5°C | 4.1% | 39.5hPa | 2.6V | 00:00:00 | 01:26:47 | 00:00:00 | |
| DL1XH1-15 | 2026-08-30 18:08:33 | 50.02135 | 8.39387 | 357° | 13km/h | 22489m | 4.8m/s | -53.6°C | 4.1% | 39.7hPa | 2.6V | 03:42:16 | 01:26:41 | 00:00:00 | |
| AA1-15 | 2026-08-30 18:08:32 | 50.02151 | 8.39386 | 3° | 22km/h | 22507m | 5.1m/s | -53.6°C | 0.6% | 39.6hPa | 2.7V | 03:42:15 | 01:26:45 | 00:00:00 | |
| BIOWL1-15 | 2026-08-30 18:08:29 | 50.02132 | 8.39387 | 1° | 13km/h | 22484m | 5m/s | -53.6°C | 0.5% | 39.8hPa | 2.6V | 03:43:06 | 01:26:40 | 00:00:00 | |
| DL1XH-west | 2026-08-30 18:08:29 | 50.02138 | 8.39386 | 353° | 13km/h | 22494m | 4.3m/s | -53.6°C | 0.6% | 39.7hPa | 2.6V | 03:42:15 | 01:26:42 | 00:00:00 | |
| DJ2DS-15 | 2026-08-30 18:08:28 | 50.02135 | 8.39387 | 358° | 13km/h | 22489m | 4.8m/s | -53.6°C | 4.1% | 39.7hPa | 2.6V | 00:00:00 | 01:26:41 | 00:00:00 | |
| DL9PN | 2026-08-30 18:08:27 | 50.02128 | 8.39387 | 2° | 13km/h | 22480m | 4.2m/s | -53.6°C | 1.1% | 39.8hPa | 2.6V | 00:00:00 | 00:00:00 | 00:00:00 | |
| DB0ND-19 | 2026-08-30 18:08:26 | 50.02128 | 8.39387 | 2° | 13km/h | 22480m | 4.2m/s | -53.6°C | 1.1% | 39.8hPa | 2.6V | 00:00:00 | 00:00:00 | 00:00:00 | |
| DO3MHA-11 | 2026-08-30 18:08:24 | 50.02122 | 8.39387 | 349° | 9km/h | 22472m | 4.4m/s | -53.6°C | 4.1% | 39.8hPa | 2.6V | 00:00:00 | 01:26:37 | 00:00:00 | |
| DL1XH1-15 | 2026-08-30 18:08:23 | 50.02112 | 8.39394 | 349° | 11km/h | 22442m | 4m/s | -53.6°C | 4.2% | 40hPa | 2.6V | 03:42:26 | 01:26:31 | 00:00:00 | |
| AA1-15 | 2026-08-30 18:08:21 | 50.02118 | 8.39392 | 322° | 5km/h | 22457m | 4.3m/s | -53.6°C | 0.7% | 40hPa | 2.7V | 03:43:06 | 01:26:34 | 00:00:00 | |
| DL1XH-west | 2026-08-30 18:08:19 | 50.02114 | 8.39394 | 350° | 11km/h | 22447m | 4.7m/s | -53.6°C | 0.6% | 40hPa | 2.7V | 03:43:06 | 01:26:32 | 00:00:00 | |
| HSKMA3-T | 2026-08-30 18:08:18 | 50.02112 | 8.39394 | 349° | 11km/h | 22442m | 4m/s | -53.6°C | 0.6% | 40hPa | 2.6V | 03:43:06 | 01:26:31 | 00:00:00 | |
| BIOWL1-15 | 2026-08-30 18:08:16 | 50.02106 | 8.39398 | 331° | 13km/h | 22433m | 5.2m/s | -53.6°C | 0.6% | 40.1hPa | 2.6V | 03:43:06 | 01:26:29 | 00:00:00 | |
| DB0NH | 2026-08-30 18:08:16 | 50.02106 | 8.39398 | 332° | 13km/h | 22434m | 5.1m/s | -53.6°C | 4.2% | 40.1hPa | 2.7V | 00:00:00 | 01:26:29 | 00:00:00 | |
| DJ2DS-15 | 2026-08-30 18:08:15 | 50.02099 | 8.39405 | 325° | 18km/h | 22424m | 4.4m/s | -53.7°C | 1.1% | 40.1hPa | 2.7V | 00:00:00 | 00:00:00 | 00:00:00 | |
| DL1XH1-15 | 2026-08-30 18:08:13 | 50.02078 | 8.39427 | 288° | 7km/h | 22397m | 4.6m/s | -53.5°C | 4.2% | 40.3hPa | 2.7V | 03:42:36 | 01:26:21 | 00:00:00 | |
| BIOWL7-15 | 2026-08-30 18:08:12 | 50.02095 | 8.39409 | 329° | 20km/h | 22420m | 5.3m/s | -53.7°C | 1.1% | 40.2hPa | 2.6V | 00:00:00 | 00:00:00 | 00:00:00 | |
| HEMX73-11 | 2026-08-30 18:08:11 | 50.02090 | 8.39413 | 332° | 22km/h | 22415m | 4.3m/s | -53.6°C | 1.1% | 40.2hPa | 2.6V | 03:43:00 | 00:00:00 | 00:00:00 | |
| DM0DOS-11 | 2026-08-30 18:08:10 | 50.02077 | 8.39434 | 312° | 5km/h | 22383m | 5.2m/s | -53.4°C | 4.1% | 40.4hPa | 2.6V | 03:42:39 | 01:26:18 | 00:00:00 | |
| AA1-15 | 2026-08-30 18:08:10 | 50.02082 | 8.39421 | 324° | 16km/h | 22407m | 4.4m/s | -53.5°C | 0.6% | 40.3hPa | 2.7V | 03:43:06 | 01:26:23 | 00:00:00 | |
| DL1XH-west | 2026-08-30 18:08:09 | 50.02080 | 8.39424 | 310° | 11km/h | 22402m | 5.5m/s | -53.5°C | 0.6% | 40.3hPa | 2.7V | 03:43:06 | 01:26:22 | 00:00:00 | |
| HSKMA3-T | 2026-08-30 18:08:07 | 50.02078 | 8.39430 | 275° | 5km/h | 22392m | 3.8m/s | -53.5°C | 0.7% | 40.4hPa | 2.6V | 03:43:06 | 01:26:20 | 00:00:00 | |
| DO3DL | 2026-08-30 18:08:06 | 50.02078 | 8.39430 | 276° | 5km/h | 22393m | 3.8m/s | -53.5°C | 1.1% | 40.4hPa | 2.6V | 03:43:00 | 00:00:00 | 00:00:00 | |
| DL1XH-15 | 2026-08-30 18:08:05 | 50.02069 | 8.39449 | 287° | 15km/h | 22360m | 4.9m/s | -53.5°C | 4.1% | 40.6hPa | 2.6V | 03:42:44 | 01:26:13 | 00:00:00 | |
| BIOWL1-15 | 2026-08-30 18:08:05 | 50.02077 | 8.39434 | 312° | 5km/h | 22383m | 5.2m/s | -53.4°C | 0.5% | 40.4hPa | 2.6V | 03:43:06 | 01:26:18 | 00:00:00 | |
| DO3MHA-11 | 2026-08-30 18:08:04 | 50.02076 | 8.39435 | 324° | 13km/h | 22379m | 4.3m/s | -53.4°C | 4.1% | 40.4hPa | 2.7V | 00:00:00 | 01:26:17 | 00:00:00 | |
| DL1XH1-15 | 2026-08-30 18:08:03 | 50.02067 | 8.39459 | 293° | 13km/h | 22352m | 3.9m/s | -53.5°C | 4.2% | 40.6hPa | 2.7V | 03:42:46 | 01:26:11 | 00:00:00 | |
| DF7PN | 2026-08-30 18:08:02 | 50.02068 | 8.39454 | 285° | 13km/h | 22356m | 4.0m/s | -53.5°C | 1.1% | 40.6hPa | 2.6V | 00:00:00 | 00:00:00 | 00:00:00 | |
| DM0DOS-11 | 2026-08-30 18:08:00 | 50.02060 | 8.39467 | 344° | 15km/h | 22338m | 4.5m/s | -53.5°C | 4.1% | 40.7hPa | 2.6V | 03:42:49 | 01:26:08 | 00:00:00 | |
| AA1-15 | 2026-08-30 18:08:00 | 50.02069 | 8.39449 | 288° | 15km/h | 22360m | 4.9m/s | -53.5°C | 0.6% | 40.6hPa | 2.6V | 03:43:06 | 01:26:13 | 00:00:00 | |
| DL1XH-west | 2026-08-30 18:07:59 | 50.02068 | 8.39454 | 286° | 13km/h | 22356m | 4m/s | -53.5°C | 0.6% | 40.6hPa | 2.7V | 03:43:06 | 01:26:12 | 00:00:00 | |
| HSKMA3-T | 2026-08-30 18:07:57 | 50.02066 | 8.39463 | 311° | 11km/h | 22348m | 4.9m/s | -53.5°C | 0.6% | 40.6hPa | 2.7V | 03:43:06 | 01:26:10 | 00:00:00 | |
| BIOWL1-15 | 2026-08-30 18:07:57 | 50.02060 | 8.39467 | 344° | 15km/h | 22338m | 4.6m/s | -53.5°C | 0.6% | 40.7hPa | 2.6V | 03:43:06 | 01:26:08 | 00:00:00 | |
| DL9PN | 2026-08-30 18:07:56 | 50.02060 | 8.39467 | 344° | 13km/h | 22338m | 4.6m/s | -53.5°C | 1.1% | 40.7hPa | 2.6V | 00:00:00 | 00:00:00 | 00:00:00 | |
| DB0ND-19 | 2026-08-30 18:07:55 | 50.02060 | 8.39467 | 344° | 13km/h | 22338m | 4.6m/s | -53.5°C | 1.1% | 40.7hPa | 2.6V | 00:00:00 | 00:00:00 | 00:00:00 | |
| DO3MHA-11 | 2026-08-30 18:07:54 | 50.02057 | 8.39469 | 346° | 9km/h | 22334m | 4.1m/s | -53.4°C | 4.1% | 40.7hPa | 2.6V | 00:00:00 | 01:26:07 | 00:00:00 | |
| DJ2KF-10 | 2026-08-30 18:07:53 | 50.02053 | 8.39471 | 337° | 7km/h | 22330m | 4.2m/s | -53.4°C | 4.1% | 40.7hPa | 2.6V | 00:00:00 | 01:26:06 | 00:00:00 | |
| BIOWL7-15 | 2026-08-30 18:07:52 | 50.02053 | 8.39471 | 338° | 15km/h | 22330m | 4.2m/s | -53.5°C | 1.0% | 40.8hPa | 2.6V | 00:00:00 | 00:00:00 | 00:00:00 | |
| HEMX73-11 | 2026-08-30 18:07:51 | 50.02051 | 8.39473 | 321° | 13km/h | 22325m | 4.8m/s | -53.5°C | 1.0% | 40.8hPa | 2.6V | 03:43:00 | 00:00:00 | 00:00:00 | |
| DM0DOS-11 | 2026-08-30 18:07:50 | 50.02050 | 8.39487 | 119° | 4km/h | 22292m | 4.1m/s | -53.3°C | 4.1% | 41hPa | 2.6V | 03:42:59 | 01:25:58 | 00:00:00 | |
| AA1-15 | 2026-08-30 18:07:49 | 50.02048 | 8.39484 | 263° | 9km/h | 22310m | 4.6m/s | -53.4°C | 0.6% | 40.9hPa | 2.6V | 03:43:06 | 01:26:02 | 00:00:00 | |
| DL1XH-west | 2026-08-30 18:07:48 | 50.02048 | 8.39487 | 251° | 5km/h | 22306m | 5.4m/s | -53.4°C | 0.6% | 40.9hPa | 2.7V | 03:43:06 | 01:26:01 | 00:00:00 | |
| HSKMA3-T | 2026-08-30 18:07:46 | 50.02050 | 8.39488 | 132° | 4km/h | 22296m | 4.2m/s | -53.3°C | 0.6% | 41hPa | 2.7V | 03:43:06 | 01:25:59 | 00:00:00 | |
| BIOWL1-15 | 2026-08-30 18:07:46 | 50.02051 | 8.39486 | 130° | 4km/h | 22287m | 4.8m/s | -53.4°C | 0.6% | 41hPa | 2.6V | 03:43:06 | 01:25:57 | 00:00:00 | |
| SONCRA | 2026-08-30 18:07:46 | 50.02050 | 8.39487 | 119° | 4km/h | 22292m | 4.1m/s | -53.3°C | 1.1% | 41.0hPa | 2.6V | 00:00:00 | 00:00:00 | 00:00:00 | |
| DO3MHA-11 | 2026-08-30 18:07:44 | 50.02051 | 8.39486 | 131° | 7km/h | 22288m | 4.7m/s | -53.3°C | 4.1% | 40.9hPa | 2.6V | 00:00:00 | 01:25:57 | 00:00:00 | |
| DL1XH1-15 | 2026-08-30 18:07:43 | 50.02044 | 8.39485 | 3° | 11km/h | 22259m | 3.8m/s | -53.4°C | 4.2% | 41.2hPa | 2.6V | 03:43:06 | 01:25:51 | 00:00:00 | |
| DL8DAS-15 | 2026-08-30 18:07:42 | 50.02051 | 8.39485 | 0° | 0km/h | 22282m | 5.1m/s | -53.4°C | 1.1% | 41.0hPa | 2.7V | 00:00:00 | 00:00:00 | 00:00:00 | |
| DM0DOS-11 | 2026-08-30 18:07:40 | 50.02037 | 8.39487 | 311° | 5km/h | 22245m | 4.2m/s | -53.4°C | 4.1% | 41.3hPa | 2.7V | 03:43:09 | 01:25:48 | 00:00:00 | |
| DJ2DS-15 | 2026-08-30 18:07:39 | 50.02044 | 8.39485 | 3° | 11km/h | 22259m | 3.8m/s | -53.4°C | 1.1% | 41.2hPa | 2.7V | 00:00:00 | 00:00:00 | 00:00:00 | |
| DL4BBY-15 | 2026-08-30 18:07:38 | 50.02044 | 8.39484 | 4° | 7km/h | 22259m | 3.7m/s | -55.0°C | 0% | 0hPa | 2.7V | 00:00:00 | 00:00:00 | 00:00:00 | |
| DL1XH-west | 2026-08-30 18:07:38 | 50.02044 | 8.39485 | 4° | 11km/h | 22259m | 3.8m/s | -53.4°C | 0.6% | 41.2hPa | 2.6V | 03:43:06 | 01:25:51 | 00:00:00 | |
| DD1CC8 | 2026-08-30 18:07:36 | 50.02039 | 8.39486 | 333° | 7km/h | 22250m | 5.4m/s | -53.4°C | 1.1% | 41.3hPa | 2.7V | 00:00:00 | 00:00:00 | 00:00:00 | |
| DL1XH-15 | 2026-08-30 18:07:35 | 50.02041 | 8.39481 | 134° | 13km/h | 22222m | 4.6m/s | -53.4°C | 4.1% | 41.5hPa | 2.7V | 03:43:14 | 01:25:43 | 00:00:00 | |
| HSKMA3-T | 2026-08-30 18:07:35 | 50.02038 | 8.39487 | 311° | 5km/h | 22245m | 4.2m/s | -53.4°C | 0.6% | 41.3hPa | 2.7V | 03:43:57 | 01:25:48 | 00:00:00 | |
| DO3MHA-11 | 2026-08-30 18:07:34 | 50.02037 | 8.39488 | 287° | 9km/h | 22241m | 3.8m/s | -53.3°C | 4.1% | 41.3hPa | 2.7V | 03:43:00 | 01:25:47 | 00:00:00 | |
| DL1XH1-15 | 2026-08-30 18:07:33 | 50.02046 | 8.39475 | 139° | 11km/h | 22212m | 4.7m/s | -53.4°C | 4.2% | 41.5hPa | 2.6V | 03:43:16 | 01:25:41 | 00:00:00 | |
| BIOWL1-15 | 2026-08-30 18:07:33 | 50.02037 | 8.39489 | 137° | 2km/h | 22236m | 5.3m/s | -53.4°C | 0.5% | 41.4hPa | 2.6V | 03:43:57 | 01:25:46 | 00:00:00 | |
| DL1KLB | 2026-08-30 18:07:31 | 50.02038 | 8.39487 | 126° | 7km/h | 22232m | 5.1m/s | -53.4°C | 1.1% | 41.4hPa | 2.7V | 03:43:00 | 00:00:00 | 00:00:00 | |
| DM0DOS-11 | 2026-08-30 18:07:30 | 50.02048 | 8.39465 | 71° | 9km/h | 22198m | 5.2m/s | -53.3°C | 4.1% | 41.6hPa | 2.7V | 03:43:19 | 01:25:38 | 00:00:00 | |
| DL1XH-west | 2026-08-30 18:07:28 | 50.02046 | 8.39475 | 139° | 11km/h | 22212m | 4.7m/s | -53.4°C | 0.6% | 41.5hPa | 2.6V | 03:43:57 | 01:25:41 | 00:00:00 | |
| AA1-15 | 2026-08-30 18:07:27 | 50.02048 | 8.39472 | 126° | 9km/h | 22207m | 4.1m/s | -53.3°C | 0.6% | 41.6hPa | 2.6V | 03:43:57 | 01:25:40 | 00:00:00 | |
| HSKMA3-T | 2026-08-30 18:07:25 | 50.02048 | 8.39465 | 71° | 9km/h | 22198m | 5.3m/s | -53.3°C | 0.6% | 41.6hPa | 2.7V | 03:43:57 | 01:25:38 | 00:00:00 | |
| BIOWL1-15 | 2026-08-30 18:07:24 | 50.02042 | 8.39459 | 351° | 13km/h | 22183m | 5.5m/s | -53.3°C | 0.6% | 41.7hPa | 2.6V | 03:43:57 | 01:25:35 | 00:00:00 | |
| DO3MHA-11 | 2026-08-30 18:07:24 | 50.02047 | 8.39462 | 40° | 9km/h | 22193m | 4.5m/s | -53.3°C | 4.2% | 41.6hPa | 2.6V | 00:00:00 | 01:25:37 | 00:00:00 | |
| DJ2KF-10 | 2026-08-30 18:07:23 | 50.02045 | 8.39460 | 18° | 7km/h | 22189m | 4.5m/s | -53.3°C | 4.2% | 41.6hPa | 2.6V | 00:00:00 | 01:25:36 | 00:00:00 | |
| DC4HF-4 | 2026-08-30 18:07:22 | 50.02039 | 8.39461 | 327° | 11km/h | 22178m | 5.3m/s | -53.2°C | 1.1% | 41.8hPa | 2.6V | 00:00:00 | 00:00:00 | 00:00:00 | |
| DM0DOS-11 | 2026-08-30 18:07:20 | 50.02037 | 8.39469 | 136° | 5km/h | 22151m | 4.4m/s | -53.1°C | 4.1% | 41.9hPa | 2.6V | 03:43:29 | 01:25:28 | 00:00:00 | |
| DL1XH-west | 2026-08-30 18:07:17 | 50.02035 | 8.39471 | 190° | 2km/h | 22160m | 4.9m/s | -53.2°C | 0.5% | 41.9hPa | 2.7V | 03:43:57 | 01:25:30 | 00:00:00 | |
| AA1-15 | 2026-08-30 18:07:16 | 50.02036 | 8.39470 | 136° | 4km/h | 22155m | 4.1m/s | -53.2°C | 0.6% | 41.9hPa | 2.6V | 03:43:57 | 01:25:29 | 00:00:00 | |
| HSKMA3-T | 2026-08-30 18:07:14 | 50.02038 | 8.39467 | 140° | 5km/h | 22146m | 5.1m/s | -53.2°C | 0.5% | 41.9hPa | 2.6V | 03:43:57 | 01:25:27 | 00:00:00 | |
| BIOWL1-15 | 2026-08-30 18:07:12 | 50.02039 | 8.39465 | 110° | 2km/h | 22136m | 4.7m/s | -53.1°C | 0.6% | 42hPa | 2.7V | 03:43:57 | 01:25:25 | 00:00:00 | |
| DM0DOS-11 | 2026-08-30 18:07:10 | 50.02031 | 8.39467 | 272° | 9km/h | 22102m | 4.4m/s | -52.8°C | 4% | 42.2hPa | 2.6V | 03:43:39 | 01:25:18 | 00:00:00 | |
| DL1XH-west | 2026-08-30 18:07:06 | 50.02032 | 8.39464 | 297° | 7km/h | 22107m | 5.7m/s | -52.9°C | 0.6% | 42.2hPa | 2.7V | 03:43:57 | 01:25:19 | 00:00:00 | |
| AA1-15 | 2026-08-30 18:07:05 | 50.02031 | 8.39467 | 273° | 9km/h | 22102m | 4.4m/s | -52.8°C | 0.5% | 42.2hPa | 2.6V | 03:43:57 | 01:25:18 | 00:00:00 | |
| HSKMA3-T | 2026-08-30 18:07:03 | 50.02032 | 8.39472 | 229° | 4km/h | 22093m | 5.2m/s | -52.8°C | 0.5% | 42.3hPa | 2.6V | 03:43:57 | 01:25:16 | 00:00:00 | |
| BIOWL1-15 | 2026-08-30 18:07:02 | 50.02033 | 8.39472 | 152° | 4km/h | 22089m | 4.9m/s | -52.8°C | 0.6% | 42.3hPa | 2.7V | 03:43:57 | 01:25:15 | 00:00:00 | |
| DF7PN | 2026-08-30 18:07:00 | 50.02035 | 8.39469 | 120° | 5km/h | 22079m | 4.9m/s | -52.8°C | 1.0% | 42.4hPa | 2.7V | 00:00:00 | 00:00:00 | 00:00:00 | |
| D01LWL | 2026-08-30 18:06:57 | 50.02035 | 8.39461 | 57° | 5km/h | 22060m | 4.7m/s | -52.7°C | -1.0% | -1.0hPa | 2.7V | 00:00:00 | 00:00:00 | 00:00:00 | |
| DL1XH-15 | 2026-08-30 18:06:55 | 50.02033 | 8.39457 | 221° | 7km/h | 22032m | 3.8m/s | -52.7°C | 4% | 42.7hPa | 2.7V | 03:43:54 | 01:25:03 | 00:00:00 | |
| DL1XH-west | 2026-08-30 18:06:55 | 50.02034 | 8.39458 | 51° | 9km/h | 22055m | 4.9m/s | -52.7°C | 0.5% | 42.5hPa | 2.7V | 03:43:57 | 01:25:08 | 00:00:00 | |
| AA1-15 | 2026-08-30 18:06:54 | 50.02033 | 8.39456 | 49° | 7km/h | 22051m | 4m/s | -52.7°C | 0.5% | 42.6hPa | 2.6V | 03:43:57 | 01:25:07 | 00:00:00 | |
| DO3MHA-11 | 2026-08-30 18:06:54 | 50.02032 | 8.39456 | 50° | 5km/h | 22051m | 4.0m/s | -52.6°C | 4.0% | 42.5hPa | 2.6V | 03:43:00 | 01:25:07 | 00:00:00 | |
| DL1XH1-15 | 2026-08-30 18:06:53 | 50.02036 | 8.39459 | 178° | 5km/h | 22023m | 5m/s | -52.7°C | 4% | 42.8hPa | 2.6V | 03:43:56 | 01:25:01 | 00:00:00 | |
| HSKMA3-T | 2026-08-30 18:06:53 | 50.02032 | 8.39454 | 47° | 4km/h | 22047m | 4.1m/s | -52.7°C | 0.5% | 42.6hPa | 2.6V | 03:43:57 | 01:25:06 | 00:00:00 | |
| BIOWL1-15 | 2026-08-30 18:06:53 | 50.02032 | 8.39455 | 229° | 5km/h | 22037m | 4.9m/s | -52.7°C | 0.5% | 42.7hPa | 2.7V | 03:43:57 | 01:25:04 | 00:00:00 | |
| DJ2KF-10 | 2026-08-30 18:06:53 | 50.02032 | 8.39454 | 48° | 9km/h | 22047m | 4.0m/s | -52.6°C | 4.0% | 42.6hPa | 2.6V | 03:43:00 | 01:25:06 | 00:00:00 | |
| DO3DL | 2026-08-30 18:06:52 | 50.02032 | 8.39454 | 48° | 4km/h | 22047m | 4.1m/s | -52.7°C | 1.0% | 42.6hPa | 2.7V | 03:43:00 | 00:00:00 | 00:00:00 | |
| DM0DOS-11 | 2026-08-30 18:06:50 | 50.02038 | 8.39454 | 73° | 7km/h | 22010m | 4.5m/s | -52.7°C | 4% | 42.9hPa | 2.7V | 03:43:59 | 01:24:58 | 00:00:00 | |
| DB0UT-7 | 2026-08-30 18:06:49 | 50.02034 | 8.39458 | 208° | 9km/h | 22029m | 4.5m/s | -52.7°C | 4.0% | 42.7hPa | 2.6V | 03:43:00 | 01:25:02 | 00:00:00 | |
| DJ2DS-15 | 2026-08-30 18:06:48 | 50.02036 | 8.39459 | 179° | 9km/h | 22024m | 5.0m/s | -52.7°C | 4.0% | 42.7hPa | 2.6V | 03:43:00 | 01:25:01 | 00:00:00 | |
| DM7RM-13 | 2026-08-30 18:06:47 | 50.02036 | 8.39459 | 179° | 5km/h | 22024m | 5.0m/s | -52.7°C | 1.1% | 42.8hPa | 2.7V | 03:43:00 | 00:00:00 | 00:00:00 | |
| DB0NH | 2026-08-30 18:06:46 | 50.02038 | 8.39456 | 100° | 11km/h | 22014m | 4.3m/s | -52.6°C | 3.9% | 42.8hPa | 2.7V | 00:00:00 | 01:24:59 | 00:00:00 | |
| DL1XH-15 | 2026-08-30 18:06:45 | 50.02030 | 8.39440 | 61° | 13km/h | 21985m | 5.2m/s | -52.8°C | 4% | 43hPa | 2.7V | 03:44:04 | 01:24:53 | 00:00:00 | |
| DL1XH-west | 2026-08-30 18:06:45 | 50.02038 | 8.39454 | 74° | 7km/h | 22010m | 4.5m/s | -52.7°C | 0.6% | 42.9hPa | 2.7V | 03:44:48 | 01:24:58 | 00:00:00 | |
| AA1-15 | 2026-08-30 18:06:43 | 50.02035 | 8.39448 | 39° | 9km/h | 21999m | 4.9m/s | -52.7°C | 0.5% | 42.9hPa | 2.6V | 03:44:48 | 01:24:56 | 00:00:00 | |
| HSKMA3-T | 2026-08-30 18:06:42 | 50.02034 | 8.39446 | 40° | 9km/h | 21995m | 4.3m/s | -52.7°C | 0.5% | 43hPa | 2.6V | 03:44:48 | 01:24:55 | 00:00:00 | |
| DF1GD-15 | 2026-08-30 18:06:41 | 50.02034 | 8.39446 | 41° | 9km/h | 21995m | 4.3m/s | -52.7°C | 1.1% | 43.0hPa | 2.7V | 03:44:00 | 00:00:00 | 00:00:00 | |
| DM0DOS-11 | 2026-08-30 18:06:40 | 50.02028 | 8.39424 | 105° | 4km/h | 21961m | 4.3m/s | -52.9°C | 4% | 43.2hPa | 2.7V | 03:44:09 | 01:24:48 | 00:00:00 | |
| BIOWL1-15 | 2026-08-30 18:06:40 | 50.02030 | 8.39440 | 61° | 13km/h | 21985m | 5.3m/s | -52.8°C | 0.6% | 43hPa | 2.7V | 03:44:48 | 01:24:53 | 00:00:00 | |
| DL3OBA | 2026-08-30 18:06:39 | 50.02030 | 8.39440 | 62° | 13km/h | 21986m | 5.3m/s | -52.8°C | 1.1% | 43.0hPa | 2.6V | 00:00:00 | 00:00:00 | 00:00:00 | |
| DL4BBY-15 | 2026-08-30 18:06:38 | 50.02028 | 8.39431 | 77° | 13km/h | 21977m | 4.0m/s | -54.5°C | 0% | 0hPa | 2.6V | 00:00:00 | 00:00:00 | 00:00:00 | |
| DL1XH-15 | 2026-08-30 18:06:34 | 50.02031 | 8.39404 | 106° | 11km/h | 21933m | 5.7m/s | -52.8°C | 4% | 43.4hPa | 2.6V | 03:44:15 | 01:24:42 | 00:00:00 | |
| DL1XH-west | 2026-08-30 18:06:34 | 50.02028 | 8.39423 | 106° | 4km/h | 21957m | 4.1m/s | -52.9°C | 0.6% | 43.2hPa | 2.7V | 03:44:48 | 01:24:47 | 00:00:00 | |
| HSKMA3-T | 2026-08-30 18:06:32 | 50.02029 | 8.39417 | 102° | 11km/h | 21947m | 5.2m/s | -52.9°C | 0.6% | 43.3hPa | 2.6V | 03:44:48 | 01:24:45 | 00:00:00 | |
| BIOWL1-15 | 2026-08-30 18:06:29 | 50.02031 | 8.39404 | 107° | 11km/h | 21933m | 5.7m/s | -52.8°C | 0.5% | 43.4hPa | 2.6V | 03:44:48 | 01:24:42 | 00:00:00 | |
| DJ2DS-15 | 2026-08-30 18:06:28 | 50.02032 | 8.39400 | 109° | 15km/h | 21929m | 4.6m/s | -52.8°C | 4.0% | 43.4hPa | 2.6V | 00:00:00 | 01:24:41 | 00:00:00 | |
| SFWM-10 | 2026-08-30 18:06:27 | 50.02033 | 8.39397 | 113° | 11km/h | 21924m | 4.0m/s | -52.8°C | 1.0% | 43.4hPa | 2.6V | 00:00:00 | 00:00:00 | 00:00:00 | |
| D01LWL | 2026-08-30 18:06:26 | 50.02034 | 8.39393 | 112° | 11km/h | 21920m | 4.5m/s | 0°C | -1.0% | -1.0hPa | 2.6V | 00:00:00 | 00:00:00 | 00:00:00 | |
| DO2KSM | 2026-08-30 18:06:25 | 50.02034 | 8.39393 | 113° | 11km/h | 21920m | 4.5m/s | -52.8°C | 1.1% | 43.5hPa | 2.6V | 03:44:00 | 00:00:00 | 00:00:00 | |
| DL1XH-15 | 2026-08-30 18:06:24 | 50.02046 | 8.39359 | 127° | 11km/h | 21886m | 4m/s | -52.8°C | 4% | 43.7hPa | 2.6V | 03:44:25 | 01:24:32 | 00:00:00 | |
| DO3MHA-11 | 2026-08-30 18:06:24 | 50.02036 | 8.39382 | 114° | 15km/h | 21910m | 4.6m/s | -52.8°C | 4.0% | 43.5hPa | 2.7V | 00:00:00 | 01:24:37 | 00:00:00 | |
| DL1XH1-15 | 2026-08-30 18:06:23 | 50.02047 | 8.39355 | 117° | 13km/h | 21882m | 4.7m/s | -52.8°C | 4% | 43.7hPa | 2.7V | 03:44:26 | 01:24:31 | 00:00:00 | |
| DL1XH-west | 2026-08-30 18:06:23 | 50.02038 | 8.39376 | 117° | 16km/h | 21906m | 4m/s | -52.8°C | 0.5% | 43.6hPa | 2.6V | 03:44:48 | 01:24:36 | 00:00:00 | |
| HSKMA3-T | 2026-08-30 18:06:21 | 50.02042 | 8.39366 | 127° | 13km/h | 21896m | 5.7m/s | -52.8°C | 0.6% | 43.6hPa | 2.7V | 03:44:48 | 01:24:34 | 00:00:00 | |
| BIOWL1-15 | 2026-08-30 18:06:20 | 50.02048 | 8.39355 | 117° | 13km/h | 21882m | 4.7m/s | -52.8°C | 0.5% | 43.7hPa | 2.7V | 03:44:48 | 01:24:31 | 00:00:00 | |
| DB0UT-7 | 2026-08-30 18:06:19 | 50.02046 | 8.39359 | 128° | 16km/h | 21886m | 3.9m/s | -52.7°C | 4.0% | 43.6hPa | 2.7V | 00:00:00 | 00:00:00 | 00:00:00 | |
| DL1ZP-14 | 2026-08-30 18:06:17 | 50.02049 | 8.39350 | 109° | 15km/h | 21877m | 5.1m/s | -52.8°C | 1.1% | 43.7hPa | 2.7V | 00:00:00 | 00:00:00 | 00:00:00 | |
| DB0NH | 2026-08-30 18:06:16 | 50.02050 | 8.39344 | 104° | 16km/h | 21872m | 4.2m/s | -52.8°C | 4.0% | 43.7hPa | 2.6V | 00:00:00 | 01:24:29 | 00:00:00 | |
| DL1XH-15 | 2026-08-30 18:06:14 | 50.02051 | 8.39304 | 87° | 16km/h | 21838m | 4.3m/s | -53°C | 4.1% | 44hPa | 2.6V | 03:44:35 | 01:24:22 | 00:00:00 | |
| DO3MHA-11 | 2026-08-30 18:06:14 | 50.02051 | 8.39332 | 98° | 13km/h | 21863m | 5.5m/s | -52.9°C | 4.0% | 43.8hPa | 2.6V | 03:44:00 | 01:24:27 | 00:00:00 | |
| DL1XH1-15 | 2026-08-30 18:06:13 | 50.02051 | 8.39297 | 87° | 15km/h | 21834m | 4.1m/s | -52.9°C | 4% | 44hPa | 2.6V | 03:44:36 | 01:24:21 | 00:00:00 | |
| DL1XH-west | 2026-08-30 18:06:13 | 50.02052 | 8.39327 | 92° | 13km/h | 21857m | 5m/s | -53°C | 0.5% | 43.9hPa | 2.7V | 03:44:48 | 01:24:26 | 00:00:00 | |
| BIOWL1-15 | 2026-08-30 18:06:12 | 50.02051 | 8.39297 | 88° | 15km/h | 21834m | 4.1m/s | -52.9°C | 0.5% | 44hPa | 2.6V | 03:44:48 | 01:24:21 | 00:00:00 | |
| AA1-15 | 2026-08-30 18:06:11 | 50.02052 | 8.39316 | 87° | 15km/h | 21848m | 4.8m/s | -53°C | 0.6% | 43.9hPa | 2.7V | 03:44:48 | 01:24:24 | 00:00:00 | |
| DM0DOS-11 | 2026-08-30 18:06:10 | 50.02050 | 8.39284 | 79° | 9km/h | 21820m | 3.7m/s | -52.9°C | 4% | 44.1hPa | 2.7V | 03:44:39 | 01:24:18 | 00:00:00 | |
| HSKMA3-T | 2026-08-30 18:06:10 | 50.02051 | 8.39310 | 87° | 16km/h | 21843m | 5m/s | -53°C | 0.5% | 44hPa | 2.6V | 03:44:48 | 01:24:23 | 00:00:00 | |
| DC4HF-4 | 2026-08-30 18:06:10 | 50.02051 | 8.39310 | 87° | 16km/h | 21843m | 5.0m/s | -53.0°C | 1.1% | 44.0hPa | 2.7V | 00:00:00 | 00:00:00 | 00:00:00 | |
| DL4BBY-15 | 2026-08-30 18:06:08 | 50.02051 | 8.39297 | 88° | 18km/h | 21835m | 4.1m/s | -54.6°C | 0% | 0hPa | 2.7V | 00:00:00 | 00:00:00 | 00:00:00 | |
| DL0LBS | 2026-08-30 18:06:07 | 50.02051 | 8.39297 | 89° | 15km/h | 21835m | 4.1m/s | -52.9°C | 1.1% | 44.0hPa | 2.7V | 03:44:00 | 00:00:00 | 00:00:00 | |
| DM7RM-13 | 2026-08-30 18:06:06 | 50.02051 | 8.39292 | 87° | 13km/h | 21830m | 5.5m/s | -52.9°C | 1.1% | 44.1hPa | 2.7V | 03:44:00 | 00:00:00 | 00:00:00 | |
| DO3DL | 2026-08-30 18:06:05 | 50.02051 | 8.39288 | 84° | 9km/h | 21825m | 4.9m/s | -52.9°C | 1.1% | 44.1hPa | 2.7V | 03:44:00 | 00:00:00 | 00:00:00 | |
| DL1XH-15 | 2026-08-30 18:06:04 | 50.02047 | 8.39244 | 91° | 20km/h | 21792m | 5.6m/s | -52.9°C | 4.1% | 44.3hPa | 2.7V | 03:44:45 | 01:24:12 | 00:00:00 | |
| DO3MHA-11 | 2026-08-30 18:06:04 | 50.02050 | 8.39280 | 78° | 18km/h | 21816m | 3.7m/s | -52.9°C | 4.0% | 44.1hPa | 2.7V | 00:00:00 | 01:24:17 | 00:00:00 | |
| DL1XH1-15 | 2026-08-30 18:06:03 | 50.02048 | 8.39236 | 93° | 18km/h | 21787m | 4.7m/s | -52.9°C | 4% | 44.4hPa | 2.6V | 03:44:46 | 01:24:11 | 00:00:00 | |
| DL1XH-west | 2026-08-30 18:06:02 | 50.02048 | 8.39268 | 81° | 20km/h | 21807m | 4.8m/s | -52.9°C | 0.6% | 44.2hPa | 2.6V | 03:44:48 | 01:24:15 | 00:00:00 | |
| AA1-15 | 2026-08-30 18:06:00 | 50.02047 | 8.39252 | 90° | 22km/h | 21798m | 4.6m/s | -53°C | 0.5% | 44.3hPa | 2.7V | 03:44:48 | 01:24:13 | 00:00:00 | |
| BIOWL1-15 | 2026-08-30 18:05:58 | 50.02048 | 8.39236 | 94° | 18km/h | 21787m | 4.7m/s | -52.9°C | 0.6% | 44.4hPa | 2.6V | 03:44:48 | 01:24:11 | 00:00:00 | |
| D01LWL | 2026-08-30 18:05:55 | 50.02044 | 8.39208 | 61° | 20km/h | 21768m | 4.6m/s | 0°C | -1.0% | -1.0hPa | 2.7V | 00:00:00 | 00:00:00 | 00:00:00 | |
| DL1XH-15 | 2026-08-30 18:05:54 | 50.02031 | 8.39184 | 49° | 15km/h | 21744m | 4.4m/s | -52.9°C | 4% | 44.7hPa | 2.7V | 03:44:55 | 01:24:02 | 00:00:00 | |
| DO3MHA-11 | 2026-08-30 18:05:54 | 50.02043 | 8.39208 | 62° | 18km/h | 21768m | 4.6m/s | -52.8°C | 4.0% | 44.5hPa | 2.7V | 00:00:00 | 01:24:07 | 00:00:00 | |
| DL1XH1-15 | 2026-08-30 18:05:53 | 50.02029 | 8.39179 | 57° | 16km/h | 21739m | 5.5m/s | -52.9°C | 4% | 44.7hPa | 2.7V | 03:44:56 | 01:24:01 | 00:00:00 | |
| DL1XH-west | 2026-08-30 18:05:51 | 50.02036 | 8.39191 | 43° | 15km/h | 21753m | 5.1m/s | -52.8°C | 0.5% | 44.6hPa | 2.6V | 03:45:39 | 01:24:04 | 00:00:00 | |
| BIOWL1-15 | 2026-08-30 18:05:49 | 50.02026 | 8.39172 | 68° | 22km/h | 21734m | 5.1m/s | -52.9°C | 0.6% | 44.7hPa | 2.6V | 03:45:39 | 01:24:00 | 00:00:00 | |
| HSKMA3-T | 2026-08-30 18:05:49 | 50.02031 | 8.39184 | 50° | 15km/h | 21744m | 4.4m/s | -52.9°C | 0.5% | 44.7hPa | 2.7V | 03:45:39 | 01:24:02 | 00:00:00 | |
| DB0UT-7 | 2026-08-30 18:05:49 | 50.02031 | 8.39184 | 50° | 18km/h | 21744m | 4.4m/s | -52.8°C | 4.0% | 44.6hPa | 2.7V | 00:00:00 | 01:24:02 | 00:00:00 | |
| NBG1-10 | 2026-08-30 18:05:48 | 50.02029 | 8.39179 | 58° | 20km/h | 21740m | 5.5m/s | -52.8°C | 4.0% | 44.6hPa | 2.7V | 00:00:00 | 01:24:01 | 00:00:00 | |
| HEMX73-11 | 2026-08-30 18:05:47 | 50.02029 | 8.39179 | 58° | 16km/h | 21740m | 5.5m/s | -52.9°C | 1.1% | 44.7hPa | 2.6V | 03:45:00 | 00:00:00 | 00:00:00 | |
| DB0NH | 2026-08-30 18:05:46 | 50.02025 | 8.39164 | 77° | 20km/h | 21730m | 4.0m/s | -52.8°C | 4.0% | 44.7hPa | 2.6V | 00:00:00 | 01:23:59 | 00:00:00 | |
| DM7RM-13 | 2026-08-30 18:05:45 | 50.02024 | 8.39164 | 78° | 24km/h | 21730m | 4.0m/s | -52.8°C | 1.1% | 44.8hPa | 2.6V | 03:45:00 | 00:00:00 | 00:00:00 | |
| DL1XH-15 | 2026-08-30 18:05:44 | 50.02023 | 8.39104 | 74° | 18km/h | 21697m | 4.5m/s | -52.9°C | 4% | 45hPa | 2.6V | 03:45:05 | 01:23:52 | 00:00:00 | |
| DO3MHA-11 | 2026-08-30 18:05:44 | 50.02023 | 8.39145 | 91° | 18km/h | 21721m | 4.9m/s | -52.8°C | 4.0% | 44.8hPa | 2.7V | 00:00:00 | 01:23:57 | 00:00:00 | |
| DL1XH1-15 | 2026-08-30 18:05:43 | 50.02022 | 8.39098 | 71° | 16km/h | 21693m | 4m/s | -52.9°C | 4% | 45hPa | 2.7V | 03:45:06 | 01:23:51 | 00:00:00 | |
| DL1XH-west | 2026-08-30 18:05:40 | 50.02024 | 8.39111 | 83° | 20km/h | 21702m | 5.5m/s | -52.9°C | 0.6% | 45hPa | 2.6V | 03:45:39 | 01:23:53 | 00:00:00 | |
| HSKMA3-T | 2026-08-30 18:05:39 | 50.02023 | 8.39104 | 74° | 18km/h | 21697m | 4.5m/s | -52.9°C | 0.5% | 45hPa | 2.6V | 03:45:39 | 01:23:52 | 00:00:00 | |
| AA1-15 | 2026-08-30 18:05:38 | 50.02022 | 8.39098 | 71° | 16km/h | 21693m | 4m/s | -52.9°C | 0.6% | 45hPa | 2.7V | 03:45:39 | 01:23:51 | 00:00:00 | |
| BIOWL1-15 | 2026-08-30 18:05:37 | 50.02021 | 8.39092 | 72° | 15km/h | 21689m | 5.3m/s | -52.9°C | 0.6% | 45hPa | 2.7V | 03:45:39 | 01:23:50 | 00:00:00 | |
| DL8DAS-15 | 2026-08-30 18:05:36 | 50.02021 | 8.39092 | 73° | 15km/h | 21689m | 5.3m/s | -52.9°C | 1.1% | 45.0hPa | 2.6V | 03:45:00 | 00:00:00 | 00:00:00 | |
| DL1XH-15 | 2026-08-30 18:05:34 | 50.02012 | 8.39037 | 82° | 18km/h | 21652m | 4.5m/s | -52.9°C | 4% | 45.3hPa | 2.6V | 03:45:15 | 01:23:42 | 00:00:00 | |
| DC4HF-4 | 2026-08-30 18:05:34 | 50.02017 | 8.39070 | 74° | 20km/h | 21670m | 5.6m/s | -53.0°C | 1.0% | 45.2hPa | 2.6V | 00:00:00 | 00:00:00 | 00:00:00 | |
| DL1XH1-15 | 2026-08-30 18:05:33 | 50.02011 | 8.39030 | 81° | 18km/h | 21648m | 4.2m/s | -52.9°C | 4% | 45.4hPa | 2.6V | 03:45:16 | 01:23:41 | 00:00:00 | |
| DH7VM-15 | 2026-08-30 18:05:32 | 50.02016 | 8.39062 | 75° | 22km/h | 21666m | 4.4m/s | -52.9°C | 1.0% | 45.2hPa | 2.6V | 00:00:00 | 00:00:00 | 00:00:00 | |
| DO3DL | 2026-08-30 18:05:31 | 50.02016 | 8.39062 | 75° | 22km/h | 21666m | 4.4m/s | -52.9°C | 1.0% | 45.2hPa | 2.6V | 03:45:00 | 00:00:00 | 00:00:00 | |
| DM0DOS-11 | 2026-08-30 18:05:30 | 50.02008 | 8.39009 | 73° | 18km/h | 21633m | 4.2m/s | -52.8°C | 4% | 45.5hPa | 2.6V | 03:45:19 | 01:23:38 | 00:00:00 | |
| DL1XH-west | 2026-08-30 18:05:30 | 50.02013 | 8.39045 | 79° | 22km/h | 21657m | 5.1m/s | -52.9°C | 0.5% | 45.3hPa | 2.6V | 03:45:39 | 01:23:43 | 00:00:00 | |
| HSKMA3-T | 2026-08-30 18:05:28 | 50.02011 | 8.39030 | 81° | 18km/h | 21648m | 4.2m/s | -52.9°C | 0.6% | 45.4hPa | 2.6V | 03:45:39 | 01:23:41 | 00:00:00 | |
| AA1-15 | 2026-08-30 18:05:27 | 50.02010 | 8.39023 | 77° | 18km/h | 21643m | 4.6m/s | -52.9°C | 0.5% | 45.4hPa | 2.7V | 03:45:39 | 01:23:40 | 00:00:00 | |
| DL8DAS-15 | 2026-08-30 18:05:27 | 50.02010 | 8.39023 | 78° | 18km/h | 21643m | 4.6m/s | -52.9°C | 1.1% | 45.4hPa | 2.6V | 03:45:00 | 00:00:00 | 00:00:00 | |
| DL8OAI-8 | 2026-08-30 18:05:26 | 50.02010 | 8.39023 | 78° | 18km/h | 21643m | 4.6m/s | -52.9°C | 1.1% | 45.4hPa | 2.6V | 03:45:00 | 00:00:00 | 00:00:00 | |
| DM7RM-13 | 2026-08-30 18:05:25 | 50.02009 | 8.39016 | 74° | 18km/h | 21638m | 5.2m/s | -52.9°C | 1.1% | 45.4hPa | 2.6V | 03:45:00 | 00:00:00 | 00:00:00 | |
| DL1XH-15 | 2026-08-30 18:05:24 | 50.02001 | 8.38969 | 59° | 22km/h | 21605m | 5.2m/s | -52.8°C | 3.9% | 45.6hPa | 2.6V | 03:45:25 | 01:23:32 | 00:00:00 | |
| DO3MHA-11 | 2026-08-30 18:05:24 | 50.02007 | 8.39003 | 77° | 20km/h | 21630m | 4.0m/s | -52.8°C | 4.0% | 45.4hPa | 2.6V | 00:00:00 | 01:23:37 | 00:00:00 | |
| DL1XH1-15 | 2026-08-30 18:05:23 | 50.01998 | 8.38961 | 54° | 26km/h | 21601m | 4m/s | -52.7°C | 3.9% | 45.7hPa | 2.6V | 03:45:26 | 01:23:31 | 00:00:00 | |
| DJ2KF-10 | 2026-08-30 18:05:23 | 50.02006 | 8.38996 | 83° | 24km/h | 21625m | 5.2m/s | -52.8°C | 4.0% | 45.5hPa | 2.6V | 00:00:00 | 01:23:36 | 00:00:00 | |
| DN1GJH-1 | 2026-08-30 18:05:21 | 50.02006 | 8.38989 | 84° | 16km/h | 21620m | 4.5m/s | -52.8°C | 1.1% | 45.5hPa | 2.7V | 03:45:00 | 00:00:00 | 00:00:00 | |
| DM0DOS-11 | 2026-08-30 18:05:20 | 50.01987 | 8.38938 | 56° | 22km/h | 21588m | 4.3m/s | -52.9°C | 3.9% | 45.7hPa | 2.7V | 03:45:29 | 01:23:28 | 00:00:00 | |
| DL1XH-west | 2026-08-30 18:05:20 | 50.02004 | 8.38976 | 68° | 18km/h | 21611m | 5.3m/s | -52.8°C | 0.5% | 45.6hPa | 2.7V | 03:45:39 | 01:23:33 | 00:00:00 | |
| BIOWL1-15 | 2026-08-30 18:05:17 | 50.01994 | 8.38953 | 53° | 26km/h | 21597m | 3.8m/s | -52.8°C | 0.5% | 45.7hPa | 2.6V | 03:45:39 | 01:23:30 | 00:00:00 | |
| AA1-15 | 2026-08-30 18:05:16 | 50.01991 | 8.38946 | 54° | 24km/h | 21592m | 4.9m/s | -52.8°C | 0.4% | 45.7hPa | 2.7V | 03:45:39 | 01:23:29 | 00:00:00 | |
| DB0NH | 2026-08-30 18:05:16 | 50.01990 | 8.38945 | 55° | 26km/h | 21593m | 4.9m/s | -52.8°C | 3.8% | 45.7hPa | 2.6V | 03:45:00 | 01:23:29 | 00:00:00 | |
| DL3OBA | 2026-08-30 18:05:15 | 50.01990 | 8.38945 | 55° | 24km/h | 21593m | 4.9m/s | -52.8°C | 0% | 0hPa | 2.6V | 00:00:00 | 00:00:00 | 00:00:00 | |
| DO3MHA-11 | 2026-08-30 18:05:14 | 50.01984 | 8.38931 | 59° | 22km/h | 21584m | 3.7m/s | -52.9°C | 3.9% | 45.8hPa | 2.6V | 00:00:00 | 01:23:27 | 00:00:00 | |
| DL1XH1-15 | 2026-08-30 18:05:13 | 50.01966 | 8.38888 | 52° | 18km/h | 21556m | 5.2m/s | -53.1°C | 4% | 46hPa | 2.6V | 03:45:36 | 01:23:21 | 00:00:00 | |
| NBG1-10 | 2026-08-30 18:05:12 | 50.01979 | 8.38916 | 59° | 27km/h | 21575m | 5.3m/s | -53.0°C | 3.9% | 45.8hPa | 2.7V | 00:00:00 | 01:23:25 | 00:00:00 | |
| DM0DOS-11 | 2026-08-30 18:05:10 | 50.01957 | 8.38871 | 46° | 24km/h | 21543m | 5m/s | -53.2°C | 4.1% | 46.1hPa | 2.7V | 03:45:39 | 01:23:18 | 00:00:00 | |
| DL1XH-west | 2026-08-30 18:05:09 | 50.01969 | 8.38894 | 54° | 20km/h | 21561m | 4.4m/s | -53°C | 0.5% | 46hPa | 2.7V | 03:45:39 | 01:23:22 | 00:00:00 | |
| BIOWL1-15 | 2026-08-30 18:05:09 | 50.01964 | 8.38883 | 50° | 18km/h | 21551m | 4.2m/s | -53.1°C | 0.5% | 46hPa | 2.6V | 03:45:39 | 01:23:20 | 00:00:00 | |
| HSKMA3-T | 2026-08-30 18:05:06 | 50.01961 | 8.38877 | 48° | 20km/h | 21548m | 4m/s | -53.2°C | 0.6% | 46.1hPa | 2.6V | 03:45:39 | 01:23:19 | 00:00:00 | |
| AA1-15 | 2026-08-30 18:05:05 | 50.01957 | 8.38871 | 47° | 24km/h | 21543m | 5m/s | -53.2°C | 0.6% | 46.1hPa | 2.7V | 03:45:39 | 01:23:18 | 00:00:00 | |
| DO3MHA-11 | 2026-08-30 18:05:04 | 50.01953 | 8.38864 | 47° | 31km/h | 21538m | 4.7m/s | -53.2°C | 4.1% | 46.1hPa | 2.7V | 00:00:00 | 01:23:17 | 00:00:00 | |
| DO2KSM | 2026-08-30 18:05:02 | 50.01947 | 8.38855 | 49° | 31km/h | 21534m | 3.8m/s | -53.4°C | 1.1% | 46.2hPa | 2.6V | 03:46:00 | 00:00:00 | 00:00:00 | |
| DD1CC8 | 2026-08-30 18:05:01 | 50.01937 | 8.38837 | 51° | 29km/h | 21526m | 5.0m/s | -53.5°C | 1.1% | 46.2hPa | 2.6V | 00:00:00 | 00:00:00 | 00:00:00 | |
| DM0DOS-11 | 2026-08-30 18:05:00 | 50.01911 | 8.38779 | 53° | 29km/h | 21499m | 3.8m/s | -53.5°C | 3.9% | 46.4hPa | 2.6V | 03:45:49 | 01:23:08 | 00:00:00 | |
| DL1XH-west | 2026-08-30 18:04:58 | 50.01924 | 8.38808 | 56° | 29km/h | 21512m | 4.2m/s | -53.5°C | 0.6% | 46.3hPa | 2.7V | 03:46:30 | 01:23:11 | 00:00:00 | |
| BIOWL1-15 | 2026-08-30 18:04:56 | 50.01916 | 8.38788 | 55° | 31km/h | 21503m | 4m/s | -53.5°C | 0.5% | 46.4hPa | 2.6V | 03:46:30 | 01:23:09 | 00:00:00 | |
| HSKMA3-T | 2026-08-30 18:04:55 | 50.01911 | 8.38779 | 53° | 29km/h | 21499m | 3.8m/s | -53.5°C | 0.5% | 46.4hPa | 2.6V | 03:46:30 | 01:23:08 | 00:00:00 | |
| DL1XH-15 | 2026-08-30 18:04:54 | 50.01884 | 8.38732 | 45° | 31km/h | 21470m | 4.1m/s | -53.5°C | 4.1% | 46.6hPa | 2.7V | 03:45:55 | 01:23:02 | 00:00:00 | |
| AA1-15 | 2026-08-30 18:04:54 | 50.01907 | 8.38770 | 51° | 27km/h | 21494m | 5.4m/s | -53.6°C | 0.5% | 46.4hPa | 2.7V | 03:46:30 | 01:23:07 | 00:00:00 | |
| DO3MHA-11 | 2026-08-30 18:04:54 | 50.01907 | 8.38770 | 52° | 27km/h | 21494m | 5.4m/s | -53.5°C | 3.9% | 46.4hPa | 2.7V | 03:45:00 | 01:23:07 | 00:00:00 | |
| DL1XH1-15 | 2026-08-30 18:04:53 | 50.01879 | 8.38724 | 43° | 31km/h | 21466m | 4.3m/s | -53.5°C | 4.1% | 46.6hPa | 2.7V | 03:45:56 | 01:23:01 | 00:00:00 | |
| DJ2KF-10 | 2026-08-30 18:04:53 | 50.01902 | 8.38762 | 48° | 27km/h | 21489m | 5.3m/s | -53.5°C | 4.0% | 46.4hPa | 2.6V | 03:45:00 | 01:23:06 | 00:00:00 | |
| DO3DL | 2026-08-30 18:04:52 | 50.01902 | 8.38762 | 49° | 24km/h | 21489m | 5.3m/s | -53.5°C | 1.1% | 46.5hPa | 2.6V | 03:46:00 | 00:00:00 | 00:00:00 | |
| DL3OBA | 2026-08-30 18:04:51 | 50.01898 | 8.38755 | 47° | 24km/h | 21484m | 4.4m/s | -53.5°C | 0% | 0hPa | 2.6V | 03:46:00 | 00:00:00 | 00:00:00 | |
| DM0DOS-11 | 2026-08-30 18:04:50 | 50.01862 | 8.38701 | 40° | 29km/h | 21452m | 3.8m/s | -53.7°C | 4.3% | 46.7hPa | 2.6V | 03:45:59 | 01:22:58 | 00:00:00 | |
| DL1XH-west | 2026-08-30 18:04:47 | 50.01873 | 8.38716 | 42° | 29km/h | 21461m | 5.8m/s | -53.6°C | 0.6% | 46.7hPa | 2.7V | 03:46:30 | 01:23:00 | 00:00:00 | |
| BIOWL1-15 | 2026-08-30 18:04:46 | 50.01868 | 8.38708 | 41° | 29km/h | 21456m | 4.6m/s | -53.6°C | 0.7% | 46.7hPa | 2.6V | 03:46:30 | 01:22:59 | 00:00:00 | |
| DB0NH | 2026-08-30 18:04:46 | 50.01868 | 8.38708 | 41° | 27km/h | 21456m | 4.5m/s | -53.6°C | 4.3% | 46.7hPa | 2.6V | 00:00:00 | 01:22:59 | 00:00:00 | |
| DL8OAI-8 | 2026-08-30 18:04:45 | 50.01868 | 8.38708 | 42° | 29km/h | 21456m | 4.6m/s | -53.6°C | 1.2% | 46.7hPa | 2.6V | 03:46:00 | 00:00:00 | 00:00:00 | |
| DL1XH-15 | 2026-08-30 18:04:44 | 50.01830 | 8.38659 | 31° | 22km/h | 21424m | 4.5m/s | -53.7°C | 4.1% | 46.9hPa | 2.6V | 03:46:05 | 01:22:52 | 00:00:00 | |
| HSKMA3-T | 2026-08-30 18:04:44 | 50.01856 | 8.38693 | 42° | 31km/h | 21447m | 5m/s | -53.7°C | 0.7% | 46.8hPa | 2.6V | 03:46:30 | 01:22:57 | 00:00:00 | |
| DO3MHA-11 | 2026-08-30 18:04:44 | 50.01856 | 8.38693 | 42° | 27km/h | 21448m | 4.9m/s | -53.7°C | 4.3% | 46.7hPa | 2.7V | 00:00:00 | 01:22:57 | 00:00:00 | |
| DL1XH1-15 | 2026-08-30 18:04:43 | 50.01825 | 8.38655 | 29° | 22km/h | 21420m | 4.5m/s | -53.7°C | 4.1% | 47hPa | 2.7V | 03:46:06 | 01:22:51 | 00:00:00 | |
| AA1-15 | 2026-08-30 18:04:43 | 50.01851 | 8.38685 | 42° | 31km/h | 21443m | 4.4m/s | -53.8°C | 0.7% | 46.8hPa | 2.7V | 03:46:30 | 01:22:56 | 00:00:00 | |
| BIOWL1-15 | 2026-08-30 18:04:36 | 50.01814 | 8.38645 | 31° | 27km/h | 21410m | 4.3m/s | -53.7°C | 0.6% | 47hPa | 2.7V | 03:46:30 | 01:22:49 | 00:00:00 | |
| DL1XH-15 | 2026-08-30 18:04:34 | 50.01767 | 8.38610 | 25° | 33km/h | 21378m | 4.8m/s | -53.7°C | 4.2% | 47.3hPa | 2.6V | 03:46:15 | 01:22:42 | 00:00:00 | |
| DO3MHA-11 | 2026-08-30 18:04:34 | 50.01801 | 8.38634 | 28° | 29km/h | 21403m | 4.2m/s | -53.7°C | 4.1% | 47.0hPa | 2.6V | 00:00:00 | 01:22:47 | 00:00:00 | |
| DL1XH1-15 | 2026-08-30 18:04:33 | 50.01760 | 8.38604 | 24° | 31km/h | 21374m | 3.2m/s | -53.7°C | 4.3% | 47.3hPa | 2.6V | 03:46:16 | 01:22:41 | 00:00:00 | |
| AA1-15 | 2026-08-30 18:04:32 | 50.01788 | 8.38624 | 23° | 29km/h | 21393m | 4.7m/s | -53.8°C | 0.6% | 47.2hPa | 2.7V | 03:46:30 | 01:22:45 | 00:00:00 | |
| HSKMA3-T | 2026-08-30 18:04:31 | 50.01781 | 8.38620 | 23° | 29km/h | 21388m | 4.6m/s | -53.8°C | 0.6% | 47.2hPa | 2.7V | 03:46:30 | 01:22:44 | 00:00:00 | |
| DL1XH-west | 2026-08-30 18:04:26 | 50.01745 | 8.38597 | 11° | 27km/h | 21367m | 5.1m/s | -53.6°C | 0.7% | 47.4hPa | 2.7V | 03:46:30 | 01:22:39 | 00:00:00 | |
| BIOWL1-15 | 2026-08-30 18:04:25 | 50.01739 | 8.38596 | 2° | 26km/h | 21362m | 5.5m/s | -53.6°C | 0.8% | 47.4hPa | 2.7V | 03:46:30 | 01:22:38 | 00:00:00 | |
| DL0LBS | 2026-08-30 18:04:25 | 50.01739 | 8.38596 | 3° | 26km/h | 21362m | 5.5m/s | -53.6°C | 1.2% | 47.4hPa | 2.6V | 03:46:00 | 00:00:00 | 00:00:00 | |
| DO3MHA-11 | 2026-08-30 18:04:24 | 50.01733 | 8.38596 | 356° | 22km/h | 21357m | 4.4m/s | -53.6°C | 4.2% | 47.4hPa | 2.6V | 00:00:00 | 01:22:37 | 00:00:00 | |
| DL1XH1-15 | 2026-08-30 18:04:23 | 50.01701 | 8.38585 | 30° | 18km/h | 21330m | 5.5m/s | -53.7°C | 4.1% | 47.6hPa | 2.6V | 03:46:26 | 01:22:31 | 00:00:00 | |
| AA1-15 | 2026-08-30 18:04:21 | 50.01716 | 8.38595 | 15° | 22km/h | 21344m | 4.1m/s | -53.7°C | 0.6% | 47.5hPa | 2.7V | 03:46:30 | 01:22:34 | 00:00:00 | |
| DM0DOS-11 | 2026-08-30 18:04:20 | 50.01689 | 8.38572 | 30° | 22km/h | 21316m | 4.8m/s | -53.6°C | 4.1% | 47.7hPa | 2.7V | 03:46:29 | 01:22:28 | 00:00:00 | |
| HSKMA3-T | 2026-08-30 18:04:20 | 50.01711 | 8.38592 | 23° | 22km/h | 21340m | 3.7m/s | -53.7°C | 0.6% | 47.6hPa | 2.7V | 03:46:30 | 01:22:33 | 00:00:00 | |
| DL1XH-west | 2026-08-30 18:04:15 | 50.01689 | 8.38572 | 31° | 22km/h | 21316m | 4.8m/s | -53.6°C | 0.5% | 47.7hPa | 2.7V | 03:46:30 | 01:22:28 | 00:00:00 | |
| DO3MHA-11 | 2026-08-30 18:04:14 | 50.01683 | 8.38568 | 25° | 26km/h | 21312m | 4.6m/s | -53.6°C | 4.2% | 47.7hPa | 2.6V | 03:46:00 | 01:22:27 | 00:00:00 | |
| DL1ZP-14 | 2026-08-30 18:04:13 | 50.01678 | 8.38565 | 16° | 24km/h | 21307m | 4.4m/s | -53.6°C | 1.1% | 47.8hPa | 2.6V | 00:00:00 | 00:00:00 | 00:00:00 | |
| DF3TZ-5 | 2026-08-30 18:04:11 | 50.01659 | 8.38565 | 343° | 26km/h | 21293m | 3.9m/s | -53.5°C | 1.1% | 47.9hPa | 2.7V | 00:00:00 | 00:00:00 | 00:00:00 | |
| DM0DOS-11 | 2026-08-30 18:04:10 | 50.01628 | 8.38571 | 18° | 20km/h | 21272m | 4m/s | -53.5°C | 4.2% | 48.1hPa | 2.7V | 03:46:39 | 01:22:18 | 00:00:00 | |
| AA1-15 | 2026-08-30 18:04:10 | 50.01659 | 8.38565 | 343° | 27km/h | 21293m | 3.9m/s | -53.5°C | 0.7% | 47.9hPa | 2.7V | 03:47:21 | 01:22:23 | 00:00:00 | |
| HSKMA3-T | 2026-08-30 18:04:09 | 50.01652 | 8.38569 | 342° | 27km/h | 21289m | 3.7m/s | -53.6°C | 0.6% | 48hPa | 2.7V | 03:47:21 | 01:22:22 | 00:00:00 | |
| BIOWL1-15 | 2026-08-30 18:04:05 | 50.01629 | 8.38571 | 19° | 20km/h | 21272m | 4m/s | -53.5°C | 0.7% | 48.1hPa | 2.7V | 03:47:21 | 01:22:18 | 00:00:00 | |
| DL1XH-15 | 2026-08-30 18:04:04 | 50.01600 | 8.38553 | 13° | 26km/h | 21245m | 4.3m/s | -53.5°C | 3.9% | 48.3hPa | 2.7V | 03:46:45 | 01:22:12 | 00:00:00 | |
| DL1XH-west | 2026-08-30 18:04:04 | 50.01624 | 8.38568 | 24° | 18km/h | 21268m | 5m/s | -53.5°C | 0.6% | 48.1hPa | 2.7V | 03:47:21 | 01:22:17 | 00:00:00 | |
| DO3MHA-11 | 2026-08-30 18:04:04 | 50.01624 | 8.38568 | 24° | 22km/h | 21268m | 5.0m/s | -53.5°C | 4.1% | 48.1hPa | 2.7V | 00:00:00 | 01:22:17 | 00:00:00 | |
| DJ2DS-15 | 2026-08-30 18:04:02 | 50.01616 | 8.38562 | 28° | 18km/h | 21258m | 4.1m/s | -53.4°C | 1.1% | 48.2hPa | 2.6V | 00:00:00 | 00:00:00 | 00:00:00 | |
| DM0DOS-11 | 2026-08-30 18:04:00 | 50.01577 | 8.38552 | 347° | 16km/h | 21227m | 4m/s | -53.5°C | 4.2% | 48.4hPa | 2.6V | 03:46:49 | 01:22:08 | 00:00:00 | |
| HSKMA3-T | 2026-08-30 18:03:59 | 50.01600 | 8.38553 | 14° | 26km/h | 21245m | 4.3m/s | -53.5°C | 0.5% | 48.3hPa | 2.7V | 03:47:21 | 01:22:12 | 00:00:00 | |
| BIOWL1-15 | 2026-08-30 18:03:54 | 50.01571 | 8.38553 | 0° | 11km/h | 21220m | 4.7m/s | -53.5°C | 0.7% | 48.5hPa | 2.7V | 03:47:21 | 01:22:06 | 00:00:00 | |
| DL1XH-15 | 2026-08-30 18:03:54 | 50.01561 | 8.38545 | 40° | 11km/h | 21201m | 5m/s | -53.5°C | 4.1% | 48.6hPa | 2.6V | 03:46:55 | 01:22:02 | 00:00:00 | |
| DL1XH-west | 2026-08-30 18:03:54 | 50.01574 | 8.38553 | 349° | 13km/h | 21224m | 3.8m/s | -53.5°C | 0.7% | 48.5hPa | 2.7V | 03:47:21 | 01:22:07 | 00:00:00 | |
| DO3MHA-11 | 2026-08-30 18:03:54 | 50.01574 | 8.38553 | 349° | 13km/h | 21224m | 3.8m/s | -53.5°C | 4.2% | 48.4hPa | 2.7V | 00:00:00 | 01:22:07 | 00:00:00 | |
| DJ2KF-10 | 2026-08-30 18:03:53 | 50.01571 | 8.38553 | 1° | 13km/h | 21220m | 4.7m/s | -53.5°C | 4.2% | 48.4hPa | 2.7V | 00:00:00 | 01:22:06 | 00:00:00 | |
| DM0DOS-11 | 2026-08-30 18:03:50 | 50.01550 | 8.38537 | 11° | 16km/h | 21184m | 5.2m/s | -53.5°C | 4% | 48.8hPa | 2.6V | 03:46:59 | 01:21:58 | 00:00:00 | |
| HSKMA3-T | 2026-08-30 18:03:48 | 50.01559 | 8.38543 | 40° | 9km/h | 21196m | 4.5m/s | -53.5°C | 0.6% | 48.6hPa | 2.7V | 03:47:21 | 01:22:01 | 00:00:00 | |
| DF8AY | 2026-08-30 18:03:45 | 50.01550 | 8.38537 | 11° | 16km/h | 21184m | 5.2m/s | 0°C | 0% | 0hPa | 2.6V | 18:12:15 | 01:21:58 | 00:00:00 | |
| DL1XH-15 | 2026-08-30 18:03:44 | 50.01524 | 8.38538 | 355° | 7km/h | 21158m | 3.8m/s | -53.6°C | 4.2% | 48.9hPa | 2.6V | 03:47:05 | 01:21:52 | 00:00:00 | |
| DL1XH-west | 2026-08-30 18:03:43 | 50.01540 | 8.38536 | 2° | 22km/h | 21175m | 3.6m/s | -53.6°C | 0.5% | 48.8hPa | 2.7V | 03:47:21 | 01:21:56 | 00:00:00 | |
| DL1ZP-14 | 2026-08-30 18:03:42 | 50.01535 | 8.38536 | 356° | 20km/h | 21171m | 3.7m/s | -53.6°C | 1.1% | 48.8hPa | 2.7V | 00:00:00 | 00:00:00 | 00:00:00 | |
| DM7RM-13 | 2026-08-30 18:03:41 | 50.01534 | 8.38536 | 357° | 22km/h | 21171m | 3.7m/s | -53.6°C | 1.1% | 48.8hPa | 2.6V | 03:47:00 | 00:00:00 | 00:00:00 | |
| DM0DOS-11 | 2026-08-30 18:03:40 | 50.01518 | 8.38528 | 50° | 15km/h | 21141m | 3.8m/s | -53.6°C | 4.2% | 49hPa | 2.6V | 03:47:09 | 01:21:48 | 00:00:00 | |
| HSKMA3-T | 2026-08-30 18:03:37 | 50.01521 | 8.38536 | 58° | 7km/h | 21150m | 4.6m/s | -53.6°C | 0.7% | 49hPa | 2.7V | 03:47:21 | 01:21:50 | 00:00:00 | |
| SONDE2-11 | 2026-08-30 18:03:36 | 50.01518 | 8.38528 | 50° | 13km/h | 21141m | 3.8m/s | -53.6°C | 1.1% | 49.0hPa | 2.6V | 00:00:00 | 00:00:00 | 00:00:00 | |
| DL1XH-15 | 2026-08-30 18:03:34 | 50.01500 | 8.38520 | 351° | 11km/h | 21115m | 4.1m/s | -53.7°C | 4.2% | 49.3hPa | 2.6V | 03:47:15 | 01:21:42 | 00:00:00 | |
| DD1CC2-15 | 2026-08-30 18:03:34 | 50.01515 | 8.38524 | 40° | 15km/h | 21138m | 3.9m/s | -53.6°C | 1.2% | 49.1hPa | 2.6V | 03:47:00 | 00:00:00 | 00:00:00 | |
| DL1XH1-15 | 2026-08-30 18:03:33 | 50.01498 | 8.38521 | 4° | 11km/h | 21111m | 4.5m/s | -53.8°C | 4.1% | 49.3hPa | 2.6V | 03:47:16 | 01:21:41 | 00:00:00 | |
| BIOWL1-15 | 2026-08-30 18:03:33 | 50.01512 | 8.38521 | 28° | 15km/h | 21133m | 4.9m/s | -53.7°C | 0.6% | 49.1hPa | 2.6V | 03:47:21 | 01:21:46 | 00:00:00 | |
| DL1XH-west | 2026-08-30 18:03:32 | 50.01509 | 8.38520 | 12° | 13km/h | 21128m | 5m/s | -53.7°C | 0.6% | 49.2hPa | 2.7V | 03:47:21 | 01:21:45 | 00:00:00 | |
| CB1BUN | 2026-08-30 18:03:31 | 50.01509 | 8.38519 | 13° | 13km/h | 21128m | 5.0m/s | -53.7°C | 1.1% | 49.2hPa | 2.7V | 03:47:00 | 00:00:00 | 00:00:00 | |
| DM0DOS-11 | 2026-08-30 18:03:30 | 50.01488 | 8.38512 | 40° | 18km/h | 21098m | 3.8m/s | -53.8°C | 4.1% | 49.4hPa | 2.7V | 03:47:19 | 01:21:38 | 00:00:00 | |
| HSKMA3-T | 2026-08-30 18:03:27 | 50.01495 | 8.38519 | 24° | 13km/h | 21106m | 4.5m/s | -53.8°C | 0.5% | 49.3hPa | 2.6V | 03:47:21 | 01:21:40 | 00:00:00 | |
| DJ2DS-15 | 2026-08-30 18:03:26 | 50.01492 | 8.38516 | 35° | 16km/h | 21102m | 4.4m/s | -53.8°C | 1.1% | 49.4hPa | 2.7V | 00:00:00 | 00:00:00 | 00:00:00 | |
| DL8DAS-14 | 2026-08-30 18:03:25 | 50.01488 | 8.38512 | 40° | 18km/h | 21098m | 3.8m/s | -53.8°C | 1.1% | 49.4hPa | 2.7V | 00:00:00 | 00:00:00 | 00:00:00 | |
| DL1XH-15 | 2026-08-30 18:03:24 | 50.01472 | 8.38486 | 59° | 15km/h | 21072m | 5m/s | -53.9°C | 4.3% | 49.6hPa | 2.7V | 03:47:25 | 01:21:32 | 00:00:00 | |
| DO3MHA-11 | 2026-08-30 18:03:24 | 50.01484 | 8.38507 | 44° | 15km/h | 21094m | 4.0m/s | -53.9°C | 4.1% | 49.4hPa | 2.6V | 00:00:00 | 01:21:37 | 00:00:00 | |
| DL1XH1-15 | 2026-08-30 18:03:23 | 50.01470 | 8.38481 | 65° | 15km/h | 21067m | 4m/s | -53.9°C | 4.3% | 49.6hPa | 2.6V | 03:47:26 | 01:21:31 | 00:00:00 | |
| BIOWL1-15 | 2026-08-30 18:03:23 | 50.01481 | 8.38503 | 42° | 16km/h | 21089m | 5m/s | -54°C | 0.6% | 49.5hPa | 2.6V | 03:47:21 | 01:21:36 | 00:00:00 | |
| DL1XH-west | 2026-08-30 18:03:22 | 50.01478 | 8.38499 | 41° | 15km/h | 21085m | 4.4m/s | -54°C | 0.6% | 49.5hPa | 2.6V | 03:48:12 | 01:21:35 | 00:00:00 | |
| DM7RM-13 | 2026-08-30 18:03:21 | 50.01479 | 8.38498 | 42° | 15km/h | 21085m | 4.4m/s | -54.0°C | 1.2% | 49.5hPa | 2.7V | 03:48:00 | 00:00:00 | 00:00:00 | |
| DM0DOS-11 | 2026-08-30 18:03:20 | 50.01466 | 8.38466 | 67° | 11km/h | 21053m | 4.6m/s | -53.9°C | 4.4% | 49.8hPa | 2.7V | 03:47:29 | 01:21:28 | 00:00:00 | |
| HSKMA3-T | 2026-08-30 18:03:16 | 50.01467 | 8.38471 | 70° | 13km/h | 21058m | 5.4m/s | -53.9°C | 0.7% | 49.7hPa | 2.6V | 03:48:12 | 01:21:29 | 00:00:00 | |
| DB0ND-19 | 2026-08-30 18:03:16 | 50.01467 | 8.38471 | 69° | 11km/h | 21058m | 5.4m/s | -53.9°C | 1.1% | 49.7hPa | 2.7V | 00:00:00 | 00:00:00 | 00:00:00 | |
| DO3MHA-11 | 2026-08-30 18:03:14 | 50.01465 | 8.38462 | 58° | 16km/h | 21049m | 3.5m/s | -53.8°C | 4.3% | 49.7hPa | 2.7V | 00:00:00 | 01:21:27 | 00:00:00 | |
| DL1XH1-15 | 2026-08-30 18:03:13 | 50.01449 | 8.38430 | 55° | 15km/h | 21023m | 4.9m/s | -53.8°C | 4.2% | 50hPa | 2.7V | 03:47:36 | 01:21:21 | 00:00:00 | |
| DL1XH-west | 2026-08-30 18:03:12 | 50.01461 | 8.38453 | 53° | 18km/h | 21040m | 4.9m/s | -53.9°C | 0.6% | 49.9hPa | 2.6V | 03:48:12 | 01:21:25 | 00:00:00 | |
| HSKMA3-T | 2026-08-30 18:03:06 | 50.01446 | 8.38420 | 80° | 15km/h | 21014m | 4.1m/s | -53.7°C | 0.6% | 50hPa | 2.6V | 03:48:12 | 01:21:19 | 00:00:00 | |
| BIOWL1-15 | 2026-08-30 18:03:06 | 50.01446 | 8.38394 | 93° | 15km/h | 20996m | 5m/s | -53.6°C | 0.6% | 50.2hPa | 2.6V | 03:48:12 | 01:21:15 | 00:00:00 | |
| AA1-15 | 2026-08-30 18:03:05 | 50.01446 | 8.38414 | 86° | 16km/h | 21010m | 5.3m/s | -53.7°C | 0.6% | 50.1hPa | 2.6V | 03:48:12 | 01:21:18 | 00:00:00 | |
| SONDE2-11 | 2026-08-30 18:03:05 | 50.01445 | 8.38407 | 90° | 16km/h | 21005m | 4.3m/s | -53.7°C | 1.1% | 50.1hPa | 2.7V | 00:00:00 | 00:00:00 | 00:00:00 | |
| DL1XH-15 | 2026-08-30 18:03:04 | 50.01444 | 8.38383 | 43° | 9km/h | 20984m | 3.8m/s | -53.6°C | 4.2% | 50.3hPa | 2.7V | 03:47:45 | 01:21:12 | 00:00:00 | |
| DL1XH-west | 2026-08-30 18:03:01 | 50.01446 | 8.38389 | 87° | 11km/h | 20992m | 4.6m/s | -53.6°C | 0.6% | 50.2hPa | 2.6V | 03:48:12 | 01:21:14 | 00:00:00 | |
| HSKMA3-T | 2026-08-30 18:02:56 | 50.01435 | 8.38373 | 32° | 18km/h | 20969m | 3.9m/s | -53.6°C | 0.5% | 50.4hPa | 2.6V | 03:48:12 | 01:21:09 | 00:00:00 | |
| AA1-15 | 2026-08-30 18:02:54 | 50.01427 | 8.38367 | 18° | 16km/h | 20961m | 5m/s | -53.6°C | 0.6% | 50.5hPa | 2.6V | 03:48:12 | 01:21:07 | 00:00:00 | |
| DO3MHA-11 | 2026-08-30 18:02:54 | 50.01427 | 8.38367 | 18° | 9km/h | 20961m | 4.9m/s | -53.6°C | 4.2% | 50.4hPa | 2.6V | 03:47:00 | 01:21:07 | 00:00:00 | |
| DL1XH1-15 | 2026-08-30 18:02:53 | 50.01416 | 8.38354 | 71° | 7km/h | 20935m | 3.8m/s | -53.6°C | 4.2% | 50.7hPa | 2.6V | 03:47:56 | 01:21:01 | 00:00:00 | |
| DF8AY | 2026-08-30 18:02:52 | 50.01421 | 8.38364 | 19° | 11km/h | 20952m | 3.8m/s | 0°C | 0% | 0hPa | 2.7V | 18:12:15 | 01:21:05 | 00:00:00 | |
| BIOWL1-15 | 2026-08-30 18:02:51 | 50.01419 | 8.38363 | 32° | 9km/h | 20948m | 4.8m/s | -53.7°C | 0.6% | 50.6hPa | 2.7V | 03:48:12 | 01:21:04 | 00:00:00 | |
| DL1XH-west | 2026-08-30 18:02:50 | 50.01417 | 8.38360 | 54° | 9km/h | 20943m | 4.9m/s | -53.7°C | 0.5% | 50.6hPa | 2.7V | 03:48:12 | 01:21:03 | 00:00:00 | |
| HSKMA3-T | 2026-08-30 18:02:45 | 50.01414 | 8.38352 | 339° | 5km/h | 20921m | 4m/s | -53.6°C | 0.6% | 50.8hPa | 2.7V | 03:48:12 | 01:20:58 | 00:00:00 | |
| DB0ND-19 | 2026-08-30 18:02:45 | 50.01414 | 8.38352 | 338° | 4km/h | 20921m | 4.0m/s | -53.6°C | 1.1% | 50.8hPa | 2.6V | 00:00:00 | 00:00:00 | 00:00:00 | |
| AA1-15 | 2026-08-30 18:02:43 | 50.01410 | 8.38352 | 6° | 9km/h | 20912m | 5m/s | -53.5°C | 0.7% | 50.9hPa | 2.6V | 03:48:12 | 01:20:56 | 00:00:00 | |
| DL1XH1-15 | 2026-08-30 18:02:43 | 50.01393 | 8.38349 | 353° | 16km/h | 20890m | 4.9m/s | -53.5°C | 4.2% | 51hPa | 2.7V | 03:48:06 | 01:20:51 | 00:00:00 | |
| BIOWL1-15 | 2026-08-30 18:02:43 | 50.01405 | 8.38351 | 14° | 15km/h | 20904m | 3.7m/s | -53.5°C | 0.6% | 50.9hPa | 2.6V | 03:48:12 | 01:20:54 | 00:00:00 | |
| DL1KLB | 2026-08-30 18:02:42 | 50.01408 | 8.38352 | 14° | 13km/h | 20908m | 4.4m/s | -53.5°C | 1.1% | 50.9hPa | 2.6V | 03:48:00 | 00:00:00 | 00:00:00 | |
| DL8OAI-8 | 2026-08-30 18:02:41 | 50.01408 | 8.38352 | 14° | 13km/h | 20908m | 4.4m/s | -53.5°C | 1.2% | 50.9hPa | 2.6V | 03:48:00 | 00:00:00 | 00:00:00 | |
| DM0DOS-11 | 2026-08-30 18:02:40 | 50.01384 | 8.38350 | 2° | 7km/h | 20876m | 5m/s | -53.5°C | 4% | 51.2hPa | 2.6V | 03:48:09 | 01:20:48 | 00:00:00 | |
| DL1XH-west | 2026-08-30 18:02:40 | 50.01401 | 8.38349 | 9° | 16km/h | 20900m | 4.1m/s | -53.5°C | 0.6% | 51hPa | 2.6V | 03:48:12 | 01:20:53 | 00:00:00 | |
| DF8AY | 2026-08-30 18:02:39 | 50.01397 | 8.38349 | 2° | 16km/h | 20895m | 5.5m/s | 0°C | 0% | 0hPa | 2.7V | 18:12:15 | 01:20:52 | 00:00:00 | |
| DL4BBY-15 | 2026-08-30 18:02:38 | 50.01393 | 8.38349 | 354° | 16km/h | 20890m | 4.9m/s | -55.1°C | 0% | 0hPa | 2.7V | 00:00:00 | 00:00:00 | 00:00:00 | |
| DO2KSM | 2026-08-30 18:02:37 | 50.01393 | 8.38349 | 355° | 16km/h | 20890m | 4.9m/s | -53.5°C | 1.1% | 51.1hPa | 2.7V | 03:48:00 | 00:00:00 | 00:00:00 | |
| SONCRA | 2026-08-30 18:02:35 | 50.01384 | 8.38350 | 2° | 7km/h | 20876m | 5.0m/s | -53.5°C | 1.1% | 51.2hPa | 2.7V | 00:00:00 | 00:00:00 | 00:00:00 | |
| DL1XH-15 | 2026-08-30 18:02:34 | 50.01372 | 8.38354 | 338° | 13km/h | 20850m | 4.1m/s | -53.5°C | 4.1% | 51.3hPa | 2.7V | 03:48:15 | 01:20:42 | 00:00:00 | |
| HSKMA3-T | 2026-08-30 18:02:34 | 50.01382 | 8.38350 | 6° | 5km/h | 20871m | 3.9m/s | -53.5°C | 0.5% | 51.2hPa | 2.6V | 03:48:12 | 01:20:47 | 00:00:00 | |
| AA1-15 | 2026-08-30 18:02:32 | 50.01379 | 8.38350 | 349° | 7km/h | 20863m | 5.1m/s | -53.6°C | 0% | 51.2hPa | 2.7V | 03:48:12 | 01:20:45 | 00:00:00 | |
| DL1XH-west | 2026-08-30 18:02:30 | 50.01374 | 8.38353 | 338° | 11km/h | 20854m | 3.9m/s | -53.5°C | 0.5% | 51.4hPa | 2.6V | 03:49:03 | 01:20:43 | 00:00:00 | |
| DK5PH-5 | 2026-08-30 18:02:30 | 50.01374 | 8.38353 | 339° | 18km/h | 20854m | 3.9m/s | -53.5°C | 4.0% | 51.3hPa | 2.6V | 03:48:00 | 01:20:43 | 00:00:00 | |
| DJ2DS-15 | 2026-08-30 18:02:28 | 50.01369 | 8.38356 | 343° | 20km/h | 20846m | 5.2m/s | -53.5°C | 4.1% | 51.3hPa | 2.6V | 00:00:00 | 01:20:41 | 00:00:00 | |
| NBG1-10 | 2026-08-30 18:02:27 | 50.01366 | 8.38358 | 346° | 20km/h | 20841m | 4.2m/s | -53.5°C | 4.2% | 51.4hPa | 2.6V | 00:00:00 | 01:20:40 | 00:00:00 | |
| DD1CC8 | 2026-08-30 18:02:26 | 50.01358 | 8.38361 | 342° | 18km/h | 20832m | 5.0m/s | -53.5°C | 1.1% | 51.5hPa | 2.6V | 00:00:00 | 00:00:00 | 00:00:00 | |
| DL1XH-15 | 2026-08-30 18:02:24 | 50.01332 | 8.38373 | 357° | 11km/h | 20805m | 3.7m/s | -53.6°C | 4.1% | 51.7hPa | 2.6V | 03:48:25 | 01:20:32 | 00:00:00 | |
| HSKMA3-T | 2026-08-30 18:02:24 | 50.01353 | 8.38363 | 340° | 22km/h | 20827m | 5.1m/s | -53.6°C | 0.6% | 51.5hPa | 2.7V | 03:49:03 | 01:20:37 | 00:00:00 | |
| AA1-15 | 2026-08-30 18:02:21 | 50.01339 | 8.38371 | 344° | 16km/h | 20814m | 5.4m/s | -53.6°C | 0% | 51.6hPa | 2.6V | 03:50:45 | 01:20:34 | 00:00:00 | |
| DF7PN | 2026-08-30 18:02:21 | 50.01335 | 8.38373 | 351° | 11km/h | 20809m | 4.9m/s | -53.6°C | 1.1% | 51.7hPa | 2.7V | 00:00:00 | 00:00:00 | 00:00:00 | |
| DM0DOS-11 | 2026-08-30 18:02:20 | 50.01317 | 8.38377 | 342° | 20km/h | 20787m | 4.4m/s | -53.7°C | 4.1% | 51.9hPa | 2.7V | 03:48:29 | 01:20:28 | 00:00:00 | |
| DL1XH-west | 2026-08-30 18:02:19 | 50.01332 | 8.38373 | 358° | 11km/h | 20805m | 3.7m/s | -53.6°C | 0.6% | 51.7hPa | 2.6V | 03:49:03 | 01:20:32 | 00:00:00 | |
| DB0UT-7 | 2026-08-30 18:02:19 | 50.01332 | 8.38373 | 358° | 22km/h | 20805m | 3.7m/s | -53.5°C | 4.1% | 51.7hPa | 2.6V | 00:00:00 | 00:00:00 | 00:00:00 | |
| DO2KSM | 2026-08-30 18:02:17 | 50.01329 | 8.38373 | 357° | 13km/h | 20801m | 4.1m/s | -53.6°C | 1.1% | 51.7hPa | 2.7V | 03:49:00 | 00:00:00 | 00:00:00 | |
| DB0NH | 2026-08-30 18:02:16 | 50.01322 | 8.38375 | 346° | 20km/h | 20792m | 4.4m/s | -53.6°C | 4.2% | 51.8hPa | 2.7V | 00:00:00 | 01:20:29 | 00:00:00 | |
| DO3DL | 2026-08-30 18:02:15 | 50.01322 | 8.38375 | 346° | 18km/h | 20792m | 4.5m/s | -53.7°C | 1.1% | 51.8hPa | 2.7V | 03:49:00 | 00:00:00 | 00:00:00 | |
| DL1XH-15 | 2026-08-30 18:02:14 | 50.01283 | 8.38407 | 324° | 31km/h | 20760m | 3.9m/s | -53.7°C | 4.2% | 52.1hPa | 2.7V | 03:48:35 | 01:20:22 | 00:00:00 | |
| HSKMA3-T | 2026-08-30 18:02:13 | 50.01307 | 8.38383 | 336° | 22km/h | 20777m | 4.2m/s | -53.7°C | 0.6% | 51.9hPa | 2.6V | 03:49:03 | 01:20:26 | 00:00:00 | |
| DF8AY | 2026-08-30 18:02:10 | 50.01289 | 8.38399 | 326° | 33km/h | 20764m | 4.9m/s | 0°C | 0% | 0hPa | 2.7V | 18:12:15 | 01:20:23 | 00:00:00 | |
| DM0DOS-11 | 2026-08-30 18:02:10 | 50.01264 | 8.38428 | 325° | 16km/h | 20741m | 4.4m/s | -53.7°C | 4.2% | 52.2hPa | 2.6V | 03:48:39 | 01:20:18 | 00:00:00 | |
| DL1XH-west | 2026-08-30 18:02:09 | 50.01283 | 8.38407 | 324° | 31km/h | 20760m | 3.9m/s | -53.7°C | 0.6% | 52.1hPa | 2.7V | 03:49:03 | 01:20:22 | 00:00:00 | |
| DL1ZP-14 | 2026-08-30 18:02:09 | 50.01277 | 8.38414 | 322° | 27km/h | 20756m | 4.5m/s | -53.7°C | 1.2% | 52.1hPa | 2.6V | 00:00:00 | 00:00:00 | 00:00:00 | |
| DL4BBY-15 | 2026-08-30 18:02:08 | 50.01277 | 8.38414 | 323° | 20km/h | 20755m | 4.4m/s | -55.3°C | 0% | 0hPa | 2.6V | 00:00:00 | 00:00:00 | 00:00:00 | |
| DN1GJH-1 | 2026-08-30 18:02:06 | 50.01271 | 8.38419 | 324° | 24km/h | 20751m | 5.3m/s | -53.7°C | 1.2% | 52.2hPa | 2.6V | 00:00:00 | 00:00:00 | 00:00:00 | |
| DL1XH-15 | 2026-08-30 18:02:04 | 50.01243 | 8.38447 | 330° | 18km/h | 20714m | 4m/s | -53.8°C | 4.2% | 52.5hPa | 2.6V | 03:48:45 | 01:20:12 | 00:00:00 | |
| DO3MHA-11 | 2026-08-30 18:02:04 | 50.01260 | 8.38432 | 327° | 22km/h | 20737m | 5.1m/s | -53.6°C | 4.3% | 52.2hPa | 2.7V | 00:00:00 | 01:20:17 | 00:00:00 | |
| DL1XH1-15 | 2026-08-30 18:02:03 | 50.01239 | 8.38452 | 326° | 24km/h | 20710m | 4.5m/s | -53.8°C | 4.2% | 52.5hPa | 2.7V | 03:48:46 | 01:20:11 | 00:00:00 | |
| HSKMA3-T | 2026-08-30 18:02:03 | 50.01257 | 8.38435 | 328° | 16km/h | 20732m | 4.3m/s | -53.7°C | 0.7% | 52.3hPa | 2.7V | 03:49:03 | 01:20:16 | 00:00:00 | |
| DL3OBA | 2026-08-30 18:02:02 | 50.01257 | 8.38435 | 329° | 16km/h | 20732m | 4.3m/s | 0°C | 0% | 0hPa | 2.6V | 00:00:00 | 00:00:00 | 00:00:00 | |
| DL0LBS | 2026-08-30 18:02:01 | 50.01254 | 8.38438 | 331° | 16km/h | 20728m | 4.1m/s | -53.7°C | 1.2% | 52.4hPa | 2.6V | 03:49:00 | 00:00:00 | 00:00:00 | |
| DM0DOS-11 | 2026-08-30 18:02:00 | 50.01221 | 8.38472 | 320° | 33km/h | 20696m | 2.7m/s | -53.6°C | 4.2% | 52.6hPa | 2.6V | 03:48:49 | 01:20:08 | 00:00:00 | |
| DL1XH-west | 2026-08-30 18:01:59 | 50.01243 | 8.38447 | 330° | 18km/h | 20714m | 4m/s | -53.8°C | 0.6% | 52.5hPa | 2.6V | 03:49:03 | 01:20:12 | 00:00:00 | |
| BIOWL1-15 | 2026-08-30 18:01:58 | 50.01239 | 8.38452 | 327° | 24km/h | 20710m | 4.5m/s | -53.8°C | 0.6% | 52.5hPa | 2.7V | 03:49:03 | 01:20:11 | 00:00:00 | |
| DC4HF-4 | 2026-08-30 18:01:57 | 50.01233 | 8.38457 | 324° | 27km/h | 20705m | 5.6m/s | -53.7°C | 1.1% | 52.6hPa | 2.7V | 00:00:00 | 00:00:00 | 00:00:00 | |
| DO3DL | 2026-08-30 18:01:56 | 50.01233 | 8.38457 | 325° | 27km/h | 20705m | 5.6m/s | -53.7°C | 1.1% | 52.6hPa | 2.7V | 03:49:00 | 00:00:00 | 00:00:00 | |
| DJTTGO | 2026-08-30 18:01:55 | 50.01221 | 8.38472 | 322° | 33km/h | 20696m | 2.7m/s | -53.7°C | 1.1% | 52.6hPa | 2.7V | 03:49:00 | 00:00:00 | 00:00:00 | |
| DL1XH-15 | 2026-08-30 18:01:54 | 50.01204 | 8.38494 | 83° | 9km/h | 20669m | 4.5m/s | -53.3°C | 4.2% | 52.8hPa | 2.7V | 03:48:55 | 01:20:02 | 00:00:00 | |
| HSKMA3-T | 2026-08-30 18:01:53 | 50.01210 | 8.38488 | 315° | 24km/h | 20690m | 4.5m/s | -53.6°C | 0.6% | 52.6hPa | 2.7V | 03:49:03 | 01:20:06 | 00:00:00 | |
| DL8DAS-14 | 2026-08-30 18:01:52 | 50.01206 | 8.38493 | 310° | 15km/h | 20685m | 5.9m/s | -53.5°C | 1.1% | 52.7hPa | 2.6V | 00:00:00 | 00:00:00 | 00:00:00 | |
| DM0DOS-11 | 2026-08-30 18:01:51 | 50.01193 | 8.38473 | 26° | 22km/h | 20651m | 4.4m/s | -53.2°C | 4.1% | 53hPa | 2.6V | 03:48:59 | 01:19:58 | 00:00:00 | |
| BIOWL1-15 | 2026-08-30 18:01:49 | 50.01201 | 8.38483 | 55° | 20km/h | 20659m | 4.8m/s | -53.3°C | 0.6% | 52.9hPa | 2.7V | 03:49:03 | 01:20:00 | 00:00:00 | |
| DL1XH-west | 2026-08-30 18:01:48 | 50.01203 | 8.38489 | 71° | 15km/h | 20665m | 5.4m/s | -53.3°C | 0.6% | 52.9hPa | 2.7V | 03:49:03 | 01:20:01 | 00:00:00 | |
| DJ2DS-15 | 2026-08-30 18:01:48 | 50.01203 | 8.38489 | 72° | 16km/h | 20665m | 5.3m/s | -53.3°C | 4.2% | 52.8hPa | 2.7V | 00:00:00 | 01:20:01 | 00:00:00 | |
| DB0NH | 2026-08-30 18:01:46 | 50.01197 | 8.38477 | 41° | 15km/h | 20655m | 3.8m/s | -53.2°C | 4.2% | 52.9hPa | 2.6V | 00:00:00 | 01:19:59 | 00:00:00 | |
| DL1XH-15 | 2026-08-30 18:01:44 | 50.01167 | 8.38492 | 312° | 20km/h | 20622m | 5.2m/s | -53°C | 4% | 53.2hPa | 2.6V | 03:49:05 | 01:19:52 | 00:00:00 | |
| DO3MHA-11 | 2026-08-30 18:01:44 | 50.01188 | 8.38470 | 10° | 18km/h | 20646m | 5.6m/s | -53.1°C | 4.0% | 53.0hPa | 2.6V | 00:00:00 | 01:19:57 | 00:00:00 | |
| DL1XH1-15 | 2026-08-30 18:01:43 | 50.01163 | 8.38497 | 322° | 15km/h | 20617m | 5.4m/s | -53°C | 4.1% | 53.2hPa | 2.6V | 03:49:06 | 01:19:51 | 00:00:00 | |
| HSKMA3-T | 2026-08-30 18:01:42 | 50.01179 | 8.38474 | 326° | 22km/h | 20636m | 4.3m/s | -53.1°C | 0.5% | 53.1hPa | 2.7V | 03:49:03 | 01:19:55 | 00:00:00 | |
| DL0LBS | 2026-08-30 18:01:41 | 50.01178 | 8.38474 | 327° | 22km/h | 20636m | 4.3m/s | -53.1°C | 1.1% | 53.1hPa | 2.7V | 03:49:00 | 00:00:00 | 00:00:00 | |
| DM0DOS-11 | 2026-08-30 18:01:40 | 50.01156 | 8.38495 | 58° | 13km/h | 20601m | 4.8m/s | -52.8°C | 4% | 53.4hPa | 2.7V | 03:49:09 | 01:19:48 | 00:00:00 | |
| DL1XH-west | 2026-08-30 18:01:37 | 50.01161 | 8.38499 | 352° | 11km/h | 20612m | 5.4m/s | -52.9°C | 0.5% | 53.3hPa | 2.6V | 03:49:54 | 01:19:50 | 00:00:00 | |
| DO3DL | 2026-08-30 18:01:36 | 50.01161 | 8.38499 | 353° | 11km/h | 20612m | 5.4m/s | -52.9°C | 1.1% | 53.3hPa | 2.7V | 03:49:00 | 00:00:00 | 00:00:00 | |
| DO2KSM | 2026-08-30 18:01:35 | 50.01158 | 8.38498 | 35° | 11km/h | 20607m | 5.3m/s | -52.9°C | 1.1% | 53.3hPa | 2.7V | 03:49:00 | 00:00:00 | 00:00:00 | |
| DO3MHA-11 | 2026-08-30 18:01:34 | 50.01155 | 8.38490 | 65° | 13km/h | 20597m | 4.2m/s | -52.8°C | 4.0% | 53.4hPa | 2.7V | 03:49:00 | 01:19:47 | 00:00:00 | |
| DL1XH1-15 | 2026-08-30 18:01:33 | 50.01143 | 8.38490 | 329° | 16km/h | 20566m | 5.2m/s | -53°C | 3.9% | 53.7hPa | 2.7V | 03:49:16 | 01:19:41 | 00:00:00 | |
| AA1-15 | 2026-08-30 18:01:33 | 50.01153 | 8.38486 | 62° | 11km/h | 20593m | 4.7m/s | -52.9°C | 0% | 53.5hPa | 2.6V | 03:50:45 | 01:19:46 | 00:00:00 | |
| HSKMA3-T | 2026-08-30 18:01:32 | 50.01152 | 8.38483 | 43° | 7km/h | 20587m | 5.6m/s | -52.8°C | 0.5% | 53.5hPa | 2.6V | 03:49:54 | 01:19:45 | 00:00:00 | |
| DL8DAS-15 | 2026-08-30 18:01:31 | 50.01152 | 8.38483 | 44° | 7km/h | 20587m | 5.6m/s | -52.8°C | 1.1% | 53.5hPa | 2.6V | 00:00:00 | 00:00:00 | 00:00:00 | |
| DM0DOS-11 | 2026-08-30 18:01:30 | 50.01131 | 8.38492 | 19° | 16km/h | 20551m | 3.8m/s | -53.1°C | 4.1% | 53.8hPa | 2.6V | 03:49:19 | 01:19:38 | 00:00:00 | |
| DL1XH-west | 2026-08-30 18:01:27 | 50.01139 | 8.38492 | 343° | 16km/h | 20561m | 5.9m/s | -53.1°C | 0.5% | 53.7hPa | 2.7V | 03:49:54 | 01:19:40 | 00:00:00 | |
| BIOWL1-15 | 2026-08-30 18:01:26 | 50.01135 | 8.38493 | 1° | 16km/h | 20555m | 5m/s | -53.1°C | 0.6% | 53.8hPa | 2.6V | 03:49:54 | 01:19:39 | 00:00:00 | |
| DD1CC8 | 2026-08-30 18:01:24 | 50.01124 | 8.38486 | 44° | 11km/h | 20543m | 5.1m/s | -53.2°C | 1.1% | 53.9hPa | 2.7V | 00:00:00 | 00:00:00 | 00:00:00 | |
| DL1XH1-15 | 2026-08-30 18:01:23 | 50.01123 | 8.38473 | 92° | 7km/h | 20518m | 6m/s | -53.2°C | 4.1% | 54.1hPa | 2.7V | 03:49:26 | 01:19:31 | 00:00:00 | |
| HSKMA3-T | 2026-08-30 18:01:22 | 50.01123 | 8.38483 | 63° | 7km/h | 20537m | 5.7m/s | -53.1°C | 0.6% | 54hPa | 2.7V | 03:49:54 | 01:19:35 | 00:00:00 | |
| NBG1-10 | 2026-08-30 18:01:21 | 50.01122 | 8.38481 | 94° | 13km/h | 20532m | 4.6m/s | -53.1°C | 4.1% | 53.9hPa | 2.6V | 00:00:00 | 01:19:34 | 00:00:00 | |
| DM0DOS-11 | 2026-08-30 18:01:20 | 50.01122 | 8.38464 | 62° | 5km/h | 20504m | 5.2m/s | -53.2°C | 4.1% | 54.2hPa | 2.6V | 03:49:29 | 01:19:28 | 00:00:00 | |
| DL1XH-west | 2026-08-30 18:01:16 | 50.01123 | 8.38467 | 71° | 7km/h | 20508m | 4.2m/s | -53.2°C | 0.6% | 54.1hPa | 2.6V | 03:49:54 | 01:19:29 | 00:00:00 | |
| AA1-15 | 2026-08-30 18:01:14 | 50.01122 | 8.38462 | 56° | 5km/h | 20498m | 5m/s | -53.2°C | 0% | 54.2hPa | 2.7V | 03:50:45 | 01:19:27 | 00:00:00 | |
| DO3MHA-11 | 2026-08-30 18:01:14 | 50.01121 | 8.38462 | 57° | 11km/h | 20499m | 4.9m/s | -53.1°C | 4.1% | 54.2hPa | 2.7V | 00:00:00 | 01:19:27 | 00:00:00 | |
| DL1XH1-15 | 2026-08-30 18:01:13 | 50.01116 | 8.38439 | 76° | 13km/h | 20470m | 5.7m/s | -53.1°C | 4.1% | 54.5hPa | 2.7V | 03:49:36 | 01:19:21 | 00:00:00 | |
| HSKMA3-T | 2026-08-30 18:01:11 | 50.01119 | 8.38454 | 71° | 13km/h | 20484m | 5.1m/s | -53.1°C | 0.6% | 54.4hPa | 2.6V | 03:49:54 | 01:19:24 | 00:00:00 | |
| DL1XH-west | 2026-08-30 18:01:05 | 50.01112 | 8.38427 | 54° | 13km/h | 20456m | 4.5m/s | -53°C | 0.6% | 54.6hPa | 2.6V | 03:49:54 | 01:19:18 | 00:00:00 | |
| AA1-15 | 2026-08-30 18:01:04 | 50.01110 | 8.38423 | 46° | 15km/h | 20452m | 4.7m/s | -53°C | 0% | 54.7hPa | 2.6V | 03:50:45 | 01:19:17 | 00:00:00 | |
| HSKMA3-T | 2026-08-30 18:01:01 | 50.01102 | 8.38415 | 13° | 13km/h | 20438m | 5.6m/s | -52.9°C | 0.6% | 54.8hPa | 2.7V | 03:49:54 | 01:19:14 | 00:00:00 | |
| DO1YAY-16 | 2026-08-30 18:01:01 | 50.01099 | 8.38414 | 1° | 11km/h | 20433m | 4.8m/s | -52.9°C | 1.1% | 54.8hPa | 2.6V | 00:00:00 | 00:00:00 | 00:00:00 | |
| DM0DOS-11 | 2026-08-30 18:01:00 | 50.01080 | 8.38404 | 37° | 18km/h | 20411m | 4.1m/s | -52.8°C | 4% | 55hPa | 2.6V | 03:49:49 | 01:19:08 | 00:00:00 | |
| DK5PH-5 | 2026-08-30 18:01:00 | 50.01099 | 8.38414 | 2° | 18km/h | 20433m | 4.7m/s | -52.8°C | 4.0% | 54.8hPa | 2.6V | 00:00:00 | 01:19:13 | 00:00:00 | |
| DO8TBO-1 | 2026-08-30 18:00:59 | 50.01096 | 8.38414 | 2° | 20km/h | 20429m | 4.2m/s | -52.8°C | 4.0% | 54.8hPa | 2.6V | 03:49:00 | 01:19:12 | 00:00:00 | |
| DL1KLB | 2026-08-30 18:00:58 | 50.01095 | 8.38414 | 3° | 13km/h | 20429m | 4.2m/s | -52.9°C | 1.1% | 54.9hPa | 2.6V | 03:49:00 | 00:00:00 | 00:00:00 | |
| DM7RM-13 | 2026-08-30 18:00:57 | 50.01092 | 8.38413 | 12° | 15km/h | 20424m | 4.6m/s | -52.8°C | 1.1% | 54.9hPa | 2.6V | 03:49:00 | 00:00:00 | 00:00:00 | |
| DO3DL | 2026-08-30 18:00:56 | 50.01088 | 8.38412 | 22° | 18km/h | 20420m | 5.0m/s | -52.8°C | 1.1% | 54.9hPa | 2.6V | 03:49:00 | 00:00:00 | 00:00:00 | |
| DO2KSM | 2026-08-30 18:00:55 | 50.01084 | 8.38408 | 32° | 18km/h | 20415m | 4.0m/s | -52.8°C | 1.1% | 55.0hPa | 2.6V | 03:49:00 | 00:00:00 | 00:00:00 | |
| DL1XH-15 | 2026-08-30 18:00:54 | 50.01062 | 8.38384 | 16° | 18km/h | 20382m | 5.1m/s | -52.9°C | 4% | 55.2hPa | 2.6V | 03:49:55 | 01:19:02 | 00:00:00 | |
| DL1XH-west | 2026-08-30 18:00:54 | 50.01077 | 8.38400 | 41° | 16km/h | 20406m | 5.4m/s | -52.8°C | 0.5% | 55hPa | 2.6V | 03:49:54 | 01:19:07 | 00:00:00 | |
| DD1CC8 | 2026-08-30 18:00:53 | 50.01071 | 8.38392 | 41° | 11km/h | 20396m | 4.5m/s | -52.7°C | 1.1% | 55.1hPa | 2.7V | 00:00:00 | 00:00:00 | 00:00:00 | |
| DF1GD-15 | 2026-08-30 18:00:51 | 50.01071 | 8.38392 | 42° | 13km/h | 20396m | 4.5m/s | -52.7°C | 1.1% | 55.1hPa | 2.7V | 03:49:00 | 00:00:00 | 00:00:00 | |
| DM0DOS-11 | 2026-08-30 18:00:50 | 50.01041 | 8.38383 | 351° | 18km/h | 20363m | 5.2m/s | -53°C | 4% | 55.4hPa | 2.7V | 03:49:59 | 01:18:58 | 00:00:00 | |
| HSKMA3-T | 2026-08-30 18:00:50 | 50.01066 | 8.38386 | 25° | 15km/h | 20387m | 5m/s | -52.8°C | 0.5% | 55.2hPa | 2.7V | 03:49:54 | 01:19:03 | 00:00:00 | |
| DF7PN | 2026-08-30 18:00:47 | 50.01041 | 8.38383 | 351° | 18km/h | 20363m | 5.2m/s | -53.0°C | 1.1% | 55.4hPa | 2.6V | 00:00:00 | 00:00:00 | 00:00:00 | |
| BIOWL1-15 | 2026-08-30 18:00:46 | 50.01037 | 8.38384 | 352° | 18km/h | 20359m | 4.1m/s | -53°C | 0.5% | 55.4hPa | 2.6V | 03:50:45 | 01:18:57 | 00:00:00 | |
| DC4HF-4 | 2026-08-30 18:00:45 | 50.01041 | 8.38383 | 351° | 18km/h | 20363m | 5.2m/s | -53.0°C | 1.1% | 55.4hPa | 2.7V | 00:00:00 | 00:00:00 | 00:00:00 | |
| DL1XH-15 | 2026-08-30 18:00:44 | 50.01011 | 8.38383 | 7° | 22km/h | 20336m | 4.5m/s | -53.1°C | 4% | 55.6hPa | 2.7V | 03:50:05 | 01:18:52 | 00:00:00 | |
| DL1XH-west | 2026-08-30 18:00:43 | 50.01032 | 8.38385 | 352° | 18km/h | 20355m | 4.5m/s | -53°C | 0.5% | 55.5hPa | 2.6V | 03:50:45 | 01:18:56 | 00:00:00 | |
| AA1-15 | 2026-08-30 18:00:42 | 50.01027 | 8.38385 | 359° | 20km/h | 20350m | 5.1m/s | -53.1°C | 0% | 55.5hPa | 2.6V | 03:50:45 | 01:18:55 | 00:00:00 | |
| DB0ND-19 | 2026-08-30 18:00:41 | 50.01016 | 8.38384 | 6° | 22km/h | 20340m | 4.1m/s | -53.1°C | 1.1% | 55.6hPa | 2.7V | 00:00:00 | 00:00:00 | 00:00:00 | |
| DM0DOS-11 | 2026-08-30 18:00:40 | 50.00991 | 8.38378 | 16° | 22km/h | 20316m | 5m/s | -53.1°C | 4% | 55.8hPa | 2.7V | 03:50:09 | 01:18:48 | 00:00:00 | |
| HSKMA3-T | 2026-08-30 18:00:39 | 50.01010 | 8.38383 | 8° | 22km/h | 20336m | 4.5m/s | -53.1°C | 0.6% | 55.6hPa | 2.7V | 03:50:45 | 01:18:52 | 00:00:00 | |
| DL4BBY-15 | 2026-08-30 18:00:38 | 50.01005 | 8.38382 | 9° | 24km/h | 20331m | 5.6m/s | -54.7°C | 0% | 0hPa | 2.7V | 00:00:00 | 00:00:00 | 00:00:00 | |
| DL8DAS-15 | 2026-08-30 18:00:37 | 50.01005 | 8.38382 | 9° | 20km/h | 20331m | 5.6m/s | -53.1°C | 1.2% | 55.7hPa | 2.7V | 00:00:00 | 00:00:00 | 00:00:00 | |
| DM7RM-13 | 2026-08-30 18:00:36 | 50.01001 | 8.38381 | 10° | 18km/h | 20326m | 4.9m/s | -53.1°C | 1.1% | 55.7hPa | 2.7V | 03:50:00 | 00:00:00 | 00:00:00 | |
| DL1ZP-14 | 2026-08-30 18:00:35 | 50.00991 | 8.38378 | 16° | 20km/h | 20317m | 5.0m/s | -53.1°C | 1.1% | 55.8hPa | 2.7V | 00:00:00 | 00:00:00 | 00:00:00 | |
| DL1XH-15 | 2026-08-30 18:00:34 | 50.00955 | 8.38356 | 15° | 24km/h | 20289m | 4m/s | -53.1°C | 4.1% | 56hPa | 2.7V | 03:50:15 | 01:18:42 | 00:00:00 | |
| DO3MHA-11 | 2026-08-30 18:00:34 | 50.00985 | 8.38375 | 21° | 27km/h | 20312m | 4.8m/s | -53.1°C | 4.0% | 55.8hPa | 2.7V | 00:00:00 | 01:18:47 | 00:00:00 | |
| DL1XH1-15 | 2026-08-30 18:00:33 | 50.00949 | 8.38353 | 10° | 26km/h | 20285m | 4m/s | -53.1°C | 4.1% | 56.1hPa | 2.7V | 03:50:16 | 01:18:41 | 00:00:00 | |
| DL1XH-west | 2026-08-30 18:00:33 | 50.00979 | 8.38371 | 23° | 27km/h | 20307m | 4.2m/s | -53.1°C | 0.5% | 55.9hPa | 2.6V | 03:50:45 | 01:18:46 | 00:00:00 | |
| AA1-15 | 2026-08-30 18:00:31 | 50.00967 | 8.38362 | 24° | 26km/h | 20298m | 5.2m/s | -53.1°C | 0% | 0hPa | 2.6V | 03:50:45 | 01:18:44 | 00:00:00 | |
| HSKMA3-T | 2026-08-30 18:00:28 | 50.00949 | 8.38353 | 10° | 26km/h | 20285m | 4m/s | -53.1°C | 0.6% | 56.1hPa | 2.7V | 03:50:45 | 01:18:41 | 00:00:00 | |
| DJ2DS-15 | 2026-08-30 18:00:28 | 50.00949 | 8.38353 | 11° | 26km/h | 20285m | 3.9m/s | -53.1°C | 4.1% | 56.0hPa | 2.7V | 00:00:00 | 01:18:41 | 00:00:00 | |
| DL8DAS-15 | 2026-08-30 18:00:27 | 50.00949 | 8.38353 | 11° | 26km/h | 20285m | 4.0m/s | -53.1°C | 1.2% | 56.1hPa | 2.7V | 00:00:00 | 00:00:00 | 00:00:00 | |
| DJ2DS-15 | 2026-08-30 18:00:26 | 50.00934 | 8.38351 | 2° | 29km/h | 20276m | 4.7m/s | -53.1°C | 1.1% | 56.1hPa | 2.7V | 00:00:00 | 00:00:00 | 00:00:00 | |
| CB1BUN | 2026-08-30 18:00:25 | 50.00934 | 8.38351 | 3° | 31km/h | 20276m | 4.7m/s | -53.1°C | 1.1% | 56.2hPa | 2.7V | 00:00:00 | 00:00:00 | 00:00:00 | |
| DL1XH-15 | 2026-08-30 18:00:24 | 50.00894 | 8.38351 | 14° | 20km/h | 20244m | 4.4m/s | -53.1°C | 4% | 56.4hPa | 2.7V | 03:50:25 | 01:18:32 | 00:00:00 | |
| DO3MHA-11 | 2026-08-30 18:00:24 | 50.00919 | 8.38351 | 355° | 22km/h | 20267m | 4.5m/s | -53.0°C | 4.0% | 56.2hPa | 2.6V | 00:00:00 | 01:18:37 | 00:00:00 | |
| DL1XH1-15 | 2026-08-30 18:00:23 | 50.00889 | 8.38349 | 15° | 22km/h | 20241m | 3.4m/s | -53.1°C | 4% | 56.5hPa | 2.6V | 03:50:26 | 01:18:31 | 00:00:00 | |
| DL1XH-west | 2026-08-30 18:00:23 | 50.00913 | 8.38353 | 353° | 24km/h | 20262m | 5.5m/s | -53.1°C | 0.5% | 56.3hPa | 2.7V | 03:50:45 | 01:18:36 | 00:00:00 | |
| AA1-15 | 2026-08-30 18:00:21 | 50.00903 | 8.38354 | 3° | 16km/h | 20253m | 3.5m/s | -53.1°C | 0% | 0hPa | 2.6V | 03:50:45 | 01:18:34 | 00:00:00 | |
| DM0DOS-11 | 2026-08-30 18:00:20 | 50.00872 | 8.38345 | 4° | 22km/h | 20227m | 5.2m/s | -53.1°C | 4% | 56.6hPa | 2.7V | 03:50:29 | 01:18:28 | 00:00:00 | |
| HSKMA3-T | 2026-08-30 18:00:17 | 50.00884 | 8.38347 | 12° | 24km/h | 20237m | 4.4m/s | -53.1°C | 0.5% | 56.5hPa | 2.6V | 03:50:45 | 01:18:30 | 00:00:00 | |
| DB0NH | 2026-08-30 18:00:16 | 50.00878 | 8.38345 | 10° | 24km/h | 20232m | 5.1m/s | -53.0°C | 4.0% | 56.5hPa | 2.7V | 00:00:00 | 01:18:29 | 00:00:00 | |
| NBG1-10 | 2026-08-30 18:00:15 | 50.00872 | 8.38345 | 5° | 24km/h | 20227m | 5.1m/s | -53.1°C | 4.0% | 56.5hPa | 2.7V | 00:00:00 | 01:18:28 | 00:00:00 | |
| DL1XH-15 | 2026-08-30 18:00:14 | 50.00832 | 8.38346 | 353° | 26km/h | 20198m | 5.2m/s | -53.4°C | 4.1% | 56.9hPa | 2.7V | 03:50:35 | 01:18:22 | 00:00:00 | |
| DO3MHA-11 | 2026-08-30 18:00:14 | 50.00867 | 8.38344 | 359° | 26km/h | 20222m | 4.4m/s | -53.1°C | 4.0% | 56.6hPa | 2.7V | 03:50:00 | 01:18:27 | 00:00:00 | |
| DL1XH1-15 | 2026-08-30 18:00:13 | 50.00826 | 8.38348 | 347° | 24km/h | 20193m | 5.1m/s | -53.5°C | 4.2% | 56.9hPa | 2.7V | 03:50:36 | 01:18:21 | 00:00:00 | |
| DL1XH-west | 2026-08-30 18:00:12 | 50.00853 | 8.38345 | 359° | 29km/h | 20213m | 5.2m/s | -53.3°C | 0.5% | 56.7hPa | 2.6V | 03:50:45 | 01:18:25 | 00:00:00 | |
| AA1-15 | 2026-08-30 18:00:11 | 50.00839 | 8.38346 | 358° | 29km/h | 20203m | 4.4m/s | -53.4°C | 0% | 0hPa | 2.6V | 03:50:45 | 01:18:23 | 00:00:00 | |
| HSKMA3-T | 2026-08-30 18:00:07 | 50.00820 | 8.38350 | 344° | 20km/h | 20189m | 3.8m/s | -53.5°C | 0.6% | 56.9hPa | 2.6V | 03:50:45 | 01:18:20 | 00:00:00 | |
| DD1CC2-15 | 2026-08-30 18:00:05 | 50.00815 | 8.38352 | 346° | 20km/h | 20185m | 3.8m/s | -53.5°C | 1.2% | 57.0hPa | 2.6V | 03:50:00 | 00:00:00 | 00:00:00 | |
| DL1XH-15 | 2026-08-30 18:00:04 | 50.00773 | 8.38365 | 337° | 27km/h | 20152m | 4m/s | -53.2°C | 4.1% | 57.2hPa | 2.6V | 03:50:45 | 01:18:12 | 00:00:00 | |
| DO3MHA-11 | 2026-08-30 18:00:04 | 50.00805 | 8.38355 | 354° | 27km/h | 20176m | 5.0m/s | -53.3°C | 4.2% | 57.0hPa | 2.7V | 00:00:00 | 01:18:17 | 00:00:00 | |
| DL1XH1-15 | 2026-08-30 18:00:03 | 50.00767 | 8.38370 | 337° | 27km/h | 20148m | 4.6m/s | -53.2°C | 4.2% | 57.3hPa | 2.7V | 03:50:46 | 01:18:11 | 00:00:00 | |
| BIOWL1-15 | 2026-08-30 18:00:02 | 50.00792 | 8.38357 | 353° | 26km/h | 20166m | 4.1m/s | -53.3°C | 0.6% | 57.1hPa | 2.7V | 03:50:45 | 01:18:15 | 00:00:00 | |
| DL1XH-west | 2026-08-30 18:00:01 | 50.00786 | 8.38359 | 347° | 26km/h | 20162m | 5m/s | -53.3°C | 0.6% | 57.2hPa | 2.6V | 03:50:45 | 01:18:14 | 00:00:00 | |
| Es werden nur die letzten 3500 von 5332 Frames angezeigt. GPX/KML und Diagramme bleiben verfügbar. | |||||||||||||||